<?xml version='1.0' encoding='UTF-8'?><gpx version="1.1" creator="JPX - https://github.com/jenetics/jpx" xmlns="http://www.topografix.com/GPX/1/1"><trk><trkseg><trkpt lat="45.14110542350123" lon="10.007529534450793"><ele>43.25</ele><time>2026-04-08T15:39:14.999Z</time></trkpt><trkpt lat="45.141113190619066" lon="10.007403583306095"><ele>42.5</ele><time>2026-04-08T15:39:19.999Z</time></trkpt><trkpt lat="45.140932400853" lon="10.007348179861454"><ele>41.75</ele><time>2026-04-08T15:39:23.999Z</time></trkpt><trkpt lat="45.140813051637814" lon="10.007348337445743"><ele>41.0</ele><time>2026-04-08T15:39:25.999Z</time></trkpt><trkpt lat="45.14074842180875" lon="10.007340362786735"><ele>41.0</ele><time>2026-04-08T15:39:26.999Z</time></trkpt><trkpt lat="45.14062165556814" lon="10.007351379347533"><ele>41.0</ele><time>2026-04-08T15:39:28.999Z</time></trkpt><trkpt lat="45.14055358566011" lon="10.007355909061316"><ele>41.0</ele><time>2026-04-08T15:39:29.999Z</time></trkpt><trkpt lat="45.14048222301578" lon="10.007355870041728"><ele>41.0</ele><time>2026-04-08T15:39:30.999Z</time></trkpt><trkpt lat="45.14041371667387" lon="10.007362036166908"><ele>41.0</ele><time>2026-04-08T15:39:31.999Z</time></trkpt><trkpt lat="45.140341704565046" lon="10.007381101081592"><ele>41.0</ele><time>2026-04-08T15:39:32.999Z</time></trkpt><trkpt lat="45.14026880460362" lon="10.007406299172837"><ele>40.99999999999999</ele><time>2026-04-08T15:39:33.999Z</time></trkpt><trkpt lat="45.14020346078322" lon="10.007450934163199"><ele>41.0</ele><time>2026-04-08T15:39:34.999Z</time></trkpt><trkpt lat="45.14015082080521" lon="10.0075237727717"><ele>41.0</ele><time>2026-04-08T15:39:35.999Z</time></trkpt><trkpt lat="45.14008519869261" lon="10.007559417013157"><ele>41.0</ele><time>2026-04-08T15:39:36.999Z</time></trkpt><trkpt lat="45.14002811909973" lon="10.007616948227811"><ele>41.0</ele><time>2026-04-08T15:39:37.999Z</time></trkpt><trkpt lat="45.13997086679757" lon="10.00767663895747"><ele>40.99999999999999</ele><time>2026-04-08T15:39:38.999Z</time></trkpt><trkpt lat="45.13991592082433" lon="10.007734026604506"><ele>41.0</ele><time>2026-04-08T15:39:39.999Z</time></trkpt><trkpt lat="45.139860474124866" lon="10.00779251803943"><ele>41.166666666666664</ele><time>2026-04-08T15:39:40.999Z</time></trkpt><trkpt lat="45.13979980037574" lon="10.00784907689198"><ele>41.33333333333333</ele><time>2026-04-08T15:39:41.999Z</time></trkpt><trkpt lat="45.13973939089268" lon="10.007903710783982"><ele>41.5</ele><time>2026-04-08T15:39:42.999Z</time></trkpt><trkpt lat="45.1396812274616" lon="10.0079578720544"><ele>41.666666666666664</ele><time>2026-04-08T15:39:43.999Z</time></trkpt><trkpt lat="45.139623062210546" lon="10.008017046795612"><ele>41.833333333333336</ele><time>2026-04-08T15:39:44.999Z</time></trkpt><trkpt lat="45.13956852262459" lon="10.008072157587057"><ele>42.0</ele><time>2026-04-08T15:39:45.999Z</time></trkpt><trkpt lat="45.13946122684304" lon="10.008171325631507"><ele>42.0</ele><time>2026-04-08T15:39:47.999Z</time></trkpt><trkpt lat="45.13935272072235" lon="10.008255151267363"><ele>42.0</ele><time>2026-04-08T15:39:49.999Z</time></trkpt><trkpt lat="45.1392548300238" lon="10.008348614030584"><ele>42.0</ele><time>2026-04-08T15:39:51.999Z</time></trkpt><trkpt lat="45.13916580528083" lon="10.008436091090369"><ele>42.0</ele><time>2026-04-08T15:39:53.999Z</time></trkpt><trkpt lat="45.139082164674775" lon="10.008520033024165"><ele>41.4</ele><time>2026-04-08T15:39:55.999Z</time></trkpt><trkpt lat="45.138987485122136" lon="10.008595335658827"><ele>40.800000000000004</ele><time>2026-04-08T15:39:57.999Z</time></trkpt><trkpt lat="45.13889105828122" lon="10.00868412480126"><ele>40.2</ele><time>2026-04-08T15:39:59.999Z</time></trkpt><trkpt lat="45.13881099052665" lon="10.00876218466467"><ele>39.6</ele><time>2026-04-08T15:40:01.999Z</time></trkpt><trkpt lat="45.13872806765978" lon="10.008830201951925"><ele>39.0</ele><time>2026-04-08T15:40:03.999Z</time></trkpt><trkpt lat="45.138650158488694" lon="10.008893201171814"><ele>39.0</ele><time>2026-04-08T15:40:05.999Z</time></trkpt><trkpt lat="45.138580650835934" lon="10.00895569772459"><ele>39.0</ele><time>2026-04-08T15:40:07.999Z</time></trkpt><trkpt lat="45.13850933264769" lon="10.009023503266022"><ele>39.0</ele><time>2026-04-08T15:40:09.999Z</time></trkpt><trkpt lat="45.13843785421132" lon="10.009095723976618"><ele>39.0</ele><time>2026-04-08T15:40:11.999Z</time></trkpt><trkpt lat="45.13837108921727" lon="10.00916606399689"><ele>39.0</ele><time>2026-04-08T15:40:13.999Z</time></trkpt><trkpt lat="45.13830182321609" lon="10.009228380663762"><ele>39.0</ele><time>2026-04-08T15:40:15.999Z</time></trkpt><trkpt lat="45.13820512461291" lon="10.009298335267149"><ele>39.142857142857146</ele><time>2026-04-08T15:40:17.999Z</time></trkpt><trkpt lat="45.138101092262566" lon="10.009379946469892"><ele>39.285714285714285</ele><time>2026-04-08T15:40:19.999Z</time></trkpt><trkpt lat="45.13804719552377" lon="10.009429074926251"><ele>39.42857142857143</ele><time>2026-04-08T15:40:20.999Z</time></trkpt><trkpt lat="45.13799550451992" lon="10.00948168021196"><ele>39.57142857142857</ele><time>2026-04-08T15:40:21.999Z</time></trkpt><trkpt lat="45.13793418760104" lon="10.00952589574975"><ele>39.714285714285715</ele><time>2026-04-08T15:40:22.999Z</time></trkpt><trkpt lat="45.13787725917373" lon="10.00957149126288"><ele>39.857142857142854</ele><time>2026-04-08T15:40:23.999Z</time></trkpt><trkpt lat="45.13782243066089" lon="10.009618982575196"><ele>40.0</ele><time>2026-04-08T15:40:24.999Z</time></trkpt><trkpt lat="45.13776529848699" lon="10.009665206198397"><ele>40.0</ele><time>2026-04-08T15:40:25.999Z</time></trkpt><trkpt lat="45.13770780020065" lon="10.009716964381939"><ele>40.0</ele><time>2026-04-08T15:40:26.999Z</time></trkpt><trkpt lat="45.13765217491483" lon="10.009773296337768"><ele>40.0</ele><time>2026-04-08T15:40:27.999Z</time></trkpt><trkpt lat="45.1375941807278" lon="10.009827101534837"><ele>40.0</ele><time>2026-04-08T15:40:28.999Z</time></trkpt><trkpt lat="45.137538688661344" lon="10.009881615447718"><ele>40.0</ele><time>2026-04-08T15:40:29.999Z</time></trkpt><trkpt lat="45.13748065252434" lon="10.009934247999768"><ele>40.0</ele><time>2026-04-08T15:40:31.001Z</time></trkpt><trkpt lat="45.137427495814755" lon="10.009993083106739"><ele>40.0</ele><time>2026-04-08T15:40:32.001Z</time></trkpt><trkpt lat="45.137374494497024" lon="10.010046345810661"><ele>40.0</ele><time>2026-04-08T15:40:33Z</time></trkpt><trkpt lat="45.13732138295928" lon="10.010099960790091"><ele>40.0</ele><time>2026-04-08T15:40:34Z</time></trkpt><trkpt lat="45.13726697526369" lon="10.01015249390578"><ele>40.0</ele><time>2026-04-08T15:40:35Z</time></trkpt><trkpt lat="45.137207763432784" lon="10.010208103971378"><ele>40.0</ele><time>2026-04-08T15:40:36Z</time></trkpt><trkpt lat="45.1371464644947" lon="10.010265038648427"><ele>40.0</ele><time>2026-04-08T15:40:37Z</time></trkpt><trkpt lat="45.13708817837489" lon="10.01032015272654"><ele>40.0</ele><time>2026-04-08T15:40:38Z</time></trkpt><trkpt lat="45.13702710284799" lon="10.010380605816506"><ele>40.0</ele><time>2026-04-08T15:40:39Z</time></trkpt><trkpt lat="45.136972413485104" lon="10.010440025478177"><ele>40.0</ele><time>2026-04-08T15:40:40Z</time></trkpt><trkpt lat="45.1369113636489" lon="10.010492118869431"><ele>40.0</ele><time>2026-04-08T15:40:41Z</time></trkpt><trkpt lat="45.13684484660653" lon="10.0105392486628"><ele>40.0</ele><time>2026-04-08T15:40:42Z</time></trkpt><trkpt lat="45.136783224340796" lon="10.010592287240076"><ele>40.0</ele><time>2026-04-08T15:40:43Z</time></trkpt><trkpt lat="45.13672076696324" lon="10.010647927103664"><ele>40.0</ele><time>2026-04-08T15:40:44Z</time></trkpt><trkpt lat="45.136658628985785" lon="10.01070965842889"><ele>40.0</ele><time>2026-04-08T15:40:45Z</time></trkpt><trkpt lat="45.13660239571656" lon="10.01076712429556"><ele>40.0</ele><time>2026-04-08T15:40:46Z</time></trkpt><trkpt lat="45.136548760105995" lon="10.01082035472936"><ele>40.2</ele><time>2026-04-08T15:40:47Z</time></trkpt><trkpt lat="45.13646000295637" lon="10.010901254792689"><ele>40.4</ele><time>2026-04-08T15:40:49Z</time></trkpt><trkpt lat="45.13638508999901" lon="10.01094766389252"><ele>40.599999999999994</ele><time>2026-04-08T15:40:52Z</time></trkpt><trkpt lat="45.13632016143849" lon="10.011013687146704"><ele>40.8</ele><time>2026-04-08T15:40:54Z</time></trkpt><trkpt lat="45.13624976780047" lon="10.011078450159934"><ele>41.0</ele><time>2026-04-08T15:40:56Z</time></trkpt><trkpt lat="45.13614392797669" lon="10.011163867699535"><ele>41.0</ele><time>2026-04-08T15:40:58Z</time></trkpt><trkpt lat="45.13605268466921" lon="10.01126846829799"><ele>41.0</ele><time>2026-04-08T15:41:00Z</time></trkpt><trkpt lat="45.135962519299284" lon="10.011350538472687"><ele>41.0</ele><time>2026-04-08T15:41:02Z</time></trkpt><trkpt lat="45.13587017363027" lon="10.011256693366159"><ele>41.0</ele><time>2026-04-08T15:41:04Z</time></trkpt><trkpt lat="45.13580785180327" lon="10.011109431311798"><ele>41.0</ele><time>2026-04-08T15:41:06Z</time></trkpt><trkpt lat="45.135728297566615" lon="10.010963277111449"><ele>41.0</ele><time>2026-04-08T15:41:08Z</time></trkpt><trkpt lat="45.1356896660493" lon="10.010882782348933"><ele>41.0</ele><time>2026-04-08T15:41:09Z</time></trkpt><trkpt lat="45.1356484001754" lon="10.010807109631415"><ele>41.0</ele><time>2026-04-08T15:41:10Z</time></trkpt><trkpt lat="45.135613652263174" lon="10.010729586531067"><ele>41.0</ele><time>2026-04-08T15:41:11Z</time></trkpt><trkpt lat="45.13557965814296" lon="10.010652988779025"><ele>41.0</ele><time>2026-04-08T15:41:12Z</time></trkpt><trkpt lat="45.135544871617654" lon="10.010577942331667"><ele>40.857142857142854</ele><time>2026-04-08T15:41:13Z</time></trkpt><trkpt lat="45.135507326127204" lon="10.01049336797441"><ele>40.714285714285715</ele><time>2026-04-08T15:41:14Z</time></trkpt><trkpt lat="45.13546880594787" lon="10.010411959868385"><ele>40.57142857142857</ele><time>2026-04-08T15:41:15Z</time></trkpt><trkpt lat="45.13543117384205" lon="10.010337095012348"><ele>40.42857142857143</ele><time>2026-04-08T15:41:16Z</time></trkpt><trkpt lat="45.13539785263809" lon="10.010255828780725"><ele>40.285714285714285</ele><time>2026-04-08T15:41:17Z</time></trkpt><trkpt lat="45.13535929005742" lon="10.010174837203975"><ele>40.14285714285714</ele><time>2026-04-08T15:41:18Z</time></trkpt><trkpt lat="45.1353231816236" lon="10.010089711223525"><ele>40.0</ele><time>2026-04-08T15:41:18.999Z</time></trkpt><trkpt lat="45.13528889347478" lon="10.010007070444246"><ele>40.333333333333336</ele><time>2026-04-08T15:41:19.999Z</time></trkpt><trkpt lat="45.1352551750416" lon="10.009919529845336"><ele>40.66666666666667</ele><time>2026-04-08T15:41:20.999Z</time></trkpt><trkpt lat="45.13522081702745" lon="10.00983625347426"><ele>41.0</ele><time>2026-04-08T15:41:21.999Z</time></trkpt><trkpt lat="45.13518153840962" lon="10.009748184271604"><ele>41.333333333333336</ele><time>2026-04-08T15:41:22.999Z</time></trkpt><trkpt lat="45.1351438816938" lon="10.00966743621396"><ele>41.666666666666664</ele><time>2026-04-08T15:41:23.999Z</time></trkpt><trkpt lat="45.13510652624305" lon="10.009575059808755"><ele>42.0</ele><time>2026-04-08T15:41:24.999Z</time></trkpt><trkpt lat="45.13505322247468" lon="10.009395391662478"><ele>42.0</ele><time>2026-04-08T15:41:26.999Z</time></trkpt><trkpt lat="45.13503073052859" lon="10.009303559248185"><ele>42.0</ele><time>2026-04-08T15:41:27.999Z</time></trkpt><trkpt lat="45.13501917776144" lon="10.009209787528912"><ele>42.0</ele><time>2026-04-08T15:41:28.999Z</time></trkpt><trkpt lat="45.135013711131485" lon="10.009104614321192"><ele>42.0</ele><time>2026-04-08T15:41:29.999Z</time></trkpt><trkpt lat="45.13500494667169" lon="10.009007315851528"><ele>42.0</ele><time>2026-04-08T15:41:30.999Z</time></trkpt><trkpt lat="45.134997426322045" lon="10.008905973345538"><ele>42.0</ele><time>2026-04-08T15:41:31.999Z</time></trkpt><trkpt lat="45.134989723850325" lon="10.008809824940068"><ele>42.0</ele><time>2026-04-08T15:41:32.999Z</time></trkpt><trkpt lat="45.13497699416022" lon="10.008707476732518"><ele>41.857142857142854</ele><time>2026-04-08T15:41:33.999Z</time></trkpt><trkpt lat="45.13496319020696" lon="10.008605257244303"><ele>41.714285714285715</ele><time>2026-04-08T15:41:34.999Z</time></trkpt><trkpt lat="45.13495015165231" lon="10.00850613712862"><ele>41.57142857142857</ele><time>2026-04-08T15:41:35.999Z</time></trkpt><trkpt lat="45.134938200274014" lon="10.008409227049118"><ele>41.42857142857143</ele><time>2026-04-08T15:41:36.999Z</time></trkpt><trkpt lat="45.13492551781553" lon="10.008308353541413"><ele>41.285714285714285</ele><time>2026-04-08T15:41:37.999Z</time></trkpt><trkpt lat="45.13491117491361" lon="10.008209989953897"><ele>41.14285714285714</ele><time>2026-04-08T15:41:38.999Z</time></trkpt><trkpt lat="45.134897516697535" lon="10.00811051576341"><ele>41.0</ele><time>2026-04-08T15:41:39.999Z</time></trkpt><trkpt lat="45.134887831788454" lon="10.008013173688122"><ele>40.99999999999999</ele><time>2026-04-08T15:41:40.999Z</time></trkpt><trkpt lat="45.13487396412662" lon="10.007917598676354"><ele>41.0</ele><time>2026-04-08T15:41:41.999Z</time></trkpt><trkpt lat="45.13486337186591" lon="10.007819475773049"><ele>41.0</ele><time>2026-04-08T15:41:42.999Z</time></trkpt><trkpt lat="45.13484763225026" lon="10.007722983478205"><ele>41.0</ele><time>2026-04-08T15:41:43.999Z</time></trkpt><trkpt lat="45.13483902087877" lon="10.007620593620555"><ele>41.0</ele><time>2026-04-08T15:41:44.999Z</time></trkpt><trkpt lat="45.13482875248164" lon="10.007526321681343"><ele>40.99999999999999</ele><time>2026-04-08T15:41:45.999Z</time></trkpt><trkpt lat="45.13482097424444" lon="10.007426412050805"><ele>41.0</ele><time>2026-04-08T15:41:46.999Z</time></trkpt><trkpt lat="45.13481302751604" lon="10.007324965618402"><ele>40.857142857142854</ele><time>2026-04-08T15:41:47.999Z</time></trkpt><trkpt lat="45.13479985478054" lon="10.007227347067543"><ele>40.714285714285715</ele><time>2026-04-08T15:41:48.999Z</time></trkpt><trkpt lat="45.13478756515061" lon="10.007131151782989"><ele>40.57142857142857</ele><time>2026-04-08T15:41:49.999Z</time></trkpt><trkpt lat="45.13477470148078" lon="10.007036273344614"><ele>40.42857142857143</ele><time>2026-04-08T15:41:50.999Z</time></trkpt><trkpt lat="45.13476285102054" lon="10.00694004639863"><ele>40.285714285714285</ele><time>2026-04-08T15:41:51.999Z</time></trkpt><trkpt lat="45.13475176313943" lon="10.006841067978693"><ele>40.14285714285714</ele><time>2026-04-08T15:41:52.999Z</time></trkpt><trkpt lat="45.13474265396814" lon="10.006741699120115"><ele>40.0</ele><time>2026-04-08T15:41:53.999Z</time></trkpt><trkpt lat="45.134735527615575" lon="10.006646602693518"><ele>39.833333333333336</ele><time>2026-04-08T15:41:54.999Z</time></trkpt><trkpt lat="45.134736577412454" lon="10.006548534071078"><ele>39.66666666666667</ele><time>2026-04-08T15:41:55.999Z</time></trkpt><trkpt lat="45.13471085825919" lon="10.006460531670388"><ele>39.5</ele><time>2026-04-08T15:41:56.999Z</time></trkpt><trkpt lat="45.134715277372" lon="10.00637077735196"><ele>39.333333333333336</ele><time>2026-04-08T15:41:57.999Z</time></trkpt><trkpt lat="45.134681021392915" lon="10.006192956774"><ele>39.166666666666664</ele><time>2026-04-08T15:41:59.999Z</time></trkpt><trkpt lat="45.134664314319494" lon="10.006089715935238"><ele>39.0</ele><time>2026-04-08T15:42:00.999Z</time></trkpt><trkpt lat="45.13465453484646" lon="10.005986817054053"><ele>39.0</ele><time>2026-04-08T15:42:01.999Z</time></trkpt><trkpt lat="45.13464248288005" lon="10.005884878373665"><ele>39.0</ele><time>2026-04-08T15:42:02.999Z</time></trkpt><trkpt lat="45.13463670347159" lon="10.005786316520183"><ele>39.0</ele><time>2026-04-08T15:42:03.999Z</time></trkpt><trkpt lat="45.13462674630268" lon="10.005690312236053"><ele>39.0</ele><time>2026-04-08T15:42:04.999Z</time></trkpt><trkpt lat="45.134616121297924" lon="10.0056007903243"><ele>39.0</ele><time>2026-04-08T15:42:05.999Z</time></trkpt><trkpt lat="45.13460716238772" lon="10.005455580521275"><ele>39.0</ele><time>2026-04-08T15:42:07.999Z</time></trkpt><trkpt lat="45.134616498371585" lon="10.00531265324507"><ele>39.0</ele><time>2026-04-08T15:42:09.999Z</time></trkpt><trkpt lat="45.134571772883376" lon="10.005205336128189"><ele>39.0</ele><time>2026-04-08T15:42:11.999Z</time></trkpt><trkpt lat="45.134458167664846" lon="10.005244691511678"><ele>39.0</ele><time>2026-04-08T15:42:13.999Z</time></trkpt><trkpt lat="45.13435178041909" lon="10.005314376947531"><ele>39.0</ele><time>2026-04-08T15:42:15.999Z</time></trkpt><trkpt lat="45.134288814285846" lon="10.005336963158344"><ele>39.0</ele><time>2026-04-08T15:42:16.999Z</time></trkpt><trkpt lat="45.134226939766414" lon="10.005356062644758"><ele>39.0</ele><time>2026-04-08T15:42:17.999Z</time></trkpt><trkpt lat="45.13415524664079" lon="10.005367646685732"><ele>39.0</ele><time>2026-04-08T15:42:18.999Z</time></trkpt><trkpt lat="45.134087605673265" lon="10.005383096800516"><ele>39.0</ele><time>2026-04-08T15:42:19.999Z</time></trkpt><trkpt lat="45.13402429072802" lon="10.005392607600063"><ele>39.0</ele><time>2026-04-08T15:42:20.999Z</time></trkpt><trkpt lat="45.13395919645476" lon="10.005405866832833"><ele>39.0</ele><time>2026-04-08T15:42:21.998Z</time></trkpt><trkpt lat="45.13389380763928" lon="10.005417243965868"><ele>39.0</ele><time>2026-04-08T15:42:22.998Z</time></trkpt><trkpt lat="45.13382483287993" lon="10.00542896927652"><ele>39.0</ele><time>2026-04-08T15:42:23.998Z</time></trkpt><trkpt lat="45.13375735039395" lon="10.005441379103107"><ele>38.85714285714286</ele><time>2026-04-08T15:42:24.998Z</time></trkpt><trkpt lat="45.133688901841126" lon="10.005455764751977"><ele>38.71428571428571</ele><time>2026-04-08T15:42:25.998Z</time></trkpt><trkpt lat="45.13362256693746" lon="10.005475036195282"><ele>38.57142857142857</ele><time>2026-04-08T15:42:26.998Z</time></trkpt><trkpt lat="45.133553365124236" lon="10.005489150503445"><ele>38.42857142857143</ele><time>2026-04-08T15:42:27.998Z</time></trkpt><trkpt lat="45.13348690516908" lon="10.005499793779537"><ele>38.28571428571429</ele><time>2026-04-08T15:42:28.998Z</time></trkpt><trkpt lat="45.13341773687061" lon="10.005513359907194"><ele>38.14285714285714</ele><time>2026-04-08T15:42:29.998Z</time></trkpt><trkpt lat="45.13335241392572" lon="10.005535801758477"><ele>38.0</ele><time>2026-04-08T15:42:30.998Z</time></trkpt><trkpt lat="45.133284057590515" lon="10.005558521189062"><ele>38.14285714285714</ele><time>2026-04-08T15:42:31.998Z</time></trkpt><trkpt lat="45.13321963245374" lon="10.005575668572197"><ele>38.28571428571429</ele><time>2026-04-08T15:42:32.998Z</time></trkpt><trkpt lat="45.13315272831125" lon="10.005598313244068"><ele>38.42857142857143</ele><time>2026-04-08T15:42:33.998Z</time></trkpt><trkpt lat="45.13308259712489" lon="10.005614179622688"><ele>38.57142857142857</ele><time>2026-04-08T15:42:34.998Z</time></trkpt><trkpt lat="45.13301208251415" lon="10.005628089756593"><ele>38.71428571428571</ele><time>2026-04-08T15:42:36Z</time></trkpt><trkpt lat="45.13294144427927" lon="10.005640183839944"><ele>38.85714285714286</ele><time>2026-04-08T15:42:37Z</time></trkpt><trkpt lat="45.13287487139861" lon="10.005654309457338"><ele>39.0</ele><time>2026-04-08T15:42:38Z</time></trkpt><trkpt lat="45.13280918581121" lon="10.005663820665545"><ele>39.0</ele><time>2026-04-08T15:42:39Z</time></trkpt><trkpt lat="45.132742264373285" lon="10.005676143923207"><ele>39.0</ele><time>2026-04-08T15:42:40Z</time></trkpt><trkpt lat="45.13266700804008" lon="10.005699221117386"><ele>39.0</ele><time>2026-04-08T15:42:42Z</time></trkpt><trkpt lat="45.13259000131619" lon="10.005727629171995"><ele>39.0</ele><time>2026-04-08T15:42:45Z</time></trkpt><trkpt lat="45.13249795457681" lon="10.00573504591605"><ele>39.0</ele><time>2026-04-08T15:42:47Z</time></trkpt><trkpt lat="45.13238668271323" lon="10.005757342706978"><ele>39.0</ele><time>2026-04-08T15:42:49Z</time></trkpt><trkpt lat="45.13226471866261" lon="10.005781730942783"><ele>39.166666666666664</ele><time>2026-04-08T15:42:51Z</time></trkpt><trkpt lat="45.132199529161966" lon="10.005800745464478"><ele>39.333333333333336</ele><time>2026-04-08T15:42:52Z</time></trkpt><trkpt lat="45.13213496559573" lon="10.005814624549135"><ele>39.5</ele><time>2026-04-08T15:42:53Z</time></trkpt><trkpt lat="45.132073069658965" lon="10.005833217052219"><ele>39.66666666666667</ele><time>2026-04-08T15:42:54Z</time></trkpt><trkpt lat="45.13200849794635" lon="10.005845381491246"><ele>39.833333333333336</ele><time>2026-04-08T15:42:55Z</time></trkpt><trkpt lat="45.13188369227015" lon="10.005871267375422"><ele>40.0</ele><time>2026-04-08T15:42:57Z</time></trkpt><trkpt lat="45.131764604118324" lon="10.005899260053448"><ele>40.0</ele><time>2026-04-08T15:42:59Z</time></trkpt><trkpt lat="45.13164454051215" lon="10.005925739555693"><ele>40.0</ele><time>2026-04-08T15:43:01Z</time></trkpt><trkpt lat="45.131527413629065" lon="10.005953738905115"><ele>40.0</ele><time>2026-04-08T15:43:03Z</time></trkpt><trkpt lat="45.13140575809648" lon="10.005977185861989"><ele>40.0</ele><time>2026-04-08T15:43:05Z</time></trkpt><trkpt lat="45.13128743643374" lon="10.00600392989328"><ele>40.0</ele><time>2026-04-08T15:43:07Z</time></trkpt><trkpt lat="45.13116873047031" lon="10.00603329150385"><ele>40.0</ele><time>2026-04-08T15:43:09Z</time></trkpt><trkpt lat="45.13104676298714" lon="10.006076130981583"><ele>40.0</ele><time>2026-04-08T15:43:11Z</time></trkpt><trkpt lat="45.13097886371044" lon="10.006100861826559"><ele>40.0</ele><time>2026-04-08T15:43:12Z</time></trkpt><trkpt lat="45.13090932324071" lon="10.006124112088202"><ele>40.0</ele><time>2026-04-08T15:43:13Z</time></trkpt><trkpt lat="45.13083867831733" lon="10.006128497696753"><ele>40.0</ele><time>2026-04-08T15:43:14Z</time></trkpt><trkpt lat="45.13077270605577" lon="10.006131828302891"><ele>40.0</ele><time>2026-04-08T15:43:15Z</time></trkpt><trkpt lat="45.130707799911725" lon="10.006146099702342"><ele>40.0</ele><time>2026-04-08T15:43:16Z</time></trkpt><trkpt lat="45.1306410041975" lon="10.006167139965914"><ele>40.0</ele><time>2026-04-08T15:43:17Z</time></trkpt><trkpt lat="45.13057765013909" lon="10.00617685684885"><ele>40.0</ele><time>2026-04-08T15:43:18Z</time></trkpt><trkpt lat="45.130508119016454" lon="10.006189902452238"><ele>40.0</ele><time>2026-04-08T15:43:19Z</time></trkpt><trkpt lat="45.13044396748826" lon="10.006206977964426"><ele>40.0</ele><time>2026-04-08T15:43:20Z</time></trkpt><trkpt lat="45.13037959877571" lon="10.006218512951817"><ele>40.285714285714285</ele><time>2026-04-08T15:43:21Z</time></trkpt><trkpt lat="45.13031086687503" lon="10.006231739387257"><ele>40.57142857142857</ele><time>2026-04-08T15:43:22Z</time></trkpt><trkpt lat="45.13024600663657" lon="10.006250701084499"><ele>40.85714285714286</ele><time>2026-04-08T15:43:23Z</time></trkpt><trkpt lat="45.13017643770677" lon="10.006266862391369"><ele>41.14285714285714</ele><time>2026-04-08T15:43:24Z</time></trkpt><trkpt lat="45.130109088569256" lon="10.006281397647209"><ele>41.42857142857143</ele><time>2026-04-08T15:43:24.999Z</time></trkpt><trkpt lat="45.13003966630183" lon="10.006301628689169"><ele>41.714285714285715</ele><time>2026-04-08T15:43:25.999Z</time></trkpt><trkpt lat="45.1299756008364" lon="10.006317654873962"><ele>42.0</ele><time>2026-04-08T15:43:26.999Z</time></trkpt><trkpt lat="45.12990641610738" lon="10.006336417838241"><ele>41.857142857142854</ele><time>2026-04-08T15:43:27.999Z</time></trkpt><trkpt lat="45.129839273064285" lon="10.006354356938031"><ele>41.714285714285715</ele><time>2026-04-08T15:43:28.999Z</time></trkpt><trkpt lat="45.129774848391506" lon="10.006370968174625"><ele>41.57142857142857</ele><time>2026-04-08T15:43:29.999Z</time></trkpt><trkpt lat="45.12970674538155" lon="10.006386917567838"><ele>41.42857142857143</ele><time>2026-04-08T15:43:30.999Z</time></trkpt><trkpt lat="45.12963990964858" lon="10.00639316266482"><ele>41.285714285714285</ele><time>2026-04-08T15:43:31.999Z</time></trkpt><trkpt lat="45.12956818717362" lon="10.006390688570393"><ele>41.14285714285714</ele><time>2026-04-08T15:43:32.999Z</time></trkpt><trkpt lat="45.12949809890857" lon="10.006398697640108"><ele>41.0</ele><time>2026-04-08T15:43:33.999Z</time></trkpt><trkpt lat="45.129427672273636" lon="10.00641101278315"><ele>40.99999999999999</ele><time>2026-04-08T15:43:34.999Z</time></trkpt><trkpt lat="45.1293610184362" lon="10.006428289998263"><ele>41.0</ele><time>2026-04-08T15:43:35.999Z</time></trkpt><trkpt lat="45.12928822200421" lon="10.006441105266818"><ele>41.0</ele><time>2026-04-08T15:43:36.999Z</time></trkpt><trkpt lat="45.1292194502562" lon="10.006458735676377"><ele>41.0</ele><time>2026-04-08T15:43:37.999Z</time></trkpt><trkpt lat="45.12915179884791" lon="10.006476864759277"><ele>41.0</ele><time>2026-04-08T15:43:38.999Z</time></trkpt><trkpt lat="45.12908064741324" lon="10.006493012320803"><ele>40.99999999999999</ele><time>2026-04-08T15:43:39.999Z</time></trkpt><trkpt lat="45.12901103497023" lon="10.006497954648518"><ele>41.0</ele><time>2026-04-08T15:43:40.999Z</time></trkpt><trkpt lat="45.128946933184295" lon="10.006512887498864"><ele>40.71428571428571</ele><time>2026-04-08T15:43:41.999Z</time></trkpt><trkpt lat="45.12887555624694" lon="10.00653115978116"><ele>40.42857142857143</ele><time>2026-04-08T15:43:42.999Z</time></trkpt><trkpt lat="45.12881050677248" lon="10.006544267780077"><ele>40.14285714285714</ele><time>2026-04-08T15:43:43.999Z</time></trkpt><trkpt lat="45.12874636829743" lon="10.006557111874232"><ele>39.857142857142854</ele><time>2026-04-08T15:43:44.999Z</time></trkpt><trkpt lat="45.12868205704512" lon="10.006568708445988"><ele>39.57142857142857</ele><time>2026-04-08T15:43:45.999Z</time></trkpt><trkpt lat="45.12861485876837" lon="10.006589083202275"><ele>39.285714285714285</ele><time>2026-04-08T15:43:46.999Z</time></trkpt><trkpt lat="45.12854837730912" lon="10.006603205635432"><ele>39.0</ele><time>2026-04-08T15:43:47.999Z</time></trkpt><trkpt lat="45.12848546464405" lon="10.006617333331949"><ele>39.0</ele><time>2026-04-08T15:43:48.999Z</time></trkpt><trkpt lat="45.128423749126114" lon="10.006635349238021"><ele>39.0</ele><time>2026-04-08T15:43:49.999Z</time></trkpt><trkpt lat="45.12830561465825" lon="10.006674107511603"><ele>39.0</ele><time>2026-04-08T15:43:51.999Z</time></trkpt><trkpt lat="45.12821029515217" lon="10.006675716591635"><ele>39.0</ele><time>2026-04-08T15:43:53.999Z</time></trkpt><trkpt lat="45.128137792310795" lon="10.006648813878101"><ele>39.0</ele><time>2026-04-08T15:43:55.999Z</time></trkpt><trkpt lat="45.12808974508347" lon="10.006708472403718"><ele>39.0</ele><time>2026-04-08T15:43:56.999Z</time></trkpt><trkpt lat="45.12802071091993" lon="10.00686035223924"><ele>38.57142857142858</ele><time>2026-04-08T15:43:58.999Z</time></trkpt><trkpt lat="45.12799829116424" lon="10.006946374419284"><ele>38.14285714285714</ele><time>2026-04-08T15:43:59.999Z</time></trkpt><trkpt lat="45.12797398850288" lon="10.007030760119855"><ele>37.714285714285715</ele><time>2026-04-08T15:44:00.999Z</time></trkpt><trkpt lat="45.12791942875772" lon="10.007188434329603"><ele>37.28571428571429</ele><time>2026-04-08T15:44:02.999Z</time></trkpt><trkpt lat="45.12789130246633" lon="10.00726837386168"><ele>36.85714285714286</ele><time>2026-04-08T15:44:03.999Z</time></trkpt><trkpt lat="45.127864877606214" lon="10.007350836849788"><ele>36.42857142857143</ele><time>2026-04-08T15:44:04.999Z</time></trkpt><trkpt lat="45.127835235054135" lon="10.007432924436447"><ele>36.0</ele><time>2026-04-08T15:44:05.999Z</time></trkpt><trkpt lat="45.12780629260441" lon="10.007514325541774"><ele>36.00000000000001</ele><time>2026-04-08T15:44:06.999Z</time></trkpt><trkpt lat="45.12777707302641" lon="10.007600505653462"><ele>36.0</ele><time>2026-04-08T15:44:07.999Z</time></trkpt><trkpt lat="45.12774848135311" lon="10.007686295914445"><ele>36.0</ele><time>2026-04-08T15:44:08.999Z</time></trkpt><trkpt lat="45.12771944757323" lon="10.00777423611429"><ele>36.0</ele><time>2026-04-08T15:44:09.999Z</time></trkpt><trkpt lat="45.127689719324295" lon="10.00786057640284"><ele>36.0</ele><time>2026-04-08T15:44:10.999Z</time></trkpt><trkpt lat="45.127661142100315" lon="10.007950181549715"><ele>36.00000000000001</ele><time>2026-04-08T15:44:11.999Z</time></trkpt><trkpt lat="45.12762994667353" lon="10.008035926876875"><ele>36.0</ele><time>2026-04-08T15:44:12.999Z</time></trkpt><trkpt lat="45.12760046692316" lon="10.008123532439956"><ele>36.00000000000001</ele><time>2026-04-08T15:44:13.999Z</time></trkpt><trkpt lat="45.12757104522311" lon="10.008210456475414"><ele>36.0</ele><time>2026-04-08T15:44:14.999Z</time></trkpt><trkpt lat="45.127540675411396" lon="10.008300835022032"><ele>36.0</ele><time>2026-04-08T15:44:15.999Z</time></trkpt><trkpt lat="45.127509660477784" lon="10.00838910063424"><ele>36.0</ele><time>2026-04-08T15:44:16.999Z</time></trkpt><trkpt lat="45.1274785953511" lon="10.008478747643103"><ele>36.0</ele><time>2026-04-08T15:44:17.999Z</time></trkpt><trkpt lat="45.127449210813786" lon="10.00856798284963"><ele>36.00000000000001</ele><time>2026-04-08T15:44:18.999Z</time></trkpt><trkpt lat="45.127417866611744" lon="10.008656957475377"><ele>36.0</ele><time>2026-04-08T15:44:19.999Z</time></trkpt><trkpt lat="45.12738713333971" lon="10.008745592614677"><ele>36.00000000000001</ele><time>2026-04-08T15:44:20.999Z</time></trkpt><trkpt lat="45.127356245764005" lon="10.008836107895599"><ele>36.0</ele><time>2026-04-08T15:44:21.999Z</time></trkpt><trkpt lat="45.127328040675856" lon="10.008923188297578"><ele>36.0</ele><time>2026-04-08T15:44:22.999Z</time></trkpt><trkpt lat="45.12729890048498" lon="10.009010084290997"><ele>36.0</ele><time>2026-04-08T15:44:23.999Z</time></trkpt><trkpt lat="45.127268770065086" lon="10.009095811071944"><ele>36.0</ele><time>2026-04-08T15:44:24.999Z</time></trkpt><trkpt lat="45.12724220603864" lon="10.00918006507014"><ele>36.00000000000001</ele><time>2026-04-08T15:44:25.998Z</time></trkpt><trkpt lat="45.127214071655985" lon="10.009260191078948"><ele>36.0</ele><time>2026-04-08T15:44:26.998Z</time></trkpt><trkpt lat="45.127178736813065" lon="10.00939933049629"><ele>36.2</ele><time>2026-04-08T15:44:28.998Z</time></trkpt><trkpt lat="45.1271260676779" lon="10.009506258942334"><ele>36.400000000000006</ele><time>2026-04-08T15:44:30.998Z</time></trkpt><trkpt lat="45.12699296780641" lon="10.009499407520371"><ele>36.6</ele><time>2026-04-08T15:44:32.998Z</time></trkpt><trkpt lat="45.1269486880939" lon="10.009418384343473"><ele>36.800000000000004</ele><time>2026-04-08T15:44:33.998Z</time></trkpt><trkpt lat="45.12688171011663" lon="10.009345143861333"><ele>37.0</ele><time>2026-04-08T15:44:35.998Z</time></trkpt><trkpt lat="45.126816362425366" lon="10.009274448593207"><ele>37.0</ele><time>2026-04-08T15:44:37.998Z</time></trkpt><trkpt lat="45.12674551352732" lon="10.009197801853551"><ele>37.0</ele><time>2026-04-08T15:44:39.998Z</time></trkpt><trkpt lat="45.1266653247199" lon="10.009111329860389"><ele>37.0</ele><time>2026-04-08T15:44:42Z</time></trkpt><trkpt lat="45.12661472601025" lon="10.009056797120726"><ele>37.0</ele><time>2026-04-08T15:44:43Z</time></trkpt><trkpt lat="45.12651341479008" lon="10.008947608973198"><ele>37.0</ele><time>2026-04-08T15:44:45Z</time></trkpt><trkpt lat="45.12645872848818" lon="10.008889515075644"><ele>37.0</ele><time>2026-04-08T15:44:46Z</time></trkpt><trkpt lat="45.12640490765975" lon="10.008832593232682"><ele>37.333333333333336</ele><time>2026-04-08T15:44:47Z</time></trkpt><trkpt lat="45.12634656607642" lon="10.00877088983205"><ele>37.66666666666667</ele><time>2026-04-08T15:44:48Z</time></trkpt><trkpt lat="45.12628794223813" lon="10.008708888116704"><ele>38.0</ele><time>2026-04-08T15:44:49Z</time></trkpt><trkpt lat="45.126230342279946" lon="10.008647969162995"><ele>38.333333333333336</ele><time>2026-04-08T15:44:50Z</time></trkpt><trkpt lat="45.12617713212108" lon="10.008591692985762"><ele>38.666666666666664</ele><time>2026-04-08T15:44:51Z</time></trkpt><trkpt lat="45.12607744742029" lon="10.008485211633069"><ele>39.0</ele><time>2026-04-08T15:44:53Z</time></trkpt><trkpt lat="45.12602591384555" lon="10.008430886414603"><ele>39.0</ele><time>2026-04-08T15:44:54Z</time></trkpt><trkpt lat="45.12592880860423" lon="10.008328520679243"><ele>39.0</ele><time>2026-04-08T15:44:56Z</time></trkpt><trkpt lat="45.125834489179184" lon="10.008229091852352"><ele>39.0</ele><time>2026-04-08T15:44:58Z</time></trkpt><trkpt lat="45.1257342241598" lon="10.008123398379558"><ele>39.0</ele><time>2026-04-08T15:45:00Z</time></trkpt><trkpt lat="45.12564018093763" lon="10.008024364433906"><ele>38.0</ele><time>2026-04-08T15:45:02Z</time></trkpt><trkpt lat="45.125543574953205" lon="10.0079227499302"><ele>37.0</ele><time>2026-04-08T15:45:04Z</time></trkpt><trkpt lat="45.12544854626145" lon="10.00782279441293"><ele>36.0</ele><time>2026-04-08T15:45:06Z</time></trkpt><trkpt lat="45.125354922602384" lon="10.007724316929302"><ele>35.0</ele><time>2026-04-08T15:45:08Z</time></trkpt><trkpt lat="45.12526206919766" lon="10.00762664946674"><ele>35.0</ele><time>2026-04-08T15:45:10Z</time></trkpt><trkpt lat="45.125170024404646" lon="10.007530138406972"><ele>35.0</ele><time>2026-04-08T15:45:12Z</time></trkpt><trkpt lat="45.12507470691" lon="10.00743063526861"><ele>35.0</ele><time>2026-04-08T15:45:14Z</time></trkpt><trkpt lat="45.12498468931633" lon="10.007336664759846"><ele>35.0</ele><time>2026-04-08T15:45:16Z</time></trkpt><trkpt lat="45.12489714728142" lon="10.007244757074446"><ele>36.2</ele><time>2026-04-08T15:45:18Z</time></trkpt><trkpt lat="45.12480764165748" lon="10.007150277320623"><ele>37.4</ele><time>2026-04-08T15:45:20Z</time></trkpt><trkpt lat="45.12472369588103" lon="10.007061666339997"><ele>38.599999999999994</ele><time>2026-04-08T15:45:22Z</time></trkpt><trkpt lat="45.124661899336616" lon="10.006996435776859"><ele>39.8</ele><time>2026-04-08T15:45:24Z</time></trkpt><trkpt lat="45.12461311021138" lon="10.006934272637418"><ele>41.0</ele><time>2026-04-08T15:45:29.999Z</time></trkpt><trkpt lat="45.12455631223614" lon="10.007052612832373"><ele>41.0</ele><time>2026-04-08T15:45:33.999Z</time></trkpt><trkpt lat="45.124533480784336" lon="10.007149624468438"><ele>41.0</ele><time>2026-04-08T15:45:36.999Z</time></trkpt><trkpt lat="45.12450812833244" lon="10.007243744971769"><ele>41.0</ele><time>2026-04-08T15:45:40.999Z</time></trkpt><trkpt lat="45.124487003140395" lon="10.0073543298688"><ele>41.0</ele><time>2026-04-08T15:45:44.999Z</time></trkpt><trkpt lat="45.124452377946746" lon="10.007451115407445"><ele>41.0</ele><time>2026-04-08T15:45:48.999Z</time></trkpt><trkpt lat="45.12441661070404" lon="10.007552174462727"><ele>41.0</ele><time>2026-04-08T15:45:52.999Z</time></trkpt><trkpt lat="45.12438062059464" lon="10.007659610070773"><ele>40.33333333333333</ele><time>2026-04-08T15:45:55.999Z</time></trkpt><trkpt lat="45.124348396132326" lon="10.007764457419569"><ele>39.666666666666664</ele><time>2026-04-08T15:45:58.999Z</time></trkpt><trkpt lat="45.12431644600345" lon="10.007859008592582"><ele>39.0</ele><time>2026-04-08T15:46:01.999Z</time></trkpt><trkpt lat="45.12428104239842" lon="10.007963300236147"><ele>38.333333333333336</ele><time>2026-04-08T15:46:04.999Z</time></trkpt><trkpt lat="45.12425145841662" lon="10.008057783930424"><ele>37.66666666666667</ele><time>2026-04-08T15:46:07.999Z</time></trkpt><trkpt lat="45.12421735924662" lon="10.008149805486706"><ele>37.0</ele><time>2026-04-08T15:46:10.999Z</time></trkpt><trkpt lat="45.12417850580509" lon="10.008249365467316"><ele>36.66666666666667</ele><time>2026-04-08T15:46:13.999Z</time></trkpt><trkpt lat="45.124139067707944" lon="10.008363946565042"><ele>36.333333333333336</ele><time>2026-04-08T15:46:16.999Z</time></trkpt><trkpt lat="45.12410760288514" lon="10.008470825763393"><ele>36.0</ele><time>2026-04-08T15:46:19.999Z</time></trkpt><trkpt lat="45.12406787432451" lon="10.00857657792267"><ele>35.666666666666664</ele><time>2026-04-08T15:46:22.999Z</time></trkpt><trkpt lat="45.12402126469763" lon="10.008697880468533"><ele>35.33333333333333</ele><time>2026-04-08T15:46:25.998Z</time></trkpt><trkpt lat="45.1239836351663" lon="10.008816645786256"><ele>35.0</ele><time>2026-04-08T15:46:27.998Z</time></trkpt><trkpt lat="45.12395027298782" lon="10.008920909474826"><ele>35.0</ele><time>2026-04-08T15:46:29.998Z</time></trkpt><trkpt lat="45.123906605592694" lon="10.0090136181149"><ele>35.0</ele><time>2026-04-08T15:46:31.998Z</time></trkpt><trkpt lat="45.12386780893317" lon="10.009141087244966"><ele>35.0</ele><time>2026-04-08T15:46:33.998Z</time></trkpt><trkpt lat="45.123824081313536" lon="10.009288031414002"><ele>35.0</ele><time>2026-04-08T15:46:35.998Z</time></trkpt><trkpt lat="45.12377049897271" lon="10.009444623406452"><ele>35.0</ele><time>2026-04-08T15:46:37.998Z</time></trkpt><trkpt lat="45.123745800044816" lon="10.009531069060694"><ele>35.0</ele><time>2026-04-08T15:46:38.998Z</time></trkpt><trkpt lat="45.12369091135721" lon="10.009685652743558"><ele>35.0</ele><time>2026-04-08T15:46:40.998Z</time></trkpt><trkpt lat="45.12366473445241" lon="10.009770809925696"><ele>35.0</ele><time>2026-04-08T15:46:41.998Z</time></trkpt><trkpt lat="45.123639686170954" lon="10.00985581930742"><ele>35.0</ele><time>2026-04-08T15:46:42.998Z</time></trkpt><trkpt lat="45.12361460581424" lon="10.009947795089019"><ele>35.0</ele><time>2026-04-08T15:46:43.998Z</time></trkpt><trkpt lat="45.12358854276465" lon="10.010038502496164"><ele>35.0</ele><time>2026-04-08T15:46:44.998Z</time></trkpt><trkpt lat="45.12354420463413" lon="10.010117992896616"><ele>34.857142857142854</ele><time>2026-04-08T15:46:45.998Z</time></trkpt><trkpt lat="45.12351406737983" lon="10.010208509878677"><ele>34.714285714285715</ele><time>2026-04-08T15:46:46.998Z</time></trkpt><trkpt lat="45.12349797294838" lon="10.01030892307598"><ele>34.57142857142857</ele><time>2026-04-08T15:46:48Z</time></trkpt><trkpt lat="45.12346632635717" lon="10.010399861095527"><ele>34.42857142857143</ele><time>2026-04-08T15:46:49Z</time></trkpt><trkpt lat="45.12343453011928" lon="10.01048867579669"><ele>34.285714285714285</ele><time>2026-04-08T15:46:50Z</time></trkpt><trkpt lat="45.12340527685817" lon="10.010576946954421"><ele>34.14285714285714</ele><time>2026-04-08T15:46:51Z</time></trkpt><trkpt lat="45.12337803886354" lon="10.010664543714174"><ele>34.0</ele><time>2026-04-08T15:46:52Z</time></trkpt><trkpt lat="45.12334800346328" lon="10.01075404546216"><ele>33.99999999999999</ele><time>2026-04-08T15:46:53Z</time></trkpt><trkpt lat="45.1233185768561" lon="10.010842589819255"><ele>34.0</ele><time>2026-04-08T15:46:54Z</time></trkpt><trkpt lat="45.123290514355666" lon="10.010931812905614"><ele>34.0</ele><time>2026-04-08T15:46:55Z</time></trkpt><trkpt lat="45.12325964878594" lon="10.01102080707532"><ele>34.0</ele><time>2026-04-08T15:46:56Z</time></trkpt><trkpt lat="45.123227301970836" lon="10.011107264712852"><ele>34.0</ele><time>2026-04-08T15:46:57Z</time></trkpt><trkpt lat="45.12319061167599" lon="10.011191042307427"><ele>33.99999999999999</ele><time>2026-04-08T15:46:58Z</time></trkpt><trkpt lat="45.1231553932509" lon="10.011276922926166"><ele>34.0</ele><time>2026-04-08T15:46:59Z</time></trkpt><trkpt lat="45.123126241136035" lon="10.011366570655312"><ele>33.99999999999999</ele><time>2026-04-08T15:47:00Z</time></trkpt><trkpt lat="45.12309856575081" lon="10.011457563373591"><ele>34.0</ele><time>2026-04-08T15:47:01Z</time></trkpt><trkpt lat="45.123069568696906" lon="10.01154960924785"><ele>34.0</ele><time>2026-04-08T15:47:02Z</time></trkpt><trkpt lat="45.12304136636611" lon="10.011639906475942"><ele>34.0</ele><time>2026-04-08T15:47:03Z</time></trkpt><trkpt lat="45.12301034270445" lon="10.011727016704672"><ele>34.0</ele><time>2026-04-08T15:47:04Z</time></trkpt><trkpt lat="45.12298059900147" lon="10.01181453815939"><ele>33.99999999999999</ele><time>2026-04-08T15:47:05Z</time></trkpt><trkpt lat="45.12295042104878" lon="10.011904861445215"><ele>34.0</ele><time>2026-04-08T15:47:06Z</time></trkpt><trkpt lat="45.12292228006733" lon="10.011994250800448"><ele>33.99999999999999</ele><time>2026-04-08T15:47:07Z</time></trkpt><trkpt lat="45.12289190503258" lon="10.012082330186537"><ele>34.0</ele><time>2026-04-08T15:47:08Z</time></trkpt><trkpt lat="45.12286225613338" lon="10.012170826231543"><ele>34.0</ele><time>2026-04-08T15:47:09Z</time></trkpt><trkpt lat="45.12283141564391" lon="10.012260212884986"><ele>34.0</ele><time>2026-04-08T15:47:10Z</time></trkpt><trkpt lat="45.122801599544154" lon="10.012350747085303"><ele>34.0</ele><time>2026-04-08T15:47:11Z</time></trkpt><trkpt lat="45.122770105632874" lon="10.012437865814807"><ele>33.99999999999999</ele><time>2026-04-08T15:47:12Z</time></trkpt><trkpt lat="45.12273872516104" lon="10.012527491595106"><ele>34.0</ele><time>2026-04-08T15:47:13Z</time></trkpt><trkpt lat="45.1227070607298" lon="10.012614676494623"><ele>33.57142857142857</ele><time>2026-04-08T15:47:14Z</time></trkpt><trkpt lat="45.12267447103944" lon="10.012703167509121"><ele>33.14285714285714</ele><time>2026-04-08T15:47:15Z</time></trkpt><trkpt lat="45.12264004583582" lon="10.012790573799835"><ele>32.714285714285715</ele><time>2026-04-08T15:47:16Z</time></trkpt><trkpt lat="45.12260281090541" lon="10.012874344193971"><ele>32.285714285714285</ele><time>2026-04-08T15:47:17Z</time></trkpt><trkpt lat="45.122563460508815" lon="10.012958985093942"><ele>31.85714285714286</ele><time>2026-04-08T15:47:18Z</time></trkpt><trkpt lat="45.12252233534459" lon="10.013041705031466"><ele>31.42857142857143</ele><time>2026-04-08T15:47:19Z</time></trkpt><trkpt lat="45.12248236512036" lon="10.013125970655322"><ele>31.0</ele><time>2026-04-08T15:47:20Z</time></trkpt><trkpt lat="45.122442651021416" lon="10.013206097633153"><ele>31.142857142857146</ele><time>2026-04-08T15:47:21Z</time></trkpt><trkpt lat="45.12238806306926" lon="10.013269702385625"><ele>31.28571428571429</ele><time>2026-04-08T15:47:22Z</time></trkpt><trkpt lat="45.12234292733712" lon="10.013345776152693"><ele>31.42857142857143</ele><time>2026-04-08T15:47:23Z</time></trkpt><trkpt lat="45.122296144642824" lon="10.013420972727971"><ele>31.57142857142857</ele><time>2026-04-08T15:47:24Z</time></trkpt><trkpt lat="45.12225028544511" lon="10.013494183972753"><ele>31.71428571428571</ele><time>2026-04-08T15:47:25Z</time></trkpt><trkpt lat="45.122202671208285" lon="10.013570196637996"><ele>31.857142857142854</ele><time>2026-04-08T15:47:25.999Z</time></trkpt><trkpt lat="45.12216543033806" lon="10.013657339573848"><ele>32.0</ele><time>2026-04-08T15:47:26.999Z</time></trkpt><trkpt lat="45.12211684857162" lon="10.01372727071673"><ele>32.0</ele><time>2026-04-08T15:47:27.999Z</time></trkpt><trkpt lat="45.12206904927005" lon="10.013800526160427"><ele>31.999999999999996</ele><time>2026-04-08T15:47:28.999Z</time></trkpt><trkpt lat="45.12202069470981" lon="10.01387545207415"><ele>32.0</ele><time>2026-04-08T15:47:29.999Z</time></trkpt><trkpt lat="45.121973300354966" lon="10.013950211791203"><ele>32.0</ele><time>2026-04-08T15:47:30.999Z</time></trkpt><trkpt lat="45.12192639173026" lon="10.014027105456488"><ele>31.999999999999996</ele><time>2026-04-08T15:47:31.999Z</time></trkpt><trkpt lat="45.121879123658914" lon="10.014104384007311"><ele>32.0</ele><time>2026-04-08T15:47:32.999Z</time></trkpt><trkpt lat="45.12183339816875" lon="10.014182725323359"><ele>32.0</ele><time>2026-04-08T15:47:33.999Z</time></trkpt><trkpt lat="45.12178610383043" lon="10.014258641260927"><ele>32.285714285714285</ele><time>2026-04-08T15:47:34.999Z</time></trkpt><trkpt lat="45.12174062294038" lon="10.014336036666148"><ele>32.57142857142857</ele><time>2026-04-08T15:47:35.999Z</time></trkpt><trkpt lat="45.121694603636804" lon="10.014415114970642"><ele>32.857142857142854</ele><time>2026-04-08T15:47:36.999Z</time></trkpt><trkpt lat="45.1216489556976" lon="10.014492059329429"><ele>33.14285714285714</ele><time>2026-04-08T15:47:37.999Z</time></trkpt><trkpt lat="45.121600960633025" lon="10.014567276334017"><ele>33.42857142857143</ele><time>2026-04-08T15:47:38.999Z</time></trkpt><trkpt lat="45.12155250988984" lon="10.014640362207043"><ele>33.71428571428571</ele><time>2026-04-08T15:47:39.999Z</time></trkpt><trkpt lat="45.12150405753045" lon="10.01471655072242"><ele>34.0</ele><time>2026-04-08T15:47:40.999Z</time></trkpt><trkpt lat="45.12145792914078" lon="10.014792472852516"><ele>33.99999999999999</ele><time>2026-04-08T15:47:41.999Z</time></trkpt><trkpt lat="45.12141142133319" lon="10.014869574768625"><ele>34.0</ele><time>2026-04-08T15:47:42.999Z</time></trkpt><trkpt lat="45.121367859488" lon="10.014948705038062"><ele>34.0</ele><time>2026-04-08T15:47:43.999Z</time></trkpt><trkpt lat="45.12132330138928" lon="10.01502777896304"><ele>34.0</ele><time>2026-04-08T15:47:44.999Z</time></trkpt><trkpt lat="45.1212795736934" lon="10.015105569170057"><ele>34.0</ele><time>2026-04-08T15:47:45.999Z</time></trkpt><trkpt lat="45.12123559278102" lon="10.015183710205717"><ele>33.99999999999999</ele><time>2026-04-08T15:47:46.999Z</time></trkpt><trkpt lat="45.121191167471366" lon="10.015261074138984"><ele>34.0</ele><time>2026-04-08T15:47:47.999Z</time></trkpt><trkpt lat="45.12114597175164" lon="10.015340884700596"><ele>33.857142857142854</ele><time>2026-04-08T15:47:48.999Z</time></trkpt><trkpt lat="45.121100721136365" lon="10.01541740118048"><ele>33.714285714285715</ele><time>2026-04-08T15:47:49.999Z</time></trkpt><trkpt lat="45.12105623235966" lon="10.015495134761004"><ele>33.57142857142857</ele><time>2026-04-08T15:47:50.999Z</time></trkpt><trkpt lat="45.121014216375535" lon="10.015576297932494"><ele>33.42857142857143</ele><time>2026-04-08T15:47:51.999Z</time></trkpt><trkpt lat="45.1209728452422" lon="10.015658151477647"><ele>33.285714285714285</ele><time>2026-04-08T15:47:52.999Z</time></trkpt><trkpt lat="45.12093114386827" lon="10.015737919787508"><ele>33.14285714285714</ele><time>2026-04-08T15:47:53.999Z</time></trkpt><trkpt lat="45.120889065276124" lon="10.015819419736575"><ele>33.0</ele><time>2026-04-08T15:47:54.999Z</time></trkpt><trkpt lat="45.12084537860831" lon="10.015900528742225"><ele>33.0</ele><time>2026-04-08T15:47:55.999Z</time></trkpt><trkpt lat="45.12080306719174" lon="10.015982140839766"><ele>33.0</ele><time>2026-04-08T15:47:56.999Z</time></trkpt><trkpt lat="45.12076142948248" lon="10.016061486703745"><ele>33.0</ele><time>2026-04-08T15:47:57.999Z</time></trkpt><trkpt lat="45.12071870479762" lon="10.016142099041856"><ele>33.0</ele><time>2026-04-08T15:47:58.999Z</time></trkpt><trkpt lat="45.12067677368494" lon="10.016221477344676"><ele>33.0</ele><time>2026-04-08T15:47:59.999Z</time></trkpt><trkpt lat="45.12063319090267" lon="10.016302551374038"><ele>33.0</ele><time>2026-04-08T15:48:00.999Z</time></trkpt><trkpt lat="45.120591476887455" lon="10.016384060511117"><ele>33.0</ele><time>2026-04-08T15:48:01.999Z</time></trkpt><trkpt lat="45.12055223503765" lon="10.016467751873778"><ele>32.857142857142854</ele><time>2026-04-08T15:48:02.999Z</time></trkpt><trkpt lat="45.12051653261939" lon="10.016554988093453"><ele>32.714285714285715</ele><time>2026-04-08T15:48:03.999Z</time></trkpt><trkpt lat="45.12048053307432" lon="10.01664113838015"><ele>32.57142857142857</ele><time>2026-04-08T15:48:04.999Z</time></trkpt><trkpt lat="45.120441552773976" lon="10.016724572937626"><ele>32.42857142857143</ele><time>2026-04-08T15:48:05.999Z</time></trkpt><trkpt lat="45.1203992924741" lon="10.016805289008119"><ele>32.285714285714285</ele><time>2026-04-08T15:48:06.999Z</time></trkpt><trkpt lat="45.12035990026702" lon="10.016886156436401"><ele>32.14285714285714</ele><time>2026-04-08T15:48:07.999Z</time></trkpt><trkpt lat="45.120323142717" lon="10.016970648641795"><ele>32.0</ele><time>2026-04-08T15:48:08.999Z</time></trkpt><trkpt lat="45.12028848952014" lon="10.017057402403315"><ele>32.285714285714285</ele><time>2026-04-08T15:48:09.999Z</time></trkpt><trkpt lat="45.1202530183191" lon="10.017141701612765"><ele>32.57142857142857</ele><time>2026-04-08T15:48:10.999Z</time></trkpt><trkpt lat="45.12021626256712" lon="10.0172254347616"><ele>32.857142857142854</ele><time>2026-04-08T15:48:11.999Z</time></trkpt><trkpt lat="45.120179810414875" lon="10.017307341897887"><ele>33.14285714285714</ele><time>2026-04-08T15:48:12.999Z</time></trkpt><trkpt lat="45.12014279323987" lon="10.017393954917422"><ele>33.42857142857143</ele><time>2026-04-08T15:48:13.999Z</time></trkpt><trkpt lat="45.12010780621437" lon="10.017478578315496"><ele>33.71428571428571</ele><time>2026-04-08T15:48:14.999Z</time></trkpt><trkpt lat="45.120072535161235" lon="10.017563229054673"><ele>34.0</ele><time>2026-04-08T15:48:15.999Z</time></trkpt><trkpt lat="45.12003628966356" lon="10.017649043774984"><ele>33.99999999999999</ele><time>2026-04-08T15:48:16.999Z</time></trkpt><trkpt lat="45.12000139592068" lon="10.01773631418654"><ele>34.0</ele><time>2026-04-08T15:48:17.999Z</time></trkpt><trkpt lat="45.119967112412645" lon="10.017822424681635"><ele>34.0</ele><time>2026-04-08T15:48:18.999Z</time></trkpt><trkpt lat="45.11992968158945" lon="10.017907587579383"><ele>34.0</ele><time>2026-04-08T15:48:19.999Z</time></trkpt><trkpt lat="45.119893843385" lon="10.017993894703128"><ele>34.0</ele><time>2026-04-08T15:48:20.999Z</time></trkpt><trkpt lat="45.11985939564319" lon="10.018077158479421"><ele>33.99999999999999</ele><time>2026-04-08T15:48:21.999Z</time></trkpt><trkpt lat="45.11982324646256" lon="10.018163156155708"><ele>34.0</ele><time>2026-04-08T15:48:22.998Z</time></trkpt><trkpt lat="45.119788604377526" lon="10.018249802148173"><ele>33.71428571428571</ele><time>2026-04-08T15:48:23.998Z</time></trkpt><trkpt lat="45.119753402702344" lon="10.018336389013667"><ele>33.42857142857143</ele><time>2026-04-08T15:48:24.998Z</time></trkpt><trkpt lat="45.119716068343905" lon="10.018419896749624"><ele>33.14285714285714</ele><time>2026-04-08T15:48:25.998Z</time></trkpt><trkpt lat="45.11967687105423" lon="10.018503911803387"><ele>32.857142857142854</ele><time>2026-04-08T15:48:26.998Z</time></trkpt><trkpt lat="45.1196410771555" lon="10.018590712384931"><ele>32.57142857142857</ele><time>2026-04-08T15:48:27.998Z</time></trkpt><trkpt lat="45.1196054299483" lon="10.018676646035921"><ele>32.285714285714285</ele><time>2026-04-08T15:48:28.998Z</time></trkpt><trkpt lat="45.11956962474785" lon="10.018762768984615"><ele>32.0</ele><time>2026-04-08T15:48:29.998Z</time></trkpt><trkpt lat="45.11953472170669" lon="10.0188493226578"><ele>32.0</ele><time>2026-04-08T15:48:30.998Z</time></trkpt><trkpt lat="45.119498124281094" lon="10.018935518431"><ele>31.999999999999996</ele><time>2026-04-08T15:48:31.998Z</time></trkpt><trkpt lat="45.11946105771683" lon="10.019021627840834"><ele>32.0</ele><time>2026-04-08T15:48:32.998Z</time></trkpt><trkpt lat="45.11942351193656" lon="10.019107247874745"><ele>32.0</ele><time>2026-04-08T15:48:33.998Z</time></trkpt><trkpt lat="45.11938582435443" lon="10.019193803137126"><ele>31.999999999999996</ele><time>2026-04-08T15:48:34.998Z</time></trkpt><trkpt lat="45.11934905645714" lon="10.01928012239269"><ele>32.0</ele><time>2026-04-08T15:48:35.998Z</time></trkpt><trkpt lat="45.119310834454396" lon="10.019368109402752"><ele>32.0</ele><time>2026-04-08T15:48:36.998Z</time></trkpt><trkpt lat="45.11927286196959" lon="10.01945252337888"><ele>32.0</ele><time>2026-04-08T15:48:37.998Z</time></trkpt><trkpt lat="45.119227427882706" lon="10.019534016255962"><ele>31.999999999999996</ele><time>2026-04-08T15:48:38.998Z</time></trkpt><trkpt lat="45.11918300660023" lon="10.01961460066286"><ele>32.0</ele><time>2026-04-08T15:48:39.998Z</time></trkpt><trkpt lat="45.11913612622202" lon="10.019693447051154"><ele>32.0</ele><time>2026-04-08T15:48:40.998Z</time></trkpt><trkpt lat="45.11908904553494" lon="10.01976940207676"><ele>31.999999999999996</ele><time>2026-04-08T15:48:41.998Z</time></trkpt><trkpt lat="45.11903791066395" lon="10.019843699966708"><ele>32.0</ele><time>2026-04-08T15:48:42.998Z</time></trkpt><trkpt lat="45.11898896257186" lon="10.019919273576171"><ele>32.0</ele><time>2026-04-08T15:48:43.998Z</time></trkpt><trkpt lat="45.11893838644273" lon="10.019994700001348"><ele>32.14285714285714</ele><time>2026-04-08T15:48:44.998Z</time></trkpt><trkpt lat="45.118888042145414" lon="10.020067477852635"><ele>32.285714285714285</ele><time>2026-04-08T15:48:45.998Z</time></trkpt><trkpt lat="45.11883739815189" lon="10.020141323394977"><ele>32.42857142857143</ele><time>2026-04-08T15:48:46.998Z</time></trkpt><trkpt lat="45.11878650159207" lon="10.020215285041695"><ele>32.57142857142857</ele><time>2026-04-08T15:48:47.998Z</time></trkpt><trkpt lat="45.118736022921716" lon="10.020287143398315"><ele>32.714285714285715</ele><time>2026-04-08T15:48:48.998Z</time></trkpt><trkpt lat="45.118683650281476" lon="10.020362402904507"><ele>32.857142857142854</ele><time>2026-04-08T15:48:49.998Z</time></trkpt><trkpt lat="45.11863146195785" lon="10.020436721735447"><ele>33.0</ele><time>2026-04-08T15:48:50.998Z</time></trkpt><trkpt lat="45.118580453219614" lon="10.020511794270734"><ele>33.0</ele><time>2026-04-08T15:48:51.998Z</time></trkpt><trkpt lat="45.11853035221015" lon="10.02058827132844"><ele>33.0</ele><time>2026-04-08T15:48:52.998Z</time></trkpt><trkpt lat="45.11847953164924" lon="10.02066486101446"><ele>33.0</ele><time>2026-04-08T15:48:54Z</time></trkpt><trkpt lat="45.11842860266137" lon="10.020741481426754"><ele>33.0</ele><time>2026-04-08T15:48:55Z</time></trkpt><trkpt lat="45.11837629341968" lon="10.02081460223097"><ele>33.0</ele><time>2026-04-08T15:48:56Z</time></trkpt><trkpt lat="45.11832169897868" lon="10.02088656086777"><ele>33.0</ele><time>2026-04-08T15:48:57Z</time></trkpt><trkpt lat="45.118268098614024" lon="10.020959118503507"><ele>33.0</ele><time>2026-04-08T15:48:58Z</time></trkpt><trkpt lat="45.11821498260015" lon="10.021032453735428"><ele>32.857142857142854</ele><time>2026-04-08T15:48:59Z</time></trkpt><trkpt lat="45.118161351993635" lon="10.02110501758271"><ele>32.714285714285715</ele><time>2026-04-08T15:49:00Z</time></trkpt><trkpt lat="45.11810643472888" lon="10.021172479307221"><ele>32.57142857142857</ele><time>2026-04-08T15:49:01Z</time></trkpt><trkpt lat="45.11804907304625" lon="10.021237554976011"><ele>32.42857142857143</ele><time>2026-04-08T15:49:02Z</time></trkpt><trkpt lat="45.117991609954025" lon="10.021305990946306"><ele>32.285714285714285</ele><time>2026-04-08T15:49:03Z</time></trkpt><trkpt lat="45.11793461598567" lon="10.021373179492384"><ele>32.14285714285714</ele><time>2026-04-08T15:49:04Z</time></trkpt><trkpt lat="45.117878375488736" lon="10.021439426557992"><ele>32.0</ele><time>2026-04-08T15:49:05Z</time></trkpt><trkpt lat="45.11782302006917" lon="10.021506321946179"><ele>32.0</ele><time>2026-04-08T15:49:06Z</time></trkpt><trkpt lat="45.117765764436236" lon="10.02157232015686"><ele>31.999999999999996</ele><time>2026-04-08T15:49:07Z</time></trkpt><trkpt lat="45.11770897874622" lon="10.021635921291711"><ele>32.0</ele><time>2026-04-08T15:49:08Z</time></trkpt><trkpt lat="45.117653354806464" lon="10.02170173952248"><ele>32.0</ele><time>2026-04-08T15:49:09Z</time></trkpt><trkpt lat="45.117594926580175" lon="10.021766320493022"><ele>31.999999999999996</ele><time>2026-04-08T15:49:10Z</time></trkpt><trkpt lat="45.117540034233436" lon="10.021832787364742"><ele>32.0</ele><time>2026-04-08T15:49:11Z</time></trkpt><trkpt lat="45.11748478474413" lon="10.021897790038242"><ele>32.0</ele><time>2026-04-08T15:49:12Z</time></trkpt><trkpt lat="45.11742796374008" lon="10.021962757314002"><ele>32.0</ele><time>2026-04-08T15:49:13Z</time></trkpt><trkpt lat="45.11737349734869" lon="10.02202923993322"><ele>31.999999999999996</ele><time>2026-04-08T15:49:14Z</time></trkpt><trkpt lat="45.11731565552444" lon="10.022095671224434"><ele>32.0</ele><time>2026-04-08T15:49:15Z</time></trkpt><trkpt lat="45.11725983844078" lon="10.022160754548702"><ele>32.0</ele><time>2026-04-08T15:49:16Z</time></trkpt><trkpt lat="45.11720531167466" lon="10.022227615412778"><ele>31.999999999999996</ele><time>2026-04-08T15:49:17Z</time></trkpt><trkpt lat="45.11714939019604" lon="10.02229423920371"><ele>32.0</ele><time>2026-04-08T15:49:18Z</time></trkpt><trkpt lat="45.11709499322374" lon="10.022360217718902"><ele>32.0</ele><time>2026-04-08T15:49:19Z</time></trkpt><trkpt lat="45.11703995191379" lon="10.022427121351418"><ele>32.14285714285714</ele><time>2026-04-08T15:49:20Z</time></trkpt><trkpt lat="45.11698449593642" lon="10.02249520837878"><ele>32.285714285714285</ele><time>2026-04-08T15:49:21Z</time></trkpt><trkpt lat="45.11693135227149" lon="10.022564056463073"><ele>32.42857142857143</ele><time>2026-04-08T15:49:22Z</time></trkpt><trkpt lat="45.11687788974712" lon="10.022636309183007"><ele>32.57142857142857</ele><time>2026-04-08T15:49:23Z</time></trkpt><trkpt lat="45.11683083175367" lon="10.022713744055386"><ele>32.714285714285715</ele><time>2026-04-08T15:49:24Z</time></trkpt><trkpt lat="45.11678590731831" lon="10.022793357192798"><ele>32.857142857142854</ele><time>2026-04-08T15:49:25Z</time></trkpt><trkpt lat="45.11674165538211" lon="10.02287437057256"><ele>33.0</ele><time>2026-04-08T15:49:26Z</time></trkpt><trkpt lat="45.116698026186256" lon="10.022955958114682"><ele>33.0</ele><time>2026-04-08T15:49:27Z</time></trkpt><trkpt lat="45.1166535989211" lon="10.023037230294348"><ele>33.0</ele><time>2026-04-08T15:49:28Z</time></trkpt><trkpt lat="45.116611318160786" lon="10.023116656300191"><ele>33.0</ele><time>2026-04-08T15:49:28.999Z</time></trkpt><trkpt lat="45.11656599237498" lon="10.023199190708679"><ele>33.0</ele><time>2026-04-08T15:49:29.999Z</time></trkpt><trkpt lat="45.11652211616825" lon="10.023278656308179"><ele>33.0</ele><time>2026-04-08T15:49:30.999Z</time></trkpt><trkpt lat="45.11647839832329" lon="10.023360909322987"><ele>33.0</ele><time>2026-04-08T15:49:31.999Z</time></trkpt><trkpt lat="45.11643611791755" lon="10.023442934363729"><ele>33.0</ele><time>2026-04-08T15:49:32.999Z</time></trkpt><trkpt lat="45.11639681068088" lon="10.02352889070949"><ele>32.857142857142854</ele><time>2026-04-08T15:49:33.999Z</time></trkpt><trkpt lat="45.11635878102904" lon="10.023617431393642"><ele>32.714285714285715</ele><time>2026-04-08T15:49:34.999Z</time></trkpt><trkpt lat="45.116326969474336" lon="10.023708731867972"><ele>32.57142857142857</ele><time>2026-04-08T15:49:35.999Z</time></trkpt><trkpt lat="45.11627931821278" lon="10.023788425845185"><ele>32.42857142857143</ele><time>2026-04-08T15:49:36.999Z</time></trkpt><trkpt lat="45.11624479590718" lon="10.023879807782382"><ele>32.285714285714285</ele><time>2026-04-08T15:49:37.999Z</time></trkpt><trkpt lat="45.11622253533775" lon="10.02397784563375"><ele>32.14285714285714</ele><time>2026-04-08T15:49:38.999Z</time></trkpt><trkpt lat="45.116179181570715" lon="10.024063451913554"><ele>32.0</ele><time>2026-04-08T15:49:39.999Z</time></trkpt><trkpt lat="45.116145179813714" lon="10.02415582509273"><ele>32.0</ele><time>2026-04-08T15:49:40.999Z</time></trkpt><trkpt lat="45.11611319067672" lon="10.024249232305522"><ele>31.999999999999996</ele><time>2026-04-08T15:49:41.999Z</time></trkpt><trkpt lat="45.11607846502422" lon="10.024340477040083"><ele>32.0</ele><time>2026-04-08T15:49:42.999Z</time></trkpt><trkpt lat="45.116047340989205" lon="10.024434885324144"><ele>32.0</ele><time>2026-04-08T15:49:43.999Z</time></trkpt><trkpt lat="45.116014097464515" lon="10.024527637285356"><ele>31.999999999999996</ele><time>2026-04-08T15:49:44.999Z</time></trkpt><trkpt lat="45.11598087709169" lon="10.024618964672404"><ele>32.0</ele><time>2026-04-08T15:49:45.999Z</time></trkpt><trkpt lat="45.11594745959186" lon="10.02471195203676"><ele>32.0</ele><time>2026-04-08T15:49:46.999Z</time></trkpt><trkpt lat="45.11591116325703" lon="10.024798578225584"><ele>32.0</ele><time>2026-04-08T15:49:47.999Z</time></trkpt><trkpt lat="45.11587176186732" lon="10.024884817099563"><ele>31.999999999999996</ele><time>2026-04-08T15:49:48.999Z</time></trkpt><trkpt lat="45.115825419902926" lon="10.024963971793438"><ele>32.0</ele><time>2026-04-08T15:49:49.999Z</time></trkpt><trkpt lat="45.11577063035581" lon="10.025032499393632"><ele>32.0</ele><time>2026-04-08T15:49:50.999Z</time></trkpt><trkpt lat="45.11570571491805" lon="10.025086201562292"><ele>31.999999999999996</ele><time>2026-04-08T15:49:51.999Z</time></trkpt><trkpt lat="45.11563997309028" lon="10.025133713945317"><ele>32.0</ele><time>2026-04-08T15:49:52.999Z</time></trkpt><trkpt lat="45.11557214642698" lon="10.02517137739902"><ele>32.0</ele><time>2026-04-08T15:49:53.999Z</time></trkpt><trkpt lat="45.11550048456901" lon="10.025200003522215"><ele>31.857142857142854</ele><time>2026-04-08T15:49:54.999Z</time></trkpt><trkpt lat="45.11542998420568" lon="10.025230784597374"><ele>31.71428571428571</ele><time>2026-04-08T15:49:55.999Z</time></trkpt><trkpt lat="45.11535955823404" lon="10.025258297115638"><ele>31.57142857142857</ele><time>2026-04-08T15:49:56.999Z</time></trkpt><trkpt lat="45.115287268214445" lon="10.02528465807094"><ele>31.42857142857143</ele><time>2026-04-08T15:49:57.999Z</time></trkpt><trkpt lat="45.115216206858534" lon="10.025313617998897"><ele>31.28571428571429</ele><time>2026-04-08T15:49:58.999Z</time></trkpt><trkpt lat="45.115144629601836" lon="10.0253394865284"><ele>31.142857142857146</ele><time>2026-04-08T15:49:59.999Z</time></trkpt><trkpt lat="45.1150736627264" lon="10.025367370590265"><ele>31.0</ele><time>2026-04-08T15:50:00.999Z</time></trkpt><trkpt lat="45.11500152738917" lon="10.02539577253096"><ele>31.0</ele><time>2026-04-08T15:50:01.999Z</time></trkpt><trkpt lat="45.114929358421634" lon="10.025423353936107"><ele>31.000000000000004</ele><time>2026-04-08T15:50:02.999Z</time></trkpt><trkpt lat="45.114857331884465" lon="10.025450680413634"><ele>31.0</ele><time>2026-04-08T15:50:03.999Z</time></trkpt><trkpt lat="45.11478686386657" lon="10.02547816397651"><ele>31.0</ele><time>2026-04-08T15:50:04.999Z</time></trkpt><trkpt lat="45.11471518326823" lon="10.025505425346196"><ele>31.000000000000004</ele><time>2026-04-08T15:50:05.999Z</time></trkpt><trkpt lat="45.11464320295183" lon="10.025531520823995"><ele>31.0</ele><time>2026-04-08T15:50:06.999Z</time></trkpt><trkpt lat="45.114570713738054" lon="10.025556269105424"><ele>31.0</ele><time>2026-04-08T15:50:07.999Z</time></trkpt><trkpt lat="45.114496923266515" lon="10.025578148842012"><ele>31.0</ele><time>2026-04-08T15:50:08.999Z</time></trkpt><trkpt lat="45.114424931835984" lon="10.025601093199388"><ele>31.000000000000004</ele><time>2026-04-08T15:50:09.999Z</time></trkpt><trkpt lat="45.11435330439479" lon="10.025624844064854"><ele>31.0</ele><time>2026-04-08T15:50:10.999Z</time></trkpt><trkpt lat="45.11428086561344" lon="10.025648491433996"><ele>31.0</ele><time>2026-04-08T15:50:11.999Z</time></trkpt><trkpt lat="45.114207254751825" lon="10.025669734844554"><ele>31.000000000000004</ele><time>2026-04-08T15:50:12.999Z</time></trkpt><trkpt lat="45.114134532286464" lon="10.025694647176108"><ele>31.0</ele><time>2026-04-08T15:50:13.999Z</time></trkpt><trkpt lat="45.114060976704906" lon="10.02571937238544"><ele>31.0</ele><time>2026-04-08T15:50:14.999Z</time></trkpt><trkpt lat="45.11398778338438" lon="10.025739293742436"><ele>31.28571428571429</ele><time>2026-04-08T15:50:15.999Z</time></trkpt><trkpt lat="45.113913758660715" lon="10.025760370055021"><ele>31.571428571428577</ele><time>2026-04-08T15:50:16.999Z</time></trkpt><trkpt lat="45.11384134928835" lon="10.025783739262229"><ele>31.857142857142858</ele><time>2026-04-08T15:50:17.999Z</time></trkpt><trkpt lat="45.11377097933035" lon="10.02580585274793"><ele>32.142857142857146</ele><time>2026-04-08T15:50:18.999Z</time></trkpt><trkpt lat="45.11369972470861" lon="10.02582795524389"><ele>32.42857142857143</ele><time>2026-04-08T15:50:19.999Z</time></trkpt><trkpt lat="45.11363200994265" lon="10.025850662712324"><ele>32.714285714285715</ele><time>2026-04-08T15:50:20.999Z</time></trkpt><trkpt lat="45.113563888152896" lon="10.025872054464102"><ele>33.0</ele><time>2026-04-08T15:50:21.999Z</time></trkpt><trkpt lat="45.113494597274" lon="10.025894228028001"><ele>33.0</ele><time>2026-04-08T15:50:22.999Z</time></trkpt><trkpt lat="45.113421337453985" lon="10.025915809603003"><ele>33.0</ele><time>2026-04-08T15:50:23.999Z</time></trkpt><trkpt lat="45.11334705861895" lon="10.025939649907304"><ele>33.0</ele><time>2026-04-08T15:50:24.999Z</time></trkpt><trkpt lat="45.1132727698124" lon="10.025965752409242"><ele>33.0</ele><time>2026-04-08T15:50:25.998Z</time></trkpt><trkpt lat="45.113199954745454" lon="10.025988304614163"><ele>33.0</ele><time>2026-04-08T15:50:26.998Z</time></trkpt><trkpt lat="45.11312729357454" lon="10.026008849559611"><ele>33.0</ele><time>2026-04-08T15:50:27.998Z</time></trkpt><trkpt lat="45.11305399068044" lon="10.026032271488752"><ele>32.857142857142854</ele><time>2026-04-08T15:50:28.998Z</time></trkpt><trkpt lat="45.11298108904108" lon="10.02605640848942"><ele>32.714285714285715</ele><time>2026-04-08T15:50:29.998Z</time></trkpt><trkpt lat="45.11290813161882" lon="10.026082224754239"><ele>32.57142857142857</ele><time>2026-04-08T15:50:30.998Z</time></trkpt><trkpt lat="45.112837295778945" lon="10.026111829917486"><ele>32.42857142857143</ele><time>2026-04-08T15:50:31.998Z</time></trkpt><trkpt lat="45.11276614382654" lon="10.026138781558545"><ele>32.285714285714285</ele><time>2026-04-08T15:50:32.998Z</time></trkpt><trkpt lat="45.11269526281498" lon="10.026168410429056"><ele>32.14285714285714</ele><time>2026-04-08T15:50:33.998Z</time></trkpt><trkpt lat="45.11262480664217" lon="10.026197452793369"><ele>32.0</ele><time>2026-04-08T15:50:34.998Z</time></trkpt><trkpt lat="45.11255458127022" lon="10.026228986797799"><ele>32.0</ele><time>2026-04-08T15:50:35.998Z</time></trkpt><trkpt lat="45.11248629916714" lon="10.026265066744767"><ele>31.999999999999996</ele><time>2026-04-08T15:50:36.998Z</time></trkpt><trkpt lat="45.11241865989145" lon="10.0263036681057"><ele>32.0</ele><time>2026-04-08T15:50:37.998Z</time></trkpt><trkpt lat="45.11234959922966" lon="10.026343145091923"><ele>32.0</ele><time>2026-04-08T15:50:38.998Z</time></trkpt><trkpt lat="45.11228181995104" lon="10.026380350195469"><ele>31.999999999999996</ele><time>2026-04-08T15:50:39.998Z</time></trkpt><trkpt lat="45.11221526870098" lon="10.026416041281903"><ele>32.0</ele><time>2026-04-08T15:50:40.998Z</time></trkpt><trkpt lat="45.112147941786496" lon="10.026452432250325"><ele>32.0</ele><time>2026-04-08T15:50:41.998Z</time></trkpt><trkpt lat="45.112080359329454" lon="10.026489131278268"><ele>32.0</ele><time>2026-04-08T15:50:42.998Z</time></trkpt><trkpt lat="45.11201197679438" lon="10.026526815940226"><ele>31.999999999999996</ele><time>2026-04-08T15:50:43.998Z</time></trkpt><trkpt lat="45.11194393336864" lon="10.026563784340851"><ele>32.0</ele><time>2026-04-08T15:50:44.998Z</time></trkpt><trkpt lat="45.11187606426282" lon="10.026601272496737"><ele>32.0</ele><time>2026-04-08T15:50:45.998Z</time></trkpt><trkpt lat="45.11180858292767" lon="10.02663923675478"><ele>31.999999999999996</ele><time>2026-04-08T15:50:46.998Z</time></trkpt><trkpt lat="45.111740585061256" lon="10.026677127070986"><ele>32.0</ele><time>2026-04-08T15:50:47.998Z</time></trkpt><trkpt lat="45.11167292949276" lon="10.026714410773307"><ele>32.0</ele><time>2026-04-08T15:50:48.998Z</time></trkpt><trkpt lat="45.11160428220053" lon="10.026753135322673"><ele>32.42857142857143</ele><time>2026-04-08T15:50:49.998Z</time></trkpt><trkpt lat="45.11153667193914" lon="10.026791539198964"><ele>32.857142857142854</ele><time>2026-04-08T15:50:50.998Z</time></trkpt><trkpt lat="45.11146970541763" lon="10.026828595227649"><ele>33.285714285714285</ele><time>2026-04-08T15:50:51.998Z</time></trkpt><trkpt lat="45.111402707125585" lon="10.026866970435277"><ele>33.714285714285715</ele><time>2026-04-08T15:50:52.998Z</time></trkpt><trkpt lat="45.11133512952303" lon="10.026906260085521"><ele>34.14285714285714</ele><time>2026-04-08T15:50:53.998Z</time></trkpt><trkpt lat="45.111268018736894" lon="10.026945469313146"><ele>34.57142857142857</ele><time>2026-04-08T15:50:54.998Z</time></trkpt><trkpt lat="45.11119998877792" lon="10.026984891960804"><ele>35.0</ele><time>2026-04-08T15:50:55.998Z</time></trkpt><trkpt lat="45.11113215381471" lon="10.027021342864774"><ele>35.0</ele><time>2026-04-08T15:50:56.998Z</time></trkpt><trkpt lat="45.111064542159575" lon="10.027058328881632"><ele>35.0</ele><time>2026-04-08T15:50:57.998Z</time></trkpt><trkpt lat="45.11099542544904" lon="10.02709719045965"><ele>35.0</ele><time>2026-04-08T15:50:58.998Z</time></trkpt><trkpt lat="45.110922386841075" lon="10.027114654551141"><ele>35.0</ele><time>2026-04-08T15:51:00Z</time></trkpt><trkpt lat="45.11085385934236" lon="10.027149952246608"><ele>35.0</ele><time>2026-04-08T15:51:01Z</time></trkpt><trkpt lat="45.11078358158586" lon="10.027184144133267"><ele>35.0</ele><time>2026-04-08T15:51:02Z</time></trkpt><trkpt lat="45.11071403025172" lon="10.027216279178175"><ele>35.0</ele><time>2026-04-08T15:51:03Z</time></trkpt><trkpt lat="45.11064511120835" lon="10.027246753582432"><ele>34.714285714285715</ele><time>2026-04-08T15:51:04Z</time></trkpt><trkpt lat="45.11057883190408" lon="10.027298207418749"><ele>34.42857142857143</ele><time>2026-04-08T15:51:05Z</time></trkpt><trkpt lat="45.110505752191585" lon="10.027321891455005"><ele>34.14285714285714</ele><time>2026-04-08T15:51:06Z</time></trkpt><trkpt lat="45.11043127744424" lon="10.027341220810863"><ele>33.85714285714286</ele><time>2026-04-08T15:51:07Z</time></trkpt><trkpt lat="45.11036002964635" lon="10.027360606718368"><ele>33.57142857142857</ele><time>2026-04-08T15:51:08Z</time></trkpt><trkpt lat="45.11028673470757" lon="10.027382071079465"><ele>33.285714285714285</ele><time>2026-04-08T15:51:09Z</time></trkpt><trkpt lat="45.11021385783382" lon="10.027406775732437"><ele>33.0</ele><time>2026-04-08T15:51:10Z</time></trkpt><trkpt lat="45.110142601559595" lon="10.027434671304572"><ele>33.0</ele><time>2026-04-08T15:51:11Z</time></trkpt><trkpt lat="45.11007084565648" lon="10.027458417270463"><ele>33.0</ele><time>2026-04-08T15:51:12Z</time></trkpt><trkpt lat="45.10999969074582" lon="10.027483384835278"><ele>33.0</ele><time>2026-04-08T15:51:13Z</time></trkpt><trkpt lat="45.109927233856666" lon="10.02750695239326"><ele>33.0</ele><time>2026-04-08T15:51:14Z</time></trkpt><trkpt lat="45.10985326872079" lon="10.027531471880222"><ele>33.0</ele><time>2026-04-08T15:51:15Z</time></trkpt><trkpt lat="45.10978124287263" lon="10.027556742626555"><ele>33.0</ele><time>2026-04-08T15:51:16Z</time></trkpt><trkpt lat="45.10970904675248" lon="10.027581785155235"><ele>33.0</ele><time>2026-04-08T15:51:17Z</time></trkpt><trkpt lat="45.10963693323653" lon="10.027607218932694"><ele>32.857142857142854</ele><time>2026-04-08T15:51:18Z</time></trkpt><trkpt lat="45.10956396455873" lon="10.02763082925137"><ele>32.714285714285715</ele><time>2026-04-08T15:51:19Z</time></trkpt><trkpt lat="45.109490361678155" lon="10.02765326220133"><ele>32.57142857142857</ele><time>2026-04-08T15:51:20Z</time></trkpt><trkpt lat="45.10941630552412" lon="10.027678879055324"><ele>32.42857142857143</ele><time>2026-04-08T15:51:21Z</time></trkpt><trkpt lat="45.10934387269198" lon="10.027706007668979"><ele>32.285714285714285</ele><time>2026-04-08T15:51:22Z</time></trkpt><trkpt lat="45.109271892886056" lon="10.027730329034362"><ele>32.14285714285714</ele><time>2026-04-08T15:51:23Z</time></trkpt><trkpt lat="45.10920006303321" lon="10.027755612583555"><ele>32.0</ele><time>2026-04-08T15:51:24Z</time></trkpt><trkpt lat="45.10912852533429" lon="10.027780349377672"><ele>32.14285714285714</ele><time>2026-04-08T15:51:25Z</time></trkpt><trkpt lat="45.109055441641246" lon="10.02780558206463"><ele>32.285714285714285</ele><time>2026-04-08T15:51:26Z</time></trkpt><trkpt lat="45.108982527224796" lon="10.027828129592999"><ele>32.42857142857143</ele><time>2026-04-08T15:51:27Z</time></trkpt><trkpt lat="45.108910371626116" lon="10.027849086412498"><ele>32.57142857142857</ele><time>2026-04-08T15:51:28Z</time></trkpt><trkpt lat="45.108837037324115" lon="10.02787426723047"><ele>32.714285714285715</ele><time>2026-04-08T15:51:29Z</time></trkpt><trkpt lat="45.10876569092849" lon="10.02789856206494"><ele>32.857142857142854</ele><time>2026-04-08T15:51:30Z</time></trkpt><trkpt lat="45.10869364557671" lon="10.027921202341398"><ele>33.0</ele><time>2026-04-08T15:51:31Z</time></trkpt><trkpt lat="45.10862239733188" lon="10.027943134724367"><ele>33.0</ele><time>2026-04-08T15:51:31.999Z</time></trkpt><trkpt lat="45.10854926424806" lon="10.027962796210318"><ele>33.0</ele><time>2026-04-08T15:51:32.999Z</time></trkpt><trkpt lat="45.10847616239906" lon="10.027982154296863"><ele>33.0</ele><time>2026-04-08T15:51:33.999Z</time></trkpt><trkpt lat="45.10840313960526" lon="10.027991214203004"><ele>33.0</ele><time>2026-04-08T15:51:34.999Z</time></trkpt><trkpt lat="45.108330251629276" lon="10.028001671891868"><ele>33.0</ele><time>2026-04-08T15:51:35.999Z</time></trkpt><trkpt lat="45.10825713408282" lon="10.028002062703152"><ele>33.0</ele><time>2026-04-08T15:51:36.999Z</time></trkpt><trkpt lat="45.108184501104624" lon="10.027997667115772"><ele>33.0</ele><time>2026-04-08T15:51:37.999Z</time></trkpt><trkpt lat="45.10811156919199" lon="10.027991166038747"><ele>32.857142857142854</ele><time>2026-04-08T15:51:38.999Z</time></trkpt><trkpt lat="45.108036965566605" lon="10.02798586479499"><ele>32.714285714285715</ele><time>2026-04-08T15:51:39.999Z</time></trkpt><trkpt lat="45.10796222481215" lon="10.027985225013929"><ele>32.57142857142857</ele><time>2026-04-08T15:51:40.999Z</time></trkpt><trkpt lat="45.10788741267195" lon="10.027985009477863"><ele>32.42857142857143</ele><time>2026-04-08T15:51:41.999Z</time></trkpt><trkpt lat="45.10781323013166" lon="10.02798725490909"><ele>32.285714285714285</ele><time>2026-04-08T15:51:42.999Z</time></trkpt><trkpt lat="45.10773830086158" lon="10.027986212133873"><ele>32.14285714285714</ele><time>2026-04-08T15:51:43.999Z</time></trkpt><trkpt lat="45.10766226698311" lon="10.027980888681842"><ele>32.0</ele><time>2026-04-08T15:51:44.999Z</time></trkpt><trkpt lat="45.10758762573647" lon="10.027976783128423"><ele>31.999999999999996</ele><time>2026-04-08T15:51:45.999Z</time></trkpt><trkpt lat="45.10751283309266" lon="10.027975922411319"><ele>32.0</ele><time>2026-04-08T15:51:46.999Z</time></trkpt><trkpt lat="45.107437699857606" lon="10.0279746630123"><ele>32.0</ele><time>2026-04-08T15:51:47.999Z</time></trkpt><trkpt lat="45.107362586501736" lon="10.027975967132258"><ele>32.0</ele><time>2026-04-08T15:51:48.999Z</time></trkpt><trkpt lat="45.10728697615444" lon="10.027969544243831"><ele>31.999999999999996</ele><time>2026-04-08T15:51:49.999Z</time></trkpt><trkpt lat="45.107212654126826" lon="10.027966419341551"><ele>32.0</ele><time>2026-04-08T15:51:50.999Z</time></trkpt><trkpt lat="45.107137285450584" lon="10.027964886881765"><ele>32.42857142857143</ele><time>2026-04-08T15:51:51.999Z</time></trkpt><trkpt lat="45.107063180966456" lon="10.02796261169493"><ele>32.857142857142854</ele><time>2026-04-08T15:51:52.999Z</time></trkpt><trkpt lat="45.106989629028526" lon="10.027961028656698"><ele>33.285714285714285</ele><time>2026-04-08T15:51:53.999Z</time></trkpt><trkpt lat="45.10691569059647" lon="10.027957558542239"><ele>33.714285714285715</ele><time>2026-04-08T15:51:54.999Z</time></trkpt><trkpt lat="45.106841092686906" lon="10.027954260513487"><ele>34.14285714285714</ele><time>2026-04-08T15:51:55.999Z</time></trkpt><trkpt lat="45.10676634885197" lon="10.027950400361838"><ele>34.57142857142857</ele><time>2026-04-08T15:51:56.999Z</time></trkpt><trkpt lat="45.106691661161975" lon="10.02795050688997"><ele>35.0</ele><time>2026-04-08T15:51:57.999Z</time></trkpt><trkpt lat="45.10661894724332" lon="10.027948693892723"><ele>34.714285714285715</ele><time>2026-04-08T15:51:58.999Z</time></trkpt><trkpt lat="45.10654492924748" lon="10.027945262773898"><ele>34.42857142857143</ele><time>2026-04-08T15:51:59.999Z</time></trkpt><trkpt lat="45.10647043157901" lon="10.02794341086819"><ele>34.14285714285714</ele><time>2026-04-08T15:52:00.999Z</time></trkpt><trkpt lat="45.10639555332599" lon="10.027943103716305"><ele>33.85714285714286</ele><time>2026-04-08T15:52:01.999Z</time></trkpt><trkpt lat="45.106321135087256" lon="10.027942179416813"><ele>33.57142857142857</ele><time>2026-04-08T15:52:02.999Z</time></trkpt><trkpt lat="45.10624710089924" lon="10.02793683545993"><ele>33.285714285714285</ele><time>2026-04-08T15:52:03.999Z</time></trkpt><trkpt lat="45.10617242394266" lon="10.027933396138316"><ele>33.0</ele><time>2026-04-08T15:52:04.999Z</time></trkpt><trkpt lat="45.106097275345874" lon="10.027932067004862"><ele>33.0</ele><time>2026-04-08T15:52:05.999Z</time></trkpt><trkpt lat="45.10602202697298" lon="10.02793610486486"><ele>33.0</ele><time>2026-04-08T15:52:06.999Z</time></trkpt><trkpt lat="45.10594949477808" lon="10.027943956618106"><ele>33.0</ele><time>2026-04-08T15:52:07.999Z</time></trkpt><trkpt lat="45.105876842543" lon="10.027970341504622"><ele>33.0</ele><time>2026-04-08T15:52:08.999Z</time></trkpt><trkpt lat="45.105808197584174" lon="10.028003382304828"><ele>33.0</ele><time>2026-04-08T15:52:09.999Z</time></trkpt><trkpt lat="45.10573810144158" lon="10.028036488149"><ele>33.0</ele><time>2026-04-08T15:52:10.999Z</time></trkpt><trkpt lat="45.105669360444026" lon="10.028069243433512"><ele>33.0</ele><time>2026-04-08T15:52:11.999Z</time></trkpt><trkpt lat="45.10560101158384" lon="10.028106829622462"><ele>32.714285714285715</ele><time>2026-04-08T15:52:12.999Z</time></trkpt><trkpt lat="45.10553374880694" lon="10.02814552439165"><ele>32.42857142857143</ele><time>2026-04-08T15:52:13.999Z</time></trkpt><trkpt lat="45.105465118448215" lon="10.028183073895589"><ele>32.142857142857146</ele><time>2026-04-08T15:52:14.999Z</time></trkpt><trkpt lat="45.105396303839086" lon="10.028220684407971"><ele>31.857142857142858</ele><time>2026-04-08T15:52:15.999Z</time></trkpt><trkpt lat="45.105329102109245" lon="10.028257196318215"><ele>31.571428571428577</ele><time>2026-04-08T15:52:16.999Z</time></trkpt><trkpt lat="45.10526124749071" lon="10.028296447251131"><ele>31.28571428571429</ele><time>2026-04-08T15:52:17.999Z</time></trkpt><trkpt lat="45.10519245185423" lon="10.028333276038177"><ele>31.0</ele><time>2026-04-08T15:52:18.999Z</time></trkpt><trkpt lat="45.10512394864406" lon="10.028371353923461"><ele>31.571428571428573</ele><time>2026-04-08T15:52:19.999Z</time></trkpt><trkpt lat="45.10505923150485" lon="10.028410922826545"><ele>32.142857142857146</ele><time>2026-04-08T15:52:20.999Z</time></trkpt><trkpt lat="45.10499235991986" lon="10.02845683778982"><ele>32.714285714285715</ele><time>2026-04-08T15:52:21.999Z</time></trkpt><trkpt lat="45.104926292037206" lon="10.028503489560228"><ele>33.285714285714285</ele><time>2026-04-08T15:52:22.999Z</time></trkpt><trkpt lat="45.1048627812227" lon="10.028553832586107"><ele>33.85714285714286</ele><time>2026-04-08T15:52:23.999Z</time></trkpt><trkpt lat="45.10479952428829" lon="10.028603417989427"><ele>34.42857142857143</ele><time>2026-04-08T15:52:24.999Z</time></trkpt><trkpt lat="45.1047359760571" lon="10.028654088575678"><ele>35.0</ele><time>2026-04-08T15:52:25.999Z</time></trkpt><trkpt lat="45.10467313090489" lon="10.02870447981569"><ele>35.285714285714285</ele><time>2026-04-08T15:52:26.999Z</time></trkpt><trkpt lat="45.10460938245478" lon="10.02875452892187"><ele>35.57142857142857</ele><time>2026-04-08T15:52:27.999Z</time></trkpt><trkpt lat="45.10454804495054" lon="10.028809516697821"><ele>35.85714285714286</ele><time>2026-04-08T15:52:28.999Z</time></trkpt><trkpt lat="45.10448839244725" lon="10.028864550254951"><ele>36.14285714285714</ele><time>2026-04-08T15:52:29.998Z</time></trkpt><trkpt lat="45.10442754318876" lon="10.028918966564598"><ele>36.42857142857143</ele><time>2026-04-08T15:52:30.998Z</time></trkpt><trkpt lat="45.10437580531508" lon="10.028988496587255"><ele>36.714285714285715</ele><time>2026-04-08T15:52:31.998Z</time></trkpt><trkpt lat="45.10433873421647" lon="10.029078268626971"><ele>37.0</ele><time>2026-04-08T15:52:32.998Z</time></trkpt><trkpt lat="45.104315652551406" lon="10.029176954420096"><ele>37.16666666666667</ele><time>2026-04-08T15:52:33.998Z</time></trkpt><trkpt lat="45.10429781511222" lon="10.029284259895654"><ele>37.333333333333336</ele><time>2026-04-08T15:52:34.998Z</time></trkpt><trkpt lat="45.10426168359181" lon="10.029387778359215"><ele>37.5</ele><time>2026-04-08T15:52:35.998Z</time></trkpt><trkpt lat="45.10424290815561" lon="10.02949947294601"><ele>37.666666666666664</ele><time>2026-04-08T15:52:36.998Z</time></trkpt><trkpt lat="45.104232572391055" lon="10.029621334124233"><ele>37.83333333333333</ele><time>2026-04-08T15:52:37.998Z</time></trkpt><trkpt lat="45.10423361266028" lon="10.02974449066631"><ele>38.0</ele><time>2026-04-08T15:52:38.998Z</time></trkpt><trkpt lat="45.10423501876679" lon="10.029866973916135"><ele>38.0</ele><time>2026-04-08T15:52:39.998Z</time></trkpt><trkpt lat="45.104239053502845" lon="10.029984047071592"><ele>38.0</ele><time>2026-04-08T15:52:40.998Z</time></trkpt><trkpt lat="45.104227658446504" lon="10.030097312908516"><ele>38.0</ele><time>2026-04-08T15:52:41.998Z</time></trkpt><trkpt lat="45.10419250365404" lon="10.030199279647913"><ele>38.0</ele><time>2026-04-08T15:52:42.998Z</time></trkpt><trkpt lat="45.104140814063776" lon="10.030280456939867"><ele>38.0</ele><time>2026-04-08T15:52:43.998Z</time></trkpt><trkpt lat="45.10408105787633" lon="10.030358054598226"><ele>38.0</ele><time>2026-04-08T15:52:44.998Z</time></trkpt><trkpt lat="45.104020485129524" lon="10.030426597004606"><ele>38.33333333333333</ele><time>2026-04-08T15:52:45.998Z</time></trkpt><trkpt lat="45.10396200072505" lon="10.030506702789866"><ele>38.666666666666664</ele><time>2026-04-08T15:52:46.998Z</time></trkpt><trkpt lat="45.10388481386549" lon="10.030551128818397"><ele>39.0</ele><time>2026-04-08T15:52:47.998Z</time></trkpt><trkpt lat="45.103809750925556" lon="10.030612130349464"><ele>39.333333333333336</ele><time>2026-04-08T15:52:48.998Z</time></trkpt><trkpt lat="45.10374419795732" lon="10.030664027696321"><ele>39.66666666666667</ele><time>2026-04-08T15:52:49.998Z</time></trkpt><trkpt lat="45.103652453440574" lon="10.030763869725455"><ele>40.0</ele><time>2026-04-08T15:52:51.998Z</time></trkpt><trkpt lat="45.10358423098481" lon="10.03080358943688"><ele>39.333333333333336</ele><time>2026-04-08T15:52:52.998Z</time></trkpt><trkpt lat="45.10353432665838" lon="10.030869124979802"><ele>38.66666666666667</ele><time>2026-04-08T15:52:53.998Z</time></trkpt><trkpt lat="45.103491930169106" lon="10.030936871047912"><ele>38.0</ele><time>2026-04-08T15:52:54.998Z</time></trkpt><trkpt lat="45.10345009819025" lon="10.031006497931662"><ele>37.333333333333336</ele><time>2026-04-08T15:52:55.998Z</time></trkpt><trkpt lat="45.10340852198856" lon="10.031080120480953"><ele>36.666666666666664</ele><time>2026-04-08T15:52:56.998Z</time></trkpt><trkpt lat="45.10333069584496" lon="10.031217933919814"><ele>36.0</ele><time>2026-04-08T15:52:58.998Z</time></trkpt><trkpt lat="45.10327077818179" lon="10.031367868543192"><ele>35.6</ele><time>2026-04-08T15:53:00.998Z</time></trkpt><trkpt lat="45.1031940638532" lon="10.03149852844188"><ele>35.2</ele><time>2026-04-08T15:53:02.998Z</time></trkpt><trkpt lat="45.10311639459872" lon="10.031627761282365"><ele>34.8</ele><time>2026-04-08T15:53:04.998Z</time></trkpt><trkpt lat="45.10301713462716" lon="10.031747935033085"><ele>34.4</ele><time>2026-04-08T15:53:07Z</time></trkpt><trkpt lat="45.102992892029725" lon="10.031835403625125"><ele>34.0</ele><time>2026-04-08T15:53:08Z</time></trkpt><trkpt lat="45.10295046277726" lon="10.031902754867575"><ele>33.99999999999999</ele><time>2026-04-08T15:53:09Z</time></trkpt><trkpt lat="45.10290997119439" lon="10.031976314002176"><ele>34.0</ele><time>2026-04-08T15:53:10Z</time></trkpt><trkpt lat="45.10287089234181" lon="10.032048426952917"><ele>34.0</ele><time>2026-04-08T15:53:11Z</time></trkpt><trkpt lat="45.10282851378227" lon="10.03212040750205"><ele>34.0</ele><time>2026-04-08T15:53:12Z</time></trkpt><trkpt lat="45.102785190803374" lon="10.032193232332363"><ele>34.0</ele><time>2026-04-08T15:53:13Z</time></trkpt><trkpt lat="45.1027426717365" lon="10.03226105676218"><ele>33.99999999999999</ele><time>2026-04-08T15:53:14Z</time></trkpt><trkpt lat="45.102697319968904" lon="10.032334540853396"><ele>34.0</ele><time>2026-04-08T15:53:15Z</time></trkpt><trkpt lat="45.10265014777291" lon="10.032404958467005"><ele>33.99999999999999</ele><time>2026-04-08T15:53:16Z</time></trkpt><trkpt lat="45.102604085138296" lon="10.032477683421355"><ele>34.0</ele><time>2026-04-08T15:53:17Z</time></trkpt><trkpt lat="45.10255759346164" lon="10.032550249043002"><ele>34.0</ele><time>2026-04-08T15:53:18Z</time></trkpt><trkpt lat="45.102511772302464" lon="10.032624575159748"><ele>34.0</ele><time>2026-04-08T15:53:19Z</time></trkpt><trkpt lat="45.102463758267646" lon="10.032701709311722"><ele>34.0</ele><time>2026-04-08T15:53:20Z</time></trkpt><trkpt lat="45.102416363871" lon="10.032776902845669"><ele>33.99999999999999</ele><time>2026-04-08T15:53:21Z</time></trkpt><trkpt lat="45.10236881909651" lon="10.032848043136196"><ele>34.0</ele><time>2026-04-08T15:53:22Z</time></trkpt><trkpt lat="45.1023178924579" lon="10.032919821216021"><ele>33.857142857142854</ele><time>2026-04-08T15:53:23Z</time></trkpt><trkpt lat="45.10226640364382" lon="10.032988060521044"><ele>33.714285714285715</ele><time>2026-04-08T15:53:24Z</time></trkpt><trkpt lat="45.102211259109815" lon="10.03305268912314"><ele>33.57142857142857</ele><time>2026-04-08T15:53:25Z</time></trkpt><trkpt lat="45.10215399280878" lon="10.033112634453717"><ele>33.42857142857143</ele><time>2026-04-08T15:53:26Z</time></trkpt><trkpt lat="45.10209355590301" lon="10.033166767516077"><ele>33.285714285714285</ele><time>2026-04-08T15:53:27Z</time></trkpt><trkpt lat="45.102016117564624" lon="10.033164849800263"><ele>33.14285714285714</ele><time>2026-04-08T15:53:28Z</time></trkpt><trkpt lat="45.10195074676075" lon="10.033205850981236"><ele>33.0</ele><time>2026-04-08T15:53:29Z</time></trkpt><trkpt lat="45.10188525962037" lon="10.033245348980369"><ele>33.0</ele><time>2026-04-08T15:53:30Z</time></trkpt><trkpt lat="45.101818909997064" lon="10.0332853670626"><ele>33.0</ele><time>2026-04-08T15:53:31Z</time></trkpt><trkpt lat="45.101753451582056" lon="10.033324849578827"><ele>33.0</ele><time>2026-04-08T15:53:32Z</time></trkpt><trkpt lat="45.101687651242585" lon="10.033364536435254"><ele>33.0</ele><time>2026-04-08T15:53:33Z</time></trkpt><trkpt lat="45.10162129996934" lon="10.033404555583221"><ele>33.0</ele><time>2026-04-08T15:53:34Z</time></trkpt><trkpt lat="45.1015552224943" lon="10.033444409591839"><ele>33.0</ele><time>2026-04-08T15:53:34.999Z</time></trkpt><trkpt lat="45.10148822119216" lon="10.033484686496692"><ele>33.0</ele><time>2026-04-08T15:53:35.999Z</time></trkpt><trkpt lat="45.10142258711733" lon="10.033524142575919"><ele>33.0</ele><time>2026-04-08T15:53:36.999Z</time></trkpt><trkpt lat="45.10135707708189" lon="10.033564322367898"><ele>33.0</ele><time>2026-04-08T15:53:37.999Z</time></trkpt><trkpt lat="45.101290681158495" lon="10.033605486026131"><ele>33.0</ele><time>2026-04-08T15:53:38.999Z</time></trkpt><trkpt lat="45.1012247934773" lon="10.03364633458499"><ele>33.0</ele><time>2026-04-08T15:53:39.999Z</time></trkpt><trkpt lat="45.10115926156842" lon="10.033686962577145"><ele>33.0</ele><time>2026-04-08T15:53:40.999Z</time></trkpt><trkpt lat="45.10109406404584" lon="10.03372738325682"><ele>33.0</ele><time>2026-04-08T15:53:41.999Z</time></trkpt><trkpt lat="45.10102816501062" lon="10.03376820057658"><ele>33.0</ele><time>2026-04-08T15:53:42.999Z</time></trkpt><trkpt lat="45.1009621580475" lon="10.033808685387346"><ele>33.0</ele><time>2026-04-08T15:53:43.999Z</time></trkpt><trkpt lat="45.100895683588156" lon="10.033849456938515"><ele>33.0</ele><time>2026-04-08T15:53:44.999Z</time></trkpt><trkpt lat="45.10082936166044" lon="10.033890694601242"><ele>33.0</ele><time>2026-04-08T15:53:45.999Z</time></trkpt><trkpt lat="45.100762904001186" lon="10.033932327986054"><ele>33.0</ele><time>2026-04-08T15:53:46.999Z</time></trkpt><trkpt lat="45.10069828533569" lon="10.033972809308894"><ele>33.0</ele><time>2026-04-08T15:53:47.999Z</time></trkpt><trkpt lat="45.10063210907445" lon="10.03401426640885"><ele>33.0</ele><time>2026-04-08T15:53:48.999Z</time></trkpt><trkpt lat="45.10057373944969" lon="10.03407537675985"><ele>33.0</ele><time>2026-04-08T15:53:49.999Z</time></trkpt><trkpt lat="45.100506264293315" lon="10.034113390278671"><ele>33.14285714285714</ele><time>2026-04-08T15:53:50.999Z</time></trkpt><trkpt lat="45.10044070473574" lon="10.03415392239351"><ele>33.285714285714285</ele><time>2026-04-08T15:53:51.999Z</time></trkpt><trkpt lat="45.10037406259443" lon="10.034194630112491"><ele>33.42857142857143</ele><time>2026-04-08T15:53:52.999Z</time></trkpt><trkpt lat="45.10030891803226" lon="10.034234193847858"><ele>33.57142857142857</ele><time>2026-04-08T15:53:53.999Z</time></trkpt><trkpt lat="45.10024294274035" lon="10.034275386174226"><ele>33.714285714285715</ele><time>2026-04-08T15:53:54.999Z</time></trkpt><trkpt lat="45.10017870370485" lon="10.03431866094727"><ele>33.857142857142854</ele><time>2026-04-08T15:53:55.999Z</time></trkpt><trkpt lat="45.10011346113804" lon="10.03436168034835"><ele>34.0</ele><time>2026-04-08T15:53:56.999Z</time></trkpt><trkpt lat="45.100049592585655" lon="10.034404029809554"><ele>33.99999999999999</ele><time>2026-04-08T15:53:57.999Z</time></trkpt><trkpt lat="45.09998491467973" lon="10.034442940840918"><ele>34.0</ele><time>2026-04-08T15:53:58.999Z</time></trkpt><trkpt lat="45.09991859010502" lon="10.034480945677545"><ele>34.0</ele><time>2026-04-08T15:53:59.999Z</time></trkpt><trkpt lat="45.09985472653156" lon="10.034517407039075"><ele>34.0</ele><time>2026-04-08T15:54:00.999Z</time></trkpt><trkpt lat="45.09978777523173" lon="10.034552120896894"><ele>34.0</ele><time>2026-04-08T15:54:01.999Z</time></trkpt><trkpt lat="45.09972014786289" lon="10.034582825633912"><ele>33.99999999999999</ele><time>2026-04-08T15:54:02.999Z</time></trkpt><trkpt lat="45.09964978092662" lon="10.034577293540673"><ele>34.0</ele><time>2026-04-08T15:54:03.999Z</time></trkpt><trkpt lat="45.099577265788696" lon="10.03458665744358"><ele>33.857142857142854</ele><time>2026-04-08T15:54:04.999Z</time></trkpt><trkpt lat="45.09950571519545" lon="10.034595561012303"><ele>33.714285714285715</ele><time>2026-04-08T15:54:05.999Z</time></trkpt><trkpt lat="45.09943186840688" lon="10.034604750312958"><ele>33.57142857142857</ele><time>2026-04-08T15:54:06.999Z</time></trkpt><trkpt lat="45.099358834358526" lon="10.03461383847851"><ele>33.42857142857143</ele><time>2026-04-08T15:54:07.999Z</time></trkpt><trkpt lat="45.099286429859944" lon="10.034622848305018"><ele>33.285714285714285</ele><time>2026-04-08T15:54:08.999Z</time></trkpt><trkpt lat="45.09921174494707" lon="10.034633490081163"><ele>33.14285714285714</ele><time>2026-04-08T15:54:09.999Z</time></trkpt><trkpt lat="45.099139065410775" lon="10.034644317272885"><ele>33.0</ele><time>2026-04-08T15:54:10.999Z</time></trkpt><trkpt lat="45.09906668523472" lon="10.034655800320444"><ele>33.0</ele><time>2026-04-08T15:54:11.999Z</time></trkpt><trkpt lat="45.098995098049684" lon="10.034669001992782"><ele>33.0</ele><time>2026-04-08T15:54:12.999Z</time></trkpt><trkpt lat="45.09892147729927" lon="10.034682578684254"><ele>33.0</ele><time>2026-04-08T15:54:13.999Z</time></trkpt><trkpt lat="45.098848982208494" lon="10.034695947787247"><ele>33.0</ele><time>2026-04-08T15:54:14.999Z</time></trkpt><trkpt lat="45.0987742739956" lon="10.034709725021173"><ele>33.0</ele><time>2026-04-08T15:54:15.999Z</time></trkpt><trkpt lat="45.09870211929937" lon="10.034746005304738"><ele>33.0</ele><time>2026-04-08T15:54:16.999Z</time></trkpt><trkpt lat="45.098627193892185" lon="10.034757354250345"><ele>33.0</ele><time>2026-04-08T15:54:17.999Z</time></trkpt><trkpt lat="45.09855309265293" lon="10.034743160876198"><ele>33.0</ele><time>2026-04-08T15:54:18.999Z</time></trkpt><trkpt lat="45.09848603230957" lon="10.034726902814947"><ele>33.0</ele><time>2026-04-08T15:54:19.999Z</time></trkpt><trkpt lat="45.09841074339812" lon="10.034792593001699"><ele>33.0</ele><time>2026-04-08T15:54:20.999Z</time></trkpt><trkpt lat="45.09833914594492" lon="10.034803656949313"><ele>33.0</ele><time>2026-04-08T15:54:21.999Z</time></trkpt><trkpt lat="45.09826673317577" lon="10.034783012205846"><ele>33.0</ele><time>2026-04-08T15:54:22.999Z</time></trkpt><trkpt lat="45.098193353204444" lon="10.03478310318367"><ele>33.0</ele><time>2026-04-08T15:54:23.999Z</time></trkpt><trkpt lat="45.09812169355497" lon="10.034786272405496"><ele>33.0</ele><time>2026-04-08T15:54:24.999Z</time></trkpt><trkpt lat="45.098049213149594" lon="10.034790273136"><ele>33.42857142857143</ele><time>2026-04-08T15:54:25.999Z</time></trkpt><trkpt lat="45.097977073753036" lon="10.0347947538438"><ele>33.85714285714286</ele><time>2026-04-08T15:54:26.999Z</time></trkpt><trkpt lat="45.09790306722764" lon="10.034804961373522"><ele>34.28571428571429</ele><time>2026-04-08T15:54:27.999Z</time></trkpt><trkpt lat="45.09783038165461" lon="10.03481943025463"><ele>34.714285714285715</ele><time>2026-04-08T15:54:28.999Z</time></trkpt><trkpt lat="45.09775993096535" lon="10.034835323930375"><ele>35.142857142857146</ele><time>2026-04-08T15:54:29.999Z</time></trkpt><trkpt lat="45.09769003968316" lon="10.034851740742003"><ele>35.57142857142858</ele><time>2026-04-08T15:54:30.999Z</time></trkpt><trkpt lat="45.09762254758098" lon="10.03488664445907"><ele>36.0</ele><time>2026-04-08T15:54:31.998Z</time></trkpt><trkpt lat="45.097555769522714" lon="10.034897105287708"><ele>36.0</ele><time>2026-04-08T15:54:32.998Z</time></trkpt><trkpt lat="45.097489922537854" lon="10.034906452441719"><ele>36.0</ele><time>2026-04-08T15:54:33.998Z</time></trkpt><trkpt lat="45.09742651633586" lon="10.034917630546007"><ele>36.0</ele><time>2026-04-08T15:54:34.998Z</time></trkpt><trkpt lat="45.09736394664859" lon="10.034927576357333"><ele>36.0</ele><time>2026-04-08T15:54:35.998Z</time></trkpt><trkpt lat="45.097243891821506" lon="10.034942071697614"><ele>36.0</ele><time>2026-04-08T15:54:37.998Z</time></trkpt><trkpt lat="45.097130770549434" lon="10.034958781725965"><ele>36.0</ele><time>2026-04-08T15:54:39.998Z</time></trkpt><trkpt lat="45.097032875985995" lon="10.034981056795592"><ele>35.85714285714286</ele><time>2026-04-08T15:54:41.998Z</time></trkpt><trkpt lat="45.096914908060555" lon="10.035003265665628"><ele>35.714285714285715</ele><time>2026-04-08T15:54:43.998Z</time></trkpt><trkpt lat="45.09685174232661" lon="10.035010479728049"><ele>35.57142857142857</ele><time>2026-04-08T15:54:44.998Z</time></trkpt><trkpt lat="45.09678864163806" lon="10.035019089388264"><ele>35.42857142857143</ele><time>2026-04-08T15:54:45.998Z</time></trkpt><trkpt lat="45.09672214328903" lon="10.035025544946555"><ele>35.285714285714285</ele><time>2026-04-08T15:54:46.998Z</time></trkpt><trkpt lat="45.09666416732369" lon="10.035068528916378"><ele>35.142857142857146</ele><time>2026-04-08T15:54:47.998Z</time></trkpt><trkpt lat="45.09659992133311" lon="10.035095512191337"><ele>35.0</ele><time>2026-04-08T15:54:48.998Z</time></trkpt><trkpt lat="45.09652218171077" lon="10.035048071072247"><ele>34.857142857142854</ele><time>2026-04-08T15:54:49.998Z</time></trkpt><trkpt lat="45.09645614266444" lon="10.035049265837468"><ele>34.714285714285715</ele><time>2026-04-08T15:54:50.998Z</time></trkpt><trkpt lat="45.096386131771965" lon="10.035050133172016"><ele>34.57142857142857</ele><time>2026-04-08T15:54:51.998Z</time></trkpt><trkpt lat="45.09631564021939" lon="10.035050789513901"><ele>34.42857142857143</ele><time>2026-04-08T15:54:52.998Z</time></trkpt><trkpt lat="45.09624396302637" lon="10.035053845185326"><ele>34.285714285714285</ele><time>2026-04-08T15:54:53.998Z</time></trkpt><trkpt lat="45.09617262711509" lon="10.035060969801531"><ele>34.14285714285714</ele><time>2026-04-08T15:54:54.998Z</time></trkpt><trkpt lat="45.096100226853366" lon="10.035070378441599"><ele>34.0</ele><time>2026-04-08T15:54:55.998Z</time></trkpt><trkpt lat="45.09602882899067" lon="10.035077596641827"><ele>33.99999999999999</ele><time>2026-04-08T15:54:56.998Z</time></trkpt><trkpt lat="45.09595724604439" lon="10.035084110051708"><ele>34.0</ele><time>2026-04-08T15:54:57.998Z</time></trkpt><trkpt lat="45.095883572911816" lon="10.035087793107174"><ele>34.0</ele><time>2026-04-08T15:54:58.998Z</time></trkpt><trkpt lat="45.095809121434414" lon="10.035091903198923"><ele>34.0</ele><time>2026-04-08T15:54:59.998Z</time></trkpt><trkpt lat="45.09573549771776" lon="10.035098919181326"><ele>34.0</ele><time>2026-04-08T15:55:00.998Z</time></trkpt><trkpt lat="45.095663040021286" lon="10.035102860260334"><ele>33.99999999999999</ele><time>2026-04-08T15:55:01.998Z</time></trkpt><trkpt lat="45.09558884181963" lon="10.03510954596161"><ele>34.0</ele><time>2026-04-08T15:55:02.998Z</time></trkpt><trkpt lat="45.095513884406316" lon="10.035119672666985"><ele>33.99999999999999</ele><time>2026-04-08T15:55:03.998Z</time></trkpt><trkpt lat="45.09544134401048" lon="10.035122048022364"><ele>34.0</ele><time>2026-04-08T15:55:04.998Z</time></trkpt><trkpt lat="45.095367524845074" lon="10.03512618217822"><ele>34.0</ele><time>2026-04-08T15:55:05.998Z</time></trkpt><trkpt lat="45.09529282737501" lon="10.035129530721445"><ele>34.0</ele><time>2026-04-08T15:55:06.998Z</time></trkpt><trkpt lat="45.09521755417486" lon="10.03513064866222"><ele>34.0</ele><time>2026-04-08T15:55:07.998Z</time></trkpt><trkpt lat="45.09514427497044" lon="10.035133759569336"><ele>33.99999999999999</ele><time>2026-04-08T15:55:08.998Z</time></trkpt><trkpt lat="45.09507094655808" lon="10.035141974753794"><ele>34.0</ele><time>2026-04-08T15:55:09.998Z</time></trkpt><trkpt lat="45.09499752379528" lon="10.035147208498929"><ele>33.99999999999999</ele><time>2026-04-08T15:55:10.998Z</time></trkpt><trkpt lat="45.094922879923054" lon="10.035152963245476"><ele>34.0</ele><time>2026-04-08T15:55:12Z</time></trkpt><trkpt lat="45.09484894425724" lon="10.035155887772822"><ele>34.0</ele><time>2026-04-08T15:55:13Z</time></trkpt><trkpt lat="45.09477515597084" lon="10.035156808825334"><ele>34.0</ele><time>2026-04-08T15:55:14Z</time></trkpt><trkpt lat="45.09470004045355" lon="10.035153953902924"><ele>34.0</ele><time>2026-04-08T15:55:15Z</time></trkpt><trkpt lat="45.094624905315946" lon="10.035151134959115"><ele>33.99999999999999</ele><time>2026-04-08T15:55:16Z</time></trkpt><trkpt lat="45.09454980105123" lon="10.035145929561729"><ele>34.0</ele><time>2026-04-08T15:55:17Z</time></trkpt><trkpt lat="45.09447664480952" lon="10.035137153582493"><ele>33.857142857142854</ele><time>2026-04-08T15:55:18Z</time></trkpt><trkpt lat="45.094402599478784" lon="10.035123367937267"><ele>33.714285714285715</ele><time>2026-04-08T15:55:19Z</time></trkpt><trkpt lat="45.094329456192256" lon="10.035106854746045"><ele>33.57142857142857</ele><time>2026-04-08T15:55:20Z</time></trkpt><trkpt lat="45.09425597920496" lon="10.035090703584137"><ele>33.42857142857143</ele><time>2026-04-08T15:55:21Z</time></trkpt><trkpt lat="45.09418295517413" lon="10.035074443037404"><ele>33.285714285714285</ele><time>2026-04-08T15:55:22Z</time></trkpt><trkpt lat="45.09410930572777" lon="10.03505631854543"><ele>33.14285714285714</ele><time>2026-04-08T15:55:23Z</time></trkpt><trkpt lat="45.09403517062636" lon="10.035038008645943"><ele>33.0</ele><time>2026-04-08T15:55:24Z</time></trkpt><trkpt lat="45.093962565655524" lon="10.03501796583861"><ele>33.0</ele><time>2026-04-08T15:55:25Z</time></trkpt><trkpt lat="45.0938893778329" lon="10.034999459963098"><ele>33.0</ele><time>2026-04-08T15:55:26Z</time></trkpt><trkpt lat="45.093815835739164" lon="10.03497994179193"><ele>33.0</ele><time>2026-04-08T15:55:27Z</time></trkpt><trkpt lat="45.09374151272221" lon="10.034964615751186"><ele>33.0</ele><time>2026-04-08T15:55:28Z</time></trkpt><trkpt lat="45.09366755188931" lon="10.034949380587408"><ele>33.0</ele><time>2026-04-08T15:55:29Z</time></trkpt><trkpt lat="45.093592740805875" lon="10.03493817834579"><ele>33.0</ele><time>2026-04-08T15:55:30Z</time></trkpt><trkpt lat="45.09351788041673" lon="10.034928195688062"><ele>33.0</ele><time>2026-04-08T15:55:31Z</time></trkpt><trkpt lat="45.09344188758316" lon="10.03492423716896"><ele>33.14285714285714</ele><time>2026-04-08T15:55:32Z</time></trkpt><trkpt lat="45.09336746729405" lon="10.034926662517911"><ele>33.285714285714285</ele><time>2026-04-08T15:55:33Z</time></trkpt><trkpt lat="45.09329214250113" lon="10.034929575763345"><ele>33.42857142857143</ele><time>2026-04-08T15:55:34Z</time></trkpt><trkpt lat="45.09321771693666" lon="10.034931960813577"><ele>33.57142857142857</ele><time>2026-04-08T15:55:35Z</time></trkpt><trkpt lat="45.0931425413863" lon="10.03493698471106"><ele>33.714285714285715</ele><time>2026-04-08T15:55:36Z</time></trkpt><trkpt lat="45.09306825663018" lon="10.034940694721907"><ele>33.857142857142854</ele><time>2026-04-08T15:55:37Z</time></trkpt><trkpt lat="45.09299407625645" lon="10.034946232447451"><ele>34.0</ele><time>2026-04-08T15:55:38Z</time></trkpt><trkpt lat="45.09292019633954" lon="10.0349479017996"><ele>34.333333333333336</ele><time>2026-04-08T15:55:38.999Z</time></trkpt><trkpt lat="45.09284332166642" lon="10.034951364135418"><ele>34.66666666666667</ele><time>2026-04-08T15:55:39.999Z</time></trkpt><trkpt lat="45.09276965300858" lon="10.034959340775625"><ele>35.0</ele><time>2026-04-08T15:55:40.999Z</time></trkpt><trkpt lat="45.09269493640535" lon="10.034966948079056"><ele>35.333333333333336</ele><time>2026-04-08T15:55:41.999Z</time></trkpt><trkpt lat="45.092620243761516" lon="10.034977320974559"><ele>35.666666666666664</ele><time>2026-04-08T15:55:42.999Z</time></trkpt><trkpt lat="45.09254585719323" lon="10.034991572516809"><ele>36.0</ele><time>2026-04-08T15:55:43.999Z</time></trkpt><trkpt lat="45.09247207783504" lon="10.035007623719666"><ele>36.00000000000001</ele><time>2026-04-08T15:55:44.999Z</time></trkpt><trkpt lat="45.092399330375585" lon="10.035030713657605"><ele>36.0</ele><time>2026-04-08T15:55:45.999Z</time></trkpt><trkpt lat="45.0923260497042" lon="10.035055804215114"><ele>36.0</ele><time>2026-04-08T15:55:46.999Z</time></trkpt><trkpt lat="45.09225320412791" lon="10.035072409953752"><ele>36.0</ele><time>2026-04-08T15:55:47.999Z</time></trkpt><trkpt lat="45.09217885549365" lon="10.035082239756566"><ele>36.0</ele><time>2026-04-08T15:55:48.999Z</time></trkpt><trkpt lat="45.09210459858608" lon="10.035090411112776"><ele>36.00000000000001</ele><time>2026-04-08T15:55:49.999Z</time></trkpt><trkpt lat="45.092031639466214" lon="10.035104253903654"><ele>36.0</ele><time>2026-04-08T15:55:50.999Z</time></trkpt><trkpt lat="45.091959170524724" lon="10.035127111819394"><ele>36.00000000000001</ele><time>2026-04-08T15:55:51.999Z</time></trkpt><trkpt lat="45.09189002192718" lon="10.03515424411416"><ele>36.0</ele><time>2026-04-08T15:55:52.999Z</time></trkpt><trkpt lat="45.091821596835466" lon="10.035195943285167"><ele>36.0</ele><time>2026-04-08T15:55:53.999Z</time></trkpt><trkpt lat="45.09175688291183" lon="10.035246865597445"><ele>36.0</ele><time>2026-04-08T15:55:54.999Z</time></trkpt><trkpt lat="45.09169495273901" lon="10.035308842156395"><ele>36.0</ele><time>2026-04-08T15:55:55.999Z</time></trkpt><trkpt lat="45.0916405090875" lon="10.03538335124387"><ele>36.00000000000001</ele><time>2026-04-08T15:55:56.999Z</time></trkpt><trkpt lat="45.09159435339414" lon="10.035469456793416"><ele>36.0</ele><time>2026-04-08T15:55:57.999Z</time></trkpt><trkpt lat="45.09155779669475" lon="10.035566186140205"><ele>36.0</ele><time>2026-04-08T15:55:58.999Z</time></trkpt><trkpt lat="45.091528197610565" lon="10.035666394340652"><ele>36.0</ele><time>2026-04-08T15:55:59.999Z</time></trkpt><trkpt lat="45.091505430760066" lon="10.035770370437138"><ele>36.0</ele><time>2026-04-08T15:56:00.999Z</time></trkpt><trkpt lat="45.09148563139259" lon="10.035872648457726"><ele>36.0</ele><time>2026-04-08T15:56:01.999Z</time></trkpt><trkpt lat="45.09146475749948" lon="10.03597509152732"><ele>36.0</ele><time>2026-04-08T15:56:02.999Z</time></trkpt><trkpt lat="45.091440937549066" lon="10.03607660924234"><ele>36.0</ele><time>2026-04-08T15:56:03.999Z</time></trkpt><trkpt lat="45.09141740114643" lon="10.036176365262476"><ele>36.00000000000001</ele><time>2026-04-08T15:56:04.999Z</time></trkpt><trkpt lat="45.09139556492882" lon="10.036276354197472"><ele>36.0</ele><time>2026-04-08T15:56:05.999Z</time></trkpt><trkpt lat="45.0913716618964" lon="10.036375988673269"><ele>36.0</ele><time>2026-04-08T15:56:06.999Z</time></trkpt><trkpt lat="45.09134518677783" lon="10.03647581824496"><ele>36.0</ele><time>2026-04-08T15:56:07.999Z</time></trkpt><trkpt lat="45.09132150473047" lon="10.036576024631202"><ele>36.0</ele><time>2026-04-08T15:56:08.999Z</time></trkpt><trkpt lat="45.09129967665677" lon="10.036675156128783"><ele>36.00000000000001</ele><time>2026-04-08T15:56:09.999Z</time></trkpt><trkpt lat="45.09127778986885" lon="10.036778627043068"><ele>36.0</ele><time>2026-04-08T15:56:10.999Z</time></trkpt><trkpt lat="45.091256803336876" lon="10.036879500662042"><ele>36.142857142857146</ele><time>2026-04-08T15:56:11.999Z</time></trkpt><trkpt lat="45.09123311248678" lon="10.036978479942082"><ele>36.285714285714285</ele><time>2026-04-08T15:56:12.999Z</time></trkpt><trkpt lat="45.09120842306719" lon="10.037077463304255"><ele>36.42857142857143</ele><time>2026-04-08T15:56:13.999Z</time></trkpt><trkpt lat="45.09118414266395" lon="10.037176112966321"><ele>36.57142857142857</ele><time>2026-04-08T15:56:14.999Z</time></trkpt><trkpt lat="45.09116111875757" lon="10.037276028044204"><ele>36.714285714285715</ele><time>2026-04-08T15:56:15.999Z</time></trkpt><trkpt lat="45.09113807378433" lon="10.037376470594623"><ele>36.85714285714286</ele><time>2026-04-08T15:56:16.999Z</time></trkpt><trkpt lat="45.09111583088925" lon="10.037475652189903"><ele>37.0</ele><time>2026-04-08T15:56:17.999Z</time></trkpt><trkpt lat="45.09109346982316" lon="10.037575396641861"><ele>37.142857142857146</ele><time>2026-04-08T15:56:18.999Z</time></trkpt><trkpt lat="45.09107049623194" lon="10.037675998383552"><ele>37.285714285714285</ele><time>2026-04-08T15:56:19.999Z</time></trkpt><trkpt lat="45.091047763120635" lon="10.037775808417518"><ele>37.42857142857143</ele><time>2026-04-08T15:56:20.999Z</time></trkpt><trkpt lat="45.09102178987305" lon="10.037876434947814"><ele>37.57142857142857</ele><time>2026-04-08T15:56:21.999Z</time></trkpt><trkpt lat="45.09099546366253" lon="10.037976172270232"><ele>37.714285714285715</ele><time>2026-04-08T15:56:22.999Z</time></trkpt><trkpt lat="45.09097004092383" lon="10.038074063130116"><ele>37.857142857142854</ele><time>2026-04-08T15:56:23.999Z</time></trkpt><trkpt lat="45.09094539889584" lon="10.038174333793501"><ele>38.0</ele><time>2026-04-08T15:56:24.999Z</time></trkpt><trkpt lat="45.09092057663089" lon="10.038273621592795"><ele>37.857142857142854</ele><time>2026-04-08T15:56:25.999Z</time></trkpt><trkpt lat="45.09089568996072" lon="10.0383731473767"><ele>37.714285714285715</ele><time>2026-04-08T15:56:26.999Z</time></trkpt><trkpt lat="45.09086479558378" lon="10.038470160486597"><ele>37.57142857142857</ele><time>2026-04-08T15:56:27.999Z</time></trkpt><trkpt lat="45.09082908168194" lon="10.03856241188256"><ele>37.42857142857143</ele><time>2026-04-08T15:56:28.999Z</time></trkpt><trkpt lat="45.09078657373186" lon="10.038648446508809"><ele>37.285714285714285</ele><time>2026-04-08T15:56:29.999Z</time></trkpt><trkpt lat="45.09073791581008" lon="10.038730864426691"><ele>37.142857142857146</ele><time>2026-04-08T15:56:30.999Z</time></trkpt><trkpt lat="45.09069336494777" lon="10.038814534032067"><ele>37.0</ele><time>2026-04-08T15:56:31.999Z</time></trkpt><trkpt lat="45.09064837406546" lon="10.038898933806049"><ele>36.714285714285715</ele><time>2026-04-08T15:56:32.999Z</time></trkpt><trkpt lat="45.09060524874219" lon="10.038985297960384"><ele>36.42857142857143</ele><time>2026-04-08T15:56:33.999Z</time></trkpt><trkpt lat="45.09056260889842" lon="10.039070655692065"><ele>36.14285714285714</ele><time>2026-04-08T15:56:34.999Z</time></trkpt><trkpt lat="45.090517050348986" lon="10.039154517578714"><ele>35.85714285714286</ele><time>2026-04-08T15:56:35.999Z</time></trkpt><trkpt lat="45.09047333781766" lon="10.039240526443285"><ele>35.57142857142857</ele><time>2026-04-08T15:56:36.998Z</time></trkpt><trkpt lat="45.09042945691135" lon="10.039327001439627"><ele>35.285714285714285</ele><time>2026-04-08T15:56:37.998Z</time></trkpt><trkpt lat="45.090384831504515" lon="10.039412870921906"><ele>35.0</ele><time>2026-04-08T15:56:38.998Z</time></trkpt><trkpt lat="45.09034028138683" lon="10.039496528185701"><ele>35.0</ele><time>2026-04-08T15:56:39.998Z</time></trkpt><trkpt lat="45.09029541964825" lon="10.03958044009474"><ele>35.0</ele><time>2026-04-08T15:56:40.998Z</time></trkpt><trkpt lat="45.09025089801053" lon="10.039664294744291"><ele>35.0</ele><time>2026-04-08T15:56:41.998Z</time></trkpt><trkpt lat="45.09020812538361" lon="10.039747992558544"><ele>35.0</ele><time>2026-04-08T15:56:42.998Z</time></trkpt><trkpt lat="45.090164480049566" lon="10.039833464957141"><ele>35.0</ele><time>2026-04-08T15:56:43.998Z</time></trkpt><trkpt lat="45.09012016880079" lon="10.039917394637417"><ele>35.0</ele><time>2026-04-08T15:56:44.998Z</time></trkpt><trkpt lat="45.09007653516931" lon="10.040001208653658"><ele>35.0</ele><time>2026-04-08T15:56:45.998Z</time></trkpt><trkpt lat="45.09003351754196" lon="10.040085658198155"><ele>34.714285714285715</ele><time>2026-04-08T15:56:46.998Z</time></trkpt><trkpt lat="45.089993800739684" lon="10.040171619568671"><ele>34.42857142857143</ele><time>2026-04-08T15:56:47.998Z</time></trkpt><trkpt lat="45.089955115964834" lon="10.040261867722064"><ele>34.14285714285714</ele><time>2026-04-08T15:56:48.998Z</time></trkpt><trkpt lat="45.089921018172745" lon="10.040356090120309"><ele>33.85714285714286</ele><time>2026-04-08T15:56:49.998Z</time></trkpt><trkpt lat="45.089895497772915" lon="10.040451628956149"><ele>33.57142857142857</ele><time>2026-04-08T15:56:50.998Z</time></trkpt><trkpt lat="45.08987571534699" lon="10.040554561299087"><ele>33.285714285714285</ele><time>2026-04-08T15:56:51.998Z</time></trkpt><trkpt lat="45.089858411650155" lon="10.040657355059261"><ele>33.0</ele><time>2026-04-08T15:56:52.998Z</time></trkpt><trkpt lat="45.08984003710477" lon="10.040757787684706"><ele>33.14285714285714</ele><time>2026-04-08T15:56:53.998Z</time></trkpt><trkpt lat="45.08981997864151" lon="10.040858305388568"><ele>33.285714285714285</ele><time>2026-04-08T15:56:54.998Z</time></trkpt><trkpt lat="45.08979916792504" lon="10.040959036945491"><ele>33.42857142857143</ele><time>2026-04-08T15:56:55.998Z</time></trkpt><trkpt lat="45.08977463887157" lon="10.04105704074136"><ele>33.57142857142857</ele><time>2026-04-08T15:56:56.998Z</time></trkpt><trkpt lat="45.08974387472288" lon="10.041156329583291"><ele>33.714285714285715</ele><time>2026-04-08T15:56:57.998Z</time></trkpt><trkpt lat="45.08971091867241" lon="10.041250837487318"><ele>33.857142857142854</ele><time>2026-04-08T15:56:58.998Z</time></trkpt><trkpt lat="45.08967732288568" lon="10.041346441009395"><ele>34.0</ele><time>2026-04-08T15:56:59.998Z</time></trkpt><trkpt lat="45.08964265035631" lon="10.041443389508402"><ele>33.99999999999999</ele><time>2026-04-08T15:57:00.998Z</time></trkpt><trkpt lat="45.0896083828135" lon="10.041536397184423"><ele>34.0</ele><time>2026-04-08T15:57:01.998Z</time></trkpt><trkpt lat="45.0895750283671" lon="10.041627949406596"><ele>34.0</ele><time>2026-04-08T15:57:02.998Z</time></trkpt><trkpt lat="45.0895424456523" lon="10.04172343409691"><ele>34.0</ele><time>2026-04-08T15:57:03.998Z</time></trkpt><trkpt lat="45.089509566480096" lon="10.04181678301707"><ele>34.0</ele><time>2026-04-08T15:57:04.998Z</time></trkpt><trkpt lat="45.089474974498934" lon="10.04191054594607"><ele>33.99999999999999</ele><time>2026-04-08T15:57:05.998Z</time></trkpt><trkpt lat="45.08944001210588" lon="10.042003108094487"><ele>34.0</ele><time>2026-04-08T15:57:06.998Z</time></trkpt><trkpt lat="45.08940766608811" lon="10.04209941765232"><ele>34.14285714285714</ele><time>2026-04-08T15:57:07.998Z</time></trkpt><trkpt lat="45.089376402180925" lon="10.04219282332582"><ele>34.285714285714285</ele><time>2026-04-08T15:57:08.998Z</time></trkpt><trkpt lat="45.08934669113537" lon="10.042287424440616"><ele>34.42857142857143</ele><time>2026-04-08T15:57:09.998Z</time></trkpt><trkpt lat="45.08931955329194" lon="10.042382146147313"><ele>34.57142857142857</ele><time>2026-04-08T15:57:10.998Z</time></trkpt><trkpt lat="45.089293078724225" lon="10.042478945591576"><ele>34.714285714285715</ele><time>2026-04-08T15:57:11.998Z</time></trkpt><trkpt lat="45.089253488565674" lon="10.042562086038961"><ele>34.857142857142854</ele><time>2026-04-08T15:57:12.998Z</time></trkpt><trkpt lat="45.08918711654262" lon="10.042607270928642"><ele>35.0</ele><time>2026-04-08T15:57:13.998Z</time></trkpt><trkpt lat="45.08910979689797" lon="10.042591990543954"><ele>35.285714285714285</ele><time>2026-04-08T15:57:14.998Z</time></trkpt><trkpt lat="45.08904630380744" lon="10.042534632740725"><ele>35.57142857142857</ele><time>2026-04-08T15:57:15.998Z</time></trkpt><trkpt lat="45.08899512940274" lon="10.042462464156094"><ele>35.85714285714286</ele><time>2026-04-08T15:57:16.998Z</time></trkpt><trkpt lat="45.088938116201206" lon="10.042393038803416"><ele>36.14285714285714</ele><time>2026-04-08T15:57:18Z</time></trkpt><trkpt lat="45.08887695872368" lon="10.042339275061885"><ele>36.42857142857143</ele><time>2026-04-08T15:57:19Z</time></trkpt><trkpt lat="45.08881183552041" lon="10.0422861279096"><ele>36.714285714285715</ele><time>2026-04-08T15:57:20Z</time></trkpt><trkpt lat="45.08874909508531" lon="10.042230473301228"><ele>37.0</ele><time>2026-04-08T15:57:21Z</time></trkpt><trkpt lat="45.08868635402513" lon="10.04217139909806"><ele>37.0</ele><time>2026-04-08T15:57:22Z</time></trkpt><trkpt lat="45.08862366786681" lon="10.042110922807245"><ele>37.0</ele><time>2026-04-08T15:57:23Z</time></trkpt><trkpt lat="45.08856043106902" lon="10.042054117006492"><ele>37.0</ele><time>2026-04-08T15:57:24Z</time></trkpt><trkpt lat="45.08849686074316" lon="10.04199462731238"><ele>37.0</ele><time>2026-04-08T15:57:25Z</time></trkpt><trkpt lat="45.08843257319417" lon="10.041936630688154"><ele>37.0</ele><time>2026-04-08T15:57:26Z</time></trkpt><trkpt lat="45.08836886592692" lon="10.041879167443867"><ele>37.0</ele><time>2026-04-08T15:57:27Z</time></trkpt><trkpt lat="45.08830418725763" lon="10.041820576526312"><ele>37.0</ele><time>2026-04-08T15:57:28Z</time></trkpt><trkpt lat="45.08823940667165" lon="10.041759960308404"><ele>37.0</ele><time>2026-04-08T15:57:29Z</time></trkpt><trkpt lat="45.08817511287924" lon="10.041703327683868"><ele>37.0</ele><time>2026-04-08T15:57:30Z</time></trkpt><trkpt lat="45.088109185599066" lon="10.041646923529827"><ele>37.0</ele><time>2026-04-08T15:57:31Z</time></trkpt><trkpt lat="45.08804416690228" lon="10.0415894085608"><ele>37.0</ele><time>2026-04-08T15:57:32Z</time></trkpt><trkpt lat="45.08798044667699" lon="10.041531312970545"><ele>37.0</ele><time>2026-04-08T15:57:33Z</time></trkpt><trkpt lat="45.08791461372588" lon="10.04147079953819"><ele>36.833333333333336</ele><time>2026-04-08T15:57:34Z</time></trkpt><trkpt lat="45.08785141727043" lon="10.041411987698488"><ele>36.66666666666667</ele><time>2026-04-08T15:57:35Z</time></trkpt><trkpt lat="45.08778817178899" lon="10.041349974105733"><ele>36.5</ele><time>2026-04-08T15:57:36Z</time></trkpt><trkpt lat="45.087723766857884" lon="10.041293136859927"><ele>36.333333333333336</ele><time>2026-04-08T15:57:37Z</time></trkpt><trkpt lat="45.087659601644674" lon="10.041236506527587"><ele>36.166666666666664</ele><time>2026-04-08T15:57:38Z</time></trkpt><trkpt lat="45.08759256972835" lon="10.041180657427072"><ele>36.0</ele><time>2026-04-08T15:57:39Z</time></trkpt><trkpt lat="45.08752826578434" lon="10.041123220666721"><ele>36.0</ele><time>2026-04-08T15:57:40Z</time></trkpt><trkpt lat="45.08746421213641" lon="10.041062308896926"><ele>36.0</ele><time>2026-04-08T15:57:41Z</time></trkpt><trkpt lat="45.087399574572544" lon="10.041000467679796"><ele>36.0</ele><time>2026-04-08T15:57:41.999Z</time></trkpt><trkpt lat="45.08733361455382" lon="10.04094579873621"><ele>36.0</ele><time>2026-04-08T15:57:42.999Z</time></trkpt><trkpt lat="45.08726280147713" lon="10.04090159930009"><ele>36.0</ele><time>2026-04-08T15:57:43.999Z</time></trkpt><trkpt lat="45.08718656733878" lon="10.040885100120038"><ele>36.0</ele><time>2026-04-08T15:57:44.999Z</time></trkpt><trkpt lat="45.087107963026796" lon="10.04090221490995"><ele>35.833333333333336</ele><time>2026-04-08T15:57:45.999Z</time></trkpt><trkpt lat="45.087035302692286" lon="10.04095596352369"><ele>35.666666666666664</ele><time>2026-04-08T15:57:46.999Z</time></trkpt><trkpt lat="45.086978537748806" lon="10.04103811787568"><ele>35.5</ele><time>2026-04-08T15:57:47.999Z</time></trkpt><trkpt lat="45.08693340224629" lon="10.041130042111378"><ele>35.33333333333333</ele><time>2026-04-08T15:57:48.999Z</time></trkpt><trkpt lat="45.086890727700926" lon="10.041218231724553"><ele>35.166666666666664</ele><time>2026-04-08T15:57:49.999Z</time></trkpt><trkpt lat="45.086844157830406" lon="10.04130218581898"><ele>35.0</ele><time>2026-04-08T15:57:50.999Z</time></trkpt><trkpt lat="45.086797344837635" lon="10.041386122436158"><ele>35.0</ele><time>2026-04-08T15:57:51.999Z</time></trkpt><trkpt lat="45.086751375148964" lon="10.041471185011655"><ele>35.0</ele><time>2026-04-08T15:57:52.999Z</time></trkpt><trkpt lat="45.08670522581637" lon="10.041556232401064"><ele>35.0</ele><time>2026-04-08T15:57:53.999Z</time></trkpt><trkpt lat="45.086659768985854" lon="10.041641454625221"><ele>35.0</ele><time>2026-04-08T15:57:54.999Z</time></trkpt><trkpt lat="45.0866155183447" lon="10.041725451241158"><ele>35.0</ele><time>2026-04-08T15:57:55.999Z</time></trkpt><trkpt lat="45.08657190279059" lon="10.04180981481952"><ele>35.0</ele><time>2026-04-08T15:57:56.999Z</time></trkpt><trkpt lat="45.08651991432551" lon="10.04188091071588"><ele>35.0</ele><time>2026-04-08T15:57:57.999Z</time></trkpt><trkpt lat="45.08645052703417" lon="10.04191210816812"><ele>34.83333333333333</ele><time>2026-04-08T15:57:58.999Z</time></trkpt><trkpt lat="45.08637556991587" lon="10.041872913479393"><ele>34.666666666666664</ele><time>2026-04-08T15:57:59.999Z</time></trkpt><trkpt lat="45.08631853933136" lon="10.041803886947232"><ele>34.5</ele><time>2026-04-08T15:58:00.999Z</time></trkpt><trkpt lat="45.086267578147606" lon="10.041724654264595"><ele>34.333333333333336</ele><time>2026-04-08T15:58:01.999Z</time></trkpt><trkpt lat="45.086214568249325" lon="10.041652823563979"><ele>34.16666666666667</ele><time>2026-04-08T15:58:02.999Z</time></trkpt><trkpt lat="45.08615728613683" lon="10.041584406542894"><ele>34.0</ele><time>2026-04-08T15:58:03.999Z</time></trkpt><trkpt lat="45.08609889237303" lon="10.041516315167666"><ele>34.0</ele><time>2026-04-08T15:58:04.999Z</time></trkpt><trkpt lat="45.08604103704427" lon="10.041447197086109"><ele>34.0</ele><time>2026-04-08T15:58:05.999Z</time></trkpt><trkpt lat="45.085982670610576" lon="10.041378655055285"><ele>34.0</ele><time>2026-04-08T15:58:06.999Z</time></trkpt><trkpt lat="45.08592647855786" lon="10.041309581184608"><ele>34.0</ele><time>2026-04-08T15:58:07.999Z</time></trkpt><trkpt lat="45.085870829540134" lon="10.041240319312465"><ele>34.0</ele><time>2026-04-08T15:58:08.999Z</time></trkpt><trkpt lat="45.08581443522847" lon="10.041170979582551"><ele>34.0</ele><time>2026-04-08T15:58:09.999Z</time></trkpt><trkpt lat="45.085755949220186" lon="10.041101686138514"><ele>34.0</ele><time>2026-04-08T15:58:10.999Z</time></trkpt><trkpt lat="45.085696862694235" lon="10.041034448084934"><ele>34.0</ele><time>2026-04-08T15:58:11.999Z</time></trkpt><trkpt lat="45.08563807326205" lon="10.040968019940095"><ele>34.0</ele><time>2026-04-08T15:58:12.999Z</time></trkpt><trkpt lat="45.08558084939751" lon="10.040900440052942"><ele>34.0</ele><time>2026-04-08T15:58:13.999Z</time></trkpt><trkpt lat="45.08551777358144" lon="10.040838635827445"><ele>34.0</ele><time>2026-04-08T15:58:14.999Z</time></trkpt><trkpt lat="45.08544663186942" lon="10.040805229923619"><ele>34.0</ele><time>2026-04-08T15:58:15.999Z</time></trkpt><trkpt lat="45.08536698441129" lon="10.040821812308575"><ele>34.0</ele><time>2026-04-08T15:58:16.999Z</time></trkpt><trkpt lat="45.08529682196461" lon="10.040887487003356"><ele>34.0</ele><time>2026-04-08T15:58:17.999Z</time></trkpt><trkpt lat="45.08523656001622" lon="10.04095769280611"><ele>34.0</ele><time>2026-04-08T15:58:18.999Z</time></trkpt><trkpt lat="45.08518077210444" lon="10.041027894416759"><ele>34.0</ele><time>2026-04-08T15:58:19.999Z</time></trkpt><trkpt lat="45.085124147579094" lon="10.041097744544407"><ele>34.0</ele><time>2026-04-08T15:58:20.999Z</time></trkpt><trkpt lat="45.085069596146596" lon="10.041167169960914"><ele>34.0</ele><time>2026-04-08T15:58:21.999Z</time></trkpt><trkpt lat="45.08501384414208" lon="10.041233897379989"><ele>34.0</ele><time>2026-04-08T15:58:22.999Z</time></trkpt><trkpt lat="45.08495959945164" lon="10.041303915205466"><ele>34.0</ele><time>2026-04-08T15:58:23.999Z</time></trkpt><trkpt lat="45.08490281048151" lon="10.04137756332685"><ele>34.0</ele><time>2026-04-08T15:58:24.999Z</time></trkpt><trkpt lat="45.084845165933224" lon="10.041465571123942"><ele>34.0</ele><time>2026-04-08T15:58:25.999Z</time></trkpt><trkpt lat="45.08479326843917" lon="10.04152965274184"><ele>34.0</ele><time>2026-04-08T15:58:26.999Z</time></trkpt><trkpt lat="45.08473300147448" lon="10.041588760959156"><ele>34.0</ele><time>2026-04-08T15:58:27.999Z</time></trkpt><trkpt lat="45.084678625352225" lon="10.041657372715544"><ele>33.99999999999999</ele><time>2026-04-08T15:58:28.999Z</time></trkpt><trkpt lat="45.08462306358359" lon="10.041724729236327"><ele>34.0</ele><time>2026-04-08T15:58:29.999Z</time></trkpt><trkpt lat="45.08456745932989" lon="10.041791346335168"><ele>34.0</ele><time>2026-04-08T15:58:30.999Z</time></trkpt><trkpt lat="45.08451367773474" lon="10.041848693238586"><ele>34.0</ele><time>2026-04-08T15:58:31.999Z</time></trkpt><trkpt lat="45.08445731000049" lon="10.04192696970095"><ele>34.0</ele><time>2026-04-08T15:58:32.999Z</time></trkpt><trkpt lat="45.08439688676799" lon="10.041998247094218"><ele>33.99999999999999</ele><time>2026-04-08T15:58:33.999Z</time></trkpt><trkpt lat="45.08433863927407" lon="10.042061626528204"><ele>34.0</ele><time>2026-04-08T15:58:34.999Z</time></trkpt><trkpt lat="45.084281411913956" lon="10.042128430502702"><ele>33.99999999999999</ele><time>2026-04-08T15:58:35.999Z</time></trkpt><trkpt lat="45.084223983416834" lon="10.042196283482365"><ele>34.0</ele><time>2026-04-08T15:58:36.999Z</time></trkpt><trkpt lat="45.084167700413694" lon="10.042265280254082"><ele>34.0</ele><time>2026-04-08T15:58:37.999Z</time></trkpt><trkpt lat="45.084109252386405" lon="10.042330042790047"><ele>34.0</ele><time>2026-04-08T15:58:38.999Z</time></trkpt><trkpt lat="45.08405373893465" lon="10.04239909884327"><ele>34.0</ele><time>2026-04-08T15:58:39.998Z</time></trkpt><trkpt lat="45.083996955555904" lon="10.042466211008348"><ele>33.99999999999999</ele><time>2026-04-08T15:58:40.998Z</time></trkpt><trkpt lat="45.083939056648916" lon="10.042531772461363"><ele>34.0</ele><time>2026-04-08T15:58:41.998Z</time></trkpt><trkpt lat="45.08387999116344" lon="10.042600531955753"><ele>33.66666666666667</ele><time>2026-04-08T15:58:42.998Z</time></trkpt><trkpt lat="45.083823158393386" lon="10.042669341726393"><ele>33.333333333333336</ele><time>2026-04-08T15:58:43.998Z</time></trkpt><trkpt lat="45.083763025796486" lon="10.042735780538647"><ele>33.0</ele><time>2026-04-08T15:58:44.998Z</time></trkpt><trkpt lat="45.083705176887264" lon="10.042804146901839"><ele>32.666666666666664</ele><time>2026-04-08T15:58:45.998Z</time></trkpt><trkpt lat="45.083649272508225" lon="10.042873113657182"><ele>32.33333333333333</ele><time>2026-04-08T15:58:46.998Z</time></trkpt><trkpt lat="45.083592581926794" lon="10.042941249168319"><ele>32.0</ele><time>2026-04-08T15:58:47.998Z</time></trkpt><trkpt lat="45.08353539355112" lon="10.043011285138823"><ele>32.0</ele><time>2026-04-08T15:58:48.998Z</time></trkpt><trkpt lat="45.08347921900493" lon="10.043079332284357"><ele>31.999999999999996</ele><time>2026-04-08T15:58:49.998Z</time></trkpt><trkpt lat="45.08342354571468" lon="10.043146108646344"><ele>32.0</ele><time>2026-04-08T15:58:50.998Z</time></trkpt><trkpt lat="45.08336798304207" lon="10.04321147204009"><ele>32.0</ele><time>2026-04-08T15:58:51.998Z</time></trkpt><trkpt lat="45.08331416393906" lon="10.043276685295861"><ele>31.999999999999996</ele><time>2026-04-08T15:58:52.998Z</time></trkpt><trkpt lat="45.083256308386545" lon="10.043343837883842"><ele>32.0</ele><time>2026-04-08T15:58:53.998Z</time></trkpt><trkpt lat="45.083198821084764" lon="10.043409091453508"><ele>32.0</ele><time>2026-04-08T15:58:54.998Z</time></trkpt><trkpt lat="45.08314349419144" lon="10.043477622273231"><ele>32.14285714285714</ele><time>2026-04-08T15:58:55.998Z</time></trkpt><trkpt lat="45.08308831156446" lon="10.043548830093993"><ele>32.285714285714285</ele><time>2026-04-08T15:58:56.998Z</time></trkpt><trkpt lat="45.08303326452415" lon="10.043618411471238"><ele>32.42857142857143</ele><time>2026-04-08T15:58:57.998Z</time></trkpt><trkpt lat="45.082975416038245" lon="10.043687541720077"><ele>32.57142857142857</ele><time>2026-04-08T15:58:58.998Z</time></trkpt><trkpt lat="45.08291794651701" lon="10.04375742900683"><ele>32.714285714285715</ele><time>2026-04-08T15:58:59.998Z</time></trkpt><trkpt lat="45.082861018111856" lon="10.043826344965462"><ele>32.857142857142854</ele><time>2026-04-08T15:59:00.998Z</time></trkpt><trkpt lat="45.08280442192704" lon="10.043894699444262"><ele>33.0</ele><time>2026-04-08T15:59:01.998Z</time></trkpt><trkpt lat="45.0827497188746" lon="10.043966856954498"><ele>33.0</ele><time>2026-04-08T15:59:02.998Z</time></trkpt><trkpt lat="45.08270476301465" lon="10.044051178411724"><ele>33.0</ele><time>2026-04-08T15:59:03.998Z</time></trkpt><trkpt lat="45.08267255237403" lon="10.044146201418114"><ele>33.0</ele><time>2026-04-08T15:59:04.998Z</time></trkpt><trkpt lat="45.082654177916545" lon="10.0442506607796"><ele>33.0</ele><time>2026-04-08T15:59:05.998Z</time></trkpt><trkpt lat="45.082642648814904" lon="10.044358855342395"><ele>33.0</ele><time>2026-04-08T15:59:06.998Z</time></trkpt><trkpt lat="45.08263204502974" lon="10.044465278775359"><ele>33.0</ele><time>2026-04-08T15:59:07.998Z</time></trkpt><trkpt lat="45.08261816148288" lon="10.044568870165644"><ele>33.0</ele><time>2026-04-08T15:59:08.998Z</time></trkpt><trkpt lat="45.08259566225478" lon="10.04466933805342"><ele>33.0</ele><time>2026-04-08T15:59:09.998Z</time></trkpt><trkpt lat="45.0825646524756" lon="10.04476695413461"><ele>33.0</ele><time>2026-04-08T15:59:10.998Z</time></trkpt><trkpt lat="45.082518218200676" lon="10.044850983608333"><ele>33.0</ele><time>2026-04-08T15:59:11.998Z</time></trkpt><trkpt lat="45.0824577366523" lon="10.044920072505708"><ele>33.0</ele><time>2026-04-08T15:59:12.998Z</time></trkpt><trkpt lat="45.08239346650054" lon="10.044981920265071"><ele>33.0</ele><time>2026-04-08T15:59:13.998Z</time></trkpt><trkpt lat="45.082328436774155" lon="10.045042690511337"><ele>33.166666666666664</ele><time>2026-04-08T15:59:14.998Z</time></trkpt><trkpt lat="45.08226612326746" lon="10.045100721136153"><ele>33.333333333333336</ele><time>2026-04-08T15:59:15.998Z</time></trkpt><trkpt lat="45.082201819111255" lon="10.045158804274907"><ele>33.5</ele><time>2026-04-08T15:59:16.998Z</time></trkpt><trkpt lat="45.08213769248916" lon="10.045214174299828"><ele>33.66666666666667</ele><time>2026-04-08T15:59:17.998Z</time></trkpt><trkpt lat="45.082074836052186" lon="10.045274525447011"><ele>33.833333333333336</ele><time>2026-04-08T15:59:18.998Z</time></trkpt><trkpt lat="45.08201355795143" lon="10.045338916984788"><ele>34.0</ele><time>2026-04-08T15:59:19.998Z</time></trkpt><trkpt lat="45.08195284075365" lon="10.045402345642854"><ele>34.0</ele><time>2026-04-08T15:59:20.998Z</time></trkpt><trkpt lat="45.081890966007066" lon="10.045464062096789"><ele>34.0</ele><time>2026-04-08T15:59:21.998Z</time></trkpt><trkpt lat="45.08182873816815" lon="10.045526309524167"><ele>34.0</ele><time>2026-04-08T15:59:22.998Z</time></trkpt><trkpt lat="45.08176794178857" lon="10.045589169662296"><ele>34.0</ele><time>2026-04-08T15:59:24Z</time></trkpt><trkpt lat="45.081707810929544" lon="10.045652524604744"><ele>34.0</ele><time>2026-04-08T15:59:25Z</time></trkpt><trkpt lat="45.081647211415444" lon="10.045718083966419"><ele>34.0</ele><time>2026-04-08T15:59:26Z</time></trkpt><trkpt lat="45.08158797404448" lon="10.045781126165412"><ele>34.14285714285714</ele><time>2026-04-08T15:59:27Z</time></trkpt><trkpt lat="45.081527418602825" lon="10.045843497763878"><ele>34.285714285714285</ele><time>2026-04-08T15:59:28Z</time></trkpt><trkpt lat="45.08146649857864" lon="10.045903313637758"><ele>34.42857142857143</ele><time>2026-04-08T15:59:29Z</time></trkpt><trkpt lat="45.081405327707834" lon="10.045959390693625"><ele>34.57142857142857</ele><time>2026-04-08T15:59:30Z</time></trkpt><trkpt lat="45.08134146156601" lon="10.04601216832226"><ele>34.714285714285715</ele><time>2026-04-08T15:59:31Z</time></trkpt><trkpt lat="45.08127452487422" lon="10.046057691782899"><ele>34.857142857142854</ele><time>2026-04-08T15:59:32Z</time></trkpt><trkpt lat="45.08120473359048" lon="10.04609554801724"><ele>35.0</ele><time>2026-04-08T15:59:33Z</time></trkpt><trkpt lat="45.081134417013374" lon="10.046127578042384"><ele>35.0</ele><time>2026-04-08T15:59:34Z</time></trkpt><trkpt lat="45.081062892858284" lon="10.046159418293357"><ele>35.0</ele><time>2026-04-08T15:59:35Z</time></trkpt><trkpt lat="45.080991892383736" lon="10.046194284106667"><ele>35.0</ele><time>2026-04-08T15:59:36Z</time></trkpt><trkpt lat="45.08092048413914" lon="10.046233389171277"><ele>35.0</ele><time>2026-04-08T15:59:37Z</time></trkpt><trkpt lat="45.080850319022296" lon="10.046267306106074"><ele>35.0</ele><time>2026-04-08T15:59:38Z</time></trkpt><trkpt lat="45.080778452852556" lon="10.04629955254685"><ele>35.0</ele><time>2026-04-08T15:59:39Z</time></trkpt><trkpt lat="45.080706794487675" lon="10.046331316283654"><ele>34.857142857142854</ele><time>2026-04-08T15:59:40Z</time></trkpt><trkpt lat="45.080636642593426" lon="10.046365910916183"><ele>34.714285714285715</ele><time>2026-04-08T15:59:41Z</time></trkpt><trkpt lat="45.08056702680369" lon="10.046402840670718"><ele>34.57142857142857</ele><time>2026-04-08T15:59:42Z</time></trkpt><trkpt lat="45.08049637683956" lon="10.04643740682808"><ele>34.42857142857143</ele><time>2026-04-08T15:59:43Z</time></trkpt><trkpt lat="45.08042578437381" lon="10.046472810496379"><ele>34.285714285714285</ele><time>2026-04-08T15:59:44Z</time></trkpt><trkpt lat="45.080355180779726" lon="10.046509703248235"><ele>34.14285714285714</ele><time>2026-04-08T15:59:45Z</time></trkpt><trkpt lat="45.080285375445506" lon="10.04654541258037"><ele>34.0</ele><time>2026-04-08T15:59:46Z</time></trkpt><trkpt lat="45.08021531279359" lon="10.046580803529633"><ele>34.0</ele><time>2026-04-08T15:59:46.999Z</time></trkpt><trkpt lat="45.0801447598818" lon="10.04661448135402"><ele>34.0</ele><time>2026-04-08T15:59:47.999Z</time></trkpt><trkpt lat="45.080073569172235" lon="10.046644031022376"><ele>34.0</ele><time>2026-04-08T15:59:48.999Z</time></trkpt><trkpt lat="45.0800014362807" lon="10.046674367532571"><ele>34.0</ele><time>2026-04-08T15:59:49.999Z</time></trkpt><trkpt lat="45.07992988749811" lon="10.046708934840783"><ele>34.0</ele><time>2026-04-08T15:59:50.999Z</time></trkpt><trkpt lat="45.07985766005688" lon="10.046744163653667"><ele>34.0</ele><time>2026-04-08T15:59:51.999Z</time></trkpt><trkpt lat="45.07978555082787" lon="10.046776204740109"><ele>34.16666666666667</ele><time>2026-04-08T15:59:52.999Z</time></trkpt><trkpt lat="45.079714230351286" lon="10.046811184718218"><ele>34.333333333333336</ele><time>2026-04-08T15:59:53.999Z</time></trkpt><trkpt lat="45.07964300347947" lon="10.046848760589787"><ele>34.5</ele><time>2026-04-08T15:59:54.999Z</time></trkpt><trkpt lat="45.07956899247909" lon="10.046876326127045"><ele>34.666666666666664</ele><time>2026-04-08T15:59:55.999Z</time></trkpt><trkpt lat="45.07949299276243" lon="10.046886754509783"><ele>34.83333333333333</ele><time>2026-04-08T15:59:56.999Z</time></trkpt><trkpt lat="45.07941633771415" lon="10.046872042841773"><ele>35.0</ele><time>2026-04-08T15:59:57.999Z</time></trkpt><trkpt lat="45.07934299457605" lon="10.046831374087732"><ele>35.0</ele><time>2026-04-08T15:59:58.999Z</time></trkpt><trkpt lat="45.0792722594394" lon="10.046793664058866"><ele>35.0</ele><time>2026-04-08T15:59:59.999Z</time></trkpt><trkpt lat="45.07920092343028" lon="10.0467593741301"><ele>35.0</ele><time>2026-04-08T16:00:00.999Z</time></trkpt><trkpt lat="45.0791299685915" lon="10.046726140482841"><ele>35.0</ele><time>2026-04-08T16:00:01.999Z</time></trkpt><trkpt lat="45.079056946149436" lon="10.046694731721864"><ele>35.0</ele><time>2026-04-08T16:00:02.999Z</time></trkpt><trkpt lat="45.07898584468071" lon="10.046666993806214"><ele>35.0</ele><time>2026-04-08T16:00:03.999Z</time></trkpt><trkpt lat="45.078912838013146" lon="10.046634128318104"><ele>35.0</ele><time>2026-04-08T16:00:04.999Z</time></trkpt><trkpt lat="45.07884038056176" lon="10.04660194246029"><ele>35.0</ele><time>2026-04-08T16:00:05.999Z</time></trkpt><trkpt lat="45.078768500806156" lon="10.04657011992834"><ele>35.0</ele><time>2026-04-08T16:00:06.999Z</time></trkpt><trkpt lat="45.07869616635909" lon="10.046538235741874"><ele>35.0</ele><time>2026-04-08T16:00:07.999Z</time></trkpt><trkpt lat="45.078623344446584" lon="10.046508270766866"><ele>35.0</ele><time>2026-04-08T16:00:08.999Z</time></trkpt><trkpt lat="45.078550427208874" lon="10.046476962991823"><ele>35.0</ele><time>2026-04-08T16:00:09.999Z</time></trkpt><trkpt lat="45.07847849483935" lon="10.04644492920815"><ele>35.0</ele><time>2026-04-08T16:00:10.999Z</time></trkpt><trkpt lat="45.078406296212805" lon="10.046414374085929"><ele>35.0</ele><time>2026-04-08T16:00:11.999Z</time></trkpt><trkpt lat="45.07833234491862" lon="10.046384872923271"><ele>35.0</ele><time>2026-04-08T16:00:12.999Z</time></trkpt><trkpt lat="45.078260339242554" lon="10.046352805626116"><ele>35.0</ele><time>2026-04-08T16:00:13.999Z</time></trkpt><trkpt lat="45.078190196552505" lon="10.046317288215713"><ele>35.0</ele><time>2026-04-08T16:00:14.999Z</time></trkpt><trkpt lat="45.07811913594096" lon="10.04628264539083"><ele>35.0</ele><time>2026-04-08T16:00:15.999Z</time></trkpt><trkpt lat="45.07804817687884" lon="10.046247811049216"><ele>35.0</ele><time>2026-04-08T16:00:16.999Z</time></trkpt><trkpt lat="45.077978316836884" lon="10.046210116796587"><ele>35.0</ele><time>2026-04-08T16:00:17.999Z</time></trkpt><trkpt lat="45.07790927340205" lon="10.046167254638576"><ele>35.0</ele><time>2026-04-08T16:00:18.999Z</time></trkpt><trkpt lat="45.07784106534946" lon="10.046124024346387"><ele>35.0</ele><time>2026-04-08T16:00:19.999Z</time></trkpt><trkpt lat="45.07777219328228" lon="10.046081449513526"><ele>35.0</ele><time>2026-04-08T16:00:20.999Z</time></trkpt><trkpt lat="45.07770248968383" lon="10.046040090658419"><ele>35.0</ele><time>2026-04-08T16:00:21.999Z</time></trkpt><trkpt lat="45.07763295520079" lon="10.045997396399995"><ele>35.0</ele><time>2026-04-08T16:00:22.999Z</time></trkpt><trkpt lat="45.077563117903274" lon="10.045955580385398"><ele>35.0</ele><time>2026-04-08T16:00:23.999Z</time></trkpt><trkpt lat="45.07749350635337" lon="10.045911070175352"><ele>35.0</ele><time>2026-04-08T16:00:24.999Z</time></trkpt><trkpt lat="45.07742461370095" lon="10.045864481788001"><ele>35.0</ele><time>2026-04-08T16:00:25.999Z</time></trkpt><trkpt lat="45.07735588345708" lon="10.04581986273213"><ele>35.0</ele><time>2026-04-08T16:00:26.999Z</time></trkpt><trkpt lat="45.077286812073794" lon="10.045773563595203"><ele>35.0</ele><time>2026-04-08T16:00:27.999Z</time></trkpt><trkpt lat="45.07722105178342" lon="10.045734021256443"><ele>35.5</ele><time>2026-04-08T16:00:28.999Z</time></trkpt><trkpt lat="45.07715560654345" lon="10.045694492263895"><ele>36.0</ele><time>2026-04-08T16:00:29.999Z</time></trkpt><trkpt lat="45.0770921895679" lon="10.045659372330672"><ele>36.5</ele><time>2026-04-08T16:00:30.999Z</time></trkpt><trkpt lat="45.07702902973264" lon="10.04563572223338"><ele>37.0</ele><time>2026-04-08T16:00:31.999Z</time></trkpt><trkpt lat="45.07693261394496" lon="10.045729588964466"><ele>37.5</ele><time>2026-04-08T16:00:33.999Z</time></trkpt><trkpt lat="45.07691315385886" lon="10.045825473965078"><ele>38.0</ele><time>2026-04-08T16:00:34.999Z</time></trkpt><trkpt lat="45.0768987374217" lon="10.045917812615675"><ele>38.14285714285714</ele><time>2026-04-08T16:00:35.999Z</time></trkpt><trkpt lat="45.07689077570323" lon="10.046010248245844"><ele>38.28571428571429</ele><time>2026-04-08T16:00:36.999Z</time></trkpt><trkpt lat="45.076884310741335" lon="10.046106978460612"><ele>38.42857142857143</ele><time>2026-04-08T16:00:37.999Z</time></trkpt><trkpt lat="45.07687897149876" lon="10.046203239541079"><ele>38.57142857142857</ele><time>2026-04-08T16:00:38.999Z</time></trkpt><trkpt lat="45.07687541892678" lon="10.046301639816477"><ele>38.71428571428571</ele><time>2026-04-08T16:00:39.999Z</time></trkpt><trkpt lat="45.07687036038845" lon="10.046400217345136"><ele>38.85714285714286</ele><time>2026-04-08T16:00:40.999Z</time></trkpt><trkpt lat="45.07686560573327" lon="10.046496052553161"><ele>39.0</ele><time>2026-04-08T16:00:41.999Z</time></trkpt><trkpt lat="45.07686097584713" lon="10.046592366556695"><ele>38.714285714285715</ele><time>2026-04-08T16:00:42.999Z</time></trkpt><trkpt lat="45.076856036759516" lon="10.046690379038763"><ele>38.42857142857142</ele><time>2026-04-08T16:00:43.999Z</time></trkpt><trkpt lat="45.07685387832764" lon="10.046789739600817"><ele>38.14285714285714</ele><time>2026-04-08T16:00:44.998Z</time></trkpt><trkpt lat="45.07685235070372" lon="10.046888867056735"><ele>37.85714285714286</ele><time>2026-04-08T16:00:45.998Z</time></trkpt><trkpt lat="45.0768520955968" lon="10.046988558187891"><ele>37.57142857142857</ele><time>2026-04-08T16:00:46.998Z</time></trkpt><trkpt lat="45.07685088021338" lon="10.047089841099998"><ele>37.285714285714285</ele><time>2026-04-08T16:00:47.998Z</time></trkpt><trkpt lat="45.0768533482531" lon="10.047190073209242"><ele>37.0</ele><time>2026-04-08T16:00:48.998Z</time></trkpt><trkpt lat="45.076855571435715" lon="10.047292315756195"><ele>37.0</ele><time>2026-04-08T16:00:49.998Z</time></trkpt><trkpt lat="45.07686146720705" lon="10.047396004753816"><ele>37.0</ele><time>2026-04-08T16:00:50.998Z</time></trkpt><trkpt lat="45.07686635759246" lon="10.047500421502734"><ele>37.0</ele><time>2026-04-08T16:00:51.998Z</time></trkpt><trkpt lat="45.07686890574165" lon="10.047603623191891"><ele>37.0</ele><time>2026-04-08T16:00:52.998Z</time></trkpt><trkpt lat="45.07686271830391" lon="10.047703638550654"><ele>37.0</ele><time>2026-04-08T16:00:53.998Z</time></trkpt><trkpt lat="45.076846413450895" lon="10.047807230254008"><ele>37.0</ele><time>2026-04-08T16:00:54.998Z</time></trkpt><trkpt lat="45.07682886831162" lon="10.047905922229997"><ele>37.0</ele><time>2026-04-08T16:00:55.998Z</time></trkpt><trkpt lat="45.07681679131974" lon="10.048006229283132"><ele>36.714285714285715</ele><time>2026-04-08T16:00:56.998Z</time></trkpt><trkpt lat="45.07680991655921" lon="10.048110099827415"><ele>36.42857142857143</ele><time>2026-04-08T16:00:57.998Z</time></trkpt><trkpt lat="45.07680595331762" lon="10.048211767048427"><ele>36.14285714285714</ele><time>2026-04-08T16:00:58.998Z</time></trkpt><trkpt lat="45.07679887471345" lon="10.048314104357505"><ele>35.85714285714286</ele><time>2026-04-08T16:00:59.998Z</time></trkpt><trkpt lat="45.07679239554662" lon="10.048418727398714"><ele>35.57142857142857</ele><time>2026-04-08T16:01:00.998Z</time></trkpt><trkpt lat="45.07678934596578" lon="10.048523005696428"><ele>35.285714285714285</ele><time>2026-04-08T16:01:01.998Z</time></trkpt><trkpt lat="45.07678228837162" lon="10.04862870631576"><ele>35.0</ele><time>2026-04-08T16:01:02.998Z</time></trkpt><trkpt lat="45.076772895550704" lon="10.048735040059332"><ele>35.0</ele><time>2026-04-08T16:01:03.998Z</time></trkpt><trkpt lat="45.07676144930513" lon="10.04884032061901"><ele>35.0</ele><time>2026-04-08T16:01:04.998Z</time></trkpt><trkpt lat="45.07674849987468" lon="10.048946240447414"><ele>35.0</ele><time>2026-04-08T16:01:05.998Z</time></trkpt><trkpt lat="45.07673438435014" lon="10.049051796597714"><ele>35.0</ele><time>2026-04-08T16:01:06.998Z</time></trkpt><trkpt lat="45.076718971470946" lon="10.049157164672739"><ele>35.0</ele><time>2026-04-08T16:01:07.998Z</time></trkpt><trkpt lat="45.07670286434257" lon="10.04926070476251"><ele>35.0</ele><time>2026-04-08T16:01:08.998Z</time></trkpt><trkpt lat="45.076685755445304" lon="10.049364013358122"><ele>35.166666666666664</ele><time>2026-04-08T16:01:09.998Z</time></trkpt><trkpt lat="45.07666985605661" lon="10.049467837334173"><ele>35.33333333333333</ele><time>2026-04-08T16:01:10.998Z</time></trkpt><trkpt lat="45.07665329761271" lon="10.049572109910372"><ele>35.5</ele><time>2026-04-08T16:01:11.998Z</time></trkpt><trkpt lat="45.07663661427371" lon="10.049677842059198"><ele>35.666666666666664</ele><time>2026-04-08T16:01:12.998Z</time></trkpt><trkpt lat="45.07661816531549" lon="10.049784377946603"><ele>35.833333333333336</ele><time>2026-04-08T16:01:13.998Z</time></trkpt><trkpt lat="45.07659871084887" lon="10.049891192325166"><ele>36.0</ele><time>2026-04-08T16:01:14.998Z</time></trkpt><trkpt lat="45.076572870847265" lon="10.049997006446622"><ele>35.666666666666664</ele><time>2026-04-08T16:01:15.998Z</time></trkpt><trkpt lat="45.076546346685724" lon="10.050102502136943"><ele>35.333333333333336</ele><time>2026-04-08T16:01:16.998Z</time></trkpt><trkpt lat="45.07651789869259" lon="10.050206619200342"><ele>35.0</ele><time>2026-04-08T16:01:17.998Z</time></trkpt><trkpt lat="45.076487192541585" lon="10.050309131241516"><ele>34.66666666666667</ele><time>2026-04-08T16:01:18.998Z</time></trkpt><trkpt lat="45.07645708586884" lon="10.050408953866603"><ele>34.333333333333336</ele><time>2026-04-08T16:01:19.998Z</time></trkpt><trkpt lat="45.07642753079514" lon="10.050510255025465"><ele>34.0</ele><time>2026-04-08T16:01:20.998Z</time></trkpt><trkpt lat="45.076397501803086" lon="10.050609431646674"><ele>34.0</ele><time>2026-04-08T16:01:21.998Z</time></trkpt><trkpt lat="45.076364290930485" lon="10.050707713516424"><ele>34.0</ele><time>2026-04-08T16:01:22.998Z</time></trkpt><trkpt lat="45.07633031321137" lon="10.050802317258393"><ele>34.0</ele><time>2026-04-08T16:01:23.998Z</time></trkpt><trkpt lat="45.076296555780246" lon="10.050897634271374"><ele>34.0</ele><time>2026-04-08T16:01:24.998Z</time></trkpt><trkpt lat="45.07626695140514" lon="10.050997204903265"><ele>34.0</ele><time>2026-04-08T16:01:25.998Z</time></trkpt><trkpt lat="45.07623861936132" lon="10.051094025349656"><ele>34.0</ele><time>2026-04-08T16:01:26.998Z</time></trkpt><trkpt lat="45.0762106010634" lon="10.051193012233432"><ele>33.99999999999999</ele><time>2026-04-08T16:01:27.998Z</time></trkpt><trkpt lat="45.07618149271188" lon="10.051291920035784"><ele>34.0</ele><time>2026-04-08T16:01:28.998Z</time></trkpt><trkpt lat="45.076153031387555" lon="10.051389525274447"><ele>34.0</ele><time>2026-04-08T16:01:30Z</time></trkpt><trkpt lat="45.07612349358388" lon="10.051486794488671"><ele>34.0</ele><time>2026-04-08T16:01:31Z</time></trkpt><trkpt lat="45.07609352473455" lon="10.051582643941668"><ele>34.0</ele><time>2026-04-08T16:01:32Z</time></trkpt><trkpt lat="45.076064354410825" lon="10.051678787498236"><ele>33.99999999999999</ele><time>2026-04-08T16:01:33Z</time></trkpt><trkpt lat="45.07603882376588" lon="10.051776128715213"><ele>34.0</ele><time>2026-04-08T16:01:34Z</time></trkpt><trkpt lat="45.07601225839888" lon="10.051875039034064"><ele>33.99999999999999</ele><time>2026-04-08T16:01:35Z</time></trkpt><trkpt lat="45.07598202409003" lon="10.051969894685428"><ele>34.0</ele><time>2026-04-08T16:01:36Z</time></trkpt><trkpt lat="45.07595113984524" lon="10.05206392075576"><ele>34.0</ele><time>2026-04-08T16:01:37Z</time></trkpt><trkpt lat="45.075920702453566" lon="10.052157741343692"><ele>34.0</ele><time>2026-04-08T16:01:38Z</time></trkpt><trkpt lat="45.075888911638614" lon="10.052251692679297"><ele>34.0</ele><time>2026-04-08T16:01:39Z</time></trkpt><trkpt lat="45.07585675647672" lon="10.052346607089506"><ele>33.99999999999999</ele><time>2026-04-08T16:01:40Z</time></trkpt><trkpt lat="45.075824718726054" lon="10.052437894342859"><ele>34.0</ele><time>2026-04-08T16:01:41Z</time></trkpt><trkpt lat="45.07579081719861" lon="10.052529724314688"><ele>33.857142857142854</ele><time>2026-04-08T16:01:42Z</time></trkpt><trkpt lat="45.075757861177365" lon="10.052622370681501"><ele>33.714285714285715</ele><time>2026-04-08T16:01:43Z</time></trkpt><trkpt lat="45.07572686076472" lon="10.052716550418527"><ele>33.57142857142857</ele><time>2026-04-08T16:01:44Z</time></trkpt><trkpt lat="45.07569658044508" lon="10.052810406981772"><ele>33.42857142857143</ele><time>2026-04-08T16:01:45Z</time></trkpt><trkpt lat="45.07566781601403" lon="10.052905821221144"><ele>33.285714285714285</ele><time>2026-04-08T16:01:46Z</time></trkpt><trkpt lat="45.07563630885786" lon="10.052996130683253"><ele>33.14285714285714</ele><time>2026-04-08T16:01:47Z</time></trkpt><trkpt lat="45.07560288092504" lon="10.053087495254422"><ele>33.0</ele><time>2026-04-08T16:01:48Z</time></trkpt><trkpt lat="45.075568359146914" lon="10.053176749866434"><ele>33.0</ele><time>2026-04-08T16:01:49Z</time></trkpt><trkpt lat="45.075533869346806" lon="10.053267368995401"><ele>33.0</ele><time>2026-04-08T16:01:50Z</time></trkpt><trkpt lat="45.075498453841114" lon="10.053359144154712"><ele>33.0</ele><time>2026-04-08T16:01:51Z</time></trkpt><trkpt lat="45.0754633517264" lon="10.05345360605132"><ele>33.0</ele><time>2026-04-08T16:01:51.999Z</time></trkpt><trkpt lat="45.0754274039528" lon="10.053548260204042"><ele>33.0</ele><time>2026-04-08T16:01:52.999Z</time></trkpt><trkpt lat="45.075393043371356" lon="10.053643455265945"><ele>33.0</ele><time>2026-04-08T16:01:53.999Z</time></trkpt><trkpt lat="45.07535680025193" lon="10.053736969915928"><ele>33.0</ele><time>2026-04-08T16:01:54.999Z</time></trkpt><trkpt lat="45.0753171600433" lon="10.053831813101734"><ele>33.5</ele><time>2026-04-08T16:01:55.999Z</time></trkpt><trkpt lat="45.07527291060681" lon="10.053920564147374"><ele>34.0</ele><time>2026-04-08T16:01:56.999Z</time></trkpt><trkpt lat="45.07522988728872" lon="10.054009622290339"><ele>34.5</ele><time>2026-04-08T16:01:57.999Z</time></trkpt><trkpt lat="45.07518553956659" lon="10.054097618734957"><ele>35.0</ele><time>2026-04-08T16:01:58.999Z</time></trkpt><trkpt lat="45.0751384629134" lon="10.054180152695482"><ele>35.5</ele><time>2026-04-08T16:01:59.999Z</time></trkpt><trkpt lat="45.07508862492259" lon="10.054259029724085"><ele>36.0</ele><time>2026-04-08T16:02:00.999Z</time></trkpt><trkpt lat="45.07503682576325" lon="10.054337683583624"><ele>36.0</ele><time>2026-04-08T16:02:01.999Z</time></trkpt><trkpt lat="45.074983891343315" lon="10.054414658985415"><ele>36.0</ele><time>2026-04-08T16:02:02.999Z</time></trkpt><trkpt lat="45.0749335186236" lon="10.054490679704099"><ele>36.0</ele><time>2026-04-08T16:02:03.999Z</time></trkpt><trkpt lat="45.07488207355703" lon="10.054568385473626"><ele>36.0</ele><time>2026-04-08T16:02:04.999Z</time></trkpt><trkpt lat="45.07483066694985" lon="10.054645002340761"><ele>36.0</ele><time>2026-04-08T16:02:05.999Z</time></trkpt><trkpt lat="45.07477833247575" lon="10.054720681762548"><ele>36.0</ele><time>2026-04-08T16:02:06.999Z</time></trkpt><trkpt lat="45.07472619274614" lon="10.054798692378958"><ele>35.714285714285715</ele><time>2026-04-08T16:02:07.999Z</time></trkpt><trkpt lat="45.074675740435914" lon="10.054874842417512"><ele>35.42857142857143</ele><time>2026-04-08T16:02:08.999Z</time></trkpt><trkpt lat="45.07462177535606" lon="10.054947069772945"><ele>35.14285714285714</ele><time>2026-04-08T16:02:09.999Z</time></trkpt><trkpt lat="45.07456848214518" lon="10.055022035938293"><ele>34.85714285714286</ele><time>2026-04-08T16:02:10.999Z</time></trkpt><trkpt lat="45.07451569919748" lon="10.055096047468007"><ele>34.57142857142857</ele><time>2026-04-08T16:02:11.999Z</time></trkpt><trkpt lat="45.07446260226882" lon="10.055170398818563"><ele>34.285714285714285</ele><time>2026-04-08T16:02:12.999Z</time></trkpt><trkpt lat="45.074409814540225" lon="10.055244635275173"><ele>34.0</ele><time>2026-04-08T16:02:13.999Z</time></trkpt><trkpt lat="45.074356216620146" lon="10.055318901394578"><ele>33.99999999999999</ele><time>2026-04-08T16:02:14.999Z</time></trkpt><trkpt lat="45.074302239943094" lon="10.05539124187138"><ele>34.0</ele><time>2026-04-08T16:02:15.999Z</time></trkpt><trkpt lat="45.074250403329785" lon="10.055465793071603"><ele>34.0</ele><time>2026-04-08T16:02:16.999Z</time></trkpt><trkpt lat="45.07419731526655" lon="10.05554026264636"><ele>34.0</ele><time>2026-04-08T16:02:17.999Z</time></trkpt><trkpt lat="45.07414353043158" lon="10.055613946402461"><ele>34.0</ele><time>2026-04-08T16:02:18.999Z</time></trkpt><trkpt lat="45.07408966632604" lon="10.055687476974251"><ele>33.99999999999999</ele><time>2026-04-08T16:02:19.999Z</time></trkpt><trkpt lat="45.0740352388343" lon="10.055759349493009"><ele>34.0</ele><time>2026-04-08T16:02:20.999Z</time></trkpt><trkpt lat="45.07397843685186" lon="10.055830157538972"><ele>33.66666666666667</ele><time>2026-04-08T16:02:21.999Z</time></trkpt><trkpt lat="45.07392095026949" lon="10.0558961824005"><ele>33.333333333333336</ele><time>2026-04-08T16:02:22.999Z</time></trkpt><trkpt lat="45.07386278508255" lon="10.055965596872555"><ele>33.0</ele><time>2026-04-08T16:02:23.999Z</time></trkpt><trkpt lat="45.073805829110995" lon="10.056036612835383"><ele>32.666666666666664</ele><time>2026-04-08T16:02:24.999Z</time></trkpt><trkpt lat="45.07374899809775" lon="10.05610477913609"><ele>32.33333333333333</ele><time>2026-04-08T16:02:25.999Z</time></trkpt><trkpt lat="45.07368998475144" lon="10.05616956171754"><ele>32.0</ele><time>2026-04-08T16:02:26.999Z</time></trkpt><trkpt lat="45.07363127724319" lon="10.056236207554658"><ele>31.999999999999996</ele><time>2026-04-08T16:02:27.999Z</time></trkpt><trkpt lat="45.07357319189857" lon="10.056303637424241"><ele>32.0</ele><time>2026-04-08T16:02:28.999Z</time></trkpt><trkpt lat="45.0735158056542" lon="10.056370368306151"><ele>32.0</ele><time>2026-04-08T16:02:29.999Z</time></trkpt><trkpt lat="45.07345719683637" lon="10.056437978759389"><ele>32.0</ele><time>2026-04-08T16:02:30.999Z</time></trkpt><trkpt lat="45.07339802015083" lon="10.056502547336258"><ele>31.999999999999996</ele><time>2026-04-08T16:02:31.999Z</time></trkpt><trkpt lat="45.07333977019052" lon="10.056570044399356"><ele>32.0</ele><time>2026-04-08T16:02:32.999Z</time></trkpt><trkpt lat="45.073278508462614" lon="10.056635447800971"><ele>32.33333333333333</ele><time>2026-04-08T16:02:33.999Z</time></trkpt><trkpt lat="45.07321693797839" lon="10.056698731256546"><ele>32.666666666666664</ele><time>2026-04-08T16:02:34.999Z</time></trkpt><trkpt lat="45.073156593593026" lon="10.056762172706366"><ele>33.0</ele><time>2026-04-08T16:02:35.999Z</time></trkpt><trkpt lat="45.07309670520439" lon="10.056827919622476"><ele>33.333333333333336</ele><time>2026-04-08T16:02:36.999Z</time></trkpt><trkpt lat="45.0730360033999" lon="10.056891876071665"><ele>33.66666666666667</ele><time>2026-04-08T16:02:37.999Z</time></trkpt><trkpt lat="45.07297565606013" lon="10.056956105787634"><ele>34.0</ele><time>2026-04-08T16:02:38.999Z</time></trkpt><trkpt lat="45.07291449293698" lon="10.057019272084547"><ele>34.0</ele><time>2026-04-08T16:02:39.999Z</time></trkpt><trkpt lat="45.072851198724" lon="10.057079859977922"><ele>34.0</ele><time>2026-04-08T16:02:40.999Z</time></trkpt><trkpt lat="45.07278836855461" lon="10.05713977105005"><ele>34.0</ele><time>2026-04-08T16:02:41.999Z</time></trkpt><trkpt lat="45.07272657536075" lon="10.057201965764362"><ele>34.0</ele><time>2026-04-08T16:02:42.999Z</time></trkpt><trkpt lat="45.07266666811855" lon="10.05726417550543"><ele>34.0</ele><time>2026-04-08T16:02:43.999Z</time></trkpt><trkpt lat="45.072605858810014" lon="10.057326349388743"><ele>34.0</ele><time>2026-04-08T16:02:44.999Z</time></trkpt><trkpt lat="45.072544140572504" lon="10.057386641520344"><ele>33.99999999999999</ele><time>2026-04-08T16:02:45.999Z</time></trkpt><trkpt lat="45.07248488906963" lon="10.057449755848252"><ele>34.0</ele><time>2026-04-08T16:02:46.999Z</time></trkpt><trkpt lat="45.07242740518992" lon="10.057515432342386"><ele>34.0</ele><time>2026-04-08T16:02:47.999Z</time></trkpt><trkpt lat="45.07236885451297" lon="10.057580110207608"><ele>34.0</ele><time>2026-04-08T16:02:48.999Z</time></trkpt><trkpt lat="45.072310189020605" lon="10.057641210388125"><ele>34.0</ele><time>2026-04-08T16:02:49.998Z</time></trkpt><trkpt lat="45.072251168360815" lon="10.057704598695361"><ele>33.99999999999999</ele><time>2026-04-08T16:02:50.998Z</time></trkpt><trkpt lat="45.07219526875328" lon="10.057763439116423"><ele>34.0</ele><time>2026-04-08T16:02:51.998Z</time></trkpt><trkpt lat="45.072142183506585" lon="10.057822058203744"><ele>33.99999999999999</ele><time>2026-04-08T16:02:52.998Z</time></trkpt><trkpt lat="45.07209077101724" lon="10.057882818076473"><ele>34.0</ele><time>2026-04-08T16:02:53.998Z</time></trkpt><trkpt lat="45.07203924938663" lon="10.05793706053807"><ele>34.0</ele><time>2026-04-08T16:02:54.998Z</time></trkpt><trkpt lat="45.07197810036443" lon="10.057967367608523"><ele>34.0</ele><time>2026-04-08T16:02:55.998Z</time></trkpt><trkpt lat="45.07191136340301" lon="10.05796280285009"><ele>34.0</ele><time>2026-04-08T16:02:56.998Z</time></trkpt><trkpt lat="45.07184939971065" lon="10.057902430455115"><ele>33.99999999999999</ele><time>2026-04-08T16:02:57.998Z</time></trkpt><trkpt lat="45.07180311081108" lon="10.057815080553654"><ele>34.0</ele><time>2026-04-08T16:02:58.998Z</time></trkpt><trkpt lat="45.07176624927398" lon="10.057720769571821"><ele>33.99999999999999</ele><time>2026-04-08T16:02:59.998Z</time></trkpt><trkpt lat="45.07172826473397" lon="10.05762842494702"><ele>34.0</ele><time>2026-04-08T16:03:00.998Z</time></trkpt><trkpt lat="45.07168711299024" lon="10.057540747173126"><ele>34.0</ele><time>2026-04-08T16:03:01.998Z</time></trkpt><trkpt lat="45.07164318166949" lon="10.05745630128478"><ele>34.0</ele><time>2026-04-08T16:03:02.998Z</time></trkpt><trkpt lat="45.07159859400115" lon="10.057371894642534"><ele>34.0</ele><time>2026-04-08T16:03:03.998Z</time></trkpt><trkpt lat="45.07155515683641" lon="10.057286585358268"><ele>33.99999999999999</ele><time>2026-04-08T16:03:04.998Z</time></trkpt><trkpt lat="45.071512129864814" lon="10.057201648618605"><ele>34.0</ele><time>2026-04-08T16:03:05.998Z</time></trkpt><trkpt lat="45.07146972674371" lon="10.057117732094431"><ele>33.99999999999999</ele><time>2026-04-08T16:03:06.998Z</time></trkpt><trkpt lat="45.07142840073864" lon="10.057035806653733"><ele>34.0</ele><time>2026-04-08T16:03:07.998Z</time></trkpt><trkpt lat="45.07137417077927" lon="10.056973438033292"><ele>34.0</ele><time>2026-04-08T16:03:08.998Z</time></trkpt><trkpt lat="45.07129758456108" lon="10.056976238336153"><ele>34.0</ele><time>2026-04-08T16:03:09.998Z</time></trkpt><trkpt lat="45.07123176800806" lon="10.057038458069844"><ele>34.0</ele><time>2026-04-08T16:03:10.998Z</time></trkpt><trkpt lat="45.071184789440856" lon="10.057123991488993"><ele>33.99999999999999</ele><time>2026-04-08T16:03:11.998Z</time></trkpt><trkpt lat="45.07113911963243" lon="10.057200838933195"><ele>34.0</ele><time>2026-04-08T16:03:12.998Z</time></trkpt><trkpt lat="45.071084435813304" lon="10.057266395637992"><ele>34.0</ele><time>2026-04-08T16:03:13.998Z</time></trkpt><trkpt lat="45.07102596612837" lon="10.057330116003447"><ele>34.0</ele><time>2026-04-08T16:03:14.998Z</time></trkpt><trkpt lat="45.07096797737904" lon="10.057397841047068"><ele>34.0</ele><time>2026-04-08T16:03:15.998Z</time></trkpt><trkpt lat="45.07091076013055" lon="10.057466468602911"><ele>34.0</ele><time>2026-04-08T16:03:16.998Z</time></trkpt><trkpt lat="45.070853314323955" lon="10.057536455342339"><ele>34.0</ele><time>2026-04-08T16:03:17.998Z</time></trkpt><trkpt lat="45.07079556681287" lon="10.057604949842641"><ele>34.0</ele><time>2026-04-08T16:03:18.998Z</time></trkpt><trkpt lat="45.07073398509711" lon="10.057666561202337"><ele>34.0</ele><time>2026-04-08T16:03:19.998Z</time></trkpt><trkpt lat="45.0706696024059" lon="10.057721536339132"><ele>34.0</ele><time>2026-04-08T16:03:20.998Z</time></trkpt><trkpt lat="45.07060367523378" lon="10.05777233294477"><ele>34.0</ele><time>2026-04-08T16:03:21.998Z</time></trkpt><trkpt lat="45.07053678554268" lon="10.057820563625224"><ele>34.0</ele><time>2026-04-08T16:03:22.998Z</time></trkpt><trkpt lat="45.07046947762285" lon="10.057867130996001"><ele>34.0</ele><time>2026-04-08T16:03:23.998Z</time></trkpt><trkpt lat="45.0704031811451" lon="10.057917407717097"><ele>34.0</ele><time>2026-04-08T16:03:24.998Z</time></trkpt><trkpt lat="45.07033833351506" lon="10.057972342763748"><ele>34.0</ele><time>2026-04-08T16:03:25.998Z</time></trkpt><trkpt lat="45.07027406568637" lon="10.058027572514737"><ele>34.0</ele><time>2026-04-08T16:03:26.998Z</time></trkpt><trkpt lat="45.07020804901909" lon="10.058079036327571"><ele>34.0</ele><time>2026-04-08T16:03:27.998Z</time></trkpt><trkpt lat="45.07014140667877" lon="10.058130076956958"><ele>34.0</ele><time>2026-04-08T16:03:28.998Z</time></trkpt><trkpt lat="45.07007418337177" lon="10.058177335860037"><ele>34.0</ele><time>2026-04-08T16:03:29.998Z</time></trkpt><trkpt lat="45.07000725817135" lon="10.058221084091253"><ele>34.0</ele><time>2026-04-08T16:03:30.998Z</time></trkpt><trkpt lat="45.06993927687636" lon="10.058264378988035"><ele>34.14285714285714</ele><time>2026-04-08T16:03:31.998Z</time></trkpt><trkpt lat="45.06987030091376" lon="10.058306755083404"><ele>34.285714285714285</ele><time>2026-04-08T16:03:32.998Z</time></trkpt><trkpt lat="45.06980255976489" lon="10.058345484369575"><ele>34.42857142857143</ele><time>2026-04-08T16:03:33.998Z</time></trkpt><trkpt lat="45.06973281579587" lon="10.058382859668345"><ele>34.57142857142857</ele><time>2026-04-08T16:03:34.998Z</time></trkpt><trkpt lat="45.069662740048294" lon="10.058417632414432"><ele>34.714285714285715</ele><time>2026-04-08T16:03:36Z</time></trkpt><trkpt lat="45.06959392145352" lon="10.058450669291842"><ele>34.857142857142854</ele><time>2026-04-08T16:03:37Z</time></trkpt><trkpt lat="45.0695234677676" lon="10.05848654526346"><ele>35.0</ele><time>2026-04-08T16:03:38Z</time></trkpt><trkpt lat="45.06945493762092" lon="10.058522241006015"><ele>35.0</ele><time>2026-04-08T16:03:39Z</time></trkpt><trkpt lat="45.06938503736705" lon="10.058557974711187"><ele>35.0</ele><time>2026-04-08T16:03:40Z</time></trkpt><trkpt lat="45.069255147790045" lon="10.058446950967252"><ele>35.0</ele><time>2026-04-08T16:03:41Z</time></trkpt><trkpt lat="45.06919555754646" lon="10.058496154779112"><ele>35.0</ele><time>2026-04-08T16:03:42Z</time></trkpt><trkpt lat="45.06913551173699" lon="10.058540444054175"><ele>35.0</ele><time>2026-04-08T16:03:43Z</time></trkpt><trkpt lat="45.06907048672467" lon="10.058584762385102"><ele>35.0</ele><time>2026-04-08T16:03:44Z</time></trkpt><trkpt lat="45.06900738363429" lon="10.058624453326098"><ele>35.285714285714285</ele><time>2026-04-08T16:03:45Z</time></trkpt><trkpt lat="45.06894388408787" lon="10.0586601390854"><ele>35.57142857142857</ele><time>2026-04-08T16:03:46Z</time></trkpt><trkpt lat="45.0688777593079" lon="10.058690364750115"><ele>35.85714285714286</ele><time>2026-04-08T16:03:47Z</time></trkpt><trkpt lat="45.06881580366532" lon="10.058710532204618"><ele>36.14285714285714</ele><time>2026-04-08T16:03:48Z</time></trkpt><trkpt lat="45.068751591619105" lon="10.058725267931104"><ele>36.42857142857143</ele><time>2026-04-08T16:03:49Z</time></trkpt><trkpt lat="45.0686863586818" lon="10.058735093934041"><ele>36.714285714285715</ele><time>2026-04-08T16:03:50Z</time></trkpt><trkpt lat="45.06862054663182" lon="10.058738760742196"><ele>37.0</ele><time>2026-04-08T16:03:51Z</time></trkpt><trkpt lat="45.06855645016013" lon="10.058739051599852"><ele>37.0</ele><time>2026-04-08T16:03:52Z</time></trkpt><trkpt lat="45.06849094831941" lon="10.058737501964503"><ele>37.0</ele><time>2026-04-08T16:03:53Z</time></trkpt><trkpt lat="45.06836734024431" lon="10.058730043789911"><ele>37.0</ele><time>2026-04-08T16:03:55Z</time></trkpt><trkpt lat="45.06825052693294" lon="10.058722533637374"><ele>37.0</ele><time>2026-04-08T16:03:56.999Z</time></trkpt><trkpt lat="45.0681363351658" lon="10.058719608093682"><ele>37.0</ele><time>2026-04-08T16:03:58.999Z</time></trkpt><trkpt lat="45.06802320123229" lon="10.058733497772232"><ele>36.5</ele><time>2026-04-08T16:04:00.999Z</time></trkpt><trkpt lat="45.06796380685108" lon="10.058780626867577"><ele>36.0</ele><time>2026-04-08T16:04:01.999Z</time></trkpt><trkpt lat="45.06792380105435" lon="10.058899303120084"><ele>35.5</ele><time>2026-04-08T16:04:02.999Z</time></trkpt><trkpt lat="45.067945969109644" lon="10.059033480975012"><ele>35.0</ele><time>2026-04-08T16:04:03.999Z</time></trkpt><trkpt lat="45.067946364552235" lon="10.059131009068807"><ele>34.5</ele><time>2026-04-08T16:04:04.999Z</time></trkpt><trkpt lat="45.067944100831795" lon="10.059232831841085"><ele>34.0</ele><time>2026-04-08T16:04:05.999Z</time></trkpt><trkpt lat="45.06793943405552" lon="10.059334461352798"><ele>33.857142857142854</ele><time>2026-04-08T16:04:06.999Z</time></trkpt><trkpt lat="45.067931815865016" lon="10.059438895556779"><ele>33.714285714285715</ele><time>2026-04-08T16:04:07.999Z</time></trkpt><trkpt lat="45.067922495365714" lon="10.05954254620836"><ele>33.57142857142857</ele><time>2026-04-08T16:04:08.999Z</time></trkpt><trkpt lat="45.06791400455317" lon="10.059649165606473"><ele>33.42857142857143</ele><time>2026-04-08T16:04:09.999Z</time></trkpt><trkpt lat="45.06790610571324" lon="10.059755128608693"><ele>33.285714285714285</ele><time>2026-04-08T16:04:10.999Z</time></trkpt><trkpt lat="45.06789981960411" lon="10.059858657203238"><ele>33.14285714285714</ele><time>2026-04-08T16:04:11.999Z</time></trkpt><trkpt lat="45.06789382568435" lon="10.059963080416598"><ele>33.0</ele><time>2026-04-08T16:04:12.999Z</time></trkpt><trkpt lat="45.06788432705117" lon="10.060065324186413"><ele>33.0</ele><time>2026-04-08T16:04:13.999Z</time></trkpt><trkpt lat="45.06787710837475" lon="10.060171257715076"><ele>33.0</ele><time>2026-04-08T16:04:14.999Z</time></trkpt><trkpt lat="45.06785441924613" lon="10.060276699820605"><ele>33.0</ele><time>2026-04-08T16:04:15.999Z</time></trkpt><trkpt lat="45.067846507209794" lon="10.06038334437867"><ele>33.0</ele><time>2026-04-08T16:04:16.999Z</time></trkpt><trkpt lat="45.067838658473214" lon="10.060489135751222"><ele>33.0</ele><time>2026-04-08T16:04:17.999Z</time></trkpt><trkpt lat="45.067830672835" lon="10.06059677237346"><ele>33.0</ele><time>2026-04-08T16:04:18.999Z</time></trkpt><trkpt lat="45.06783850301307" lon="10.060706639560669"><ele>33.0</ele><time>2026-04-08T16:04:19.999Z</time></trkpt><trkpt lat="45.067827552441315" lon="10.060813021309041"><ele>33.0</ele><time>2026-04-08T16:04:20.999Z</time></trkpt><trkpt lat="45.06781914226678" lon="10.060920755632948"><ele>33.0</ele><time>2026-04-08T16:04:21.999Z</time></trkpt><trkpt lat="45.067811053524274" lon="10.061029584863007"><ele>33.0</ele><time>2026-04-08T16:04:22.999Z</time></trkpt><trkpt lat="45.06780433008155" lon="10.061138186689774"><ele>33.0</ele><time>2026-04-08T16:04:23.999Z</time></trkpt><trkpt lat="45.0677953426167" lon="10.061246660733927"><ele>33.0</ele><time>2026-04-08T16:04:24.999Z</time></trkpt><trkpt lat="45.06778815015617" lon="10.061354472137834"><ele>33.0</ele><time>2026-04-08T16:04:25.999Z</time></trkpt><trkpt lat="45.06777866944111" lon="10.061461856471464"><ele>33.0</ele><time>2026-04-08T16:04:26.999Z</time></trkpt><trkpt lat="45.06776969901143" lon="10.061570347415445"><ele>33.0</ele><time>2026-04-08T16:04:27.999Z</time></trkpt><trkpt lat="45.06775980061263" lon="10.061679025041569"><ele>33.0</ele><time>2026-04-08T16:04:28.999Z</time></trkpt><trkpt lat="45.06775048962151" lon="10.061784728884472"><ele>33.0</ele><time>2026-04-08T16:04:29.999Z</time></trkpt><trkpt lat="45.06774121398768" lon="10.061888923923195"><ele>33.0</ele><time>2026-04-08T16:04:30.999Z</time></trkpt><trkpt lat="45.067733109565246" lon="10.061989044354801"><ele>33.0</ele><time>2026-04-08T16:04:31.999Z</time></trkpt><trkpt lat="45.06772316965254" lon="10.062089047206573"><ele>33.0</ele><time>2026-04-08T16:04:32.999Z</time></trkpt><trkpt lat="45.06771111522621" lon="10.062192680889066"><ele>33.0</ele><time>2026-04-08T16:04:33.999Z</time></trkpt><trkpt lat="45.067699515241024" lon="10.062293497719573"><ele>33.0</ele><time>2026-04-08T16:04:34.999Z</time></trkpt><trkpt lat="45.067686568122326" lon="10.062397134709114"><ele>33.0</ele><time>2026-04-08T16:04:35.999Z</time></trkpt><trkpt lat="45.06767358425342" lon="10.062500592936834"><ele>33.0</ele><time>2026-04-08T16:04:36.999Z</time></trkpt><trkpt lat="45.06766348304883" lon="10.062602746646258"><ele>33.0</ele><time>2026-04-08T16:04:37.999Z</time></trkpt><trkpt lat="45.067653568538276" lon="10.062705240347928"><ele>33.0</ele><time>2026-04-08T16:04:38.999Z</time></trkpt><trkpt lat="45.067643283177986" lon="10.062806590311366"><ele>33.0</ele><time>2026-04-08T16:04:39.999Z</time></trkpt><trkpt lat="45.067633029867764" lon="10.0629041244851"><ele>33.0</ele><time>2026-04-08T16:04:40.999Z</time></trkpt><trkpt lat="45.06762169560916" lon="10.063001851187682"><ele>33.0</ele><time>2026-04-08T16:04:41.999Z</time></trkpt><trkpt lat="45.067596370975394" lon="10.063092758448024"><ele>33.0</ele><time>2026-04-08T16:04:42.999Z</time></trkpt><trkpt lat="45.067586420674836" lon="10.063188841660184"><ele>33.0</ele><time>2026-04-08T16:04:43.999Z</time></trkpt><trkpt lat="45.06757783745985" lon="10.063280841655324"><ele>33.0</ele><time>2026-04-08T16:04:44.999Z</time></trkpt><trkpt lat="45.06758420648101" lon="10.063373857131396"><ele>33.199999999999996</ele><time>2026-04-08T16:04:45.999Z</time></trkpt><trkpt lat="45.06756910497193" lon="10.063540988328766"><ele>33.4</ele><time>2026-04-08T16:04:47.999Z</time></trkpt><trkpt lat="45.06755262069985" lon="10.063722663925255"><ele>33.599999999999994</ele><time>2026-04-08T16:04:49.999Z</time></trkpt><trkpt lat="45.06754231230186" lon="10.063822449055625"><ele>33.8</ele><time>2026-04-08T16:04:50.999Z</time></trkpt><trkpt lat="45.06753110954448" lon="10.063926735147605"><ele>34.0</ele><time>2026-04-08T16:04:51.999Z</time></trkpt><trkpt lat="45.067516722807646" lon="10.064033281345719"><ele>34.0</ele><time>2026-04-08T16:04:52.999Z</time></trkpt><trkpt lat="45.0675052127672" lon="10.064140731146727"><ele>34.0</ele><time>2026-04-08T16:04:53.998Z</time></trkpt><trkpt lat="45.06749427737498" lon="10.06424762697654"><ele>34.0</ele><time>2026-04-08T16:04:54.998Z</time></trkpt><trkpt lat="45.06748163556365" lon="10.064354928547157"><ele>34.0</ele><time>2026-04-08T16:04:55.998Z</time></trkpt><trkpt lat="45.06747134754745" lon="10.064463563981878"><ele>34.0</ele><time>2026-04-08T16:04:56.998Z</time></trkpt><trkpt lat="45.0674606807869" lon="10.064572292321422"><ele>34.0</ele><time>2026-04-08T16:04:57.998Z</time></trkpt><trkpt lat="45.06745182201767" lon="10.064680143150941"><ele>33.66666666666667</ele><time>2026-04-08T16:04:58.998Z</time></trkpt><trkpt lat="45.06744032076259" lon="10.064787412636138"><ele>33.333333333333336</ele><time>2026-04-08T16:04:59.998Z</time></trkpt><trkpt lat="45.06742983452092" lon="10.064895510727697"><ele>33.0</ele><time>2026-04-08T16:05:00.998Z</time></trkpt><trkpt lat="45.06741742371787" lon="10.065001662025685"><ele>32.666666666666664</ele><time>2026-04-08T16:05:01.998Z</time></trkpt><trkpt lat="45.067408539912975" lon="10.065107283183924"><ele>32.33333333333333</ele><time>2026-04-08T16:05:02.998Z</time></trkpt><trkpt lat="45.06739967485357" lon="10.065214042834116"><ele>32.0</ele><time>2026-04-08T16:05:03.998Z</time></trkpt><trkpt lat="45.06739122806663" lon="10.065318110303531"><ele>32.0</ele><time>2026-04-08T16:05:04.998Z</time></trkpt><trkpt lat="45.067381135618874" lon="10.06542028387833"><ele>31.999999999999996</ele><time>2026-04-08T16:05:05.998Z</time></trkpt><trkpt lat="45.06736942929116" lon="10.0655214536491"><ele>32.0</ele><time>2026-04-08T16:05:06.998Z</time></trkpt><trkpt lat="45.06735828709851" lon="10.06562288504687"><ele>32.0</ele><time>2026-04-08T16:05:07.998Z</time></trkpt><trkpt lat="45.06734660850327" lon="10.065724470579218"><ele>31.999999999999996</ele><time>2026-04-08T16:05:08.998Z</time></trkpt><trkpt lat="45.067336438806855" lon="10.065827264350828"><ele>32.0</ele><time>2026-04-08T16:05:09.998Z</time></trkpt><trkpt lat="45.06732710098867" lon="10.065930728433896"><ele>32.0</ele><time>2026-04-08T16:05:10.998Z</time></trkpt><trkpt lat="45.06731776188876" lon="10.066033584410992"><ele>32.285714285714285</ele><time>2026-04-08T16:05:11.998Z</time></trkpt><trkpt lat="45.06730887830367" lon="10.066135714802577"><ele>32.57142857142857</ele><time>2026-04-08T16:05:12.998Z</time></trkpt><trkpt lat="45.06730026081784" lon="10.066237976410974"><ele>32.857142857142854</ele><time>2026-04-08T16:05:13.998Z</time></trkpt><trkpt lat="45.06729021128189" lon="10.066341670633507"><ele>33.14285714285714</ele><time>2026-04-08T16:05:14.998Z</time></trkpt><trkpt lat="45.067280082306425" lon="10.066446443547854"><ele>33.42857142857143</ele><time>2026-04-08T16:05:15.998Z</time></trkpt><trkpt lat="45.06726896662551" lon="10.066548926675008"><ele>33.71428571428571</ele><time>2026-04-08T16:05:16.998Z</time></trkpt><trkpt lat="45.06725656410552" lon="10.066649142466918"><ele>34.0</ele><time>2026-04-08T16:05:17.998Z</time></trkpt><trkpt lat="45.0672472446572" lon="10.066752396602144"><ele>33.99999999999999</ele><time>2026-04-08T16:05:18.998Z</time></trkpt><trkpt lat="45.06723990601261" lon="10.066853025936476"><ele>34.0</ele><time>2026-04-08T16:05:19.998Z</time></trkpt><trkpt lat="45.067231530027165" lon="10.066953598578417"><ele>34.0</ele><time>2026-04-08T16:05:20.998Z</time></trkpt><trkpt lat="45.06722044065261" lon="10.06705436206976"><ele>34.0</ele><time>2026-04-08T16:05:21.998Z</time></trkpt><trkpt lat="45.06720918493929" lon="10.06715331810593"><ele>34.0</ele><time>2026-04-08T16:05:22.998Z</time></trkpt><trkpt lat="45.0671989332386" lon="10.067255339116198"><ele>33.99999999999999</ele><time>2026-04-08T16:05:23.998Z</time></trkpt><trkpt lat="45.067191421584106" lon="10.067357024689644"><ele>34.0</ele><time>2026-04-08T16:05:24.998Z</time></trkpt><trkpt lat="45.06718229268764" lon="10.067459301091116"><ele>34.285714285714285</ele><time>2026-04-08T16:05:25.998Z</time></trkpt><trkpt lat="45.06716990770046" lon="10.06755842986576"><ele>34.57142857142857</ele><time>2026-04-08T16:05:26.998Z</time></trkpt><trkpt lat="45.067157236882444" lon="10.06765806235601"><ele>34.85714285714286</ele><time>2026-04-08T16:05:27.998Z</time></trkpt><trkpt lat="45.06714663651924" lon="10.06776112821967"><ele>35.14285714285714</ele><time>2026-04-08T16:05:28.998Z</time></trkpt><trkpt lat="45.06713830502601" lon="10.067862397198187"><ele>35.42857142857143</ele><time>2026-04-08T16:05:29.998Z</time></trkpt><trkpt lat="45.06712642006177" lon="10.067964762766819"><ele>35.714285714285715</ele><time>2026-04-08T16:05:30.998Z</time></trkpt><trkpt lat="45.06711792253" lon="10.068065166693989"><ele>36.0</ele><time>2026-04-08T16:05:31.998Z</time></trkpt><trkpt lat="45.06710892576015" lon="10.06816696131262"><ele>36.00000000000001</ele><time>2026-04-08T16:05:32.998Z</time></trkpt><trkpt lat="45.06710074442899" lon="10.068268201438036"><ele>36.0</ele><time>2026-04-08T16:05:33.998Z</time></trkpt><trkpt lat="45.067091243120295" lon="10.068367044169062"><ele>36.0</ele><time>2026-04-08T16:05:34.998Z</time></trkpt><trkpt lat="45.0670758682344" lon="10.068469101451123"><ele>36.0</ele><time>2026-04-08T16:05:35.998Z</time></trkpt><trkpt lat="45.06706439750211" lon="10.06856934832852"><ele>36.0</ele><time>2026-04-08T16:05:36.998Z</time></trkpt><trkpt lat="45.06705340645598" lon="10.068672061568323"><ele>36.00000000000001</ele><time>2026-04-08T16:05:37.998Z</time></trkpt><trkpt lat="45.06704019175353" lon="10.068773486633916"><ele>36.0</ele><time>2026-04-08T16:05:38.998Z</time></trkpt><trkpt lat="45.06702913169063" lon="10.068873707655161"><ele>36.142857142857146</ele><time>2026-04-08T16:05:39.998Z</time></trkpt><trkpt lat="45.067016893244734" lon="10.068976918517187"><ele>36.285714285714285</ele><time>2026-04-08T16:05:40.998Z</time></trkpt><trkpt lat="45.0670048315128" lon="10.069077315895258"><ele>36.42857142857143</ele><time>2026-04-08T16:05:42Z</time></trkpt><trkpt lat="45.06699315091963" lon="10.069178164609292"><ele>36.57142857142857</ele><time>2026-04-08T16:05:43Z</time></trkpt><trkpt lat="45.06698364201249" lon="10.06927992740909"><ele>36.714285714285715</ele><time>2026-04-08T16:05:44Z</time></trkpt><trkpt lat="45.066975527473154" lon="10.069380482837836"><ele>36.85714285714286</ele><time>2026-04-08T16:05:45Z</time></trkpt><trkpt lat="45.06696509570667" lon="10.069482942073867"><ele>37.0</ele><time>2026-04-08T16:05:46Z</time></trkpt><trkpt lat="45.066952200894285" lon="10.069585121654953"><ele>37.0</ele><time>2026-04-08T16:05:47Z</time></trkpt><trkpt lat="45.06693718081999" lon="10.069685702664875"><ele>37.0</ele><time>2026-04-08T16:05:48Z</time></trkpt><trkpt lat="45.066926258056625" lon="10.069789641893117"><ele>37.0</ele><time>2026-04-08T16:05:49Z</time></trkpt><trkpt lat="45.06691426770235" lon="10.069891061196328"><ele>37.0</ele><time>2026-04-08T16:05:50Z</time></trkpt><trkpt lat="45.06690473713106" lon="10.069990733721541"><ele>37.0</ele><time>2026-04-08T16:05:51Z</time></trkpt><trkpt lat="45.06689445016409" lon="10.070090837905065"><ele>37.0</ele><time>2026-04-08T16:05:52Z</time></trkpt><trkpt lat="45.066884016335166" lon="10.070192285975185"><ele>37.0</ele><time>2026-04-08T16:05:53Z</time></trkpt><trkpt lat="45.06687540327599" lon="10.070293459187877"><ele>36.714285714285715</ele><time>2026-04-08T16:05:54Z</time></trkpt><trkpt lat="45.0668639218083" lon="10.070395238959561"><ele>36.42857142857143</ele><time>2026-04-08T16:05:55Z</time></trkpt><trkpt lat="45.066855727581746" lon="10.070496009817436"><ele>36.14285714285714</ele><time>2026-04-08T16:05:56Z</time></trkpt><trkpt lat="45.06684478100683" lon="10.070596314851676"><ele>35.85714285714286</ele><time>2026-04-08T16:05:57Z</time></trkpt><trkpt lat="45.06683281206622" lon="10.07069912278323"><ele>35.57142857142857</ele><time>2026-04-08T16:05:58Z</time></trkpt><trkpt lat="45.066823596186055" lon="10.070800558075193"><ele>35.285714285714285</ele><time>2026-04-08T16:05:59Z</time></trkpt><trkpt lat="45.06681062939679" lon="10.070903311285264"><ele>35.0</ele><time>2026-04-08T16:06:00Z</time></trkpt><trkpt lat="45.066798175824836" lon="10.071004230506226"><ele>34.857142857142854</ele><time>2026-04-08T16:06:00.999Z</time></trkpt><trkpt lat="45.066789265178144" lon="10.071106297219808"><ele>34.714285714285715</ele><time>2026-04-08T16:06:01.999Z</time></trkpt><trkpt lat="45.06677917621036" lon="10.071209543997144"><ele>34.57142857142857</ele><time>2026-04-08T16:06:02.999Z</time></trkpt><trkpt lat="45.06676886112576" lon="10.071308060894124"><ele>34.42857142857143</ele><time>2026-04-08T16:06:03.999Z</time></trkpt><trkpt lat="45.06675791000518" lon="10.071410767052253"><ele>34.285714285714285</ele><time>2026-04-08T16:06:04.999Z</time></trkpt><trkpt lat="45.06674490807887" lon="10.071509841134311"><ele>34.14285714285714</ele><time>2026-04-08T16:06:05.999Z</time></trkpt><trkpt lat="45.06673281358322" lon="10.071610198127356"><ele>34.0</ele><time>2026-04-08T16:06:06.999Z</time></trkpt><trkpt lat="45.066723756131196" lon="10.07171171893895"><ele>33.857142857142854</ele><time>2026-04-08T16:06:07.999Z</time></trkpt><trkpt lat="45.06671753239451" lon="10.0718121644074"><ele>33.714285714285715</ele><time>2026-04-08T16:06:08.999Z</time></trkpt><trkpt lat="45.066708932030835" lon="10.071917083469472"><ele>33.57142857142857</ele><time>2026-04-08T16:06:09.999Z</time></trkpt><trkpt lat="45.066696645275826" lon="10.072015541470574"><ele>33.42857142857143</ele><time>2026-04-08T16:06:10.999Z</time></trkpt><trkpt lat="45.06668326267991" lon="10.072118968905944"><ele>33.285714285714285</ele><time>2026-04-08T16:06:11.999Z</time></trkpt><trkpt lat="45.066673115262105" lon="10.072220583765434"><ele>33.14285714285714</ele><time>2026-04-08T16:06:12.999Z</time></trkpt><trkpt lat="45.06666364943947" lon="10.072325904693749"><ele>33.0</ele><time>2026-04-08T16:06:13.999Z</time></trkpt><trkpt lat="45.06665353699594" lon="10.072427971810285"><ele>33.0</ele><time>2026-04-08T16:06:14.999Z</time></trkpt><trkpt lat="45.066642926412264" lon="10.072531196144222"><ele>33.0</ele><time>2026-04-08T16:06:15.999Z</time></trkpt><trkpt lat="45.06663266706537" lon="10.072634441569788"><ele>33.0</ele><time>2026-04-08T16:06:16.999Z</time></trkpt><trkpt lat="45.066622219667224" lon="10.072738039363776"><ele>33.0</ele><time>2026-04-08T16:06:17.999Z</time></trkpt><trkpt lat="45.06661226529136" lon="10.07284201740816"><ele>33.0</ele><time>2026-04-08T16:06:18.999Z</time></trkpt><trkpt lat="45.06660347300035" lon="10.072947742443375"><ele>33.0</ele><time>2026-04-08T16:06:19.999Z</time></trkpt><trkpt lat="45.0665941247733" lon="10.073050364232504"><ele>33.0</ele><time>2026-04-08T16:06:20.999Z</time></trkpt><trkpt lat="45.06658309804458" lon="10.073155132376197"><ele>32.857142857142854</ele><time>2026-04-08T16:06:21.999Z</time></trkpt><trkpt lat="45.066571001552134" lon="10.073259033744145"><ele>32.714285714285715</ele><time>2026-04-08T16:06:22.999Z</time></trkpt><trkpt lat="45.06656028393185" lon="10.073361643227631"><ele>32.57142857142857</ele><time>2026-04-08T16:06:23.999Z</time></trkpt><trkpt lat="45.066549247356626" lon="10.0734627477671"><ele>32.42857142857143</ele><time>2026-04-08T16:06:24.999Z</time></trkpt><trkpt lat="45.06653859189776" lon="10.073565501392928"><ele>32.285714285714285</ele><time>2026-04-08T16:06:25.999Z</time></trkpt><trkpt lat="45.06652765371879" lon="10.073671301053906"><ele>32.14285714285714</ele><time>2026-04-08T16:06:26.999Z</time></trkpt><trkpt lat="45.06651977648065" lon="10.073770691610216"><ele>32.0</ele><time>2026-04-08T16:06:27.999Z</time></trkpt><trkpt lat="45.06650736127468" lon="10.0738733795729"><ele>32.0</ele><time>2026-04-08T16:06:28.999Z</time></trkpt><trkpt lat="45.06649760677047" lon="10.073976923725668"><ele>31.999999999999996</ele><time>2026-04-08T16:06:29.999Z</time></trkpt><trkpt lat="45.06648856422502" lon="10.074076216196824"><ele>32.0</ele><time>2026-04-08T16:06:30.999Z</time></trkpt><trkpt lat="45.06647672590306" lon="10.074180733918311"><ele>32.0</ele><time>2026-04-08T16:06:31.999Z</time></trkpt><trkpt lat="45.06646648036481" lon="10.074284020928907"><ele>31.999999999999996</ele><time>2026-04-08T16:06:32.999Z</time></trkpt><trkpt lat="45.066455416548244" lon="10.07438630068905"><ele>32.0</ele><time>2026-04-08T16:06:33.999Z</time></trkpt><trkpt lat="45.066444450555366" lon="10.07449154261484"><ele>32.0</ele><time>2026-04-08T16:06:34.999Z</time></trkpt><trkpt lat="45.066433767833786" lon="10.074595307797244"><ele>32.0</ele><time>2026-04-08T16:06:35.999Z</time></trkpt><trkpt lat="45.06642394341406" lon="10.074697401101666"><ele>31.999999999999996</ele><time>2026-04-08T16:06:36.999Z</time></trkpt><trkpt lat="45.06641453894844" lon="10.0748013304807"><ele>32.0</ele><time>2026-04-08T16:06:37.999Z</time></trkpt><trkpt lat="45.06640302847437" lon="10.074902104473862"><ele>32.0</ele><time>2026-04-08T16:06:38.999Z</time></trkpt><trkpt lat="45.066391191013274" lon="10.075005402170863"><ele>31.999999999999996</ele><time>2026-04-08T16:06:39.999Z</time></trkpt><trkpt lat="45.0663821915818" lon="10.075105866128386"><ele>32.0</ele><time>2026-04-08T16:06:40.999Z</time></trkpt><trkpt lat="45.066373860294696" lon="10.075207161569114"><ele>32.0</ele><time>2026-04-08T16:06:41.999Z</time></trkpt><trkpt lat="45.06636407633898" lon="10.075309473620274"><ele>32.0</ele><time>2026-04-08T16:06:42.999Z</time></trkpt><trkpt lat="45.06635492942137" lon="10.075408854924216"><ele>31.999999999999996</ele><time>2026-04-08T16:06:43.999Z</time></trkpt><trkpt lat="45.066343936212824" lon="10.075511508406167"><ele>32.0</ele><time>2026-04-08T16:06:44.999Z</time></trkpt><trkpt lat="45.06633336350719" lon="10.07561087168875"><ele>32.0</ele><time>2026-04-08T16:06:45.999Z</time></trkpt><trkpt lat="45.0663215680296" lon="10.075711876371733"><ele>31.999999999999996</ele><time>2026-04-08T16:06:46.999Z</time></trkpt><trkpt lat="45.066310556328695" lon="10.075812080286003"><ele>32.0</ele><time>2026-04-08T16:06:47.999Z</time></trkpt><trkpt lat="45.066301772787135" lon="10.075912886381825"><ele>32.0</ele><time>2026-04-08T16:06:48.999Z</time></trkpt><trkpt lat="45.06629003233431" lon="10.076013734118046"><ele>31.857142857142854</ele><time>2026-04-08T16:06:49.999Z</time></trkpt><trkpt lat="45.06628076249298" lon="10.076113951082492"><ele>31.71428571428571</ele><time>2026-04-08T16:06:50.999Z</time></trkpt><trkpt lat="45.066269687048" lon="10.076215213778816"><ele>31.57142857142857</ele><time>2026-04-08T16:06:51.999Z</time></trkpt><trkpt lat="45.06625873244901" lon="10.076315779148784"><ele>31.42857142857143</ele><time>2026-04-08T16:06:52.999Z</time></trkpt><trkpt lat="45.06624795002927" lon="10.076416111988365"><ele>31.28571428571429</ele><time>2026-04-08T16:06:53.999Z</time></trkpt><trkpt lat="45.06623735400535" lon="10.076516316419244"><ele>31.142857142857146</ele><time>2026-04-08T16:06:54.999Z</time></trkpt><trkpt lat="45.06622574437413" lon="10.076619519248492"><ele>31.0</ele><time>2026-04-08T16:06:55.999Z</time></trkpt><trkpt lat="45.0662135631194" lon="10.076719088485758"><ele>31.0</ele><time>2026-04-08T16:06:56.998Z</time></trkpt><trkpt lat="45.06620343011799" lon="10.076819476204202"><ele>31.000000000000004</ele><time>2026-04-08T16:06:57.998Z</time></trkpt><trkpt lat="45.06619536983218" lon="10.076919634913638"><ele>31.0</ele><time>2026-04-08T16:06:58.998Z</time></trkpt><trkpt lat="45.06618663124058" lon="10.077020717276593"><ele>31.0</ele><time>2026-04-08T16:06:59.998Z</time></trkpt><trkpt lat="45.066177664648556" lon="10.077116953422848"><ele>31.000000000000004</ele><time>2026-04-08T16:07:00.998Z</time></trkpt><trkpt lat="45.06616691524853" lon="10.077215277895785"><ele>31.0</ele><time>2026-04-08T16:07:01.998Z</time></trkpt><trkpt lat="45.06615720691593" lon="10.077311926401704"><ele>31.0</ele><time>2026-04-08T16:07:02.998Z</time></trkpt><trkpt lat="45.066146891816636" lon="10.077409943399468"><ele>31.0</ele><time>2026-04-08T16:07:03.998Z</time></trkpt><trkpt lat="45.06613665580925" lon="10.077509519850842"><ele>31.000000000000004</ele><time>2026-04-08T16:07:04.998Z</time></trkpt><trkpt lat="45.06612623895285" lon="10.077607954751262"><ele>31.0</ele><time>2026-04-08T16:07:05.998Z</time></trkpt><trkpt lat="45.06611665466709" lon="10.077708329305787"><ele>31.0</ele><time>2026-04-08T16:07:06.998Z</time></trkpt><trkpt lat="45.066104810871366" lon="10.077804378792557"><ele>31.000000000000004</ele><time>2026-04-08T16:07:07.998Z</time></trkpt><trkpt lat="45.06609407333744" lon="10.077904472092628"><ele>31.0</ele><time>2026-04-08T16:07:08.998Z</time></trkpt><trkpt lat="45.06608579864092" lon="10.078001264685016"><ele>31.0</ele><time>2026-04-08T16:07:09.998Z</time></trkpt><trkpt lat="45.066076341810074" lon="10.078100095010122"><ele>31.0</ele><time>2026-04-08T16:07:10.998Z</time></trkpt><trkpt lat="45.066065890792636" lon="10.078198817526543"><ele>31.000000000000004</ele><time>2026-04-08T16:07:11.998Z</time></trkpt><trkpt lat="45.066055398611375" lon="10.078297525416826"><ele>31.0</ele><time>2026-04-08T16:07:12.998Z</time></trkpt><trkpt lat="45.06604445181963" lon="10.078395946076874"><ele>31.0</ele><time>2026-04-08T16:07:13.998Z</time></trkpt><trkpt lat="45.06603319935294" lon="10.078495821414737"><ele>31.000000000000004</ele><time>2026-04-08T16:07:14.998Z</time></trkpt><trkpt lat="45.0660231450067" lon="10.07859390205648"><ele>31.0</ele><time>2026-04-08T16:07:15.998Z</time></trkpt><trkpt lat="45.06601212961065" lon="10.078692378794948"><ele>31.0</ele><time>2026-04-08T16:07:16.998Z</time></trkpt><trkpt lat="45.06600280606824" lon="10.078791934310068"><ele>31.42857142857143</ele><time>2026-04-08T16:07:17.998Z</time></trkpt><trkpt lat="45.065994068789315" lon="10.078888873612664"><ele>31.85714285714286</ele><time>2026-04-08T16:07:18.998Z</time></trkpt><trkpt lat="45.06598315040342" lon="10.078987482431046"><ele>32.285714285714285</ele><time>2026-04-08T16:07:19.998Z</time></trkpt><trkpt lat="45.06597461086864" lon="10.079084066296703"><ele>32.714285714285715</ele><time>2026-04-08T16:07:20.998Z</time></trkpt><trkpt lat="45.065963291880365" lon="10.079179800189248"><ele>33.14285714285714</ele><time>2026-04-08T16:07:21.998Z</time></trkpt><trkpt lat="45.06595380475845" lon="10.079274144869794"><ele>33.57142857142857</ele><time>2026-04-08T16:07:22.998Z</time></trkpt><trkpt lat="45.065946970852664" lon="10.079364807139168"><ele>34.0</ele><time>2026-04-08T16:07:23.998Z</time></trkpt><trkpt lat="45.06593117102136" lon="10.079531506168488"><ele>34.6</ele><time>2026-04-08T16:07:25.998Z</time></trkpt><trkpt lat="45.06592488828926" lon="10.079688033994998"><ele>35.2</ele><time>2026-04-08T16:07:27.998Z</time></trkpt><trkpt lat="45.06591276050801" lon="10.079783417860224"><ele>35.800000000000004</ele><time>2026-04-08T16:07:29.998Z</time></trkpt><trkpt lat="45.06607458270892" lon="10.079815138726675"><ele>36.4</ele><time>2026-04-08T16:07:30.998Z</time></trkpt><trkpt lat="45.06613862743033" lon="10.07981597762413"><ele>37.0</ele><time>2026-04-08T16:07:31.998Z</time></trkpt><trkpt lat="45.06620465170669" lon="10.07981951030291"><ele>37.0</ele><time>2026-04-08T16:07:32.998Z</time></trkpt><trkpt lat="45.06626766095175" lon="10.079826432116644"><ele>37.0</ele><time>2026-04-08T16:07:33.998Z</time></trkpt><trkpt lat="45.066335444720444" lon="10.079829388066619"><ele>37.0</ele><time>2026-04-08T16:07:34.998Z</time></trkpt><trkpt lat="45.066402697337416" lon="10.079832662827533"><ele>37.0</ele><time>2026-04-08T16:07:35.998Z</time></trkpt><trkpt lat="45.06647002212404" lon="10.079835185503317"><ele>37.0</ele><time>2026-04-08T16:07:36.998Z</time></trkpt><trkpt lat="45.06653684854997" lon="10.079839758433035"><ele>37.0</ele><time>2026-04-08T16:07:37.998Z</time></trkpt><trkpt lat="45.06660742235464" lon="10.079846735871895"><ele>37.0</ele><time>2026-04-08T16:07:38.998Z</time></trkpt><trkpt lat="45.06667640885408" lon="10.079848063582851"><ele>37.142857142857146</ele><time>2026-04-08T16:07:39.998Z</time></trkpt><trkpt lat="45.066746783608274" lon="10.079852084895435"><ele>37.285714285714285</ele><time>2026-04-08T16:07:40.998Z</time></trkpt><trkpt lat="45.066817642369955" lon="10.079854733266004"><ele>37.42857142857143</ele><time>2026-04-08T16:07:41.998Z</time></trkpt><trkpt lat="45.06688856456212" lon="10.079857712715716"><ele>37.57142857142857</ele><time>2026-04-08T16:07:42.998Z</time></trkpt><trkpt lat="45.066959900973295" lon="10.079863721955581"><ele>37.714285714285715</ele><time>2026-04-08T16:07:43.998Z</time></trkpt><trkpt lat="45.06703181462014" lon="10.079869603680644"><ele>37.857142857142854</ele><time>2026-04-08T16:07:44.998Z</time></trkpt><trkpt lat="45.067104556147385" lon="10.079872473550548"><ele>38.0</ele><time>2026-04-08T16:07:45.998Z</time></trkpt><trkpt lat="45.06717764654712" lon="10.079875908944954"><ele>38.0</ele><time>2026-04-08T16:07:47Z</time></trkpt><trkpt lat="45.06724980600929" lon="10.079877574853034"><ele>38.0</ele><time>2026-04-08T16:07:48Z</time></trkpt><trkpt lat="45.067323723070245" lon="10.079882730220245"><ele>38.0</ele><time>2026-04-08T16:07:49Z</time></trkpt><trkpt lat="45.06739764839469" lon="10.079881250659094"><ele>38.0</ele><time>2026-04-08T16:07:50Z</time></trkpt><trkpt lat="45.06747223873364" lon="10.079878107884682"><ele>38.0</ele><time>2026-04-08T16:07:51Z</time></trkpt><trkpt lat="45.067547146180125" lon="10.079872325645033"><ele>38.0</ele><time>2026-04-08T16:07:52Z</time></trkpt><trkpt lat="45.0676213636807" lon="10.0798604870256"><ele>38.0</ele><time>2026-04-08T16:07:53Z</time></trkpt><trkpt lat="45.067694446571416" lon="10.079839318253674"><ele>37.83333333333333</ele><time>2026-04-08T16:07:54Z</time></trkpt><trkpt lat="45.067767215606835" lon="10.079810392712483"><ele>37.666666666666664</ele><time>2026-04-08T16:07:55Z</time></trkpt><trkpt lat="45.067838218196165" lon="10.079782180953035"><ele>37.5</ele><time>2026-04-08T16:07:56Z</time></trkpt><trkpt lat="45.06790990723007" lon="10.079761059781603"><ele>37.333333333333336</ele><time>2026-04-08T16:07:57Z</time></trkpt><trkpt lat="45.06798253664475" lon="10.079739701549908"><ele>37.16666666666667</ele><time>2026-04-08T16:07:58Z</time></trkpt><trkpt lat="45.06805860817302" lon="10.079717924725758"><ele>37.0</ele><time>2026-04-08T16:07:59Z</time></trkpt><trkpt lat="45.068132763180486" lon="10.079695602678365"><ele>37.0</ele><time>2026-04-08T16:08:00Z</time></trkpt><trkpt lat="45.06820574958695" lon="10.07967452716452"><ele>37.0</ele><time>2026-04-08T16:08:01Z</time></trkpt><trkpt lat="45.06828060839578" lon="10.079656449676875"><ele>37.0</ele><time>2026-04-08T16:08:02Z</time></trkpt><trkpt lat="45.06835386704482" lon="10.079642010681594"><ele>37.0</ele><time>2026-04-08T16:08:03Z</time></trkpt><trkpt lat="45.06842671439883" lon="10.079637732338066"><ele>37.0</ele><time>2026-04-08T16:08:03.999Z</time></trkpt><trkpt lat="45.068500085355545" lon="10.079634643362652"><ele>37.0</ele><time>2026-04-08T16:08:04.999Z</time></trkpt><trkpt lat="45.068573381769625" lon="10.07963626856534"><ele>37.0</ele><time>2026-04-08T16:08:05.999Z</time></trkpt><trkpt lat="45.068646436415925" lon="10.079639768649754"><ele>37.16666666666667</ele><time>2026-04-08T16:08:06.999Z</time></trkpt><trkpt lat="45.06872005889968" lon="10.07963724205142"><ele>37.333333333333336</ele><time>2026-04-08T16:08:07.999Z</time></trkpt><trkpt lat="45.06879510315377" lon="10.079635460735318"><ele>37.5</ele><time>2026-04-08T16:08:08.999Z</time></trkpt><trkpt lat="45.06886998466555" lon="10.079632867472418"><ele>37.666666666666664</ele><time>2026-04-08T16:08:09.999Z</time></trkpt><trkpt lat="45.06894483551834" lon="10.079634629813581"><ele>37.83333333333333</ele><time>2026-04-08T16:08:10.999Z</time></trkpt><trkpt lat="45.06902143329245" lon="10.079642896385407"><ele>38.0</ele><time>2026-04-08T16:08:11.999Z</time></trkpt><trkpt lat="45.069095705404784" lon="10.079666631373975"><ele>37.666666666666664</ele><time>2026-04-08T16:08:12.999Z</time></trkpt><trkpt lat="45.069164191320006" lon="10.079720963898234"><ele>37.33333333333333</ele><time>2026-04-08T16:08:13.999Z</time></trkpt><trkpt lat="45.06922082106208" lon="10.079797873321217"><ele>37.0</ele><time>2026-04-08T16:08:14.999Z</time></trkpt><trkpt lat="45.069244284351534" lon="10.07990612041992"><ele>36.666666666666664</ele><time>2026-04-08T16:08:15.999Z</time></trkpt><trkpt lat="45.06927641689047" lon="10.079999070351926"><ele>36.333333333333336</ele><time>2026-04-08T16:08:16.999Z</time></trkpt><trkpt lat="45.06932504939525" lon="10.080084944046328"><ele>36.0</ele><time>2026-04-08T16:08:17.999Z</time></trkpt><trkpt lat="45.069354545159065" lon="10.080179517051473"><ele>35.57142857142858</ele><time>2026-04-08T16:08:18.999Z</time></trkpt><trkpt lat="45.0693838691983" lon="10.08027568470829"><ele>35.142857142857146</ele><time>2026-04-08T16:08:19.999Z</time></trkpt><trkpt lat="45.06941651024972" lon="10.080372164746416"><ele>34.714285714285715</ele><time>2026-04-08T16:08:20.999Z</time></trkpt><trkpt lat="45.06944933749763" lon="10.080466029058826"><ele>34.28571428571429</ele><time>2026-04-08T16:08:21.999Z</time></trkpt><trkpt lat="45.06948327391185" lon="10.080562065983008"><ele>33.85714285714286</ele><time>2026-04-08T16:08:22.999Z</time></trkpt><trkpt lat="45.06951580810282" lon="10.080657582091538"><ele>33.42857142857143</ele><time>2026-04-08T16:08:23.999Z</time></trkpt><trkpt lat="45.069550526282775" lon="10.08075141523991"><ele>33.0</ele><time>2026-04-08T16:08:24.999Z</time></trkpt><trkpt lat="45.069568207684114" lon="10.080856001713231"><ele>32.857142857142854</ele><time>2026-04-08T16:08:25.999Z</time></trkpt><trkpt lat="45.06961374308533" lon="10.08094110962631"><ele>32.714285714285715</ele><time>2026-04-08T16:08:26.999Z</time></trkpt><trkpt lat="45.06964456263239" lon="10.081035349518526"><ele>32.57142857142857</ele><time>2026-04-08T16:08:27.999Z</time></trkpt><trkpt lat="45.06967812254307" lon="10.081128466648432"><ele>32.42857142857143</ele><time>2026-04-08T16:08:28.999Z</time></trkpt><trkpt lat="45.069714128360474" lon="10.081218978616155"><ele>32.285714285714285</ele><time>2026-04-08T16:08:29.999Z</time></trkpt><trkpt lat="45.06975272497846" lon="10.081309223245961"><ele>32.14285714285714</ele><time>2026-04-08T16:08:30.999Z</time></trkpt><trkpt lat="45.069793139377545" lon="10.081397704189264"><ele>32.0</ele><time>2026-04-08T16:08:31.999Z</time></trkpt><trkpt lat="45.06983904251701" lon="10.081481583834549"><ele>32.0</ele><time>2026-04-08T16:08:32.999Z</time></trkpt><trkpt lat="45.06988728742645" lon="10.08156019889182"><ele>31.999999999999996</ele><time>2026-04-08T16:08:33.999Z</time></trkpt><trkpt lat="45.06993877239942" lon="10.08163678890973"><ele>32.0</ele><time>2026-04-08T16:08:34.999Z</time></trkpt><trkpt lat="45.069994309412124" lon="10.081706725700396"><ele>32.0</ele><time>2026-04-08T16:08:35.999Z</time></trkpt><trkpt lat="45.07005217396814" lon="10.081774515209066"><ele>31.999999999999996</ele><time>2026-04-08T16:08:36.999Z</time></trkpt><trkpt lat="45.07011199860832" lon="10.081838202814048"><ele>32.0</ele><time>2026-04-08T16:08:37.999Z</time></trkpt><trkpt lat="45.07017601746644" lon="10.081891545531713"><ele>32.0</ele><time>2026-04-08T16:08:38.999Z</time></trkpt><trkpt lat="45.070242172493195" lon="10.081939824233942"><ele>32.166666666666664</ele><time>2026-04-08T16:08:39.999Z</time></trkpt><trkpt lat="45.070307627456664" lon="10.081992142838892"><ele>32.33333333333333</ele><time>2026-04-08T16:08:40.999Z</time></trkpt><trkpt lat="45.07037101284947" lon="10.082045947716752"><ele>32.5</ele><time>2026-04-08T16:08:41.999Z</time></trkpt><trkpt lat="45.070434320798576" lon="10.082103568942914"><ele>32.666666666666664</ele><time>2026-04-08T16:08:42.999Z</time></trkpt><trkpt lat="45.070498125079574" lon="10.082160592238202"><ele>32.833333333333336</ele><time>2026-04-08T16:08:43.999Z</time></trkpt><trkpt lat="45.070563402849565" lon="10.082214506359099"><ele>33.0</ele><time>2026-04-08T16:08:44.999Z</time></trkpt><trkpt lat="45.070629364052834" lon="10.082265057012565"><ele>33.0</ele><time>2026-04-08T16:08:45.999Z</time></trkpt><trkpt lat="45.07069553671815" lon="10.082317191430656"><ele>33.0</ele><time>2026-04-08T16:08:46.999Z</time></trkpt><trkpt lat="45.07075988375233" lon="10.082368910963577"><ele>33.0</ele><time>2026-04-08T16:08:47.999Z</time></trkpt><trkpt lat="45.070825579668735" lon="10.082421223911856"><ele>33.0</ele><time>2026-04-08T16:08:48.999Z</time></trkpt><trkpt lat="45.070891029555014" lon="10.082471628776196"><ele>33.0</ele><time>2026-04-08T16:08:49.999Z</time></trkpt><trkpt lat="45.07095643844431" lon="10.082523307192318"><ele>33.0</ele><time>2026-04-08T16:08:50.999Z</time></trkpt><trkpt lat="45.07102046775259" lon="10.082575968349797"><ele>33.0</ele><time>2026-04-08T16:08:51.999Z</time></trkpt><trkpt lat="45.071083908897386" lon="10.082627789466837"><ele>33.0</ele><time>2026-04-08T16:08:52.999Z</time></trkpt><trkpt lat="45.07114662153761" lon="10.082676519194147"><ele>33.0</ele><time>2026-04-08T16:08:53.999Z</time></trkpt><trkpt lat="45.071207281604714" lon="10.082722115288671"><ele>33.0</ele><time>2026-04-08T16:08:54.999Z</time></trkpt><trkpt lat="45.07126314289906" lon="10.082776694953992"><ele>33.0</ele><time>2026-04-08T16:08:55.999Z</time></trkpt><trkpt lat="45.071300249696826" lon="10.082853003966866"><ele>33.0</ele><time>2026-04-08T16:08:56.999Z</time></trkpt><trkpt lat="45.07130899342151" lon="10.082946431742036"><ele>33.0</ele><time>2026-04-08T16:08:57.999Z</time></trkpt><trkpt lat="45.071260622317425" lon="10.083025903330423"><ele>33.0</ele><time>2026-04-08T16:08:58.999Z</time></trkpt><trkpt lat="45.07124010518101" lon="10.08311618460987"><ele>33.0</ele><time>2026-04-08T16:08:59.998Z</time></trkpt><trkpt lat="45.07123581656817" lon="10.083216128327642"><ele>33.0</ele><time>2026-04-08T16:09:00.998Z</time></trkpt><trkpt lat="45.071213773340666" lon="10.083309245581408"><ele>33.0</ele><time>2026-04-08T16:09:01.998Z</time></trkpt><trkpt lat="45.07119327483575" lon="10.083407995354365"><ele>33.0</ele><time>2026-04-08T16:09:02.998Z</time></trkpt><trkpt lat="45.07117322515042" lon="10.083504276383856"><ele>33.0</ele><time>2026-04-08T16:09:03.998Z</time></trkpt><trkpt lat="45.07115337419553" lon="10.08360417732326"><ele>33.0</ele><time>2026-04-08T16:09:04.998Z</time></trkpt><trkpt lat="45.07113471991029" lon="10.083701614634018"><ele>33.0</ele><time>2026-04-08T16:09:05.998Z</time></trkpt><trkpt lat="45.07111462495658" lon="10.08380050235702"><ele>32.857142857142854</ele><time>2026-04-08T16:09:06.998Z</time></trkpt><trkpt lat="45.071094244076534" lon="10.08389702921664"><ele>32.714285714285715</ele><time>2026-04-08T16:09:07.998Z</time></trkpt><trkpt lat="45.07107477890063" lon="10.083995059657322"><ele>32.57142857142857</ele><time>2026-04-08T16:09:08.998Z</time></trkpt><trkpt lat="45.07105904018027" lon="10.084091770911273"><ele>32.42857142857143</ele><time>2026-04-08T16:09:09.998Z</time></trkpt><trkpt lat="45.071043832276075" lon="10.084192470978998"><ele>32.285714285714285</ele><time>2026-04-08T16:09:10.998Z</time></trkpt><trkpt lat="45.071031048667045" lon="10.084296824160184"><ele>32.14285714285714</ele><time>2026-04-08T16:09:11.998Z</time></trkpt><trkpt lat="45.07101963370714" lon="10.084401295307442"><ele>32.0</ele><time>2026-04-08T16:09:12.998Z</time></trkpt><trkpt lat="45.07101059146943" lon="10.084505911578791"><ele>32.0</ele><time>2026-04-08T16:09:13.998Z</time></trkpt><trkpt lat="45.07100265127326" lon="10.084609277604116"><ele>31.999999999999996</ele><time>2026-04-08T16:09:14.998Z</time></trkpt><trkpt lat="45.07099518358529" lon="10.08471142204147"><ele>32.0</ele><time>2026-04-08T16:09:15.998Z</time></trkpt><trkpt lat="45.07098710054695" lon="10.084814639748702"><ele>32.0</ele><time>2026-04-08T16:09:16.998Z</time></trkpt><trkpt lat="45.07097952808919" lon="10.084917190148527"><ele>31.999999999999996</ele><time>2026-04-08T16:09:17.998Z</time></trkpt><trkpt lat="45.07097105777614" lon="10.085017171556075"><ele>32.0</ele><time>2026-04-08T16:09:18.998Z</time></trkpt><trkpt lat="45.07096311217012" lon="10.085120586494279"><ele>32.0</ele><time>2026-04-08T16:09:19.998Z</time></trkpt><trkpt lat="45.070956756782955" lon="10.085223988602028"><ele>32.14285714285714</ele><time>2026-04-08T16:09:20.998Z</time></trkpt><trkpt lat="45.070952195967074" lon="10.085327156238673"><ele>32.285714285714285</ele><time>2026-04-08T16:09:21.998Z</time></trkpt><trkpt lat="45.0709500284108" lon="10.085431223271272"><ele>32.42857142857143</ele><time>2026-04-08T16:09:22.998Z</time></trkpt><trkpt lat="45.070946277938134" lon="10.085533948778009"><ele>32.57142857142857</ele><time>2026-04-08T16:09:23.998Z</time></trkpt><trkpt lat="45.0709417387028" lon="10.085636570543544"><ele>32.714285714285715</ele><time>2026-04-08T16:09:24.998Z</time></trkpt><trkpt lat="45.070937212787854" lon="10.085738349325691"><ele>32.857142857142854</ele><time>2026-04-08T16:09:25.998Z</time></trkpt><trkpt lat="45.07093215127628" lon="10.085842145615839"><ele>33.0</ele><time>2026-04-08T16:09:26.998Z</time></trkpt><trkpt lat="45.07092937212573" lon="10.085946008350794"><ele>33.0</ele><time>2026-04-08T16:09:27.998Z</time></trkpt><trkpt lat="45.07092686227227" lon="10.08605123841773"><ele>33.0</ele><time>2026-04-08T16:09:28.998Z</time></trkpt><trkpt lat="45.07092375701038" lon="10.086157743565972"><ele>33.0</ele><time>2026-04-08T16:09:29.998Z</time></trkpt><trkpt lat="45.07092136946194" lon="10.086262773663156"><ele>33.0</ele><time>2026-04-08T16:09:30.998Z</time></trkpt><trkpt lat="45.07091746233408" lon="10.086366075473672"><ele>33.0</ele><time>2026-04-08T16:09:31.998Z</time></trkpt><trkpt lat="45.07091313286471" lon="10.086470192662963"><ele>33.0</ele><time>2026-04-08T16:09:32.998Z</time></trkpt><trkpt lat="45.07090936156254" lon="10.086573841095104"><ele>33.0</ele><time>2026-04-08T16:09:33.998Z</time></trkpt><trkpt lat="45.07090312872845" lon="10.086673890858583"><ele>33.0</ele><time>2026-04-08T16:09:34.998Z</time></trkpt><trkpt lat="45.07089670130467" lon="10.086769107085113"><ele>33.0</ele><time>2026-04-08T16:09:35.998Z</time></trkpt><trkpt lat="45.07089004016139" lon="10.086862434711248"><ele>33.0</ele><time>2026-04-08T16:09:36.998Z</time></trkpt><trkpt lat="45.07088492756966" lon="10.08695192882251"><ele>33.0</ele><time>2026-04-08T16:09:37.998Z</time></trkpt><trkpt lat="45.07087242778829" lon="10.087125312707235"><ele>33.0</ele><time>2026-04-08T16:09:39.998Z</time></trkpt><trkpt lat="45.07085332805908" lon="10.087288187016705"><ele>33.0</ele><time>2026-04-08T16:09:41.998Z</time></trkpt><trkpt lat="45.07083183601713" lon="10.087460977818514"><ele>33.0</ele><time>2026-04-08T16:09:43.998Z</time></trkpt><trkpt lat="45.070823962334295" lon="10.087551988257516"><ele>33.0</ele><time>2026-04-08T16:09:44.998Z</time></trkpt><trkpt lat="45.070815329810735" lon="10.087648172061591"><ele>33.0</ele><time>2026-04-08T16:09:45.998Z</time></trkpt><trkpt lat="45.0708059938984" lon="10.087748679220267"><ele>33.0</ele><time>2026-04-08T16:09:46.998Z</time></trkpt><trkpt lat="45.07079305354986" lon="10.087844765615777"><ele>33.0</ele><time>2026-04-08T16:09:47.998Z</time></trkpt><trkpt lat="45.07077686783804" lon="10.087939632027567"><ele>33.0</ele><time>2026-04-08T16:09:48.998Z</time></trkpt><trkpt lat="45.070759546425265" lon="10.088034788174198"><ele>33.0</ele><time>2026-04-08T16:09:49.998Z</time></trkpt><trkpt lat="45.07074303137567" lon="10.088133766191273"><ele>33.14285714285714</ele><time>2026-04-08T16:09:50.998Z</time></trkpt><trkpt lat="45.07073098308947" lon="10.08823229232215"><ele>33.285714285714285</ele><time>2026-04-08T16:09:51.998Z</time></trkpt><trkpt lat="45.07071839008353" lon="10.088331881786084"><ele>33.42857142857143</ele><time>2026-04-08T16:09:53Z</time></trkpt><trkpt lat="45.070703496027086" lon="10.088428568468547"><ele>33.57142857142857</ele><time>2026-04-08T16:09:54Z</time></trkpt><trkpt lat="45.07068743011611" lon="10.088525597457119"><ele>33.714285714285715</ele><time>2026-04-08T16:09:55Z</time></trkpt><trkpt lat="45.07067151229371" lon="10.088620307643431"><ele>33.857142857142854</ele><time>2026-04-08T16:09:56Z</time></trkpt><trkpt lat="45.070655371722275" lon="10.088716581605045"><ele>34.0</ele><time>2026-04-08T16:09:57Z</time></trkpt><trkpt lat="45.07063427755544" lon="10.088809877381198"><ele>33.99999999999999</ele><time>2026-04-08T16:09:58Z</time></trkpt><trkpt lat="45.07061330882807" lon="10.08890220457169"><ele>34.0</ele><time>2026-04-08T16:09:59Z</time></trkpt><trkpt lat="45.07059283014372" lon="10.088998681613985"><ele>34.0</ele><time>2026-04-08T16:10:00Z</time></trkpt><trkpt lat="45.07057214233962" lon="10.089094271515977"><ele>34.0</ele><time>2026-04-08T16:10:01Z</time></trkpt><trkpt lat="45.07055169540276" lon="10.089187472625776"><ele>34.0</ele><time>2026-04-08T16:10:02Z</time></trkpt><trkpt lat="45.07052869568179" lon="10.089281853792786"><ele>33.99999999999999</ele><time>2026-04-08T16:10:03Z</time></trkpt><trkpt lat="45.07050494853925" lon="10.089377103991382"><ele>34.0</ele><time>2026-04-08T16:10:04Z</time></trkpt><trkpt lat="45.07048008236414" lon="10.089470763334853"><ele>33.857142857142854</ele><time>2026-04-08T16:10:05Z</time></trkpt><trkpt lat="45.07045617146616" lon="10.089564530461038"><ele>33.714285714285715</ele><time>2026-04-08T16:10:06Z</time></trkpt><trkpt lat="45.070432510854815" lon="10.089658167978735"><ele>33.57142857142857</ele><time>2026-04-08T16:10:07Z</time></trkpt><trkpt lat="45.07040835628549" lon="10.089753317635413"><ele>33.42857142857143</ele><time>2026-04-08T16:10:08Z</time></trkpt><trkpt lat="45.07038358049443" lon="10.089849889929235"><ele>33.285714285714285</ele><time>2026-04-08T16:10:09Z</time></trkpt><trkpt lat="45.07036113050539" lon="10.089948608391772"><ele>33.14285714285714</ele><time>2026-04-08T16:10:09.999Z</time></trkpt><trkpt lat="45.0703392954737" lon="10.090044179920664"><ele>33.0</ele><time>2026-04-08T16:10:10.999Z</time></trkpt><trkpt lat="45.07031699668483" lon="10.090141025061595"><ele>33.0</ele><time>2026-04-08T16:10:11.999Z</time></trkpt><trkpt lat="45.07029364139018" lon="10.090237225930444"><ele>33.0</ele><time>2026-04-08T16:10:12.999Z</time></trkpt><trkpt lat="45.07026891688202" lon="10.090331714211073"><ele>33.0</ele><time>2026-04-08T16:10:13.999Z</time></trkpt><trkpt lat="45.07024470877037" lon="10.09042606261256"><ele>33.0</ele><time>2026-04-08T16:10:14.999Z</time></trkpt><trkpt lat="45.07022263415491" lon="10.09052062002599"><ele>33.0</ele><time>2026-04-08T16:10:15.999Z</time></trkpt><trkpt lat="45.070201604377644" lon="10.090614766654332"><ele>33.0</ele><time>2026-04-08T16:10:16.999Z</time></trkpt><trkpt lat="45.07017999001881" lon="10.090712112617313"><ele>33.0</ele><time>2026-04-08T16:10:17.999Z</time></trkpt><trkpt lat="45.07015754839856" lon="10.090807664870065"><ele>33.0</ele><time>2026-04-08T16:10:18.999Z</time></trkpt><trkpt lat="45.07013430081141" lon="10.090904920001394"><ele>33.0</ele><time>2026-04-08T16:10:19.999Z</time></trkpt><trkpt lat="45.070110053990156" lon="10.090999981950052"><ele>33.0</ele><time>2026-04-08T16:10:20.999Z</time></trkpt><trkpt lat="45.070085366438626" lon="10.091098951849009"><ele>33.0</ele><time>2026-04-08T16:10:21.999Z</time></trkpt><trkpt lat="45.07006188906792" lon="10.09119492262635"><ele>33.0</ele><time>2026-04-08T16:10:22.999Z</time></trkpt><trkpt lat="45.07003708250325" lon="10.09129386858853"><ele>33.0</ele><time>2026-04-08T16:10:23.999Z</time></trkpt><trkpt lat="45.07001327094503" lon="10.091391244169875"><ele>33.0</ele><time>2026-04-08T16:10:24.999Z</time></trkpt><trkpt lat="45.06998980135312" lon="10.091488254970978"><ele>33.0</ele><time>2026-04-08T16:10:25.999Z</time></trkpt><trkpt lat="45.06996483251836" lon="10.091585115857521"><ele>33.0</ele><time>2026-04-08T16:10:26.999Z</time></trkpt><trkpt lat="45.069942883752034" lon="10.091681196716037"><ele>33.0</ele><time>2026-04-08T16:10:27.999Z</time></trkpt><trkpt lat="45.06992062064804" lon="10.091778551104849"><ele>33.0</ele><time>2026-04-08T16:10:28.999Z</time></trkpt><trkpt lat="45.069897445307674" lon="10.091876065002158"><ele>33.0</ele><time>2026-04-08T16:10:29.999Z</time></trkpt><trkpt lat="45.0698782969772" lon="10.091975071424224"><ele>33.0</ele><time>2026-04-08T16:10:30.999Z</time></trkpt><trkpt lat="45.069860290966105" lon="10.092076116589555"><ele>33.0</ele><time>2026-04-08T16:10:31.999Z</time></trkpt><trkpt lat="45.06984190029305" lon="10.092173620050406"><ele>32.857142857142854</ele><time>2026-04-08T16:10:32.999Z</time></trkpt><trkpt lat="45.06981977260996" lon="10.092270549805592"><ele>32.714285714285715</ele><time>2026-04-08T16:10:33.999Z</time></trkpt><trkpt lat="45.069802445612744" lon="10.092368763816488"><ele>32.57142857142857</ele><time>2026-04-08T16:10:34.999Z</time></trkpt><trkpt lat="45.06978923472897" lon="10.092466803580038"><ele>32.42857142857143</ele><time>2026-04-08T16:10:35.999Z</time></trkpt><trkpt lat="45.06977618691038" lon="10.092570136962946"><ele>32.285714285714285</ele><time>2026-04-08T16:10:36.999Z</time></trkpt><trkpt lat="45.069768074069" lon="10.0926721605255"><ele>32.14285714285714</ele><time>2026-04-08T16:10:37.999Z</time></trkpt><trkpt lat="45.06976403458033" lon="10.09277603781916"><ele>32.0</ele><time>2026-04-08T16:10:38.999Z</time></trkpt><trkpt lat="45.06976757073426" lon="10.092879694533119"><ele>32.0</ele><time>2026-04-08T16:10:39.999Z</time></trkpt><trkpt lat="45.06977667017337" lon="10.092982204145283"><ele>31.999999999999996</ele><time>2026-04-08T16:10:40.999Z</time></trkpt><trkpt lat="45.06978979206625" lon="10.093086428400232"><ele>32.0</ele><time>2026-04-08T16:10:41.999Z</time></trkpt><trkpt lat="45.06980502788963" lon="10.093187170681519"><ele>32.0</ele><time>2026-04-08T16:10:42.999Z</time></trkpt><trkpt lat="45.06982072319829" lon="10.093287396911832"><ele>31.999999999999996</ele><time>2026-04-08T16:10:43.999Z</time></trkpt><trkpt lat="45.06983474126552" lon="10.093387126796552"><ele>32.0</ele><time>2026-04-08T16:10:44.999Z</time></trkpt><trkpt lat="45.06984831794242" lon="10.09348794216832"><ele>32.0</ele><time>2026-04-08T16:10:45.999Z</time></trkpt><trkpt lat="45.069864764164144" lon="10.09358896747124"><ele>32.14285714285714</ele><time>2026-04-08T16:10:46.999Z</time></trkpt><trkpt lat="45.06987720838413" lon="10.093689465834903"><ele>32.285714285714285</ele><time>2026-04-08T16:10:47.999Z</time></trkpt><trkpt lat="45.069884896225616" lon="10.093792274781343"><ele>32.42857142857143</ele><time>2026-04-08T16:10:48.999Z</time></trkpt><trkpt lat="45.06988662521594" lon="10.093894175317311"><ele>32.57142857142857</ele><time>2026-04-08T16:10:49.999Z</time></trkpt><trkpt lat="45.069873992012816" lon="10.093997316795154"><ele>32.714285714285715</ele><time>2026-04-08T16:10:50.999Z</time></trkpt><trkpt lat="45.06984887706999" lon="10.094096474122027"><ele>32.857142857142854</ele><time>2026-04-08T16:10:51.999Z</time></trkpt><trkpt lat="45.06981185558366" lon="10.094186221882035"><ele>33.0</ele><time>2026-04-08T16:10:52.999Z</time></trkpt><trkpt lat="45.06976803262112" lon="10.094269908175338"><ele>33.14285714285714</ele><time>2026-04-08T16:10:53.999Z</time></trkpt><trkpt lat="45.06972326072595" lon="10.09435101258628"><ele>33.285714285714285</ele><time>2026-04-08T16:10:54.999Z</time></trkpt><trkpt lat="45.06967999958403" lon="10.094432524251154"><ele>33.42857142857143</ele><time>2026-04-08T16:10:55.999Z</time></trkpt><trkpt lat="45.069637988292634" lon="10.094517510828208"><ele>33.57142857142857</ele><time>2026-04-08T16:10:56.999Z</time></trkpt><trkpt lat="45.06959991500996" lon="10.094605451358783"><ele>33.714285714285715</ele><time>2026-04-08T16:10:57.999Z</time></trkpt><trkpt lat="45.06956516185223" lon="10.094693494885496"><ele>33.857142857142854</ele><time>2026-04-08T16:10:58.999Z</time></trkpt><trkpt lat="45.069536731854285" lon="10.09478934435188"><ele>34.0</ele><time>2026-04-08T16:10:59.999Z</time></trkpt><trkpt lat="45.06952426487671" lon="10.094891628359141"><ele>34.14285714285714</ele><time>2026-04-08T16:11:00.999Z</time></trkpt><trkpt lat="45.06953010845693" lon="10.094996762213807"><ele>34.285714285714285</ele><time>2026-04-08T16:11:01.999Z</time></trkpt><trkpt lat="45.06954968989453" lon="10.095099863839037"><ele>34.42857142857143</ele><time>2026-04-08T16:11:02.999Z</time></trkpt><trkpt lat="45.06958108235822" lon="10.09519554635282"><ele>34.57142857142857</ele><time>2026-04-08T16:11:03.999Z</time></trkpt><trkpt lat="45.06961920032883" lon="10.095289619657189"><ele>34.714285714285715</ele><time>2026-04-08T16:11:04.998Z</time></trkpt><trkpt lat="45.069650828000235" lon="10.095382950528807"><ele>34.857142857142854</ele><time>2026-04-08T16:11:05.998Z</time></trkpt><trkpt lat="45.069675176036306" lon="10.09548358745926"><ele>35.0</ele><time>2026-04-08T16:11:06.999Z</time></trkpt><trkpt lat="45.0696894711951" lon="10.095584489725274"><ele>35.0</ele><time>2026-04-08T16:11:07.999Z</time></trkpt><trkpt lat="45.069693661592154" lon="10.095690584613862"><ele>35.0</ele><time>2026-04-08T16:11:08.999Z</time></trkpt><trkpt lat="45.06969457040914" lon="10.095797525161728"><ele>35.0</ele><time>2026-04-08T16:11:09.999Z</time></trkpt><trkpt lat="45.06969427187573" lon="10.09590475857607"><ele>35.0</ele><time>2026-04-08T16:11:10.999Z</time></trkpt><trkpt lat="45.069693679343864" lon="10.096010839672113"><ele>35.0</ele><time>2026-04-08T16:11:11.999Z</time></trkpt><trkpt lat="45.069692806032414" lon="10.09611627579736"><ele>35.0</ele><time>2026-04-08T16:11:12.999Z</time></trkpt><trkpt lat="45.06969924956968" lon="10.096223282163344"><ele>35.0</ele><time>2026-04-08T16:11:13.999Z</time></trkpt><trkpt lat="45.06970999479696" lon="10.096326333377553"><ele>35.0</ele><time>2026-04-08T16:11:14.999Z</time></trkpt><trkpt lat="45.06972071876161" lon="10.096427700702987"><ele>35.0</ele><time>2026-04-08T16:11:15.999Z</time></trkpt><trkpt lat="45.06973060055" lon="10.096531390137779"><ele>35.0</ele><time>2026-04-08T16:11:16.999Z</time></trkpt><trkpt lat="45.069739138184126" lon="10.096632941441431"><ele>35.0</ele><time>2026-04-08T16:11:17.999Z</time></trkpt><trkpt lat="45.06974849467082" lon="10.096734568875808"><ele>35.0</ele><time>2026-04-08T16:11:18.999Z</time></trkpt><trkpt lat="45.06975832572284" lon="10.096835204537463"><ele>35.0</ele><time>2026-04-08T16:11:19.999Z</time></trkpt><trkpt lat="45.06976844746517" lon="10.096937691585111"><ele>34.714285714285715</ele><time>2026-04-08T16:11:20.999Z</time></trkpt><trkpt lat="45.06977843232961" lon="10.097037853754792"><ele>34.42857142857143</ele><time>2026-04-08T16:11:21.999Z</time></trkpt><trkpt lat="45.06979046731384" lon="10.0971379219976"><ele>34.14285714285714</ele><time>2026-04-08T16:11:22.999Z</time></trkpt><trkpt lat="45.06980168369778" lon="10.097241888697143"><ele>33.85714285714286</ele><time>2026-04-08T16:11:23.999Z</time></trkpt><trkpt lat="45.06981310856587" lon="10.097342168776526"><ele>33.57142857142857</ele><time>2026-04-08T16:11:24.999Z</time></trkpt><trkpt lat="45.06982344601142" lon="10.097443908331702"><ele>33.285714285714285</ele><time>2026-04-08T16:11:25.999Z</time></trkpt><trkpt lat="45.06983348696406" lon="10.097545121790361"><ele>33.0</ele><time>2026-04-08T16:11:26.999Z</time></trkpt><trkpt lat="45.06984282357877" lon="10.097645040216632"><ele>33.0</ele><time>2026-04-08T16:11:27.999Z</time></trkpt><trkpt lat="45.06985014789622" lon="10.097747686619785"><ele>33.0</ele><time>2026-04-08T16:11:28.999Z</time></trkpt><trkpt lat="45.06985478713318" lon="10.097849414483965"><ele>33.0</ele><time>2026-04-08T16:11:29.999Z</time></trkpt><trkpt lat="45.069852815205955" lon="10.09795239179864"><ele>33.0</ele><time>2026-04-08T16:11:30.999Z</time></trkpt><trkpt lat="45.06984826174344" lon="10.098054739670571"><ele>33.0</ele><time>2026-04-08T16:11:31.999Z</time></trkpt><trkpt lat="45.069843635233696" lon="10.09815654538949"><ele>33.0</ele><time>2026-04-08T16:11:32.999Z</time></trkpt><trkpt lat="45.069839209330546" lon="10.09826090531811"><ele>33.0</ele><time>2026-04-08T16:11:33.999Z</time></trkpt><trkpt lat="45.06983669220777" lon="10.098362892017759"><ele>33.0</ele><time>2026-04-08T16:11:34.999Z</time></trkpt><trkpt lat="45.069828996950804" lon="10.09846690325955"><ele>33.0</ele><time>2026-04-08T16:11:35.999Z</time></trkpt><trkpt lat="45.06982067395034" lon="10.0985710933152"><ele>33.0</ele><time>2026-04-08T16:11:36.999Z</time></trkpt><trkpt lat="45.06981375591231" lon="10.098673462180473"><ele>33.0</ele><time>2026-04-08T16:11:37.999Z</time></trkpt><trkpt lat="45.06980696784906" lon="10.098777971224303"><ele>33.0</ele><time>2026-04-08T16:11:38.999Z</time></trkpt><trkpt lat="45.06980364822408" lon="10.098878495630276"><ele>33.0</ele><time>2026-04-08T16:11:39.999Z</time></trkpt><trkpt lat="45.069802645997974" lon="10.098982791590378"><ele>33.0</ele><time>2026-04-08T16:11:40.999Z</time></trkpt><trkpt lat="45.069800657349" lon="10.099085965163669"><ele>33.0</ele><time>2026-04-08T16:11:41.999Z</time></trkpt><trkpt lat="45.06980113417219" lon="10.099187005644568"><ele>33.0</ele><time>2026-04-08T16:11:42.999Z</time></trkpt><trkpt lat="45.06980115123668" lon="10.099292820391588"><ele>33.0</ele><time>2026-04-08T16:11:43.999Z</time></trkpt><trkpt lat="45.069802883678825" lon="10.099396978409592"><ele>33.0</ele><time>2026-04-08T16:11:44.999Z</time></trkpt><trkpt lat="45.06980466889904" lon="10.099500425852458"><ele>33.0</ele><time>2026-04-08T16:11:45.999Z</time></trkpt><trkpt lat="45.069807027688455" lon="10.099604865846342"><ele>33.0</ele><time>2026-04-08T16:11:46.999Z</time></trkpt><trkpt lat="45.06980755749093" lon="10.099711435426116"><ele>33.0</ele><time>2026-04-08T16:11:47.999Z</time></trkpt><trkpt lat="45.06980838105401" lon="10.099817144779488"><ele>32.714285714285715</ele><time>2026-04-08T16:11:48.999Z</time></trkpt><trkpt lat="45.069807446457" lon="10.099924904724256"><ele>32.42857142857143</ele><time>2026-04-08T16:11:49.999Z</time></trkpt><trkpt lat="45.06980436203112" lon="10.100025880082738"><ele>32.142857142857146</ele><time>2026-04-08T16:11:50.999Z</time></trkpt><trkpt lat="45.0697967089878" lon="10.100129330040474"><ele>31.857142857142858</ele><time>2026-04-08T16:11:51.999Z</time></trkpt><trkpt lat="45.069782440572084" lon="10.10023142382392"><ele>31.571428571428577</ele><time>2026-04-08T16:11:52.999Z</time></trkpt><trkpt lat="45.069763622396884" lon="10.100334310682241"><ele>31.28571428571429</ele><time>2026-04-08T16:11:53.999Z</time></trkpt><trkpt lat="45.06974572008778" lon="10.100438890859355"><ele>31.0</ele><time>2026-04-08T16:11:54.999Z</time></trkpt><trkpt lat="45.06972830684922" lon="10.100540445855993"><ele>31.0</ele><time>2026-04-08T16:11:55.999Z</time></trkpt><trkpt lat="45.06970489479057" lon="10.100639634935039"><ele>31.000000000000004</ele><time>2026-04-08T16:11:56.999Z</time></trkpt><trkpt lat="45.06967983457655" lon="10.10073772503608"><ele>31.0</ele><time>2026-04-08T16:11:57.999Z</time></trkpt><trkpt lat="45.06965329237919" lon="10.10083570230391"><ele>31.0</ele><time>2026-04-08T16:11:59.001Z</time></trkpt><trkpt lat="45.06962690118998" lon="10.100934784200835"><ele>31.000000000000004</ele><time>2026-04-08T16:12:00.001Z</time></trkpt><trkpt lat="45.06960033881701" lon="10.101031114399285"><ele>31.0</ele><time>2026-04-08T16:12:01.001Z</time></trkpt><trkpt lat="45.069573604347106" lon="10.10113114830866"><ele>31.0</ele><time>2026-04-08T16:12:02.001Z</time></trkpt><trkpt lat="45.06954875551205" lon="10.101230097755781"><ele>31.0</ele><time>2026-04-08T16:12:03.001Z</time></trkpt><trkpt lat="45.069529106509144" lon="10.101333840566209"><ele>31.000000000000004</ele><time>2026-04-08T16:12:04.001Z</time></trkpt><trkpt lat="45.069519534362904" lon="10.101434530230987"><ele>31.0</ele><time>2026-04-08T16:12:05.001Z</time></trkpt><trkpt lat="45.069518152191094" lon="10.101541034258359"><ele>31.0</ele><time>2026-04-08T16:12:06.001Z</time></trkpt><trkpt lat="45.06952477665925" lon="10.101646293695797"><ele>31.000000000000004</ele><time>2026-04-08T16:12:07.001Z</time></trkpt><trkpt lat="45.06952897978395" lon="10.10175236774341"><ele>31.0</ele><time>2026-04-08T16:12:08.001Z</time></trkpt><trkpt lat="45.06953466752828" lon="10.10185934536966"><ele>31.0</ele><time>2026-04-08T16:12:09.001Z</time></trkpt><trkpt lat="45.06953937937845" lon="10.101965054613418"><ele>31.0</ele><time>2026-04-08T16:12:10.001Z</time></trkpt><trkpt lat="45.06954208673338" lon="10.102069117711864"><ele>31.000000000000004</ele><time>2026-04-08T16:12:11.001Z</time></trkpt><trkpt lat="45.069544297884796" lon="10.102172857750459"><ele>31.0</ele><time>2026-04-08T16:12:12.001Z</time></trkpt><trkpt lat="45.06954494776078" lon="10.102275706410811"><ele>31.0</ele><time>2026-04-08T16:12:13.001Z</time></trkpt><trkpt lat="45.06954743523413" lon="10.102383252773043"><ele>31.000000000000004</ele><time>2026-04-08T16:12:14Z</time></trkpt><trkpt lat="45.06954754538738" lon="10.102488593558165"><ele>31.0</ele><time>2026-04-08T16:12:15Z</time></trkpt><trkpt lat="45.06954359777575" lon="10.102595225667093"><ele>31.0</ele><time>2026-04-08T16:12:16Z</time></trkpt><trkpt lat="45.06954546815904" lon="10.102699852881289"><ele>30.857142857142858</ele><time>2026-04-08T16:12:17Z</time></trkpt><trkpt lat="45.06954873612297" lon="10.102804968581328"><ele>30.714285714285715</ele><time>2026-04-08T16:12:18Z</time></trkpt><trkpt lat="45.06955196838416" lon="10.102910566723004"><ele>30.571428571428573</ele><time>2026-04-08T16:12:19Z</time></trkpt><trkpt lat="45.06955175100359" lon="10.103017308263034"><ele>30.42857142857143</ele><time>2026-04-08T16:12:20Z</time></trkpt><trkpt lat="45.06955057972093" lon="10.103122569089544"><ele>30.285714285714285</ele><time>2026-04-08T16:12:21Z</time></trkpt><trkpt lat="45.06955090460951" lon="10.103227894195763"><ele>30.142857142857146</ele><time>2026-04-08T16:12:22Z</time></trkpt><trkpt lat="45.06955242851726" lon="10.103334785845608"><ele>30.0</ele><time>2026-04-08T16:12:23Z</time></trkpt><trkpt lat="45.06954993971234" lon="10.10343992420865"><ele>30.42857142857143</ele><time>2026-04-08T16:12:24Z</time></trkpt><trkpt lat="45.0695433325668" lon="10.103544187617965"><ele>30.857142857142854</ele><time>2026-04-08T16:12:25Z</time></trkpt><trkpt lat="45.06953578567257" lon="10.103651274477198"><ele>31.285714285714285</ele><time>2026-04-08T16:12:26Z</time></trkpt><trkpt lat="45.06952720740562" lon="10.103753315238656"><ele>31.714285714285715</ele><time>2026-04-08T16:12:27Z</time></trkpt><trkpt lat="45.06951355577465" lon="10.103855913399135"><ele>32.142857142857146</ele><time>2026-04-08T16:12:28Z</time></trkpt><trkpt lat="45.069497997611045" lon="10.10395778264403"><ele>32.57142857142857</ele><time>2026-04-08T16:12:29Z</time></trkpt><trkpt lat="45.06947776501459" lon="10.104058043738936"><ele>33.0</ele><time>2026-04-08T16:12:30Z</time></trkpt><trkpt lat="45.069454053044" lon="10.104157596643628"><ele>33.0</ele><time>2026-04-08T16:12:31Z</time></trkpt><trkpt lat="45.06943119000259" lon="10.104255847017424"><ele>33.0</ele><time>2026-04-08T16:12:32Z</time></trkpt><trkpt lat="45.06940677531664" lon="10.104351690248661"><ele>33.0</ele><time>2026-04-08T16:12:33Z</time></trkpt><trkpt lat="45.06937681630229" lon="10.104449231738181"><ele>33.0</ele><time>2026-04-08T16:12:34Z</time></trkpt><trkpt lat="45.0693487386325" lon="10.104543685586997"><ele>33.0</ele><time>2026-04-08T16:12:35Z</time></trkpt><trkpt lat="45.069319130087095" lon="10.104640394672106"><ele>33.0</ele><time>2026-04-08T16:12:36Z</time></trkpt><trkpt lat="45.06929155735242" lon="10.10473704549511"><ele>33.0</ele><time>2026-04-08T16:12:37Z</time></trkpt><trkpt lat="45.06926309418372" lon="10.104833068725183"><ele>33.0</ele><time>2026-04-08T16:12:38Z</time></trkpt><trkpt lat="45.06923595304453" lon="10.104928276205683"><ele>33.0</ele><time>2026-04-08T16:12:39Z</time></trkpt><trkpt lat="45.06920798807737" lon="10.105024164961273"><ele>33.0</ele><time>2026-04-08T16:12:40Z</time></trkpt><trkpt lat="45.06917782050956" lon="10.10511660852149"><ele>33.0</ele><time>2026-04-08T16:12:41Z</time></trkpt><trkpt lat="45.06914570518017" lon="10.10521063297471"><ele>33.0</ele><time>2026-04-08T16:12:42Z</time></trkpt><trkpt lat="45.069112549498996" lon="10.105302516413834"><ele>33.0</ele><time>2026-04-08T16:12:43Z</time></trkpt><trkpt lat="45.06907807609747" lon="10.105395362705007"><ele>33.0</ele><time>2026-04-08T16:12:44Z</time></trkpt><trkpt lat="45.06904456087235" lon="10.105489102275014"><ele>32.57142857142857</ele><time>2026-04-08T16:12:45Z</time></trkpt><trkpt lat="45.06901148575274" lon="10.105584472464832"><ele>32.142857142857146</ele><time>2026-04-08T16:12:46Z</time></trkpt><trkpt lat="45.06897796300472" lon="10.1056747550348"><ele>31.714285714285715</ele><time>2026-04-08T16:12:47Z</time></trkpt><trkpt lat="45.06894326180689" lon="10.105764103725049"><ele>31.285714285714285</ele><time>2026-04-08T16:12:48Z</time></trkpt><trkpt lat="45.068908033281275" lon="10.105854218604039"><ele>30.857142857142854</ele><time>2026-04-08T16:12:49Z</time></trkpt><trkpt lat="45.0688725250961" lon="10.105947819685138"><ele>30.42857142857143</ele><time>2026-04-08T16:12:50Z</time></trkpt><trkpt lat="45.068837212375456" lon="10.10603686799447"><ele>30.0</ele><time>2026-04-08T16:12:51Z</time></trkpt><trkpt lat="45.06880083715249" lon="10.106129435716921"><ele>30.0</ele><time>2026-04-08T16:12:52Z</time></trkpt><trkpt lat="45.068765848594026" lon="10.106221978052627"><ele>30.0</ele><time>2026-04-08T16:12:53Z</time></trkpt><trkpt lat="45.068731978728664" lon="10.106314835049647"><ele>30.0</ele><time>2026-04-08T16:12:54Z</time></trkpt><trkpt lat="45.068696688510286" lon="10.106404384732082"><ele>30.0</ele><time>2026-04-08T16:12:55Z</time></trkpt><trkpt lat="45.06866006574292" lon="10.106494932133128"><ele>30.0</ele><time>2026-04-08T16:12:56Z</time></trkpt><trkpt lat="45.06862421876738" lon="10.106586607150463"><ele>30.0</ele><time>2026-04-08T16:12:57Z</time></trkpt><trkpt lat="45.0685911222271" lon="10.106685171890563"><ele>30.0</ele><time>2026-04-08T16:12:58Z</time></trkpt><trkpt lat="45.068562694206726" lon="10.106783014633798"><ele>30.285714285714285</ele><time>2026-04-08T16:12:59Z</time></trkpt><trkpt lat="45.06853471764101" lon="10.106880008500811"><ele>30.57142857142857</ele><time>2026-04-08T16:13:00Z</time></trkpt><trkpt lat="45.06850700064946" lon="10.1069777591151"><ele>30.857142857142854</ele><time>2026-04-08T16:13:01Z</time></trkpt><trkpt lat="45.06848370183364" lon="10.107076717058824"><ele>31.142857142857142</ele><time>2026-04-08T16:13:02Z</time></trkpt><trkpt lat="45.068462739411025" lon="10.107178432745481"><ele>31.428571428571423</ele><time>2026-04-08T16:13:03Z</time></trkpt><trkpt lat="45.06844290175921" lon="10.10728081712262"><ele>31.71428571428571</ele><time>2026-04-08T16:13:04Z</time></trkpt><trkpt lat="45.06842332509651" lon="10.107382347072448"><ele>32.0</ele><time>2026-04-08T16:13:05Z</time></trkpt><trkpt lat="45.068407760433736" lon="10.10748538410285"><ele>32.166666666666664</ele><time>2026-04-08T16:13:06Z</time></trkpt><trkpt lat="45.068395375257474" lon="10.107591294921352"><ele>32.33333333333333</ele><time>2026-04-08T16:13:07Z</time></trkpt><trkpt lat="45.06838282595047" lon="10.107696170672865"><ele>32.5</ele><time>2026-04-08T16:13:08Z</time></trkpt><trkpt lat="45.0683691898566" lon="10.10780137161528"><ele>32.666666666666664</ele><time>2026-04-08T16:13:08.999Z</time></trkpt><trkpt lat="45.068355344874156" lon="10.107906815935083"><ele>32.833333333333336</ele><time>2026-04-08T16:13:09.999Z</time></trkpt><trkpt lat="45.06834448242245" lon="10.1080107083305"><ele>33.0</ele><time>2026-04-08T16:13:10.999Z</time></trkpt><trkpt lat="45.06833213959687" lon="10.108114680946478"><ele>33.0</ele><time>2026-04-08T16:13:11.999Z</time></trkpt><trkpt lat="45.068318228183585" lon="10.108219012641186"><ele>33.0</ele><time>2026-04-08T16:13:12.999Z</time></trkpt><trkpt lat="45.06830702953675" lon="10.108322181802693"><ele>33.0</ele><time>2026-04-08T16:13:13.999Z</time></trkpt><trkpt lat="45.0682942518014" lon="10.10842788043148"><ele>33.0</ele><time>2026-04-08T16:13:14.999Z</time></trkpt><trkpt lat="45.06827769974089" lon="10.108531925782978"><ele>33.0</ele><time>2026-04-08T16:13:15.999Z</time></trkpt><trkpt lat="45.06826395442868" lon="10.108638620567657"><ele>33.0</ele><time>2026-04-08T16:13:16.999Z</time></trkpt><trkpt lat="45.06824960749086" lon="10.10874524564227"><ele>32.666666666666664</ele><time>2026-04-08T16:13:17.999Z</time></trkpt><trkpt lat="45.068233171769116" lon="10.108849558026003"><ele>32.333333333333336</ele><time>2026-04-08T16:13:18.999Z</time></trkpt><trkpt lat="45.06821643503735" lon="10.108954759025288"><ele>32.0</ele><time>2026-04-08T16:13:19.999Z</time></trkpt><trkpt lat="45.06819930781853" lon="10.109058807845003"><ele>31.666666666666668</ele><time>2026-04-08T16:13:20.999Z</time></trkpt><trkpt lat="45.06818215480692" lon="10.109164603255264"><ele>31.333333333333336</ele><time>2026-04-08T16:13:21.999Z</time></trkpt><trkpt lat="45.06816652844788" lon="10.109268748190924"><ele>31.0</ele><time>2026-04-08T16:13:22.999Z</time></trkpt><trkpt lat="45.0681508889822" lon="10.109373495235632"><ele>31.000000000000004</ele><time>2026-04-08T16:13:23.999Z</time></trkpt><trkpt lat="45.06813398112105" lon="10.109477778613753"><ele>31.0</ele><time>2026-04-08T16:13:24.999Z</time></trkpt><trkpt lat="45.068118049041026" lon="10.109583337105086"><ele>31.0</ele><time>2026-04-08T16:13:25.999Z</time></trkpt><trkpt lat="45.068103137190434" lon="10.109685936406212"><ele>31.0</ele><time>2026-04-08T16:13:26.999Z</time></trkpt><trkpt lat="45.06808805089783" lon="10.109790091429888"><ele>31.000000000000004</ele><time>2026-04-08T16:13:27.999Z</time></trkpt><trkpt lat="45.068070013933635" lon="10.109893086339417"><ele>31.0</ele><time>2026-04-08T16:13:28.999Z</time></trkpt><trkpt lat="45.068049633547815" lon="10.10999371132067"><ele>31.142857142857146</ele><time>2026-04-08T16:13:29.999Z</time></trkpt><trkpt lat="45.06802612574899" lon="10.11009489041641"><ele>31.28571428571429</ele><time>2026-04-08T16:13:30.999Z</time></trkpt><trkpt lat="45.06800330830985" lon="10.110196895467855"><ele>31.42857142857143</ele><time>2026-04-08T16:13:31.999Z</time></trkpt><trkpt lat="45.06797911216747" lon="10.110297718156222"><ele>31.57142857142857</ele><time>2026-04-08T16:13:32.999Z</time></trkpt><trkpt lat="45.06795593100136" lon="10.110397814178755"><ele>31.71428571428571</ele><time>2026-04-08T16:13:33.999Z</time></trkpt><trkpt lat="45.06793396803833" lon="10.110496221873966"><ele>31.857142857142854</ele><time>2026-04-08T16:13:34.999Z</time></trkpt><trkpt lat="45.06791316946408" lon="10.110597309922431"><ele>32.0</ele><time>2026-04-08T16:13:35.999Z</time></trkpt><trkpt lat="45.06789871992523" lon="10.110700609261057"><ele>31.833333333333332</ele><time>2026-04-08T16:13:36.999Z</time></trkpt><trkpt lat="45.0678999790559" lon="10.110808334941437"><ele>31.666666666666664</ele><time>2026-04-08T16:13:37.999Z</time></trkpt><trkpt lat="45.06792652418744" lon="10.11091285816615"><ele>31.5</ele><time>2026-04-08T16:13:38.999Z</time></trkpt><trkpt lat="45.06797167793591" lon="10.111006561399304"><ele>31.333333333333336</ele><time>2026-04-08T16:13:39.999Z</time></trkpt><trkpt lat="45.06802217937613" lon="10.111089128050908"><ele>31.166666666666668</ele><time>2026-04-08T16:13:40.999Z</time></trkpt><trkpt lat="45.06807444321747" lon="10.111171793669444"><ele>31.0</ele><time>2026-04-08T16:13:41.999Z</time></trkpt><trkpt lat="45.068122081406656" lon="10.111253875131785"><ele>31.000000000000004</ele><time>2026-04-08T16:13:42.999Z</time></trkpt><trkpt lat="45.06816788571551" lon="10.111337456659928"><ele>31.0</ele><time>2026-04-08T16:13:43.999Z</time></trkpt><trkpt lat="45.06821447329137" lon="10.111422622408922"><ele>31.0</ele><time>2026-04-08T16:13:44.999Z</time></trkpt><trkpt lat="45.0682592284116" lon="10.111506989469364"><ele>31.0</ele><time>2026-04-08T16:13:45.999Z</time></trkpt><trkpt lat="45.06830495543902" lon="10.111592461137622"><ele>31.000000000000004</ele><time>2026-04-08T16:13:46.999Z</time></trkpt><trkpt lat="45.06835073171273" lon="10.111677462541927"><ele>31.0</ele><time>2026-04-08T16:13:47.999Z</time></trkpt><trkpt lat="45.068396195551784" lon="10.111763539792054"><ele>31.000000000000004</ele><time>2026-04-08T16:13:48.999Z</time></trkpt><trkpt lat="45.068440610426315" lon="10.111848787036559"><ele>31.0</ele><time>2026-04-08T16:13:49.999Z</time></trkpt><trkpt lat="45.068486564707726" lon="10.111935597716736"><ele>31.0</ele><time>2026-04-08T16:13:50.999Z</time></trkpt><trkpt lat="45.06853202766424" lon="10.112020666154125"><ele>31.0</ele><time>2026-04-08T16:13:51.999Z</time></trkpt><trkpt lat="45.068574847866046" lon="10.11210622233339"><ele>31.000000000000004</ele><time>2026-04-08T16:13:52.999Z</time></trkpt><trkpt lat="45.068619801130026" lon="10.11219355325313"><ele>31.0</ele><time>2026-04-08T16:13:53.999Z</time></trkpt><trkpt lat="45.0686653582554" lon="10.112279273560477"><ele>31.000000000000004</ele><time>2026-04-08T16:13:54.999Z</time></trkpt><trkpt lat="45.06870926110856" lon="10.112364958272343"><ele>31.0</ele><time>2026-04-08T16:13:55.999Z</time></trkpt><trkpt lat="45.0687517738498" lon="10.112453708859192"><ele>31.0</ele><time>2026-04-08T16:13:56.999Z</time></trkpt><trkpt lat="45.06879258177858" lon="10.112543527985162"><ele>31.0</ele><time>2026-04-08T16:13:57.999Z</time></trkpt><trkpt lat="45.06883108774371" lon="10.112635154527732"><ele>31.000000000000004</ele><time>2026-04-08T16:13:58.999Z</time></trkpt><trkpt lat="45.068867822383" lon="10.11272764760181"><ele>31.0</ele><time>2026-04-08T16:13:59.999Z</time></trkpt><trkpt lat="45.06890450192376" lon="10.112818724615247"><ele>31.000000000000004</ele><time>2026-04-08T16:14:00.999Z</time></trkpt><trkpt lat="45.06894110523269" lon="10.112916203857488"><ele>31.0</ele><time>2026-04-08T16:14:01.999Z</time></trkpt><trkpt lat="45.068976194645685" lon="10.113007348749818"><ele>31.0</ele><time>2026-04-08T16:14:02.999Z</time></trkpt><trkpt lat="45.06902047380153" lon="10.113096173469195"><ele>31.0</ele><time>2026-04-08T16:14:04Z</time></trkpt><trkpt lat="45.069074627437075" lon="10.113170786103723"><ele>31.000000000000004</ele><time>2026-04-08T16:14:05.001Z</time></trkpt><trkpt lat="45.06913877730799" lon="10.113230968816486"><ele>31.0</ele><time>2026-04-08T16:14:06Z</time></trkpt><trkpt lat="45.069205810006345" lon="10.11328197854413"><ele>31.000000000000004</ele><time>2026-04-08T16:14:07Z</time></trkpt><trkpt lat="45.06927446621435" lon="10.113334898507205"><ele>31.0</ele><time>2026-04-08T16:14:08.001Z</time></trkpt><trkpt lat="45.06933818641891" lon="10.113392699061375"><ele>31.0</ele><time>2026-04-08T16:14:09Z</time></trkpt><trkpt lat="45.06940382800024" lon="10.113447451913192"><ele>31.0</ele><time>2026-04-08T16:14:10Z</time></trkpt><trkpt lat="45.0694705332022" lon="10.113498245602996"><ele>31.000000000000004</ele><time>2026-04-08T16:14:11.001Z</time></trkpt><trkpt lat="45.069536507551824" lon="10.113550512088485"><ele>31.0</ele><time>2026-04-08T16:14:12Z</time></trkpt><trkpt lat="45.06960106127483" lon="10.113604314642329"><ele>31.000000000000004</ele><time>2026-04-08T16:14:13Z</time></trkpt><trkpt lat="45.06966639480327" lon="10.113661023427762"><ele>31.0</ele><time>2026-04-08T16:14:14Z</time></trkpt><trkpt lat="45.06973013445871" lon="10.11371532731509"><ele>31.0</ele><time>2026-04-08T16:14:15Z</time></trkpt><trkpt lat="45.06979558126538" lon="10.113770841059603"><ele>31.0</ele><time>2026-04-08T16:14:16Z</time></trkpt><trkpt lat="45.069861200528464" lon="10.113824770896395"><ele>31.000000000000004</ele><time>2026-04-08T16:14:17Z</time></trkpt><trkpt lat="45.06992660158022" lon="10.113877702156483"><ele>31.0</ele><time>2026-04-08T16:14:18Z</time></trkpt><trkpt lat="45.06999179314438" lon="10.113931606928336"><ele>31.000000000000004</ele><time>2026-04-08T16:14:19Z</time></trkpt><trkpt lat="45.0700561181839" lon="10.11398747637696"><ele>31.0</ele><time>2026-04-08T16:14:20Z</time></trkpt><trkpt lat="45.07012113276294" lon="10.114041658390656"><ele>31.0</ele><time>2026-04-08T16:14:21Z</time></trkpt><trkpt lat="45.07018737402686" lon="10.114094306375907"><ele>31.0</ele><time>2026-04-08T16:14:22Z</time></trkpt><trkpt lat="45.07025255269443" lon="10.114149312466534"><ele>31.000000000000004</ele><time>2026-04-08T16:14:23Z</time></trkpt><trkpt lat="45.07031654510375" lon="10.11420745829214"><ele>31.0</ele><time>2026-04-08T16:14:24Z</time></trkpt><trkpt lat="45.07037941712275" lon="10.114264507448707"><ele>30.857142857142858</ele><time>2026-04-08T16:14:25Z</time></trkpt><trkpt lat="45.07044349149582" lon="10.114320553648037"><ele>30.714285714285715</ele><time>2026-04-08T16:14:26Z</time></trkpt><trkpt lat="45.07050666861714" lon="10.11437475600076"><ele>30.571428571428573</ele><time>2026-04-08T16:14:27Z</time></trkpt><trkpt lat="45.07056933881089" lon="10.114433411689188"><ele>30.42857142857143</ele><time>2026-04-08T16:14:28Z</time></trkpt><trkpt lat="45.07063186569728" lon="10.11449242966264"><ele>30.285714285714285</ele><time>2026-04-08T16:14:29Z</time></trkpt><trkpt lat="45.07069379052542" lon="10.11455244081631"><ele>30.142857142857146</ele><time>2026-04-08T16:14:30Z</time></trkpt><trkpt lat="45.07075356446328" lon="10.114616038051965"><ele>30.0</ele><time>2026-04-08T16:14:31Z</time></trkpt><trkpt lat="45.07081071690908" lon="10.11468351604857"><ele>30.0</ele><time>2026-04-08T16:14:32Z</time></trkpt><trkpt lat="45.07086432229738" lon="10.114758152471637"><ele>30.0</ele><time>2026-04-08T16:14:33Z</time></trkpt><trkpt lat="45.07091327786947" lon="10.114837923301597"><ele>30.0</ele><time>2026-04-08T16:14:34Z</time></trkpt><trkpt lat="45.07095560109094" lon="10.114924289721365"><ele>30.0</ele><time>2026-04-08T16:14:35Z</time></trkpt><trkpt lat="45.07099050468725" lon="10.115020216966306"><ele>30.0</ele><time>2026-04-08T16:14:36Z</time></trkpt><trkpt lat="45.07100758973414" lon="10.115125700741052"><ele>30.0</ele><time>2026-04-08T16:14:37Z</time></trkpt><trkpt lat="45.07101450496961" lon="10.11523366707786"><ele>30.0</ele><time>2026-04-08T16:14:38Z</time></trkpt><trkpt lat="45.071019267981576" lon="10.115341014588495"><ele>30.0</ele><time>2026-04-08T16:14:39Z</time></trkpt><trkpt lat="45.0710229746724" lon="10.115445843483025"><ele>30.0</ele><time>2026-04-08T16:14:40Z</time></trkpt><trkpt lat="45.071025345572366" lon="10.115550800720127"><ele>30.0</ele><time>2026-04-08T16:14:41Z</time></trkpt><trkpt lat="45.071029872676164" lon="10.115653092417098"><ele>30.0</ele><time>2026-04-08T16:14:42Z</time></trkpt><trkpt lat="45.07103559689635" lon="10.115754263787613"><ele>30.0</ele><time>2026-04-08T16:14:43Z</time></trkpt><trkpt lat="45.07104474238899" lon="10.115852103464453"><ele>30.0</ele><time>2026-04-08T16:14:44Z</time></trkpt><trkpt lat="45.07105889059791" lon="10.115948626321593"><ele>30.0</ele><time>2026-04-08T16:14:45Z</time></trkpt><trkpt lat="45.07107670161844" lon="10.116051042419079"><ele>30.0</ele><time>2026-04-08T16:14:46Z</time></trkpt><trkpt lat="45.07109793381935" lon="10.116155791877896"><ele>30.0</ele><time>2026-04-08T16:14:47Z</time></trkpt><trkpt lat="45.07112217698935" lon="10.116258279265805"><ele>30.0</ele><time>2026-04-08T16:14:48Z</time></trkpt><trkpt lat="45.07114923939296" lon="10.116358403564528"><ele>30.0</ele><time>2026-04-08T16:14:49Z</time></trkpt><trkpt lat="45.07117694880135" lon="10.116457209294348"><ele>30.0</ele><time>2026-04-08T16:14:50Z</time></trkpt><trkpt lat="45.07120522669594" lon="10.116555725571526"><ele>30.0</ele><time>2026-04-08T16:14:51Z</time></trkpt><trkpt lat="45.07123438206021" lon="10.116654403854106"><ele>30.0</ele><time>2026-04-08T16:14:52Z</time></trkpt><trkpt lat="45.071265647877865" lon="10.116751110354643"><ele>30.0</ele><time>2026-04-08T16:14:53Z</time></trkpt><trkpt lat="45.07129751127062" lon="10.116846410409881"><ele>30.0</ele><time>2026-04-08T16:14:54Z</time></trkpt><trkpt lat="45.0713241006372" lon="10.116946436765545"><ele>30.0</ele><time>2026-04-08T16:14:55Z</time></trkpt><trkpt lat="45.07131976330451" lon="10.117053539075695"><ele>30.0</ele><time>2026-04-08T16:14:56Z</time></trkpt><trkpt lat="45.071336242145435" lon="10.117159527751404"><ele>30.0</ele><time>2026-04-08T16:14:57Z</time></trkpt><trkpt lat="45.071328440546935" lon="10.117266462244642"><ele>30.0</ele><time>2026-04-08T16:14:58Z</time></trkpt><trkpt lat="45.071319369885565" lon="10.117373156086003"><ele>30.0</ele><time>2026-04-08T16:14:59Z</time></trkpt><trkpt lat="45.0713053332067" lon="10.11747665709386"><ele>30.0</ele><time>2026-04-08T16:15:00Z</time></trkpt><trkpt lat="45.07129654118366" lon="10.117583508938173"><ele>30.0</ele><time>2026-04-08T16:15:01Z</time></trkpt><trkpt lat="45.071285971820785" lon="10.117688111840472"><ele>30.0</ele><time>2026-04-08T16:15:02Z</time></trkpt><trkpt lat="45.07127158816738" lon="10.117791660293458"><ele>30.666666666666668</ele><time>2026-04-08T16:15:03Z</time></trkpt><trkpt lat="45.071260679661165" lon="10.11789830452293"><ele>31.333333333333336</ele><time>2026-04-08T16:15:04Z</time></trkpt><trkpt lat="45.07124762524905" lon="10.118002919068715"><ele>32.0</ele><time>2026-04-08T16:15:05Z</time></trkpt><trkpt lat="45.071236074572695" lon="10.11810687612654"><ele>32.66666666666667</ele><time>2026-04-08T16:15:06Z</time></trkpt><trkpt lat="45.07122673843952" lon="10.118213302441657"><ele>33.333333333333336</ele><time>2026-04-08T16:15:07Z</time></trkpt><trkpt lat="45.071221276919125" lon="10.11831831953731"><ele>34.0</ele><time>2026-04-08T16:15:08Z</time></trkpt><trkpt lat="45.07122314138429" lon="10.118426021822959"><ele>34.16666666666667</ele><time>2026-04-08T16:15:09Z</time></trkpt><trkpt lat="45.0712395092819" lon="10.118531837657946"><ele>34.333333333333336</ele><time>2026-04-08T16:15:10Z</time></trkpt><trkpt lat="45.07127020677202" lon="10.118631439064936"><ele>34.5</ele><time>2026-04-08T16:15:10.999Z</time></trkpt><trkpt lat="45.07131370841655" lon="10.118722116848954"><ele>34.666666666666664</ele><time>2026-04-08T16:15:11.999Z</time></trkpt><trkpt lat="45.07136106674836" lon="10.118808493108437"><ele>34.83333333333333</ele><time>2026-04-08T16:15:12.999Z</time></trkpt><trkpt lat="45.07140646878167" lon="10.118891305011598"><ele>35.0</ele><time>2026-04-08T16:15:13.999Z</time></trkpt><trkpt lat="45.071453895963344" lon="10.11897576240204"><ele>35.0</ele><time>2026-04-08T16:15:14.999Z</time></trkpt><trkpt lat="45.07150246925045" lon="10.11905699492874"><ele>35.0</ele><time>2026-04-08T16:15:15.999Z</time></trkpt><trkpt lat="45.071551538688176" lon="10.119138810072608"><ele>35.0</ele><time>2026-04-08T16:15:16.999Z</time></trkpt><trkpt lat="45.07159797609461" lon="10.119222835052893"><ele>35.0</ele><time>2026-04-08T16:15:17.999Z</time></trkpt><trkpt lat="45.07164399231283" lon="10.119302880951144"><ele>35.0</ele><time>2026-04-08T16:15:18.999Z</time></trkpt><trkpt lat="45.07169227793347" lon="10.119383921765202"><ele>35.0</ele><time>2026-04-08T16:15:19.999Z</time></trkpt><trkpt lat="45.07173835204283" lon="10.119467893724567"><ele>35.0</ele><time>2026-04-08T16:15:20.999Z</time></trkpt><trkpt lat="45.07178063135393" lon="10.119555791402618"><ele>35.0</ele><time>2026-04-08T16:15:21.999Z</time></trkpt><trkpt lat="45.071810911826525" lon="10.119654047559209"><ele>35.0</ele><time>2026-04-08T16:15:22.999Z</time></trkpt><trkpt lat="45.07182886367037" lon="10.119759177460368"><ele>35.0</ele><time>2026-04-08T16:15:23.999Z</time></trkpt><trkpt lat="45.07183395726661" lon="10.11986711424507"><ele>35.0</ele><time>2026-04-08T16:15:24.999Z</time></trkpt><trkpt lat="45.07182835957443" lon="10.11997422397168"><ele>35.0</ele><time>2026-04-08T16:15:25.999Z</time></trkpt><trkpt lat="45.0718174005097" lon="10.120081493339457"><ele>35.0</ele><time>2026-04-08T16:15:26.999Z</time></trkpt><trkpt lat="45.071808118067864" lon="10.120187054001557"><ele>35.0</ele><time>2026-04-08T16:15:27.999Z</time></trkpt><trkpt lat="45.071795638137296" lon="10.120292216082621"><ele>35.0</ele><time>2026-04-08T16:15:28.999Z</time></trkpt><trkpt lat="45.07178202526256" lon="10.12039622286888"><ele>35.0</ele><time>2026-04-08T16:15:29.999Z</time></trkpt><trkpt lat="45.07176414272504" lon="10.120497065674009"><ele>35.0</ele><time>2026-04-08T16:15:30.999Z</time></trkpt><trkpt lat="45.07174364344526" lon="10.12059905970773"><ele>35.0</ele><time>2026-04-08T16:15:31.999Z</time></trkpt><trkpt lat="45.071724820055344" lon="10.12070138323957"><ele>35.0</ele><time>2026-04-08T16:15:32.999Z</time></trkpt><trkpt lat="45.07170835201483" lon="10.120801762167412"><ele>35.0</ele><time>2026-04-08T16:15:33.999Z</time></trkpt><trkpt lat="45.07168825045663" lon="10.120900966205364"><ele>34.57142857142857</ele><time>2026-04-08T16:15:34.999Z</time></trkpt><trkpt lat="45.071667853425936" lon="10.120998474324944"><ele>34.14285714285714</ele><time>2026-04-08T16:15:35.999Z</time></trkpt><trkpt lat="45.07164872093985" lon="10.12109857803927"><ele>33.714285714285715</ele><time>2026-04-08T16:15:36.999Z</time></trkpt><trkpt lat="45.07163631159061" lon="10.121201379508733"><ele>33.285714285714285</ele><time>2026-04-08T16:15:37.999Z</time></trkpt><trkpt lat="45.07163354740045" lon="10.121304414969911"><ele>32.857142857142854</ele><time>2026-04-08T16:15:38.999Z</time></trkpt><trkpt lat="45.07164087254219" lon="10.121409780560958"><ele>32.42857142857143</ele><time>2026-04-08T16:15:39.999Z</time></trkpt><trkpt lat="45.07165838063638" lon="10.121516444596136"><ele>32.0</ele><time>2026-04-08T16:15:40.999Z</time></trkpt><trkpt lat="45.07168688448865" lon="10.121617082478524"><ele>31.833333333333332</ele><time>2026-04-08T16:15:41.999Z</time></trkpt><trkpt lat="45.07171897851222" lon="10.121714283971183"><ele>31.666666666666664</ele><time>2026-04-08T16:15:42.999Z</time></trkpt><trkpt lat="45.071747532237744" lon="10.12181460133644"><ele>31.5</ele><time>2026-04-08T16:15:43.999Z</time></trkpt><trkpt lat="45.071771471735524" lon="10.121914243920545"><ele>31.333333333333336</ele><time>2026-04-08T16:15:44.999Z</time></trkpt><trkpt lat="45.07179717334417" lon="10.12201566694786"><ele>31.166666666666668</ele><time>2026-04-08T16:15:45.999Z</time></trkpt><trkpt lat="45.07182469244338" lon="10.122114980740697"><ele>31.0</ele><time>2026-04-08T16:15:46.999Z</time></trkpt><trkpt lat="45.071850215510715" lon="10.122216291447078"><ele>31.0</ele><time>2026-04-08T16:15:47.999Z</time></trkpt><trkpt lat="45.071876309786816" lon="10.122315319230214"><ele>31.000000000000004</ele><time>2026-04-08T16:15:48.999Z</time></trkpt><trkpt lat="45.07190142394131" lon="10.122416406824305"><ele>31.0</ele><time>2026-04-08T16:15:49.999Z</time></trkpt><trkpt lat="45.0719261927568" lon="10.122516899735102"><ele>31.0</ele><time>2026-04-08T16:15:50.999Z</time></trkpt><trkpt lat="45.071953544163186" lon="10.122614455742521"><ele>31.000000000000004</ele><time>2026-04-08T16:15:51.999Z</time></trkpt><trkpt lat="45.07197965292933" lon="10.122711845906856"><ele>31.0</ele><time>2026-04-08T16:15:52.999Z</time></trkpt><trkpt lat="45.072011066807825" lon="10.122807280519325"><ele>31.0</ele><time>2026-04-08T16:15:53.999Z</time></trkpt><trkpt lat="45.0720400212992" lon="10.122904987201231"><ele>31.000000000000004</ele><time>2026-04-08T16:15:54.999Z</time></trkpt><trkpt lat="45.07206852894489" lon="10.123002176206084"><ele>31.0</ele><time>2026-04-08T16:15:55.999Z</time></trkpt><trkpt lat="45.07209734823498" lon="10.123102709409764"><ele>31.0</ele><time>2026-04-08T16:15:56.999Z</time></trkpt><trkpt lat="45.07212602530474" lon="10.123197911412191"><ele>31.0</ele><time>2026-04-08T16:15:57.999Z</time></trkpt><trkpt lat="45.07215543407183" lon="10.123296698440694"><ele>31.000000000000004</ele><time>2026-04-08T16:15:58.999Z</time></trkpt><trkpt lat="45.07218420767075" lon="10.123395123196827"><ele>31.0</ele><time>2026-04-08T16:15:59.999Z</time></trkpt><trkpt lat="45.072208782916704" lon="10.123495598947832"><ele>31.0</ele><time>2026-04-08T16:16:00.999Z</time></trkpt><trkpt lat="45.07222900767107" lon="10.123599553811351"><ele>31.000000000000004</ele><time>2026-04-08T16:16:01.999Z</time></trkpt><trkpt lat="45.07224248584327" lon="10.123703644527767"><ele>31.0</ele><time>2026-04-08T16:16:02.999Z</time></trkpt><trkpt lat="45.072250491758666" lon="10.123806749554872"><ele>31.0</ele><time>2026-04-08T16:16:03.999Z</time></trkpt><trkpt lat="45.07225307443497" lon="10.123910005157764"><ele>31.000000000000004</ele><time>2026-04-08T16:16:04.999Z</time></trkpt><trkpt lat="45.0722472363398" lon="10.12401347456206"><ele>31.0</ele><time>2026-04-08T16:16:05.999Z</time></trkpt><trkpt lat="45.07223916888486" lon="10.12411966308505"><ele>31.0</ele><time>2026-04-08T16:16:06.998Z</time></trkpt><trkpt lat="45.07223003541093" lon="10.12422495048483"><ele>31.0</ele><time>2026-04-08T16:16:07.998Z</time></trkpt><trkpt lat="45.07222060456689" lon="10.124328524972064"><ele>31.000000000000004</ele><time>2026-04-08T16:16:08.998Z</time></trkpt><trkpt lat="45.07221832232501" lon="10.124432467438362"><ele>31.0</ele><time>2026-04-08T16:16:10Z</time></trkpt><trkpt lat="45.072214459900316" lon="10.124536704070117"><ele>31.0</ele><time>2026-04-08T16:16:11Z</time></trkpt><trkpt lat="45.07221165301172" lon="10.124639995145406"><ele>31.000000000000004</ele><time>2026-04-08T16:16:12Z</time></trkpt><trkpt lat="45.072207323910625" lon="10.124746511381145"><ele>31.0</ele><time>2026-04-08T16:16:13Z</time></trkpt><trkpt lat="45.07220571059068" lon="10.124849738669925"><ele>31.0</ele><time>2026-04-08T16:16:14Z</time></trkpt><trkpt lat="45.07220364386162" lon="10.124956287427423"><ele>31.142857142857146</ele><time>2026-04-08T16:16:15Z</time></trkpt><trkpt lat="45.072204503922904" lon="10.125060430086094"><ele>31.28571428571429</ele><time>2026-04-08T16:16:16Z</time></trkpt><trkpt lat="45.07220135832593" lon="10.1251660302056"><ele>31.42857142857143</ele><time>2026-04-08T16:16:17Z</time></trkpt><trkpt lat="45.072199657562834" lon="10.125273462287373"><ele>31.57142857142857</ele><time>2026-04-08T16:16:18Z</time></trkpt><trkpt lat="45.07219649885001" lon="10.125379415883268"><ele>31.71428571428571</ele><time>2026-04-08T16:16:19Z</time></trkpt><trkpt lat="45.07219568605492" lon="10.125486824949837"><ele>31.857142857142854</ele><time>2026-04-08T16:16:20Z</time></trkpt><trkpt lat="45.07219279620619" lon="10.125590618418391"><ele>32.0</ele><time>2026-04-08T16:16:21Z</time></trkpt><trkpt lat="45.07219167735537" lon="10.125695446051669"><ele>31.833333333333332</ele><time>2026-04-08T16:16:22Z</time></trkpt><trkpt lat="45.072190127346815" lon="10.125800420375523"><ele>31.666666666666664</ele><time>2026-04-08T16:16:23Z</time></trkpt><trkpt lat="45.072188686486164" lon="10.12590645251062"><ele>31.5</ele><time>2026-04-08T16:16:24Z</time></trkpt><trkpt lat="45.072185308756474" lon="10.126013916558147"><ele>31.333333333333336</ele><time>2026-04-08T16:16:25Z</time></trkpt><trkpt lat="45.072182245349886" lon="10.126120961712157"><ele>31.166666666666668</ele><time>2026-04-08T16:16:26Z</time></trkpt><trkpt lat="45.072174694095" lon="10.126227456697139"><ele>31.0</ele><time>2026-04-08T16:16:27Z</time></trkpt><trkpt lat="45.07215882013315" lon="10.126331567245614"><ele>31.000000000000004</ele><time>2026-04-08T16:16:28Z</time></trkpt><trkpt lat="45.07213644366669" lon="10.126434276873072"><ele>31.0</ele><time>2026-04-08T16:16:29Z</time></trkpt><trkpt lat="45.0721115482869" lon="10.126536611021853"><ele>31.0</ele><time>2026-04-08T16:16:30Z</time></trkpt><trkpt lat="45.072082351155665" lon="10.126637475860802"><ele>31.0</ele><time>2026-04-08T16:16:31Z</time></trkpt><trkpt lat="45.072052855271856" lon="10.12673635856761"><ele>31.000000000000004</ele><time>2026-04-08T16:16:32Z</time></trkpt><trkpt lat="45.07202157752238" lon="10.12683578757062"><ele>31.0</ele><time>2026-04-08T16:16:33Z</time></trkpt><trkpt lat="45.07199230696044" lon="10.126936039275932"><ele>31.142857142857146</ele><time>2026-04-08T16:16:34Z</time></trkpt><trkpt lat="45.07196543403755" lon="10.127034415221953"><ele>31.28571428571429</ele><time>2026-04-08T16:16:35Z</time></trkpt><trkpt lat="45.07193754456971" lon="10.12713133118167"><ele>31.42857142857143</ele><time>2026-04-08T16:16:36Z</time></trkpt><trkpt lat="45.07190911726859" lon="10.127229745220255"><ele>31.57142857142857</ele><time>2026-04-08T16:16:37Z</time></trkpt><trkpt lat="45.0718829697829" lon="10.127326180581058"><ele>31.71428571428571</ele><time>2026-04-08T16:16:38Z</time></trkpt><trkpt lat="45.071856751364095" lon="10.127422346720463"><ele>31.857142857142854</ele><time>2026-04-08T16:16:39Z</time></trkpt><trkpt lat="45.07182898130516" lon="10.127516898520769"><ele>32.0</ele><time>2026-04-08T16:16:40Z</time></trkpt><trkpt lat="45.07180248001699" lon="10.12761369024566"><ele>32.0</ele><time>2026-04-08T16:16:41Z</time></trkpt><trkpt lat="45.071778961399794" lon="10.127710199584598"><ele>31.999999999999996</ele><time>2026-04-08T16:16:42Z</time></trkpt><trkpt lat="45.071753721246324" lon="10.127806746292789"><ele>32.0</ele><time>2026-04-08T16:16:43Z</time></trkpt><trkpt lat="45.07173087435474" lon="10.127900871718033"><ele>32.0</ele><time>2026-04-08T16:16:44Z</time></trkpt><trkpt lat="45.071707569231165" lon="10.128000113523372"><ele>31.999999999999996</ele><time>2026-04-08T16:16:45Z</time></trkpt><trkpt lat="45.071683374676056" lon="10.128096102009962"><ele>32.0</ele><time>2026-04-08T16:16:46Z</time></trkpt><trkpt lat="45.071659101837355" lon="10.128192071518722"><ele>32.0</ele><time>2026-04-08T16:16:47Z</time></trkpt><trkpt lat="45.07163346336711" lon="10.128289059808601"><ele>31.857142857142854</ele><time>2026-04-08T16:16:48Z</time></trkpt><trkpt lat="45.07161030727282" lon="10.128385952634924"><ele>31.71428571428571</ele><time>2026-04-08T16:16:49Z</time></trkpt><trkpt lat="45.07158790253175" lon="10.128484020414422"><ele>31.57142857142857</ele><time>2026-04-08T16:16:50Z</time></trkpt><trkpt lat="45.07156587408603" lon="10.128582123015965"><ele>31.42857142857143</ele><time>2026-04-08T16:16:51Z</time></trkpt><trkpt lat="45.071546932133714" lon="10.128681675820156"><ele>31.28571428571429</ele><time>2026-04-08T16:16:52Z</time></trkpt><trkpt lat="45.07152425611926" lon="10.128779757516508"><ele>31.142857142857146</ele><time>2026-04-08T16:16:53Z</time></trkpt><trkpt lat="45.07149913532224" lon="10.128877552113927"><ele>31.0</ele><time>2026-04-08T16:16:54Z</time></trkpt><trkpt lat="45.07147587708139" lon="10.128974948189322"><ele>31.0</ele><time>2026-04-08T16:16:55Z</time></trkpt><trkpt lat="45.071453596234484" lon="10.12907021694307"><ele>31.000000000000004</ele><time>2026-04-08T16:16:56Z</time></trkpt><trkpt lat="45.071431711575435" lon="10.12916599859562"><ele>31.0</ele><time>2026-04-08T16:16:57Z</time></trkpt><trkpt lat="45.07141113064301" lon="10.129264675116382"><ele>31.0</ele><time>2026-04-08T16:16:58Z</time></trkpt><trkpt lat="45.07138799757433" lon="10.129360528960957"><ele>31.000000000000004</ele><time>2026-04-08T16:16:59Z</time></trkpt><trkpt lat="45.07136755801362" lon="10.129457912933255"><ele>31.0</ele><time>2026-04-08T16:17:00Z</time></trkpt><trkpt lat="45.071345318458796" lon="10.129556310045066"><ele>31.0</ele><time>2026-04-08T16:17:01Z</time></trkpt><trkpt lat="45.07132237665434" lon="10.129651869682062"><ele>31.0</ele><time>2026-04-08T16:17:02Z</time></trkpt><trkpt lat="45.07129475366243" lon="10.129749386482766"><ele>31.000000000000004</ele><time>2026-04-08T16:17:03Z</time></trkpt><trkpt lat="45.07127081775781" lon="10.129848196688686"><ele>31.0</ele><time>2026-04-08T16:17:04Z</time></trkpt><trkpt lat="45.0712491823964" lon="10.129948001013021"><ele>31.0</ele><time>2026-04-08T16:17:05Z</time></trkpt><trkpt lat="45.071226600772995" lon="10.130047063453164"><ele>31.000000000000004</ele><time>2026-04-08T16:17:06Z</time></trkpt><trkpt lat="45.071202748721106" lon="10.130148220218526"><ele>31.0</ele><time>2026-04-08T16:17:07Z</time></trkpt><trkpt lat="45.07118055960201" lon="10.13024808040946"><ele>31.0</ele><time>2026-04-08T16:17:08Z</time></trkpt><trkpt lat="45.07115776445312" lon="10.130348024207738"><ele>31.0</ele><time>2026-04-08T16:17:09Z</time></trkpt><trkpt lat="45.071134608219616" lon="10.130445855544979"><ele>31.000000000000004</ele><time>2026-04-08T16:17:10Z</time></trkpt><trkpt lat="45.07111054038642" lon="10.13054577872526"><ele>31.0</ele><time>2026-04-08T16:17:11Z</time></trkpt><trkpt lat="45.071085945591534" lon="10.130645033535576"><ele>31.0</ele><time>2026-04-08T16:17:12Z</time></trkpt><trkpt lat="45.07106230635582" lon="10.130744426222087"><ele>31.000000000000004</ele><time>2026-04-08T16:17:13Z</time></trkpt><trkpt lat="45.07104333837819" lon="10.130840950077447"><ele>31.0</ele><time>2026-04-08T16:17:14Z</time></trkpt><trkpt lat="45.0710210352955" lon="10.130941750181822"><ele>31.0</ele><time>2026-04-08T16:17:14.999Z</time></trkpt><trkpt lat="45.070999092954715" lon="10.1310411478278"><ele>31.0</ele><time>2026-04-08T16:17:15.999Z</time></trkpt><trkpt lat="45.07097493176507" lon="10.13113802951733"><ele>31.000000000000004</ele><time>2026-04-08T16:17:16.999Z</time></trkpt><trkpt lat="45.070952723463776" lon="10.131236200082796"><ele>31.0</ele><time>2026-04-08T16:17:17.999Z</time></trkpt><trkpt lat="45.070928824535855" lon="10.131336896477087"><ele>31.0</ele><time>2026-04-08T16:17:18.999Z</time></trkpt><trkpt lat="45.07090719980454" lon="10.13143626370076"><ele>31.000000000000004</ele><time>2026-04-08T16:17:19.999Z</time></trkpt><trkpt lat="45.07088551124358" lon="10.131533674768361"><ele>31.0</ele><time>2026-04-08T16:17:20.999Z</time></trkpt><trkpt lat="45.070861622181695" lon="10.13163077983621"><ele>31.0</ele><time>2026-04-08T16:17:21.999Z</time></trkpt><trkpt lat="45.07083487453237" lon="10.131727323675763"><ele>31.0</ele><time>2026-04-08T16:17:22.999Z</time></trkpt><trkpt lat="45.07081092772116" lon="10.131823128925978"><ele>31.000000000000004</ele><time>2026-04-08T16:17:23.999Z</time></trkpt><trkpt lat="45.07078811322033" lon="10.131923656262176"><ele>31.0</ele><time>2026-04-08T16:17:24.999Z</time></trkpt><trkpt lat="45.0707662371829" lon="10.132020220704957"><ele>31.0</ele><time>2026-04-08T16:17:25.999Z</time></trkpt><trkpt lat="45.070744480338654" lon="10.132116405656376"><ele>31.000000000000004</ele><time>2026-04-08T16:17:26.999Z</time></trkpt><trkpt lat="45.07072040162745" lon="10.132214874762111"><ele>31.0</ele><time>2026-04-08T16:17:27.999Z</time></trkpt><trkpt lat="45.070698521533906" lon="10.132311456211541"><ele>31.0</ele><time>2026-04-08T16:17:28.999Z</time></trkpt><trkpt lat="45.070677004005255" lon="10.13240927563718"><ele>31.142857142857146</ele><time>2026-04-08T16:17:29.999Z</time></trkpt><trkpt lat="45.0706542668283" lon="10.132507478760914"><ele>31.28571428571429</ele><time>2026-04-08T16:17:30.999Z</time></trkpt><trkpt lat="45.07063078107142" lon="10.132601916384035"><ele>31.42857142857143</ele><time>2026-04-08T16:17:31.999Z</time></trkpt><trkpt lat="45.070606964682405" lon="10.132696076095048"><ele>31.57142857142857</ele><time>2026-04-08T16:17:32.999Z</time></trkpt><trkpt lat="45.0705838538252" lon="10.132790789143673"><ele>31.71428571428571</ele><time>2026-04-08T16:17:33.999Z</time></trkpt><trkpt lat="45.070559644510055" lon="10.132886328418753"><ele>31.857142857142854</ele><time>2026-04-08T16:17:34.999Z</time></trkpt><trkpt lat="45.07053622810294" lon="10.132980280048216"><ele>32.0</ele><time>2026-04-08T16:17:35.999Z</time></trkpt><trkpt lat="45.070510854103645" lon="10.13307581745306"><ele>32.0</ele><time>2026-04-08T16:17:36.999Z</time></trkpt><trkpt lat="45.070487078826126" lon="10.133169656474694"><ele>31.999999999999996</ele><time>2026-04-08T16:17:37.999Z</time></trkpt><trkpt lat="45.07045859637995" lon="10.133264603378128"><ele>32.0</ele><time>2026-04-08T16:17:38.999Z</time></trkpt><trkpt lat="45.07042723537267" lon="10.133355990173195"><ele>32.0</ele><time>2026-04-08T16:17:39.999Z</time></trkpt><trkpt lat="45.07039332118174" lon="10.133446500013592"><ele>31.999999999999996</ele><time>2026-04-08T16:17:40.999Z</time></trkpt><trkpt lat="45.070358256830225" lon="10.133533535687576"><ele>32.0</ele><time>2026-04-08T16:17:41.999Z</time></trkpt><trkpt lat="45.07032369063276" lon="10.133623277658353"><ele>32.0</ele><time>2026-04-08T16:17:42.999Z</time></trkpt><trkpt lat="45.07029054758579" lon="10.13371087167726"><ele>32.0</ele><time>2026-04-08T16:17:43.999Z</time></trkpt><trkpt lat="45.07025402247996" lon="10.133799796256664"><ele>31.999999999999996</ele><time>2026-04-08T16:17:44.999Z</time></trkpt><trkpt lat="45.07021576678443" lon="10.133885068281923"><ele>32.0</ele><time>2026-04-08T16:17:45.999Z</time></trkpt><trkpt lat="45.070178565325655" lon="10.133971192026845"><ele>32.0</ele><time>2026-04-08T16:17:46.999Z</time></trkpt><trkpt lat="45.07013713503748" lon="10.134054502217792"><ele>31.999999999999996</ele><time>2026-04-08T16:17:47.999Z</time></trkpt><trkpt lat="45.0701001077569" lon="10.134136781952954"><ele>32.0</ele><time>2026-04-08T16:17:48.999Z</time></trkpt><trkpt lat="45.0700607282493" lon="10.13422245309852"><ele>32.0</ele><time>2026-04-08T16:17:49.999Z</time></trkpt><trkpt lat="45.07002760541615" lon="10.1343144201704"><ele>32.0</ele><time>2026-04-08T16:17:50.999Z</time></trkpt><trkpt lat="45.070000253736666" lon="10.13440784021121"><ele>31.999999999999996</ele><time>2026-04-08T16:17:51.999Z</time></trkpt><trkpt lat="45.06998003563764" lon="10.134509651891127"><ele>32.0</ele><time>2026-04-08T16:17:52.999Z</time></trkpt><trkpt lat="45.06996921350998" lon="10.134610044300851"><ele>32.0</ele><time>2026-04-08T16:17:53.999Z</time></trkpt><trkpt lat="45.06997071573323" lon="10.134715059771473"><ele>31.999999999999996</ele><time>2026-04-08T16:17:54.999Z</time></trkpt><trkpt lat="45.06997895195439" lon="10.134818027397337"><ele>32.0</ele><time>2026-04-08T16:17:55.999Z</time></trkpt><trkpt lat="45.06998698807561" lon="10.134921791382657"><ele>32.0</ele><time>2026-04-08T16:17:56.999Z</time></trkpt><trkpt lat="45.069993776965305" lon="10.13502282779013"><ele>31.857142857142854</ele><time>2026-04-08T16:17:57.999Z</time></trkpt><trkpt lat="45.06999255189361" lon="10.135125431480857"><ele>31.71428571428571</ele><time>2026-04-08T16:17:58.999Z</time></trkpt><trkpt lat="45.06998241044254" lon="10.135228324318389"><ele>31.57142857142857</ele><time>2026-04-08T16:17:59.999Z</time></trkpt><trkpt lat="45.06996581296504" lon="10.135327182933137"><ele>31.42857142857143</ele><time>2026-04-08T16:18:00.999Z</time></trkpt><trkpt lat="45.06994209590171" lon="10.135426521604877"><ele>31.28571428571429</ele><time>2026-04-08T16:18:01.999Z</time></trkpt><trkpt lat="45.069920531717955" lon="10.135522840891355"><ele>31.142857142857146</ele><time>2026-04-08T16:18:02.999Z</time></trkpt><trkpt lat="45.0698991821386" lon="10.135620898368655"><ele>31.0</ele><time>2026-04-08T16:18:03.999Z</time></trkpt><trkpt lat="45.06987738037183" lon="10.135718643053227"><ele>31.0</ele><time>2026-04-08T16:18:04.999Z</time></trkpt><trkpt lat="45.06985417359041" lon="10.135813219937122"><ele>31.000000000000004</ele><time>2026-04-08T16:18:05.999Z</time></trkpt><trkpt lat="45.069827031117676" lon="10.135908733222271"><ele>31.0</ele><time>2026-04-08T16:18:06.999Z</time></trkpt><trkpt lat="45.06979963410249" lon="10.136004301893932"><ele>31.0</ele><time>2026-04-08T16:18:07.999Z</time></trkpt><trkpt lat="45.06977195417852" lon="10.136099595781292"><ele>31.000000000000004</ele><time>2026-04-08T16:18:08.999Z</time></trkpt><trkpt lat="45.0697438746021" lon="10.13619542193634"><ele>31.0</ele><time>2026-04-08T16:18:09.999Z</time></trkpt><trkpt lat="45.0697147799518" lon="10.136289897030148"><ele>31.0</ele><time>2026-04-08T16:18:10.998Z</time></trkpt><trkpt lat="45.069682304627236" lon="10.136382648805712"><ele>31.0</ele><time>2026-04-08T16:18:11.998Z</time></trkpt><trkpt lat="45.06965024588829" lon="10.136475884753402"><ele>31.000000000000004</ele><time>2026-04-08T16:18:12.998Z</time></trkpt><trkpt lat="45.06961708183188" lon="10.136569387725984"><ele>31.0</ele><time>2026-04-08T16:18:13.998Z</time></trkpt><trkpt lat="45.06958439912031" lon="10.136664347766319"><ele>31.0</ele><time>2026-04-08T16:18:15Z</time></trkpt><trkpt lat="45.06955720120958" lon="10.136762286496541"><ele>31.000000000000004</ele><time>2026-04-08T16:18:16Z</time></trkpt><trkpt lat="45.069538560175445" lon="10.136863627867934"><ele>31.0</ele><time>2026-04-08T16:18:17Z</time></trkpt><trkpt lat="45.06952569831273" lon="10.1369657242554"><ele>31.0</ele><time>2026-04-08T16:18:18Z</time></trkpt><trkpt lat="45.069514060821305" lon="10.137069080945828"><ele>30.857142857142858</ele><time>2026-04-08T16:18:19Z</time></trkpt><trkpt lat="45.06950114504704" lon="10.137174127601089"><ele>30.714285714285715</ele><time>2026-04-08T16:18:20Z</time></trkpt><trkpt lat="45.06948903280987" lon="10.13727505699074"><ele>30.571428571428573</ele><time>2026-04-08T16:18:21Z</time></trkpt><trkpt lat="45.069478747630235" lon="10.137378910852851"><ele>30.42857142857143</ele><time>2026-04-08T16:18:22Z</time></trkpt><trkpt lat="45.06947092604214" lon="10.137481980607117"><ele>30.285714285714285</ele><time>2026-04-08T16:18:23Z</time></trkpt><trkpt lat="45.06946498174997" lon="10.137587778865086"><ele>30.142857142857146</ele><time>2026-04-08T16:18:24Z</time></trkpt><trkpt lat="45.06945870399041" lon="10.137690680803637"><ele>30.0</ele><time>2026-04-08T16:18:25Z</time></trkpt><trkpt lat="45.06945207628473" lon="10.137793906847218"><ele>30.142857142857146</ele><time>2026-04-08T16:18:26Z</time></trkpt><trkpt lat="45.069446901478486" lon="10.137897687388666"><ele>30.285714285714285</ele><time>2026-04-08T16:18:27Z</time></trkpt><trkpt lat="45.069445815774976" lon="10.138002879879554"><ele>30.42857142857143</ele><time>2026-04-08T16:18:28Z</time></trkpt><trkpt lat="45.069445562424114" lon="10.138107315279935"><ele>30.571428571428573</ele><time>2026-04-08T16:18:29Z</time></trkpt><trkpt lat="45.06944369773085" lon="10.138210089968734"><ele>30.714285714285715</ele><time>2026-04-08T16:18:30Z</time></trkpt><trkpt lat="45.06944188516124" lon="10.13831120941434"><ele>30.857142857142858</ele><time>2026-04-08T16:18:31Z</time></trkpt><trkpt lat="45.06943734830856" lon="10.138415683190004"><ele>31.0</ele><time>2026-04-08T16:18:32Z</time></trkpt><trkpt lat="45.06943449618359" lon="10.138517714029685"><ele>31.0</ele><time>2026-04-08T16:18:33Z</time></trkpt><trkpt lat="45.069432043041374" lon="10.138619177967527"><ele>31.000000000000004</ele><time>2026-04-08T16:18:34Z</time></trkpt><trkpt lat="45.06942845181168" lon="10.138722144335729"><ele>31.0</ele><time>2026-04-08T16:18:35Z</time></trkpt><trkpt lat="45.06942274503645" lon="10.13882253608119"><ele>31.0</ele><time>2026-04-08T16:18:36Z</time></trkpt><trkpt lat="45.06941661878215" lon="10.138924599831473"><ele>31.000000000000004</ele><time>2026-04-08T16:18:37Z</time></trkpt><trkpt lat="45.069414236599805" lon="10.139026853338562"><ele>31.0</ele><time>2026-04-08T16:18:38Z</time></trkpt><trkpt lat="45.069411255359284" lon="10.139127190368663"><ele>31.0</ele><time>2026-04-08T16:18:39Z</time></trkpt><trkpt lat="45.069406410875544" lon="10.139227665163693"><ele>31.0</ele><time>2026-04-08T16:18:40Z</time></trkpt><trkpt lat="45.0694046200978" lon="10.139330003657316"><ele>31.000000000000004</ele><time>2026-04-08T16:18:41Z</time></trkpt><trkpt lat="45.06940566649268" lon="10.139431374478757"><ele>31.0</ele><time>2026-04-08T16:18:42Z</time></trkpt><trkpt lat="45.06941670083415" lon="10.139534892700734"><ele>31.0</ele><time>2026-04-08T16:18:43Z</time></trkpt><trkpt lat="45.069440080964455" lon="10.139635671070812"><ele>31.000000000000004</ele><time>2026-04-08T16:18:44Z</time></trkpt><trkpt lat="45.0694701455831" lon="10.139731691367663"><ele>31.0</ele><time>2026-04-08T16:18:45Z</time></trkpt><trkpt lat="45.06950133252805" lon="10.13982704310146"><ele>31.0</ele><time>2026-04-08T16:18:46Z</time></trkpt><trkpt lat="45.06953232867696" lon="10.139920491304006"><ele>31.142857142857146</ele><time>2026-04-08T16:18:47Z</time></trkpt><trkpt lat="45.06956423514444" lon="10.140010904805814"><ele>31.28571428571429</ele><time>2026-04-08T16:18:48Z</time></trkpt><trkpt lat="45.069597115805365" lon="10.140104155149707"><ele>31.42857142857143</ele><time>2026-04-08T16:18:49Z</time></trkpt><trkpt lat="45.069627754504545" lon="10.140197185696426"><ele>31.57142857142857</ele><time>2026-04-08T16:18:50Z</time></trkpt><trkpt lat="45.06966107866284" lon="10.140290345978602"><ele>31.71428571428571</ele><time>2026-04-08T16:18:51Z</time></trkpt><trkpt lat="45.06969271045369" lon="10.140383409772745"><ele>31.857142857142854</ele><time>2026-04-08T16:18:52Z</time></trkpt><trkpt lat="45.069728374998526" lon="10.140473584319968"><ele>32.0</ele><time>2026-04-08T16:18:53Z</time></trkpt><trkpt lat="45.069768978825344" lon="10.14056067634575"><ele>32.0</ele><time>2026-04-08T16:18:54Z</time></trkpt><trkpt lat="45.06981210066774" lon="10.140642928270818"><ele>31.999999999999996</ele><time>2026-04-08T16:18:55Z</time></trkpt><trkpt lat="45.069856546687454" lon="10.140723808747031"><ele>32.0</ele><time>2026-04-08T16:18:56Z</time></trkpt><trkpt lat="45.06990188091054" lon="10.140806725276478"><ele>32.0</ele><time>2026-04-08T16:18:57Z</time></trkpt><trkpt lat="45.06994813907567" lon="10.14088962072467"><ele>31.999999999999996</ele><time>2026-04-08T16:18:58Z</time></trkpt><trkpt lat="45.06999290958304" lon="10.140971308432356"><ele>32.0</ele><time>2026-04-08T16:18:59Z</time></trkpt><trkpt lat="45.070034891398414" lon="10.141056275327829"><ele>32.0</ele><time>2026-04-08T16:19:00Z</time></trkpt><trkpt lat="45.07007569637543" lon="10.141146734139074"><ele>32.14285714285714</ele><time>2026-04-08T16:19:01Z</time></trkpt><trkpt lat="45.070116285273876" lon="10.141233830100292"><ele>32.285714285714285</ele><time>2026-04-08T16:19:02Z</time></trkpt><trkpt lat="45.070142962875636" lon="10.141334128123695"><ele>32.42857142857143</ele><time>2026-04-08T16:19:03Z</time></trkpt><trkpt lat="45.07017411015443" lon="10.141425919362003"><ele>32.57142857142857</ele><time>2026-04-08T16:19:04Z</time></trkpt><trkpt lat="45.07019925838962" lon="10.141521261969272"><ele>32.714285714285715</ele><time>2026-04-08T16:19:05Z</time></trkpt><trkpt lat="45.07022232805685" lon="10.14162094035595"><ele>32.857142857142854</ele><time>2026-04-08T16:19:06Z</time></trkpt><trkpt lat="45.07020909429129" lon="10.141728598498004"><ele>33.0</ele><time>2026-04-08T16:19:07Z</time></trkpt><trkpt lat="45.07018137025848" lon="10.141830314972294"><ele>33.0</ele><time>2026-04-08T16:19:08Z</time></trkpt><trkpt lat="45.07015373396191" lon="10.141931092751571"><ele>33.0</ele><time>2026-04-08T16:19:09Z</time></trkpt><trkpt lat="45.07013946223278" lon="10.14203769999973"><ele>33.0</ele><time>2026-04-08T16:19:10Z</time></trkpt><trkpt lat="45.07015059823545" lon="10.14214449528986"><ele>33.0</ele><time>2026-04-08T16:19:11Z</time></trkpt><trkpt lat="45.07018424596509" lon="10.142243326137509"><ele>33.0</ele><time>2026-04-08T16:19:12Z</time></trkpt><trkpt lat="45.070230994834965" lon="10.14233055482406"><ele>33.0</ele><time>2026-04-08T16:19:13Z</time></trkpt><trkpt lat="45.07028038814593" lon="10.142414925223129"><ele>32.5</ele><time>2026-04-08T16:19:14Z</time></trkpt><trkpt lat="45.07030968210049" lon="10.142512501925818"><ele>32.0</ele><time>2026-04-08T16:19:15Z</time></trkpt><trkpt lat="45.070301762036244" lon="10.142623238332057"><ele>31.5</ele><time>2026-04-08T16:19:16Z</time></trkpt><trkpt lat="45.07024245761731" lon="10.14270773298586"><ele>31.0</ele><time>2026-04-08T16:19:17Z</time></trkpt><trkpt lat="45.07020815721448" lon="10.142804963060778"><ele>30.5</ele><time>2026-04-08T16:19:18Z</time></trkpt><trkpt lat="45.0701577713736" lon="10.142883324721534"><ele>30.0</ele><time>2026-04-08T16:19:18.999Z</time></trkpt><trkpt lat="45.07010996398207" lon="10.142961074030943"><ele>30.0</ele><time>2026-04-08T16:19:19.999Z</time></trkpt><trkpt lat="45.070063343177665" lon="10.143043151942901"><ele>30.0</ele><time>2026-04-08T16:19:20.999Z</time></trkpt><trkpt lat="45.0700197995196" lon="10.143128501425377"><ele>30.0</ele><time>2026-04-08T16:19:21.999Z</time></trkpt><trkpt lat="45.06997502008779" lon="10.143211714961618"><ele>30.0</ele><time>2026-04-08T16:19:22.999Z</time></trkpt><trkpt lat="45.06992762460143" lon="10.143289123513771"><ele>30.0</ele><time>2026-04-08T16:19:23.999Z</time></trkpt><trkpt lat="45.069876772519805" lon="10.143364818843827"><ele>30.0</ele><time>2026-04-08T16:19:24.999Z</time></trkpt><trkpt lat="45.069820884001224" lon="10.143435303924335"><ele>30.0</ele><time>2026-04-08T16:19:25.999Z</time></trkpt><trkpt lat="45.06976245194271" lon="10.143496560245094"><ele>30.0</ele><time>2026-04-08T16:19:26.999Z</time></trkpt><trkpt lat="45.06969818692278" lon="10.143548534219411"><ele>30.0</ele><time>2026-04-08T16:19:27.999Z</time></trkpt><trkpt lat="45.06963068915366" lon="10.143594683306643"><ele>30.0</ele><time>2026-04-08T16:19:28.999Z</time></trkpt><trkpt lat="45.069562555913286" lon="10.143636979421727"><ele>30.0</ele><time>2026-04-08T16:19:29.999Z</time></trkpt><trkpt lat="45.06949669547077" lon="10.143681166012442"><ele>30.0</ele><time>2026-04-08T16:19:30.999Z</time></trkpt><trkpt lat="45.069430478574525" lon="10.143726583523629"><ele>30.0</ele><time>2026-04-08T16:19:31.999Z</time></trkpt><trkpt lat="45.06936306688755" lon="10.143774677815665"><ele>30.0</ele><time>2026-04-08T16:19:32.999Z</time></trkpt><trkpt lat="45.069296573573666" lon="10.14382227126533"><ele>30.0</ele><time>2026-04-08T16:19:33.999Z</time></trkpt><trkpt lat="45.06923338132754" lon="10.143876592695849"><ele>30.0</ele><time>2026-04-08T16:19:34.999Z</time></trkpt><trkpt lat="45.06917546681379" lon="10.143938296810104"><ele>30.0</ele><time>2026-04-08T16:19:35.999Z</time></trkpt><trkpt lat="45.06912262681364" lon="10.144013913458108"><ele>30.0</ele><time>2026-04-08T16:19:36.999Z</time></trkpt><trkpt lat="45.069085891423946" lon="10.144107813767775"><ele>30.0</ele><time>2026-04-08T16:19:37.999Z</time></trkpt><trkpt lat="45.06906594588253" lon="10.14421370751463"><ele>30.0</ele><time>2026-04-08T16:19:38.999Z</time></trkpt><trkpt lat="45.06905937147557" lon="10.144319526696856"><ele>30.0</ele><time>2026-04-08T16:19:39.999Z</time></trkpt><trkpt lat="45.06905586464281" lon="10.144426956074156"><ele>30.0</ele><time>2026-04-08T16:19:40.999Z</time></trkpt><trkpt lat="45.06905179204848" lon="10.144530261084284"><ele>30.0</ele><time>2026-04-08T16:19:41.999Z</time></trkpt><trkpt lat="45.06904614399777" lon="10.144637673143533"><ele>30.0</ele><time>2026-04-08T16:19:42.999Z</time></trkpt><trkpt lat="45.06903955057797" lon="10.144740569414807"><ele>30.0</ele><time>2026-04-08T16:19:43.999Z</time></trkpt><trkpt lat="45.06903400860769" lon="10.144845806102019"><ele>30.0</ele><time>2026-04-08T16:19:44.999Z</time></trkpt><trkpt lat="45.06902787310151" lon="10.144948180225132"><ele>30.0</ele><time>2026-04-08T16:19:45.999Z</time></trkpt><trkpt lat="45.069020818492966" lon="10.145051241756413"><ele>30.285714285714285</ele><time>2026-04-08T16:19:46.999Z</time></trkpt><trkpt lat="45.06901700303304" lon="10.145155168574004"><ele>30.57142857142857</ele><time>2026-04-08T16:19:47.999Z</time></trkpt><trkpt lat="45.06901310449617" lon="10.14525913489641"><ele>30.857142857142854</ele><time>2026-04-08T16:19:48.999Z</time></trkpt><trkpt lat="45.069014430512134" lon="10.145362815431582"><ele>31.142857142857142</ele><time>2026-04-08T16:19:49.999Z</time></trkpt><trkpt lat="45.06901495973763" lon="10.14547051071579"><ele>31.428571428571423</ele><time>2026-04-08T16:19:50.999Z</time></trkpt><trkpt lat="45.069013860492625" lon="10.14557695104642"><ele>31.71428571428571</ele><time>2026-04-08T16:19:51.999Z</time></trkpt><trkpt lat="45.069012477502596" lon="10.145681709721961"><ele>32.0</ele><time>2026-04-08T16:19:52.999Z</time></trkpt><trkpt lat="45.0690073287033" lon="10.14578608964764"><ele>32.14285714285714</ele><time>2026-04-08T16:19:53.999Z</time></trkpt><trkpt lat="45.06897409732578" lon="10.145882376353407"><ele>32.285714285714285</ele><time>2026-04-08T16:19:54.999Z</time></trkpt><trkpt lat="45.06893918071212" lon="10.145969310305587"><ele>32.42857142857143</ele><time>2026-04-08T16:19:55.999Z</time></trkpt><trkpt lat="45.06889645544497" lon="10.146052421219544"><ele>32.57142857142857</ele><time>2026-04-08T16:19:56.999Z</time></trkpt><trkpt lat="45.06884990041889" lon="10.146131413874642"><ele>32.714285714285715</ele><time>2026-04-08T16:19:57.999Z</time></trkpt><trkpt lat="45.06881355732125" lon="10.146222410790024"><ele>32.857142857142854</ele><time>2026-04-08T16:19:58.999Z</time></trkpt><trkpt lat="45.06877388828995" lon="10.146307248590407"><ele>33.0</ele><time>2026-04-08T16:19:59.999Z</time></trkpt><trkpt lat="45.06874005247442" lon="10.146397984379586"><ele>33.0</ele><time>2026-04-08T16:20:00.999Z</time></trkpt><trkpt lat="45.06871564081332" lon="10.14649701588531"><ele>33.0</ele><time>2026-04-08T16:20:01.999Z</time></trkpt><trkpt lat="45.068712205391584" lon="10.146601429030174"><ele>33.0</ele><time>2026-04-08T16:20:02.999Z</time></trkpt><trkpt lat="45.06871201000961" lon="10.146707218560113"><ele>33.0</ele><time>2026-04-08T16:20:03.999Z</time></trkpt><trkpt lat="45.06871727976867" lon="10.146812046207794"><ele>33.0</ele><time>2026-04-08T16:20:04.999Z</time></trkpt><trkpt lat="45.068734147663186" lon="10.146915943593754"><ele>33.0</ele><time>2026-04-08T16:20:05.999Z</time></trkpt><trkpt lat="45.06875997369054" lon="10.147015106543163"><ele>33.0</ele><time>2026-04-08T16:20:06.999Z</time></trkpt><trkpt lat="45.06879390707274" lon="10.14710891556041"><ele>33.0</ele><time>2026-04-08T16:20:07.999Z</time></trkpt><trkpt lat="45.068831905954454" lon="10.147198204579942"><ele>33.0</ele><time>2026-04-08T16:20:08.999Z</time></trkpt><trkpt lat="45.06886689462468" lon="10.147290463743031"><ele>33.0</ele><time>2026-04-08T16:20:09.999Z</time></trkpt><trkpt lat="45.06888768431763" lon="10.147390884114191"><ele>33.0</ele><time>2026-04-08T16:20:10.999Z</time></trkpt><trkpt lat="45.06887468951499" lon="10.147497574529753"><ele>33.0</ele><time>2026-04-08T16:20:11.999Z</time></trkpt><trkpt lat="45.06888684850066" lon="10.147602916431829"><ele>33.0</ele><time>2026-04-08T16:20:12.999Z</time></trkpt><trkpt lat="45.06887694719171" lon="10.14770880245244"><ele>33.0</ele><time>2026-04-08T16:20:13.999Z</time></trkpt><trkpt lat="45.068867846546475" lon="10.14781374311971"><ele>33.0</ele><time>2026-04-08T16:20:14.998Z</time></trkpt><trkpt lat="45.068859735523034" lon="10.147918689866291"><ele>33.0</ele><time>2026-04-08T16:20:15.998Z</time></trkpt><trkpt lat="45.06885393251259" lon="10.148026625606526"><ele>33.0</ele><time>2026-04-08T16:20:16.998Z</time></trkpt><trkpt lat="45.06884907000439" lon="10.148133063985702"><ele>33.0</ele><time>2026-04-08T16:20:17.998Z</time></trkpt><trkpt lat="45.068841636569" lon="10.148238799034473"><ele>33.0</ele><time>2026-04-08T16:20:18.998Z</time></trkpt><trkpt lat="45.06883255406313" lon="10.148340838370009"><ele>33.0</ele><time>2026-04-08T16:20:19.998Z</time></trkpt><trkpt lat="45.06881862254568" lon="10.148446546530419"><ele>32.857142857142854</ele><time>2026-04-08T16:20:21Z</time></trkpt><trkpt lat="45.068803635992126" lon="10.148549220919701"><ele>32.714285714285715</ele><time>2026-04-08T16:20:22Z</time></trkpt><trkpt lat="45.068784769426635" lon="10.148652629464966"><ele>32.57142857142857</ele><time>2026-04-08T16:20:23Z</time></trkpt><trkpt lat="45.06876384469436" lon="10.148750904613225"><ele>32.42857142857143</ele><time>2026-04-08T16:20:24Z</time></trkpt><trkpt lat="45.06874041018693" lon="10.148850639403607"><ele>32.285714285714285</ele><time>2026-04-08T16:20:25Z</time></trkpt><trkpt lat="45.06871314823905" lon="10.14895063043819"><ele>32.14285714285714</ele><time>2026-04-08T16:20:26Z</time></trkpt><trkpt lat="45.068686226004864" lon="10.1490498707128"><ele>32.0</ele><time>2026-04-08T16:20:27Z</time></trkpt><trkpt lat="45.06865945708084" lon="10.149148900821126"><ele>31.857142857142854</ele><time>2026-04-08T16:20:28Z</time></trkpt><trkpt lat="45.0686369907536" lon="10.149248547203461"><ele>31.71428571428571</ele><time>2026-04-08T16:20:29Z</time></trkpt><trkpt lat="45.06861958174246" lon="10.149351575174023"><ele>31.57142857142857</ele><time>2026-04-08T16:20:30Z</time></trkpt><trkpt lat="45.0686039644711" lon="10.149453350443666"><ele>31.42857142857143</ele><time>2026-04-08T16:20:31Z</time></trkpt><trkpt lat="45.06858565447442" lon="10.149553592291257"><ele>31.28571428571429</ele><time>2026-04-08T16:20:32Z</time></trkpt><trkpt lat="45.06856333790144" lon="10.14965290504202"><ele>31.142857142857146</ele><time>2026-04-08T16:20:33Z</time></trkpt><trkpt lat="45.06853690708862" lon="10.149750153459761"><ele>31.0</ele><time>2026-04-08T16:20:34Z</time></trkpt><trkpt lat="45.06850702554117" lon="10.149844030974371"><ele>31.0</ele><time>2026-04-08T16:20:35Z</time></trkpt><trkpt lat="45.06847073642542" lon="10.149933838097926"><ele>31.000000000000004</ele><time>2026-04-08T16:20:36Z</time></trkpt><trkpt lat="45.068432998116116" lon="10.150023101917782"><ele>31.0</ele><time>2026-04-08T16:20:37Z</time></trkpt><trkpt lat="45.068394899323295" lon="10.15011358412047"><ele>31.0</ele><time>2026-04-08T16:20:38Z</time></trkpt><trkpt lat="45.06835797154089" lon="10.150204948884317"><ele>31.000000000000004</ele><time>2026-04-08T16:20:39Z</time></trkpt><trkpt lat="45.06831784066996" lon="10.150292039099982"><ele>31.0</ele><time>2026-04-08T16:20:40Z</time></trkpt><trkpt lat="45.068283490129296" lon="10.150380445874585"><ele>31.0</ele><time>2026-04-08T16:20:41Z</time></trkpt><trkpt lat="45.06825111043634" lon="10.150474204050917"><ele>31.0</ele><time>2026-04-08T16:20:42Z</time></trkpt><trkpt lat="45.068217443201476" lon="10.15056832844587"><ele>31.000000000000004</ele><time>2026-04-08T16:20:43Z</time></trkpt><trkpt lat="45.06818496275943" lon="10.150663733190285"><ele>31.0</ele><time>2026-04-08T16:20:44Z</time></trkpt><trkpt lat="45.06815057794421" lon="10.150756086998902"><ele>31.0</ele><time>2026-04-08T16:20:45Z</time></trkpt><trkpt lat="45.068113962317376" lon="10.150844633722473"><ele>31.000000000000004</ele><time>2026-04-08T16:20:46Z</time></trkpt><trkpt lat="45.06807358699773" lon="10.150932807178545"><ele>31.0</ele><time>2026-04-08T16:20:47Z</time></trkpt><trkpt lat="45.06803066605007" lon="10.151016594545986"><ele>31.0</ele><time>2026-04-08T16:20:48Z</time></trkpt><trkpt lat="45.06798462205721" lon="10.151100149427643"><ele>31.0</ele><time>2026-04-08T16:20:49Z</time></trkpt><trkpt lat="45.067942188854026" lon="10.151185187803032"><ele>31.000000000000004</ele><time>2026-04-08T16:20:50Z</time></trkpt><trkpt lat="45.067898970619986" lon="10.151273300295587"><ele>31.0</ele><time>2026-04-08T16:20:51Z</time></trkpt><trkpt lat="45.067857553971926" lon="10.15135902842011"><ele>31.0</ele><time>2026-04-08T16:20:52Z</time></trkpt><trkpt lat="45.067817896233606" lon="10.151445921582736"><ele>31.000000000000004</ele><time>2026-04-08T16:20:53Z</time></trkpt><trkpt lat="45.0677851357947" lon="10.151538579180881"><ele>31.0</ele><time>2026-04-08T16:20:54Z</time></trkpt><trkpt lat="45.067760970940974" lon="10.151635047265005"><ele>31.0</ele><time>2026-04-08T16:20:55Z</time></trkpt><trkpt lat="45.06774473270328" lon="10.151735640929228"><ele>31.0</ele><time>2026-04-08T16:20:56Z</time></trkpt><trkpt lat="45.067739704800076" lon="10.151837820266792"><ele>31.000000000000004</ele><time>2026-04-08T16:20:57Z</time></trkpt><trkpt lat="45.06774226393735" lon="10.151942118020257"><ele>31.0</ele><time>2026-04-08T16:20:58Z</time></trkpt><trkpt lat="45.067749020045966" lon="10.152047923781806"><ele>31.0</ele><time>2026-04-08T16:20:59Z</time></trkpt><trkpt lat="45.06775642862943" lon="10.152147390321318"><ele>31.000000000000004</ele><time>2026-04-08T16:21:00Z</time></trkpt><trkpt lat="45.0677691956438" lon="10.15225177480136"><ele>31.0</ele><time>2026-04-08T16:21:01Z</time></trkpt><trkpt lat="45.067791459675526" lon="10.15235288795095"><ele>31.0</ele><time>2026-04-08T16:21:02Z</time></trkpt><trkpt lat="45.06781910948385" lon="10.152450532849755"><ele>31.28571428571429</ele><time>2026-04-08T16:21:03Z</time></trkpt><trkpt lat="45.067849486905175" lon="10.15254715090809"><ele>31.571428571428577</ele><time>2026-04-08T16:21:04Z</time></trkpt><trkpt lat="45.06787486973721" lon="10.15264560316011"><ele>31.857142857142858</ele><time>2026-04-08T16:21:05Z</time></trkpt><trkpt lat="45.067887956214975" lon="10.152747421673228"><ele>32.142857142857146</ele><time>2026-04-08T16:21:06Z</time></trkpt><trkpt lat="45.06787909894003" lon="10.152853551633495"><ele>32.42857142857143</ele><time>2026-04-08T16:21:07Z</time></trkpt><trkpt lat="45.06785008353646" lon="10.152950244330354"><ele>32.714285714285715</ele><time>2026-04-08T16:21:08Z</time></trkpt><trkpt lat="45.06780585335546" lon="10.153038679701023"><ele>33.0</ele><time>2026-04-08T16:21:09Z</time></trkpt><trkpt lat="45.067759758421055" lon="10.153120269083809"><ele>33.0</ele><time>2026-04-08T16:21:10Z</time></trkpt><trkpt lat="45.06771398110011" lon="10.153196529731787"><ele>33.0</ele><time>2026-04-08T16:21:11Z</time></trkpt><trkpt lat="45.06766702734296" lon="10.153276595988723"><ele>33.0</ele><time>2026-04-08T16:21:12Z</time></trkpt><trkpt lat="45.0676225381734" lon="10.15335515083201"><ele>33.0</ele><time>2026-04-08T16:21:13Z</time></trkpt><trkpt lat="45.06757758260254" lon="10.153434961356817"><ele>33.0</ele><time>2026-04-08T16:21:14Z</time></trkpt><trkpt lat="45.067528727275885" lon="10.153512415963116"><ele>33.0</ele><time>2026-04-08T16:21:15Z</time></trkpt><trkpt lat="45.067479291346835" lon="10.153586354703942"><ele>33.0</ele><time>2026-04-08T16:21:16Z</time></trkpt><trkpt lat="45.067427723846805" lon="10.153659489767005"><ele>32.714285714285715</ele><time>2026-04-08T16:21:17Z</time></trkpt><trkpt lat="45.067377554633055" lon="10.153733944090005"><ele>32.42857142857143</ele><time>2026-04-08T16:21:18Z</time></trkpt><trkpt lat="45.06732338283278" lon="10.15380703874509"><ele>32.142857142857146</ele><time>2026-04-08T16:21:19Z</time></trkpt><trkpt lat="45.0672680179882" lon="10.153875406796796"><ele>31.857142857142858</ele><time>2026-04-08T16:21:20Z</time></trkpt><trkpt lat="45.067212296120914" lon="10.15393718133029"><ele>31.571428571428577</ele><time>2026-04-08T16:21:21Z</time></trkpt><trkpt lat="45.06715157207118" lon="10.153997094523861"><ele>31.28571428571429</ele><time>2026-04-08T16:21:21.999Z</time></trkpt><trkpt lat="45.06708869588221" lon="10.154052306955311"><ele>31.0</ele><time>2026-04-08T16:21:22.999Z</time></trkpt><trkpt lat="45.06702641504458" lon="10.154105418160025"><ele>31.000000000000004</ele><time>2026-04-08T16:21:23.999Z</time></trkpt><trkpt lat="45.066959209142546" lon="10.154155126874157"><ele>31.0</ele><time>2026-04-08T16:21:24.999Z</time></trkpt><trkpt lat="45.066889941649734" lon="10.154199010880331"><ele>31.0</ele><time>2026-04-08T16:21:25.999Z</time></trkpt><trkpt lat="45.06682189383108" lon="10.154241288773006"><ele>31.0</ele><time>2026-04-08T16:21:26.999Z</time></trkpt><trkpt lat="45.0667548014771" lon="10.15429173718146"><ele>31.000000000000004</ele><time>2026-04-08T16:21:27.999Z</time></trkpt><trkpt lat="45.06669562020156" lon="10.154355835839214"><ele>31.0</ele><time>2026-04-08T16:21:28.999Z</time></trkpt><trkpt lat="45.06664426326847" lon="10.1544310953594"><ele>31.0</ele><time>2026-04-08T16:21:29.999Z</time></trkpt><trkpt lat="45.066601594009185" lon="10.154517977403616"><ele>31.000000000000004</ele><time>2026-04-08T16:21:30.999Z</time></trkpt><trkpt lat="45.066561702549656" lon="10.154605382608635"><ele>31.0</ele><time>2026-04-08T16:21:31.999Z</time></trkpt><trkpt lat="45.066518887587414" lon="10.15469255585872"><ele>31.0</ele><time>2026-04-08T16:21:32.999Z</time></trkpt><trkpt lat="45.066480181728124" lon="10.154778751917362"><ele>31.000000000000004</ele><time>2026-04-08T16:21:33.999Z</time></trkpt><trkpt lat="45.066440724487656" lon="10.15486500564555"><ele>31.0</ele><time>2026-04-08T16:21:34.999Z</time></trkpt><trkpt lat="45.06640076303535" lon="10.1549511823735"><ele>31.0</ele><time>2026-04-08T16:21:35.999Z</time></trkpt><trkpt lat="45.06635909088432" lon="10.15503579086462"><ele>31.0</ele><time>2026-04-08T16:21:36.999Z</time></trkpt><trkpt lat="45.066316292236976" lon="10.155116524402096"><ele>31.000000000000004</ele><time>2026-04-08T16:21:37.999Z</time></trkpt><trkpt lat="45.06627152483813" lon="10.155194988542847"><ele>31.0</ele><time>2026-04-08T16:21:38.999Z</time></trkpt><trkpt lat="45.066230370676806" lon="10.155273906479652"><ele>31.0</ele><time>2026-04-08T16:21:39.999Z</time></trkpt><trkpt lat="45.066186943217495" lon="10.15535881310276"><ele>31.000000000000004</ele><time>2026-04-08T16:21:40.999Z</time></trkpt><trkpt lat="45.06614091868317" lon="10.155433901847138"><ele>31.0</ele><time>2026-04-08T16:21:41.999Z</time></trkpt><trkpt lat="45.06608966747584" lon="10.15551193748643"><ele>31.0</ele><time>2026-04-08T16:21:42.999Z</time></trkpt><trkpt lat="45.06604123818429" lon="10.155585725227258"><ele>31.0</ele><time>2026-04-08T16:21:43.999Z</time></trkpt><trkpt lat="45.06599226075221" lon="10.155662401451943"><ele>31.000000000000004</ele><time>2026-04-08T16:21:44.999Z</time></trkpt><trkpt lat="45.06594341500539" lon="10.155735220196833"><ele>31.0</ele><time>2026-04-08T16:21:45.999Z</time></trkpt><trkpt lat="45.06589345175906" lon="10.155805931762549"><ele>31.0</ele><time>2026-04-08T16:21:46.999Z</time></trkpt><trkpt lat="45.06584564190506" lon="10.155879330131516"><ele>31.000000000000004</ele><time>2026-04-08T16:21:47.999Z</time></trkpt><trkpt lat="45.06579694633294" lon="10.15595743811516"><ele>31.0</ele><time>2026-04-08T16:21:48.999Z</time></trkpt><trkpt lat="45.06575244719415" lon="10.156036585564083"><ele>31.0</ele><time>2026-04-08T16:21:49.999Z</time></trkpt><trkpt lat="45.065711048639514" lon="10.156122125773557"><ele>31.0</ele><time>2026-04-08T16:21:50.999Z</time></trkpt><trkpt lat="45.065675801285984" lon="10.15620919010541"><ele>31.000000000000004</ele><time>2026-04-08T16:21:51.999Z</time></trkpt><trkpt lat="45.06564591211963" lon="10.156301000688678"><ele>31.0</ele><time>2026-04-08T16:21:52.999Z</time></trkpt><trkpt lat="45.06561799555878" lon="10.156393066203746"><ele>31.0</ele><time>2026-04-08T16:21:53.999Z</time></trkpt><trkpt lat="45.06558570712689" lon="10.156486730572334"><ele>31.000000000000004</ele><time>2026-04-08T16:21:54.999Z</time></trkpt><trkpt lat="45.06555532668262" lon="10.1565736453202"><ele>31.0</ele><time>2026-04-08T16:21:55.999Z</time></trkpt><trkpt lat="45.06552305048483" lon="10.156663919404101"><ele>31.0</ele><time>2026-04-08T16:21:56.999Z</time></trkpt><trkpt lat="45.065490320523956" lon="10.156750605625211"><ele>31.0</ele><time>2026-04-08T16:21:57.999Z</time></trkpt><trkpt lat="45.06545547143571" lon="10.156839410350715"><ele>31.000000000000004</ele><time>2026-04-08T16:21:58.999Z</time></trkpt><trkpt lat="45.06541730864946" lon="10.156927833594649"><ele>31.0</ele><time>2026-04-08T16:21:59.999Z</time></trkpt><trkpt lat="45.06537639088246" lon="10.157010223592486"><ele>31.0</ele><time>2026-04-08T16:22:00.999Z</time></trkpt><trkpt lat="45.06532625403562" lon="10.15708729966413"><ele>31.000000000000004</ele><time>2026-04-08T16:22:01.999Z</time></trkpt><trkpt lat="45.06527488447807" lon="10.157160649608896"><ele>31.0</ele><time>2026-04-08T16:22:02.999Z</time></trkpt><trkpt lat="45.06522186244955" lon="10.157232252272154"><ele>31.0</ele><time>2026-04-08T16:22:03.999Z</time></trkpt><trkpt lat="45.065168053497345" lon="10.157299907610984"><ele>31.0</ele><time>2026-04-08T16:22:04.999Z</time></trkpt><trkpt lat="45.06511344507049" lon="10.157364283997566"><ele>31.000000000000004</ele><time>2026-04-08T16:22:05.999Z</time></trkpt><trkpt lat="45.065055641379196" lon="10.157427497150158"><ele>31.0</ele><time>2026-04-08T16:22:06.999Z</time></trkpt><trkpt lat="45.06500063506193" lon="10.15749412374803"><ele>31.0</ele><time>2026-04-08T16:22:07.999Z</time></trkpt><trkpt lat="45.06494742685526" lon="10.157565722838862"><ele>31.000000000000004</ele><time>2026-04-08T16:22:08.999Z</time></trkpt><trkpt lat="45.06490204542263" lon="10.157648378393768"><ele>31.0</ele><time>2026-04-08T16:22:09.999Z</time></trkpt><trkpt lat="45.06486609866937" lon="10.157739081194949"><ele>31.0</ele><time>2026-04-08T16:22:10.999Z</time></trkpt><trkpt lat="45.06483632045528" lon="10.157842598195893"><ele>31.000000000000004</ele><time>2026-04-08T16:22:11.999Z</time></trkpt><trkpt lat="45.064807922378584" lon="10.157946642089707"><ele>31.0</ele><time>2026-04-08T16:22:12.999Z</time></trkpt><trkpt lat="45.06477531085042" lon="10.158047075590089"><ele>31.0</ele><time>2026-04-08T16:22:13.999Z</time></trkpt><trkpt lat="45.06474555387581" lon="10.158145441774508"><ele>31.0</ele><time>2026-04-08T16:22:14.999Z</time></trkpt><trkpt lat="45.06471691804098" lon="10.158242331314396"><ele>31.000000000000004</ele><time>2026-04-08T16:22:15.999Z</time></trkpt><trkpt lat="45.0646902321337" lon="10.158339404074164"><ele>31.0</ele><time>2026-04-08T16:22:16.999Z</time></trkpt><trkpt lat="45.06466274984012" lon="10.158437724434279"><ele>31.0</ele><time>2026-04-08T16:22:17.998Z</time></trkpt><trkpt lat="45.064633773443035" lon="10.158535567724632"><ele>31.000000000000004</ele><time>2026-04-08T16:22:18.998Z</time></trkpt><trkpt lat="45.064605533015765" lon="10.158628285106566"><ele>31.0</ele><time>2026-04-08T16:22:19.998Z</time></trkpt><trkpt lat="45.06457517229964" lon="10.158720349484947"><ele>31.0</ele><time>2026-04-08T16:22:20.998Z</time></trkpt><trkpt lat="45.064545625638566" lon="10.158815293041464"><ele>31.000000000000004</ele><time>2026-04-08T16:22:21.998Z</time></trkpt><trkpt lat="45.06452241312168" lon="10.158910459271558"><ele>31.0</ele><time>2026-04-08T16:22:22.998Z</time></trkpt><trkpt lat="45.06449570336251" lon="10.15900667386797"><ele>31.0</ele><time>2026-04-08T16:22:23.998Z</time></trkpt><trkpt lat="45.06446841805651" lon="10.1590996225593"><ele>30.857142857142858</ele><time>2026-04-08T16:22:24.998Z</time></trkpt><trkpt lat="45.0644387843911" lon="10.159194231808888"><ele>30.714285714285715</ele><time>2026-04-08T16:22:25.998Z</time></trkpt><trkpt lat="45.06441183659465" lon="10.159283925895078"><ele>30.571428571428573</ele><time>2026-04-08T16:22:27Z</time></trkpt><trkpt lat="45.06438442012845" lon="10.1593797693138"><ele>30.42857142857143</ele><time>2026-04-08T16:22:28Z</time></trkpt><trkpt lat="45.06435541369627" lon="10.159474133553342"><ele>30.285714285714285</ele><time>2026-04-08T16:22:29Z</time></trkpt><trkpt lat="45.064328332546204" lon="10.159564734819556"><ele>30.142857142857146</ele><time>2026-04-08T16:22:30Z</time></trkpt><trkpt lat="45.06430029086799" lon="10.159657415399165"><ele>30.0</ele><time>2026-04-08T16:22:31Z</time></trkpt><trkpt lat="45.064276078443434" lon="10.159749243961679"><ele>30.0</ele><time>2026-04-08T16:22:32Z</time></trkpt><trkpt lat="45.06424996023057" lon="10.159844064927643"><ele>30.0</ele><time>2026-04-08T16:22:33Z</time></trkpt><trkpt lat="45.064220574347495" lon="10.159938064410232"><ele>30.0</ele><time>2026-04-08T16:22:34Z</time></trkpt><trkpt lat="45.06419071533163" lon="10.160028352688931"><ele>30.0</ele><time>2026-04-08T16:22:35Z</time></trkpt><trkpt lat="45.06415466498815" lon="10.160117444721925"><ele>30.0</ele><time>2026-04-08T16:22:36Z</time></trkpt><trkpt lat="45.064114362413086" lon="10.160203597031273"><ele>30.0</ele><time>2026-04-08T16:22:37Z</time></trkpt><trkpt lat="45.0640717461289" lon="10.16028630291901"><ele>30.0</ele><time>2026-04-08T16:22:38Z</time></trkpt><trkpt lat="45.064021880212984" lon="10.160370053385332"><ele>30.0</ele><time>2026-04-08T16:22:39Z</time></trkpt><trkpt lat="45.06395481725616" lon="10.160424004801449"><ele>30.0</ele><time>2026-04-08T16:22:40Z</time></trkpt><trkpt lat="45.063897318876705" lon="10.160488882253825"><ele>30.0</ele><time>2026-04-08T16:22:41Z</time></trkpt><trkpt lat="45.06384621022656" lon="10.160566274326316"><ele>30.0</ele><time>2026-04-08T16:22:42Z</time></trkpt><trkpt lat="45.063784576302574" lon="10.160627063266116"><ele>30.0</ele><time>2026-04-08T16:22:43Z</time></trkpt><trkpt lat="45.06372558319214" lon="10.160691398234903"><ele>30.0</ele><time>2026-04-08T16:22:44Z</time></trkpt><trkpt lat="45.063664440552344" lon="10.160750124914376"><ele>30.0</ele><time>2026-04-08T16:22:45Z</time></trkpt><trkpt lat="45.06360150490957" lon="10.160806722909491"><ele>30.142857142857146</ele><time>2026-04-08T16:22:46Z</time></trkpt><trkpt lat="45.063541478056464" lon="10.160865305986656"><ele>30.285714285714285</ele><time>2026-04-08T16:22:47Z</time></trkpt><trkpt lat="45.06348124786553" lon="10.160925879164543"><ele>30.42857142857143</ele><time>2026-04-08T16:22:48Z</time></trkpt><trkpt lat="45.063410977342556" lon="10.16096553837181"><ele>30.571428571428573</ele><time>2026-04-08T16:22:49Z</time></trkpt><trkpt lat="45.06336164912695" lon="10.161040823372575"><ele>30.714285714285715</ele><time>2026-04-08T16:22:50Z</time></trkpt><trkpt lat="45.06329819367882" lon="10.161097797291406"><ele>30.857142857142858</ele><time>2026-04-08T16:22:51Z</time></trkpt><trkpt lat="45.0632386187916" lon="10.16115442210654"><ele>31.0</ele><time>2026-04-08T16:22:52Z</time></trkpt><trkpt lat="45.06317840169198" lon="10.16121120134423"><ele>31.28571428571429</ele><time>2026-04-08T16:22:53Z</time></trkpt><trkpt lat="45.06311862731148" lon="10.161268506740925"><ele>31.571428571428577</ele><time>2026-04-08T16:22:54Z</time></trkpt><trkpt lat="45.06305870356445" lon="10.161325470743027"><ele>31.857142857142858</ele><time>2026-04-08T16:22:55Z</time></trkpt><trkpt lat="45.06299396428392" lon="10.161382259245459"><ele>32.142857142857146</ele><time>2026-04-08T16:22:56Z</time></trkpt><trkpt lat="45.06293429736359" lon="10.16144022953032"><ele>32.42857142857143</ele><time>2026-04-08T16:22:57Z</time></trkpt><trkpt lat="45.06287036243779" lon="10.161503283847203"><ele>32.714285714285715</ele><time>2026-04-08T16:22:58Z</time></trkpt><trkpt lat="45.06281319625744" lon="10.161557416171151"><ele>33.0</ele><time>2026-04-08T16:22:59Z</time></trkpt><trkpt lat="45.06275697512196" lon="10.161611885305181"><ele>33.0</ele><time>2026-04-08T16:23:00Z</time></trkpt><trkpt lat="45.06269633795677" lon="10.161667094134554"><ele>33.0</ele><time>2026-04-08T16:23:01Z</time></trkpt><trkpt lat="45.06263566663149" lon="10.161719382177067"><ele>33.0</ele><time>2026-04-08T16:23:02Z</time></trkpt><trkpt lat="45.06257091331291" lon="10.161767282895918"><ele>33.0</ele><time>2026-04-08T16:23:03Z</time></trkpt><trkpt lat="45.062509879645944" lon="10.161812970015758"><ele>33.0</ele><time>2026-04-08T16:23:04Z</time></trkpt><trkpt lat="45.06244633022632" lon="10.161861650363852"><ele>33.0</ele><time>2026-04-08T16:23:05Z</time></trkpt><trkpt lat="45.06233897541672" lon="10.161948948467112"><ele>33.0</ele><time>2026-04-08T16:23:07Z</time></trkpt><trkpt lat="45.0622435631413" lon="10.162056837583947"><ele>33.0</ele><time>2026-04-08T16:23:09Z</time></trkpt><trkpt lat="45.06221127347672" lon="10.162134870153988"><ele>33.0</ele><time>2026-04-08T16:23:10Z</time></trkpt><trkpt lat="45.062196620078524" lon="10.162232739341835"><ele>33.0</ele><time>2026-04-08T16:23:11Z</time></trkpt><trkpt lat="45.0621903594517" lon="10.162342832753332"><ele>33.0</ele><time>2026-04-08T16:23:12Z</time></trkpt><trkpt lat="45.06218721795541" lon="10.162451425987946"><ele>33.0</ele><time>2026-04-08T16:23:13Z</time></trkpt><trkpt lat="45.06217798097142" lon="10.162558742188763"><ele>33.0</ele><time>2026-04-08T16:23:14Z</time></trkpt><trkpt lat="45.06216109117922" lon="10.162664529914865"><ele>33.0</ele><time>2026-04-08T16:23:15Z</time></trkpt><trkpt lat="45.0621373124907" lon="10.162771256031112"><ele>33.0</ele><time>2026-04-08T16:23:16Z</time></trkpt><trkpt lat="45.06211818374029" lon="10.162872416076127"><ele>33.0</ele><time>2026-04-08T16:23:17Z</time></trkpt><trkpt lat="45.06209601463737" lon="10.162972500206685"><ele>33.0</ele><time>2026-04-08T16:23:18Z</time></trkpt><trkpt lat="45.06207970119424" lon="10.163076239345404"><ele>33.0</ele><time>2026-04-08T16:23:19Z</time></trkpt><trkpt lat="45.062063559854494" lon="10.163176564636277"><ele>32.714285714285715</ele><time>2026-04-08T16:23:20Z</time></trkpt><trkpt lat="45.06204545868819" lon="10.163279573397373"><ele>32.42857142857143</ele><time>2026-04-08T16:23:21Z</time></trkpt><trkpt lat="45.06202985119432" lon="10.163379904197342"><ele>32.142857142857146</ele><time>2026-04-08T16:23:22Z</time></trkpt><trkpt lat="45.0620106281043" lon="10.163480469745632"><ele>31.857142857142858</ele><time>2026-04-08T16:23:23Z</time></trkpt><trkpt lat="45.06199077057114" lon="10.163583704019901"><ele>31.571428571428577</ele><time>2026-04-08T16:23:24Z</time></trkpt><trkpt lat="45.06197806887463" lon="10.163681568111217"><ele>31.28571428571429</ele><time>2026-04-08T16:23:25Z</time></trkpt><trkpt lat="45.061962666606384" lon="10.163781826840516"><ele>31.0</ele><time>2026-04-08T16:23:26Z</time></trkpt><trkpt lat="45.061946414467805" lon="10.163884834160719"><ele>31.0</ele><time>2026-04-08T16:23:27Z</time></trkpt><trkpt lat="45.06193199289817" lon="10.163982087056505"><ele>31.000000000000004</ele><time>2026-04-08T16:23:27.999Z</time></trkpt><trkpt lat="45.0619152319885" lon="10.164081773555228"><ele>31.0</ele><time>2026-04-08T16:23:28.999Z</time></trkpt><trkpt lat="45.06189897625726" lon="10.164179124823411"><ele>31.0</ele><time>2026-04-08T16:23:29.999Z</time></trkpt><trkpt lat="45.06188346243014" lon="10.164279478767678"><ele>31.000000000000004</ele><time>2026-04-08T16:23:30.999Z</time></trkpt><trkpt lat="45.06186945030118" lon="10.164379127981743"><ele>31.0</ele><time>2026-04-08T16:23:31.999Z</time></trkpt><trkpt lat="45.06185308378914" lon="10.164476675998834"><ele>31.0</ele><time>2026-04-08T16:23:32.999Z</time></trkpt><trkpt lat="45.06183625879936" lon="10.164575213109687"><ele>31.142857142857146</ele><time>2026-04-08T16:23:33.999Z</time></trkpt><trkpt lat="45.06182046708776" lon="10.164674031131156"><ele>31.28571428571429</ele><time>2026-04-08T16:23:34.999Z</time></trkpt><trkpt lat="45.06180722178248" lon="10.164775445359398"><ele>31.42857142857143</ele><time>2026-04-08T16:23:35.999Z</time></trkpt><trkpt lat="45.06179205867413" lon="10.164873180367442"><ele>31.57142857142857</ele><time>2026-04-08T16:23:36.999Z</time></trkpt><trkpt lat="45.06177626404343" lon="10.164970187905777"><ele>31.71428571428571</ele><time>2026-04-08T16:23:37.999Z</time></trkpt><trkpt lat="45.061759081052394" lon="10.16507151257749"><ele>31.857142857142854</ele><time>2026-04-08T16:23:38.999Z</time></trkpt><trkpt lat="45.061743544855055" lon="10.165170405866945"><ele>32.0</ele><time>2026-04-08T16:23:39.999Z</time></trkpt><trkpt lat="45.061728286146185" lon="10.165270720096194"><ele>32.0</ele><time>2026-04-08T16:23:40.999Z</time></trkpt><trkpt lat="45.06171300365926" lon="10.165370862444579"><ele>31.999999999999996</ele><time>2026-04-08T16:23:41.999Z</time></trkpt><trkpt lat="45.061698955592426" lon="10.165470045374017"><ele>32.0</ele><time>2026-04-08T16:23:42.999Z</time></trkpt><trkpt lat="45.06168671453968" lon="10.165563305577999"><ele>32.0</ele><time>2026-04-08T16:23:43.999Z</time></trkpt><trkpt lat="45.0616643618405" lon="10.165653836886872"><ele>31.999999999999996</ele><time>2026-04-08T16:23:44.999Z</time></trkpt><trkpt lat="45.06162857604785" lon="10.165729330339886"><ele>32.0</ele><time>2026-04-08T16:23:45.999Z</time></trkpt><trkpt lat="45.06158137409793" lon="10.165788312234632"><ele>32.0</ele><time>2026-04-08T16:23:46.999Z</time></trkpt><trkpt lat="45.0614615914571" lon="10.165851085651244"><ele>31.857142857142854</ele><time>2026-04-08T16:23:48.999Z</time></trkpt><trkpt lat="45.061397349379845" lon="10.165874581383502"><ele>31.71428571428571</ele><time>2026-04-08T16:23:49.999Z</time></trkpt><trkpt lat="45.06133283380765" lon="10.165894365112718"><ele>31.57142857142857</ele><time>2026-04-08T16:23:50.999Z</time></trkpt><trkpt lat="45.06127007688313" lon="10.165915350684253"><ele>31.42857142857143</ele><time>2026-04-08T16:23:51.999Z</time></trkpt><trkpt lat="45.06120593110697" lon="10.16594085623851"><ele>31.28571428571429</ele><time>2026-04-08T16:23:52.999Z</time></trkpt><trkpt lat="45.06114169492637" lon="10.165968838311231"><ele>31.142857142857146</ele><time>2026-04-08T16:23:53.999Z</time></trkpt><trkpt lat="45.06107735704738" lon="10.16599414392441"><ele>31.0</ele><time>2026-04-08T16:23:54.999Z</time></trkpt><trkpt lat="45.06101618219387" lon="10.166031096493565"><ele>31.0</ele><time>2026-04-08T16:23:55.999Z</time></trkpt><trkpt lat="45.06096271260175" lon="10.166087123268166"><ele>31.000000000000004</ele><time>2026-04-08T16:23:56.999Z</time></trkpt><trkpt lat="45.06092251131533" lon="10.166164982918216"><ele>31.0</ele><time>2026-04-08T16:23:57.999Z</time></trkpt><trkpt lat="45.06090257068322" lon="10.166263310681902"><ele>31.0</ele><time>2026-04-08T16:23:58.999Z</time></trkpt><trkpt lat="45.06090166954742" lon="10.16636539857257"><ele>31.000000000000004</ele><time>2026-04-08T16:23:59.999Z</time></trkpt><trkpt lat="45.06090984355663" lon="10.166465431095288"><ele>31.0</ele><time>2026-04-08T16:24:00.999Z</time></trkpt><trkpt lat="45.06091669851844" lon="10.166562888792626"><ele>31.0</ele><time>2026-04-08T16:24:01.999Z</time></trkpt><trkpt lat="45.06092033124476" lon="10.16666470469629"><ele>31.142857142857146</ele><time>2026-04-08T16:24:02.999Z</time></trkpt><trkpt lat="45.06092713332926" lon="10.16676641960528"><ele>31.28571428571429</ele><time>2026-04-08T16:24:03.999Z</time></trkpt><trkpt lat="45.06093447857167" lon="10.166866095255115"><ele>31.42857142857143</ele><time>2026-04-08T16:24:04.999Z</time></trkpt><trkpt lat="45.060938826334414" lon="10.166970356665729"><ele>31.57142857142857</ele><time>2026-04-08T16:24:05.999Z</time></trkpt><trkpt lat="45.06094376977057" lon="10.167075056136524"><ele>31.71428571428571</ele><time>2026-04-08T16:24:06.999Z</time></trkpt><trkpt lat="45.060949363396325" lon="10.167177758589228"><ele>31.857142857142854</ele><time>2026-04-08T16:24:07.999Z</time></trkpt><trkpt lat="45.06095499587273" lon="10.167282224033038"><ele>32.0</ele><time>2026-04-08T16:24:08.999Z</time></trkpt><trkpt lat="45.06095985088444" lon="10.167385474350667"><ele>32.0</ele><time>2026-04-08T16:24:09.999Z</time></trkpt><trkpt lat="45.060966199250124" lon="10.167487079446374"><ele>31.999999999999996</ele><time>2026-04-08T16:24:10.999Z</time></trkpt><trkpt lat="45.06097100548965" lon="10.167588132921603"><ele>32.0</ele><time>2026-04-08T16:24:11.999Z</time></trkpt><trkpt lat="45.06097460013123" lon="10.167690162441678"><ele>32.0</ele><time>2026-04-08T16:24:12.999Z</time></trkpt><trkpt lat="45.060979854187885" lon="10.167791658226443"><ele>31.999999999999996</ele><time>2026-04-08T16:24:13.999Z</time></trkpt><trkpt lat="45.0609851839591" lon="10.16789157854124"><ele>32.0</ele><time>2026-04-08T16:24:14.999Z</time></trkpt><trkpt lat="45.06099254469636" lon="10.167995595048879"><ele>32.0</ele><time>2026-04-08T16:24:15.999Z</time></trkpt><trkpt lat="45.060998033901164" lon="10.168093892719225"><ele>32.14285714285714</ele><time>2026-04-08T16:24:16.999Z</time></trkpt><trkpt lat="45.061003091822904" lon="10.168195216154711"><ele>32.285714285714285</ele><time>2026-04-08T16:24:17.999Z</time></trkpt><trkpt lat="45.061009990976466" lon="10.168294483164264"><ele>32.42857142857143</ele><time>2026-04-08T16:24:18.999Z</time></trkpt><trkpt lat="45.06101804465936" lon="10.168394485858355"><ele>32.57142857142857</ele><time>2026-04-08T16:24:19.999Z</time></trkpt><trkpt lat="45.06102818446659" lon="10.168492497848296"><ele>32.714285714285715</ele><time>2026-04-08T16:24:20.999Z</time></trkpt><trkpt lat="45.0610339179611" lon="10.168594113981078"><ele>32.857142857142854</ele><time>2026-04-08T16:24:21.999Z</time></trkpt><trkpt lat="45.06103432593316" lon="10.168694540482617"><ele>33.0</ele><time>2026-04-08T16:24:22.998Z</time></trkpt><trkpt lat="45.06102838356768" lon="10.168793748620873"><ele>33.0</ele><time>2026-04-08T16:24:23.998Z</time></trkpt><trkpt lat="45.061007577583965" lon="10.168891519082214"><ele>33.0</ele><time>2026-04-08T16:24:24.998Z</time></trkpt><trkpt lat="45.06097640845202" lon="10.168983684877437"><ele>33.0</ele><time>2026-04-08T16:24:25.998Z</time></trkpt><trkpt lat="45.06094306956274" lon="10.169076924161294"><ele>33.0</ele><time>2026-04-08T16:24:26.998Z</time></trkpt><trkpt lat="45.06091559717144" lon="10.169171138721582"><ele>33.0</ele><time>2026-04-08T16:24:27.998Z</time></trkpt><trkpt lat="45.06089162614379" lon="10.169269605938133"><ele>33.0</ele><time>2026-04-08T16:24:28.998Z</time></trkpt><trkpt lat="45.06086861981812" lon="10.169367938889284"><ele>33.0</ele><time>2026-04-08T16:24:29.998Z</time></trkpt><trkpt lat="45.060844714639224" lon="10.169466553260209"><ele>33.0</ele><time>2026-04-08T16:24:30.998Z</time></trkpt><trkpt lat="45.06082166202342" lon="10.169564406547957"><ele>33.0</ele><time>2026-04-08T16:24:31.998Z</time></trkpt><trkpt lat="45.060801617408416" lon="10.169665888706339"><ele>33.0</ele><time>2026-04-08T16:24:33Z</time></trkpt><trkpt lat="45.06078699692961" lon="10.169767535981608"><ele>33.0</ele><time>2026-04-08T16:24:34Z</time></trkpt><trkpt lat="45.06077925827739" lon="10.169871055774882"><ele>33.0</ele><time>2026-04-08T16:24:35Z</time></trkpt><trkpt lat="45.06078221213411" lon="10.169976061303117"><ele>33.0</ele><time>2026-04-08T16:24:36Z</time></trkpt><trkpt lat="45.060789077718994" lon="10.170077265459106"><ele>33.0</ele><time>2026-04-08T16:24:37Z</time></trkpt><trkpt lat="45.06079079650342" lon="10.17017883955801"><ele>33.0</ele><time>2026-04-08T16:24:38Z</time></trkpt><trkpt lat="45.060797122387314" lon="10.170279189170438"><ele>33.0</ele><time>2026-04-08T16:24:39Z</time></trkpt><trkpt lat="45.06079462960427" lon="10.170381085396512"><ele>33.0</ele><time>2026-04-08T16:24:40Z</time></trkpt><trkpt lat="45.06079042966574" lon="10.170483596332796"><ele>33.0</ele><time>2026-04-08T16:24:41Z</time></trkpt><trkpt lat="45.06077316481092" lon="10.170584074119757"><ele>33.0</ele><time>2026-04-08T16:24:42Z</time></trkpt><trkpt lat="45.06074274719364" lon="10.170671763681314"><ele>33.0</ele><time>2026-04-08T16:24:43Z</time></trkpt><trkpt lat="45.06068307760973" lon="10.17073730805841"><ele>33.0</ele><time>2026-04-08T16:24:44Z</time></trkpt><trkpt lat="45.06061907144958" lon="10.17078132059526"><ele>33.0</ele><time>2026-04-08T16:24:45Z</time></trkpt><trkpt lat="45.06051983214378" lon="10.170881841686795"><ele>33.0</ele><time>2026-04-08T16:24:47Z</time></trkpt><trkpt lat="45.060445829102065" lon="10.170991644498972"><ele>33.0</ele><time>2026-04-08T16:24:49Z</time></trkpt><trkpt lat="45.06038992536855" lon="10.171145643981268"><ele>33.0</ele><time>2026-04-08T16:24:51Z</time></trkpt><trkpt lat="45.0603688633954" lon="10.17123732996853"><ele>33.0</ele><time>2026-04-08T16:24:52Z</time></trkpt><trkpt lat="45.060329869133824" lon="10.171402836735258"><ele>33.0</ele><time>2026-04-08T16:24:54Z</time></trkpt><trkpt lat="45.06030869373473" lon="10.17149202039965"><ele>33.0</ele><time>2026-04-08T16:24:55Z</time></trkpt><trkpt lat="45.060289392559156" lon="10.171578744767091"><ele>33.0</ele><time>2026-04-08T16:24:56Z</time></trkpt><trkpt lat="45.06026667071653" lon="10.171670792179205"><ele>33.0</ele><time>2026-04-08T16:24:57Z</time></trkpt><trkpt lat="45.060243735263484" lon="10.171761401703504"><ele>33.0</ele><time>2026-04-08T16:24:58Z</time></trkpt><trkpt lat="45.06022144377011" lon="10.171853563319143"><ele>33.0</ele><time>2026-04-08T16:24:59Z</time></trkpt><trkpt lat="45.06019682898501" lon="10.171944861664167"><ele>33.0</ele><time>2026-04-08T16:25:00Z</time></trkpt><trkpt lat="45.06017175921015" lon="10.172038130530735"><ele>32.714285714285715</ele><time>2026-04-08T16:25:01Z</time></trkpt><trkpt lat="45.06014766524621" lon="10.172130847822498"><ele>32.42857142857143</ele><time>2026-04-08T16:25:02Z</time></trkpt><trkpt lat="45.06012548606817" lon="10.17222395052752"><ele>32.142857142857146</ele><time>2026-04-08T16:25:03Z</time></trkpt><trkpt lat="45.06010233404497" lon="10.172318535879265"><ele>31.857142857142858</ele><time>2026-04-08T16:25:04Z</time></trkpt><trkpt lat="45.0600765063067" lon="10.17241361542896"><ele>31.571428571428577</ele><time>2026-04-08T16:25:05Z</time></trkpt><trkpt lat="45.06005110960657" lon="10.172506039426816"><ele>31.28571428571429</ele><time>2026-04-08T16:25:06Z</time></trkpt><trkpt lat="45.060024472688326" lon="10.172601085043654"><ele>31.0</ele><time>2026-04-08T16:25:07Z</time></trkpt><trkpt lat="45.059998763122316" lon="10.172694644036543"><ele>30.857142857142858</ele><time>2026-04-08T16:25:08Z</time></trkpt><trkpt lat="45.05997209285132" lon="10.172790531639544"><ele>30.714285714285715</ele><time>2026-04-08T16:25:09Z</time></trkpt><trkpt lat="45.05994504481118" lon="10.172885121729301"><ele>30.571428571428573</ele><time>2026-04-08T16:25:10Z</time></trkpt><trkpt lat="45.05991310046254" lon="10.172978650484971"><ele>30.42857142857143</ele><time>2026-04-08T16:25:11Z</time></trkpt><trkpt lat="45.059877628611645" lon="10.173067903460666"><ele>30.285714285714285</ele><time>2026-04-08T16:25:12Z</time></trkpt><trkpt lat="45.05983915443957" lon="10.173153143941004"><ele>30.142857142857146</ele><time>2026-04-08T16:25:13Z</time></trkpt><trkpt lat="45.05979691512842" lon="10.173238197037135"><ele>30.0</ele><time>2026-04-08T16:25:14Z</time></trkpt><trkpt lat="45.05975185453242" lon="10.17331483954898"><ele>29.714285714285715</ele><time>2026-04-08T16:25:15Z</time></trkpt><trkpt lat="45.0597014417226" lon="10.1733871486792"><ele>29.428571428571427</ele><time>2026-04-08T16:25:16Z</time></trkpt><trkpt lat="45.059649337543036" lon="10.173456800364622"><ele>29.142857142857142</ele><time>2026-04-08T16:25:17Z</time></trkpt><trkpt lat="45.05959751705635" lon="10.173525966393994"><ele>28.857142857142858</ele><time>2026-04-08T16:25:18Z</time></trkpt><trkpt lat="45.05954720312214" lon="10.1736002901934"><ele>28.57142857142857</ele><time>2026-04-08T16:25:19Z</time></trkpt><trkpt lat="45.059500398577654" lon="10.173674782444463"><ele>28.285714285714285</ele><time>2026-04-08T16:25:20Z</time></trkpt><trkpt lat="45.05945197334327" lon="10.173747033672356"><ele>28.0</ele><time>2026-04-08T16:25:21Z</time></trkpt><trkpt lat="45.05940309021457" lon="10.173818764603904"><ele>28.0</ele><time>2026-04-08T16:25:22Z</time></trkpt><trkpt lat="45.05935228871338" lon="10.173888367880865"><ele>28.0</ele><time>2026-04-08T16:25:23Z</time></trkpt><trkpt lat="45.05930144564841" lon="10.173960149940982"><ele>28.0</ele><time>2026-04-08T16:25:24Z</time></trkpt><trkpt lat="45.05925409937024" lon="10.174032418811983"><ele>28.0</ele><time>2026-04-08T16:25:25Z</time></trkpt><trkpt lat="45.059206604101085" lon="10.174105501084545"><ele>28.0</ele><time>2026-04-08T16:25:26Z</time></trkpt><trkpt lat="45.05915666493623" lon="10.174178797113418"><ele>28.0</ele><time>2026-04-08T16:25:27Z</time></trkpt><trkpt lat="45.05910717007728" lon="10.174248331599241"><ele>28.0</ele><time>2026-04-08T16:25:28Z</time></trkpt><trkpt lat="45.05905661546736" lon="10.174320597841296"><ele>28.142857142857142</ele><time>2026-04-08T16:25:29Z</time></trkpt><trkpt lat="45.05900788937845" lon="10.17438930567453"><ele>28.285714285714285</ele><time>2026-04-08T16:25:30Z</time></trkpt><trkpt lat="45.05895745341314" lon="10.174459437889372"><ele>28.42857142857143</ele><time>2026-04-08T16:25:30.999Z</time></trkpt><trkpt lat="45.058907724832075" lon="10.174531416184564"><ele>28.571428571428573</ele><time>2026-04-08T16:25:31.999Z</time></trkpt><trkpt lat="45.05885923120043" lon="10.174604121736115"><ele>28.714285714285715</ele><time>2026-04-08T16:25:32.999Z</time></trkpt><trkpt lat="45.05880919661463" lon="10.174676142991336"><ele>28.85714285714286</ele><time>2026-04-08T16:25:33.999Z</time></trkpt><trkpt lat="45.05876185808347" lon="10.174749009400484"><ele>29.000000000000004</ele><time>2026-04-08T16:25:34.999Z</time></trkpt><trkpt lat="45.05871382506085" lon="10.174823527833471"><ele>28.85714285714286</ele><time>2026-04-08T16:25:35.999Z</time></trkpt><trkpt lat="45.058665199034536" lon="10.174896766423355"><ele>28.714285714285715</ele><time>2026-04-08T16:25:36.999Z</time></trkpt><trkpt lat="45.058615345477925" lon="10.174969253842903"><ele>28.571428571428573</ele><time>2026-04-08T16:25:37.999Z</time></trkpt><trkpt lat="45.05856283002978" lon="10.175041678472757"><ele>28.42857142857143</ele><time>2026-04-08T16:25:38.999Z</time></trkpt><trkpt lat="45.05851386708724" lon="10.175115530248895"><ele>28.285714285714285</ele><time>2026-04-08T16:25:39.999Z</time></trkpt><trkpt lat="45.05846491357329" lon="10.1751909958434"><ele>28.142857142857142</ele><time>2026-04-08T16:25:40.999Z</time></trkpt><trkpt lat="45.05841728581611" lon="10.17526497011373"><ele>28.0</ele><time>2026-04-08T16:25:41.999Z</time></trkpt><trkpt lat="45.058372881679674" lon="10.175346694683379"><ele>28.0</ele><time>2026-04-08T16:25:42.999Z</time></trkpt><trkpt lat="45.05834539275471" lon="10.175442323025749"><ele>28.0</ele><time>2026-04-08T16:25:43.999Z</time></trkpt><trkpt lat="45.058333394247256" lon="10.175548694100637"><ele>28.0</ele><time>2026-04-08T16:25:44.999Z</time></trkpt><trkpt lat="45.05833756221235" lon="10.17565620023187"><ele>28.0</ele><time>2026-04-08T16:25:45.999Z</time></trkpt><trkpt lat="45.05834925225816" lon="10.17576068325772"><ele>28.0</ele><time>2026-04-08T16:25:46.999Z</time></trkpt><trkpt lat="45.05835935053943" lon="10.17586318646102"><ele>28.0</ele><time>2026-04-08T16:25:47.999Z</time></trkpt><trkpt lat="45.05836735029651" lon="10.17596633804742"><ele>28.0</ele><time>2026-04-08T16:25:48.999Z</time></trkpt><trkpt lat="45.05837452711391" lon="10.176068857238972"><ele>28.42857142857143</ele><time>2026-04-08T16:25:49.999Z</time></trkpt><trkpt lat="45.05837980497332" lon="10.176171329527355"><ele>28.857142857142858</ele><time>2026-04-08T16:25:50.999Z</time></trkpt><trkpt lat="45.05838421899003" lon="10.176273022524"><ele>29.285714285714285</ele><time>2026-04-08T16:25:51.999Z</time></trkpt><trkpt lat="45.058386779963" lon="10.176374259181383"><ele>29.714285714285715</ele><time>2026-04-08T16:25:52.999Z</time></trkpt><trkpt lat="45.05838644197332" lon="10.176476731534343"><ele>30.142857142857146</ele><time>2026-04-08T16:25:53.999Z</time></trkpt><trkpt lat="45.058386388114734" lon="10.176576162960936"><ele>30.571428571428573</ele><time>2026-04-08T16:25:54.999Z</time></trkpt><trkpt lat="45.05838848820446" lon="10.176671605375164"><ele>31.0</ele><time>2026-04-08T16:25:55.999Z</time></trkpt><trkpt lat="45.0583812106171" lon="10.176847232688619"><ele>31.6</ele><time>2026-04-08T16:25:57.999Z</time></trkpt><trkpt lat="45.05836737581017" lon="10.17700814787015"><ele>32.2</ele><time>2026-04-08T16:25:59.999Z</time></trkpt><trkpt lat="45.058324505180046" lon="10.177129288454315"><ele>32.8</ele><time>2026-04-08T16:26:01.999Z</time></trkpt><trkpt lat="45.058229658543084" lon="10.177146215671367"><ele>33.4</ele><time>2026-04-08T16:26:03.999Z</time></trkpt><trkpt lat="45.05812544319126" lon="10.177126422340557"><ele>34.0</ele><time>2026-04-08T16:26:05.999Z</time></trkpt><trkpt lat="45.058006408799635" lon="10.177124729342813"><ele>34.333333333333336</ele><time>2026-04-08T16:26:07.999Z</time></trkpt><trkpt lat="45.057884179926525" lon="10.177130686831585"><ele>34.66666666666667</ele><time>2026-04-08T16:26:09.999Z</time></trkpt><trkpt lat="45.05781797856261" lon="10.177137982326803"><ele>35.0</ele><time>2026-04-08T16:26:10.999Z</time></trkpt><trkpt lat="45.05769345345481" lon="10.177154313310528"><ele>35.333333333333336</ele><time>2026-04-08T16:26:12.999Z</time></trkpt><trkpt lat="45.057628083496176" lon="10.177162038068818"><ele>35.666666666666664</ele><time>2026-04-08T16:26:13.999Z</time></trkpt><trkpt lat="45.05755970289067" lon="10.177165078694703"><ele>36.0</ele><time>2026-04-08T16:26:14.999Z</time></trkpt><trkpt lat="45.05749177667023" lon="10.17716907176272"><ele>35.714285714285715</ele><time>2026-04-08T16:26:15.999Z</time></trkpt><trkpt lat="45.05742247783719" lon="10.177177868267277"><ele>35.42857142857143</ele><time>2026-04-08T16:26:16.999Z</time></trkpt><trkpt lat="45.05735352265899" lon="10.177182154608973"><ele>35.14285714285714</ele><time>2026-04-08T16:26:17.999Z</time></trkpt><trkpt lat="45.057280819049275" lon="10.17718139584845"><ele>34.85714285714286</ele><time>2026-04-08T16:26:18.999Z</time></trkpt><trkpt lat="45.05721038059291" lon="10.177175230208885"><ele>34.57142857142857</ele><time>2026-04-08T16:26:19.999Z</time></trkpt><trkpt lat="45.057138446167116" lon="10.17716252666102"><ele>34.285714285714285</ele><time>2026-04-08T16:26:20.999Z</time></trkpt><trkpt lat="45.057067785267066" lon="10.177153069641614"><ele>34.0</ele><time>2026-04-08T16:26:21.999Z</time></trkpt><trkpt lat="45.05699583289607" lon="10.17714270287173"><ele>33.99999999999999</ele><time>2026-04-08T16:26:22.999Z</time></trkpt><trkpt lat="45.05692324314814" lon="10.177130707517962"><ele>34.0</ele><time>2026-04-08T16:26:23.999Z</time></trkpt><trkpt lat="45.05685197537862" lon="10.177117611717685"><ele>34.0</ele><time>2026-04-08T16:26:24.999Z</time></trkpt><trkpt lat="45.05677876207468" lon="10.177102794957717"><ele>34.0</ele><time>2026-04-08T16:26:25.998Z</time></trkpt><trkpt lat="45.056706192253024" lon="10.17708713277127"><ele>34.0</ele><time>2026-04-08T16:26:26.998Z</time></trkpt><trkpt lat="45.056633132311134" lon="10.17707298233063"><ele>33.99999999999999</ele><time>2026-04-08T16:26:27.998Z</time></trkpt><trkpt lat="45.05656059524727" lon="10.177059823369811"><ele>34.0</ele><time>2026-04-08T16:26:28.998Z</time></trkpt><trkpt lat="45.056488372499054" lon="10.177048531932058"><ele>34.42857142857142</ele><time>2026-04-08T16:26:29.998Z</time></trkpt><trkpt lat="45.056414899401034" lon="10.177032881655212"><ele>34.857142857142854</ele><time>2026-04-08T16:26:30.998Z</time></trkpt><trkpt lat="45.05634383577779" lon="10.177017642693817"><ele>35.285714285714285</ele><time>2026-04-08T16:26:31.998Z</time></trkpt><trkpt lat="45.056270837126796" lon="10.177007609643137"><ele>35.71428571428571</ele><time>2026-04-08T16:26:32.998Z</time></trkpt><trkpt lat="45.05619582603466" lon="10.17700121817129"><ele>36.14285714285714</ele><time>2026-04-08T16:26:33.998Z</time></trkpt><trkpt lat="45.05612332986589" lon="10.176990729487947"><ele>36.57142857142857</ele><time>2026-04-08T16:26:34.998Z</time></trkpt><trkpt lat="45.05604922924103" lon="10.176991546285374"><ele>37.0</ele><time>2026-04-08T16:26:35.998Z</time></trkpt><trkpt lat="45.055978891733496" lon="10.176994672684522"><ele>37.0</ele><time>2026-04-08T16:26:36.998Z</time></trkpt><trkpt lat="45.055912054343715" lon="10.176996086516997"><ele>37.0</ele><time>2026-04-08T16:26:37.998Z</time></trkpt><trkpt lat="45.05584132135763" lon="10.17699789310541"><ele>37.0</ele><time>2026-04-08T16:26:39Z</time></trkpt><trkpt lat="45.05576863967327" lon="10.17699959038564"><ele>37.0</ele><time>2026-04-08T16:26:40Z</time></trkpt><trkpt lat="45.05569895923074" lon="10.176998568242011"><ele>37.0</ele><time>2026-04-08T16:26:41Z</time></trkpt><trkpt lat="45.05562767155735" lon="10.176996485663148"><ele>37.0</ele><time>2026-04-08T16:26:42Z</time></trkpt><trkpt lat="45.05555842759832" lon="10.176991419585699"><ele>37.0</ele><time>2026-04-08T16:26:43Z</time></trkpt><trkpt lat="45.05548828325012" lon="10.176982307099864"><ele>36.57142857142857</ele><time>2026-04-08T16:26:44Z</time></trkpt><trkpt lat="45.05541741739802" lon="10.176979893297272"><ele>36.14285714285714</ele><time>2026-04-08T16:26:45Z</time></trkpt><trkpt lat="45.055347891581405" lon="10.176970279165474"><ele>35.71428571428571</ele><time>2026-04-08T16:26:46Z</time></trkpt><trkpt lat="45.055276708871574" lon="10.176964750779742"><ele>35.285714285714285</ele><time>2026-04-08T16:26:47Z</time></trkpt><trkpt lat="45.055207080153565" lon="10.176955259888649"><ele>34.857142857142854</ele><time>2026-04-08T16:26:48Z</time></trkpt><trkpt lat="45.05513678864477" lon="10.176942544961056"><ele>34.42857142857142</ele><time>2026-04-08T16:26:49Z</time></trkpt><trkpt lat="45.05506479077472" lon="10.17692514275844"><ele>34.0</ele><time>2026-04-08T16:26:50Z</time></trkpt><trkpt lat="45.05499569310465" lon="10.176912597966007"><ele>33.42857142857142</ele><time>2026-04-08T16:26:51Z</time></trkpt><trkpt lat="45.054924026713145" lon="10.176908157321556"><ele>32.857142857142854</ele><time>2026-04-08T16:26:52Z</time></trkpt><trkpt lat="45.05484959752618" lon="10.176903403067087"><ele>32.285714285714285</ele><time>2026-04-08T16:26:53Z</time></trkpt><trkpt lat="45.05477883920563" lon="10.176904702639382"><ele>31.71428571428571</ele><time>2026-04-08T16:26:54Z</time></trkpt><trkpt lat="45.05470708282968" lon="10.176911057562792"><ele>31.14285714285714</ele><time>2026-04-08T16:26:55Z</time></trkpt><trkpt lat="45.05463512329449" lon="10.176921544929035"><ele>30.571428571428573</ele><time>2026-04-08T16:26:56Z</time></trkpt><trkpt lat="45.05456594759043" lon="10.17692708701488"><ele>30.0</ele><time>2026-04-08T16:26:57Z</time></trkpt><trkpt lat="45.05450126720185" lon="10.176952601669537"><ele>30.0</ele><time>2026-04-08T16:26:58Z</time></trkpt><trkpt lat="45.05442966715533" lon="10.176979519680422"><ele>30.0</ele><time>2026-04-08T16:26:59Z</time></trkpt><trkpt lat="45.0543621859308" lon="10.176996288385336"><ele>30.0</ele><time>2026-04-08T16:27:00Z</time></trkpt><trkpt lat="45.05428477759463" lon="10.177015127313707"><ele>30.0</ele><time>2026-04-08T16:27:01Z</time></trkpt><trkpt lat="45.0542146675399" lon="10.177043582652818"><ele>30.0</ele><time>2026-04-08T16:27:02Z</time></trkpt><trkpt lat="45.05414513235479" lon="10.177066122383172"><ele>30.0</ele><time>2026-04-08T16:27:03Z</time></trkpt><trkpt lat="45.054074059296546" lon="10.177090285954069"><ele>30.0</ele><time>2026-04-08T16:27:04Z</time></trkpt><trkpt lat="45.054002440402826" lon="10.177120937130715"><ele>29.857142857142858</ele><time>2026-04-08T16:27:05Z</time></trkpt><trkpt lat="45.053932356531035" lon="10.177145337914878"><ele>29.714285714285715</ele><time>2026-04-08T16:27:06Z</time></trkpt><trkpt lat="45.05386006251112" lon="10.177167071072432"><ele>29.571428571428573</ele><time>2026-04-08T16:27:07Z</time></trkpt><trkpt lat="45.05378693502038" lon="10.177193506049582"><ele>29.42857142857143</ele><time>2026-04-08T16:27:08Z</time></trkpt><trkpt lat="45.05371896474492" lon="10.177217882122074"><ele>29.285714285714285</ele><time>2026-04-08T16:27:09Z</time></trkpt><trkpt lat="45.05364877630158" lon="10.177241869961053"><ele>29.142857142857146</ele><time>2026-04-08T16:27:10Z</time></trkpt><trkpt lat="45.05357865966225" lon="10.177264920707326"><ele>29.000000000000004</ele><time>2026-04-08T16:27:11Z</time></trkpt><trkpt lat="45.0535084932024" lon="10.177289720882179"><ele>29.000000000000004</ele><time>2026-04-08T16:27:12Z</time></trkpt><trkpt lat="45.05343856422013" lon="10.177311308824438"><ele>29.0</ele><time>2026-04-08T16:27:13Z</time></trkpt><trkpt lat="45.05336645142347" lon="10.177333438103336"><ele>29.000000000000004</ele><time>2026-04-08T16:27:14Z</time></trkpt><trkpt lat="45.05329586247156" lon="10.177356471345195"><ele>29.000000000000004</ele><time>2026-04-08T16:27:15Z</time></trkpt><trkpt lat="45.05322424833524" lon="10.177379568975468"><ele>29.0</ele><time>2026-04-08T16:27:16Z</time></trkpt><trkpt lat="45.053153622841435" lon="10.177401431667414"><ele>29.000000000000004</ele><time>2026-04-08T16:27:17Z</time></trkpt><trkpt lat="45.05308142117058" lon="10.17742402667641"><ele>29.000000000000004</ele><time>2026-04-08T16:27:18Z</time></trkpt><trkpt lat="45.053009938632464" lon="10.177447538641353"><ele>29.285714285714292</ele><time>2026-04-08T16:27:19Z</time></trkpt><trkpt lat="45.05293957423604" lon="10.177474881477572"><ele>29.571428571428573</ele><time>2026-04-08T16:27:20Z</time></trkpt><trkpt lat="45.052869915160564" lon="10.17749889638658"><ele>29.85714285714286</ele><time>2026-04-08T16:27:21Z</time></trkpt><trkpt lat="45.05280003857609" lon="10.17752410591949"><ele>30.142857142857146</ele><time>2026-04-08T16:27:22Z</time></trkpt><trkpt lat="45.05272879944099" lon="10.17754645613042"><ele>30.42857142857143</ele><time>2026-04-08T16:27:23Z</time></trkpt><trkpt lat="45.05265746086897" lon="10.177567473668402"><ele>30.714285714285715</ele><time>2026-04-08T16:27:24Z</time></trkpt><trkpt lat="45.05258617311797" lon="10.177589899000301"><ele>31.0</ele><time>2026-04-08T16:27:25Z</time></trkpt><trkpt lat="45.05251505502885" lon="10.177612906545923"><ele>30.714285714285715</ele><time>2026-04-08T16:27:26Z</time></trkpt><trkpt lat="45.05244279146295" lon="10.177637846714145"><ele>30.42857142857143</ele><time>2026-04-08T16:27:27Z</time></trkpt><trkpt lat="45.05237169954181" lon="10.17766240987527"><ele>30.142857142857146</ele><time>2026-04-08T16:27:28Z</time></trkpt><trkpt lat="45.05229996420005" lon="10.177686108467134"><ele>29.85714285714286</ele><time>2026-04-08T16:27:29Z</time></trkpt><trkpt lat="45.0522276278913" lon="10.177708426768632"><ele>29.571428571428573</ele><time>2026-04-08T16:27:30Z</time></trkpt><trkpt lat="45.05215523589061" lon="10.177732048493516"><ele>29.285714285714292</ele><time>2026-04-08T16:27:31Z</time></trkpt><trkpt lat="45.052083802671696" lon="10.177757065070088"><ele>29.000000000000004</ele><time>2026-04-08T16:27:32Z</time></trkpt><trkpt lat="45.05201321987748" lon="10.177783973190913"><ele>29.000000000000004</ele><time>2026-04-08T16:27:33Z</time></trkpt><trkpt lat="45.051941584402805" lon="10.177810372116692"><ele>29.0</ele><time>2026-04-08T16:27:34Z</time></trkpt><trkpt lat="45.05187128797016" lon="10.177837388518569"><ele>29.000000000000004</ele><time>2026-04-08T16:27:34.999Z</time></trkpt><trkpt lat="45.05179925023036" lon="10.177861382874495"><ele>29.000000000000004</ele><time>2026-04-08T16:27:35.999Z</time></trkpt><trkpt lat="45.05172585042478" lon="10.177882642262718"><ele>29.0</ele><time>2026-04-08T16:27:36.999Z</time></trkpt><trkpt lat="45.05165329544851" lon="10.177905399702949"><ele>29.000000000000004</ele><time>2026-04-08T16:27:37.999Z</time></trkpt><trkpt lat="45.051582998830796" lon="10.177933912629149"><ele>29.000000000000004</ele><time>2026-04-08T16:27:38.999Z</time></trkpt><trkpt lat="45.05151360814629" lon="10.177961063906743"><ele>29.000000000000004</ele><time>2026-04-08T16:27:39.999Z</time></trkpt><trkpt lat="45.0514421626367" lon="10.177986911512656"><ele>29.0</ele><time>2026-04-08T16:27:40.999Z</time></trkpt><trkpt lat="45.05137079209571" lon="10.178014151598438"><ele>29.000000000000004</ele><time>2026-04-08T16:27:41.999Z</time></trkpt><trkpt lat="45.05130059395784" lon="10.178040489811448"><ele>29.000000000000004</ele><time>2026-04-08T16:27:42.999Z</time></trkpt><trkpt lat="45.05122810883507" lon="10.178064278271744"><ele>29.0</ele><time>2026-04-08T16:27:43.999Z</time></trkpt><trkpt lat="45.05115556429038" lon="10.178085840416804"><ele>29.000000000000004</ele><time>2026-04-08T16:27:44.999Z</time></trkpt><trkpt lat="45.05108304235542" lon="10.178108813543458"><ele>29.000000000000004</ele><time>2026-04-08T16:27:45.999Z</time></trkpt><trkpt lat="45.051012960838406" lon="10.178133057289244"><ele>29.000000000000004</ele><time>2026-04-08T16:27:46.999Z</time></trkpt><trkpt lat="45.05094010812063" lon="10.178160693811591"><ele>29.0</ele><time>2026-04-08T16:27:47.999Z</time></trkpt><trkpt lat="45.050867786180206" lon="10.178186589691482"><ele>29.000000000000004</ele><time>2026-04-08T16:27:48.999Z</time></trkpt><trkpt lat="45.05079541117648" lon="10.178213986532821"><ele>29.000000000000004</ele><time>2026-04-08T16:27:49.999Z</time></trkpt><trkpt lat="45.05072269800802" lon="10.178242081904619"><ele>29.0</ele><time>2026-04-08T16:27:50.999Z</time></trkpt><trkpt lat="45.050651827647506" lon="10.178266530423782"><ele>29.000000000000004</ele><time>2026-04-08T16:27:51.999Z</time></trkpt><trkpt lat="45.050577430632" lon="10.178285864727721"><ele>29.000000000000004</ele><time>2026-04-08T16:27:52.999Z</time></trkpt><trkpt lat="45.05050033772983" lon="10.178314568683811"><ele>29.285714285714292</ele><time>2026-04-08T16:27:53.999Z</time></trkpt><trkpt lat="45.050431143637276" lon="10.178340461801335"><ele>29.571428571428573</ele><time>2026-04-08T16:27:54.999Z</time></trkpt><trkpt lat="45.05036078040747" lon="10.178362051151822"><ele>29.85714285714286</ele><time>2026-04-08T16:27:55.999Z</time></trkpt><trkpt lat="45.05028991817272" lon="10.178385367989813"><ele>30.142857142857146</ele><time>2026-04-08T16:27:56.999Z</time></trkpt><trkpt lat="45.050219602850376" lon="10.178410709635278"><ele>30.42857142857143</ele><time>2026-04-08T16:27:57.999Z</time></trkpt><trkpt lat="45.05014992355951" lon="10.178440249141675"><ele>30.714285714285715</ele><time>2026-04-08T16:27:58.999Z</time></trkpt><trkpt lat="45.05007980389316" lon="10.17846579847438"><ele>31.0</ele><time>2026-04-08T16:27:59.999Z</time></trkpt><trkpt lat="45.05001057728877" lon="10.17849030739927"><ele>31.0</ele><time>2026-04-08T16:28:00.999Z</time></trkpt><trkpt lat="45.049938669529936" lon="10.178514028368305"><ele>31.000000000000004</ele><time>2026-04-08T16:28:01.999Z</time></trkpt><trkpt lat="45.04986632174096" lon="10.178534839092034"><ele>31.0</ele><time>2026-04-08T16:28:02.999Z</time></trkpt><trkpt lat="45.04979475386156" lon="10.178563334081087"><ele>31.0</ele><time>2026-04-08T16:28:03.999Z</time></trkpt><trkpt lat="45.04972199951273" lon="10.178585083997168"><ele>31.000000000000004</ele><time>2026-04-08T16:28:04.999Z</time></trkpt><trkpt lat="45.04965026662662" lon="10.178609520316744"><ele>31.0</ele><time>2026-04-08T16:28:05.999Z</time></trkpt><trkpt lat="45.049577055986425" lon="10.178637931400177"><ele>31.0</ele><time>2026-04-08T16:28:06.999Z</time></trkpt><trkpt lat="45.0495028679128" lon="10.178665864232487"><ele>31.000000000000004</ele><time>2026-04-08T16:28:07.999Z</time></trkpt><trkpt lat="45.04942789188485" lon="10.17869298295531"><ele>31.0</ele><time>2026-04-08T16:28:08.999Z</time></trkpt><trkpt lat="45.04935488524592" lon="10.178717029238333"><ele>31.0</ele><time>2026-04-08T16:28:09.999Z</time></trkpt><trkpt lat="45.04928111203365" lon="10.178736592215776"><ele>31.0</ele><time>2026-04-08T16:28:10.999Z</time></trkpt><trkpt lat="45.049208231620376" lon="10.178760364724027"><ele>31.000000000000004</ele><time>2026-04-08T16:28:11.999Z</time></trkpt><trkpt lat="45.049133426878576" lon="10.178783224969854"><ele>31.0</ele><time>2026-04-08T16:28:12.999Z</time></trkpt><trkpt lat="45.04906008561341" lon="10.178806384971647"><ele>31.142857142857146</ele><time>2026-04-08T16:28:13.999Z</time></trkpt><trkpt lat="45.048987005481166" lon="10.178832973100688"><ele>31.28571428571429</ele><time>2026-04-08T16:28:14.999Z</time></trkpt><trkpt lat="45.048914274951095" lon="10.178860414292998"><ele>31.42857142857143</ele><time>2026-04-08T16:28:15.999Z</time></trkpt><trkpt lat="45.04884564916112" lon="10.178874884295215"><ele>31.57142857142857</ele><time>2026-04-08T16:28:16.999Z</time></trkpt><trkpt lat="45.048772223493444" lon="10.178897981920388"><ele>31.71428571428571</ele><time>2026-04-08T16:28:17.999Z</time></trkpt><trkpt lat="45.04869970386245" lon="10.178930259268077"><ele>31.857142857142854</ele><time>2026-04-08T16:28:18.999Z</time></trkpt><trkpt lat="45.04862675607823" lon="10.178956037833153"><ele>32.0</ele><time>2026-04-08T16:28:19.999Z</time></trkpt><trkpt lat="45.048555768231665" lon="10.17897950277417"><ele>31.999999999999996</ele><time>2026-04-08T16:28:20.999Z</time></trkpt><trkpt lat="45.04848523041584" lon="10.179012057178943"><ele>32.0</ele><time>2026-04-08T16:28:21.999Z</time></trkpt><trkpt lat="45.04841650404443" lon="10.179052181155932"><ele>32.0</ele><time>2026-04-08T16:28:22.999Z</time></trkpt><trkpt lat="45.04834647178894" lon="10.179095175794618"><ele>32.0</ele><time>2026-04-08T16:28:23.999Z</time></trkpt><trkpt lat="45.048277748704926" lon="10.179138372683958"><ele>31.999999999999996</ele><time>2026-04-08T16:28:24.999Z</time></trkpt><trkpt lat="45.04820972784808" lon="10.179184040183808"><ele>32.0</ele><time>2026-04-08T16:28:25.999Z</time></trkpt><trkpt lat="45.04814322238532" lon="10.179237571702854"><ele>31.833333333333332</ele><time>2026-04-08T16:28:26.999Z</time></trkpt><trkpt lat="45.048077562091706" lon="10.179290901316794"><ele>31.666666666666664</ele><time>2026-04-08T16:28:27.999Z</time></trkpt><trkpt lat="45.0480108564031" lon="10.179339807732303"><ele>31.5</ele><time>2026-04-08T16:28:28.999Z</time></trkpt><trkpt lat="45.04794286409166" lon="10.179388769506339"><ele>31.333333333333336</ele><time>2026-04-08T16:28:29.999Z</time></trkpt><trkpt lat="45.0478762485857" lon="10.179438302502557"><ele>31.166666666666668</ele><time>2026-04-08T16:28:30.998Z</time></trkpt><trkpt lat="45.047808813294694" lon="10.179489191275401"><ele>31.0</ele><time>2026-04-08T16:28:31.998Z</time></trkpt><trkpt lat="45.04773939883465" lon="10.179532988738542"><ele>31.000000000000004</ele><time>2026-04-08T16:28:32.998Z</time></trkpt><trkpt lat="45.0476715505152" lon="10.179579841613037"><ele>31.0</ele><time>2026-04-08T16:28:33.998Z</time></trkpt><trkpt lat="45.04760392586378" lon="10.179627007727"><ele>31.0</ele><time>2026-04-08T16:28:34.998Z</time></trkpt><trkpt lat="45.047536132839866" lon="10.179677908267518"><ele>31.0</ele><time>2026-04-08T16:28:35.998Z</time></trkpt><trkpt lat="45.047470975895685" lon="10.179732651697938"><ele>31.000000000000004</ele><time>2026-04-08T16:28:36.998Z</time></trkpt><trkpt lat="45.04740629624141" lon="10.179784634536157"><ele>31.0</ele><time>2026-04-08T16:28:37.998Z</time></trkpt><trkpt lat="45.047339807090225" lon="10.179838060193504"><ele>30.833333333333336</ele><time>2026-04-08T16:28:38.998Z</time></trkpt><trkpt lat="45.04727408083072" lon="10.179892923322313"><ele>30.666666666666668</ele><time>2026-04-08T16:28:39.998Z</time></trkpt><trkpt lat="45.04720943755978" lon="10.179946278114516"><ele>30.5</ele><time>2026-04-08T16:28:40.998Z</time></trkpt><trkpt lat="45.04714312367054" lon="10.179999883776818"><ele>30.333333333333336</ele><time>2026-04-08T16:28:41.998Z</time></trkpt><trkpt lat="45.04708008860701" lon="10.180056283783307"><ele>30.166666666666668</ele><time>2026-04-08T16:28:42.998Z</time></trkpt><trkpt lat="45.04701695776224" lon="10.180110439357877"><ele>30.0</ele><time>2026-04-08T16:28:44Z</time></trkpt><trkpt lat="45.04695389698224" lon="10.180165804656388"><ele>30.0</ele><time>2026-04-08T16:28:45Z</time></trkpt><trkpt lat="45.04689140345363" lon="10.180218589270861"><ele>30.0</ele><time>2026-04-08T16:28:46Z</time></trkpt><trkpt lat="45.04682656591969" lon="10.180269294953797"><ele>30.0</ele><time>2026-04-08T16:28:47Z</time></trkpt><trkpt lat="45.04676085159486" lon="10.180317403862176"><ele>30.0</ele><time>2026-04-08T16:28:48Z</time></trkpt><trkpt lat="45.04669639045327" lon="10.180366299619921"><ele>30.0</ele><time>2026-04-08T16:28:49Z</time></trkpt><trkpt lat="45.046633908817874" lon="10.180415821194854"><ele>30.0</ele><time>2026-04-08T16:28:50Z</time></trkpt><trkpt lat="45.04656984627843" lon="10.180466509175"><ele>30.0</ele><time>2026-04-08T16:28:51Z</time></trkpt><trkpt lat="45.04650535121874" lon="10.180515189068345"><ele>30.142857142857146</ele><time>2026-04-08T16:28:52Z</time></trkpt><trkpt lat="45.046441767769856" lon="10.180563274071954"><ele>30.285714285714285</ele><time>2026-04-08T16:28:53Z</time></trkpt><trkpt lat="45.046376538626866" lon="10.180611503460934"><ele>30.42857142857143</ele><time>2026-04-08T16:28:54Z</time></trkpt><trkpt lat="45.04631292402902" lon="10.180657255793347"><ele>30.571428571428573</ele><time>2026-04-08T16:28:55Z</time></trkpt><trkpt lat="45.04624965323941" lon="10.180705826488403"><ele>30.714285714285715</ele><time>2026-04-08T16:28:56Z</time></trkpt><trkpt lat="45.04618530039561" lon="10.180753055918313"><ele>30.857142857142858</ele><time>2026-04-08T16:28:57Z</time></trkpt><trkpt lat="45.04612250392292" lon="10.180799202306778"><ele>31.0</ele><time>2026-04-08T16:28:58Z</time></trkpt><trkpt lat="45.04605687743758" lon="10.18084646736578"><ele>30.714285714285715</ele><time>2026-04-08T16:28:59Z</time></trkpt><trkpt lat="45.045993680652096" lon="10.180894574054957"><ele>30.42857142857143</ele><time>2026-04-08T16:29:00Z</time></trkpt><trkpt lat="45.04593029395046" lon="10.180946177876457"><ele>30.142857142857146</ele><time>2026-04-08T16:29:01Z</time></trkpt><trkpt lat="45.0458678580155" lon="10.180995898992986"><ele>29.85714285714286</ele><time>2026-04-08T16:29:02Z</time></trkpt><trkpt lat="45.045804427892065" lon="10.181045180855074"><ele>29.571428571428573</ele><time>2026-04-08T16:29:03Z</time></trkpt><trkpt lat="45.045740056964924" lon="10.181095508134762"><ele>29.285714285714292</ele><time>2026-04-08T16:29:04Z</time></trkpt><trkpt lat="45.045677903366126" lon="10.18114838813634"><ele>29.000000000000004</ele><time>2026-04-08T16:29:05Z</time></trkpt><trkpt lat="45.045618317493826" lon="10.181208717330689"><ele>29.000000000000004</ele><time>2026-04-08T16:29:06Z</time></trkpt><trkpt lat="45.04556138369665" lon="10.181270494578117"><ele>29.0</ele><time>2026-04-08T16:29:07Z</time></trkpt><trkpt lat="45.04550449164098" lon="10.181333190145981"><ele>29.000000000000004</ele><time>2026-04-08T16:29:08Z</time></trkpt><trkpt lat="45.04544794002262" lon="10.181399016887276"><ele>29.000000000000004</ele><time>2026-04-08T16:29:09Z</time></trkpt><trkpt lat="45.04539185646055" lon="10.181463525186734"><ele>29.0</ele><time>2026-04-08T16:29:10Z</time></trkpt><trkpt lat="45.0453341576222" lon="10.181528446139573"><ele>29.000000000000004</ele><time>2026-04-08T16:29:11Z</time></trkpt><trkpt lat="45.04527464492048" lon="10.181592844892519"><ele>29.000000000000004</ele><time>2026-04-08T16:29:12Z</time></trkpt><trkpt lat="45.04521690322142" lon="10.181658638960892"><ele>28.999999999999996</ele><time>2026-04-08T16:29:13Z</time></trkpt><trkpt lat="45.04515804447335" lon="10.181725358263035"><ele>29.0</ele><time>2026-04-08T16:29:14Z</time></trkpt><trkpt lat="45.04509845263542" lon="10.1817916721861"><ele>29.0</ele><time>2026-04-08T16:29:15Z</time></trkpt><trkpt lat="45.04503792348638" lon="10.181858339595836"><ele>29.0</ele><time>2026-04-08T16:29:16Z</time></trkpt><trkpt lat="45.044977582135786" lon="10.181926399886029"><ele>28.999999999999996</ele><time>2026-04-08T16:29:17Z</time></trkpt><trkpt lat="45.04491630446903" lon="10.181993417959315"><ele>29.0</ele><time>2026-04-08T16:29:18Z</time></trkpt><trkpt lat="45.044859085939564" lon="10.18206704454465"><ele>29.0</ele><time>2026-04-08T16:29:19Z</time></trkpt><trkpt lat="45.04481226894332" lon="10.182152677026183"><ele>29.0</ele><time>2026-04-08T16:29:20Z</time></trkpt><trkpt lat="45.04481937142837" lon="10.182272747335816"><ele>29.0</ele><time>2026-04-08T16:29:21Z</time></trkpt><trkpt lat="45.04481615883159" lon="10.182375699135154"><ele>29.0</ele><time>2026-04-08T16:29:22Z</time></trkpt><trkpt lat="45.04483007533716" lon="10.182466372326516"><ele>29.0</ele><time>2026-04-08T16:29:23Z</time></trkpt><trkpt lat="45.044690332093815" lon="10.18255541114306"><ele>28.833333333333332</ele><time>2026-04-08T16:29:24Z</time></trkpt><trkpt lat="45.04461353570128" lon="10.182595367432675"><ele>28.666666666666664</ele><time>2026-04-08T16:29:25Z</time></trkpt><trkpt lat="45.044536888369656" lon="10.182617602570623"><ele>28.5</ele><time>2026-04-08T16:29:26Z</time></trkpt><trkpt lat="45.044463726213365" lon="10.182646642502407"><ele>28.333333333333336</ele><time>2026-04-08T16:29:27Z</time></trkpt><trkpt lat="45.04439123102811" lon="10.182678806190884"><ele>28.166666666666668</ele><time>2026-04-08T16:29:28Z</time></trkpt><trkpt lat="45.04431734387564" lon="10.18271146356237"><ele>28.0</ele><time>2026-04-08T16:29:29Z</time></trkpt><trkpt lat="45.044244280021914" lon="10.182744583841611"><ele>28.0</ele><time>2026-04-08T16:29:30Z</time></trkpt><trkpt lat="45.044171046985234" lon="10.182775117808413"><ele>28.0</ele><time>2026-04-08T16:29:31Z</time></trkpt><trkpt lat="45.04409962411354" lon="10.182806994874028"><ele>28.0</ele><time>2026-04-08T16:29:31.999Z</time></trkpt><trkpt lat="45.04402770136363" lon="10.182838574797076"><ele>28.0</ele><time>2026-04-08T16:29:32.999Z</time></trkpt><trkpt lat="45.04395703172665" lon="10.182871537254025"><ele>28.0</ele><time>2026-04-08T16:29:33.999Z</time></trkpt><trkpt lat="45.0438897711783" lon="10.182903451983414"><ele>28.0</ele><time>2026-04-08T16:29:34.999Z</time></trkpt><trkpt lat="45.04382075242475" lon="10.182934020138497"><ele>28.0</ele><time>2026-04-08T16:29:35.999Z</time></trkpt><trkpt lat="45.043743746898265" lon="10.182960483013884"><ele>28.285714285714285</ele><time>2026-04-08T16:29:36.999Z</time></trkpt><trkpt lat="45.04367170968432" lon="10.182986649679888"><ele>28.57142857142857</ele><time>2026-04-08T16:29:37.999Z</time></trkpt><trkpt lat="45.04360279610209" lon="10.18301738786165"><ele>28.857142857142858</ele><time>2026-04-08T16:29:38.999Z</time></trkpt><trkpt lat="45.043533984179945" lon="10.183042861055043"><ele>29.142857142857142</ele><time>2026-04-08T16:29:39.999Z</time></trkpt><trkpt lat="45.04346948573075" lon="10.18306936033714"><ele>29.428571428571427</ele><time>2026-04-08T16:29:40.999Z</time></trkpt><trkpt lat="45.0434054924838" lon="10.183096534003274"><ele>29.714285714285715</ele><time>2026-04-08T16:29:41.999Z</time></trkpt><trkpt lat="45.043343154792254" lon="10.18312190423767"><ele>30.0</ele><time>2026-04-08T16:29:42.999Z</time></trkpt><trkpt lat="45.043224485506926" lon="10.18316837690477"><ele>29.833333333333332</ele><time>2026-04-08T16:29:44.999Z</time></trkpt><trkpt lat="45.04310478485292" lon="10.183219778556014"><ele>29.666666666666664</ele><time>2026-04-08T16:29:46.999Z</time></trkpt><trkpt lat="45.04298811351638" lon="10.183268399160715"><ele>29.5</ele><time>2026-04-08T16:29:48.999Z</time></trkpt><trkpt lat="45.04292510235404" lon="10.183296109129145"><ele>29.333333333333332</ele><time>2026-04-08T16:29:49.999Z</time></trkpt><trkpt lat="45.042863631824574" lon="10.183320067253181"><ele>29.166666666666664</ele><time>2026-04-08T16:29:50.999Z</time></trkpt><trkpt lat="45.042801865239156" lon="10.18334865851115"><ele>29.0</ele><time>2026-04-08T16:29:51.999Z</time></trkpt><trkpt lat="45.042736761518526" lon="10.183379953262797"><ele>29.000000000000004</ele><time>2026-04-08T16:29:52.999Z</time></trkpt><trkpt lat="45.04267294933433" lon="10.18341334578652"><ele>29.0</ele><time>2026-04-08T16:29:53.999Z</time></trkpt><trkpt lat="45.04261339598502" lon="10.183445257798425"><ele>29.000000000000004</ele><time>2026-04-08T16:29:54.999Z</time></trkpt><trkpt lat="45.04255464780079" lon="10.183482487600982"><ele>29.000000000000004</ele><time>2026-04-08T16:29:55.999Z</time></trkpt><trkpt lat="45.04249441317168" lon="10.183521060104754"><ele>29.0</ele><time>2026-04-08T16:29:56.999Z</time></trkpt><trkpt lat="45.04243310102716" lon="10.18356019187453"><ele>29.000000000000004</ele><time>2026-04-08T16:29:57.999Z</time></trkpt><trkpt lat="45.04237410508364" lon="10.183603473831424"><ele>29.000000000000004</ele><time>2026-04-08T16:29:58.999Z</time></trkpt><trkpt lat="45.04231400030165" lon="10.183649146933073"><ele>28.85714285714286</ele><time>2026-04-08T16:29:59.999Z</time></trkpt><trkpt lat="45.04225491859803" lon="10.183700826193418"><ele>28.714285714285715</ele><time>2026-04-08T16:30:00.999Z</time></trkpt><trkpt lat="45.042198295966365" lon="10.183761832016705"><ele>28.571428571428573</ele><time>2026-04-08T16:30:01.999Z</time></trkpt><trkpt lat="45.04214518938088" lon="10.183825921046644"><ele>28.42857142857143</ele><time>2026-04-08T16:30:02.999Z</time></trkpt><trkpt lat="45.042093447700005" lon="10.183892617986556"><ele>28.285714285714285</ele><time>2026-04-08T16:30:03.999Z</time></trkpt><trkpt lat="45.042040311436295" lon="10.183961779182466"><ele>28.142857142857142</ele><time>2026-04-08T16:30:04.999Z</time></trkpt><trkpt lat="45.04198813689814" lon="10.184030419681267"><ele>28.0</ele><time>2026-04-08T16:30:05.999Z</time></trkpt><trkpt lat="45.04193755677229" lon="10.18410082654481"><ele>28.0</ele><time>2026-04-08T16:30:06.999Z</time></trkpt><trkpt lat="45.04188956520373" lon="10.184170526910032"><ele>28.0</ele><time>2026-04-08T16:30:07.999Z</time></trkpt><trkpt lat="45.041841209460976" lon="10.184241755561658"><ele>28.0</ele><time>2026-04-08T16:30:08.999Z</time></trkpt><trkpt lat="45.04179458886131" lon="10.18431195063022"><ele>28.0</ele><time>2026-04-08T16:30:09.999Z</time></trkpt><trkpt lat="45.04174690278551" lon="10.184384439802606"><ele>28.0</ele><time>2026-04-08T16:30:10.999Z</time></trkpt><trkpt lat="45.04169860906559" lon="10.184455741917054"><ele>28.0</ele><time>2026-04-08T16:30:11.999Z</time></trkpt><trkpt lat="45.04165361450983" lon="10.184528915100127"><ele>28.0</ele><time>2026-04-08T16:30:12.999Z</time></trkpt><trkpt lat="45.041614186118224" lon="10.184612485781225"><ele>28.0</ele><time>2026-04-08T16:30:13.999Z</time></trkpt><trkpt lat="45.04157622572527" lon="10.1846980667134"><ele>28.0</ele><time>2026-04-08T16:30:14.999Z</time></trkpt><trkpt lat="45.0415386823643" lon="10.184778602803357"><ele>28.0</ele><time>2026-04-08T16:30:15.999Z</time></trkpt><trkpt lat="45.041499287794544" lon="10.184862127890419"><ele>28.0</ele><time>2026-04-08T16:30:16.999Z</time></trkpt><trkpt lat="45.0414639001229" lon="10.18494913529477"><ele>28.0</ele><time>2026-04-08T16:30:17.999Z</time></trkpt><trkpt lat="45.04143374048815" lon="10.185040530174183"><ele>28.0</ele><time>2026-04-08T16:30:18.999Z</time></trkpt><trkpt lat="45.04140815206023" lon="10.185134783558011"><ele>28.0</ele><time>2026-04-08T16:30:19.999Z</time></trkpt><trkpt lat="45.04138125496907" lon="10.185227491979237"><ele>28.0</ele><time>2026-04-08T16:30:20.999Z</time></trkpt><trkpt lat="45.04135876395912" lon="10.185320837725564"><ele>28.0</ele><time>2026-04-08T16:30:21.999Z</time></trkpt><trkpt lat="45.04134036812482" lon="10.18541690168298"><ele>28.0</ele><time>2026-04-08T16:30:22.999Z</time></trkpt><trkpt lat="45.04132474421137" lon="10.185512244220313"><ele>28.0</ele><time>2026-04-08T16:30:23.999Z</time></trkpt><trkpt lat="45.04131566076745" lon="10.18560952071466"><ele>28.0</ele><time>2026-04-08T16:30:24.999Z</time></trkpt><trkpt lat="45.04131082285323" lon="10.18570673611407"><ele>28.0</ele><time>2026-04-08T16:30:25.999Z</time></trkpt><trkpt lat="45.04130962639053" lon="10.185807377023032"><ele>28.0</ele><time>2026-04-08T16:30:26.999Z</time></trkpt><trkpt lat="45.041308301744714" lon="10.185910560537788"><ele>28.142857142857142</ele><time>2026-04-08T16:30:27.999Z</time></trkpt><trkpt lat="45.04131141364677" lon="10.186011466232562"><ele>28.285714285714285</ele><time>2026-04-08T16:30:28.998Z</time></trkpt><trkpt lat="45.041320002727275" lon="10.18611438328854"><ele>28.42857142857143</ele><time>2026-04-08T16:30:29.998Z</time></trkpt><trkpt lat="45.04133222411123" lon="10.186213571487142"><ele>28.571428571428573</ele><time>2026-04-08T16:30:30.998Z</time></trkpt><trkpt lat="45.04134713660269" lon="10.186312711310086"><ele>28.714285714285715</ele><time>2026-04-08T16:30:31.998Z</time></trkpt><trkpt lat="45.04136356777984" lon="10.18640964202735"><ele>28.85714285714286</ele><time>2026-04-08T16:30:32.998Z</time></trkpt><trkpt lat="45.041377993670885" lon="10.186510916327295"><ele>29.000000000000004</ele><time>2026-04-08T16:30:33.998Z</time></trkpt><trkpt lat="45.041395299320705" lon="10.18660911072973"><ele>29.000000000000004</ele><time>2026-04-08T16:30:34.998Z</time></trkpt><trkpt lat="45.04141373905073" lon="10.186708467484756"><ele>29.0</ele><time>2026-04-08T16:30:35.998Z</time></trkpt><trkpt lat="45.04143067372842" lon="10.186808125271277"><ele>29.000000000000004</ele><time>2026-04-08T16:30:36.998Z</time></trkpt><trkpt lat="45.04144863129743" lon="10.186907738239519"><ele>29.000000000000004</ele><time>2026-04-08T16:30:37.998Z</time></trkpt><trkpt lat="45.041469262586226" lon="10.187007922533796"><ele>29.0</ele><time>2026-04-08T16:30:38.998Z</time></trkpt><trkpt lat="45.0414896056007" lon="10.187106445908066"><ele>29.000000000000004</ele><time>2026-04-08T16:30:39.998Z</time></trkpt><trkpt lat="45.0415074311083" lon="10.187206671970127"><ele>29.000000000000004</ele><time>2026-04-08T16:30:40.998Z</time></trkpt><trkpt lat="45.041525431629296" lon="10.187308116627653"><ele>28.71428571428572</ele><time>2026-04-08T16:30:41.998Z</time></trkpt><trkpt lat="45.041546054014766" lon="10.18740770548482"><ele>28.42857142857143</ele><time>2026-04-08T16:30:42.998Z</time></trkpt><trkpt lat="45.041565018669196" lon="10.18750616547945"><ele>28.142857142857146</ele><time>2026-04-08T16:30:43.998Z</time></trkpt><trkpt lat="45.04157992336799" lon="10.187607899207825"><ele>27.85714285714286</ele><time>2026-04-08T16:30:44.998Z</time></trkpt><trkpt lat="45.0415921962211" lon="10.187706543460136"><ele>27.57142857142857</ele><time>2026-04-08T16:30:45.998Z</time></trkpt><trkpt lat="45.04160070018786" lon="10.1878022385317"><ele>27.285714285714285</ele><time>2026-04-08T16:30:46.998Z</time></trkpt><trkpt lat="45.04160557157596" lon="10.187898692011279"><ele>27.0</ele><time>2026-04-08T16:30:47.998Z</time></trkpt><trkpt lat="45.04160626228902" lon="10.187999755017492"><ele>27.0</ele><time>2026-04-08T16:30:49Z</time></trkpt><trkpt lat="45.0416062058153" lon="10.188104148471403"><ele>27.0</ele><time>2026-04-08T16:30:50Z</time></trkpt><trkpt lat="45.0416094439772" lon="10.188209080993238"><ele>27.0</ele><time>2026-04-08T16:30:51Z</time></trkpt><trkpt lat="45.04161086392719" lon="10.188315218149823"><ele>27.0</ele><time>2026-04-08T16:30:52Z</time></trkpt><trkpt lat="45.04160926141309" lon="10.188419151229159"><ele>27.0</ele><time>2026-04-08T16:30:53Z</time></trkpt><trkpt lat="45.041611470081264" lon="10.188523900863686"><ele>27.0</ele><time>2026-04-08T16:30:54Z</time></trkpt><trkpt lat="45.04162229994636" lon="10.188627137932349"><ele>27.0</ele><time>2026-04-08T16:30:55Z</time></trkpt><trkpt lat="45.041637931127084" lon="10.188727505395663"><ele>27.714285714285715</ele><time>2026-04-08T16:30:56Z</time></trkpt><trkpt lat="45.04165722692637" lon="10.188828235261342"><ele>28.428571428571427</ele><time>2026-04-08T16:30:57Z</time></trkpt><trkpt lat="45.04167880183089" lon="10.18892766617345"><ele>29.142857142857142</ele><time>2026-04-08T16:30:58Z</time></trkpt><trkpt lat="45.041705721846796" lon="10.189022017146794"><ele>29.857142857142854</ele><time>2026-04-08T16:30:59Z</time></trkpt><trkpt lat="45.04173750464421" lon="10.189117804628179"><ele>30.57142857142857</ele><time>2026-04-08T16:31:00Z</time></trkpt><trkpt lat="45.041768796350595" lon="10.189211310981566"><ele>31.285714285714285</ele><time>2026-04-08T16:31:01Z</time></trkpt><trkpt lat="45.04179929267118" lon="10.189302919981552"><ele>32.0</ele><time>2026-04-08T16:31:02Z</time></trkpt><trkpt lat="45.041831831853564" lon="10.189396475594995"><ele>32.0</ele><time>2026-04-08T16:31:03Z</time></trkpt><trkpt lat="45.0418656270403" lon="10.18948813926358"><ele>31.999999999999996</ele><time>2026-04-08T16:31:04Z</time></trkpt><trkpt lat="45.04189740195586" lon="10.189579775025422"><ele>32.0</ele><time>2026-04-08T16:31:05Z</time></trkpt><trkpt lat="45.04192961514243" lon="10.189673276044523"><ele>32.0</ele><time>2026-04-08T16:31:06Z</time></trkpt><trkpt lat="45.04196388616779" lon="10.189763289714733"><ele>31.999999999999996</ele><time>2026-04-08T16:31:07Z</time></trkpt><trkpt lat="45.042003905877735" lon="10.189848986276449"><ele>32.0</ele><time>2026-04-08T16:31:08Z</time></trkpt><trkpt lat="45.04205303056253" lon="10.189928276413706"><ele>32.0</ele><time>2026-04-08T16:31:09Z</time></trkpt><trkpt lat="45.04210755056414" lon="10.190000238938376"><ele>31.999999999999996</ele><time>2026-04-08T16:31:10Z</time></trkpt><trkpt lat="45.04216899192302" lon="10.19006103452355"><ele>32.0</ele><time>2026-04-08T16:31:11Z</time></trkpt><trkpt lat="45.04223614026973" lon="10.190111713460729"><ele>32.0</ele><time>2026-04-08T16:31:12Z</time></trkpt><trkpt lat="45.04230754239057" lon="10.190152007771179"><ele>32.0</ele><time>2026-04-08T16:31:13Z</time></trkpt><trkpt lat="45.042379476043216" lon="10.190186433391789"><ele>31.999999999999996</ele><time>2026-04-08T16:31:14Z</time></trkpt><trkpt lat="45.04245308524873" lon="10.190213679432391"><ele>32.0</ele><time>2026-04-08T16:31:15Z</time></trkpt><trkpt lat="45.04252787604936" lon="10.190234630767494"><ele>31.999999999999996</ele><time>2026-04-08T16:31:16Z</time></trkpt><trkpt lat="45.04260225776749" lon="10.19025416276809"><ele>32.0</ele><time>2026-04-08T16:31:17Z</time></trkpt><trkpt lat="45.04267637904288" lon="10.190276129763815"><ele>32.0</ele><time>2026-04-08T16:31:18Z</time></trkpt><trkpt lat="45.04274878450767" lon="10.190299757609552"><ele>32.0</ele><time>2026-04-08T16:31:19Z</time></trkpt><trkpt lat="45.04282333537613" lon="10.190323676002329"><ele>31.999999999999996</ele><time>2026-04-08T16:31:20Z</time></trkpt><trkpt lat="45.04289681580603" lon="10.190347372865974"><ele>32.0</ele><time>2026-04-08T16:31:21Z</time></trkpt><trkpt lat="45.0429705698467" lon="10.190371644330074"><ele>31.999999999999996</ele><time>2026-04-08T16:31:22Z</time></trkpt><trkpt lat="45.04304274254646" lon="10.190400082782823"><ele>32.0</ele><time>2026-04-08T16:31:23Z</time></trkpt><trkpt lat="45.04311429967675" lon="10.190430782985295"><ele>32.0</ele><time>2026-04-08T16:31:24Z</time></trkpt><trkpt lat="45.04318554912992" lon="10.190467522403157"><ele>32.0</ele><time>2026-04-08T16:31:25Z</time></trkpt><trkpt lat="45.043255381879966" lon="10.190506888378154"><ele>31.999999999999996</ele><time>2026-04-08T16:31:26Z</time></trkpt><trkpt lat="45.04332400819141" lon="10.190549919867557"><ele>32.0</ele><time>2026-04-08T16:31:27Z</time></trkpt><trkpt lat="45.043394044917626" lon="10.190592832603278"><ele>31.833333333333332</ele><time>2026-04-08T16:31:28Z</time></trkpt><trkpt lat="45.04346249685998" lon="10.19063489201398"><ele>31.666666666666664</ele><time>2026-04-08T16:31:29Z</time></trkpt><trkpt lat="45.043530934385274" lon="10.190680078408613"><ele>31.5</ele><time>2026-04-08T16:31:30Z</time></trkpt><trkpt lat="45.04359730009723" lon="10.190730443698865"><ele>31.333333333333336</ele><time>2026-04-08T16:31:31Z</time></trkpt><trkpt lat="45.04366258866995" lon="10.190783597767876"><ele>31.166666666666668</ele><time>2026-04-08T16:31:32Z</time></trkpt><trkpt lat="45.04372957844445" lon="10.190832783020204"><ele>31.0</ele><time>2026-04-08T16:31:33Z</time></trkpt><trkpt lat="45.043800390583215" lon="10.190875655092869"><ele>31.0</ele><time>2026-04-08T16:31:34Z</time></trkpt><trkpt lat="45.0438630587024" lon="10.190926224164077"><ele>31.000000000000004</ele><time>2026-04-08T16:31:35Z</time></trkpt><trkpt lat="45.04392751084177" lon="10.190980644753811"><ele>31.0</ele><time>2026-04-08T16:31:36Z</time></trkpt><trkpt lat="45.04399080589067" lon="10.191040329556602"><ele>31.0</ele><time>2026-04-08T16:31:37Z</time></trkpt><trkpt lat="45.044052308084574" lon="10.191096945658389"><ele>31.000000000000004</ele><time>2026-04-08T16:31:38Z</time></trkpt><trkpt lat="45.04411206583759" lon="10.191154334385285"><ele>31.0</ele><time>2026-04-08T16:31:39Z</time></trkpt><trkpt lat="45.04417146477684" lon="10.191214079563665"><ele>31.0</ele><time>2026-04-08T16:31:40Z</time></trkpt><trkpt lat="45.04423316082233" lon="10.191275173288213"><ele>30.857142857142858</ele><time>2026-04-08T16:31:40.999Z</time></trkpt><trkpt lat="45.0442950398549" lon="10.19133537406773"><ele>30.714285714285715</ele><time>2026-04-08T16:31:41.999Z</time></trkpt><trkpt lat="45.044357414239165" lon="10.191395459091508"><ele>30.571428571428573</ele><time>2026-04-08T16:31:42.999Z</time></trkpt><trkpt lat="45.04441975706913" lon="10.191454357667068"><ele>30.42857142857143</ele><time>2026-04-08T16:31:43.999Z</time></trkpt><trkpt lat="45.044480440232945" lon="10.191512101516718"><ele>30.285714285714285</ele><time>2026-04-08T16:31:44.999Z</time></trkpt><trkpt lat="45.04454223901186" lon="10.191568940688864"><ele>30.142857142857146</ele><time>2026-04-08T16:31:45.999Z</time></trkpt><trkpt lat="45.044603008595296" lon="10.191627208605585"><ele>30.0</ele><time>2026-04-08T16:31:46.999Z</time></trkpt><trkpt lat="45.044665944877714" lon="10.191688806639487"><ele>30.0</ele><time>2026-04-08T16:31:47.999Z</time></trkpt><trkpt lat="45.04472742808254" lon="10.191745088239154"><ele>30.0</ele><time>2026-04-08T16:31:48.999Z</time></trkpt><trkpt lat="45.04479045193795" lon="10.191803993107145"><ele>30.0</ele><time>2026-04-08T16:31:49.999Z</time></trkpt><trkpt lat="45.044848892734514" lon="10.19186404393145"><ele>30.0</ele><time>2026-04-08T16:31:50.999Z</time></trkpt><trkpt lat="45.044907612522046" lon="10.191924093568653"><ele>30.0</ele><time>2026-04-08T16:31:51.999Z</time></trkpt><trkpt lat="45.044969875947395" lon="10.191983507147821"><ele>30.0</ele><time>2026-04-08T16:31:52.999Z</time></trkpt><trkpt lat="45.045032252639324" lon="10.192044806685816"><ele>30.0</ele><time>2026-04-08T16:31:53.999Z</time></trkpt><trkpt lat="45.04509416447969" lon="10.192104420902433"><ele>30.0</ele><time>2026-04-08T16:31:54.999Z</time></trkpt><trkpt lat="45.04515455029287" lon="10.192165600338136"><ele>30.0</ele><time>2026-04-08T16:31:55.999Z</time></trkpt><trkpt lat="45.04521301801014" lon="10.19222766989801"><ele>30.0</ele><time>2026-04-08T16:31:56.999Z</time></trkpt><trkpt lat="45.04527125585451" lon="10.192287668431414"><ele>30.0</ele><time>2026-04-08T16:31:57.999Z</time></trkpt><trkpt lat="45.045333243153685" lon="10.192351125803732"><ele>30.0</ele><time>2026-04-08T16:31:58.999Z</time></trkpt><trkpt lat="45.04539458920466" lon="10.192415219337171"><ele>30.0</ele><time>2026-04-08T16:31:59.999Z</time></trkpt><trkpt lat="45.04545615845588" lon="10.192477470882665"><ele>30.0</ele><time>2026-04-08T16:32:00.999Z</time></trkpt><trkpt lat="45.045518801131166" lon="10.19253989070657"><ele>30.0</ele><time>2026-04-08T16:32:01.999Z</time></trkpt><trkpt lat="45.04557957298574" lon="10.192596075983845"><ele>30.0</ele><time>2026-04-08T16:32:02.999Z</time></trkpt><trkpt lat="45.0456417879942" lon="10.192655290763398"><ele>30.0</ele><time>2026-04-08T16:32:03.999Z</time></trkpt><trkpt lat="45.04570399297085" lon="10.192714926079672"><ele>30.0</ele><time>2026-04-08T16:32:04.999Z</time></trkpt><trkpt lat="45.045765399929984" lon="10.192774810223167"><ele>30.0</ele><time>2026-04-08T16:32:05.999Z</time></trkpt><trkpt lat="45.04582752236251" lon="10.192831843772964"><ele>30.0</ele><time>2026-04-08T16:32:06.999Z</time></trkpt><trkpt lat="45.04589034898898" lon="10.192887828726228"><ele>30.0</ele><time>2026-04-08T16:32:07.999Z</time></trkpt><trkpt lat="45.04595387985211" lon="10.192943886745118"><ele>30.0</ele><time>2026-04-08T16:32:08.999Z</time></trkpt><trkpt lat="45.04601518104979" lon="10.193003556938445"><ele>30.0</ele><time>2026-04-08T16:32:09.999Z</time></trkpt><trkpt lat="45.046078029231026" lon="10.193061793435527"><ele>30.0</ele><time>2026-04-08T16:32:10.999Z</time></trkpt><trkpt lat="45.04613982376587" lon="10.193117155665997"><ele>30.0</ele><time>2026-04-08T16:32:11.999Z</time></trkpt><trkpt lat="45.04620550673618" lon="10.19316851361781"><ele>30.0</ele><time>2026-04-08T16:32:12.999Z</time></trkpt><trkpt lat="45.04627060268996" lon="10.193215831217428"><ele>30.0</ele><time>2026-04-08T16:32:13.999Z</time></trkpt><trkpt lat="45.046338182077434" lon="10.193258732487553"><ele>30.0</ele><time>2026-04-08T16:32:14.999Z</time></trkpt><trkpt lat="45.046410565128625" lon="10.193290437182144"><ele>30.0</ele><time>2026-04-08T16:32:15.999Z</time></trkpt><trkpt lat="45.046483362788514" lon="10.19331209681231"><ele>30.0</ele><time>2026-04-08T16:32:16.999Z</time></trkpt><trkpt lat="45.04655965565486" lon="10.193320422392604"><ele>30.0</ele><time>2026-04-08T16:32:17.999Z</time></trkpt><trkpt lat="45.04663291268106" lon="10.193322016339716"><ele>30.0</ele><time>2026-04-08T16:32:18.999Z</time></trkpt><trkpt lat="45.046708247366894" lon="10.193311094868049"><ele>30.0</ele><time>2026-04-08T16:32:19.999Z</time></trkpt><trkpt lat="45.046782207482636" lon="10.193303781418372"><ele>30.0</ele><time>2026-04-08T16:32:20.999Z</time></trkpt><trkpt lat="45.04685465191473" lon="10.193311102913434"><ele>30.0</ele><time>2026-04-08T16:32:21.999Z</time></trkpt><trkpt lat="45.046929757215324" lon="10.19332348003904"><ele>30.0</ele><time>2026-04-08T16:32:22.999Z</time></trkpt><trkpt lat="45.04700473016562" lon="10.193341648963548"><ele>30.0</ele><time>2026-04-08T16:32:23.999Z</time></trkpt><trkpt lat="45.0470800583921" lon="10.193362980128962"><ele>30.0</ele><time>2026-04-08T16:32:24.999Z</time></trkpt><trkpt lat="45.04715102311863" lon="10.193387597031746"><ele>30.0</ele><time>2026-04-08T16:32:25.999Z</time></trkpt><trkpt lat="45.04722550974371" lon="10.193415328225072"><ele>30.0</ele><time>2026-04-08T16:32:26.999Z</time></trkpt><trkpt lat="45.04729793698448" lon="10.193446807652087"><ele>30.0</ele><time>2026-04-08T16:32:27.999Z</time></trkpt><trkpt lat="45.04736997007706" lon="10.193476278903674"><ele>30.0</ele><time>2026-04-08T16:32:28.999Z</time></trkpt><trkpt lat="45.047442919884254" lon="10.193507349008812"><ele>30.0</ele><time>2026-04-08T16:32:29.999Z</time></trkpt><trkpt lat="45.04751291823092" lon="10.193544097655375"><ele>30.0</ele><time>2026-04-08T16:32:30.999Z</time></trkpt><trkpt lat="45.047582830756376" lon="10.193584913724575"><ele>30.0</ele><time>2026-04-08T16:32:31.999Z</time></trkpt><trkpt lat="45.04765182850841" lon="10.193627933388036"><ele>30.0</ele><time>2026-04-08T16:32:32.999Z</time></trkpt><trkpt lat="45.047719570962386" lon="10.19367152047769"><ele>30.0</ele><time>2026-04-08T16:32:33.999Z</time></trkpt><trkpt lat="45.04778865419272" lon="10.193713481685913"><ele>29.666666666666668</ele><time>2026-04-08T16:32:34.999Z</time></trkpt><trkpt lat="45.0478601986429" lon="10.193745833458143"><ele>29.333333333333336</ele><time>2026-04-08T16:32:35.999Z</time></trkpt><trkpt lat="45.047935025777505" lon="10.193763248089851"><ele>29.0</ele><time>2026-04-08T16:32:36.999Z</time></trkpt><trkpt lat="45.04801161198789" lon="10.193761867370014"><ele>28.666666666666668</ele><time>2026-04-08T16:32:37.999Z</time></trkpt><trkpt lat="45.048086382002985" lon="10.193751857034597"><ele>28.333333333333336</ele><time>2026-04-08T16:32:38.998Z</time></trkpt><trkpt lat="45.048162764897974" lon="10.193742742505727"><ele>28.0</ele><time>2026-04-08T16:32:39.998Z</time></trkpt><trkpt lat="45.04823908972612" lon="10.19373201418919"><ele>27.833333333333336</ele><time>2026-04-08T16:32:40.998Z</time></trkpt><trkpt lat="45.048314638406254" lon="10.193723487874648"><ele>27.666666666666668</ele><time>2026-04-08T16:32:41.998Z</time></trkpt><trkpt lat="45.04838942088419" lon="10.19371533400904"><ele>27.5</ele><time>2026-04-08T16:32:42.998Z</time></trkpt><trkpt lat="45.04846701331849" lon="10.193711371330124"><ele>27.333333333333336</ele><time>2026-04-08T16:32:43.998Z</time></trkpt><trkpt lat="45.04854081980159" lon="10.193714525976889"><ele>27.166666666666668</ele><time>2026-04-08T16:32:44.998Z</time></trkpt><trkpt lat="45.04861646387368" lon="10.193724995994462"><ele>27.0</ele><time>2026-04-08T16:32:45.998Z</time></trkpt><trkpt lat="45.0486910984185" lon="10.193752521706985"><ele>27.0</ele><time>2026-04-08T16:32:46.998Z</time></trkpt><trkpt lat="45.04876001196199" lon="10.193799722969295"><ele>27.0</ele><time>2026-04-08T16:32:47.998Z</time></trkpt><trkpt lat="45.048821860093184" lon="10.193863449486871"><ele>27.0</ele><time>2026-04-08T16:32:48.998Z</time></trkpt><trkpt lat="45.04885876905091" lon="10.193963059549663"><ele>27.0</ele><time>2026-04-08T16:32:49.998Z</time></trkpt><trkpt lat="45.04889171587167" lon="10.19405444892681"><ele>27.0</ele><time>2026-04-08T16:32:50.998Z</time></trkpt><trkpt lat="45.04891175507657" lon="10.194156571576338"><ele>27.0</ele><time>2026-04-08T16:32:51.998Z</time></trkpt><trkpt lat="45.04894315576911" lon="10.194253442292908"><ele>27.0</ele><time>2026-04-08T16:32:52.998Z</time></trkpt><trkpt lat="45.04895159480317" lon="10.194360558099962"><ele>27.0</ele><time>2026-04-08T16:32:53.998Z</time></trkpt><trkpt lat="45.048958075469365" lon="10.19446550130144"><ele>27.0</ele><time>2026-04-08T16:32:55Z</time></trkpt><trkpt lat="45.04896020730939" lon="10.194570784543911"><ele>27.0</ele><time>2026-04-08T16:32:56Z</time></trkpt><trkpt lat="45.04896464337622" lon="10.194674032889559"><ele>27.0</ele><time>2026-04-08T16:32:57Z</time></trkpt><trkpt lat="45.04897464785893" lon="10.194778627640742"><ele>27.0</ele><time>2026-04-08T16:32:58Z</time></trkpt><trkpt lat="45.04899245223478" lon="10.194881939209376"><ele>27.0</ele><time>2026-04-08T16:32:59Z</time></trkpt><trkpt lat="45.049025328752194" lon="10.194978447649142"><ele>27.142857142857142</ele><time>2026-04-08T16:33:00Z</time></trkpt><trkpt lat="45.04907510460699" lon="10.1950578601683"><ele>27.285714285714285</ele><time>2026-04-08T16:33:01Z</time></trkpt><trkpt lat="45.04913527709786" lon="10.195123447398574"><ele>27.42857142857143</ele><time>2026-04-08T16:33:02Z</time></trkpt><trkpt lat="45.04920099648048" lon="10.195177244663396"><ele>27.57142857142857</ele><time>2026-04-08T16:33:03Z</time></trkpt><trkpt lat="45.049262715838715" lon="10.195235245963469"><ele>27.714285714285715</ele><time>2026-04-08T16:33:04Z</time></trkpt><trkpt lat="45.04932482061807" lon="10.195293320106003"><ele>27.857142857142858</ele><time>2026-04-08T16:33:05Z</time></trkpt><trkpt lat="45.049388000697455" lon="10.195347717019265"><ele>28.0</ele><time>2026-04-08T16:33:06Z</time></trkpt><trkpt lat="45.04945236884294" lon="10.195404475764034"><ele>28.285714285714285</ele><time>2026-04-08T16:33:07Z</time></trkpt><trkpt lat="45.04951442186281" lon="10.195461269432654"><ele>28.57142857142857</ele><time>2026-04-08T16:33:08Z</time></trkpt><trkpt lat="45.049578851329805" lon="10.195515780353498"><ele>28.857142857142858</ele><time>2026-04-08T16:33:09Z</time></trkpt><trkpt lat="45.04964276742097" lon="10.195570457365596"><ele>29.142857142857142</ele><time>2026-04-08T16:33:10Z</time></trkpt><trkpt lat="45.04970836400977" lon="10.195625898410338"><ele>29.428571428571427</ele><time>2026-04-08T16:33:11Z</time></trkpt><trkpt lat="45.04977235058245" lon="10.195681401238797"><ele>29.714285714285715</ele><time>2026-04-08T16:33:12Z</time></trkpt><trkpt lat="45.04983628038733" lon="10.195735245690601"><ele>30.0</ele><time>2026-04-08T16:33:13Z</time></trkpt><trkpt lat="45.04989980697287" lon="10.195786759697308"><ele>29.714285714285715</ele><time>2026-04-08T16:33:14Z</time></trkpt><trkpt lat="45.04996536697294" lon="10.195836103289583"><ele>29.428571428571427</ele><time>2026-04-08T16:33:15Z</time></trkpt><trkpt lat="45.05003110203626" lon="10.195882284161996"><ele>29.142857142857142</ele><time>2026-04-08T16:33:16Z</time></trkpt><trkpt lat="45.050099228207024" lon="10.195922884347546"><ele>28.857142857142858</ele><time>2026-04-08T16:33:17Z</time></trkpt><trkpt lat="45.050166845893436" lon="10.19596393163802"><ele>28.57142857142857</ele><time>2026-04-08T16:33:18Z</time></trkpt><trkpt lat="45.05023418657675" lon="10.196004485081831"><ele>28.285714285714285</ele><time>2026-04-08T16:33:19Z</time></trkpt><trkpt lat="45.050299036384274" lon="10.196046151573926"><ele>28.0</ele><time>2026-04-08T16:33:20Z</time></trkpt><trkpt lat="45.050363590492225" lon="10.196084309715388"><ele>28.000000000000004</ele><time>2026-04-08T16:33:21Z</time></trkpt><trkpt lat="45.05042677849078" lon="10.196119848914252"><ele>28.0</ele><time>2026-04-08T16:33:22Z</time></trkpt><trkpt lat="45.050485759443596" lon="10.196160544060387"><ele>28.0</ele><time>2026-04-08T16:33:23Z</time></trkpt><trkpt lat="45.050544855045295" lon="10.196200731173157"><ele>28.0</ele><time>2026-04-08T16:33:24Z</time></trkpt><trkpt lat="45.05065213544681" lon="10.196286997855943"><ele>28.000000000000004</ele><time>2026-04-08T16:33:26Z</time></trkpt><trkpt lat="45.05071706928752" lon="10.196399416175764"><ele>28.0</ele><time>2026-04-08T16:33:28Z</time></trkpt><trkpt lat="45.05065122411606" lon="10.196527356731526"><ele>27.857142857142858</ele><time>2026-04-08T16:33:29Z</time></trkpt><trkpt lat="45.05064414947196" lon="10.196628305035976"><ele>27.714285714285715</ele><time>2026-04-08T16:33:30Z</time></trkpt><trkpt lat="45.05062000790475" lon="10.196723406531321"><ele>27.57142857142857</ele><time>2026-04-08T16:33:31Z</time></trkpt><trkpt lat="45.05060198276761" lon="10.196819861858689"><ele>27.42857142857143</ele><time>2026-04-08T16:33:32Z</time></trkpt><trkpt lat="45.05058557138425" lon="10.196917095794305"><ele>27.285714285714285</ele><time>2026-04-08T16:33:33Z</time></trkpt><trkpt lat="45.05056896213794" lon="10.19701488236784"><ele>27.142857142857142</ele><time>2026-04-08T16:33:34Z</time></trkpt><trkpt lat="45.0505539806206" lon="10.1971144996291"><ele>27.0</ele><time>2026-04-08T16:33:35Z</time></trkpt><trkpt lat="45.05054480056038" lon="10.197216172945783"><ele>27.0</ele><time>2026-04-08T16:33:36Z</time></trkpt><trkpt lat="45.050539772782585" lon="10.197320269313723"><ele>27.0</ele><time>2026-04-08T16:33:37Z</time></trkpt><trkpt lat="45.05053902314808" lon="10.19742413276643"><ele>27.0</ele><time>2026-04-08T16:33:38Z</time></trkpt><trkpt lat="45.05054895444544" lon="10.197528455927792"><ele>27.0</ele><time>2026-04-08T16:33:39Z</time></trkpt><trkpt lat="45.0505694368265" lon="10.197629305765417"><ele>27.0</ele><time>2026-04-08T16:33:40Z</time></trkpt><trkpt lat="45.05060038274387" lon="10.197726247901336"><ele>27.0</ele><time>2026-04-08T16:33:41Z</time></trkpt><trkpt lat="45.05063521907731" lon="10.197819816879115"><ele>27.0</ele><time>2026-04-08T16:33:42Z</time></trkpt><trkpt lat="45.05067075697235" lon="10.197910129854774"><ele>27.0</ele><time>2026-04-08T16:33:43Z</time></trkpt><trkpt lat="45.050703742476735" lon="10.19800337586905"><ele>27.0</ele><time>2026-04-08T16:33:44Z</time></trkpt><trkpt lat="45.05073547155995" lon="10.198098412338055"><ele>27.0</ele><time>2026-04-08T16:33:45Z</time></trkpt><trkpt lat="45.0507680789888" lon="10.198192980053422"><ele>27.0</ele><time>2026-04-08T16:33:46Z</time></trkpt><trkpt lat="45.05080006974756" lon="10.19828785367091"><ele>27.0</ele><time>2026-04-08T16:33:47Z</time></trkpt><trkpt lat="45.050831090673874" lon="10.198385158535407"><ele>27.0</ele><time>2026-04-08T16:33:48Z</time></trkpt><trkpt lat="45.05086139660078" lon="10.198480447958243"><ele>27.0</ele><time>2026-04-08T16:33:48.999Z</time></trkpt><trkpt lat="45.05089411935664" lon="10.198575407120925"><ele>27.0</ele><time>2026-04-08T16:33:49.999Z</time></trkpt><trkpt lat="45.05092806855711" lon="10.198667270828649"><ele>27.0</ele><time>2026-04-08T16:33:50.999Z</time></trkpt><trkpt lat="45.05096179632819" lon="10.198760513519911"><ele>27.0</ele><time>2026-04-08T16:33:51.999Z</time></trkpt><trkpt lat="45.05099356400085" lon="10.19885602551897"><ele>27.0</ele><time>2026-04-08T16:33:52.999Z</time></trkpt><trkpt lat="45.05102419207891" lon="10.19895148389466"><ele>27.0</ele><time>2026-04-08T16:33:53.999Z</time></trkpt><trkpt lat="45.0510545561696" lon="10.199046819883632"><ele>27.0</ele><time>2026-04-08T16:33:54.999Z</time></trkpt><trkpt lat="45.05108795171687" lon="10.199140655582005"><ele>27.0</ele><time>2026-04-08T16:33:55.999Z</time></trkpt><trkpt lat="45.05112269796066" lon="10.199234340151042"><ele>27.142857142857142</ele><time>2026-04-08T16:33:56.999Z</time></trkpt><trkpt lat="45.05115645059764" lon="10.199328559057836"><ele>27.285714285714285</ele><time>2026-04-08T16:33:57.999Z</time></trkpt><trkpt lat="45.05119182985545" lon="10.199423796047453"><ele>27.42857142857143</ele><time>2026-04-08T16:33:58.999Z</time></trkpt><trkpt lat="45.0512258430001" lon="10.199516911619394"><ele>27.57142857142857</ele><time>2026-04-08T16:33:59.999Z</time></trkpt><trkpt lat="45.0512579279764" lon="10.19961142750898"><ele>27.714285714285715</ele><time>2026-04-08T16:34:00.999Z</time></trkpt><trkpt lat="45.051288351084544" lon="10.199706726719528"><ele>27.857142857142858</ele><time>2026-04-08T16:34:01.999Z</time></trkpt><trkpt lat="45.051318873057305" lon="10.199801126144644"><ele>28.0</ele><time>2026-04-08T16:34:02.999Z</time></trkpt><trkpt lat="45.05134961554027" lon="10.199896462049724"><ele>28.0</ele><time>2026-04-08T16:34:03.999Z</time></trkpt><trkpt lat="45.051379084320715" lon="10.199991054799938"><ele>28.0</ele><time>2026-04-08T16:34:04.999Z</time></trkpt><trkpt lat="45.05140777435418" lon="10.200088467933872"><ele>28.0</ele><time>2026-04-08T16:34:05.999Z</time></trkpt><trkpt lat="45.051438141732305" lon="10.200185646009418"><ele>28.0</ele><time>2026-04-08T16:34:06.999Z</time></trkpt><trkpt lat="45.051464803412756" lon="10.200283456959426"><ele>28.0</ele><time>2026-04-08T16:34:07.999Z</time></trkpt><trkpt lat="45.051491113285046" lon="10.200381789414267"><ele>28.0</ele><time>2026-04-08T16:34:08.999Z</time></trkpt><trkpt lat="45.05151179319666" lon="10.200479731924695"><ele>28.0</ele><time>2026-04-08T16:34:09.999Z</time></trkpt><trkpt lat="45.05153038456039" lon="10.20058001188909"><ele>27.857142857142858</ele><time>2026-04-08T16:34:10.999Z</time></trkpt><trkpt lat="45.05154852326199" lon="10.200679760005595"><ele>27.714285714285715</ele><time>2026-04-08T16:34:11.999Z</time></trkpt><trkpt lat="45.0515655589011" lon="10.200779445860583"><ele>27.57142857142857</ele><time>2026-04-08T16:34:12.999Z</time></trkpt><trkpt lat="45.0515787020398" lon="10.200879153993705"><ele>27.42857142857143</ele><time>2026-04-08T16:34:13.999Z</time></trkpt><trkpt lat="45.05158791459303" lon="10.200982705533963"><ele>27.285714285714285</ele><time>2026-04-08T16:34:14.999Z</time></trkpt><trkpt lat="45.05159517151163" lon="10.201083485319998"><ele>27.142857142857142</ele><time>2026-04-08T16:34:15.999Z</time></trkpt><trkpt lat="45.05160181013696" lon="10.20118559178045"><ele>27.0</ele><time>2026-04-08T16:34:16.999Z</time></trkpt><trkpt lat="45.05160859981864" lon="10.20128836157421"><ele>27.0</ele><time>2026-04-08T16:34:17.999Z</time></trkpt><trkpt lat="45.05161617880058" lon="10.201389714905947"><ele>27.0</ele><time>2026-04-08T16:34:18.999Z</time></trkpt><trkpt lat="45.0516212708188" lon="10.201495404926431"><ele>27.0</ele><time>2026-04-08T16:34:19.999Z</time></trkpt><trkpt lat="45.05162438784985" lon="10.201600733277957"><ele>27.0</ele><time>2026-04-08T16:34:20.999Z</time></trkpt><trkpt lat="45.05162577983779" lon="10.201704928854307"><ele>27.0</ele><time>2026-04-08T16:34:21.999Z</time></trkpt><trkpt lat="45.05162744784036" lon="10.201811236466664"><ele>27.0</ele><time>2026-04-08T16:34:22.999Z</time></trkpt><trkpt lat="45.05162765857361" lon="10.201915204191737"><ele>27.0</ele><time>2026-04-08T16:34:23.999Z</time></trkpt><trkpt lat="45.0516280408105" lon="10.202019021761213"><ele>27.0</ele><time>2026-04-08T16:34:24.999Z</time></trkpt><trkpt lat="45.051627911830835" lon="10.202122231846063"><ele>27.0</ele><time>2026-04-08T16:34:25.999Z</time></trkpt><trkpt lat="45.05162462943344" lon="10.202223921035111"><ele>27.0</ele><time>2026-04-08T16:34:26.999Z</time></trkpt><trkpt lat="45.05161869600491" lon="10.202328683503948"><ele>27.0</ele><time>2026-04-08T16:34:27.999Z</time></trkpt><trkpt lat="45.051610318775566" lon="10.20243060076426"><ele>27.0</ele><time>2026-04-08T16:34:28.999Z</time></trkpt><trkpt lat="45.05160003082384" lon="10.202533905471288"><ele>27.0</ele><time>2026-04-08T16:34:29.999Z</time></trkpt><trkpt lat="45.05158569761991" lon="10.202638400163373"><ele>27.0</ele><time>2026-04-08T16:34:30.999Z</time></trkpt><trkpt lat="45.051573035854254" lon="10.20274140314569"><ele>27.0</ele><time>2026-04-08T16:34:31.999Z</time></trkpt><trkpt lat="45.051561715342345" lon="10.202843831576166"><ele>27.0</ele><time>2026-04-08T16:34:32.999Z</time></trkpt><trkpt lat="45.05154993318238" lon="10.202944806648745"><ele>27.0</ele><time>2026-04-08T16:34:33.999Z</time></trkpt><trkpt lat="45.051536571935266" lon="10.20304433517491"><ele>27.0</ele><time>2026-04-08T16:34:34.999Z</time></trkpt><trkpt lat="45.05152152198745" lon="10.203148111402822"><ele>27.0</ele><time>2026-04-08T16:34:35.999Z</time></trkpt><trkpt lat="45.05150748751709" lon="10.203250616250232"><ele>27.0</ele><time>2026-04-08T16:34:36.999Z</time></trkpt><trkpt lat="45.05149455053816" lon="10.203352210628237"><ele>27.0</ele><time>2026-04-08T16:34:37.999Z</time></trkpt><trkpt lat="45.05148115400692" lon="10.203456460785935"><ele>27.0</ele><time>2026-04-08T16:34:38.999Z</time></trkpt><trkpt lat="45.05146940715664" lon="10.203559108598212"><ele>27.0</ele><time>2026-04-08T16:34:39.999Z</time></trkpt><trkpt lat="45.051461043673804" lon="10.203661607491663"><ele>27.0</ele><time>2026-04-08T16:34:40.999Z</time></trkpt><trkpt lat="45.051456459634004" lon="10.203762769066795"><ele>27.0</ele><time>2026-04-08T16:34:41.999Z</time></trkpt><trkpt lat="45.05145530938352" lon="10.203865350393604"><ele>27.0</ele><time>2026-04-08T16:34:42.999Z</time></trkpt><trkpt lat="45.05145740219601" lon="10.203969483145812"><ele>27.0</ele><time>2026-04-08T16:34:43.999Z</time></trkpt><trkpt lat="45.05146382846654" lon="10.204069331396123"><ele>27.0</ele><time>2026-04-08T16:34:44.999Z</time></trkpt><trkpt lat="45.0514723407884" lon="10.20417222317647"><ele>27.0</ele><time>2026-04-08T16:34:45.998Z</time></trkpt><trkpt lat="45.05148168551948" lon="10.20427160628537"><ele>27.0</ele><time>2026-04-08T16:34:46.998Z</time></trkpt><trkpt lat="45.051491448046775" lon="10.204372115084329"><ele>27.0</ele><time>2026-04-08T16:34:47.998Z</time></trkpt><trkpt lat="45.05150054830583" lon="10.204473768064327"><ele>27.0</ele><time>2026-04-08T16:34:48.998Z</time></trkpt><trkpt lat="45.051509017106376" lon="10.204574510094378"><ele>27.0</ele><time>2026-04-08T16:34:49.998Z</time></trkpt><trkpt lat="45.05151596279519" lon="10.204677549563637"><ele>27.0</ele><time>2026-04-08T16:34:50.998Z</time></trkpt><trkpt lat="45.05152115662577" lon="10.204777351621676"><ele>27.0</ele><time>2026-04-08T16:34:51.998Z</time></trkpt><trkpt lat="45.05152403544642" lon="10.20487866281077"><ele>27.0</ele><time>2026-04-08T16:34:52.998Z</time></trkpt><trkpt lat="45.05152645234071" lon="10.204980663653231"><ele>27.0</ele><time>2026-04-08T16:34:53.998Z</time></trkpt><trkpt lat="45.05152658628546" lon="10.205082905990983"><ele>27.0</ele><time>2026-04-08T16:34:54.998Z</time></trkpt><trkpt lat="45.05152450376875" lon="10.205185074126963"><ele>27.0</ele><time>2026-04-08T16:34:55.998Z</time></trkpt><trkpt lat="45.051516435941906" lon="10.2052889511322"><ele>27.0</ele><time>2026-04-08T16:34:56.998Z</time></trkpt><trkpt lat="45.05150824774989" lon="10.205391374811763"><ele>27.0</ele><time>2026-04-08T16:34:57.998Z</time></trkpt><trkpt lat="45.05149990918671" lon="10.205493390155539"><ele>27.0</ele><time>2026-04-08T16:34:58.998Z</time></trkpt><trkpt lat="45.051489663186615" lon="10.205595515270872"><ele>26.857142857142858</ele><time>2026-04-08T16:34:59.998Z</time></trkpt><trkpt lat="45.05147729836494" lon="10.20569718697449"><ele>26.714285714285715</ele><time>2026-04-08T16:35:01Z</time></trkpt><trkpt lat="45.05146551191302" lon="10.205796866035435"><ele>26.57142857142857</ele><time>2026-04-08T16:35:02Z</time></trkpt><trkpt lat="45.05145369412572" lon="10.205899402585976"><ele>26.42857142857143</ele><time>2026-04-08T16:35:03Z</time></trkpt><trkpt lat="45.05144542180434" lon="10.20600119593532"><ele>26.28571428571429</ele><time>2026-04-08T16:35:04Z</time></trkpt><trkpt lat="45.051434440910526" lon="10.206104705457006"><ele>26.142857142857142</ele><time>2026-04-08T16:35:05Z</time></trkpt><trkpt lat="45.051421798782584" lon="10.206205452778809"><ele>26.0</ele><time>2026-04-08T16:35:06Z</time></trkpt><trkpt lat="45.05141104850736" lon="10.206305440709256"><ele>26.0</ele><time>2026-04-08T16:35:07Z</time></trkpt><trkpt lat="45.05139701296783" lon="10.206404684359516"><ele>26.0</ele><time>2026-04-08T16:35:08Z</time></trkpt><trkpt lat="45.05138159099124" lon="10.20650393226748"><ele>26.0</ele><time>2026-04-08T16:35:09Z</time></trkpt><trkpt lat="45.05137029426761" lon="10.206606553679821"><ele>26.0</ele><time>2026-04-08T16:35:10Z</time></trkpt><trkpt lat="45.051360274990486" lon="10.206707622478287"><ele>26.0</ele><time>2026-04-08T16:35:11Z</time></trkpt><trkpt lat="45.05134629207378" lon="10.206809638755214"><ele>26.0</ele><time>2026-04-08T16:35:12Z</time></trkpt><trkpt lat="45.051335372817725" lon="10.206910967147724"><ele>26.0</ele><time>2026-04-08T16:35:13Z</time></trkpt><trkpt lat="45.05132416913618" lon="10.207013341821575"><ele>26.142857142857142</ele><time>2026-04-08T16:35:14Z</time></trkpt><trkpt lat="45.051312943568355" lon="10.207115893592713"><ele>26.28571428571429</ele><time>2026-04-08T16:35:15Z</time></trkpt><trkpt lat="45.051300595201006" lon="10.207215084108357"><ele>26.42857142857143</ele><time>2026-04-08T16:35:16Z</time></trkpt><trkpt lat="45.05128934937168" lon="10.20731568987068"><ele>26.57142857142857</ele><time>2026-04-08T16:35:17Z</time></trkpt><trkpt lat="45.051278629784136" lon="10.20741683154811"><ele>26.714285714285715</ele><time>2026-04-08T16:35:18Z</time></trkpt><trkpt lat="45.05126775977722" lon="10.207517106211133"><ele>26.857142857142858</ele><time>2026-04-08T16:35:19Z</time></trkpt><trkpt lat="45.05125688576451" lon="10.207618002836718"><ele>27.0</ele><time>2026-04-08T16:35:20Z</time></trkpt><trkpt lat="45.051243788667556" lon="10.207717332016554"><ele>27.0</ele><time>2026-04-08T16:35:21Z</time></trkpt><trkpt lat="45.05122916420386" lon="10.207818134875094"><ele>27.0</ele><time>2026-04-08T16:35:22Z</time></trkpt><trkpt lat="45.05121442382439" lon="10.207918066493697"><ele>27.0</ele><time>2026-04-08T16:35:23Z</time></trkpt><trkpt lat="45.05119692540113" lon="10.208020144462365"><ele>27.0</ele><time>2026-04-08T16:35:24Z</time></trkpt><trkpt lat="45.0511797438608" lon="10.208119767581723"><ele>27.0</ele><time>2026-04-08T16:35:25Z</time></trkpt><trkpt lat="45.05116070655534" lon="10.208218031763765"><ele>27.0</ele><time>2026-04-08T16:35:26Z</time></trkpt><trkpt lat="45.051138428583094" lon="10.208317558712892"><ele>27.0</ele><time>2026-04-08T16:35:27Z</time></trkpt><trkpt lat="45.051116357812745" lon="10.208414211313237"><ele>27.0</ele><time>2026-04-08T16:35:28Z</time></trkpt><trkpt lat="45.05109474957061" lon="10.208512775989341"><ele>27.0</ele><time>2026-04-08T16:35:29Z</time></trkpt><trkpt lat="45.05107203807209" lon="10.208613121074295"><ele>27.0</ele><time>2026-04-08T16:35:30Z</time></trkpt><trkpt lat="45.051047143248276" lon="10.208709010967832"><ele>27.0</ele><time>2026-04-08T16:35:31Z</time></trkpt><trkpt lat="45.05101998915061" lon="10.208804341623166"><ele>27.0</ele><time>2026-04-08T16:35:32Z</time></trkpt><trkpt lat="45.050986834062414" lon="10.208899260298091"><ele>27.0</ele><time>2026-04-08T16:35:33Z</time></trkpt><trkpt lat="45.05095412369339" lon="10.208993185150137"><ele>27.0</ele><time>2026-04-08T16:35:34Z</time></trkpt><trkpt lat="45.05092464232067" lon="10.209088272347481"><ele>27.142857142857142</ele><time>2026-04-08T16:35:35Z</time></trkpt><trkpt lat="45.0508972244684" lon="10.209183799841966"><ele>27.285714285714285</ele><time>2026-04-08T16:35:36Z</time></trkpt><trkpt lat="45.05087461677837" lon="10.209285162196904"><ele>27.42857142857143</ele><time>2026-04-08T16:35:37Z</time></trkpt><trkpt lat="45.05086520366283" lon="10.209390232018142"><ele>27.57142857142857</ele><time>2026-04-08T16:35:38Z</time></trkpt><trkpt lat="45.050879777763456" lon="10.209496906118678"><ele>27.714285714285715</ele><time>2026-04-08T16:35:39Z</time></trkpt><trkpt lat="45.0509074898634" lon="10.209595087389795"><ele>27.857142857142858</ele><time>2026-04-08T16:35:40Z</time></trkpt><trkpt lat="45.050937127588874" lon="10.209689085627717"><ele>28.0</ele><time>2026-04-08T16:35:41Z</time></trkpt><trkpt lat="45.050966249890045" lon="10.209786642856002"><ele>28.166666666666668</ele><time>2026-04-08T16:35:42Z</time></trkpt><trkpt lat="45.05099613353404" lon="10.209883455845691"><ele>28.333333333333336</ele><time>2026-04-08T16:35:43Z</time></trkpt><trkpt lat="45.05102690341294" lon="10.209980222966479"><ele>28.5</ele><time>2026-04-08T16:35:44Z</time></trkpt><trkpt lat="45.051060996746855" lon="10.210074634601604"><ele>28.666666666666664</ele><time>2026-04-08T16:35:45Z</time></trkpt><trkpt lat="45.051102732439965" lon="10.21016206951469"><ele>28.833333333333332</ele><time>2026-04-08T16:35:46Z</time></trkpt><trkpt lat="45.05115143754995" lon="10.210246453881867"><ele>29.0</ele><time>2026-04-08T16:35:47Z</time></trkpt><trkpt lat="45.051200148816804" lon="10.210324752498117"><ele>29.000000000000004</ele><time>2026-04-08T16:35:48Z</time></trkpt><trkpt lat="45.05125173739743" lon="10.210401328540387"><ele>29.0</ele><time>2026-04-08T16:35:49Z</time></trkpt><trkpt lat="45.05130192210672" lon="10.210475387135931"><ele>29.000000000000004</ele><time>2026-04-08T16:35:50Z</time></trkpt><trkpt lat="45.051355450480166" lon="10.210551978117829"><ele>29.000000000000004</ele><time>2026-04-08T16:35:51Z</time></trkpt><trkpt lat="45.05141084580189" lon="10.210625690162932"><ele>29.0</ele><time>2026-04-08T16:35:52Z</time></trkpt><trkpt lat="45.051466234388535" lon="10.210695834798008"><ele>29.000000000000004</ele><time>2026-04-08T16:35:53Z</time></trkpt><trkpt lat="45.051523467379106" lon="10.210764886616941"><ele>29.000000000000004</ele><time>2026-04-08T16:35:53.999Z</time></trkpt><trkpt lat="45.05158194533322" lon="10.210830776802803"><ele>29.000000000000004</ele><time>2026-04-08T16:35:54.999Z</time></trkpt><trkpt lat="45.051642174008315" lon="10.21089727358927"><ele>29.0</ele><time>2026-04-08T16:35:55.999Z</time></trkpt><trkpt lat="45.05169688781572" lon="10.21096668808489"><ele>29.000000000000004</ele><time>2026-04-08T16:35:56.999Z</time></trkpt><trkpt lat="45.051734194928606" lon="10.211058574280662"><ele>29.000000000000004</ele><time>2026-04-08T16:35:57.999Z</time></trkpt><trkpt lat="45.0517914988207" lon="10.211129569029461"><ele>29.0</ele><time>2026-04-08T16:35:58.999Z</time></trkpt><trkpt lat="45.05183212571315" lon="10.211217499505661"><ele>29.000000000000004</ele><time>2026-04-08T16:35:59.999Z</time></trkpt><trkpt lat="45.05187334320684" lon="10.211299935068714"><ele>29.000000000000004</ele><time>2026-04-08T16:36:00.999Z</time></trkpt><trkpt lat="45.05191689114429" lon="10.211382280817432"><ele>29.000000000000004</ele><time>2026-04-08T16:36:01.999Z</time></trkpt><trkpt lat="45.05196122053018" lon="10.211465306219127"><ele>29.0</ele><time>2026-04-08T16:36:02.999Z</time></trkpt><trkpt lat="45.05200282326745" lon="10.211549629439"><ele>29.000000000000004</ele><time>2026-04-08T16:36:03.999Z</time></trkpt><trkpt lat="45.05203187370284" lon="10.211650237966914"><ele>29.000000000000004</ele><time>2026-04-08T16:36:04.999Z</time></trkpt><trkpt lat="45.05207756714261" lon="10.211735371365986"><ele>29.0</ele><time>2026-04-08T16:36:05.999Z</time></trkpt><trkpt lat="45.05213889041337" lon="10.211800189879956"><ele>29.000000000000004</ele><time>2026-04-08T16:36:06.999Z</time></trkpt><trkpt lat="45.05219399597656" lon="10.211870725743285"><ele>29.000000000000004</ele><time>2026-04-08T16:36:07.999Z</time></trkpt><trkpt lat="45.05225940163851" lon="10.211923963729333"><ele>28.999999999999996</ele><time>2026-04-08T16:36:08.999Z</time></trkpt><trkpt lat="45.05233025188576" lon="10.211961587571869"><ele>29.0</ele><time>2026-04-08T16:36:09.999Z</time></trkpt><trkpt lat="45.05240438394003" lon="10.211980786126167"><ele>29.0</ele><time>2026-04-08T16:36:10.999Z</time></trkpt><trkpt lat="45.052479438219635" lon="10.21199300978157"><ele>29.0</ele><time>2026-04-08T16:36:11.999Z</time></trkpt><trkpt lat="45.052553261475104" lon="10.212004586439654"><ele>28.999999999999996</ele><time>2026-04-08T16:36:12.999Z</time></trkpt><trkpt lat="45.052627440786985" lon="10.212018379600885"><ele>29.0</ele><time>2026-04-08T16:36:13.999Z</time></trkpt><trkpt lat="45.05270240700907" lon="10.212038154276453"><ele>29.000000000000004</ele><time>2026-04-08T16:36:14.999Z</time></trkpt><trkpt lat="45.05277251971096" lon="10.212065224677085"><ele>29.0</ele><time>2026-04-08T16:36:15.999Z</time></trkpt><trkpt lat="45.052840200481874" lon="10.212113078283133"><ele>29.000000000000004</ele><time>2026-04-08T16:36:16.999Z</time></trkpt><trkpt lat="45.05290183114914" lon="10.212174514305838"><ele>29.000000000000004</ele><time>2026-04-08T16:36:17.999Z</time></trkpt><trkpt lat="45.05295227103237" lon="10.21225409990724"><ele>29.0</ele><time>2026-04-08T16:36:18.999Z</time></trkpt><trkpt lat="45.05299122544317" lon="10.212345334891225"><ele>29.000000000000004</ele><time>2026-04-08T16:36:19.999Z</time></trkpt><trkpt lat="45.05302189071829" lon="10.212441692765532"><ele>29.000000000000004</ele><time>2026-04-08T16:36:20.999Z</time></trkpt><trkpt lat="45.05304368085048" lon="10.212539359222124"><ele>29.000000000000004</ele><time>2026-04-08T16:36:21.999Z</time></trkpt><trkpt lat="45.053033398504645" lon="10.21264602712151"><ele>29.0</ele><time>2026-04-08T16:36:22.999Z</time></trkpt><trkpt lat="45.053031487243445" lon="10.21275229607535"><ele>29.000000000000004</ele><time>2026-04-08T16:36:23.999Z</time></trkpt><trkpt lat="45.05304530079194" lon="10.212857398827571"><ele>29.000000000000004</ele><time>2026-04-08T16:36:24.999Z</time></trkpt><trkpt lat="45.05304110810878" lon="10.212962094926906"><ele>29.0</ele><time>2026-04-08T16:36:25.999Z</time></trkpt><trkpt lat="45.05303968422593" lon="10.213065325487063"><ele>29.000000000000004</ele><time>2026-04-08T16:36:26.999Z</time></trkpt><trkpt lat="45.05303994995171" lon="10.213169957154166"><ele>29.000000000000004</ele><time>2026-04-08T16:36:27.999Z</time></trkpt><trkpt lat="45.053039942251985" lon="10.213275272542067"><ele>28.85714285714286</ele><time>2026-04-08T16:36:28.999Z</time></trkpt><trkpt lat="45.05304298166957" lon="10.213377851552968"><ele>28.714285714285715</ele><time>2026-04-08T16:36:29.999Z</time></trkpt><trkpt lat="45.053057455644186" lon="10.213479163245223"><ele>28.571428571428573</ele><time>2026-04-08T16:36:30.999Z</time></trkpt><trkpt lat="45.053085288578174" lon="10.213578149559785"><ele>28.42857142857143</ele><time>2026-04-08T16:36:31.999Z</time></trkpt><trkpt lat="45.05312448251726" lon="10.21366735763979"><ele>28.285714285714285</ele><time>2026-04-08T16:36:32.999Z</time></trkpt><trkpt lat="45.05316537934032" lon="10.213753807325341"><ele>28.142857142857142</ele><time>2026-04-08T16:36:33.999Z</time></trkpt><trkpt lat="45.053208129013164" lon="10.213836997039348"><ele>28.0</ele><time>2026-04-08T16:36:34.999Z</time></trkpt><trkpt lat="45.053254129227064" lon="10.213917428598984"><ele>27.857142857142858</ele><time>2026-04-08T16:36:35.999Z</time></trkpt><trkpt lat="45.05330433495164" lon="10.21399661613908"><ele>27.714285714285715</ele><time>2026-04-08T16:36:36.999Z</time></trkpt><trkpt lat="45.05335671551132" lon="10.214069514514533"><ele>27.57142857142857</ele><time>2026-04-08T16:36:37.999Z</time></trkpt><trkpt lat="45.053407063414575" lon="10.214141414670136"><ele>27.42857142857143</ele><time>2026-04-08T16:36:38.999Z</time></trkpt><trkpt lat="45.05345714432544" lon="10.214220557290501"><ele>27.285714285714285</ele><time>2026-04-08T16:36:39.999Z</time></trkpt><trkpt lat="45.053505301476356" lon="10.214298301996873"><ele>27.142857142857142</ele><time>2026-04-08T16:36:40.999Z</time></trkpt><trkpt lat="45.05355158091319" lon="10.214375647608504"><ele>27.0</ele><time>2026-04-08T16:36:41.999Z</time></trkpt><trkpt lat="45.05359935256756" lon="10.214455027296788"><ele>27.0</ele><time>2026-04-08T16:36:42.999Z</time></trkpt><trkpt lat="45.05364657736626" lon="10.214531537821937"><ele>27.0</ele><time>2026-04-08T16:36:43.999Z</time></trkpt><trkpt lat="45.053694152730166" lon="10.21461115072869"><ele>27.0</ele><time>2026-04-08T16:36:44.999Z</time></trkpt><trkpt lat="45.05374031597312" lon="10.214691279265013"><ele>27.0</ele><time>2026-04-08T16:36:45.999Z</time></trkpt><trkpt lat="45.053783364663566" lon="10.214773207823646"><ele>27.0</ele><time>2026-04-08T16:36:46.999Z</time></trkpt><trkpt lat="45.053825907347324" lon="10.214856556437946"><ele>27.0</ele><time>2026-04-08T16:36:47.999Z</time></trkpt><trkpt lat="45.053867182384295" lon="10.214938386811466"><ele>27.0</ele><time>2026-04-08T16:36:48.999Z</time></trkpt><trkpt lat="45.05390735111807" lon="10.215021681174507"><ele>26.857142857142858</ele><time>2026-04-08T16:36:49.998Z</time></trkpt><trkpt lat="45.05394633539499" lon="10.215104742091826"><ele>26.714285714285715</ele><time>2026-04-08T16:36:50.998Z</time></trkpt><trkpt lat="45.053986181933666" lon="10.21519189343445"><ele>26.57142857142857</ele><time>2026-04-08T16:36:51.998Z</time></trkpt><trkpt lat="45.05402278649081" lon="10.215278035553359"><ele>26.42857142857143</ele><time>2026-04-08T16:36:52.998Z</time></trkpt><trkpt lat="45.05405520066979" lon="10.215368415039585"><ele>26.28571428571429</ele><time>2026-04-08T16:36:53.998Z</time></trkpt><trkpt lat="45.054083574858936" lon="10.215462730146967"><ele>26.142857142857142</ele><time>2026-04-08T16:36:54.998Z</time></trkpt><trkpt lat="45.05410607920959" lon="10.21555735970912"><ele>26.0</ele><time>2026-04-08T16:36:55.998Z</time></trkpt><trkpt lat="45.05412096982328" lon="10.215658297752055"><ele>26.714285714285715</ele><time>2026-04-08T16:36:56.998Z</time></trkpt><trkpt lat="45.05413653427026" lon="10.215756205588379"><ele>27.42857142857143</ele><time>2026-04-08T16:36:57.998Z</time></trkpt><trkpt lat="45.05415500699556" lon="10.21585630617925"><ele>28.142857142857146</ele><time>2026-04-08T16:36:58.998Z</time></trkpt><trkpt lat="45.05417588619586" lon="10.215953158991923"><ele>28.857142857142858</ele><time>2026-04-08T16:36:59.998Z</time></trkpt><trkpt lat="45.05419505405698" lon="10.216052890540357"><ele>29.571428571428577</ele><time>2026-04-08T16:37:00.998Z</time></trkpt><trkpt lat="45.05421396297371" lon="10.216153879614858"><ele>30.28571428571429</ele><time>2026-04-08T16:37:01.998Z</time></trkpt><trkpt lat="45.054233139146994" lon="10.216253715376563"><ele>31.0</ele><time>2026-04-08T16:37:02.998Z</time></trkpt><trkpt lat="45.054251415861316" lon="10.216354102710545"><ele>31.0</ele><time>2026-04-08T16:37:03.998Z</time></trkpt><trkpt lat="45.05426972710914" lon="10.21645745909145"><ele>31.000000000000004</ele><time>2026-04-08T16:37:04.998Z</time></trkpt><trkpt lat="45.054288248772224" lon="10.216558254464307"><ele>31.0</ele><time>2026-04-08T16:37:05.998Z</time></trkpt><trkpt lat="45.05431043984525" lon="10.216656895217136"><ele>31.0</ele><time>2026-04-08T16:37:07Z</time></trkpt><trkpt lat="45.05433697631008" lon="10.216750851539729"><ele>31.000000000000004</ele><time>2026-04-08T16:37:08Z</time></trkpt><trkpt lat="45.05436811965326" lon="10.216846524877289"><ele>31.0</ele><time>2026-04-08T16:37:09Z</time></trkpt><trkpt lat="45.05440100120348" lon="10.216937311891744"><ele>31.0</ele><time>2026-04-08T16:37:10Z</time></trkpt><trkpt lat="45.05443886228484" lon="10.217025374654893"><ele>30.857142857142858</ele><time>2026-04-08T16:37:11Z</time></trkpt><trkpt lat="45.054482225002" lon="10.217112799688199"><ele>30.714285714285715</ele><time>2026-04-08T16:37:12Z</time></trkpt><trkpt lat="45.05452747570454" lon="10.217198801352165"><ele>30.571428571428573</ele><time>2026-04-08T16:37:13Z</time></trkpt><trkpt lat="45.05457113526831" lon="10.217283801764044"><ele>30.42857142857143</ele><time>2026-04-08T16:37:14Z</time></trkpt><trkpt lat="45.05461405260604" lon="10.217371055424273"><ele>30.285714285714285</ele><time>2026-04-08T16:37:15Z</time></trkpt><trkpt lat="45.05465660875258" lon="10.217454065084302"><ele>30.142857142857146</ele><time>2026-04-08T16:37:16Z</time></trkpt><trkpt lat="45.05470067226094" lon="10.217538519710253"><ele>30.0</ele><time>2026-04-08T16:37:17Z</time></trkpt><trkpt lat="45.05474369621842" lon="10.21762656874884"><ele>29.857142857142858</ele><time>2026-04-08T16:37:18Z</time></trkpt><trkpt lat="45.05478627008534" lon="10.217713390334609"><ele>29.714285714285715</ele><time>2026-04-08T16:37:19Z</time></trkpt><trkpt lat="45.05482752696484" lon="10.217799325008139"><ele>29.571428571428573</ele><time>2026-04-08T16:37:20Z</time></trkpt><trkpt lat="45.05486800732593" lon="10.217885340973318"><ele>29.42857142857143</ele><time>2026-04-08T16:37:21Z</time></trkpt><trkpt lat="45.05490879269889" lon="10.217971408066184"><ele>29.285714285714285</ele><time>2026-04-08T16:37:22Z</time></trkpt><trkpt lat="45.054949011961924" lon="10.218057766007806"><ele>29.142857142857146</ele><time>2026-04-08T16:37:23Z</time></trkpt><trkpt lat="45.05498616442981" lon="10.218144515733062"><ele>29.000000000000004</ele><time>2026-04-08T16:37:24Z</time></trkpt><trkpt lat="45.055023371450154" lon="10.21823323178731"><ele>29.000000000000004</ele><time>2026-04-08T16:37:25Z</time></trkpt><trkpt lat="45.05506056325865" lon="10.218323038023597"><ele>29.0</ele><time>2026-04-08T16:37:26Z</time></trkpt><trkpt lat="45.05509790939165" lon="10.218412948299882"><ele>29.000000000000004</ele><time>2026-04-08T16:37:27Z</time></trkpt><trkpt lat="45.055131948223845" lon="10.218504542699987"><ele>29.000000000000004</ele><time>2026-04-08T16:37:28Z</time></trkpt><trkpt lat="45.05516338426809" lon="10.218600873382117"><ele>29.0</ele><time>2026-04-08T16:37:29Z</time></trkpt><trkpt lat="45.05519239547711" lon="10.218695876899911"><ele>29.000000000000004</ele><time>2026-04-08T16:37:30Z</time></trkpt><trkpt lat="45.055221992971816" lon="10.218790672268527"><ele>29.000000000000004</ele><time>2026-04-08T16:37:31Z</time></trkpt><trkpt lat="45.0552493173242" lon="10.2188861440181"><ele>29.000000000000004</ele><time>2026-04-08T16:37:32Z</time></trkpt><trkpt lat="45.05527302879732" lon="10.218982801585486"><ele>29.0</ele><time>2026-04-08T16:37:33Z</time></trkpt><trkpt lat="45.05529725703259" lon="10.21908306945422"><ele>29.000000000000004</ele><time>2026-04-08T16:37:34Z</time></trkpt><trkpt lat="45.05532031834559" lon="10.21918326260458"><ele>29.000000000000004</ele><time>2026-04-08T16:37:35Z</time></trkpt><trkpt lat="45.055342914321066" lon="10.219282096395078"><ele>29.0</ele><time>2026-04-08T16:37:36Z</time></trkpt><trkpt lat="45.05536304618253" lon="10.219381658774918"><ele>29.000000000000004</ele><time>2026-04-08T16:37:37Z</time></trkpt><trkpt lat="45.055385551198555" lon="10.219482187977452"><ele>29.000000000000004</ele><time>2026-04-08T16:37:38Z</time></trkpt><trkpt lat="45.05540743056364" lon="10.219583489861861"><ele>28.85714285714286</ele><time>2026-04-08T16:37:39Z</time></trkpt><trkpt lat="45.05542787830614" lon="10.219681601464757"><ele>28.714285714285715</ele><time>2026-04-08T16:37:40Z</time></trkpt><trkpt lat="45.05544728894447" lon="10.219780076919431"><ele>28.571428571428573</ele><time>2026-04-08T16:37:41Z</time></trkpt><trkpt lat="45.055465645648496" lon="10.21988309369895"><ele>28.42857142857143</ele><time>2026-04-08T16:37:42Z</time></trkpt><trkpt lat="45.05548550761102" lon="10.219984546052183"><ele>28.285714285714285</ele><time>2026-04-08T16:37:43Z</time></trkpt><trkpt lat="45.055508007849035" lon="10.220085209257046"><ele>28.142857142857142</ele><time>2026-04-08T16:37:44Z</time></trkpt><trkpt lat="45.05553112427878" lon="10.220183926565804"><ele>28.0</ele><time>2026-04-08T16:37:45Z</time></trkpt><trkpt lat="45.05555907012302" lon="10.220282178482138"><ele>28.0</ele><time>2026-04-08T16:37:46Z</time></trkpt><trkpt lat="45.05558812875673" lon="10.22037949578126"><ele>28.0</ele><time>2026-04-08T16:37:47Z</time></trkpt><trkpt lat="45.05561995141837" lon="10.220477227801345"><ele>28.0</ele><time>2026-04-08T16:37:48Z</time></trkpt><trkpt lat="45.055651710169045" lon="10.220571985429357"><ele>28.0</ele><time>2026-04-08T16:37:49Z</time></trkpt><trkpt lat="45.055684437051056" lon="10.220666071826031"><ele>28.0</ele><time>2026-04-08T16:37:50Z</time></trkpt><trkpt lat="45.0557176438778" lon="10.22075890603265"><ele>28.0</ele><time>2026-04-08T16:37:51Z</time></trkpt><trkpt lat="45.05575419361435" lon="10.220850626012071"><ele>28.0</ele><time>2026-04-08T16:37:52Z</time></trkpt><trkpt lat="45.05579436857385" lon="10.220941040123865"><ele>27.857142857142858</ele><time>2026-04-08T16:37:53Z</time></trkpt><trkpt lat="45.05583581234448" lon="10.221028137928991"><ele>27.714285714285715</ele><time>2026-04-08T16:37:54Z</time></trkpt><trkpt lat="45.05587744454581" lon="10.221114168156609"><ele>27.57142857142857</ele><time>2026-04-08T16:37:55Z</time></trkpt><trkpt lat="45.05591904735505" lon="10.221201958333925"><ele>27.42857142857143</ele><time>2026-04-08T16:37:56Z</time></trkpt><trkpt lat="45.05596185934338" lon="10.221287806552162"><ele>27.285714285714285</ele><time>2026-04-08T16:37:56.999Z</time></trkpt><trkpt lat="45.05600488000497" lon="10.2213744011861"><ele>27.142857142857142</ele><time>2026-04-08T16:37:57.999Z</time></trkpt><trkpt lat="45.05604991842232" lon="10.22146144598543"><ele>27.0</ele><time>2026-04-08T16:37:58.999Z</time></trkpt><trkpt lat="45.05609751203564" lon="10.22154288157929"><ele>27.5</ele><time>2026-04-08T16:37:59.999Z</time></trkpt><trkpt lat="45.05614480456917" lon="10.221626494592334"><ele>28.0</ele><time>2026-04-08T16:38:00.999Z</time></trkpt><trkpt lat="45.056193806892274" lon="10.221708168523802"><ele>28.5</ele><time>2026-04-08T16:38:01.999Z</time></trkpt><trkpt lat="45.056244709331345" lon="10.22178470182463"><ele>29.0</ele><time>2026-04-08T16:38:02.999Z</time></trkpt><trkpt lat="45.05629809959815" lon="10.221860860691816"><ele>29.5</ele><time>2026-04-08T16:38:03.999Z</time></trkpt><trkpt lat="45.056352087570055" lon="10.221937245393644"><ele>30.0</ele><time>2026-04-08T16:38:04.999Z</time></trkpt><trkpt lat="45.05638993825934" lon="10.222031840786636"><ele>30.0</ele><time>2026-04-08T16:38:05.999Z</time></trkpt><trkpt lat="45.056453277216306" lon="10.222096333841685"><ele>30.0</ele><time>2026-04-08T16:38:06.999Z</time></trkpt><trkpt lat="45.05650341816281" lon="10.222176976069571"><ele>30.0</ele><time>2026-04-08T16:38:07.999Z</time></trkpt><trkpt lat="45.056554210751514" lon="10.222256659024891"><ele>30.0</ele><time>2026-04-08T16:38:08.999Z</time></trkpt><trkpt lat="45.05660377022547" lon="10.222335427630638"><ele>30.0</ele><time>2026-04-08T16:38:09.999Z</time></trkpt><trkpt lat="45.05664991634241" lon="10.222419151268051"><ele>30.0</ele><time>2026-04-08T16:38:10.999Z</time></trkpt><trkpt lat="45.05669362330362" lon="10.222505344833882"><ele>30.142857142857146</ele><time>2026-04-08T16:38:11.999Z</time></trkpt><trkpt lat="45.05673584965077" lon="10.222592990261568"><ele>30.285714285714285</ele><time>2026-04-08T16:38:12.999Z</time></trkpt><trkpt lat="45.05677723376054" lon="10.222682583113642"><ele>30.42857142857143</ele><time>2026-04-08T16:38:13.999Z</time></trkpt><trkpt lat="45.05681638083914" lon="10.222775040889955"><ele>30.571428571428573</ele><time>2026-04-08T16:38:14.999Z</time></trkpt><trkpt lat="45.05685221157661" lon="10.222864461634419"><ele>30.714285714285715</ele><time>2026-04-08T16:38:15.999Z</time></trkpt><trkpt lat="45.05689051625251" lon="10.222956231034816"><ele>30.857142857142858</ele><time>2026-04-08T16:38:16.999Z</time></trkpt><trkpt lat="45.05692986045812" lon="10.223045227318437"><ele>31.0</ele><time>2026-04-08T16:38:17.999Z</time></trkpt><trkpt lat="45.05695084683036" lon="10.223147029477628"><ele>31.000000000000004</ele><time>2026-04-08T16:38:18.999Z</time></trkpt><trkpt lat="45.05699854653028" lon="10.223224992255211"><ele>31.0</ele><time>2026-04-08T16:38:19.999Z</time></trkpt><trkpt lat="45.05703371979997" lon="10.223318132526948"><ele>31.0</ele><time>2026-04-08T16:38:20.999Z</time></trkpt><trkpt lat="45.05708228838509" lon="10.223398206492545"><ele>31.0</ele><time>2026-04-08T16:38:21.999Z</time></trkpt><trkpt lat="45.0571342048747" lon="10.223478494962492"><ele>31.000000000000004</ele><time>2026-04-08T16:38:22.999Z</time></trkpt><trkpt lat="45.05722053663698" lon="10.223489359364212"><ele>31.0</ele><time>2026-04-08T16:38:23.999Z</time></trkpt><trkpt lat="45.05729768820336" lon="10.223501683252154"><ele>31.000000000000004</ele><time>2026-04-08T16:38:24.999Z</time></trkpt><trkpt lat="45.05737327184625" lon="10.223507660462356"><ele>31.0</ele><time>2026-04-08T16:38:25.999Z</time></trkpt><trkpt lat="45.05744641843035" lon="10.223535780076418"><ele>31.0</ele><time>2026-04-08T16:38:26.999Z</time></trkpt><trkpt lat="45.05752137249121" lon="10.223545651466111"><ele>31.0</ele><time>2026-04-08T16:38:27.999Z</time></trkpt><trkpt lat="45.0575947129916" lon="10.22355531032631"><ele>31.000000000000004</ele><time>2026-04-08T16:38:28.999Z</time></trkpt><trkpt lat="45.05766991004036" lon="10.223542037676303"><ele>31.0</ele><time>2026-04-08T16:38:29.999Z</time></trkpt><trkpt lat="45.05774605070544" lon="10.223553867734408"><ele>30.571428571428573</ele><time>2026-04-08T16:38:30.999Z</time></trkpt><trkpt lat="45.05782103093149" lon="10.223561480811926"><ele>30.142857142857146</ele><time>2026-04-08T16:38:31.999Z</time></trkpt><trkpt lat="45.05789454880388" lon="10.223571916333164"><ele>29.714285714285715</ele><time>2026-04-08T16:38:32.999Z</time></trkpt><trkpt lat="45.05796793638619" lon="10.223583012361386"><ele>29.285714285714285</ele><time>2026-04-08T16:38:33.999Z</time></trkpt><trkpt lat="45.05804146142235" lon="10.22359432368894"><ele>28.857142857142858</ele><time>2026-04-08T16:38:34.999Z</time></trkpt><trkpt lat="45.058116445898264" lon="10.223605297218002"><ele>28.42857142857143</ele><time>2026-04-08T16:38:35.999Z</time></trkpt><trkpt lat="45.05818983576996" lon="10.223616463183122"><ele>28.0</ele><time>2026-04-08T16:38:36.999Z</time></trkpt><trkpt lat="45.058264884784684" lon="10.22362973247577"><ele>27.833333333333336</ele><time>2026-04-08T16:38:37.999Z</time></trkpt><trkpt lat="45.05834150118792" lon="10.223637944880878"><ele>27.666666666666668</ele><time>2026-04-08T16:38:38.999Z</time></trkpt><trkpt lat="45.05841694128295" lon="10.223668566204728"><ele>27.5</ele><time>2026-04-08T16:38:39.999Z</time></trkpt><trkpt lat="45.058492490284415" lon="10.223679320485894"><ele>27.333333333333336</ele><time>2026-04-08T16:38:40.999Z</time></trkpt><trkpt lat="45.058570748727504" lon="10.223690501925695"><ele>27.166666666666668</ele><time>2026-04-08T16:38:41.999Z</time></trkpt><trkpt lat="45.058644698075916" lon="10.22370106770375"><ele>27.0</ele><time>2026-04-08T16:38:42.999Z</time></trkpt><trkpt lat="45.05872199358453" lon="10.223712111602678"><ele>27.0</ele><time>2026-04-08T16:38:43.999Z</time></trkpt><trkpt lat="45.05879766644262" lon="10.22372292361554"><ele>27.0</ele><time>2026-04-08T16:38:44.999Z</time></trkpt><trkpt lat="45.05887283958986" lon="10.223733664229671"><ele>27.0</ele><time>2026-04-08T16:38:45.999Z</time></trkpt><trkpt lat="45.05894735867549" lon="10.223744311418578"><ele>27.0</ele><time>2026-04-08T16:38:46.999Z</time></trkpt><trkpt lat="45.05902542378291" lon="10.223732792736941"><ele>27.0</ele><time>2026-04-08T16:38:47.999Z</time></trkpt><trkpt lat="45.05909922203025" lon="10.223747928537096"><ele>27.0</ele><time>2026-04-08T16:38:48.999Z</time></trkpt><trkpt lat="45.05917506931149" lon="10.223758512602846"><ele>27.166666666666668</ele><time>2026-04-08T16:38:49.999Z</time></trkpt><trkpt lat="45.05925115327548" lon="10.223767452088286"><ele>27.333333333333336</ele><time>2026-04-08T16:38:50.999Z</time></trkpt><trkpt lat="45.05932705617952" lon="10.223777394599447"><ele>27.5</ele><time>2026-04-08T16:38:51.998Z</time></trkpt><trkpt lat="45.05940066820487" lon="10.223809954497671"><ele>27.666666666666668</ele><time>2026-04-08T16:38:52.998Z</time></trkpt><trkpt lat="45.05947619567139" lon="10.223820647044365"><ele>27.833333333333336</ele><time>2026-04-08T16:38:53.998Z</time></trkpt><trkpt lat="45.059550502937086" lon="10.223831166804397"><ele>28.0</ele><time>2026-04-08T16:38:54.998Z</time></trkpt><trkpt lat="45.05962630048923" lon="10.223841258688264"><ele>28.0</ele><time>2026-04-08T16:38:55.998Z</time></trkpt><trkpt lat="45.05970205346144" lon="10.22385031631703"><ele>28.0</ele><time>2026-04-08T16:38:56.998Z</time></trkpt><trkpt lat="45.059775835253994" lon="10.223836155613366"><ele>28.0</ele><time>2026-04-08T16:38:57.998Z</time></trkpt><trkpt lat="45.05985058682642" lon="10.223847943183582"><ele>28.0</ele><time>2026-04-08T16:38:58.998Z</time></trkpt><trkpt lat="45.05992435762641" lon="10.22385349840013"><ele>28.0</ele><time>2026-04-08T16:38:59.998Z</time></trkpt><trkpt lat="45.05999661226923" lon="10.223885184899109"><ele>28.0</ele><time>2026-04-08T16:39:00.998Z</time></trkpt><trkpt lat="45.060070404091505" lon="10.223893103233495"><ele>28.0</ele><time>2026-04-08T16:39:01.998Z</time></trkpt><trkpt lat="45.06014532466911" lon="10.223881952458887"><ele>28.285714285714285</ele><time>2026-04-08T16:39:02.998Z</time></trkpt><trkpt lat="45.06021847383433" lon="10.223894728793931"><ele>28.57142857142857</ele><time>2026-04-08T16:39:03.998Z</time></trkpt><trkpt lat="45.06029212420058" lon="10.223904836538804"><ele>28.857142857142858</ele><time>2026-04-08T16:39:04.998Z</time></trkpt><trkpt lat="45.06036480922337" lon="10.223913977295418"><ele>29.142857142857142</ele><time>2026-04-08T16:39:05.998Z</time></trkpt><trkpt lat="45.06043679697534" lon="10.223929493561153"><ele>29.428571428571427</ele><time>2026-04-08T16:39:06.998Z</time></trkpt><trkpt lat="45.06050979822178" lon="10.223953013553128"><ele>29.714285714285715</ele><time>2026-04-08T16:39:07.998Z</time></trkpt><trkpt lat="45.06057940739909" lon="10.22398599149231"><ele>30.0</ele><time>2026-04-08T16:39:08.998Z</time></trkpt><trkpt lat="45.0606420205064" lon="10.224028918657469"><ele>30.0</ele><time>2026-04-08T16:39:09.998Z</time></trkpt><trkpt lat="45.06070299000579" lon="10.224074018162923"><ele>30.0</ele><time>2026-04-08T16:39:10.998Z</time></trkpt><trkpt lat="45.0607607842031" lon="10.224120862555855"><ele>30.0</ele><time>2026-04-08T16:39:11.998Z</time></trkpt><trkpt lat="45.06081265663533" lon="10.22417623890038"><ele>30.0</ele><time>2026-04-08T16:39:13Z</time></trkpt><trkpt lat="45.060861022378795" lon="10.224234309672605"><ele>30.0</ele><time>2026-04-08T16:39:14Z</time></trkpt><trkpt lat="45.06094520280361" lon="10.224355490660335"><ele>30.0</ele><time>2026-04-08T16:39:16Z</time></trkpt><trkpt lat="45.06101079704341" lon="10.22448308554109"><ele>29.8</ele><time>2026-04-08T16:39:18Z</time></trkpt><trkpt lat="45.06102920659225" lon="10.224596067054378"><ele>29.6</ele><time>2026-04-08T16:39:20Z</time></trkpt><trkpt lat="45.061106032115525" lon="10.224629809908155"><ele>29.4</ele><time>2026-04-08T16:39:24Z</time></trkpt><trkpt lat="45.06102932331628" lon="10.224464845651502"><ele>29.2</ele><time>2026-04-08T16:39:26Z</time></trkpt><trkpt lat="45.06096081397164" lon="10.224358512949628"><ele>29.0</ele><time>2026-04-08T16:39:28Z</time></trkpt><trkpt lat="45.06088041373265" lon="10.224231924434687"><ele>29.0</ele><time>2026-04-08T16:39:30Z</time></trkpt><trkpt lat="45.060785363987044" lon="10.224113487512485"><ele>29.0</ele><time>2026-04-08T16:39:32Z</time></trkpt><trkpt lat="45.06067534451735" lon="10.22401925658015"><ele>29.0</ele><time>2026-04-08T16:39:34Z</time></trkpt><trkpt lat="45.060613539635646" lon="10.223973227311328"><ele>29.0</ele><time>2026-04-08T16:39:35Z</time></trkpt><trkpt lat="45.06054888659595" lon="10.223936086907955"><ele>29.0</ele><time>2026-04-08T16:39:36Z</time></trkpt><trkpt lat="45.06047968005743" lon="10.223908711334072"><ele>29.142857142857146</ele><time>2026-04-08T16:39:37Z</time></trkpt><trkpt lat="45.060407964734495" lon="10.223890718708825"><ele>29.285714285714285</ele><time>2026-04-08T16:39:38Z</time></trkpt><trkpt lat="45.06033659962091" lon="10.223874813957417"><ele>29.42857142857143</ele><time>2026-04-08T16:39:39Z</time></trkpt><trkpt lat="45.06026354010576" lon="10.223863163297338"><ele>29.571428571428573</ele><time>2026-04-08T16:39:40Z</time></trkpt><trkpt lat="45.0601908440557" lon="10.2238552829808"><ele>29.714285714285715</ele><time>2026-04-08T16:39:41Z</time></trkpt><trkpt lat="45.060114955165396" lon="10.22385181146193"><ele>29.857142857142858</ele><time>2026-04-08T16:39:42Z</time></trkpt><trkpt lat="45.06003871589388" lon="10.223843047416398"><ele>30.0</ele><time>2026-04-08T16:39:43Z</time></trkpt><trkpt lat="45.0599619556777" lon="10.223831356117884"><ele>29.666666666666668</ele><time>2026-04-08T16:39:44Z</time></trkpt><trkpt lat="45.05988479358725" lon="10.223820973576471"><ele>29.333333333333336</ele><time>2026-04-08T16:39:45Z</time></trkpt><trkpt lat="45.05980725755547" lon="10.223812569055541"><ele>29.0</ele><time>2026-04-08T16:39:46Z</time></trkpt><trkpt lat="45.05973141277522" lon="10.22380136899283"><ele>28.666666666666668</ele><time>2026-04-08T16:39:47Z</time></trkpt><trkpt lat="45.05965461328141" lon="10.223790472072892"><ele>28.333333333333336</ele><time>2026-04-08T16:39:48Z</time></trkpt><trkpt lat="45.05957670197598" lon="10.223781935155586"><ele>28.0</ele><time>2026-04-08T16:39:49Z</time></trkpt><trkpt lat="45.059497654779456" lon="10.22376973190066"><ele>28.000000000000004</ele><time>2026-04-08T16:39:50Z</time></trkpt><trkpt lat="45.0594225464868" lon="10.22375812902997"><ele>28.0</ele><time>2026-04-08T16:39:51Z</time></trkpt><trkpt lat="45.059343359100815" lon="10.223749154050564"><ele>28.0</ele><time>2026-04-08T16:39:52Z</time></trkpt><trkpt lat="45.059267519959235" lon="10.223740126190716"><ele>28.0</ele><time>2026-04-08T16:39:53Z</time></trkpt><trkpt lat="45.05918742241913" lon="10.223725518881976"><ele>28.000000000000004</ele><time>2026-04-08T16:39:54Z</time></trkpt><trkpt lat="45.05910871579768" lon="10.223708645462208"><ele>28.0</ele><time>2026-04-08T16:39:55Z</time></trkpt><trkpt lat="45.05902952082154" lon="10.223694910703031"><ele>27.833333333333336</ele><time>2026-04-08T16:39:56Z</time></trkpt><trkpt lat="45.058952751793285" lon="10.223686093661744"><ele>27.666666666666668</ele><time>2026-04-08T16:39:57Z</time></trkpt><trkpt lat="45.05887202934028" lon="10.223675407317792"><ele>27.5</ele><time>2026-04-08T16:39:58Z</time></trkpt><trkpt lat="45.0587939698981" lon="10.223662675190116"><ele>27.333333333333336</ele><time>2026-04-08T16:39:59Z</time></trkpt><trkpt lat="45.058713743584505" lon="10.223651340972145"><ele>27.166666666666668</ele><time>2026-04-08T16:40:00Z</time></trkpt><trkpt lat="45.058632460113195" lon="10.22363806562759"><ele>27.0</ele><time>2026-04-08T16:40:00.999Z</time></trkpt><trkpt lat="45.05855198122161" lon="10.223626387791514"><ele>27.0</ele><time>2026-04-08T16:40:01.999Z</time></trkpt><trkpt lat="45.05846915493338" lon="10.22361654837037"><ele>27.0</ele><time>2026-04-08T16:40:02.999Z</time></trkpt><trkpt lat="45.05838808151466" lon="10.223608281276293"><ele>27.0</ele><time>2026-04-08T16:40:03.999Z</time></trkpt><trkpt lat="45.058306697598" lon="10.223596297036627"><ele>27.0</ele><time>2026-04-08T16:40:04.999Z</time></trkpt><trkpt lat="45.05822555939125" lon="10.223582997197262"><ele>27.0</ele><time>2026-04-08T16:40:05.999Z</time></trkpt><trkpt lat="45.05814387392775" lon="10.2235714133616"><ele>27.0</ele><time>2026-04-08T16:40:06.999Z</time></trkpt><trkpt lat="45.05806333300484" lon="10.223558592073102"><ele>27.166666666666668</ele><time>2026-04-08T16:40:07.999Z</time></trkpt><trkpt lat="45.057982424177226" lon="10.223547922966047"><ele>27.333333333333336</ele><time>2026-04-08T16:40:08.999Z</time></trkpt><trkpt lat="45.05790107969716" lon="10.223535402402195"><ele>27.5</ele><time>2026-04-08T16:40:09.999Z</time></trkpt><trkpt lat="45.057820437880416" lon="10.223523235723485"><ele>27.666666666666668</ele><time>2026-04-08T16:40:10.999Z</time></trkpt><trkpt lat="45.057737123388065" lon="10.223512505556823"><ele>27.833333333333336</ele><time>2026-04-08T16:40:11.999Z</time></trkpt><trkpt lat="45.057656175902004" lon="10.223507892620827"><ele>28.0</ele><time>2026-04-08T16:40:12.999Z</time></trkpt><trkpt lat="45.05757406491311" lon="10.223498170728742"><ele>28.000000000000004</ele><time>2026-04-08T16:40:13.999Z</time></trkpt><trkpt lat="45.05749063587884" lon="10.223484390084733"><ele>28.0</ele><time>2026-04-08T16:40:14.999Z</time></trkpt><trkpt lat="45.057409462221294" lon="10.223473097731205"><ele>28.0</ele><time>2026-04-08T16:40:15.999Z</time></trkpt><trkpt lat="45.057327203335625" lon="10.223461110909486"><ele>28.0</ele><time>2026-04-08T16:40:16.999Z</time></trkpt><trkpt lat="45.05724505837447" lon="10.223450617422795"><ele>28.000000000000004</ele><time>2026-04-08T16:40:17.999Z</time></trkpt><trkpt lat="45.0571659578416" lon="10.223426588295721"><ele>28.0</ele><time>2026-04-08T16:40:18.999Z</time></trkpt><trkpt lat="45.05708798046571" lon="10.223377743729879"><ele>28.500000000000004</ele><time>2026-04-08T16:40:19.999Z</time></trkpt><trkpt lat="45.057026124403706" lon="10.223293642508533"><ele>29.0</ele><time>2026-04-08T16:40:20.999Z</time></trkpt><trkpt lat="45.05700019075592" lon="10.223176782941419"><ele>29.5</ele><time>2026-04-08T16:40:21.999Z</time></trkpt><trkpt lat="45.056950036963244" lon="10.223081214278588"><ele>30.0</ele><time>2026-04-08T16:40:22.999Z</time></trkpt><trkpt lat="45.05691721117433" lon="10.222972536151026"><ele>30.500000000000004</ele><time>2026-04-08T16:40:23.999Z</time></trkpt><trkpt lat="45.056878124551034" lon="10.222870604935157"><ele>31.0</ele><time>2026-04-08T16:40:24.999Z</time></trkpt><trkpt lat="45.056833988946636" lon="10.222770787447159"><ele>31.000000000000004</ele><time>2026-04-08T16:40:25.999Z</time></trkpt><trkpt lat="45.056790105571004" lon="10.222670194871611"><ele>31.0</ele><time>2026-04-08T16:40:26.999Z</time></trkpt><trkpt lat="45.05674591439412" lon="10.222570536858697"><ele>31.0</ele><time>2026-04-08T16:40:27.999Z</time></trkpt><trkpt lat="45.056699694044674" lon="10.222470976677553"><ele>31.0</ele><time>2026-04-08T16:40:28.999Z</time></trkpt><trkpt lat="45.05665158240255" lon="10.222375385251512"><ele>31.000000000000004</ele><time>2026-04-08T16:40:29.999Z</time></trkpt><trkpt lat="45.05659861084442" lon="10.222285244604597"><ele>31.0</ele><time>2026-04-08T16:40:30.999Z</time></trkpt><trkpt lat="45.05654345559816" lon="10.22219559295997"><ele>30.833333333333336</ele><time>2026-04-08T16:40:31.999Z</time></trkpt><trkpt lat="45.0564861266555" lon="10.222109529136782"><ele>30.666666666666668</ele><time>2026-04-08T16:40:32.999Z</time></trkpt><trkpt lat="45.056432781130205" lon="10.222020172911067"><ele>30.5</ele><time>2026-04-08T16:40:33.999Z</time></trkpt><trkpt lat="45.05637756014234" lon="10.221932043559539"><ele>30.333333333333336</ele><time>2026-04-08T16:40:34.999Z</time></trkpt><trkpt lat="45.05631937719429" lon="10.221846348383739"><ele>30.166666666666668</ele><time>2026-04-08T16:40:35.999Z</time></trkpt><trkpt lat="45.056267204306735" lon="10.221758101570627"><ele>30.0</ele><time>2026-04-08T16:40:36.999Z</time></trkpt><trkpt lat="45.05621209501772" lon="10.22167047837124"><ele>30.0</ele><time>2026-04-08T16:40:37.999Z</time></trkpt><trkpt lat="45.056156625838256" lon="10.221585179585922"><ele>30.0</ele><time>2026-04-08T16:40:38.999Z</time></trkpt><trkpt lat="45.05610217788863" lon="10.221497708956056"><ele>30.0</ele><time>2026-04-08T16:40:39.999Z</time></trkpt><trkpt lat="45.05604992696907" lon="10.221408743787622"><ele>30.0</ele><time>2026-04-08T16:40:40.999Z</time></trkpt><trkpt lat="45.05599796000228" lon="10.22131766084117"><ele>30.0</ele><time>2026-04-08T16:40:41.999Z</time></trkpt><trkpt lat="45.05594723595341" lon="10.221223949048774"><ele>30.0</ele><time>2026-04-08T16:40:42.999Z</time></trkpt><trkpt lat="45.05590165307281" lon="10.22113022059825"><ele>29.666666666666668</ele><time>2026-04-08T16:40:43.999Z</time></trkpt><trkpt lat="45.05585598440831" lon="10.221033164328567"><ele>29.333333333333336</ele><time>2026-04-08T16:40:44.999Z</time></trkpt><trkpt lat="45.05581111741815" lon="10.22093316596662"><ele>29.0</ele><time>2026-04-08T16:40:45.999Z</time></trkpt><trkpt lat="45.055768846833146" lon="10.220833245599"><ele>28.666666666666668</ele><time>2026-04-08T16:40:46.999Z</time></trkpt><trkpt lat="45.055729583895996" lon="10.22073220592451"><ele>28.333333333333336</ele><time>2026-04-08T16:40:47.999Z</time></trkpt><trkpt lat="45.055692505326135" lon="10.220629746662857"><ele>28.0</ele><time>2026-04-08T16:40:48.999Z</time></trkpt><trkpt lat="45.055655093601956" lon="10.220526572595046"><ele>28.000000000000004</ele><time>2026-04-08T16:40:49.999Z</time></trkpt><trkpt lat="45.05561858816025" lon="10.220421499079407"><ele>28.0</ele><time>2026-04-08T16:40:50.999Z</time></trkpt><trkpt lat="45.05558443433592" lon="10.220316474378365"><ele>28.0</ele><time>2026-04-08T16:40:51.999Z</time></trkpt><trkpt lat="45.05555180755042" lon="10.220208330075348"><ele>28.0</ele><time>2026-04-08T16:40:52.999Z</time></trkpt><trkpt lat="45.055538649259546" lon="10.220090869071749"><ele>28.000000000000004</ele><time>2026-04-08T16:40:53.999Z</time></trkpt><trkpt lat="45.055512708470225" lon="10.219978834913496"><ele>28.0</ele><time>2026-04-08T16:40:54.999Z</time></trkpt><trkpt lat="45.05549094891312" lon="10.219869057852234"><ele>28.000000000000004</ele><time>2026-04-08T16:40:55.998Z</time></trkpt><trkpt lat="45.0554680557931" lon="10.219756258358531"><ele>28.0</ele><time>2026-04-08T16:40:56.998Z</time></trkpt><trkpt lat="45.05543025175082" lon="10.219649436190574"><ele>28.0</ele><time>2026-04-08T16:40:57.998Z</time></trkpt><trkpt lat="45.055421965776766" lon="10.219531384035484"><ele>28.0</ele><time>2026-04-08T16:40:58.998Z</time></trkpt><trkpt lat="45.055382843386504" lon="10.219424660024474"><ele>28.000000000000004</ele><time>2026-04-08T16:40:59.998Z</time></trkpt><trkpt lat="45.05535818504151" lon="10.21931181504015"><ele>28.0</ele><time>2026-04-08T16:41:00.998Z</time></trkpt><trkpt lat="45.05533324475499" lon="10.219198376525966"><ele>28.000000000000004</ele><time>2026-04-08T16:41:01.998Z</time></trkpt><trkpt lat="45.05531002554799" lon="10.219085257252278"><ele>28.0</ele><time>2026-04-08T16:41:02.998Z</time></trkpt><trkpt lat="45.05528426124794" lon="10.218971494559664"><ele>28.0</ele><time>2026-04-08T16:41:03.998Z</time></trkpt><trkpt lat="45.05525480564794" lon="10.218861248811354"><ele>28.0</ele><time>2026-04-08T16:41:04.998Z</time></trkpt><trkpt lat="45.05522390832838" lon="10.21875207745928"><ele>28.000000000000004</ele><time>2026-04-08T16:41:05.998Z</time></trkpt><trkpt lat="45.055191860611146" lon="10.218643272529109"><ele>28.0</ele><time>2026-04-08T16:41:06.998Z</time></trkpt><trkpt lat="45.055157673157055" lon="10.218534579410106"><ele>28.000000000000004</ele><time>2026-04-08T16:41:07.998Z</time></trkpt><trkpt lat="45.05512253328377" lon="10.218427572026684"><ele>28.0</ele><time>2026-04-08T16:41:08.998Z</time></trkpt><trkpt lat="45.055082912837015" lon="10.21832264720806"><ele>28.0</ele><time>2026-04-08T16:41:09.998Z</time></trkpt><trkpt lat="45.05504034058424" lon="10.218219931817515"><ele>28.0</ele><time>2026-04-08T16:41:10.998Z</time></trkpt><trkpt lat="45.05499803170452" lon="10.21811844555433"><ele>28.000000000000004</ele><time>2026-04-08T16:41:11.998Z</time></trkpt><trkpt lat="45.05495240596929" lon="10.218020194834509"><ele>28.0</ele><time>2026-04-08T16:41:12.998Z</time></trkpt><trkpt lat="45.05490565188601" lon="10.217923240054054"><ele>28.166666666666668</ele><time>2026-04-08T16:41:13.998Z</time></trkpt><trkpt lat="45.05485979069485" lon="10.217824744663922"><ele>28.333333333333336</ele><time>2026-04-08T16:41:14.998Z</time></trkpt><trkpt lat="45.05481455698404" lon="10.21772601755526"><ele>28.5</ele><time>2026-04-08T16:41:15.998Z</time></trkpt><trkpt lat="45.05476893159715" lon="10.217626623625"><ele>28.666666666666664</ele><time>2026-04-08T16:41:16.998Z</time></trkpt><trkpt lat="45.05472289787991" lon="10.217526734879538"><ele>28.833333333333332</ele><time>2026-04-08T16:41:18Z</time></trkpt><trkpt lat="45.05467443713573" lon="10.21742941038079"><ele>29.0</ele><time>2026-04-08T16:41:19Z</time></trkpt><trkpt lat="45.05462468294622" lon="10.217333118535212"><ele>29.166666666666664</ele><time>2026-04-08T16:41:20Z</time></trkpt><trkpt lat="45.05457679272176" lon="10.217237118711589"><ele>29.333333333333332</ele><time>2026-04-08T16:41:21Z</time></trkpt><trkpt lat="45.0545265787708" lon="10.217141234330603"><ele>29.5</ele><time>2026-04-08T16:41:22Z</time></trkpt><trkpt lat="45.05447717254294" lon="10.21704385153308"><ele>29.666666666666664</ele><time>2026-04-08T16:41:23Z</time></trkpt><trkpt lat="45.05443038440795" lon="10.216946444332155"><ele>29.833333333333332</ele><time>2026-04-08T16:41:24Z</time></trkpt><trkpt lat="45.054387000771364" lon="10.216844958452008"><ele>30.0</ele><time>2026-04-08T16:41:25Z</time></trkpt><trkpt lat="45.05435165882054" lon="10.216738540564828"><ele>30.0</ele><time>2026-04-08T16:41:26Z</time></trkpt><trkpt lat="45.054319447696166" lon="10.21662877896794"><ele>30.0</ele><time>2026-04-08T16:41:27Z</time></trkpt><trkpt lat="45.054293356847786" lon="10.216516897135607"><ele>30.0</ele><time>2026-04-08T16:41:28Z</time></trkpt><trkpt lat="45.05426916969923" lon="10.216401851488195"><ele>30.0</ele><time>2026-04-08T16:41:29Z</time></trkpt><trkpt lat="45.054248540844135" lon="10.216286253913443"><ele>30.0</ele><time>2026-04-08T16:41:30Z</time></trkpt><trkpt lat="45.05422730575522" lon="10.216171264702893"><ele>30.0</ele><time>2026-04-08T16:41:31Z</time></trkpt><trkpt lat="45.05420561042491" lon="10.21605507563581"><ele>30.166666666666668</ele><time>2026-04-08T16:41:32Z</time></trkpt><trkpt lat="45.05418267890051" lon="10.215938380225403"><ele>30.333333333333336</ele><time>2026-04-08T16:41:33Z</time></trkpt><trkpt lat="45.054160625543176" lon="10.2158231800451"><ele>30.5</ele><time>2026-04-08T16:41:34Z</time></trkpt><trkpt lat="45.054137722373994" lon="10.215708891862322"><ele>30.666666666666668</ele><time>2026-04-08T16:41:35Z</time></trkpt><trkpt lat="45.054115950266535" lon="10.215594154041685"><ele>30.833333333333336</ele><time>2026-04-08T16:41:36Z</time></trkpt><trkpt lat="45.0540919093808" lon="10.215478789636073"><ele>31.0</ele><time>2026-04-08T16:41:37Z</time></trkpt><trkpt lat="45.054066602739944" lon="10.215363979106431"><ele>30.333333333333336</ele><time>2026-04-08T16:41:38Z</time></trkpt><trkpt lat="45.054032874495135" lon="10.21525386795757"><ele>29.666666666666668</ele><time>2026-04-08T16:41:39Z</time></trkpt><trkpt lat="45.053992756489734" lon="10.215149150466694"><ele>29.0</ele><time>2026-04-08T16:41:40Z</time></trkpt><trkpt lat="45.053943707918506" lon="10.21505028245171"><ele>28.333333333333336</ele><time>2026-04-08T16:41:41Z</time></trkpt><trkpt lat="45.053894708402765" lon="10.214950564984361"><ele>27.666666666666668</ele><time>2026-04-08T16:41:42Z</time></trkpt><trkpt lat="45.053844757634224" lon="10.214854163989465"><ele>27.0</ele><time>2026-04-08T16:41:43Z</time></trkpt><trkpt lat="45.05379512600884" lon="10.214757961676007"><ele>27.0</ele><time>2026-04-08T16:41:44Z</time></trkpt><trkpt lat="45.05374342591643" lon="10.214661313616935"><ele>27.0</ele><time>2026-04-08T16:41:45Z</time></trkpt><trkpt lat="45.05368900931534" lon="10.214566975189257"><ele>27.0</ele><time>2026-04-08T16:41:46Z</time></trkpt><trkpt lat="45.05363430190177" lon="10.214475072119908"><ele>27.0</ele><time>2026-04-08T16:41:47Z</time></trkpt><trkpt lat="45.05357799254919" lon="10.214384303669606"><ele>27.0</ele><time>2026-04-08T16:41:48Z</time></trkpt><trkpt lat="45.05352317385529" lon="10.214293986135146"><ele>27.0</ele><time>2026-04-08T16:41:49Z</time></trkpt><trkpt lat="45.05346683432728" lon="10.214203263550756"><ele>27.0</ele><time>2026-04-08T16:41:50Z</time></trkpt><trkpt lat="45.05341013966908" lon="10.214111949435983"><ele>27.0</ele><time>2026-04-08T16:41:51Z</time></trkpt><trkpt lat="45.05334884303157" lon="10.214025903592685"><ele>27.0</ele><time>2026-04-08T16:41:52Z</time></trkpt><trkpt lat="45.053290968037075" lon="10.213936785664387"><ele>27.0</ele><time>2026-04-08T16:41:53Z</time></trkpt><trkpt lat="45.05323533807148" lon="10.21384702642655"><ele>27.0</ele><time>2026-04-08T16:41:54Z</time></trkpt><trkpt lat="45.053183607913084" lon="10.21375180876353"><ele>27.0</ele><time>2026-04-08T16:41:55Z</time></trkpt><trkpt lat="45.053136253521416" lon="10.213651988077155"><ele>27.166666666666668</ele><time>2026-04-08T16:41:56Z</time></trkpt><trkpt lat="45.05309274385591" lon="10.213547712483823"><ele>27.333333333333336</ele><time>2026-04-08T16:41:57Z</time></trkpt><trkpt lat="45.05305853337382" lon="10.21343538221195"><ele>27.5</ele><time>2026-04-08T16:41:58Z</time></trkpt><trkpt lat="45.05306194461742" lon="10.21331320560312"><ele>27.666666666666668</ele><time>2026-04-08T16:41:59Z</time></trkpt><trkpt lat="45.053061029203874" lon="10.213193991442415"><ele>27.833333333333336</ele><time>2026-04-08T16:42:00Z</time></trkpt><trkpt lat="45.05306165447769" lon="10.213073170502494"><ele>28.0</ele><time>2026-04-08T16:42:01Z</time></trkpt><trkpt lat="45.05306285145937" lon="10.212950429999873"><ele>28.166666666666668</ele><time>2026-04-08T16:42:02Z</time></trkpt><trkpt lat="45.05306401436658" lon="10.212831183539693"><ele>28.333333333333336</ele><time>2026-04-08T16:42:02.999Z</time></trkpt><trkpt lat="45.05306517744287" lon="10.212711919855005"><ele>28.5</ele><time>2026-04-08T16:42:03.999Z</time></trkpt><trkpt lat="45.05306437002717" lon="10.212591534279099"><ele>28.666666666666664</ele><time>2026-04-08T16:42:04.999Z</time></trkpt><trkpt lat="45.05303859337619" lon="10.212471421121046"><ele>28.833333333333332</ele><time>2026-04-08T16:42:05.999Z</time></trkpt><trkpt lat="45.053010526112566" lon="10.21235588214252"><ele>29.0</ele><time>2026-04-08T16:42:06.999Z</time></trkpt><trkpt lat="45.05296485414079" lon="10.21225240653682"><ele>28.999999999999996</ele><time>2026-04-08T16:42:07.999Z</time></trkpt><trkpt lat="45.05290842009043" lon="10.212159525234165"><ele>29.0</ele><time>2026-04-08T16:42:08.999Z</time></trkpt><trkpt lat="45.05284153656735" lon="10.212079244118357"><ele>29.0</ele><time>2026-04-08T16:42:09.999Z</time></trkpt><trkpt lat="45.052765796013944" lon="10.21201720100372"><ele>29.0</ele><time>2026-04-08T16:42:10.999Z</time></trkpt><trkpt lat="45.05268391187151" lon="10.211974258647073"><ele>28.999999999999996</ele><time>2026-04-08T16:42:11.999Z</time></trkpt><trkpt lat="45.052599132533004" lon="10.211947239709113"><ele>29.0</ele><time>2026-04-08T16:42:12.999Z</time></trkpt><trkpt lat="45.052513672952536" lon="10.211939183393616"><ele>29.333333333333332</ele><time>2026-04-08T16:42:13.999Z</time></trkpt><trkpt lat="45.05243007270228" lon="10.211936875395383"><ele>29.666666666666664</ele><time>2026-04-08T16:42:14.999Z</time></trkpt><trkpt lat="45.052344882659106" lon="10.211924830832828"><ele>30.0</ele><time>2026-04-08T16:42:15.999Z</time></trkpt><trkpt lat="45.0522637889693" lon="10.21189567693329"><ele>30.333333333333336</ele><time>2026-04-08T16:42:16.999Z</time></trkpt><trkpt lat="45.05218670233472" lon="10.21184367945902"><ele>30.666666666666668</ele><time>2026-04-08T16:42:17.999Z</time></trkpt><trkpt lat="45.05212810541929" lon="10.211751194887698"><ele>31.0</ele><time>2026-04-08T16:42:18.999Z</time></trkpt><trkpt lat="45.05207658429809" lon="10.21165793571683"><ele>31.000000000000004</ele><time>2026-04-08T16:42:19.999Z</time></trkpt><trkpt lat="45.052028821274334" lon="10.2115609106669"><ele>31.0</ele><time>2026-04-08T16:42:20.999Z</time></trkpt><trkpt lat="45.05197066147011" lon="10.211472805028695"><ele>31.0</ele><time>2026-04-08T16:42:21.999Z</time></trkpt><trkpt lat="45.05192458554347" lon="10.211372001790124"><ele>31.0</ele><time>2026-04-08T16:42:22.999Z</time></trkpt><trkpt lat="45.05187707934878" lon="10.21127364901037"><ele>31.000000000000004</ele><time>2026-04-08T16:42:23.999Z</time></trkpt><trkpt lat="45.05182891924406" lon="10.211174310275622"><ele>31.0</ele><time>2026-04-08T16:42:24.999Z</time></trkpt><trkpt lat="45.05178030312474" lon="10.211075327890132"><ele>30.666666666666668</ele><time>2026-04-08T16:42:25.999Z</time></trkpt><trkpt lat="45.05172684649304" lon="10.210979436851634"><ele>30.333333333333336</ele><time>2026-04-08T16:42:26.999Z</time></trkpt><trkpt lat="45.051668930847164" lon="10.210892060395933"><ele>30.0</ele><time>2026-04-08T16:42:27.999Z</time></trkpt><trkpt lat="45.051607439377534" lon="10.210812094030851"><ele>29.666666666666664</ele><time>2026-04-08T16:42:28.999Z</time></trkpt><trkpt lat="45.05154044995339" lon="10.210738098544544"><ele>29.333333333333332</ele><time>2026-04-08T16:42:29.999Z</time></trkpt><trkpt lat="45.05147401017742" lon="10.21066567084324"><ele>29.0</ele><time>2026-04-08T16:42:30.999Z</time></trkpt><trkpt lat="45.05140722124611" lon="10.21059354052384"><ele>28.999999999999996</ele><time>2026-04-08T16:42:31.999Z</time></trkpt><trkpt lat="45.0513448960879" lon="10.210514263945782"><ele>29.0</ele><time>2026-04-08T16:42:32.999Z</time></trkpt><trkpt lat="45.051285563769014" lon="10.21043004323799"><ele>29.0</ele><time>2026-04-08T16:42:33.999Z</time></trkpt><trkpt lat="45.051229161380256" lon="10.210340940394438"><ele>29.0</ele><time>2026-04-08T16:42:34.999Z</time></trkpt><trkpt lat="45.051176159827804" lon="10.210246996941892"><ele>28.999999999999996</ele><time>2026-04-08T16:42:35.999Z</time></trkpt><trkpt lat="45.051122971823176" lon="10.210155143642286"><ele>29.0</ele><time>2026-04-08T16:42:36.999Z</time></trkpt><trkpt lat="45.051069748305" lon="10.210061507337667"><ele>28.999999999999996</ele><time>2026-04-08T16:42:37.999Z</time></trkpt><trkpt lat="45.05102476702812" lon="10.20996000868893"><ele>29.0</ele><time>2026-04-08T16:42:38.999Z</time></trkpt><trkpt lat="45.051006332646836" lon="10.209840501210104"><ele>29.0</ele><time>2026-04-08T16:42:39.999Z</time></trkpt><trkpt lat="45.050975302459996" lon="10.209729874391149"><ele>29.0</ele><time>2026-04-08T16:42:40.999Z</time></trkpt><trkpt lat="45.050945324688165" lon="10.209615515893285"><ele>28.999999999999996</ele><time>2026-04-08T16:42:41.999Z</time></trkpt><trkpt lat="45.05091843476782" lon="10.209503762627465"><ele>29.0</ele><time>2026-04-08T16:42:42.999Z</time></trkpt><trkpt lat="45.050898723788094" lon="10.20939186013272"><ele>28.833333333333332</ele><time>2026-04-08T16:42:43.999Z</time></trkpt><trkpt lat="45.05088708847586" lon="10.209275547194697"><ele>28.666666666666664</ele><time>2026-04-08T16:42:44.999Z</time></trkpt><trkpt lat="45.05092504505215" lon="10.209176497565677"><ele>28.5</ele><time>2026-04-08T16:42:45.999Z</time></trkpt><trkpt lat="45.050961874882766" lon="10.20906984566097"><ele>28.333333333333336</ele><time>2026-04-08T16:42:46.999Z</time></trkpt><trkpt lat="45.05099740638615" lon="10.208960054852337"><ele>28.166666666666668</ele><time>2026-04-08T16:42:47.999Z</time></trkpt><trkpt lat="45.05103197329687" lon="10.208850535469027"><ele>28.0</ele><time>2026-04-08T16:42:48.999Z</time></trkpt><trkpt lat="45.05106429441278" lon="10.208740769823088"><ele>27.833333333333336</ele><time>2026-04-08T16:42:49.999Z</time></trkpt><trkpt lat="45.05109653800016" lon="10.20862981645453"><ele>27.666666666666668</ele><time>2026-04-08T16:42:50.999Z</time></trkpt><trkpt lat="45.05112524023341" lon="10.208515378131581"><ele>27.5</ele><time>2026-04-08T16:42:51.999Z</time></trkpt><trkpt lat="45.05115214987836" lon="10.208401971686904"><ele>27.333333333333336</ele><time>2026-04-08T16:42:52.999Z</time></trkpt><trkpt lat="45.05117789817567" lon="10.20828678773721"><ele>27.166666666666668</ele><time>2026-04-08T16:42:53.999Z</time></trkpt><trkpt lat="45.05120207880125" lon="10.208172241415642"><ele>27.0</ele><time>2026-04-08T16:42:54.999Z</time></trkpt><trkpt lat="45.05122430666144" lon="10.208058884609656"><ele>27.0</ele><time>2026-04-08T16:42:55.999Z</time></trkpt><trkpt lat="45.05124260870173" lon="10.207942197418767"><ele>27.0</ele><time>2026-04-08T16:42:56.998Z</time></trkpt><trkpt lat="45.05125977672683" lon="10.207824092641765"><ele>27.0</ele><time>2026-04-08T16:42:57.998Z</time></trkpt><trkpt lat="45.05127507273515" lon="10.207706287132554"><ele>27.0</ele><time>2026-04-08T16:42:58.998Z</time></trkpt><trkpt lat="45.05128978377668" lon="10.207589873145588"><ele>27.0</ele><time>2026-04-08T16:42:59.998Z</time></trkpt><trkpt lat="45.05130455586183" lon="10.207472935121833"><ele>27.0</ele><time>2026-04-08T16:43:00.998Z</time></trkpt><trkpt lat="45.05131881779188" lon="10.207356438340765"><ele>27.166666666666668</ele><time>2026-04-08T16:43:01.998Z</time></trkpt><trkpt lat="45.051332496586106" lon="10.207239439680842"><ele>27.333333333333336</ele><time>2026-04-08T16:43:02.998Z</time></trkpt><trkpt lat="45.05134554547058" lon="10.207120011294824"><ele>27.5</ele><time>2026-04-08T16:43:03.998Z</time></trkpt><trkpt lat="45.05135827067223" lon="10.206999152642034"><ele>27.666666666666668</ele><time>2026-04-08T16:43:04.998Z</time></trkpt><trkpt lat="45.0513706383961" lon="10.206878824699965"><ele>27.833333333333336</ele><time>2026-04-08T16:43:05.998Z</time></trkpt><trkpt lat="45.05138284011849" lon="10.2067620607744"><ele>28.0</ele><time>2026-04-08T16:43:06.998Z</time></trkpt><trkpt lat="45.05139553863551" lon="10.206643961722724"><ele>28.000000000000004</ele><time>2026-04-08T16:43:07.998Z</time></trkpt><trkpt lat="45.05140829021659" lon="10.206525369445675"><ele>28.0</ele><time>2026-04-08T16:43:08.998Z</time></trkpt><trkpt lat="45.05142105306947" lon="10.206406672054198"><ele>28.0</ele><time>2026-04-08T16:43:09.998Z</time></trkpt><trkpt lat="45.051434080720995" lon="10.206289792317381"><ele>28.0</ele><time>2026-04-08T16:43:10.998Z</time></trkpt><trkpt lat="45.051447482773916" lon="10.206171680406069"><ele>28.000000000000004</ele><time>2026-04-08T16:43:11.998Z</time></trkpt><trkpt lat="45.051461270463456" lon="10.206050170151023"><ele>28.0</ele><time>2026-04-08T16:43:12.998Z</time></trkpt><trkpt lat="45.05145852799818" lon="10.205926628051486"><ele>27.833333333333336</ele><time>2026-04-08T16:43:13.998Z</time></trkpt><trkpt lat="45.05148929573084" lon="10.205813025922986"><ele>27.666666666666668</ele><time>2026-04-08T16:43:14.998Z</time></trkpt><trkpt lat="45.05150379910036" lon="10.205694743562965"><ele>27.5</ele><time>2026-04-08T16:43:15.998Z</time></trkpt><trkpt lat="45.05151709393628" lon="10.205574563394158"><ele>27.333333333333336</ele><time>2026-04-08T16:43:16.998Z</time></trkpt><trkpt lat="45.05152885535312" lon="10.205452055569216"><ele>27.166666666666668</ele><time>2026-04-08T16:43:17.998Z</time></trkpt><trkpt lat="45.05151826770491" lon="10.205328130574692"><ele>27.0</ele><time>2026-04-08T16:43:18.998Z</time></trkpt><trkpt lat="45.051526572606285" lon="10.20520872063522"><ele>27.0</ele><time>2026-04-08T16:43:19.998Z</time></trkpt><trkpt lat="45.051532858282215" lon="10.205085985062416"><ele>27.0</ele><time>2026-04-08T16:43:20.998Z</time></trkpt><trkpt lat="45.051533154544124" lon="10.204964561521676"><ele>27.0</ele><time>2026-04-08T16:43:21.998Z</time></trkpt><trkpt lat="45.05154936982336" lon="10.204842240537983"><ele>27.0</ele><time>2026-04-08T16:43:22.998Z</time></trkpt><trkpt lat="45.051545166114785" lon="10.204719176176807"><ele>27.0</ele><time>2026-04-08T16:43:24Z</time></trkpt><trkpt lat="45.051537528260624" lon="10.204596167586862"><ele>27.0</ele><time>2026-04-08T16:43:25Z</time></trkpt><trkpt lat="45.05151385072997" lon="10.204478919318024"><ele>27.0</ele><time>2026-04-08T16:43:26Z</time></trkpt><trkpt lat="45.05150415152677" lon="10.20435776304917"><ele>27.0</ele><time>2026-04-08T16:43:27Z</time></trkpt><trkpt lat="45.05149344044341" lon="10.204237807644203"><ele>27.0</ele><time>2026-04-08T16:43:28Z</time></trkpt><trkpt lat="45.05148225056409" lon="10.204118447739052"><ele>27.0</ele><time>2026-04-08T16:43:29Z</time></trkpt><trkpt lat="45.05149083326588" lon="10.20399696201578"><ele>27.0</ele><time>2026-04-08T16:43:30Z</time></trkpt><trkpt lat="45.05148784665817" lon="10.203877196841518"><ele>27.0</ele><time>2026-04-08T16:43:31Z</time></trkpt><trkpt lat="45.05148968871701" lon="10.203755776865245"><ele>27.0</ele><time>2026-04-08T16:43:32Z</time></trkpt><trkpt lat="45.051497548536496" lon="10.203637005576603"><ele>27.0</ele><time>2026-04-08T16:43:33Z</time></trkpt><trkpt lat="45.05150838425651" lon="10.203516909143785"><ele>27.0</ele><time>2026-04-08T16:43:34Z</time></trkpt><trkpt lat="45.0515209880676" lon="10.203398925350779"><ele>27.0</ele><time>2026-04-08T16:43:35Z</time></trkpt><trkpt lat="45.051535303150075" lon="10.203279274390473"><ele>27.0</ele><time>2026-04-08T16:43:36Z</time></trkpt><trkpt lat="45.051550082604464" lon="10.203160659533966"><ele>27.0</ele><time>2026-04-08T16:43:37Z</time></trkpt><trkpt lat="45.051564696463146" lon="10.203042906396396"><ele>27.166666666666668</ele><time>2026-04-08T16:43:38Z</time></trkpt><trkpt lat="45.051579310083945" lon="10.202923484069998"><ele>27.333333333333336</ele><time>2026-04-08T16:43:39Z</time></trkpt><trkpt lat="45.051593626699386" lon="10.20280648895931"><ele>27.5</ele><time>2026-04-08T16:43:40Z</time></trkpt><trkpt lat="45.05160751940659" lon="10.202686852137907"><ele>27.666666666666668</ele><time>2026-04-08T16:43:41Z</time></trkpt><trkpt lat="45.05162036376121" lon="10.202567051676725"><ele>27.833333333333336</ele><time>2026-04-08T16:43:42Z</time></trkpt><trkpt lat="45.051632843639005" lon="10.202445740406736"><ele>28.0</ele><time>2026-04-08T16:43:43Z</time></trkpt><trkpt lat="45.051643120423414" lon="10.202324031484148"><ele>28.333333333333336</ele><time>2026-04-08T16:43:44Z</time></trkpt><trkpt lat="45.05164991223244" lon="10.202201936273573"><ele>28.666666666666668</ele><time>2026-04-08T16:43:45Z</time></trkpt><trkpt lat="45.051638434935846" lon="10.202080672767703"><ele>29.0</ele><time>2026-04-08T16:43:46Z</time></trkpt><trkpt lat="45.05164308219687" lon="10.201959157395402"><ele>29.333333333333336</ele><time>2026-04-08T16:43:47Z</time></trkpt><trkpt lat="45.051644785496094" lon="10.201839364227306"><ele>29.666666666666668</ele><time>2026-04-08T16:43:48Z</time></trkpt><trkpt lat="45.05164248451258" lon="10.20171917918908"><ele>30.0</ele><time>2026-04-08T16:43:49Z</time></trkpt><trkpt lat="45.05163892766513" lon="10.201599101400076"><ele>30.0</ele><time>2026-04-08T16:43:50Z</time></trkpt><trkpt lat="45.05163398463593" lon="10.201479123589822"><ele>30.0</ele><time>2026-04-08T16:43:51Z</time></trkpt><trkpt lat="45.051629587383175" lon="10.20135795033808"><ele>30.0</ele><time>2026-04-08T16:43:52Z</time></trkpt><trkpt lat="45.051622133303646" lon="10.201238566782425"><ele>30.0</ele><time>2026-04-08T16:43:53Z</time></trkpt><trkpt lat="45.051614478376756" lon="10.201119667607909"><ele>30.0</ele><time>2026-04-08T16:43:54Z</time></trkpt><trkpt lat="45.05160535170194" lon="10.200999218650745"><ele>30.0</ele><time>2026-04-08T16:43:55Z</time></trkpt><trkpt lat="45.05159382032138" lon="10.200879465492028"><ele>29.666666666666668</ele><time>2026-04-08T16:43:56Z</time></trkpt><trkpt lat="45.05157961393049" lon="10.200760089757358"><ele>29.333333333333336</ele><time>2026-04-08T16:43:57Z</time></trkpt><trkpt lat="45.05156503145515" lon="10.200642585381122"><ele>29.0</ele><time>2026-04-08T16:43:58Z</time></trkpt><trkpt lat="45.05154676300659" lon="10.200524473438048"><ele>28.666666666666668</ele><time>2026-04-08T16:43:59Z</time></trkpt><trkpt lat="45.05152423725384" lon="10.200409300156277"><ele>28.333333333333336</ele><time>2026-04-08T16:44:00Z</time></trkpt><trkpt lat="45.05149446011635" lon="10.200295066881663"><ele>28.0</ele><time>2026-04-08T16:44:01Z</time></trkpt><trkpt lat="45.051463690984285" lon="10.200182371411335"><ele>28.000000000000004</ele><time>2026-04-08T16:44:02Z</time></trkpt><trkpt lat="45.05143113488094" lon="10.200072573647239"><ele>28.0</ele><time>2026-04-08T16:44:03Z</time></trkpt><trkpt lat="45.051395896300335" lon="10.199962166957791"><ele>28.0</ele><time>2026-04-08T16:44:04Z</time></trkpt><trkpt lat="45.051356843414354" lon="10.199855922688453"><ele>28.0</ele><time>2026-04-08T16:44:05Z</time></trkpt><trkpt lat="45.05131753029157" lon="10.199749474805055"><ele>28.000000000000004</ele><time>2026-04-08T16:44:05.999Z</time></trkpt><trkpt lat="45.05127713317683" lon="10.199643725246949"><ele>28.0</ele><time>2026-04-08T16:44:06.999Z</time></trkpt><trkpt lat="45.05124252927046" lon="10.199536782789222"><ele>28.166666666666668</ele><time>2026-04-08T16:44:07.999Z</time></trkpt><trkpt lat="45.05120602597144" lon="10.199424617603386"><ele>28.333333333333336</ele><time>2026-04-08T16:44:08.999Z</time></trkpt><trkpt lat="45.05116972395289" lon="10.199316069612966"><ele>28.5</ele><time>2026-04-08T16:44:09.999Z</time></trkpt><trkpt lat="45.051132078714836" lon="10.199207929485384"><ele>28.666666666666664</ele><time>2026-04-08T16:44:10.999Z</time></trkpt><trkpt lat="45.05109621380548" lon="10.199099143641515"><ele>28.833333333333332</ele><time>2026-04-08T16:44:11.999Z</time></trkpt><trkpt lat="45.05105650956053" lon="10.198995137523163"><ele>29.0</ele><time>2026-04-08T16:44:12.999Z</time></trkpt><trkpt lat="45.0510198728204" lon="10.198891196066068"><ele>28.666666666666664</ele><time>2026-04-08T16:44:13.999Z</time></trkpt><trkpt lat="45.05098389363978" lon="10.198785216243508"><ele>28.333333333333332</ele><time>2026-04-08T16:44:14.999Z</time></trkpt><trkpt lat="45.050945093929165" lon="10.198679656362795"><ele>28.0</ele><time>2026-04-08T16:44:15.999Z</time></trkpt><trkpt lat="45.050908452093005" lon="10.198572714475704"><ele>27.666666666666664</ele><time>2026-04-08T16:44:16.999Z</time></trkpt><trkpt lat="45.05087233370967" lon="10.198467659303928"><ele>27.333333333333332</ele><time>2026-04-08T16:44:17.999Z</time></trkpt><trkpt lat="45.05083599499101" lon="10.198359259435062"><ele>27.0</ele><time>2026-04-08T16:44:18.999Z</time></trkpt><trkpt lat="45.05080078668054" lon="10.19825095052863"><ele>27.166666666666668</ele><time>2026-04-08T16:44:19.999Z</time></trkpt><trkpt lat="45.05076444040896" lon="10.198142897290936"><ele>27.333333333333336</ele><time>2026-04-08T16:44:20.999Z</time></trkpt><trkpt lat="45.050729266226476" lon="10.198034158642281"><ele>27.5</ele><time>2026-04-08T16:44:21.999Z</time></trkpt><trkpt lat="45.050694282992986" lon="10.197925880690326"><ele>27.666666666666668</ele><time>2026-04-08T16:44:22.999Z</time></trkpt><trkpt lat="45.050659011633954" lon="10.197818340016793"><ele>27.833333333333336</ele><time>2026-04-08T16:44:23.999Z</time></trkpt><trkpt lat="45.05062208923389" lon="10.19771209497903"><ele>28.0</ele><time>2026-04-08T16:44:24.999Z</time></trkpt><trkpt lat="45.05058731268416" lon="10.197604716685943"><ele>28.000000000000004</ele><time>2026-04-08T16:44:25.999Z</time></trkpt><trkpt lat="45.050574686319294" lon="10.197486751654749"><ele>28.0</ele><time>2026-04-08T16:44:26.999Z</time></trkpt><trkpt lat="45.05056271286844" lon="10.197375363967751"><ele>28.0</ele><time>2026-04-08T16:44:27.999Z</time></trkpt><trkpt lat="45.05056253709929" lon="10.197262277758977"><ele>28.0</ele><time>2026-04-08T16:44:28.999Z</time></trkpt><trkpt lat="45.05057132056719" lon="10.197146038794584"><ele>28.000000000000004</ele><time>2026-04-08T16:44:29.999Z</time></trkpt><trkpt lat="45.05058707556219" lon="10.19703347031391"><ele>28.0</ele><time>2026-04-08T16:44:30.999Z</time></trkpt><trkpt lat="45.05060728237628" lon="10.196920114875425"><ele>28.000000000000004</ele><time>2026-04-08T16:44:31.999Z</time></trkpt><trkpt lat="45.05063105035048" lon="10.196807251476088"><ele>28.0</ele><time>2026-04-08T16:44:32.999Z</time></trkpt><trkpt lat="45.05065480133175" lon="10.196696216265815"><ele>28.0</ele><time>2026-04-08T16:44:33.999Z</time></trkpt><trkpt lat="45.05067566931671" lon="10.196583896876062"><ele>28.0</ele><time>2026-04-08T16:44:34.999Z</time></trkpt><trkpt lat="45.050694000125645" lon="10.196478525397474"><ele>28.000000000000004</ele><time>2026-04-08T16:44:35.999Z</time></trkpt><trkpt lat="45.05070975152104" lon="10.196376307599575"><ele>28.0</ele><time>2026-04-08T16:44:36.999Z</time></trkpt><trkpt lat="45.05072324290777" lon="10.1962862767127"><ele>28.0</ele><time>2026-04-08T16:44:37.999Z</time></trkpt><trkpt lat="45.05053889712713" lon="10.196136881451789"><ele>28.0</ele><time>2026-04-08T16:44:39.999Z</time></trkpt><trkpt lat="45.05046007127547" lon="10.196099724041185"><ele>28.0</ele><time>2026-04-08T16:44:40.999Z</time></trkpt><trkpt lat="45.05038274083616" lon="10.196062231502854"><ele>28.0</ele><time>2026-04-08T16:44:41.999Z</time></trkpt><trkpt lat="45.050309724905574" lon="10.196019053074377"><ele>28.000000000000004</ele><time>2026-04-08T16:44:42.999Z</time></trkpt><trkpt lat="45.050233809926524" lon="10.195972969282648"><ele>28.0</ele><time>2026-04-08T16:44:43.999Z</time></trkpt><trkpt lat="45.05015908379924" lon="10.195928445064187"><ele>28.0</ele><time>2026-04-08T16:44:44.999Z</time></trkpt><trkpt lat="45.0500859036425" lon="10.195882727225671"><ele>28.0</ele><time>2026-04-08T16:44:45.999Z</time></trkpt><trkpt lat="45.05001266732219" lon="10.195831713458618"><ele>28.000000000000004</ele><time>2026-04-08T16:44:46.999Z</time></trkpt><trkpt lat="45.04993974931607" lon="10.195776753402964"><ele>28.0</ele><time>2026-04-08T16:44:47.999Z</time></trkpt><trkpt lat="45.04986716560841" lon="10.195719480628586"><ele>28.333333333333336</ele><time>2026-04-08T16:44:48.999Z</time></trkpt><trkpt lat="45.04979321484251" lon="10.19565982427294"><ele>28.666666666666668</ele><time>2026-04-08T16:44:49.999Z</time></trkpt><trkpt lat="45.04972184294077" lon="10.19559779080608"><ele>29.0</ele><time>2026-04-08T16:44:50.999Z</time></trkpt><trkpt lat="45.049652294310576" lon="10.195533258111881"><ele>29.333333333333336</ele><time>2026-04-08T16:44:51.999Z</time></trkpt><trkpt lat="45.04958247725057" lon="10.195468949638006"><ele>29.666666666666668</ele><time>2026-04-08T16:44:52.999Z</time></trkpt><trkpt lat="45.04950995333035" lon="10.195408000799924"><ele>30.0</ele><time>2026-04-08T16:44:53.999Z</time></trkpt><trkpt lat="45.04943973257358" lon="10.195348413741536"><ele>30.0</ele><time>2026-04-08T16:44:54.999Z</time></trkpt><trkpt lat="45.049366650198856" lon="10.195288535257994"><ele>30.0</ele><time>2026-04-08T16:44:55.999Z</time></trkpt><trkpt lat="45.04929662132204" lon="10.195223698571306"><ele>30.0</ele><time>2026-04-08T16:44:56.999Z</time></trkpt><trkpt lat="45.04922922450783" lon="10.195155811704057"><ele>30.0</ele><time>2026-04-08T16:44:57.999Z</time></trkpt><trkpt lat="45.04916120222966" lon="10.195087487938496"><ele>30.0</ele><time>2026-04-08T16:44:58.999Z</time></trkpt><trkpt lat="45.049092757855156" lon="10.195016605702802"><ele>30.0</ele><time>2026-04-08T16:44:59.998Z</time></trkpt><trkpt lat="45.04902819117336" lon="10.19493923516098"><ele>29.666666666666668</ele><time>2026-04-08T16:45:00.998Z</time></trkpt><trkpt lat="45.04898212691445" lon="10.194839376400841"><ele>29.333333333333336</ele><time>2026-04-08T16:45:01.998Z</time></trkpt><trkpt lat="45.04898685203729" lon="10.19470869452526"><ele>29.0</ele><time>2026-04-08T16:45:02.998Z</time></trkpt><trkpt lat="45.0489831323746" lon="10.194592649119201"><ele>28.666666666666668</ele><time>2026-04-08T16:45:03.998Z</time></trkpt><trkpt lat="45.048977299347676" lon="10.194474221609271"><ele>28.333333333333336</ele><time>2026-04-08T16:45:04.998Z</time></trkpt><trkpt lat="45.04895374790699" lon="10.19435566095065"><ele>28.0</ele><time>2026-04-08T16:45:05.998Z</time></trkpt><trkpt lat="45.04895871579666" lon="10.194233344897567"><ele>27.833333333333336</ele><time>2026-04-08T16:45:06.998Z</time></trkpt><trkpt lat="45.048922603445114" lon="10.194120626189825"><ele>27.666666666666668</ele><time>2026-04-08T16:45:07.998Z</time></trkpt><trkpt lat="45.0488990761606" lon="10.194006082676966"><ele>27.5</ele><time>2026-04-08T16:45:08.998Z</time></trkpt><trkpt lat="45.04886178687694" lon="10.193897729792727"><ele>27.333333333333336</ele><time>2026-04-08T16:45:09.998Z</time></trkpt><trkpt lat="45.048804744110086" lon="10.19380489779307"><ele>27.166666666666668</ele><time>2026-04-08T16:45:10.998Z</time></trkpt><trkpt lat="45.04872899959415" lon="10.193739207805319"><ele>27.0</ele><time>2026-04-08T16:45:11.998Z</time></trkpt><trkpt lat="45.04864598911529" lon="10.193694329445684"><ele>27.0</ele><time>2026-04-08T16:45:12.998Z</time></trkpt><trkpt lat="45.04856021424527" lon="10.193678020087994"><ele>27.0</ele><time>2026-04-08T16:45:13.998Z</time></trkpt><trkpt lat="45.0484757031416" lon="10.193670498707244"><ele>27.0</ele><time>2026-04-08T16:45:14.998Z</time></trkpt><trkpt lat="45.04839109828662" lon="10.19367960796639"><ele>27.0</ele><time>2026-04-08T16:45:15.998Z</time></trkpt><trkpt lat="45.048307914108555" lon="10.193690582930136"><ele>27.0</ele><time>2026-04-08T16:45:16.998Z</time></trkpt><trkpt lat="45.048224903933956" lon="10.193703651566242"><ele>27.0</ele><time>2026-04-08T16:45:17.998Z</time></trkpt><trkpt lat="45.048141115929035" lon="10.193714418678697"><ele>27.166666666666668</ele><time>2026-04-08T16:45:18.998Z</time></trkpt><trkpt lat="45.0480577886062" lon="10.193722590069509"><ele>27.333333333333336</ele><time>2026-04-08T16:45:19.998Z</time></trkpt><trkpt lat="45.047976251681646" lon="10.193726992195769"><ele>27.5</ele><time>2026-04-08T16:45:20.998Z</time></trkpt><trkpt lat="45.04789370512009" lon="10.193724098389623"><ele>27.666666666666668</ele><time>2026-04-08T16:45:21.998Z</time></trkpt><trkpt lat="45.04781104738008" lon="10.193707216345274"><ele>27.833333333333336</ele><time>2026-04-08T16:45:22.998Z</time></trkpt><trkpt lat="45.0477372008583" lon="10.19365021654395"><ele>28.0</ele><time>2026-04-08T16:45:23.998Z</time></trkpt><trkpt lat="45.04765962339732" lon="10.193603915904868"><ele>28.000000000000004</ele><time>2026-04-08T16:45:24.998Z</time></trkpt><trkpt lat="45.04758408110164" lon="10.193555101793578"><ele>28.0</ele><time>2026-04-08T16:45:25.998Z</time></trkpt><trkpt lat="45.04750708645614" lon="10.193506821444826"><ele>28.0</ele><time>2026-04-08T16:45:26.998Z</time></trkpt><trkpt lat="45.047421704557145" lon="10.19348038869256"><ele>28.0</ele><time>2026-04-08T16:45:27.998Z</time></trkpt><trkpt lat="45.0473430743301" lon="10.19343966445536"><ele>28.000000000000004</ele><time>2026-04-08T16:45:28.998Z</time></trkpt><trkpt lat="45.04726368987561" lon="10.193402366881541"><ele>28.0</ele><time>2026-04-08T16:45:30Z</time></trkpt><trkpt lat="45.04718336683007" lon="10.193366651004645"><ele>28.333333333333336</ele><time>2026-04-08T16:45:31Z</time></trkpt><trkpt lat="45.047102659742755" lon="10.193332190969942"><ele>28.666666666666668</ele><time>2026-04-08T16:45:32Z</time></trkpt><trkpt lat="45.04702119233416" lon="10.19330470896241"><ele>29.0</ele><time>2026-04-08T16:45:33Z</time></trkpt><trkpt lat="45.046936566546776" lon="10.193285562953818"><ele>29.333333333333336</ele><time>2026-04-08T16:45:34Z</time></trkpt><trkpt lat="45.046852518039515" lon="10.193268600270796"><ele>29.666666666666668</ele><time>2026-04-08T16:45:35Z</time></trkpt><trkpt lat="45.04676761624535" lon="10.193264070784343"><ele>30.0</ele><time>2026-04-08T16:45:36Z</time></trkpt><trkpt lat="45.04668191864528" lon="10.193270302848184"><ele>30.0</ele><time>2026-04-08T16:45:37Z</time></trkpt><trkpt lat="45.04659822461595" lon="10.19327731081201"><ele>30.0</ele><time>2026-04-08T16:45:38Z</time></trkpt><trkpt lat="45.046514042963906" lon="10.193273412104471"><ele>30.0</ele><time>2026-04-08T16:45:39Z</time></trkpt><trkpt lat="45.04642920251508" lon="10.193258100659186"><ele>30.0</ele><time>2026-04-08T16:45:40Z</time></trkpt><trkpt lat="45.046344528550414" lon="10.193228834795311"><ele>30.0</ele><time>2026-04-08T16:45:41Z</time></trkpt><trkpt lat="45.046265267635626" lon="10.193186526001899"><ele>30.0</ele><time>2026-04-08T16:45:42Z</time></trkpt><trkpt lat="45.04619179778513" lon="10.193128664880494"><ele>30.0</ele><time>2026-04-08T16:45:43Z</time></trkpt><trkpt lat="45.046122632343234" lon="10.193055459753097"><ele>30.0</ele><time>2026-04-08T16:45:44Z</time></trkpt><trkpt lat="45.04605348605903" lon="10.192986238011423"><ele>30.0</ele><time>2026-04-08T16:45:45Z</time></trkpt><trkpt lat="45.045983486768385" lon="10.192923320734549"><ele>30.0</ele><time>2026-04-08T16:45:46Z</time></trkpt><trkpt lat="45.04591291368472" lon="10.192862489588231"><ele>30.0</ele><time>2026-04-08T16:45:47Z</time></trkpt><trkpt lat="45.0458433083529" lon="10.192797165883992"><ele>30.0</ele><time>2026-04-08T16:45:48Z</time></trkpt><trkpt lat="45.04577197547449" lon="10.192737237896827"><ele>30.0</ele><time>2026-04-08T16:45:49Z</time></trkpt><trkpt lat="45.04570192458022" lon="10.192673060588323"><ele>30.0</ele><time>2026-04-08T16:45:50Z</time></trkpt><trkpt lat="45.04563355529477" lon="10.192606270403957"><ele>30.0</ele><time>2026-04-08T16:45:51Z</time></trkpt><trkpt lat="45.045566143792314" lon="10.192540609712632"><ele>30.0</ele><time>2026-04-08T16:45:52Z</time></trkpt><trkpt lat="45.045497098833685" lon="10.192471985867172"><ele>30.0</ele><time>2026-04-08T16:45:53Z</time></trkpt><trkpt lat="45.04542911864157" lon="10.19240530541515"><ele>30.0</ele><time>2026-04-08T16:45:54Z</time></trkpt><trkpt lat="45.04536282072393" lon="10.19233603911584"><ele>30.0</ele><time>2026-04-08T16:45:55Z</time></trkpt><trkpt lat="45.0452961314378" lon="10.192265927400967"><ele>30.0</ele><time>2026-04-08T16:45:56Z</time></trkpt><trkpt lat="45.04522951638392" lon="10.192198702561626"><ele>30.0</ele><time>2026-04-08T16:45:57Z</time></trkpt><trkpt lat="45.04516416410765" lon="10.19213150475195"><ele>30.0</ele><time>2026-04-08T16:45:58Z</time></trkpt><trkpt lat="45.04509748560374" lon="10.19206298176781"><ele>30.0</ele><time>2026-04-08T16:45:59Z</time></trkpt><trkpt lat="45.04503020204111" lon="10.191993754165216"><ele>30.0</ele><time>2026-04-08T16:46:00Z</time></trkpt><trkpt lat="45.04496237698051" lon="10.191925245851717"><ele>30.0</ele><time>2026-04-08T16:46:01Z</time></trkpt><trkpt lat="45.04489535061222" lon="10.191858124362575"><ele>30.0</ele><time>2026-04-08T16:46:02Z</time></trkpt><trkpt lat="45.04482792984733" lon="10.191791016328336"><ele>30.0</ele><time>2026-04-08T16:46:03Z</time></trkpt><trkpt lat="45.04476144244977" lon="10.191722973891816"><ele>30.0</ele><time>2026-04-08T16:46:04Z</time></trkpt><trkpt lat="45.04469348342605" lon="10.191656230601886"><ele>30.0</ele><time>2026-04-08T16:46:05Z</time></trkpt><trkpt lat="45.04462356000201" lon="10.191592802688932"><ele>30.0</ele><time>2026-04-08T16:46:06Z</time></trkpt><trkpt lat="45.04455454258721" lon="10.191526033108412"><ele>29.833333333333332</ele><time>2026-04-08T16:46:07Z</time></trkpt><trkpt lat="45.04448679066795" lon="10.191460578940736"><ele>29.666666666666664</ele><time>2026-04-08T16:46:08Z</time></trkpt><trkpt lat="45.044419244178215" lon="10.191395178288397"><ele>29.5</ele><time>2026-04-08T16:46:09Z</time></trkpt><trkpt lat="45.04434974013532" lon="10.191329609523562"><ele>29.333333333333332</ele><time>2026-04-08T16:46:09.999Z</time></trkpt><trkpt lat="45.044280153433256" lon="10.19126730345854"><ele>29.166666666666664</ele><time>2026-04-08T16:46:10.999Z</time></trkpt><trkpt lat="45.04421011685561" lon="10.19120418751211"><ele>29.0</ele><time>2026-04-08T16:46:11.999Z</time></trkpt><trkpt lat="45.04414212842087" lon="10.191138725687846"><ele>29.333333333333332</ele><time>2026-04-08T16:46:12.999Z</time></trkpt><trkpt lat="45.044074208666004" lon="10.191073790122351"><ele>29.666666666666664</ele><time>2026-04-08T16:46:13.999Z</time></trkpt><trkpt lat="45.04400463763742" lon="10.191009527445562"><ele>30.0</ele><time>2026-04-08T16:46:14.999Z</time></trkpt><trkpt lat="45.04393535962057" lon="10.190947182398427"><ele>30.333333333333336</ele><time>2026-04-08T16:46:15.999Z</time></trkpt><trkpt lat="45.04386465373282" lon="10.190885373457883"><ele>30.666666666666668</ele><time>2026-04-08T16:46:16.999Z</time></trkpt><trkpt lat="45.04379483280129" lon="10.19082668685119"><ele>31.0</ele><time>2026-04-08T16:46:17.999Z</time></trkpt><trkpt lat="45.04372194578285" lon="10.190772289114001"><ele>31.000000000000004</ele><time>2026-04-08T16:46:18.999Z</time></trkpt><trkpt lat="45.04364982135022" lon="10.190720035934673"><ele>31.0</ele><time>2026-04-08T16:46:19.999Z</time></trkpt><trkpt lat="45.0435787621961" lon="10.190663276969183"><ele>31.0</ele><time>2026-04-08T16:46:20.999Z</time></trkpt><trkpt lat="45.04350699048495" lon="10.190607922989946"><ele>31.0</ele><time>2026-04-08T16:46:21.999Z</time></trkpt><trkpt lat="45.04343287400016" lon="10.190560031494597"><ele>31.000000000000004</ele><time>2026-04-08T16:46:22.999Z</time></trkpt><trkpt lat="45.04335824973961" lon="10.190512813339"><ele>31.0</ele><time>2026-04-08T16:46:23.999Z</time></trkpt><trkpt lat="45.04328236203126" lon="10.190469533984526"><ele>31.166666666666668</ele><time>2026-04-08T16:46:24.999Z</time></trkpt><trkpt lat="45.04320376635149" lon="10.19043275571481"><ele>31.333333333333336</ele><time>2026-04-08T16:46:25.999Z</time></trkpt><trkpt lat="45.043126227047225" lon="10.19039441006422"><ele>31.5</ele><time>2026-04-08T16:46:26.999Z</time></trkpt><trkpt lat="45.043049260268674" lon="10.190356920600307"><ele>31.666666666666664</ele><time>2026-04-08T16:46:27.999Z</time></trkpt><trkpt lat="45.04297136599383" lon="10.190323901214347"><ele>31.833333333333332</ele><time>2026-04-08T16:46:28.999Z</time></trkpt><trkpt lat="45.042893285377986" lon="10.190296289540166"><ele>32.0</ele><time>2026-04-08T16:46:29.999Z</time></trkpt><trkpt lat="45.04281640413236" lon="10.190266478889852"><ele>31.999999999999996</ele><time>2026-04-08T16:46:30.999Z</time></trkpt><trkpt lat="45.04273344598281" lon="10.190240826835508"><ele>32.0</ele><time>2026-04-08T16:46:31.999Z</time></trkpt><trkpt lat="45.0426512742585" lon="10.19021998171354"><ele>32.0</ele><time>2026-04-08T16:46:32.999Z</time></trkpt><trkpt lat="45.04256904856753" lon="10.190193187462379"><ele>32.0</ele><time>2026-04-08T16:46:33.999Z</time></trkpt><trkpt lat="45.042488666842864" lon="10.190162143267315"><ele>31.999999999999996</ele><time>2026-04-08T16:46:34.999Z</time></trkpt><trkpt lat="45.042409669815086" lon="10.190132288842973"><ele>32.0</ele><time>2026-04-08T16:46:35.999Z</time></trkpt><trkpt lat="45.042329326894716" lon="10.190102738237433"><ele>31.999999999999996</ele><time>2026-04-08T16:46:36.999Z</time></trkpt><trkpt lat="45.04225054462213" lon="10.190063264083257"><ele>32.0</ele><time>2026-04-08T16:46:37.999Z</time></trkpt><trkpt lat="45.04217755616941" lon="10.190007379172085"><ele>32.0</ele><time>2026-04-08T16:46:38.999Z</time></trkpt><trkpt lat="45.042108902485325" lon="10.189937952420612"><ele>32.0</ele><time>2026-04-08T16:46:39.999Z</time></trkpt><trkpt lat="45.0420471309605" lon="10.189858265115005"><ele>31.999999999999996</ele><time>2026-04-08T16:46:40.999Z</time></trkpt><trkpt lat="45.04199648114323" lon="10.189764570523884"><ele>32.0</ele><time>2026-04-08T16:46:41.999Z</time></trkpt><trkpt lat="45.04195395611445" lon="10.189664060314795"><ele>31.999999999999996</ele><time>2026-04-08T16:46:42.999Z</time></trkpt><trkpt lat="45.041918602839424" lon="10.189556911190131"><ele>32.0</ele><time>2026-04-08T16:46:43.999Z</time></trkpt><trkpt lat="45.041882547917936" lon="10.189452741937991"><ele>32.0</ele><time>2026-04-08T16:46:44.999Z</time></trkpt><trkpt lat="45.04184438342757" lon="10.189347176176318"><ele>32.0</ele><time>2026-04-08T16:46:45.999Z</time></trkpt><trkpt lat="45.041804971751496" lon="10.18924424378772"><ele>31.999999999999996</ele><time>2026-04-08T16:46:46.999Z</time></trkpt><trkpt lat="45.04176783882222" lon="10.189139981142274"><ele>32.0</ele><time>2026-04-08T16:46:47.999Z</time></trkpt><trkpt lat="45.041734277339" lon="10.18903076430254"><ele>31.166666666666664</ele><time>2026-04-08T16:46:48.999Z</time></trkpt><trkpt lat="45.04169971061578" lon="10.188921883076103"><ele>30.333333333333332</ele><time>2026-04-08T16:46:49.999Z</time></trkpt><trkpt lat="45.041671863804694" lon="10.18881123334918"><ele>29.5</ele><time>2026-04-08T16:46:50.999Z</time></trkpt><trkpt lat="45.041654346847864" lon="10.188694202822605"><ele>28.666666666666664</ele><time>2026-04-08T16:46:51.999Z</time></trkpt><trkpt lat="45.04163944116105" lon="10.188574226161455"><ele>27.833333333333332</ele><time>2026-04-08T16:46:52.999Z</time></trkpt><trkpt lat="45.04163185452798" lon="10.188454871723515"><ele>27.0</ele><time>2026-04-08T16:46:53.999Z</time></trkpt><trkpt lat="45.041629882088955" lon="10.188334850619185"><ele>27.0</ele><time>2026-04-08T16:46:54.999Z</time></trkpt><trkpt lat="45.04163084781669" lon="10.188216491952572"><ele>27.0</ele><time>2026-04-08T16:46:55.999Z</time></trkpt><trkpt lat="45.04163003443387" lon="10.18809621646038"><ele>27.0</ele><time>2026-04-08T16:46:56.999Z</time></trkpt><trkpt lat="45.04162791663559" lon="10.187977025687198"><ele>27.0</ele><time>2026-04-08T16:46:57.999Z</time></trkpt><trkpt lat="45.04162222412448" lon="10.18786087939954"><ele>27.0</ele><time>2026-04-08T16:46:58.999Z</time></trkpt><trkpt lat="45.04161305622233" lon="10.187747556877477"><ele>27.0</ele><time>2026-04-08T16:46:59.999Z</time></trkpt><trkpt lat="45.04160554529507" lon="10.187636027175316"><ele>27.0</ele><time>2026-04-08T16:47:00.999Z</time></trkpt><trkpt lat="45.04159002104074" lon="10.18751972219127"><ele>27.0</ele><time>2026-04-08T16:47:01.999Z</time></trkpt><trkpt lat="45.04156908610397" lon="10.187397346466671"><ele>27.0</ele><time>2026-04-08T16:47:02.998Z</time></trkpt><trkpt lat="45.041545394485276" lon="10.187277777907553"><ele>27.0</ele><time>2026-04-08T16:47:03.998Z</time></trkpt><trkpt lat="45.04152204997323" lon="10.187160198439813"><ele>27.0</ele><time>2026-04-08T16:47:04.998Z</time></trkpt><trkpt lat="45.041501998822525" lon="10.187044218338384"><ele>27.0</ele><time>2026-04-08T16:47:05.998Z</time></trkpt><trkpt lat="45.04148024737968" lon="10.18692953027905"><ele>27.333333333333332</ele><time>2026-04-08T16:47:06.998Z</time></trkpt><trkpt lat="45.04145861777381" lon="10.186810416595144"><ele>27.666666666666664</ele><time>2026-04-08T16:47:07.998Z</time></trkpt><trkpt lat="45.04144002059658" lon="10.186693481316631"><ele>28.0</ele><time>2026-04-08T16:47:08.998Z</time></trkpt><trkpt lat="45.04141663197958" lon="10.186575872515032"><ele>28.333333333333332</ele><time>2026-04-08T16:47:09.998Z</time></trkpt><trkpt lat="45.041396182995456" lon="10.186458842954645"><ele>28.666666666666664</ele><time>2026-04-08T16:47:10.998Z</time></trkpt><trkpt lat="45.04137663334948" lon="10.186342576109643"><ele>29.0</ele><time>2026-04-08T16:47:11.998Z</time></trkpt><trkpt lat="45.041360764469516" lon="10.186226213625275"><ele>28.999999999999996</ele><time>2026-04-08T16:47:12.998Z</time></trkpt><trkpt lat="45.041346284449844" lon="10.186106827815312"><ele>29.0</ele><time>2026-04-08T16:47:13.998Z</time></trkpt><trkpt lat="45.041337131544424" lon="10.185989215146337"><ele>29.0</ele><time>2026-04-08T16:47:14.998Z</time></trkpt><trkpt lat="45.04133493153255" lon="10.18586897067877"><ele>29.0</ele><time>2026-04-08T16:47:15.998Z</time></trkpt><trkpt lat="45.041334753932695" lon="10.185749890447331"><ele>28.999999999999996</ele><time>2026-04-08T16:47:16.998Z</time></trkpt><trkpt lat="45.0413383106632" lon="10.18563000155596"><ele>29.0</ele><time>2026-04-08T16:47:17.998Z</time></trkpt><trkpt lat="45.041350990528876" lon="10.185512851258354"><ele>28.833333333333332</ele><time>2026-04-08T16:47:18.998Z</time></trkpt><trkpt lat="45.041370080608" lon="10.185400762644942"><ele>28.666666666666664</ele><time>2026-04-08T16:47:19.998Z</time></trkpt><trkpt lat="45.041390894375915" lon="10.185284105733103"><ele>28.5</ele><time>2026-04-08T16:47:20.998Z</time></trkpt><trkpt lat="45.041417379238474" lon="10.185168773952679"><ele>28.333333333333336</ele><time>2026-04-08T16:47:21.998Z</time></trkpt><trkpt lat="45.041467875750214" lon="10.185069967366399"><ele>28.166666666666668</ele><time>2026-04-08T16:47:22.998Z</time></trkpt><trkpt lat="45.04150409548873" lon="10.18496172198769"><ele>28.0</ele><time>2026-04-08T16:47:23.998Z</time></trkpt><trkpt lat="45.04154266883195" lon="10.1848571299655"><ele>28.000000000000004</ele><time>2026-04-08T16:47:24.998Z</time></trkpt><trkpt lat="45.04158426739325" lon="10.184754193599131"><ele>28.0</ele><time>2026-04-08T16:47:25.998Z</time></trkpt><trkpt lat="45.04163156026235" lon="10.184657353857952"><ele>28.0</ele><time>2026-04-08T16:47:26.998Z</time></trkpt><trkpt lat="45.04168221487132" lon="10.184563026253224"><ele>28.0</ele><time>2026-04-08T16:47:27.998Z</time></trkpt><trkpt lat="45.041735067627066" lon="10.184472266874772"><ele>28.000000000000004</ele><time>2026-04-08T16:47:28.998Z</time></trkpt><trkpt lat="45.04177962142963" lon="10.184367934135537"><ele>28.0</ele><time>2026-04-08T16:47:29.998Z</time></trkpt><trkpt lat="45.041836923994715" lon="10.184280357642947"><ele>28.000000000000004</ele><time>2026-04-08T16:47:30.998Z</time></trkpt><trkpt lat="45.041906576327136" lon="10.184213126526396"><ele>28.0</ele><time>2026-04-08T16:47:31.998Z</time></trkpt><trkpt lat="45.04196450098259" lon="10.184130504955553"><ele>28.0</ele><time>2026-04-08T16:47:32.998Z</time></trkpt><trkpt lat="45.04201568745097" lon="10.184033678346472"><ele>28.0</ele><time>2026-04-08T16:47:33.998Z</time></trkpt><trkpt lat="45.042078122976505" lon="10.183951748348361"><ele>28.000000000000004</ele><time>2026-04-08T16:47:34.998Z</time></trkpt><trkpt lat="45.04213945245138" lon="10.183871048775018"><ele>28.0</ele><time>2026-04-08T16:47:36Z</time></trkpt><trkpt lat="45.042204903157185" lon="10.18379584916543"><ele>28.166666666666668</ele><time>2026-04-08T16:47:37Z</time></trkpt><trkpt lat="45.04227191269201" lon="10.183724821064898"><ele>28.333333333333336</ele><time>2026-04-08T16:47:38Z</time></trkpt><trkpt lat="45.04233879675198" lon="10.183660592619159"><ele>28.5</ele><time>2026-04-08T16:47:39Z</time></trkpt><trkpt lat="45.04241286967138" lon="10.183605026789106"><ele>28.666666666666664</ele><time>2026-04-08T16:47:40Z</time></trkpt><trkpt lat="45.04248975917351" lon="10.183559039929703"><ele>28.833333333333332</ele><time>2026-04-08T16:47:41Z</time></trkpt><trkpt lat="45.04256853568483" lon="10.183513260156113"><ele>29.0</ele><time>2026-04-08T16:47:42Z</time></trkpt><trkpt lat="45.042643795751395" lon="10.183470681735534"><ele>28.999999999999996</ele><time>2026-04-08T16:47:43Z</time></trkpt><trkpt lat="45.042720492041695" lon="10.183428473156852"><ele>29.0</ele><time>2026-04-08T16:47:44Z</time></trkpt><trkpt lat="45.042801103482695" lon="10.183393749622693"><ele>29.0</ele><time>2026-04-08T16:47:45Z</time></trkpt><trkpt lat="45.042879815598425" lon="10.183361036181735"><ele>29.0</ele><time>2026-04-08T16:47:46Z</time></trkpt><trkpt lat="45.04296037068178" lon="10.183326530459556"><ele>28.999999999999996</ele><time>2026-04-08T16:47:47Z</time></trkpt><trkpt lat="45.0430420454133" lon="10.183294386137442"><ele>29.0</ele><time>2026-04-08T16:47:48Z</time></trkpt><trkpt lat="45.04312467190811" lon="10.183264301580357"><ele>29.0</ele><time>2026-04-08T16:47:49Z</time></trkpt><trkpt lat="45.043207859721875" lon="10.18322831456791"><ele>29.0</ele><time>2026-04-08T16:47:50Z</time></trkpt><trkpt lat="45.043293764156644" lon="10.183191858406236"><ele>29.0</ele><time>2026-04-08T16:47:51Z</time></trkpt><trkpt lat="45.04338297534187" lon="10.183153167713929"><ele>29.0</ele><time>2026-04-08T16:47:52Z</time></trkpt><trkpt lat="45.04347472936226" lon="10.183117952263876"><ele>29.0</ele><time>2026-04-08T16:47:53Z</time></trkpt><trkpt lat="45.04356763760908" lon="10.183081433017557"><ele>29.2</ele><time>2026-04-08T16:47:54Z</time></trkpt><trkpt lat="45.043662580576616" lon="10.183040020654746"><ele>29.4</ele><time>2026-04-08T16:47:55Z</time></trkpt><trkpt lat="45.043754285873376" lon="10.183001415952887"><ele>29.6</ele><time>2026-04-08T16:47:56Z</time></trkpt><trkpt lat="45.04384478238167" lon="10.18296291061019"><ele>29.8</ele><time>2026-04-08T16:47:57Z</time></trkpt><trkpt lat="45.04393114139939" lon="10.182925526482041"><ele>30.0</ele><time>2026-04-08T16:47:58Z</time></trkpt><trkpt lat="45.044014668490874" lon="10.182888229097426"><ele>30.0</ele><time>2026-04-08T16:47:59Z</time></trkpt><trkpt lat="45.0440938144494" lon="10.18284088880207"><ele>30.0</ele><time>2026-04-08T16:48:00Z</time></trkpt><trkpt lat="45.04417644532059" lon="10.1828210721292"><ele>30.0</ele><time>2026-04-08T16:48:01Z</time></trkpt><trkpt lat="45.04425355523789" lon="10.18277568344403"><ele>30.0</ele><time>2026-04-08T16:48:02Z</time></trkpt><trkpt lat="45.04432859794115" lon="10.182743706972637"><ele>30.0</ele><time>2026-04-08T16:48:03Z</time></trkpt><trkpt lat="45.04440234131533" lon="10.18271215913507"><ele>30.0</ele><time>2026-04-08T16:48:04Z</time></trkpt><trkpt lat="45.04447403984363" lon="10.182682310932263"><ele>29.857142857142858</ele><time>2026-04-08T16:48:05Z</time></trkpt><trkpt lat="45.04454823197873" lon="10.182652275736416"><ele>29.714285714285715</ele><time>2026-04-08T16:48:06Z</time></trkpt><trkpt lat="45.04461547384016" lon="10.18261559843392"><ele>29.571428571428573</ele><time>2026-04-08T16:48:07Z</time></trkpt><trkpt lat="45.04468533815231" lon="10.182583736384908"><ele>29.42857142857143</ele><time>2026-04-08T16:48:08Z</time></trkpt><trkpt lat="45.04475409100884" lon="10.182568069386578"><ele>29.285714285714285</ele><time>2026-04-08T16:48:09Z</time></trkpt><trkpt lat="45.04481959611867" lon="10.182542460917292"><ele>29.142857142857146</ele><time>2026-04-08T16:48:10Z</time></trkpt><trkpt lat="45.044881888100235" lon="10.182518108763555"><ele>29.000000000000004</ele><time>2026-04-08T16:48:11Z</time></trkpt><trkpt lat="45.04489136062571" lon="10.182244795519498"><ele>29.000000000000004</ele><time>2026-04-08T16:48:13Z</time></trkpt><trkpt lat="45.04492288333323" lon="10.182154916815335"><ele>29.0</ele><time>2026-04-08T16:48:13.999Z</time></trkpt><trkpt lat="45.0449469413403" lon="10.182060963196006"><ele>29.000000000000004</ele><time>2026-04-08T16:48:14.999Z</time></trkpt><trkpt lat="45.04498560382673" lon="10.18197783254761"><ele>29.000000000000004</ele><time>2026-04-08T16:48:15.999Z</time></trkpt><trkpt lat="45.04504486697598" lon="10.181924311340547"><ele>29.0</ele><time>2026-04-08T16:48:16.999Z</time></trkpt><trkpt lat="45.0450991412885" lon="10.181859740566393"><ele>29.000000000000004</ele><time>2026-04-08T16:48:17.999Z</time></trkpt><trkpt lat="45.04514593328245" lon="10.181783522497193"><ele>29.000000000000004</ele><time>2026-04-08T16:48:18.999Z</time></trkpt><trkpt lat="45.04520027238298" lon="10.181720467993312"><ele>29.000000000000004</ele><time>2026-04-08T16:48:19.999Z</time></trkpt><trkpt lat="45.04525754782366" lon="10.181661176559304"><ele>29.0</ele><time>2026-04-08T16:48:20.999Z</time></trkpt><trkpt lat="45.04531289533621" lon="10.181601352172827"><ele>29.000000000000004</ele><time>2026-04-08T16:48:21.999Z</time></trkpt><trkpt lat="45.04536822786868" lon="10.181538714805374"><ele>29.000000000000004</ele><time>2026-04-08T16:48:22.999Z</time></trkpt><trkpt lat="45.04542220887558" lon="10.181477179393342"><ele>29.0</ele><time>2026-04-08T16:48:23.999Z</time></trkpt><trkpt lat="45.045479453278816" lon="10.181411214903843"><ele>29.000000000000004</ele><time>2026-04-08T16:48:24.999Z</time></trkpt><trkpt lat="45.04553618752028" lon="10.18134558094888"><ele>29.000000000000004</ele><time>2026-04-08T16:48:25.999Z</time></trkpt><trkpt lat="45.045596319920065" lon="10.181274096184815"><ele>28.999999999999996</ele><time>2026-04-08T16:48:26.999Z</time></trkpt><trkpt lat="45.045655335994375" lon="10.18120611532713"><ele>29.0</ele><time>2026-04-08T16:48:27.999Z</time></trkpt><trkpt lat="45.04571675281078" lon="10.18114598923336"><ele>29.0</ele><time>2026-04-08T16:48:28.999Z</time></trkpt><trkpt lat="45.045780946880896" lon="10.181085053035654"><ele>29.0</ele><time>2026-04-08T16:48:29.999Z</time></trkpt><trkpt lat="45.045847196603475" lon="10.181030445581545"><ele>28.999999999999996</ele><time>2026-04-08T16:48:30.999Z</time></trkpt><trkpt lat="45.0459161144003" lon="10.180978057220125"><ele>29.0</ele><time>2026-04-08T16:48:31.999Z</time></trkpt><trkpt lat="45.04598462695163" lon="10.180927183487084"><ele>28.999999999999996</ele><time>2026-04-08T16:48:32.999Z</time></trkpt><trkpt lat="45.04605478856003" lon="10.180876991813502"><ele>29.0</ele><time>2026-04-08T16:48:33.999Z</time></trkpt><trkpt lat="45.046125669287576" lon="10.180824542290546"><ele>29.0</ele><time>2026-04-08T16:48:34.999Z</time></trkpt><trkpt lat="45.04619590603948" lon="10.180772037880786"><ele>29.0</ele><time>2026-04-08T16:48:35.999Z</time></trkpt><trkpt lat="45.04626779987922" lon="10.180719754445894"><ele>28.999999999999996</ele><time>2026-04-08T16:48:36.999Z</time></trkpt><trkpt lat="45.04633840184482" lon="10.180670159728361"><ele>29.0</ele><time>2026-04-08T16:48:37.999Z</time></trkpt><trkpt lat="45.04641302756097" lon="10.180617921654905"><ele>29.166666666666664</ele><time>2026-04-08T16:48:38.999Z</time></trkpt><trkpt lat="45.04648339098085" lon="10.18056373410499"><ele>29.333333333333332</ele><time>2026-04-08T16:48:39.999Z</time></trkpt><trkpt lat="45.04655401331516" lon="10.18051108903267"><ele>29.5</ele><time>2026-04-08T16:48:40.999Z</time></trkpt><trkpt lat="45.046625916666834" lon="10.180456380777418"><ele>29.666666666666664</ele><time>2026-04-08T16:48:41.999Z</time></trkpt><trkpt lat="45.04669574429662" lon="10.180403788038399"><ele>29.833333333333332</ele><time>2026-04-08T16:48:42.999Z</time></trkpt><trkpt lat="45.04676669042706" lon="10.180350208242134"><ele>30.0</ele><time>2026-04-08T16:48:43.999Z</time></trkpt><trkpt lat="45.04683777090901" lon="10.180294596810759"><ele>30.0</ele><time>2026-04-08T16:48:44.999Z</time></trkpt><trkpt lat="45.04690660870276" lon="10.180238715227812"><ele>30.0</ele><time>2026-04-08T16:48:45.999Z</time></trkpt><trkpt lat="45.04697699075394" lon="10.18018132306181"><ele>30.0</ele><time>2026-04-08T16:48:46.999Z</time></trkpt><trkpt lat="45.047045049193116" lon="10.180123667056366"><ele>30.0</ele><time>2026-04-08T16:48:47.999Z</time></trkpt><trkpt lat="45.04711696066297" lon="10.180065762555067"><ele>30.0</ele><time>2026-04-08T16:48:48.999Z</time></trkpt><trkpt lat="45.04718813204873" lon="10.180008576441544"><ele>30.0</ele><time>2026-04-08T16:48:49.999Z</time></trkpt><trkpt lat="45.0472593741647" lon="10.17995279879954"><ele>30.0</ele><time>2026-04-08T16:48:50.999Z</time></trkpt><trkpt lat="45.047328063002816" lon="10.179894323849009"><ele>30.0</ele><time>2026-04-08T16:48:51.999Z</time></trkpt><trkpt lat="45.04739739264688" lon="10.179831162312693"><ele>30.0</ele><time>2026-04-08T16:48:52.999Z</time></trkpt><trkpt lat="45.04746498373003" lon="10.179771131836707"><ele>30.0</ele><time>2026-04-08T16:48:53.999Z</time></trkpt><trkpt lat="45.047534663955155" lon="10.179715471183547"><ele>30.0</ele><time>2026-04-08T16:48:54.999Z</time></trkpt><trkpt lat="45.04760550588944" lon="10.179661555696292"><ele>30.0</ele><time>2026-04-08T16:48:55.999Z</time></trkpt><trkpt lat="45.04767687642611" lon="10.179606937045069"><ele>30.166666666666668</ele><time>2026-04-08T16:48:56.999Z</time></trkpt><trkpt lat="45.047747357904676" lon="10.179554044880204"><ele>30.333333333333336</ele><time>2026-04-08T16:48:57.999Z</time></trkpt><trkpt lat="45.047819806423554" lon="10.179502448222669"><ele>30.5</ele><time>2026-04-08T16:48:58.999Z</time></trkpt><trkpt lat="45.047890711815185" lon="10.179452520174248"><ele>30.666666666666668</ele><time>2026-04-08T16:48:59.999Z</time></trkpt><trkpt lat="45.047962402700506" lon="10.179401243703529"><ele>30.833333333333336</ele><time>2026-04-08T16:49:00.999Z</time></trkpt><trkpt lat="45.04803496997254" lon="10.179345636791382"><ele>31.0</ele><time>2026-04-08T16:49:01.999Z</time></trkpt><trkpt lat="45.04810471066339" lon="10.179290946935119"><ele>31.000000000000004</ele><time>2026-04-08T16:49:02.999Z</time></trkpt><trkpt lat="45.04817798760347" lon="10.179239049323897"><ele>31.0</ele><time>2026-04-08T16:49:03.999Z</time></trkpt><trkpt lat="45.04825044024134" lon="10.179190163337811"><ele>31.0</ele><time>2026-04-08T16:49:04.999Z</time></trkpt><trkpt lat="45.048323028644546" lon="10.179141556752935"><ele>31.0</ele><time>2026-04-08T16:49:05.999Z</time></trkpt><trkpt lat="45.04840095715587" lon="10.17909801522598"><ele>31.000000000000004</ele><time>2026-04-08T16:49:06.999Z</time></trkpt><trkpt lat="45.048477039078115" lon="10.179057869787266"><ele>31.0</ele><time>2026-04-08T16:49:07.998Z</time></trkpt><trkpt lat="45.04855391282475" lon="10.17901972242971"><ele>31.166666666666668</ele><time>2026-04-08T16:49:08.998Z</time></trkpt><trkpt lat="45.04863141954309" lon="10.17898539539655"><ele>31.333333333333336</ele><time>2026-04-08T16:49:09.998Z</time></trkpt><trkpt lat="45.04871134793412" lon="10.178955674416889"><ele>31.5</ele><time>2026-04-08T16:49:10.998Z</time></trkpt><trkpt lat="45.04879086604075" lon="10.178930488846731"><ele>31.666666666666664</ele><time>2026-04-08T16:49:11.998Z</time></trkpt><trkpt lat="45.04886992159975" lon="10.178905333005535"><ele>31.833333333333332</ele><time>2026-04-08T16:49:12.998Z</time></trkpt><trkpt lat="45.0489509363614" lon="10.178880714440185"><ele>32.0</ele><time>2026-04-08T16:49:13.998Z</time></trkpt><trkpt lat="45.04903007568733" lon="10.17885595404511"><ele>31.999999999999996</ele><time>2026-04-08T16:49:14.998Z</time></trkpt><trkpt lat="45.049109035385825" lon="10.178828278473812"><ele>32.0</ele><time>2026-04-08T16:49:15.998Z</time></trkpt><trkpt lat="45.049187762464456" lon="10.178801548826401"><ele>32.0</ele><time>2026-04-08T16:49:16.998Z</time></trkpt><trkpt lat="45.04926648629877" lon="10.178774932086766"><ele>32.0</ele><time>2026-04-08T16:49:17.998Z</time></trkpt><trkpt lat="45.049346559279485" lon="10.178747847697979"><ele>31.999999999999996</ele><time>2026-04-08T16:49:18.998Z</time></trkpt><trkpt lat="45.04942693741334" lon="10.17872057161643"><ele>32.0</ele><time>2026-04-08T16:49:19.998Z</time></trkpt><trkpt lat="45.049507429686415" lon="10.178697299050983"><ele>31.833333333333332</ele><time>2026-04-08T16:49:20.998Z</time></trkpt><trkpt lat="45.049587419935875" lon="10.178671004237607"><ele>31.666666666666664</ele><time>2026-04-08T16:49:21.998Z</time></trkpt><trkpt lat="45.049664499384576" lon="10.17864179732196"><ele>31.5</ele><time>2026-04-08T16:49:22.998Z</time></trkpt><trkpt lat="45.04974306244237" lon="10.178613217992865"><ele>31.333333333333336</ele><time>2026-04-08T16:49:23.998Z</time></trkpt><trkpt lat="45.04982311801775" lon="10.17858848967474"><ele>31.166666666666668</ele><time>2026-04-08T16:49:24.998Z</time></trkpt><trkpt lat="45.04990415477832" lon="10.178560868382801"><ele>31.0</ele><time>2026-04-08T16:49:25.998Z</time></trkpt><trkpt lat="45.049981507135534" lon="10.178536165234398"><ele>31.000000000000004</ele><time>2026-04-08T16:49:26.998Z</time></trkpt><trkpt lat="45.0500626791315" lon="10.178510416734932"><ele>31.0</ele><time>2026-04-08T16:49:27.998Z</time></trkpt><trkpt lat="45.05014261450019" lon="10.178481750920463"><ele>31.0</ele><time>2026-04-08T16:49:28.998Z</time></trkpt><trkpt lat="45.050222374524466" lon="10.178453465579448"><ele>31.0</ele><time>2026-04-08T16:49:29.998Z</time></trkpt><trkpt lat="45.05030113917807" lon="10.178427780022476"><ele>31.000000000000004</ele><time>2026-04-08T16:49:30.998Z</time></trkpt><trkpt lat="45.05038004920107" lon="10.178401768372892"><ele>31.0</ele><time>2026-04-08T16:49:31.998Z</time></trkpt><trkpt lat="45.05046139630755" lon="10.178375578526524"><ele>31.000000000000004</ele><time>2026-04-08T16:49:32.998Z</time></trkpt><trkpt lat="45.05054445066425" lon="10.178347477444376"><ele>31.0</ele><time>2026-04-08T16:49:33.998Z</time></trkpt><trkpt lat="45.05062338841607" lon="10.17831993328359"><ele>31.0</ele><time>2026-04-08T16:49:34.998Z</time></trkpt><trkpt lat="45.05070199642591" lon="10.178293148640218"><ele>31.0</ele><time>2026-04-08T16:49:35.998Z</time></trkpt><trkpt lat="45.05078398166004" lon="10.178264871424906"><ele>31.000000000000004</ele><time>2026-04-08T16:49:36.998Z</time></trkpt><trkpt lat="45.05086122217924" lon="10.178234320752846"><ele>31.0</ele><time>2026-04-08T16:49:37.998Z</time></trkpt><trkpt lat="45.0509425054729" lon="10.178205654911237"><ele>30.666666666666668</ele><time>2026-04-08T16:49:38.998Z</time></trkpt><trkpt lat="45.05102183447457" lon="10.178177978261276"><ele>30.333333333333336</ele><time>2026-04-08T16:49:39.998Z</time></trkpt><trkpt lat="45.051102249337994" lon="10.178149470749881"><ele>30.0</ele><time>2026-04-08T16:49:40.998Z</time></trkpt><trkpt lat="45.051184435294545" lon="10.17812259135107"><ele>29.666666666666664</ele><time>2026-04-08T16:49:42Z</time></trkpt><trkpt lat="45.05126550334019" lon="10.178094338076209"><ele>29.333333333333332</ele><time>2026-04-08T16:49:43Z</time></trkpt><trkpt lat="45.05134496798612" lon="10.178065459327613"><ele>29.0</ele><time>2026-04-08T16:49:44Z</time></trkpt><trkpt lat="45.05142463484483" lon="10.178038442260782"><ele>28.999999999999996</ele><time>2026-04-08T16:49:45Z</time></trkpt><trkpt lat="45.05150542802298" lon="10.178012513611646"><ele>29.0</ele><time>2026-04-08T16:49:46Z</time></trkpt><trkpt lat="45.05158589849915" lon="10.177981078939801"><ele>29.0</ele><time>2026-04-08T16:49:47Z</time></trkpt><trkpt lat="45.05166653150073" lon="10.177952385082968"><ele>29.0</ele><time>2026-04-08T16:49:48Z</time></trkpt><trkpt lat="45.051747199938255" lon="10.177926356297197"><ele>28.999999999999996</ele><time>2026-04-08T16:49:49Z</time></trkpt><trkpt lat="45.0518276263036" lon="10.177895857579879"><ele>29.0</ele><time>2026-04-08T16:49:50Z</time></trkpt><trkpt lat="45.051907915518875" lon="10.177869781018252"><ele>28.999999999999996</ele><time>2026-04-08T16:49:51Z</time></trkpt><trkpt lat="45.051987051059655" lon="10.177843092215085"><ele>29.0</ele><time>2026-04-08T16:49:52Z</time></trkpt><trkpt lat="45.05206729991664" lon="10.177816541381452"><ele>29.0</ele><time>2026-04-08T16:49:53Z</time></trkpt><trkpt lat="45.05214934845824" lon="10.17779049263412"><ele>29.0</ele><time>2026-04-08T16:49:54Z</time></trkpt><trkpt lat="45.05222829690557" lon="10.17776258930019"><ele>28.999999999999996</ele><time>2026-04-08T16:49:55Z</time></trkpt><trkpt lat="45.05230728318427" lon="10.177734612119304"><ele>29.0</ele><time>2026-04-08T16:49:56Z</time></trkpt><trkpt lat="45.052387323634434" lon="10.177707330294785"><ele>29.333333333333332</ele><time>2026-04-08T16:49:57Z</time></trkpt><trkpt lat="45.05246685751217" lon="10.177677608311495"><ele>29.666666666666664</ele><time>2026-04-08T16:49:58Z</time></trkpt><trkpt lat="45.05254821795021" lon="10.177651818465653"><ele>30.0</ele><time>2026-04-08T16:49:59Z</time></trkpt><trkpt lat="45.052629673493065" lon="10.177625783454612"><ele>30.333333333333336</ele><time>2026-04-08T16:50:00Z</time></trkpt><trkpt lat="45.052710276949696" lon="10.177598401002166"><ele>30.666666666666668</ele><time>2026-04-08T16:50:01Z</time></trkpt><trkpt lat="45.05279190327849" lon="10.177570756482698"><ele>31.0</ele><time>2026-04-08T16:50:02Z</time></trkpt><trkpt lat="45.05287364748202" lon="10.177545149783207"><ele>31.000000000000004</ele><time>2026-04-08T16:50:03Z</time></trkpt><trkpt lat="45.05295335743275" lon="10.177517816015042"><ele>31.0</ele><time>2026-04-08T16:50:04Z</time></trkpt><trkpt lat="45.053034759962905" lon="10.177490178700554"><ele>31.0</ele><time>2026-04-08T16:50:05Z</time></trkpt><trkpt lat="45.0531155768276" lon="10.177462272351782"><ele>31.0</ele><time>2026-04-08T16:50:06Z</time></trkpt><trkpt lat="45.053194988963135" lon="10.177433279062047"><ele>31.000000000000004</ele><time>2026-04-08T16:50:07Z</time></trkpt><trkpt lat="45.053275312659274" lon="10.17740771064751"><ele>31.0</ele><time>2026-04-08T16:50:08Z</time></trkpt><trkpt lat="45.05335505061682" lon="10.177380809359533"><ele>30.666666666666668</ele><time>2026-04-08T16:50:09Z</time></trkpt><trkpt lat="45.05343572647624" lon="10.177354288326672"><ele>30.333333333333336</ele><time>2026-04-08T16:50:10Z</time></trkpt><trkpt lat="45.053518663835085" lon="10.177329490522052"><ele>30.0</ele><time>2026-04-08T16:50:11Z</time></trkpt><trkpt lat="45.05359833900793" lon="10.177303703035548"><ele>29.666666666666664</ele><time>2026-04-08T16:50:12Z</time></trkpt><trkpt lat="45.053678664156735" lon="10.177275468986021"><ele>29.333333333333332</ele><time>2026-04-08T16:50:13Z</time></trkpt><trkpt lat="45.05375996638953" lon="10.177247415255747"><ele>29.0</ele><time>2026-04-08T16:50:14Z</time></trkpt><trkpt lat="45.053840042381914" lon="10.177221474519905"><ele>28.999999999999996</ele><time>2026-04-08T16:50:15Z</time></trkpt><trkpt lat="45.05391977289984" lon="10.17719403779677"><ele>29.0</ele><time>2026-04-08T16:50:16Z</time></trkpt><trkpt lat="45.05399862450502" lon="10.177166990726027"><ele>29.0</ele><time>2026-04-08T16:50:17Z</time></trkpt><trkpt lat="45.05407943286402" lon="10.177136021055006"><ele>29.0</ele><time>2026-04-08T16:50:17.999Z</time></trkpt><trkpt lat="45.054159774986154" lon="10.17710665251941"><ele>28.999999999999996</ele><time>2026-04-08T16:50:18.999Z</time></trkpt><trkpt lat="45.05423989385405" lon="10.177075632640339"><ele>29.0</ele><time>2026-04-08T16:50:19.999Z</time></trkpt><trkpt lat="45.05432053510324" lon="10.177048240470825"><ele>29.166666666666664</ele><time>2026-04-08T16:50:20.999Z</time></trkpt><trkpt lat="45.054401387701375" lon="10.177024054587532"><ele>29.333333333333332</ele><time>2026-04-08T16:50:21.999Z</time></trkpt><trkpt lat="45.05448364770039" lon="10.176998809304212"><ele>29.5</ele><time>2026-04-08T16:50:22.999Z</time></trkpt><trkpt lat="45.05456718116603" lon="10.176980070052641"><ele>29.666666666666664</ele><time>2026-04-08T16:50:23.999Z</time></trkpt><trkpt lat="45.05464897848383" lon="10.176964435232431"><ele>29.833333333333332</ele><time>2026-04-08T16:50:24.999Z</time></trkpt><trkpt lat="45.05473230772954" lon="10.176951878991275"><ele>30.0</ele><time>2026-04-08T16:50:25.999Z</time></trkpt><trkpt lat="45.054816491547506" lon="10.176946711903067"><ele>30.0</ele><time>2026-04-08T16:50:26.999Z</time></trkpt><trkpt lat="45.05489831214704" lon="10.176944875628111"><ele>30.0</ele><time>2026-04-08T16:50:27.999Z</time></trkpt><trkpt lat="45.054978609896146" lon="10.176947788378953"><ele>30.0</ele><time>2026-04-08T16:50:28.999Z</time></trkpt><trkpt lat="45.0550593445326" lon="10.176955031393968"><ele>30.0</ele><time>2026-04-08T16:50:29.999Z</time></trkpt><trkpt lat="45.05514085988202" lon="10.176968366722814"><ele>30.0</ele><time>2026-04-08T16:50:30.999Z</time></trkpt><trkpt lat="45.055223081266924" lon="10.176979557938141"><ele>30.0</ele><time>2026-04-08T16:50:31.999Z</time></trkpt><trkpt lat="45.05530282848526" lon="10.176992152845896"><ele>30.666666666666668</ele><time>2026-04-08T16:50:32.999Z</time></trkpt><trkpt lat="45.05538544509901" lon="10.17700384283942"><ele>31.333333333333336</ele><time>2026-04-08T16:50:33.999Z</time></trkpt><trkpt lat="45.05546911030391" lon="10.17701312387551"><ele>32.0</ele><time>2026-04-08T16:50:34.999Z</time></trkpt><trkpt lat="45.05555270916409" lon="10.177022455163815"><ele>32.66666666666667</ele><time>2026-04-08T16:50:35.999Z</time></trkpt><trkpt lat="45.05563488202335" lon="10.177027870191164"><ele>33.333333333333336</ele><time>2026-04-08T16:50:36.999Z</time></trkpt><trkpt lat="45.05571543843141" lon="10.177036063612372"><ele>34.0</ele><time>2026-04-08T16:50:37.999Z</time></trkpt><trkpt lat="45.055799254944326" lon="10.177036049922286"><ele>34.5</ele><time>2026-04-08T16:50:38.999Z</time></trkpt><trkpt lat="45.0558814981292" lon="10.177032620116922"><ele>35.0</ele><time>2026-04-08T16:50:39.999Z</time></trkpt><trkpt lat="45.055963213835085" lon="10.17702852659113"><ele>35.5</ele><time>2026-04-08T16:50:40.999Z</time></trkpt><trkpt lat="45.056045637931845" lon="10.177027279486206"><ele>36.0</ele><time>2026-04-08T16:50:41.999Z</time></trkpt><trkpt lat="45.05612884025237" lon="10.177033433907217"><ele>36.5</ele><time>2026-04-08T16:50:42.999Z</time></trkpt><trkpt lat="45.056212888628565" lon="10.177044846997608"><ele>37.0</ele><time>2026-04-08T16:50:43.999Z</time></trkpt><trkpt lat="45.0562961554459" lon="10.177059396198631"><ele>37.0</ele><time>2026-04-08T16:50:44.999Z</time></trkpt><trkpt lat="45.05637851150435" lon="10.177072295102771"><ele>37.0</ele><time>2026-04-08T16:50:45.999Z</time></trkpt><trkpt lat="45.05646093286761" lon="10.177081892124258"><ele>37.0</ele><time>2026-04-08T16:50:46.999Z</time></trkpt><trkpt lat="45.05654532776618" lon="10.177091198871677"><ele>37.0</ele><time>2026-04-08T16:50:47.999Z</time></trkpt><trkpt lat="45.05662812127339" lon="10.17710737409634"><ele>37.0</ele><time>2026-04-08T16:50:48.999Z</time></trkpt><trkpt lat="45.056708602462734" lon="10.17712764185669"><ele>37.0</ele><time>2026-04-08T16:50:49.999Z</time></trkpt><trkpt lat="45.05679282595416" lon="10.177143327071786"><ele>36.5</ele><time>2026-04-08T16:50:50.999Z</time></trkpt><trkpt lat="45.056874223933455" lon="10.177157300919308"><ele>36.0</ele><time>2026-04-08T16:50:51.999Z</time></trkpt><trkpt lat="45.05695522708397" lon="10.177172499836427"><ele>35.5</ele><time>2026-04-08T16:50:52.999Z</time></trkpt><trkpt lat="45.05703886230877" lon="10.177186878172641"><ele>35.0</ele><time>2026-04-08T16:50:53.999Z</time></trkpt><trkpt lat="45.0571212106693" lon="10.17719855852725"><ele>34.5</ele><time>2026-04-08T16:50:54.999Z</time></trkpt><trkpt lat="45.05720366226238" lon="10.177206974483699"><ele>34.0</ele><time>2026-04-08T16:50:55.999Z</time></trkpt><trkpt lat="45.05728661004191" lon="10.177214915527072"><ele>34.0</ele><time>2026-04-08T16:50:56.999Z</time></trkpt><trkpt lat="45.05736983221507" lon="10.17721609684523"><ele>34.0</ele><time>2026-04-08T16:50:57.999Z</time></trkpt><trkpt lat="45.05745348040028" lon="10.177213361392518"><ele>34.0</ele><time>2026-04-08T16:50:58.999Z</time></trkpt><trkpt lat="45.0575349279022" lon="10.177204861632323"><ele>34.0</ele><time>2026-04-08T16:50:59.999Z</time></trkpt><trkpt lat="45.05761596788368" lon="10.177198203911686"><ele>34.0</ele><time>2026-04-08T16:51:00.999Z</time></trkpt><trkpt lat="45.05769284690256" lon="10.177190519686942"><ele>34.0</ele><time>2026-04-08T16:51:01.999Z</time></trkpt><trkpt lat="45.05776878705674" lon="10.177182349095576"><ele>34.285714285714285</ele><time>2026-04-08T16:51:02.999Z</time></trkpt><trkpt lat="45.05784110836095" lon="10.177174439812735"><ele>34.57142857142857</ele><time>2026-04-08T16:51:03.999Z</time></trkpt><trkpt lat="45.057914101125135" lon="10.177168630819992"><ele>34.85714285714286</ele><time>2026-04-08T16:51:04.999Z</time></trkpt><trkpt lat="45.05798517749211" lon="10.177164114800245"><ele>35.14285714285714</ele><time>2026-04-08T16:51:05.999Z</time></trkpt><trkpt lat="45.05805419990816" lon="10.17716612481212"><ele>35.42857142857143</ele><time>2026-04-08T16:51:06.999Z</time></trkpt><trkpt lat="45.05812355172656" lon="10.177165746473793"><ele>35.714285714285715</ele><time>2026-04-08T16:51:07.999Z</time></trkpt><trkpt lat="45.05818843126728" lon="10.17717122139355"><ele>36.0</ele><time>2026-04-08T16:51:08.999Z</time></trkpt><trkpt lat="45.05825249103704" lon="10.177171610803946"><ele>35.5</ele><time>2026-04-08T16:51:09.999Z</time></trkpt><trkpt lat="45.0583566293149" lon="10.17719507434144"><ele>35.0</ele><time>2026-04-08T16:51:11.998Z</time></trkpt><trkpt lat="45.058402532546964" lon="10.176906267399378"><ele>34.5</ele><time>2026-04-08T16:51:13.998Z</time></trkpt><trkpt lat="45.05840434268659" lon="10.176797613218032"><ele>34.0</ele><time>2026-04-08T16:51:14.998Z</time></trkpt><trkpt lat="45.058404861682895" lon="10.17669368420958"><ele>34.0</ele><time>2026-04-08T16:51:15.998Z</time></trkpt><trkpt lat="45.05840659124989" lon="10.176584100110738"><ele>34.0</ele><time>2026-04-08T16:51:16.998Z</time></trkpt><trkpt lat="45.0584086666454" lon="10.176474040253188"><ele>34.0</ele><time>2026-04-08T16:51:17.998Z</time></trkpt><trkpt lat="45.05840960276294" lon="10.176363696595343"><ele>34.0</ele><time>2026-04-08T16:51:18.998Z</time></trkpt><trkpt lat="45.05841438475377" lon="10.176252963747878"><ele>34.0</ele><time>2026-04-08T16:51:19.998Z</time></trkpt><trkpt lat="45.05840766470344" lon="10.176142932765408"><ele>34.0</ele><time>2026-04-08T16:51:20.998Z</time></trkpt><trkpt lat="45.05840228070895" lon="10.176034538859877"><ele>33.5</ele><time>2026-04-08T16:51:21.998Z</time></trkpt><trkpt lat="45.05839270590832" lon="10.1759262384152"><ele>33.0</ele><time>2026-04-08T16:51:22.998Z</time></trkpt><trkpt lat="45.05838165906939" lon="10.175814070581616"><ele>32.5</ele><time>2026-04-08T16:51:23.998Z</time></trkpt><trkpt lat="45.05837118330676" lon="10.17570476155261"><ele>32.0</ele><time>2026-04-08T16:51:24.998Z</time></trkpt><trkpt lat="45.058359343859244" lon="10.1755920999463"><ele>31.500000000000004</ele><time>2026-04-08T16:51:25.998Z</time></trkpt><trkpt lat="45.05835181648862" lon="10.175482271005137"><ele>31.0</ele><time>2026-04-08T16:51:26.998Z</time></trkpt><trkpt lat="45.05838533889441" lon="10.17537426002861"><ele>30.500000000000004</ele><time>2026-04-08T16:51:27.998Z</time></trkpt><trkpt lat="45.05842376647344" lon="10.175282886670795"><ele>30.0</ele><time>2026-04-08T16:51:28.998Z</time></trkpt><trkpt lat="45.05849321726309" lon="10.175225982985198"><ele>29.5</ele><time>2026-04-08T16:51:29.998Z</time></trkpt><trkpt lat="45.05854859546191" lon="10.175142752433631"><ele>29.0</ele><time>2026-04-08T16:51:30.998Z</time></trkpt><trkpt lat="45.05858450899627" lon="10.175035520261558"><ele>28.500000000000004</ele><time>2026-04-08T16:51:31.998Z</time></trkpt><trkpt lat="45.058641325833634" lon="10.174954846527442"><ele>28.0</ele><time>2026-04-08T16:51:32.998Z</time></trkpt><trkpt lat="45.05869384919849" lon="10.174868967891317"><ele>28.166666666666668</ele><time>2026-04-08T16:51:33.998Z</time></trkpt><trkpt lat="45.05874744429517" lon="10.174782366597642"><ele>28.333333333333336</ele><time>2026-04-08T16:51:34.998Z</time></trkpt><trkpt lat="45.05880253790117" lon="10.174699897976055"><ele>28.5</ele><time>2026-04-08T16:51:35.998Z</time></trkpt><trkpt lat="45.05885787061387" lon="10.17461832366597"><ele>28.666666666666664</ele><time>2026-04-08T16:51:36.998Z</time></trkpt><trkpt lat="45.05891604141918" lon="10.1745384737016"><ele>28.833333333333332</ele><time>2026-04-08T16:51:37.998Z</time></trkpt><trkpt lat="45.05899450398043" lon="10.174484128667078"><ele>29.0</ele><time>2026-04-08T16:51:38.998Z</time></trkpt><trkpt lat="45.0590510538732" lon="10.174402931022327"><ele>28.999999999999996</ele><time>2026-04-08T16:51:39.998Z</time></trkpt><trkpt lat="45.05910865606708" lon="10.174320222418338"><ele>29.0</ele><time>2026-04-08T16:51:40.998Z</time></trkpt><trkpt lat="45.05916549701822" lon="10.17423847803934"><ele>29.0</ele><time>2026-04-08T16:51:41.998Z</time></trkpt><trkpt lat="45.05922207555609" lon="10.174156148914612"><ele>29.0</ele><time>2026-04-08T16:51:42.998Z</time></trkpt><trkpt lat="45.05927880447816" lon="10.174073600960462"><ele>28.999999999999996</ele><time>2026-04-08T16:51:43.998Z</time></trkpt><trkpt lat="45.0593362320737" lon="10.1739900363461"><ele>29.0</ele><time>2026-04-08T16:51:44.998Z</time></trkpt><trkpt lat="45.059393716060484" lon="10.173906389878056"><ele>28.833333333333332</ele><time>2026-04-08T16:51:45.998Z</time></trkpt><trkpt lat="45.0594518814019" lon="10.17382175156025"><ele>28.666666666666664</ele><time>2026-04-08T16:51:47Z</time></trkpt><trkpt lat="45.05951012966536" lon="10.173736992759855"><ele>28.5</ele><time>2026-04-08T16:51:48Z</time></trkpt><trkpt lat="45.05956707169032" lon="10.173655223963637"><ele>28.333333333333336</ele><time>2026-04-08T16:51:49Z</time></trkpt><trkpt lat="45.059611247770285" lon="10.1735508325558"><ele>28.166666666666668</ele><time>2026-04-08T16:51:50Z</time></trkpt><trkpt lat="45.05966754741062" lon="10.173461742134263"><ele>28.0</ele><time>2026-04-08T16:51:51Z</time></trkpt><trkpt lat="45.05972318912429" lon="10.173378643021394"><ele>28.000000000000004</ele><time>2026-04-08T16:51:52Z</time></trkpt><trkpt lat="45.05977975776676" lon="10.173292091405632"><ele>28.0</ele><time>2026-04-08T16:51:53Z</time></trkpt><trkpt lat="45.05983251819104" lon="10.173202912223136"><ele>28.0</ele><time>2026-04-08T16:51:54Z</time></trkpt><trkpt lat="45.059881817012894" lon="10.173107839336268"><ele>28.0</ele><time>2026-04-08T16:51:55Z</time></trkpt><trkpt lat="45.05992516950804" lon="10.173008634509833"><ele>28.000000000000004</ele><time>2026-04-08T16:51:56Z</time></trkpt><trkpt lat="45.05996256676644" lon="10.172903999707266"><ele>28.0</ele><time>2026-04-08T16:51:57Z</time></trkpt><trkpt lat="45.059992636476785" lon="10.17279443282089"><ele>28.166666666666668</ele><time>2026-04-08T16:51:58Z</time></trkpt><trkpt lat="45.06002094394423" lon="10.172684242776027"><ele>28.333333333333336</ele><time>2026-04-08T16:51:59Z</time></trkpt><trkpt lat="45.06004966888136" lon="10.172576001375509"><ele>28.5</ele><time>2026-04-08T16:52:00Z</time></trkpt><trkpt lat="45.06008043729588" lon="10.172465181052246"><ele>28.666666666666664</ele><time>2026-04-08T16:52:01Z</time></trkpt><trkpt lat="45.060129945901814" lon="10.172366141220078"><ele>28.833333333333332</ele><time>2026-04-08T16:52:02Z</time></trkpt><trkpt lat="45.06015884944948" lon="10.17225777600733"><ele>29.0</ele><time>2026-04-08T16:52:03Z</time></trkpt><trkpt lat="45.06017210693565" lon="10.172134672243017"><ele>29.333333333333332</ele><time>2026-04-08T16:52:04Z</time></trkpt><trkpt lat="45.06021592455951" lon="10.172034938894209"><ele>29.666666666666664</ele><time>2026-04-08T16:52:05Z</time></trkpt><trkpt lat="45.06024387051171" lon="10.17192446382202"><ele>30.0</ele><time>2026-04-08T16:52:06Z</time></trkpt><trkpt lat="45.06027238821513" lon="10.171811728541954"><ele>30.333333333333336</ele><time>2026-04-08T16:52:07Z</time></trkpt><trkpt lat="45.060300937873244" lon="10.171701522132519"><ele>30.666666666666668</ele><time>2026-04-08T16:52:08Z</time></trkpt><trkpt lat="45.06032940856253" lon="10.171592851012317"><ele>31.0</ele><time>2026-04-08T16:52:09Z</time></trkpt><trkpt lat="45.060358542204604" lon="10.171481649468166"><ele>31.333333333333336</ele><time>2026-04-08T16:52:10Z</time></trkpt><trkpt lat="45.060387296816806" lon="10.171371894656621"><ele>31.666666666666668</ele><time>2026-04-08T16:52:11Z</time></trkpt><trkpt lat="45.060416201563484" lon="10.171260539560663"><ele>32.0</ele><time>2026-04-08T16:52:12Z</time></trkpt><trkpt lat="45.06044420235357" lon="10.171150685150147"><ele>32.333333333333336</ele><time>2026-04-08T16:52:13Z</time></trkpt><trkpt lat="45.060473475262626" lon="10.171048026785913"><ele>32.666666666666664</ele><time>2026-04-08T16:52:14Z</time></trkpt><trkpt lat="45.06050927209873" lon="10.17095325816355"><ele>33.0</ele><time>2026-04-08T16:52:15Z</time></trkpt><trkpt lat="45.06056589275484" lon="10.170886662921738"><ele>33.0</ele><time>2026-04-08T16:52:16Z</time></trkpt><trkpt lat="45.06063104314106" lon="10.170816426756488"><ele>33.0</ele><time>2026-04-08T16:52:17Z</time></trkpt><trkpt lat="45.06070850133175" lon="10.170738681544037"><ele>33.0</ele><time>2026-04-08T16:52:18Z</time></trkpt><trkpt lat="45.06078455382946" lon="10.170648168225148"><ele>33.0</ele><time>2026-04-08T16:52:19Z</time></trkpt><trkpt lat="45.06083812363429" lon="10.170523035958965"><ele>33.0</ele><time>2026-04-08T16:52:20Z</time></trkpt><trkpt lat="45.06083319900989" lon="10.17035764350758"><ele>33.0</ele><time>2026-04-08T16:52:21Z</time></trkpt><trkpt lat="45.060825670794394" lon="10.170224598941887"><ele>33.0</ele><time>2026-04-08T16:52:21.999Z</time></trkpt><trkpt lat="45.06081337202277" lon="10.170098789121267"><ele>33.0</ele><time>2026-04-08T16:52:22.999Z</time></trkpt><trkpt lat="45.06080376499185" lon="10.169975994753369"><ele>33.0</ele><time>2026-04-08T16:52:23.999Z</time></trkpt><trkpt lat="45.06080332260774" lon="10.169851854939388"><ele>33.0</ele><time>2026-04-08T16:52:24.999Z</time></trkpt><trkpt lat="45.06082492296792" lon="10.169729848649443"><ele>33.0</ele><time>2026-04-08T16:52:25.999Z</time></trkpt><trkpt lat="45.060840801825584" lon="10.169611148575957"><ele>33.0</ele><time>2026-04-08T16:52:26.999Z</time></trkpt><trkpt lat="45.06086687543264" lon="10.169497156395586"><ele>33.0</ele><time>2026-04-08T16:52:27.999Z</time></trkpt><trkpt lat="45.06089383300821" lon="10.169383725551544"><ele>33.0</ele><time>2026-04-08T16:52:28.999Z</time></trkpt><trkpt lat="45.060909703347846" lon="10.169264012713235"><ele>33.0</ele><time>2026-04-08T16:52:29.999Z</time></trkpt><trkpt lat="45.06094085225361" lon="10.169153036870677"><ele>33.0</ele><time>2026-04-08T16:52:30.999Z</time></trkpt><trkpt lat="45.06097037023451" lon="10.169040610421257"><ele>33.0</ele><time>2026-04-08T16:52:31.999Z</time></trkpt><trkpt lat="45.06101013274789" lon="10.168935882660193"><ele>33.0</ele><time>2026-04-08T16:52:32.999Z</time></trkpt><trkpt lat="45.06104295070061" lon="10.168827593768132"><ele>33.0</ele><time>2026-04-08T16:52:33.999Z</time></trkpt><trkpt lat="45.06105988886621" lon="10.168708364174018"><ele>33.0</ele><time>2026-04-08T16:52:34.999Z</time></trkpt><trkpt lat="45.06104655917981" lon="10.168584766501901"><ele>33.0</ele><time>2026-04-08T16:52:35.999Z</time></trkpt><trkpt lat="45.061038564746966" lon="10.168466634867666"><ele>33.0</ele><time>2026-04-08T16:52:36.999Z</time></trkpt><trkpt lat="45.061028424791054" lon="10.168344561502742"><ele>33.0</ele><time>2026-04-08T16:52:37.999Z</time></trkpt><trkpt lat="45.061020545803295" lon="10.168223895214622"><ele>32.833333333333336</ele><time>2026-04-08T16:52:38.999Z</time></trkpt><trkpt lat="45.06101529936697" lon="10.168103829873258"><ele>32.666666666666664</ele><time>2026-04-08T16:52:39.999Z</time></trkpt><trkpt lat="45.06100883124085" lon="10.167984652855152"><ele>32.5</ele><time>2026-04-08T16:52:40.999Z</time></trkpt><trkpt lat="45.06100296583821" lon="10.167865293197293"><ele>32.33333333333333</ele><time>2026-04-08T16:52:41.999Z</time></trkpt><trkpt lat="45.061002444862375" lon="10.16774132889004"><ele>32.166666666666664</ele><time>2026-04-08T16:52:42.999Z</time></trkpt><trkpt lat="45.06099642011549" lon="10.167621247115273"><ele>32.0</ele><time>2026-04-08T16:52:43.999Z</time></trkpt><trkpt lat="45.06098733620369" lon="10.16750002130177"><ele>31.999999999999996</ele><time>2026-04-08T16:52:44.999Z</time></trkpt><trkpt lat="45.06097912343318" lon="10.167380456245763"><ele>32.0</ele><time>2026-04-08T16:52:45.999Z</time></trkpt><trkpt lat="45.06097275005136" lon="10.167260077016968"><ele>32.0</ele><time>2026-04-08T16:52:46.999Z</time></trkpt><trkpt lat="45.06096722027905" lon="10.167140375433036"><ele>32.0</ele><time>2026-04-08T16:52:47.999Z</time></trkpt><trkpt lat="45.06096062747983" lon="10.167023842981557"><ele>31.999999999999996</ele><time>2026-04-08T16:52:48.999Z</time></trkpt><trkpt lat="45.06095765680066" lon="10.166904589500891"><ele>32.0</ele><time>2026-04-08T16:52:49.999Z</time></trkpt><trkpt lat="45.06095275539146" lon="10.166786115205023"><ele>31.999999999999996</ele><time>2026-04-08T16:52:50.999Z</time></trkpt><trkpt lat="45.06094533720059" lon="10.166669652295985"><ele>32.0</ele><time>2026-04-08T16:52:51.999Z</time></trkpt><trkpt lat="45.06093760549769" lon="10.16655238467347"><ele>32.0</ele><time>2026-04-08T16:52:52.999Z</time></trkpt><trkpt lat="45.060930418335346" lon="10.166435590202983"><ele>32.0</ele><time>2026-04-08T16:52:53.999Z</time></trkpt><trkpt lat="45.06092654103384" lon="10.166322312747715"><ele>31.999999999999996</ele><time>2026-04-08T16:52:54.999Z</time></trkpt><trkpt lat="45.06094805861894" lon="10.16621356425702"><ele>32.0</ele><time>2026-04-08T16:52:55.999Z</time></trkpt><trkpt lat="45.06097736592748" lon="10.166122402973414"><ele>31.833333333333332</ele><time>2026-04-08T16:52:56.999Z</time></trkpt><trkpt lat="45.06102739396068" lon="10.166049591908921"><ele>31.666666666666664</ele><time>2026-04-08T16:52:57.999Z</time></trkpt><trkpt lat="45.06110243577859" lon="10.166025692737545"><ele>31.5</ele><time>2026-04-08T16:52:58.999Z</time></trkpt><trkpt lat="45.06118056205039" lon="10.165995053951708"><ele>31.333333333333336</ele><time>2026-04-08T16:52:59.999Z</time></trkpt><trkpt lat="45.06125973647362" lon="10.165964112496852"><ele>31.166666666666668</ele><time>2026-04-08T16:53:00.999Z</time></trkpt><trkpt lat="45.06133709043307" lon="10.165934912668073"><ele>31.0</ele><time>2026-04-08T16:53:01.999Z</time></trkpt><trkpt lat="45.06141526465019" lon="10.16590540319438"><ele>31.000000000000004</ele><time>2026-04-08T16:53:02.999Z</time></trkpt><trkpt lat="45.06149197518337" lon="10.165873419644555"><ele>31.0</ele><time>2026-04-08T16:53:03.999Z</time></trkpt><trkpt lat="45.061567688109854" lon="10.16583623122299"><ele>31.0</ele><time>2026-04-08T16:53:04.999Z</time></trkpt><trkpt lat="45.061633080654815" lon="10.165764418049788"><ele>31.0</ele><time>2026-04-08T16:53:05.999Z</time></trkpt><trkpt lat="45.06168912326398" lon="10.165679278463964"><ele>31.000000000000004</ele><time>2026-04-08T16:53:06.999Z</time></trkpt><trkpt lat="45.061723183386526" lon="10.16556931344603"><ele>31.0</ele><time>2026-04-08T16:53:07.999Z</time></trkpt><trkpt lat="45.0617415073235" lon="10.165455594092537"><ele>31.166666666666668</ele><time>2026-04-08T16:53:08.999Z</time></trkpt><trkpt lat="45.06174837033023" lon="10.165334645929446"><ele>31.333333333333336</ele><time>2026-04-08T16:53:09.999Z</time></trkpt><trkpt lat="45.06175611043928" lon="10.165218534104328"><ele>31.5</ele><time>2026-04-08T16:53:10.999Z</time></trkpt><trkpt lat="45.0617715459279" lon="10.165105941924722"><ele>31.666666666666664</ele><time>2026-04-08T16:53:11.999Z</time></trkpt><trkpt lat="45.061792695002616" lon="10.164995637520796"><ele>31.833333333333332</ele><time>2026-04-08T16:53:12.999Z</time></trkpt><trkpt lat="45.061814601106505" lon="10.164883038762214"><ele>32.0</ele><time>2026-04-08T16:53:13.999Z</time></trkpt><trkpt lat="45.06183613952652" lon="10.164778357931784"><ele>31.999999999999996</ele><time>2026-04-08T16:53:14.999Z</time></trkpt><trkpt lat="45.06184923455816" lon="10.164656853326537"><ele>32.0</ele><time>2026-04-08T16:53:15.998Z</time></trkpt><trkpt lat="45.061865611171" lon="10.164542912392449"><ele>32.0</ele><time>2026-04-08T16:53:16.998Z</time></trkpt><trkpt lat="45.06188599195314" lon="10.164429085623336"><ele>32.0</ele><time>2026-04-08T16:53:17.998Z</time></trkpt><trkpt lat="45.06190713966356" lon="10.164317861578754"><ele>31.999999999999996</ele><time>2026-04-08T16:53:18.998Z</time></trkpt><trkpt lat="45.06192913509111" lon="10.164204550042164"><ele>32.0</ele><time>2026-04-08T16:53:19.998Z</time></trkpt><trkpt lat="45.061949931329586" lon="10.164089419167238"><ele>31.833333333333332</ele><time>2026-04-08T16:53:20.998Z</time></trkpt><trkpt lat="45.06196934158919" lon="10.163978067948877"><ele>31.666666666666664</ele><time>2026-04-08T16:53:21.998Z</time></trkpt><trkpt lat="45.06198700437279" lon="10.16386487761964"><ele>31.5</ele><time>2026-04-08T16:53:22.998Z</time></trkpt><trkpt lat="45.06200910806456" lon="10.163754565273234"><ele>31.333333333333336</ele><time>2026-04-08T16:53:23.998Z</time></trkpt><trkpt lat="45.06203413139176" lon="10.163642745481662"><ele>31.166666666666668</ele><time>2026-04-08T16:53:24.998Z</time></trkpt><trkpt lat="45.062049077657505" lon="10.163526279821877"><ele>31.0</ele><time>2026-04-08T16:53:25.998Z</time></trkpt><trkpt lat="45.06206247675202" lon="10.163409713553747"><ele>31.000000000000004</ele><time>2026-04-08T16:53:26.998Z</time></trkpt><trkpt lat="45.062079952119916" lon="10.163297380099108"><ele>31.0</ele><time>2026-04-08T16:53:27.998Z</time></trkpt><trkpt lat="45.06210146527684" lon="10.163184275598526"><ele>31.0</ele><time>2026-04-08T16:53:28.998Z</time></trkpt><trkpt lat="45.06212183483242" lon="10.163072971809854"><ele>31.0</ele><time>2026-04-08T16:53:29.998Z</time></trkpt><trkpt lat="45.06214194100321" lon="10.162959981430058"><ele>31.000000000000004</ele><time>2026-04-08T16:53:30.998Z</time></trkpt><trkpt lat="45.062164049304734" lon="10.162851716634236"><ele>31.0</ele><time>2026-04-08T16:53:31.998Z</time></trkpt><trkpt lat="45.06218291859062" lon="10.162738292824027"><ele>31.166666666666668</ele><time>2026-04-08T16:53:32.998Z</time></trkpt><trkpt lat="45.062201864605704" lon="10.162621448485814"><ele>31.333333333333336</ele><time>2026-04-08T16:53:33.998Z</time></trkpt><trkpt lat="45.06221983064545" lon="10.162508949524243"><ele>31.5</ele><time>2026-04-08T16:53:34.998Z</time></trkpt><trkpt lat="45.062236494902564" lon="10.162397116407087"><ele>31.666666666666664</ele><time>2026-04-08T16:53:35.998Z</time></trkpt><trkpt lat="45.06225016925027" lon="10.162287409624211"><ele>31.833333333333332</ele><time>2026-04-08T16:53:36.998Z</time></trkpt><trkpt lat="45.06227240757077" lon="10.162178900965488"><ele>32.0</ele><time>2026-04-08T16:53:37.998Z</time></trkpt><trkpt lat="45.06229971536924" lon="10.162076629712285"><ele>31.999999999999996</ele><time>2026-04-08T16:53:38.998Z</time></trkpt><trkpt lat="45.06234406501052" lon="10.161995892161137"><ele>32.0</ele><time>2026-04-08T16:53:39.998Z</time></trkpt><trkpt lat="45.06239147971073" lon="10.161921951400561"><ele>32.0</ele><time>2026-04-08T16:53:40.998Z</time></trkpt><trkpt lat="45.06246142022073" lon="10.16187179790375"><ele>32.0</ele><time>2026-04-08T16:53:41.998Z</time></trkpt><trkpt lat="45.06253075021232" lon="10.16182723513109"><ele>31.999999999999996</ele><time>2026-04-08T16:53:42.998Z</time></trkpt><trkpt lat="45.062596096159616" lon="10.161771013516988"><ele>32.0</ele><time>2026-04-08T16:53:43.998Z</time></trkpt><trkpt lat="45.062660738693545" lon="10.161711239633728"><ele>32.166666666666664</ele><time>2026-04-08T16:53:44.998Z</time></trkpt><trkpt lat="45.06272492307534" lon="10.16164713081906"><ele>32.33333333333333</ele><time>2026-04-08T16:53:45.998Z</time></trkpt><trkpt lat="45.06279118739558" lon="10.16158546239668"><ele>32.5</ele><time>2026-04-08T16:53:46.998Z</time></trkpt><trkpt lat="45.06286020539699" lon="10.161521466033653"><ele>32.666666666666664</ele><time>2026-04-08T16:53:47.998Z</time></trkpt><trkpt lat="45.0629274074268" lon="10.161459889292662"><ele>32.833333333333336</ele><time>2026-04-08T16:53:48.998Z</time></trkpt><trkpt lat="45.06299464225955" lon="10.161393959757426"><ele>33.0</ele><time>2026-04-08T16:53:49.998Z</time></trkpt><trkpt lat="45.06306168833355" lon="10.161325016733818"><ele>33.0</ele><time>2026-04-08T16:53:50.998Z</time></trkpt><trkpt lat="45.06312612250425" lon="10.16125757164615"><ele>33.0</ele><time>2026-04-08T16:53:51.998Z</time></trkpt><trkpt lat="45.063191430935525" lon="10.161191416948004"><ele>33.0</ele><time>2026-04-08T16:53:53Z</time></trkpt><trkpt lat="45.063260679652416" lon="10.161127737763925"><ele>33.0</ele><time>2026-04-08T16:53:54Z</time></trkpt><trkpt lat="45.06332783135379" lon="10.161062449802944"><ele>33.0</ele><time>2026-04-08T16:53:55Z</time></trkpt><trkpt lat="45.0633946191271" lon="10.160997111820228"><ele>33.0</ele><time>2026-04-08T16:53:56Z</time></trkpt><trkpt lat="45.06346210922077" lon="10.160935603799583"><ele>32.666666666666664</ele><time>2026-04-08T16:53:57Z</time></trkpt><trkpt lat="45.06353098558249" lon="10.160872332061167"><ele>32.333333333333336</ele><time>2026-04-08T16:53:58Z</time></trkpt><trkpt lat="45.0635982301035" lon="10.160805287797697"><ele>32.0</ele><time>2026-04-08T16:53:59Z</time></trkpt><trkpt lat="45.06366706102456" lon="10.160737106553242"><ele>31.666666666666668</ele><time>2026-04-08T16:54:00Z</time></trkpt><trkpt lat="45.063731219349556" lon="10.160670080792325"><ele>31.333333333333336</ele><time>2026-04-08T16:54:01Z</time></trkpt><trkpt lat="45.06379960029198" lon="10.160606950457291"><ele>31.0</ele><time>2026-04-08T16:54:02Z</time></trkpt><trkpt lat="45.063864629397884" lon="10.160538513188257"><ele>30.833333333333336</ele><time>2026-04-08T16:54:03Z</time></trkpt><trkpt lat="45.063925695456355" lon="10.160462338318377"><ele>30.666666666666668</ele><time>2026-04-08T16:54:04Z</time></trkpt><trkpt lat="45.06399403406777" lon="10.16039541762658"><ele>30.5</ele><time>2026-04-08T16:54:05Z</time></trkpt><trkpt lat="45.06405873328671" lon="10.160325899945319"><ele>30.333333333333336</ele><time>2026-04-08T16:54:06Z</time></trkpt><trkpt lat="45.06411338505001" lon="10.1602374171097"><ele>30.166666666666668</ele><time>2026-04-08T16:54:07Z</time></trkpt><trkpt lat="45.06415641339287" lon="10.160140198569751"><ele>30.0</ele><time>2026-04-08T16:54:08Z</time></trkpt><trkpt lat="45.06419545460096" lon="10.160039838352025"><ele>30.0</ele><time>2026-04-08T16:54:09Z</time></trkpt><trkpt lat="45.06423269313258" lon="10.159940296449527"><ele>30.0</ele><time>2026-04-08T16:54:10Z</time></trkpt><trkpt lat="45.06426274209256" lon="10.159831295218597"><ele>30.0</ele><time>2026-04-08T16:54:11Z</time></trkpt><trkpt lat="45.06429097049089" lon="10.159723663989906"><ele>30.0</ele><time>2026-04-08T16:54:12Z</time></trkpt><trkpt lat="45.06432185396191" lon="10.159613362402988"><ele>30.0</ele><time>2026-04-08T16:54:13Z</time></trkpt><trkpt lat="45.06435311492788" lon="10.159503142133046"><ele>30.0</ele><time>2026-04-08T16:54:14Z</time></trkpt><trkpt lat="45.06438074967481" lon="10.159391564739972"><ele>30.0</ele><time>2026-04-08T16:54:15Z</time></trkpt><trkpt lat="45.06440801472868" lon="10.159279431812568"><ele>30.0</ele><time>2026-04-08T16:54:16Z</time></trkpt><trkpt lat="45.06444157750167" lon="10.159168489723607"><ele>30.0</ele><time>2026-04-08T16:54:17Z</time></trkpt><trkpt lat="45.06447682834728" lon="10.159061919825618"><ele>30.0</ele><time>2026-04-08T16:54:18Z</time></trkpt><trkpt lat="45.06451204790116" lon="10.158952998021991"><ele>30.0</ele><time>2026-04-08T16:54:19Z</time></trkpt><trkpt lat="45.064544088900774" lon="10.15884128201584"><ele>30.0</ele><time>2026-04-08T16:54:20Z</time></trkpt><trkpt lat="45.064571601137374" lon="10.1587306904764"><ele>30.166666666666668</ele><time>2026-04-08T16:54:21Z</time></trkpt><trkpt lat="45.06460005293037" lon="10.15861929148064"><ele>30.333333333333336</ele><time>2026-04-08T16:54:22Z</time></trkpt><trkpt lat="45.06463150179718" lon="10.158509369646879"><ele>30.5</ele><time>2026-04-08T16:54:23Z</time></trkpt><trkpt lat="45.064661584912685" lon="10.158401851454634"><ele>30.666666666666668</ele><time>2026-04-08T16:54:24Z</time></trkpt><trkpt lat="45.0646963023663" lon="10.158294847833261"><ele>30.833333333333336</ele><time>2026-04-08T16:54:24.999Z</time></trkpt><trkpt lat="45.06472914453346" lon="10.158187741568243"><ele>31.0</ele><time>2026-04-08T16:54:25.999Z</time></trkpt><trkpt lat="45.06476261482486" lon="10.158078467315962"><ele>31.000000000000004</ele><time>2026-04-08T16:54:26.999Z</time></trkpt><trkpt lat="45.06479620661244" lon="10.157969263433756"><ele>31.0</ele><time>2026-04-08T16:54:27.999Z</time></trkpt><trkpt lat="45.064829465712855" lon="10.15786281926122"><ele>31.0</ele><time>2026-04-08T16:54:28.999Z</time></trkpt><trkpt lat="45.06486355758436" lon="10.157754981841197"><ele>31.0</ele><time>2026-04-08T16:54:29.999Z</time></trkpt><trkpt lat="45.06492740313869" lon="10.157673386665353"><ele>31.000000000000004</ele><time>2026-04-08T16:54:30.999Z</time></trkpt><trkpt lat="45.06496897423496" lon="10.157583217224424"><ele>31.0</ele><time>2026-04-08T16:54:31.999Z</time></trkpt><trkpt lat="45.065018134871124" lon="10.15751516205174"><ele>31.000000000000004</ele><time>2026-04-08T16:54:32.999Z</time></trkpt><trkpt lat="45.06507600774806" lon="10.157448545980206"><ele>31.0</ele><time>2026-04-08T16:54:33.999Z</time></trkpt><trkpt lat="45.06513731251887" lon="10.157380403457124"><ele>31.0</ele><time>2026-04-08T16:54:34.999Z</time></trkpt><trkpt lat="45.06520059735028" lon="10.15730912926074"><ele>31.0</ele><time>2026-04-08T16:54:35.999Z</time></trkpt><trkpt lat="45.065259049265975" lon="10.15723349607331"><ele>31.000000000000004</ele><time>2026-04-08T16:54:36.999Z</time></trkpt><trkpt lat="45.065304142022924" lon="10.1571323095184"><ele>31.0</ele><time>2026-04-08T16:54:37.999Z</time></trkpt><trkpt lat="45.065361809032105" lon="10.157050246735173"><ele>31.000000000000004</ele><time>2026-04-08T16:54:38.999Z</time></trkpt><trkpt lat="45.06541379658279" lon="10.15696257245066"><ele>31.0</ele><time>2026-04-08T16:54:39.999Z</time></trkpt><trkpt lat="45.0654601255201" lon="10.156867589216553"><ele>31.0</ele><time>2026-04-08T16:54:40.999Z</time></trkpt><trkpt lat="45.0654997346287" lon="10.15676546688871"><ele>31.0</ele><time>2026-04-08T16:54:41.999Z</time></trkpt><trkpt lat="45.06553640749658" lon="10.156661652135561"><ele>31.000000000000004</ele><time>2026-04-08T16:54:42.999Z</time></trkpt><trkpt lat="45.06557351892432" lon="10.156558201975885"><ele>31.0</ele><time>2026-04-08T16:54:43.999Z</time></trkpt><trkpt lat="45.06561121179156" lon="10.156456284177915"><ele>31.000000000000004</ele><time>2026-04-08T16:54:44.999Z</time></trkpt><trkpt lat="45.06564933608483" lon="10.156349155544374"><ele>31.0</ele><time>2026-04-08T16:54:45.999Z</time></trkpt><trkpt lat="45.06568485578165" lon="10.156245118664152"><ele>31.0</ele><time>2026-04-08T16:54:46.999Z</time></trkpt><trkpt lat="45.06572180842288" lon="10.156140950947295"><ele>31.0</ele><time>2026-04-08T16:54:47.999Z</time></trkpt><trkpt lat="45.06576271065337" lon="10.156038394964538"><ele>31.000000000000004</ele><time>2026-04-08T16:54:48.999Z</time></trkpt><trkpt lat="45.06581059861221" lon="10.155943295903569"><ele>31.0</ele><time>2026-04-08T16:54:49.999Z</time></trkpt><trkpt lat="45.06586417041607" lon="10.15585478383124"><ele>31.000000000000004</ele><time>2026-04-08T16:54:50.999Z</time></trkpt><trkpt lat="45.065923551647856" lon="10.155771500479643"><ele>31.0</ele><time>2026-04-08T16:54:51.999Z</time></trkpt><trkpt lat="45.06598227082015" lon="10.155691626758243"><ele>31.0</ele><time>2026-04-08T16:54:52.999Z</time></trkpt><trkpt lat="45.066038697522416" lon="10.155606499198425"><ele>31.0</ele><time>2026-04-08T16:54:53.999Z</time></trkpt><trkpt lat="45.06611077945123" lon="10.155539815647842"><ele>31.000000000000004</ele><time>2026-04-08T16:54:54.999Z</time></trkpt><trkpt lat="45.06616589226462" lon="10.155452672433874"><ele>31.0</ele><time>2026-04-08T16:54:55.999Z</time></trkpt><trkpt lat="45.06622070096423" lon="10.155363526790158"><ele>31.000000000000004</ele><time>2026-04-08T16:54:56.999Z</time></trkpt><trkpt lat="45.06627283866554" lon="10.15527083152974"><ele>31.0</ele><time>2026-04-08T16:54:57.999Z</time></trkpt><trkpt lat="45.066322090435705" lon="10.155175809198909"><ele>31.0</ele><time>2026-04-08T16:54:58.999Z</time></trkpt><trkpt lat="45.06637018822998" lon="10.155079662510007"><ele>31.0</ele><time>2026-04-08T16:54:59.999Z</time></trkpt><trkpt lat="45.06641783651531" lon="10.154981617993228"><ele>31.000000000000004</ele><time>2026-04-08T16:55:00.999Z</time></trkpt><trkpt lat="45.06646566330322" lon="10.154883206175372"><ele>31.0</ele><time>2026-04-08T16:55:01.999Z</time></trkpt><trkpt lat="45.066500468786735" lon="10.15477318072684"><ele>31.000000000000004</ele><time>2026-04-08T16:55:02.999Z</time></trkpt><trkpt lat="45.06656136194993" lon="10.154687998475827"><ele>31.0</ele><time>2026-04-08T16:55:03.999Z</time></trkpt><trkpt lat="45.06661014636711" lon="10.15459056174022"><ele>31.0</ele><time>2026-04-08T16:55:04.999Z</time></trkpt><trkpt lat="45.06665845996871" lon="10.154496143858388"><ele>31.0</ele><time>2026-04-08T16:55:05.999Z</time></trkpt><trkpt lat="45.06670896961155" lon="10.154407693902963"><ele>31.000000000000004</ele><time>2026-04-08T16:55:06.999Z</time></trkpt><trkpt lat="45.066757801904366" lon="10.154312182044693"><ele>31.0</ele><time>2026-04-08T16:55:07.999Z</time></trkpt><trkpt lat="45.06683104784293" lon="10.154252197690457"><ele>31.000000000000004</ele><time>2026-04-08T16:55:08.999Z</time></trkpt><trkpt lat="45.06690753676501" lon="10.154200097825589"><ele>31.0</ele><time>2026-04-08T16:55:09.999Z</time></trkpt><trkpt lat="45.066990842664346" lon="10.154170349022335"><ele>31.0</ele><time>2026-04-08T16:55:10.999Z</time></trkpt><trkpt lat="45.06705708124203" lon="10.15409928073914"><ele>31.0</ele><time>2026-04-08T16:55:11.999Z</time></trkpt><trkpt lat="45.067129482599555" lon="10.15404281040187"><ele>31.000000000000004</ele><time>2026-04-08T16:55:12.999Z</time></trkpt><trkpt lat="45.067198231635174" lon="10.153976143350343"><ele>31.0</ele><time>2026-04-08T16:55:13.999Z</time></trkpt><trkpt lat="45.0672652224812" lon="10.153905734357272"><ele>31.000000000000004</ele><time>2026-04-08T16:55:14.999Z</time></trkpt><trkpt lat="45.067330258653634" lon="10.153832598794446"><ele>31.0</ele><time>2026-04-08T16:55:15.999Z</time></trkpt><trkpt lat="45.06739488938715" lon="10.153755686297165"><ele>31.0</ele><time>2026-04-08T16:55:16.999Z</time></trkpt><trkpt lat="45.067455507671035" lon="10.15367498538395"><ele>31.0</ele><time>2026-04-08T16:55:17.999Z</time></trkpt><trkpt lat="45.06751134911035" lon="10.153587865584953"><ele>31.000000000000004</ele><time>2026-04-08T16:55:18.998Z</time></trkpt><trkpt lat="45.067565415626184" lon="10.15349532808682"><ele>31.0</ele><time>2026-04-08T16:55:19.998Z</time></trkpt><trkpt lat="45.0676187350172" lon="10.153403921008254"><ele>31.000000000000004</ele><time>2026-04-08T16:55:20.998Z</time></trkpt><trkpt lat="45.06766946912735" lon="10.153309084916607"><ele>31.0</ele><time>2026-04-08T16:55:21.998Z</time></trkpt><trkpt lat="45.067720118641276" lon="10.153216548215758"><ele>31.0</ele><time>2026-04-08T16:55:22.998Z</time></trkpt><trkpt lat="45.06777430285213" lon="10.153125054151129"><ele>31.0</ele><time>2026-04-08T16:55:23.998Z</time></trkpt><trkpt lat="45.06782609097227" lon="10.153032032453705"><ele>31.000000000000004</ele><time>2026-04-08T16:55:24.998Z</time></trkpt><trkpt lat="45.0678724099412" lon="10.152932600560527"><ele>31.0</ele><time>2026-04-08T16:55:25.998Z</time></trkpt><trkpt lat="45.067901239470395" lon="10.15281917635405"><ele>31.000000000000004</ele><time>2026-04-08T16:55:26.998Z</time></trkpt><trkpt lat="45.067920635825935" lon="10.15269499362238"><ele>31.0</ele><time>2026-04-08T16:55:27.998Z</time></trkpt><trkpt lat="45.06788772459507" lon="10.152571856517959"><ele>31.0</ele><time>2026-04-08T16:55:28.998Z</time></trkpt><trkpt lat="45.06785918728149" lon="10.152453296494865"><ele>31.0</ele><time>2026-04-08T16:55:29.998Z</time></trkpt><trkpt lat="45.06782341888158" lon="10.152339222448395"><ele>31.000000000000004</ele><time>2026-04-08T16:55:30.998Z</time></trkpt><trkpt lat="45.067793040752875" lon="10.152227557235262"><ele>31.0</ele><time>2026-04-08T16:55:31.998Z</time></trkpt><trkpt lat="45.06777451406939" lon="10.152110616405647"><ele>31.000000000000004</ele><time>2026-04-08T16:55:32.998Z</time></trkpt><trkpt lat="45.06776253300542" lon="10.15198752057722"><ele>31.0</ele><time>2026-04-08T16:55:33.998Z</time></trkpt><trkpt lat="45.06777324661509" lon="10.151865664833622"><ele>31.0</ele><time>2026-04-08T16:55:34.998Z</time></trkpt><trkpt lat="45.067760690183114" lon="10.151742209409711"><ele>31.0</ele><time>2026-04-08T16:55:35.998Z</time></trkpt><trkpt lat="45.06779220320358" lon="10.151626554249358"><ele>31.000000000000004</ele><time>2026-04-08T16:55:36.998Z</time></trkpt><trkpt lat="45.067827126705176" lon="10.151518046693138"><ele>31.0</ele><time>2026-04-08T16:55:37.998Z</time></trkpt><trkpt lat="45.067867698500386" lon="10.151415187094232"><ele>31.166666666666668</ele><time>2026-04-08T16:55:38.998Z</time></trkpt><trkpt lat="45.06791457820816" lon="10.151314822632422"><ele>31.333333333333336</ele><time>2026-04-08T16:55:39.998Z</time></trkpt><trkpt lat="45.067962032692925" lon="10.151214673070172"><ele>31.5</ele><time>2026-04-08T16:55:40.998Z</time></trkpt><trkpt lat="45.06801039673761" lon="10.151114971777282"><ele>31.666666666666664</ele><time>2026-04-08T16:55:41.998Z</time></trkpt><trkpt lat="45.068059994332216" lon="10.151011994988627"><ele>31.833333333333332</ele><time>2026-04-08T16:55:42.998Z</time></trkpt><trkpt lat="45.06810750398314" lon="10.150912437863667"><ele>32.0</ele><time>2026-04-08T16:55:43.998Z</time></trkpt><trkpt lat="45.06815433393308" lon="10.150807755000228"><ele>31.999999999999996</ele><time>2026-04-08T16:55:44.998Z</time></trkpt><trkpt lat="45.068196456953885" lon="10.15069749854561"><ele>32.0</ele><time>2026-04-08T16:55:45.998Z</time></trkpt><trkpt lat="45.06823692717521" lon="10.150590345375328"><ele>32.0</ele><time>2026-04-08T16:55:46.998Z</time></trkpt><trkpt lat="45.068262858447085" lon="10.150473079281616"><ele>32.0</ele><time>2026-04-08T16:55:47.998Z</time></trkpt><trkpt lat="45.06830247056395" lon="10.150367275971185"><ele>31.999999999999996</ele><time>2026-04-08T16:55:48.998Z</time></trkpt><trkpt lat="45.06835952688387" lon="10.150274758254605"><ele>32.0</ele><time>2026-04-08T16:55:49.998Z</time></trkpt><trkpt lat="45.06840246926906" lon="10.150170771613716"><ele>31.999999999999996</ele><time>2026-04-08T16:55:50.998Z</time></trkpt><trkpt lat="45.068445731697324" lon="10.15006457806188"><ele>32.0</ele><time>2026-04-08T16:55:51.998Z</time></trkpt><trkpt lat="45.06848788938041" lon="10.149960389125038"><ele>32.0</ele><time>2026-04-08T16:55:52.998Z</time></trkpt><trkpt lat="45.06852907713576" lon="10.149853501423758"><ele>32.0</ele><time>2026-04-08T16:55:53.998Z</time></trkpt><trkpt lat="45.06856717408076" lon="10.149740107144728"><ele>31.999999999999996</ele><time>2026-04-08T16:55:54.998Z</time></trkpt><trkpt lat="45.06859694981263" lon="10.1496225770854"><ele>32.0</ele><time>2026-04-08T16:55:55.998Z</time></trkpt><trkpt lat="45.06860770875359" lon="10.149496571927138"><ele>31.999999999999996</ele><time>2026-04-08T16:55:56.998Z</time></trkpt><trkpt lat="45.06862953797577" lon="10.149375313597677"><ele>32.0</ele><time>2026-04-08T16:55:57.998Z</time></trkpt><trkpt lat="45.06866721301719" lon="10.149260810430615"><ele>32.0</ele><time>2026-04-08T16:55:59Z</time></trkpt><trkpt lat="45.06869282457061" lon="10.149144661347261"><ele>32.0</ele><time>2026-04-08T16:56:00Z</time></trkpt><trkpt lat="45.06872056516919" lon="10.149028102276747"><ele>31.999999999999996</ele><time>2026-04-08T16:56:01Z</time></trkpt><trkpt lat="45.06874801089417" lon="10.148913988550317"><ele>32.0</ele><time>2026-04-08T16:56:02Z</time></trkpt><trkpt lat="45.0687758940584" lon="10.148798056020858"><ele>31.999999999999996</ele><time>2026-04-08T16:56:03Z</time></trkpt><trkpt lat="45.068803450814634" lon="10.148683480628401"><ele>32.0</ele><time>2026-04-08T16:56:04Z</time></trkpt><trkpt lat="45.06882809986046" lon="10.148563103450055"><ele>32.0</ele><time>2026-04-08T16:56:05Z</time></trkpt><trkpt lat="45.06884486657588" lon="10.14844400001706"><ele>32.0</ele><time>2026-04-08T16:56:06Z</time></trkpt><trkpt lat="45.06884064557443" lon="10.148318405664488"><ele>31.999999999999996</ele><time>2026-04-08T16:56:07Z</time></trkpt><trkpt lat="45.06885029445601" lon="10.148198070936049"><ele>32.0</ele><time>2026-04-08T16:56:08Z</time></trkpt><trkpt lat="45.068857219872854" lon="10.148075711705152"><ele>32.166666666666664</ele><time>2026-04-08T16:56:09Z</time></trkpt><trkpt lat="45.06888245507984" lon="10.14795675882791"><ele>32.33333333333333</ele><time>2026-04-08T16:56:10Z</time></trkpt><trkpt lat="45.06889138612462" lon="10.147835246292042"><ele>32.5</ele><time>2026-04-08T16:56:11Z</time></trkpt><trkpt lat="45.06889855166132" lon="10.14771351826314"><ele>32.666666666666664</ele><time>2026-04-08T16:56:12Z</time></trkpt><trkpt lat="45.06890518347268" lon="10.14759495441912"><ele>32.833333333333336</ele><time>2026-04-08T16:56:13Z</time></trkpt><trkpt lat="45.06890766282113" lon="10.147469080184205"><ele>33.0</ele><time>2026-04-08T16:56:14Z</time></trkpt><trkpt lat="45.068899818942754" lon="10.14734305666778"><ele>33.0</ele><time>2026-04-08T16:56:15Z</time></trkpt><trkpt lat="45.068859329488774" lon="10.147226796435048"><ele>33.0</ele><time>2026-04-08T16:56:16Z</time></trkpt><trkpt lat="45.06882715907791" lon="10.147112862706079"><ele>33.0</ele><time>2026-04-08T16:56:17Z</time></trkpt><trkpt lat="45.068784469255256" lon="10.147003773697032"><ele>33.0</ele><time>2026-04-08T16:56:18Z</time></trkpt><trkpt lat="45.06876300277272" lon="10.14688347250967"><ele>33.0</ele><time>2026-04-08T16:56:19Z</time></trkpt><trkpt lat="45.068741538559166" lon="10.146770407583483"><ele>33.0</ele><time>2026-04-08T16:56:20Z</time></trkpt><trkpt lat="45.06873827628973" lon="10.146653724277684"><ele>33.0</ele><time>2026-04-08T16:56:21Z</time></trkpt><trkpt lat="45.06874932367704" lon="10.146538668394433"><ele>33.0</ele><time>2026-04-08T16:56:22Z</time></trkpt><trkpt lat="45.06876779440773" lon="10.146422527392337"><ele>33.0</ele><time>2026-04-08T16:56:23Z</time></trkpt><trkpt lat="45.06879805438166" lon="10.146307407749273"><ele>33.0</ele><time>2026-04-08T16:56:24Z</time></trkpt><trkpt lat="45.068846282361385" lon="10.146217362946821"><ele>33.0</ele><time>2026-04-08T16:56:25Z</time></trkpt><trkpt lat="45.068899133183244" lon="10.146120523617164"><ele>33.0</ele><time>2026-04-08T16:56:26Z</time></trkpt><trkpt lat="45.06895443535291" lon="10.146020796971728"><ele>33.0</ele><time>2026-04-08T16:56:27Z</time></trkpt><trkpt lat="45.06899868999808" lon="10.14590808735535"><ele>33.0</ele><time>2026-04-08T16:56:28Z</time></trkpt><trkpt lat="45.06903273783626" lon="10.145787741657648"><ele>33.0</ele><time>2026-04-08T16:56:28.999Z</time></trkpt><trkpt lat="45.069043757435814" lon="10.145657605790698"><ele>33.0</ele><time>2026-04-08T16:56:29.999Z</time></trkpt><trkpt lat="45.06904682896066" lon="10.145528007206993"><ele>33.0</ele><time>2026-04-08T16:56:30.999Z</time></trkpt><trkpt lat="45.0690393413435" lon="10.14540021118686"><ele>32.833333333333336</ele><time>2026-04-08T16:56:31.999Z</time></trkpt><trkpt lat="45.06904167232551" lon="10.145280378570428"><ele>32.666666666666664</ele><time>2026-04-08T16:56:32.999Z</time></trkpt><trkpt lat="45.069045336221585" lon="10.145159623258651"><ele>32.5</ele><time>2026-04-08T16:56:33.999Z</time></trkpt><trkpt lat="45.06905094080808" lon="10.145038909093962"><ele>32.33333333333333</ele><time>2026-04-08T16:56:34.999Z</time></trkpt><trkpt lat="45.06905753987713" lon="10.144921596265172"><ele>32.166666666666664</ele><time>2026-04-08T16:56:35.999Z</time></trkpt><trkpt lat="45.06906572789303" lon="10.144800992348612"><ele>32.0</ele><time>2026-04-08T16:56:36.999Z</time></trkpt><trkpt lat="45.06907425800957" lon="10.144681392698555"><ele>31.999999999999996</ele><time>2026-04-08T16:56:37.999Z</time></trkpt><trkpt lat="45.069082050956546" lon="10.144560978697495"><ele>32.0</ele><time>2026-04-08T16:56:38.999Z</time></trkpt><trkpt lat="45.06908899132856" lon="10.144440142696684"><ele>32.0</ele><time>2026-04-08T16:56:39.999Z</time></trkpt><trkpt lat="45.06909625880475" lon="10.144323025327989"><ele>32.0</ele><time>2026-04-08T16:56:40.999Z</time></trkpt><trkpt lat="45.06910906544541" lon="10.144207759944369"><ele>31.999999999999996</ele><time>2026-04-08T16:56:41.999Z</time></trkpt><trkpt lat="45.06912762021763" lon="10.144094330517062"><ele>32.0</ele><time>2026-04-08T16:56:42.999Z</time></trkpt><trkpt lat="45.06916706843495" lon="10.144000491968775"><ele>31.666666666666664</ele><time>2026-04-08T16:56:43.999Z</time></trkpt><trkpt lat="45.06922785290985" lon="10.1439316779227"><ele>31.333333333333332</ele><time>2026-04-08T16:56:44.999Z</time></trkpt><trkpt lat="45.069296978427985" lon="10.1438619511746"><ele>31.0</ele><time>2026-04-08T16:56:45.999Z</time></trkpt><trkpt lat="45.06937148248169" lon="10.143810423001998"><ele>30.666666666666664</ele><time>2026-04-08T16:56:46.999Z</time></trkpt><trkpt lat="45.06944814731154" lon="10.14375553986359"><ele>30.333333333333332</ele><time>2026-04-08T16:56:47.999Z</time></trkpt><trkpt lat="45.06952411734517" lon="10.143702963793903"><ele>30.0</ele><time>2026-04-08T16:56:48.999Z</time></trkpt><trkpt lat="45.06959905149575" lon="10.143649500966088"><ele>30.0</ele><time>2026-04-08T16:56:49.999Z</time></trkpt><trkpt lat="45.06967489896983" lon="10.143594242621162"><ele>30.0</ele><time>2026-04-08T16:56:50.999Z</time></trkpt><trkpt lat="45.069748136644485" lon="10.143536823694353"><ele>30.0</ele><time>2026-04-08T16:56:51.999Z</time></trkpt><trkpt lat="45.06981032210707" lon="10.1434516168933"><ele>30.0</ele><time>2026-04-08T16:56:52.999Z</time></trkpt><trkpt lat="45.06987726523185" lon="10.14337504519638"><ele>30.0</ele><time>2026-04-08T16:56:53.999Z</time></trkpt><trkpt lat="45.06993586059853" lon="10.143291779764802"><ele>30.0</ele><time>2026-04-08T16:56:54.999Z</time></trkpt><trkpt lat="45.06999093850824" lon="10.143201045200337"><ele>30.0</ele><time>2026-04-08T16:56:55.999Z</time></trkpt><trkpt lat="45.07004251092285" lon="10.143106452641442"><ele>30.0</ele><time>2026-04-08T16:56:56.999Z</time></trkpt><trkpt lat="45.07010569668034" lon="10.143027409192074"><ele>30.0</ele><time>2026-04-08T16:56:57.999Z</time></trkpt><trkpt lat="45.07015713317757" lon="10.142935207498192"><ele>30.0</ele><time>2026-04-08T16:56:58.999Z</time></trkpt><trkpt lat="45.07020895369019" lon="10.142843440863755"><ele>30.0</ele><time>2026-04-08T16:56:59.999Z</time></trkpt><trkpt lat="45.07025974409732" lon="10.142750258324973"><ele>30.0</ele><time>2026-04-08T16:57:00.999Z</time></trkpt><trkpt lat="45.0703066357742" lon="10.142645587199311"><ele>30.0</ele><time>2026-04-08T16:57:01.999Z</time></trkpt><trkpt lat="45.07033672724472" lon="10.142524257295824"><ele>30.0</ele><time>2026-04-08T16:57:02.999Z</time></trkpt><trkpt lat="45.07032347442862" lon="10.142389733704272"><ele>30.0</ele><time>2026-04-08T16:57:03.999Z</time></trkpt><trkpt lat="45.070264477734455" lon="10.142275597548744"><ele>30.0</ele><time>2026-04-08T16:57:04.999Z</time></trkpt><trkpt lat="45.07020135222153" lon="10.142185509912949"><ele>30.0</ele><time>2026-04-08T16:57:05.999Z</time></trkpt><trkpt lat="45.07014905018199" lon="10.142097363594022"><ele>30.5</ele><time>2026-04-08T16:57:06.999Z</time></trkpt><trkpt lat="45.070157183248824" lon="10.141980308898203"><ele>31.0</ele><time>2026-04-08T16:57:07.999Z</time></trkpt><trkpt lat="45.07018261302181" lon="10.141872474730032"><ele>31.5</ele><time>2026-04-08T16:57:08.999Z</time></trkpt><trkpt lat="45.07021539990835" lon="10.141767152770024"><ele>32.0</ele><time>2026-04-08T16:57:09.999Z</time></trkpt><trkpt lat="45.07022291575341" lon="10.141649817441378"><ele>32.5</ele><time>2026-04-08T16:57:10.999Z</time></trkpt><trkpt lat="45.070256455207456" lon="10.14154586547731"><ele>33.0</ele><time>2026-04-08T16:57:11.999Z</time></trkpt><trkpt lat="45.07021495248034" lon="10.141425696435887"><ele>33.166666666666664</ele><time>2026-04-08T16:57:12.999Z</time></trkpt><trkpt lat="45.07017739153646" lon="10.141318699710736"><ele>33.333333333333336</ele><time>2026-04-08T16:57:13.999Z</time></trkpt><trkpt lat="45.07013270928043" lon="10.141216230978058"><ele>33.5</ele><time>2026-04-08T16:57:14.999Z</time></trkpt><trkpt lat="45.07008962963327" lon="10.14111987505547"><ele>33.66666666666667</ele><time>2026-04-08T16:57:15.999Z</time></trkpt><trkpt lat="45.07004777090923" lon="10.14102132527823"><ele>33.833333333333336</ele><time>2026-04-08T16:57:16.999Z</time></trkpt><trkpt lat="45.070004794728064" lon="10.140925587781767"><ele>34.0</ele><time>2026-04-08T16:57:17.999Z</time></trkpt><trkpt lat="45.069954899592304" lon="10.140831248744986"><ele>33.833333333333336</ele><time>2026-04-08T16:57:18.999Z</time></trkpt><trkpt lat="45.06990244054382" lon="10.140744622430956"><ele>33.66666666666667</ele><time>2026-04-08T16:57:19.999Z</time></trkpt><trkpt lat="45.06985041715771" lon="10.140653174449033"><ele>33.5</ele><time>2026-04-08T16:57:20.999Z</time></trkpt><trkpt lat="45.069803741849455" lon="10.140557321623877"><ele>33.333333333333336</ele><time>2026-04-08T16:57:21.999Z</time></trkpt><trkpt lat="45.069759202376005" lon="10.140458548113985"><ele>33.166666666666664</ele><time>2026-04-08T16:57:22.998Z</time></trkpt><trkpt lat="45.06971378552467" lon="10.140357461828296"><ele>33.0</ele><time>2026-04-08T16:57:23.998Z</time></trkpt><trkpt lat="45.06967231882476" lon="10.140256857333274"><ele>32.833333333333336</ele><time>2026-04-08T16:57:24.998Z</time></trkpt><trkpt lat="45.06963727014747" lon="10.1401495305355"><ele>32.666666666666664</ele><time>2026-04-08T16:57:25.998Z</time></trkpt><trkpt lat="45.0696030836063" lon="10.14004051158277"><ele>32.5</ele><time>2026-04-08T16:57:26.998Z</time></trkpt><trkpt lat="45.06957252996874" lon="10.13993042242177"><ele>32.33333333333333</ele><time>2026-04-08T16:57:27.998Z</time></trkpt><trkpt lat="45.06954234309592" lon="10.139823184692077"><ele>32.166666666666664</ele><time>2026-04-08T16:57:28.998Z</time></trkpt><trkpt lat="45.069505699459285" lon="10.139713687071204"><ele>32.0</ele><time>2026-04-08T16:57:29.998Z</time></trkpt><trkpt lat="45.06946913723879" lon="10.139606746556693"><ele>31.833333333333332</ele><time>2026-04-08T16:57:30.998Z</time></trkpt><trkpt lat="45.069439022502024" lon="10.139496525908337"><ele>31.666666666666664</ele><time>2026-04-08T16:57:31.998Z</time></trkpt><trkpt lat="45.06942189026167" lon="10.139380014974444"><ele>31.5</ele><time>2026-04-08T16:57:32.998Z</time></trkpt><trkpt lat="45.069419016831496" lon="10.139259629043883"><ele>31.333333333333336</ele><time>2026-04-08T16:57:33.998Z</time></trkpt><trkpt lat="45.06942374552813" lon="10.139139980025087"><ele>31.166666666666668</ele><time>2026-04-08T16:57:34.998Z</time></trkpt><trkpt lat="45.0694337569869" lon="10.139020246107597"><ele>31.0</ele><time>2026-04-08T16:57:35.998Z</time></trkpt><trkpt lat="45.069441856955685" lon="10.138902082883273"><ele>31.000000000000004</ele><time>2026-04-08T16:57:36.998Z</time></trkpt><trkpt lat="45.06945016939297" lon="10.138782540461964"><ele>31.0</ele><time>2026-04-08T16:57:37.998Z</time></trkpt><trkpt lat="45.0694538732229" lon="10.138662507803247"><ele>31.0</ele><time>2026-04-08T16:57:38.998Z</time></trkpt><trkpt lat="45.06945769828265" lon="10.138540994345757"><ele>31.0</ele><time>2026-04-08T16:57:39.998Z</time></trkpt><trkpt lat="45.06946048130106" lon="10.13842085989085"><ele>31.000000000000004</ele><time>2026-04-08T16:57:40.998Z</time></trkpt><trkpt lat="45.06946252947819" lon="10.138300841304156"><ele>31.0</ele><time>2026-04-08T16:57:41.998Z</time></trkpt><trkpt lat="45.0694646333752" lon="10.138178973175709"><ele>31.166666666666668</ele><time>2026-04-08T16:57:42.998Z</time></trkpt><trkpt lat="45.069465297640626" lon="10.138055869677366"><ele>31.333333333333336</ele><time>2026-04-08T16:57:43.998Z</time></trkpt><trkpt lat="45.06946839453542" lon="10.137933222163548"><ele>31.5</ele><time>2026-04-08T16:57:44.998Z</time></trkpt><trkpt lat="45.06947469491221" lon="10.137809630456927"><ele>31.666666666666664</ele><time>2026-04-08T16:57:45.998Z</time></trkpt><trkpt lat="45.06948257265326" lon="10.137686822419855"><ele>31.833333333333332</ele><time>2026-04-08T16:57:46.998Z</time></trkpt><trkpt lat="45.06948781865703" lon="10.137564479104972"><ele>32.0</ele><time>2026-04-08T16:57:47.998Z</time></trkpt><trkpt lat="45.06949396622445" lon="10.137441974104547"><ele>31.666666666666664</ele><time>2026-04-08T16:57:48.998Z</time></trkpt><trkpt lat="45.06950283410447" lon="10.137320184878607"><ele>31.333333333333332</ele><time>2026-04-08T16:57:49.998Z</time></trkpt><trkpt lat="45.06951383509322" lon="10.137196177233767"><ele>31.0</ele><time>2026-04-08T16:57:50.998Z</time></trkpt><trkpt lat="45.069527472983765" lon="10.137075021280747"><ele>30.666666666666664</ele><time>2026-04-08T16:57:51.998Z</time></trkpt><trkpt lat="45.06954247314656" lon="10.136952387886097"><ele>30.333333333333332</ele><time>2026-04-08T16:57:52.998Z</time></trkpt><trkpt lat="45.06955652073796" lon="10.136828973426285"><ele>30.0</ele><time>2026-04-08T16:57:53.998Z</time></trkpt><trkpt lat="45.06957632495043" lon="10.136708449123168"><ele>30.0</ele><time>2026-04-08T16:57:54.998Z</time></trkpt><trkpt lat="45.069623730123254" lon="10.136604854910308"><ele>30.0</ele><time>2026-04-08T16:57:55.998Z</time></trkpt><trkpt lat="45.06966850362859" lon="10.136499347822246"><ele>30.0</ele><time>2026-04-08T16:57:56.998Z</time></trkpt><trkpt lat="45.06970699267171" lon="10.136387760753196"><ele>30.0</ele><time>2026-04-08T16:57:57.998Z</time></trkpt><trkpt lat="45.069730845262036" lon="10.136267589250027"><ele>30.0</ele><time>2026-04-08T16:57:58.998Z</time></trkpt><trkpt lat="45.06976532967982" lon="10.13615347635702"><ele>30.0</ele><time>2026-04-08T16:57:59.998Z</time></trkpt><trkpt lat="45.06979958461869" lon="10.136041715444906"><ele>30.166666666666668</ele><time>2026-04-08T16:58:00.998Z</time></trkpt><trkpt lat="45.06983391512708" lon="10.135928403323211"><ele>30.333333333333336</ele><time>2026-04-08T16:58:01.998Z</time></trkpt><trkpt lat="45.06986658172376" lon="10.135813877890811"><ele>30.5</ele><time>2026-04-08T16:58:02.998Z</time></trkpt><trkpt lat="45.069897070511196" lon="10.135697657595053"><ele>30.666666666666668</ele><time>2026-04-08T16:58:03.998Z</time></trkpt><trkpt lat="45.069925649786576" lon="10.135582395420032"><ele>30.833333333333336</ele><time>2026-04-08T16:58:05Z</time></trkpt><trkpt lat="45.0699532313468" lon="10.135465078790745"><ele>31.0</ele><time>2026-04-08T16:58:06Z</time></trkpt><trkpt lat="45.06997921369786" lon="10.135348779488279"><ele>31.000000000000004</ele><time>2026-04-08T16:58:07Z</time></trkpt><trkpt lat="45.07000082738847" lon="10.135230564975526"><ele>31.0</ele><time>2026-04-08T16:58:08Z</time></trkpt><trkpt lat="45.07001497795598" lon="10.13510808473829"><ele>31.0</ele><time>2026-04-08T16:58:09Z</time></trkpt><trkpt lat="45.07001650738008" lon="10.134985387292861"><ele>31.0</ele><time>2026-04-08T16:58:10Z</time></trkpt><trkpt lat="45.07000657841971" lon="10.134860029703377"><ele>31.000000000000004</ele><time>2026-04-08T16:58:11Z</time></trkpt><trkpt lat="45.06999359411608" lon="10.134734635611046"><ele>31.0</ele><time>2026-04-08T16:58:12Z</time></trkpt><trkpt lat="45.0699892798874" lon="10.134611712837716"><ele>31.166666666666668</ele><time>2026-04-08T16:58:13Z</time></trkpt><trkpt lat="45.06999182034446" lon="10.134487313482495"><ele>31.333333333333336</ele><time>2026-04-08T16:58:14Z</time></trkpt><trkpt lat="45.07002827456657" lon="10.134371931023843"><ele>31.5</ele><time>2026-04-08T16:58:15Z</time></trkpt><trkpt lat="45.07006662726544" lon="10.134263044192858"><ele>31.666666666666664</ele><time>2026-04-08T16:58:16Z</time></trkpt><trkpt lat="45.070098548874405" lon="10.134146277933805"><ele>31.833333333333332</ele><time>2026-04-08T16:58:17Z</time></trkpt><trkpt lat="45.07015637988068" lon="10.134046762567603"><ele>32.0</ele><time>2026-04-08T16:58:18Z</time></trkpt><trkpt lat="45.07020503463948" lon="10.133939886177496"><ele>32.166666666666664</ele><time>2026-04-08T16:58:19Z</time></trkpt><trkpt lat="45.07025226658857" lon="10.13383138421659"><ele>32.33333333333333</ele><time>2026-04-08T16:58:20Z</time></trkpt><trkpt lat="45.07029820967611" lon="10.133725104320021"><ele>32.5</ele><time>2026-04-08T16:58:21Z</time></trkpt><trkpt lat="45.070340973822155" lon="10.133618233752896"><ele>32.666666666666664</ele><time>2026-04-08T16:58:22Z</time></trkpt><trkpt lat="45.07038431291335" lon="10.13351156130852"><ele>32.833333333333336</ele><time>2026-04-08T16:58:23Z</time></trkpt><trkpt lat="45.07042560768214" lon="10.133401495912317"><ele>33.0</ele><time>2026-04-08T16:58:24Z</time></trkpt><trkpt lat="45.07046261635218" lon="10.13329023635505"><ele>32.833333333333336</ele><time>2026-04-08T16:58:25Z</time></trkpt><trkpt lat="45.07049887684565" lon="10.133176611470628"><ele>32.666666666666664</ele><time>2026-04-08T16:58:26Z</time></trkpt><trkpt lat="45.07053195823362" lon="10.133061115496032"><ele>32.5</ele><time>2026-04-08T16:58:27Z</time></trkpt><trkpt lat="45.07056204218855" lon="10.132946453226896"><ele>32.33333333333333</ele><time>2026-04-08T16:58:28Z</time></trkpt><trkpt lat="45.0705899256528" lon="10.132831260976793"><ele>32.166666666666664</ele><time>2026-04-08T16:58:29Z</time></trkpt><trkpt lat="45.07061859281764" lon="10.132714672037023"><ele>32.0</ele><time>2026-04-08T16:58:30Z</time></trkpt><trkpt lat="45.07064543118227" lon="10.132599445184834"><ele>31.999999999999996</ele><time>2026-04-08T16:58:31Z</time></trkpt><trkpt lat="45.07067398617916" lon="10.132481276209365"><ele>32.0</ele><time>2026-04-08T16:58:32Z</time></trkpt><trkpt lat="45.07069897575117" lon="10.132363739284926"><ele>32.0</ele><time>2026-04-08T16:58:33Z</time></trkpt><trkpt lat="45.07072576611498" lon="10.13224577129955"><ele>32.0</ele><time>2026-04-08T16:58:33.999Z</time></trkpt><trkpt lat="45.07075284561347" lon="10.13212916045964"><ele>31.999999999999996</ele><time>2026-04-08T16:58:34.999Z</time></trkpt><trkpt lat="45.0707812746726" lon="10.132012097766157"><ele>32.0</ele><time>2026-04-08T16:58:35.999Z</time></trkpt><trkpt lat="45.07080784630463" lon="10.131894096955477"><ele>31.833333333333332</ele><time>2026-04-08T16:58:36.999Z</time></trkpt><trkpt lat="45.070837709185156" lon="10.13177932518685"><ele>31.666666666666664</ele><time>2026-04-08T16:58:37.999Z</time></trkpt><trkpt lat="45.07086576204501" lon="10.13166190562194"><ele>31.5</ele><time>2026-04-08T16:58:38.999Z</time></trkpt><trkpt lat="45.070893139114965" lon="10.131543952143588"><ele>31.333333333333336</ele><time>2026-04-08T16:58:39.999Z</time></trkpt><trkpt lat="45.07092086682904" lon="10.13142581033932"><ele>31.166666666666668</ele><time>2026-04-08T16:58:40.999Z</time></trkpt><trkpt lat="45.070946098585004" lon="10.131308511060984"><ele>31.0</ele><time>2026-04-08T16:58:41.999Z</time></trkpt><trkpt lat="45.0709731833862" lon="10.131193621845819"><ele>31.000000000000004</ele><time>2026-04-08T16:58:42.999Z</time></trkpt><trkpt lat="45.07100132626851" lon="10.131076128252815"><ele>31.0</ele><time>2026-04-08T16:58:43.999Z</time></trkpt><trkpt lat="45.071030077090285" lon="10.130959113463692"><ele>31.0</ele><time>2026-04-08T16:58:44.999Z</time></trkpt><trkpt lat="45.07105928738275" lon="10.13084377310915"><ele>31.0</ele><time>2026-04-08T16:58:45.999Z</time></trkpt><trkpt lat="45.07108765043773" lon="10.13072470245754"><ele>31.000000000000004</ele><time>2026-04-08T16:58:46.999Z</time></trkpt><trkpt lat="45.07111331229245" lon="10.13060584273409"><ele>31.0</ele><time>2026-04-08T16:58:47.999Z</time></trkpt><trkpt lat="45.07113923510679" lon="10.130486248050872"><ele>31.000000000000004</ele><time>2026-04-08T16:58:48.999Z</time></trkpt><trkpt lat="45.07116989070817" lon="10.130367923413395"><ele>31.0</ele><time>2026-04-08T16:58:49.999Z</time></trkpt><trkpt lat="45.07119587858799" lon="10.130250722818579"><ele>31.0</ele><time>2026-04-08T16:58:50.999Z</time></trkpt><trkpt lat="45.07122384727265" lon="10.130134256438058"><ele>31.0</ele><time>2026-04-08T16:58:51.999Z</time></trkpt><trkpt lat="45.07124872660109" lon="10.130016510633528"><ele>31.000000000000004</ele><time>2026-04-08T16:58:52.999Z</time></trkpt><trkpt lat="45.07127677278209" lon="10.129901301201325"><ele>31.0</ele><time>2026-04-08T16:58:53.999Z</time></trkpt><trkpt lat="45.07130532204473" lon="10.129784467238713"><ele>31.000000000000004</ele><time>2026-04-08T16:58:54.999Z</time></trkpt><trkpt lat="45.071331618571044" lon="10.129665845138"><ele>31.0</ele><time>2026-04-08T16:58:55.999Z</time></trkpt><trkpt lat="45.071356406766576" lon="10.129545459516994"><ele>31.0</ele><time>2026-04-08T16:58:56.999Z</time></trkpt><trkpt lat="45.07138677780016" lon="10.12943033326986"><ele>31.0</ele><time>2026-04-08T16:58:57.999Z</time></trkpt><trkpt lat="45.07141498906968" lon="10.129311003104988"><ele>31.000000000000004</ele><time>2026-04-08T16:58:58.999Z</time></trkpt><trkpt lat="45.07144474413778" lon="10.129193238558273"><ele>31.0</ele><time>2026-04-08T16:58:59.999Z</time></trkpt><trkpt lat="45.07147274046174" lon="10.129075686428463"><ele>31.000000000000004</ele><time>2026-04-08T16:59:00.999Z</time></trkpt><trkpt lat="45.071499664272366" lon="10.128959248310338"><ele>31.0</ele><time>2026-04-08T16:59:01.999Z</time></trkpt><trkpt lat="45.07152748857139" lon="10.128840971265914"><ele>31.0</ele><time>2026-04-08T16:59:02.999Z</time></trkpt><trkpt lat="45.07155391375767" lon="10.128724953779072"><ele>31.0</ele><time>2026-04-08T16:59:03.999Z</time></trkpt><trkpt lat="45.071580591055735" lon="10.128607475678779"><ele>31.000000000000004</ele><time>2026-04-08T16:59:04.999Z</time></trkpt><trkpt lat="45.0716065271121" lon="10.128492063356527"><ele>31.0</ele><time>2026-04-08T16:59:05.999Z</time></trkpt><trkpt lat="45.071633112065925" lon="10.128374451905383"><ele>30.833333333333336</ele><time>2026-04-08T16:59:06.999Z</time></trkpt><trkpt lat="45.07166044094373" lon="10.128255996449674"><ele>30.666666666666668</ele><time>2026-04-08T16:59:07.999Z</time></trkpt><trkpt lat="45.07168831050015" lon="10.128138345504945"><ele>30.5</ele><time>2026-04-08T16:59:08.999Z</time></trkpt><trkpt lat="45.07171924803746" lon="10.128018822983494"><ele>30.333333333333336</ele><time>2026-04-08T16:59:09.999Z</time></trkpt><trkpt lat="45.0717484404226" lon="10.127901808520715"><ele>30.166666666666668</ele><time>2026-04-08T16:59:10.999Z</time></trkpt><trkpt lat="45.07177839608631" lon="10.127784571189125"><ele>30.0</ele><time>2026-04-08T16:59:11.999Z</time></trkpt><trkpt lat="45.07180909252632" lon="10.127666844914982"><ele>30.333333333333332</ele><time>2026-04-08T16:59:12.999Z</time></trkpt><trkpt lat="45.07183937627301" lon="10.127551058841698"><ele>30.666666666666664</ele><time>2026-04-08T16:59:13.999Z</time></trkpt><trkpt lat="45.07187032917861" lon="10.127431483281567"><ele>31.0</ele><time>2026-04-08T16:59:14.999Z</time></trkpt><trkpt lat="45.071903612579305" lon="10.127313977619252"><ele>31.333333333333332</ele><time>2026-04-08T16:59:15.999Z</time></trkpt><trkpt lat="45.07193957803172" lon="10.127195989109767"><ele>31.666666666666664</ele><time>2026-04-08T16:59:16.999Z</time></trkpt><trkpt lat="45.07197383444075" lon="10.127076406334629"><ele>32.0</ele><time>2026-04-08T16:59:17.999Z</time></trkpt><trkpt lat="45.07200714618614" lon="10.126958063904198"><ele>32.0</ele><time>2026-04-08T16:59:18.999Z</time></trkpt><trkpt lat="45.07203955323094" lon="10.126837145337086"><ele>32.0</ele><time>2026-04-08T16:59:19.999Z</time></trkpt><trkpt lat="45.07207435253031" lon="10.126715348680133"><ele>32.0</ele><time>2026-04-08T16:59:20.999Z</time></trkpt><trkpt lat="45.07210895807051" lon="10.126597568853251"><ele>32.0</ele><time>2026-04-08T16:59:21.999Z</time></trkpt><trkpt lat="45.0721401162672" lon="10.12647886248681"><ele>32.0</ele><time>2026-04-08T16:59:22.999Z</time></trkpt><trkpt lat="45.07217256865407" lon="10.126363362113503"><ele>31.999999999999996</ele><time>2026-04-08T16:59:23.999Z</time></trkpt><trkpt lat="45.07219833275986" lon="10.12624447838313"><ele>32.0</ele><time>2026-04-08T16:59:24.999Z</time></trkpt><trkpt lat="45.07221638106526" lon="10.126122035225942"><ele>32.0</ele><time>2026-04-08T16:59:25.999Z</time></trkpt><trkpt lat="45.07222180586069" lon="10.125998598149518"><ele>32.0</ele><time>2026-04-08T16:59:26.999Z</time></trkpt><trkpt lat="45.07222402830696" lon="10.125870894071511"><ele>31.999999999999996</ele><time>2026-04-08T16:59:27.999Z</time></trkpt><trkpt lat="45.072222559308685" lon="10.125747268366473"><ele>32.0</ele><time>2026-04-08T16:59:28.998Z</time></trkpt><trkpt lat="45.07222317956733" lon="10.125622006951918"><ele>31.999999999999996</ele><time>2026-04-08T16:59:29.998Z</time></trkpt><trkpt lat="45.072223412240085" lon="10.125499790557916"><ele>32.0</ele><time>2026-04-08T16:59:30.998Z</time></trkpt><trkpt lat="45.07222749560178" lon="10.125374711322797"><ele>32.0</ele><time>2026-04-08T16:59:31.998Z</time></trkpt><trkpt lat="45.07222722176017" lon="10.125249272764787"><ele>32.0</ele><time>2026-04-08T16:59:32.998Z</time></trkpt><trkpt lat="45.072227990797266" lon="10.12512218463979"><ele>31.999999999999996</ele><time>2026-04-08T16:59:33.998Z</time></trkpt><trkpt lat="45.07222711872976" lon="10.124997716660735"><ele>32.0</ele><time>2026-04-08T16:59:34.998Z</time></trkpt><trkpt lat="45.07222936083496" lon="10.12487176458406"><ele>31.833333333333332</ele><time>2026-04-08T16:59:35.998Z</time></trkpt><trkpt lat="45.07223096084837" lon="10.124748875442002"><ele>31.666666666666664</ele><time>2026-04-08T16:59:36.998Z</time></trkpt><trkpt lat="45.072234959913004" lon="10.124622767620783"><ele>31.5</ele><time>2026-04-08T16:59:37.998Z</time></trkpt><trkpt lat="45.0722403078485" lon="10.124498762291033"><ele>31.333333333333336</ele><time>2026-04-08T16:59:38.998Z</time></trkpt><trkpt lat="45.07224679176235" lon="10.124374162086056"><ele>31.166666666666668</ele><time>2026-04-08T16:59:39.998Z</time></trkpt><trkpt lat="45.072253496822476" lon="10.12424908824126"><ele>31.0</ele><time>2026-04-08T16:59:40.998Z</time></trkpt><trkpt lat="45.07226137551187" lon="10.124124365605802"><ele>31.200000000000003</ele><time>2026-04-08T16:59:41.998Z</time></trkpt><trkpt lat="45.07226927811862" lon="10.123998351670537"><ele>31.400000000000002</ele><time>2026-04-08T16:59:42.998Z</time></trkpt><trkpt lat="45.07227382728307" lon="10.123870482558425"><ele>31.6</ele><time>2026-04-08T16:59:43.998Z</time></trkpt><trkpt lat="45.07227055199062" lon="10.12374409574758"><ele>31.8</ele><time>2026-04-08T16:59:44.998Z</time></trkpt><trkpt lat="45.072261295805966" lon="10.123615363664904"><ele>32.0</ele><time>2026-04-08T16:59:45.998Z</time></trkpt><trkpt lat="45.072240654207214" lon="10.12348790943183"><ele>32.0</ele><time>2026-04-08T16:59:46.998Z</time></trkpt><trkpt lat="45.07221108435769" lon="10.12336495693735"><ele>32.0</ele><time>2026-04-08T16:59:47.998Z</time></trkpt><trkpt lat="45.072178837044106" lon="10.123244901815418"><ele>32.0</ele><time>2026-04-08T16:59:48.998Z</time></trkpt><trkpt lat="45.0721402738174" lon="10.123128130668773"><ele>32.0</ele><time>2026-04-08T16:59:49.998Z</time></trkpt><trkpt lat="45.07210103361052" lon="10.12301084792143"><ele>32.0</ele><time>2026-04-08T16:59:50.998Z</time></trkpt><trkpt lat="45.07206281639264" lon="10.122894900339462"><ele>31.8</ele><time>2026-04-08T16:59:51.998Z</time></trkpt><trkpt lat="45.07202789810139" lon="10.122776892466645"><ele>31.6</ele><time>2026-04-08T16:59:52.998Z</time></trkpt><trkpt lat="45.07199458359291" lon="10.122657897073397"><ele>31.400000000000002</ele><time>2026-04-08T16:59:53.998Z</time></trkpt><trkpt lat="45.07196144370436" lon="10.122539552882804"><ele>31.200000000000003</ele><time>2026-04-08T16:59:54.998Z</time></trkpt><trkpt lat="45.07192972893162" lon="10.12242111738315"><ele>31.0</ele><time>2026-04-08T16:59:55.998Z</time></trkpt><trkpt lat="45.071898319033345" lon="10.122300298552215"><ele>31.000000000000004</ele><time>2026-04-08T16:59:56.998Z</time></trkpt><trkpt lat="45.071865495069446" lon="10.12218408823811"><ele>31.0</ele><time>2026-04-08T16:59:57.998Z</time></trkpt><trkpt lat="45.071835858703395" lon="10.122065190976485"><ele>31.0</ele><time>2026-04-08T16:59:58.998Z</time></trkpt><trkpt lat="45.071806684645686" lon="10.121948346156618"><ele>31.0</ele><time>2026-04-08T16:59:59.998Z</time></trkpt><trkpt lat="45.071776587472606" lon="10.121831792240702"><ele>31.000000000000004</ele><time>2026-04-08T17:00:00.998Z</time></trkpt><trkpt lat="45.07174411438001" lon="10.121715123106778"><ele>31.0</ele><time>2026-04-08T17:00:01.998Z</time></trkpt><trkpt lat="45.07171456298865" lon="10.121597547178721"><ele>31.166666666666668</ele><time>2026-04-08T17:00:02.998Z</time></trkpt><trkpt lat="45.07168561911308" lon="10.121479904376475"><ele>31.333333333333336</ele><time>2026-04-08T17:00:03.998Z</time></trkpt><trkpt lat="45.07165727067748" lon="10.12136490517681"><ele>31.5</ele><time>2026-04-08T17:00:04.998Z</time></trkpt><trkpt lat="45.07166136064494" lon="10.121241135338895"><ele>31.666666666666664</ele><time>2026-04-08T17:00:05.998Z</time></trkpt><trkpt lat="45.0716705065905" lon="10.121125166547063"><ele>31.833333333333332</ele><time>2026-04-08T17:00:06.998Z</time></trkpt><trkpt lat="45.07169006726649" lon="10.121007861875029"><ele>32.0</ele><time>2026-04-08T17:00:07.998Z</time></trkpt><trkpt lat="45.07171730583761" lon="10.120892538407304"><ele>31.999999999999996</ele><time>2026-04-08T17:00:08.998Z</time></trkpt><trkpt lat="45.071741380664704" lon="10.120772206596639"><ele>32.0</ele><time>2026-04-08T17:00:09.998Z</time></trkpt><trkpt lat="45.07176453557189" lon="10.120650325793083"><ele>32.0</ele><time>2026-04-08T17:00:11Z</time></trkpt><trkpt lat="45.07177057925855" lon="10.120524776438826"><ele>32.0</ele><time>2026-04-08T17:00:12Z</time></trkpt><trkpt lat="45.0717936367622" lon="10.120402359313188"><ele>31.999999999999996</ele><time>2026-04-08T17:00:13Z</time></trkpt><trkpt lat="45.07181257380026" lon="10.12027905501969"><ele>32.0</ele><time>2026-04-08T17:00:14Z</time></trkpt><trkpt lat="45.071826227397345" lon="10.120155906348383"><ele>32.0</ele><time>2026-04-08T17:00:15Z</time></trkpt><trkpt lat="45.07183300258225" lon="10.120029760584975"><ele>32.0</ele><time>2026-04-08T17:00:16Z</time></trkpt><trkpt lat="45.07185163309278" lon="10.119903893604235"><ele>32.0</ele><time>2026-04-08T17:00:17Z</time></trkpt><trkpt lat="45.07185246418176" lon="10.119775075407459"><ele>32.0</ele><time>2026-04-08T17:00:18Z</time></trkpt><trkpt lat="45.07182772994994" lon="10.11964995501575"><ele>32.0</ele><time>2026-04-08T17:00:19Z</time></trkpt><trkpt lat="45.07180256653479" lon="10.119526841897017"><ele>32.0</ele><time>2026-04-08T17:00:20Z</time></trkpt><trkpt lat="45.071756600561336" lon="10.119414135378934"><ele>32.0</ele><time>2026-04-08T17:00:21Z</time></trkpt><trkpt lat="45.07169608953216" lon="10.11931784408512"><ele>32.0</ele><time>2026-04-08T17:00:22Z</time></trkpt><trkpt lat="45.07163451387918" lon="10.119224440132578"><ele>32.0</ele><time>2026-04-08T17:00:23Z</time></trkpt><trkpt lat="45.07157725058648" lon="10.119127602697086"><ele>32.0</ele><time>2026-04-08T17:00:24Z</time></trkpt><trkpt lat="45.07152244106645" lon="10.11902803095634"><ele>32.5</ele><time>2026-04-08T17:00:25Z</time></trkpt><trkpt lat="45.071467618423355" lon="10.11893077791292"><ele>33.0</ele><time>2026-04-08T17:00:26Z</time></trkpt><trkpt lat="45.07141182314249" lon="10.118835526599193"><ele>33.5</ele><time>2026-04-08T17:00:27Z</time></trkpt><trkpt lat="45.071357409474444" lon="10.11874209291488"><ele>34.0</ele><time>2026-04-08T17:00:28Z</time></trkpt><trkpt lat="45.07130738741488" lon="10.118639222022038"><ele>34.5</ele><time>2026-04-08T17:00:29Z</time></trkpt><trkpt lat="45.07126653956384" lon="10.118528243806873"><ele>35.0</ele><time>2026-04-08T17:00:30Z</time></trkpt><trkpt lat="45.071239466691324" lon="10.118411291098452"><ele>35.0</ele><time>2026-04-08T17:00:31Z</time></trkpt><trkpt lat="45.07123411833145" lon="10.11828483021814"><ele>35.0</ele><time>2026-04-08T17:00:32Z</time></trkpt><trkpt lat="45.07125875775292" lon="10.118162871753482"><ele>35.0</ele><time>2026-04-08T17:00:33Z</time></trkpt><trkpt lat="45.07127124125642" lon="10.118043088381015"><ele>35.0</ele><time>2026-04-08T17:00:34Z</time></trkpt><trkpt lat="45.07128476246581" lon="10.117921832963466"><ele>35.0</ele><time>2026-04-08T17:00:35Z</time></trkpt><trkpt lat="45.07129871897466" lon="10.117801406610964"><ele>35.0</ele><time>2026-04-08T17:00:36Z</time></trkpt><trkpt lat="45.07129872566728" lon="10.117675499997153"><ele>34.83333333333333</ele><time>2026-04-08T17:00:37Z</time></trkpt><trkpt lat="45.07131383141022" lon="10.117551245280477"><ele>34.666666666666664</ele><time>2026-04-08T17:00:37.999Z</time></trkpt><trkpt lat="45.07132230513523" lon="10.117427289543972"><ele>34.5</ele><time>2026-04-08T17:00:38.999Z</time></trkpt><trkpt lat="45.07134582618317" lon="10.117303651558686"><ele>34.333333333333336</ele><time>2026-04-08T17:00:39.999Z</time></trkpt><trkpt lat="45.07135169478306" lon="10.117179130807063"><ele>34.16666666666667</ele><time>2026-04-08T17:00:40.999Z</time></trkpt><trkpt lat="45.07133448100963" lon="10.117052325331498"><ele>34.0</ele><time>2026-04-08T17:00:41.999Z</time></trkpt><trkpt lat="45.071348097786284" lon="10.116926162881049"><ele>33.2</ele><time>2026-04-08T17:00:42.999Z</time></trkpt><trkpt lat="45.07130687106934" lon="10.11680517095057"><ele>32.4</ele><time>2026-04-08T17:00:43.999Z</time></trkpt><trkpt lat="45.07126771890682" lon="10.116691079339851"><ele>31.6</ele><time>2026-04-08T17:00:44.999Z</time></trkpt><trkpt lat="45.07122914185174" lon="10.116575724442495"><ele>30.8</ele><time>2026-04-08T17:00:45.999Z</time></trkpt><trkpt lat="45.07119560521375" lon="10.1164645949804"><ele>30.0</ele><time>2026-04-08T17:00:46.999Z</time></trkpt><trkpt lat="45.071163655643204" lon="10.116346013022193"><ele>30.0</ele><time>2026-04-08T17:00:47.999Z</time></trkpt><trkpt lat="45.071132895059016" lon="10.116229459776662"><ele>30.0</ele><time>2026-04-08T17:00:48.999Z</time></trkpt><trkpt lat="45.071107309248575" lon="10.116106362623247"><ele>30.0</ele><time>2026-04-08T17:00:49.999Z</time></trkpt><trkpt lat="45.07108302442815" lon="10.115987353845618"><ele>30.0</ele><time>2026-04-08T17:00:50.999Z</time></trkpt><trkpt lat="45.07105980867078" lon="10.11586469682299"><ele>30.0</ele><time>2026-04-08T17:00:51.999Z</time></trkpt><trkpt lat="45.07104286939604" lon="10.11574990522378"><ele>30.0</ele><time>2026-04-08T17:00:52.999Z</time></trkpt><trkpt lat="45.071050057490034" lon="10.115629032765602"><ele>30.0</ele><time>2026-04-08T17:00:53.999Z</time></trkpt><trkpt lat="45.0710458443978" lon="10.115507322278328"><ele>30.0</ele><time>2026-04-08T17:00:54.999Z</time></trkpt><trkpt lat="45.07104113476062" lon="10.115379288753534"><ele>30.0</ele><time>2026-04-08T17:00:55.999Z</time></trkpt><trkpt lat="45.07103648323795" lon="10.115252835025942"><ele>30.0</ele><time>2026-04-08T17:00:56.999Z</time></trkpt><trkpt lat="45.07101390912665" lon="10.115128666672152"><ele>30.0</ele><time>2026-04-08T17:00:57.999Z</time></trkpt><trkpt lat="45.070994844962506" lon="10.115005957167387"><ele>30.0</ele><time>2026-04-08T17:00:58.999Z</time></trkpt><trkpt lat="45.07096126179119" lon="10.11488688856328"><ele>30.0</ele><time>2026-04-08T17:00:59.999Z</time></trkpt><trkpt lat="45.070913066691666" lon="10.114780087709663"><ele>30.0</ele><time>2026-04-08T17:01:00.999Z</time></trkpt><trkpt lat="45.07085605456553" lon="10.11468246146662"><ele>30.0</ele><time>2026-04-08T17:01:01.999Z</time></trkpt><trkpt lat="45.07078958436581" lon="10.114596717156935"><ele>30.0</ele><time>2026-04-08T17:01:02.999Z</time></trkpt><trkpt lat="45.07071834890161" lon="10.114517226487461"><ele>30.0</ele><time>2026-04-08T17:01:03.999Z</time></trkpt><trkpt lat="45.07064726215842" lon="10.114443078474078"><ele>30.0</ele><time>2026-04-08T17:01:04.999Z</time></trkpt><trkpt lat="45.07057574388664" lon="10.11436989532917"><ele>30.0</ele><time>2026-04-08T17:01:05.999Z</time></trkpt><trkpt lat="45.07050034369139" lon="10.11430317081259"><ele>30.0</ele><time>2026-04-08T17:01:06.999Z</time></trkpt><trkpt lat="45.07042477741686" lon="10.114240079138675"><ele>30.0</ele><time>2026-04-08T17:01:07.999Z</time></trkpt><trkpt lat="45.07034901752089" lon="10.114176759102605"><ele>30.0</ele><time>2026-04-08T17:01:08.999Z</time></trkpt><trkpt lat="45.07027327606333" lon="10.114111556749624"><ele>30.0</ele><time>2026-04-08T17:01:09.999Z</time></trkpt><trkpt lat="45.07019711197421" lon="10.114046035956319"><ele>30.0</ele><time>2026-04-08T17:01:10.999Z</time></trkpt><trkpt lat="45.070121289060666" lon="10.113977413548783"><ele>30.166666666666668</ele><time>2026-04-08T17:01:11.999Z</time></trkpt><trkpt lat="45.07004463993498" lon="10.11391074095172"><ele>30.333333333333336</ele><time>2026-04-08T17:01:12.999Z</time></trkpt><trkpt lat="45.06996916312259" lon="10.113845775529002"><ele>30.5</ele><time>2026-04-08T17:01:13.999Z</time></trkpt><trkpt lat="45.06989318062643" lon="10.113783811501461"><ele>30.666666666666668</ele><time>2026-04-08T17:01:14.999Z</time></trkpt><trkpt lat="45.069816695101565" lon="10.113719425880953"><ele>30.833333333333336</ele><time>2026-04-08T17:01:15.999Z</time></trkpt><trkpt lat="45.069740079807374" lon="10.113654340914012"><ele>31.0</ele><time>2026-04-08T17:01:16.999Z</time></trkpt><trkpt lat="45.069663224343465" lon="10.11359201148227"><ele>31.000000000000004</ele><time>2026-04-08T17:01:17.999Z</time></trkpt><trkpt lat="45.06958735076457" lon="10.113533238822363"><ele>31.0</ele><time>2026-04-08T17:01:18.999Z</time></trkpt><trkpt lat="45.06950955961016" lon="10.113467145258975"><ele>31.0</ele><time>2026-04-08T17:01:19.999Z</time></trkpt><trkpt lat="45.06943387262011" lon="10.113406530231325"><ele>31.0</ele><time>2026-04-08T17:01:20.999Z</time></trkpt><trkpt lat="45.069356839791915" lon="10.113339076855473"><ele>31.000000000000004</ele><time>2026-04-08T17:01:21.999Z</time></trkpt><trkpt lat="45.06928321976109" lon="10.113276210018856"><ele>31.0</ele><time>2026-04-08T17:01:22.999Z</time></trkpt><trkpt lat="45.06920866388025" lon="10.113209511250806"><ele>31.000000000000004</ele><time>2026-04-08T17:01:23.999Z</time></trkpt><trkpt lat="45.06913492042438" lon="10.113144510037422"><ele>31.0</ele><time>2026-04-08T17:01:24.999Z</time></trkpt><trkpt lat="45.06906331671462" lon="10.11307812444642"><ele>31.0</ele><time>2026-04-08T17:01:25.999Z</time></trkpt><trkpt lat="45.06899933287828" lon="10.112993539807682"><ele>31.0</ele><time>2026-04-08T17:01:26.999Z</time></trkpt><trkpt lat="45.0689515560611" lon="10.112890428963402"><ele>31.000000000000004</ele><time>2026-04-08T17:01:27.999Z</time></trkpt><trkpt lat="45.068912847640796" lon="10.112774470820673"><ele>31.0</ele><time>2026-04-08T17:01:28.999Z</time></trkpt><trkpt lat="45.06887302093533" lon="10.11266242055463"><ele>31.0</ele><time>2026-04-08T17:01:29.999Z</time></trkpt><trkpt lat="45.068831645855255" lon="10.11255205922348"><ele>31.0</ele><time>2026-04-08T17:01:30.998Z</time></trkpt><trkpt lat="45.06878476485402" lon="10.112442301898486"><ele>31.0</ele><time>2026-04-08T17:01:31.998Z</time></trkpt><trkpt lat="45.06873395031004" lon="10.112338398521041"><ele>31.0</ele><time>2026-04-08T17:01:32.998Z</time></trkpt><trkpt lat="45.06868052823165" lon="10.11223482496625"><ele>31.0</ele><time>2026-04-08T17:01:33.998Z</time></trkpt><trkpt lat="45.068623631691764" lon="10.112134222879671"><ele>31.000000000000004</ele><time>2026-04-08T17:01:34.998Z</time></trkpt><trkpt lat="45.06856956533939" lon="10.112032789964344"><ele>31.0</ele><time>2026-04-08T17:01:35.998Z</time></trkpt><trkpt lat="45.068518284143785" lon="10.111929082182531"><ele>31.0</ele><time>2026-04-08T17:01:36.998Z</time></trkpt><trkpt lat="45.06846580389258" lon="10.111824822191464"><ele>31.0</ele><time>2026-04-08T17:01:37.998Z</time></trkpt><trkpt lat="45.068413301238806" lon="10.11172222831937"><ele>31.000000000000004</ele><time>2026-04-08T17:01:38.998Z</time></trkpt><trkpt lat="45.06836047269097" lon="10.111618791230837"><ele>31.0</ele><time>2026-04-08T17:01:39.998Z</time></trkpt><trkpt lat="45.0683064491743" lon="10.111517497104016"><ele>31.000000000000004</ele><time>2026-04-08T17:01:40.998Z</time></trkpt><trkpt lat="45.0682522710033" lon="10.11141693048645"><ele>31.0</ele><time>2026-04-08T17:01:41.998Z</time></trkpt><trkpt lat="45.068197260601686" lon="10.111316034392777"><ele>31.0</ele><time>2026-04-08T17:01:42.998Z</time></trkpt><trkpt lat="45.0681467472202" lon="10.111214713174922"><ele>31.0</ele><time>2026-04-08T17:01:43.998Z</time></trkpt><trkpt lat="45.06809241958427" lon="10.11111580659096"><ele>31.000000000000004</ele><time>2026-04-08T17:01:44.998Z</time></trkpt><trkpt lat="45.06803611607595" lon="10.11102148454725"><ele>31.0</ele><time>2026-04-08T17:01:45.998Z</time></trkpt><trkpt lat="45.06797868553493" lon="10.11092643799136"><ele>31.0</ele><time>2026-04-08T17:01:46.998Z</time></trkpt><trkpt lat="45.067928955920465" lon="10.11082446945827"><ele>31.0</ele><time>2026-04-08T17:01:47.998Z</time></trkpt><trkpt lat="45.06790347172103" lon="10.11070309824522"><ele>31.0</ele><time>2026-04-08T17:01:48.998Z</time></trkpt><trkpt lat="45.06793410145409" lon="10.11057778020301"><ele>31.0</ele><time>2026-04-08T17:01:49.998Z</time></trkpt><trkpt lat="45.067968901182184" lon="10.110460618804474"><ele>31.0</ele><time>2026-04-08T17:01:50.998Z</time></trkpt><trkpt lat="45.067995110045004" lon="10.110338706078991"><ele>31.000000000000004</ele><time>2026-04-08T17:01:51.998Z</time></trkpt><trkpt lat="45.06801253951849" lon="10.11021518927047"><ele>31.0</ele><time>2026-04-08T17:01:52.998Z</time></trkpt><trkpt lat="45.06804006728332" lon="10.110100727002477"><ele>31.0</ele><time>2026-04-08T17:01:53.998Z</time></trkpt><trkpt lat="45.068065125221125" lon="10.109978992526354"><ele>31.0</ele><time>2026-04-08T17:01:54.998Z</time></trkpt><trkpt lat="45.06808702777624" lon="10.109858255732757"><ele>31.000000000000004</ele><time>2026-04-08T17:01:55.998Z</time></trkpt><trkpt lat="45.068106964144704" lon="10.109735279071513"><ele>31.0</ele><time>2026-04-08T17:01:56.998Z</time></trkpt><trkpt lat="45.068127357002915" lon="10.109613364005083"><ele>31.000000000000004</ele><time>2026-04-08T17:01:57.998Z</time></trkpt><trkpt lat="45.06814817450827" lon="10.10949050801524"><ele>31.0</ele><time>2026-04-08T17:01:58.998Z</time></trkpt><trkpt lat="45.068166644238886" lon="10.109366983411316"><ele>31.0</ele><time>2026-04-08T17:01:59.998Z</time></trkpt><trkpt lat="45.06818838537652" lon="10.109243025218715"><ele>31.0</ele><time>2026-04-08T17:02:00.998Z</time></trkpt><trkpt lat="45.06820796781675" lon="10.109121203727321"><ele>31.000000000000004</ele><time>2026-04-08T17:02:01.998Z</time></trkpt><trkpt lat="45.068228904853996" lon="10.108999199776418"><ele>31.0</ele><time>2026-04-08T17:02:02.998Z</time></trkpt><trkpt lat="45.06824941758848" lon="10.108874316326535"><ele>31.000000000000004</ele><time>2026-04-08T17:02:03.998Z</time></trkpt><trkpt lat="45.0682701267739" lon="10.10875267410642"><ele>31.0</ele><time>2026-04-08T17:02:04.998Z</time></trkpt><trkpt lat="45.06828945337285" lon="10.108629019696284"><ele>31.0</ele><time>2026-04-08T17:02:05.998Z</time></trkpt><trkpt lat="45.0683070825332" lon="10.108509146498253"><ele>31.0</ele><time>2026-04-08T17:02:06.998Z</time></trkpt><trkpt lat="45.06832539029342" lon="10.10838640086622"><ele>31.000000000000004</ele><time>2026-04-08T17:02:07.998Z</time></trkpt><trkpt lat="45.06834152584345" lon="10.108265135382938"><ele>31.0</ele><time>2026-04-08T17:02:08.998Z</time></trkpt><trkpt lat="45.068358113644265" lon="10.108143453286626"><ele>31.166666666666668</ele><time>2026-04-08T17:02:09.998Z</time></trkpt><trkpt lat="45.06837078750801" lon="10.108020485642516"><ele>31.333333333333336</ele><time>2026-04-08T17:02:10.998Z</time></trkpt><trkpt lat="45.06837942558661" lon="10.107894757834165"><ele>31.5</ele><time>2026-04-08T17:02:11.998Z</time></trkpt><trkpt lat="45.06839286303924" lon="10.107769471338067"><ele>31.666666666666664</ele><time>2026-04-08T17:02:12.998Z</time></trkpt><trkpt lat="45.06840855451602" lon="10.107642508392468"><ele>31.833333333333332</ele><time>2026-04-08T17:02:13.998Z</time></trkpt><trkpt lat="45.06842741651979" lon="10.107519676265316"><ele>32.0</ele><time>2026-04-08T17:02:14.998Z</time></trkpt><trkpt lat="45.06844724518358" lon="10.107395139136862"><ele>31.999999999999996</ele><time>2026-04-08T17:02:16Z</time></trkpt><trkpt lat="45.0684675788616" lon="10.107274305402372"><ele>32.0</ele><time>2026-04-08T17:02:17Z</time></trkpt><trkpt lat="45.06849283527477" lon="10.107153567474729"><ele>32.0</ele><time>2026-04-08T17:02:18Z</time></trkpt><trkpt lat="45.068512153191314" lon="10.107031014229843"><ele>32.0</ele><time>2026-04-08T17:02:19Z</time></trkpt><trkpt lat="45.068534826161276" lon="10.106911178156903"><ele>31.999999999999996</ele><time>2026-04-08T17:02:20Z</time></trkpt><trkpt lat="45.068581078752125" lon="10.106803784759016"><ele>32.0</ele><time>2026-04-08T17:02:21Z</time></trkpt><trkpt lat="45.06861673038201" lon="10.106688071413263"><ele>31.666666666666664</ele><time>2026-04-08T17:02:22Z</time></trkpt><trkpt lat="45.06865405088075" lon="10.106576158707005"><ele>31.333333333333332</ele><time>2026-04-08T17:02:23Z</time></trkpt><trkpt lat="45.068680938216836" lon="10.106456156352188"><ele>31.0</ele><time>2026-04-08T17:02:24Z</time></trkpt><trkpt lat="45.06872595088871" lon="10.106347808460695"><ele>30.666666666666664</ele><time>2026-04-08T17:02:25Z</time></trkpt><trkpt lat="45.06876872304966" lon="10.106238445710321"><ele>30.333333333333332</ele><time>2026-04-08T17:02:26Z</time></trkpt><trkpt lat="45.06881234632122" lon="10.106132320162663"><ele>30.0</ele><time>2026-04-08T17:02:27Z</time></trkpt><trkpt lat="45.06885522384262" lon="10.106019723294041"><ele>30.0</ele><time>2026-04-08T17:02:28Z</time></trkpt><trkpt lat="45.06889830695085" lon="10.10591145274769"><ele>30.0</ele><time>2026-04-08T17:02:29Z</time></trkpt><trkpt lat="45.06894389511467" lon="10.105803168037951"><ele>30.0</ele><time>2026-04-08T17:02:30Z</time></trkpt><trkpt lat="45.06898484516324" lon="10.105692786233488"><ele>30.0</ele><time>2026-04-08T17:02:31Z</time></trkpt><trkpt lat="45.069024526439286" lon="10.10558271468469"><ele>30.0</ele><time>2026-04-08T17:02:32Z</time></trkpt><trkpt lat="45.06907721480806" lon="10.10548396978707"><ele>30.0</ele><time>2026-04-08T17:02:33Z</time></trkpt><trkpt lat="45.0691180666358" lon="10.105373353441239"><ele>30.5</ele><time>2026-04-08T17:02:34Z</time></trkpt><trkpt lat="45.06915745912296" lon="10.105260896334693"><ele>31.0</ele><time>2026-04-08T17:02:35Z</time></trkpt><trkpt lat="45.06917893490717" lon="10.105138632459258"><ele>31.5</ele><time>2026-04-08T17:02:36Z</time></trkpt><trkpt lat="45.06921963199656" lon="10.10502445433509"><ele>32.0</ele><time>2026-04-08T17:02:37Z</time></trkpt><trkpt lat="45.06925575487993" lon="10.104914410867671"><ele>32.5</ele><time>2026-04-08T17:02:38Z</time></trkpt><trkpt lat="45.06929146789976" lon="10.10480131632211"><ele>33.0</ele><time>2026-04-08T17:02:39Z</time></trkpt><trkpt lat="45.069326793889566" lon="10.104687205326696"><ele>33.0</ele><time>2026-04-08T17:02:40Z</time></trkpt><trkpt lat="45.06936350298671" lon="10.104573958046938"><ele>33.0</ele><time>2026-04-08T17:02:40.999Z</time></trkpt><trkpt lat="45.0693984023955" lon="10.104460316353093"><ele>33.0</ele><time>2026-04-08T17:02:41.999Z</time></trkpt><trkpt lat="45.06942837942209" lon="10.104345984240185"><ele>33.0</ele><time>2026-04-08T17:02:42.999Z</time></trkpt><trkpt lat="45.06946119585843" lon="10.104229049215594"><ele>33.0</ele><time>2026-04-08T17:02:43.999Z</time></trkpt><trkpt lat="45.06948567281123" lon="10.104111503530214"><ele>33.0</ele><time>2026-04-08T17:02:44.999Z</time></trkpt><trkpt lat="45.06951089079643" lon="10.10399291495334"><ele>33.199999999999996</ele><time>2026-04-08T17:02:45.999Z</time></trkpt><trkpt lat="45.06953428289133" lon="10.103872413696342"><ele>33.4</ele><time>2026-04-08T17:02:46.999Z</time></trkpt><trkpt lat="45.06955140661229" lon="10.10374798185714"><ele>33.599999999999994</ele><time>2026-04-08T17:02:47.999Z</time></trkpt><trkpt lat="45.06956567947247" lon="10.103619985440965"><ele>33.8</ele><time>2026-04-08T17:02:48.999Z</time></trkpt><trkpt lat="45.06957198575922" lon="10.10349613270652"><ele>34.0</ele><time>2026-04-08T17:02:49.999Z</time></trkpt><trkpt lat="45.06957525882101" lon="10.103364464035593"><ele>33.2</ele><time>2026-04-08T17:02:50.999Z</time></trkpt><trkpt lat="45.06957558026718" lon="10.103238919964044"><ele>32.4</ele><time>2026-04-08T17:02:51.999Z</time></trkpt><trkpt lat="45.069576663877434" lon="10.103111283512103"><ele>31.6</ele><time>2026-04-08T17:02:52.999Z</time></trkpt><trkpt lat="45.06957638671567" lon="10.10298309547509"><ele>30.8</ele><time>2026-04-08T17:02:53.999Z</time></trkpt><trkpt lat="45.06957428194606" lon="10.102854429873625"><ele>30.0</ele><time>2026-04-08T17:02:54.999Z</time></trkpt><trkpt lat="45.069575471543466" lon="10.102726481074878"><ele>30.0</ele><time>2026-04-08T17:02:55.999Z</time></trkpt><trkpt lat="45.069574575281386" lon="10.102598892091208"><ele>30.0</ele><time>2026-04-08T17:02:56.999Z</time></trkpt><trkpt lat="45.06957439551783" lon="10.102470842801038"><ele>30.0</ele><time>2026-04-08T17:02:57.999Z</time></trkpt><trkpt lat="45.069575471163084" lon="10.10234518977599"><ele>30.0</ele><time>2026-04-08T17:02:58.999Z</time></trkpt><trkpt lat="45.069574543157955" lon="10.102216247123948"><ele>30.0</ele><time>2026-04-08T17:02:59.999Z</time></trkpt><trkpt lat="45.069573260643544" lon="10.10208939860582"><ele>30.2</ele><time>2026-04-08T17:03:00.999Z</time></trkpt><trkpt lat="45.06956871390812" lon="10.101961621391318"><ele>30.4</ele><time>2026-04-08T17:03:01.999Z</time></trkpt><trkpt lat="45.069561608241884" lon="10.10183416452453"><ele>30.6</ele><time>2026-04-08T17:03:02.999Z</time></trkpt><trkpt lat="45.069554452185784" lon="10.101702902908784"><ele>30.8</ele><time>2026-04-08T17:03:03.999Z</time></trkpt><trkpt lat="45.06954875271416" lon="10.101576527719732"><ele>31.0</ele><time>2026-04-08T17:03:04.999Z</time></trkpt><trkpt lat="45.06954606169793" lon="10.10145030891605"><ele>31.200000000000003</ele><time>2026-04-08T17:03:05.999Z</time></trkpt><trkpt lat="45.069553471980754" lon="10.101317612036103"><ele>31.400000000000002</ele><time>2026-04-08T17:03:06.999Z</time></trkpt><trkpt lat="45.06957274585709" lon="10.101188740830631"><ele>31.6</ele><time>2026-04-08T17:03:07.999Z</time></trkpt><trkpt lat="45.06960257374211" lon="10.101063756954876"><ele>31.8</ele><time>2026-04-08T17:03:08.999Z</time></trkpt><trkpt lat="45.069638656536405" lon="10.100945599407954"><ele>32.0</ele><time>2026-04-08T17:03:09.999Z</time></trkpt><trkpt lat="45.06967345907172" lon="10.100827476318788"><ele>31.8</ele><time>2026-04-08T17:03:10.999Z</time></trkpt><trkpt lat="45.06970720754516" lon="10.100705082323476"><ele>31.6</ele><time>2026-04-08T17:03:11.999Z</time></trkpt><trkpt lat="45.06973791544754" lon="10.100582992050212"><ele>31.400000000000002</ele><time>2026-04-08T17:03:12.999Z</time></trkpt><trkpt lat="45.06976495568736" lon="10.10046026687324"><ele>31.200000000000003</ele><time>2026-04-08T17:03:13.999Z</time></trkpt><trkpt lat="45.069788767443704" lon="10.10033233636336"><ele>31.0</ele><time>2026-04-08T17:03:14.999Z</time></trkpt><trkpt lat="45.06980587737244" lon="10.100204164974043"><ele>31.0</ele><time>2026-04-08T17:03:15.999Z</time></trkpt><trkpt lat="45.06981769806081" lon="10.10007571478406"><ele>31.0</ele><time>2026-04-08T17:03:16.999Z</time></trkpt><trkpt lat="45.069825627447734" lon="10.099946953542675"><ele>31.0</ele><time>2026-04-08T17:03:17.999Z</time></trkpt><trkpt lat="45.06983010728952" lon="10.099818094240842"><ele>31.0</ele><time>2026-04-08T17:03:18.999Z</time></trkpt><trkpt lat="45.06983337970505" lon="10.099688703928027"><ele>31.0</ele><time>2026-04-08T17:03:19.999Z</time></trkpt><trkpt lat="45.06983487074654" lon="10.09955573385542"><ele>31.4</ele><time>2026-04-08T17:03:20.999Z</time></trkpt><trkpt lat="45.06983350204803" lon="10.099422218155327"><ele>31.8</ele><time>2026-04-08T17:03:21.999Z</time></trkpt><trkpt lat="45.069829089216995" lon="10.099290778826607"><ele>32.199999999999996</ele><time>2026-04-08T17:03:22.999Z</time></trkpt><trkpt lat="45.06983101421689" lon="10.099155077792844"><ele>32.6</ele><time>2026-04-08T17:03:23.999Z</time></trkpt><trkpt lat="45.069833023512814" lon="10.099023301562712"><ele>33.0</ele><time>2026-04-08T17:03:24.999Z</time></trkpt><trkpt lat="45.06983506223368" lon="10.098897030596738"><ele>33.0</ele><time>2026-04-08T17:03:25.999Z</time></trkpt><trkpt lat="45.06983849717015" lon="10.09876932954201"><ele>33.0</ele><time>2026-04-08T17:03:26.999Z</time></trkpt><trkpt lat="45.06984608644652" lon="10.098640536120776"><ele>33.0</ele><time>2026-04-08T17:03:27.999Z</time></trkpt><trkpt lat="45.06985547969499" lon="10.098514157377748"><ele>33.0</ele><time>2026-04-08T17:03:28.999Z</time></trkpt><trkpt lat="45.06986455325591" lon="10.098384800332273"><ele>33.0</ele><time>2026-04-08T17:03:29.999Z</time></trkpt><trkpt lat="45.069872778152074" lon="10.098255686216236"><ele>32.8</ele><time>2026-04-08T17:03:30.999Z</time></trkpt><trkpt lat="45.06988019665884" lon="10.098127538128816"><ele>32.599999999999994</ele><time>2026-04-08T17:03:31.999Z</time></trkpt><trkpt lat="45.06988869182363" lon="10.097999537650223"><ele>32.400000000000006</ele><time>2026-04-08T17:03:32.999Z</time></trkpt><trkpt lat="45.06989298913247" lon="10.097870918560364"><ele>32.2</ele><time>2026-04-08T17:03:33.999Z</time></trkpt><trkpt lat="45.06988816703325" lon="10.09774165112937"><ele>32.0</ele><time>2026-04-08T17:03:34.998Z</time></trkpt><trkpt lat="45.06987929097836" lon="10.097615958063292"><ele>32.0</ele><time>2026-04-08T17:03:35.998Z</time></trkpt><trkpt lat="45.069867336588736" lon="10.097491238938423"><ele>32.0</ele><time>2026-04-08T17:03:36.998Z</time></trkpt><trkpt lat="45.06985562960306" lon="10.097363092452877"><ele>32.0</ele><time>2026-04-08T17:03:37.998Z</time></trkpt><trkpt lat="45.06984070675356" lon="10.09723663601133"><ele>32.0</ele><time>2026-04-08T17:03:38.998Z</time></trkpt><trkpt lat="45.06982381304989" lon="10.097111379561271"><ele>32.0</ele><time>2026-04-08T17:03:39.998Z</time></trkpt><trkpt lat="45.06980918894859" lon="10.096985597349452"><ele>32.166666666666664</ele><time>2026-04-08T17:03:40.998Z</time></trkpt><trkpt lat="45.06979803855045" lon="10.096859536149434"><ele>32.33333333333333</ele><time>2026-04-08T17:03:41.998Z</time></trkpt><trkpt lat="45.06978806608711" lon="10.096734005594973"><ele>32.5</ele><time>2026-04-08T17:03:42.998Z</time></trkpt><trkpt lat="45.069776981579516" lon="10.096607187735911"><ele>32.666666666666664</ele><time>2026-04-08T17:03:43.998Z</time></trkpt><trkpt lat="45.06976408501547" lon="10.096481388487648"><ele>32.833333333333336</ele><time>2026-04-08T17:03:44.998Z</time></trkpt><trkpt lat="45.06975174329151" lon="10.096354617362827"><ele>33.0</ele><time>2026-04-08T17:03:45.998Z</time></trkpt><trkpt lat="45.06974335502106" lon="10.096225801625598"><ele>33.4</ele><time>2026-04-08T17:03:46.998Z</time></trkpt><trkpt lat="45.06973438791118" lon="10.09609643536303"><ele>33.8</ele><time>2026-04-08T17:03:47.998Z</time></trkpt><trkpt lat="45.06972749846681" lon="10.095967012662422"><ele>34.2</ele><time>2026-04-08T17:03:48.998Z</time></trkpt><trkpt lat="45.069724542244685" lon="10.095837241498941"><ele>34.6</ele><time>2026-04-08T17:03:49.998Z</time></trkpt><trkpt lat="45.069724802212214" lon="10.095707882166932"><ele>35.0</ele><time>2026-04-08T17:03:50.998Z</time></trkpt><trkpt lat="45.069721817743385" lon="10.095577185467084"><ele>35.0</ele><time>2026-04-08T17:03:51.998Z</time></trkpt><trkpt lat="45.069709973388" lon="10.09545160783286"><ele>35.0</ele><time>2026-04-08T17:03:52.998Z</time></trkpt><trkpt lat="45.069682255990706" lon="10.095328339228155"><ele>35.0</ele><time>2026-04-08T17:03:53.998Z</time></trkpt><trkpt lat="45.06964518272957" lon="10.095209074095493"><ele>35.0</ele><time>2026-04-08T17:03:54.998Z</time></trkpt><trkpt lat="45.06960232687345" lon="10.095093442846888"><ele>35.0</ele><time>2026-04-08T17:03:55.998Z</time></trkpt><trkpt lat="45.06956382801639" lon="10.094978842208393"><ele>34.8</ele><time>2026-04-08T17:03:56.998Z</time></trkpt><trkpt lat="45.06954411799215" lon="10.094852455181169"><ele>34.6</ele><time>2026-04-08T17:03:57.998Z</time></trkpt><trkpt lat="45.06958490464603" lon="10.094733741926722"><ele>34.4</ele><time>2026-04-08T17:03:58.998Z</time></trkpt><trkpt lat="45.069626717415176" lon="10.094615192876295"><ele>34.2</ele><time>2026-04-08T17:03:59.998Z</time></trkpt><trkpt lat="45.06967788905647" lon="10.094507856147816"><ele>34.0</ele><time>2026-04-08T17:04:00.998Z</time></trkpt><trkpt lat="45.069718899715205" lon="10.094392712562941"><ele>34.0</ele><time>2026-04-08T17:04:01.998Z</time></trkpt><trkpt lat="45.06977297711679" lon="10.094289652433044"><ele>34.0</ele><time>2026-04-08T17:04:02.998Z</time></trkpt><trkpt lat="45.0698238283874" lon="10.094181001047943"><ele>34.0</ele><time>2026-04-08T17:04:03.998Z</time></trkpt><trkpt lat="45.06986855543458" lon="10.094070167187242"><ele>34.0</ele><time>2026-04-08T17:04:04.998Z</time></trkpt><trkpt lat="45.06990338537009" lon="10.093950582619051"><ele>34.0</ele><time>2026-04-08T17:04:05.998Z</time></trkpt><trkpt lat="45.06991455769584" lon="10.09382040069705"><ele>33.8</ele><time>2026-04-08T17:04:06.998Z</time></trkpt><trkpt lat="45.069906767127506" lon="10.093690972724646"><ele>33.599999999999994</ele><time>2026-04-08T17:04:07.998Z</time></trkpt><trkpt lat="45.06988886731973" lon="10.093561537589993"><ele>33.4</ele><time>2026-04-08T17:04:08.998Z</time></trkpt><trkpt lat="45.06986770051357" lon="10.093437153749916"><ele>33.199999999999996</ele><time>2026-04-08T17:04:09.998Z</time></trkpt><trkpt lat="45.06984844387912" lon="10.093314255933574"><ele>33.0</ele><time>2026-04-08T17:04:10.998Z</time></trkpt><trkpt lat="45.06983158362924" lon="10.093188997051282"><ele>32.8</ele><time>2026-04-08T17:04:11.998Z</time></trkpt><trkpt lat="45.069818111332886" lon="10.093062322360227"><ele>32.599999999999994</ele><time>2026-04-08T17:04:12.998Z</time></trkpt><trkpt lat="45.06980602049571" lon="10.092934070924798"><ele>32.400000000000006</ele><time>2026-04-08T17:04:13.998Z</time></trkpt><trkpt lat="45.06979456384468" lon="10.092805592513283"><ele>32.2</ele><time>2026-04-08T17:04:14.998Z</time></trkpt><trkpt lat="45.069792604107086" lon="10.092676673232196"><ele>32.0</ele><time>2026-04-08T17:04:15.998Z</time></trkpt><trkpt lat="45.06980006966155" lon="10.092547066198051"><ele>31.8</ele><time>2026-04-08T17:04:16.998Z</time></trkpt><trkpt lat="45.0698178270928" lon="10.092420642731916"><ele>31.6</ele><time>2026-04-08T17:04:17.998Z</time></trkpt><trkpt lat="45.069840685198955" lon="10.092296279352123"><ele>31.400000000000002</ele><time>2026-04-08T17:04:18.998Z</time></trkpt><trkpt lat="45.06986480331208" lon="10.092171655990988"><ele>31.200000000000003</ele><time>2026-04-08T17:04:19.998Z</time></trkpt><trkpt lat="45.06989054166015" lon="10.092049500820016"><ele>31.0</ele><time>2026-04-08T17:04:20.998Z</time></trkpt><trkpt lat="45.06991585710289" lon="10.091925187724815"><ele>31.0</ele><time>2026-04-08T17:04:22Z</time></trkpt><trkpt lat="45.06994017236999" lon="10.091802735438101"><ele>31.0</ele><time>2026-04-08T17:04:23Z</time></trkpt><trkpt lat="45.06996698941726" lon="10.091680951697814"><ele>31.0</ele><time>2026-04-08T17:04:24Z</time></trkpt><trkpt lat="45.06999538300524" lon="10.091559539277993"><ele>31.0</ele><time>2026-04-08T17:04:25Z</time></trkpt><trkpt lat="45.07002405905426" lon="10.091439893239714"><ele>31.0</ele><time>2026-04-08T17:04:26Z</time></trkpt><trkpt lat="45.070052984216304" lon="10.091318669600106"><ele>31.333333333333336</ele><time>2026-04-08T17:04:27Z</time></trkpt><trkpt lat="45.070081111641436" lon="10.091197774286064"><ele>31.666666666666668</ele><time>2026-04-08T17:04:28Z</time></trkpt><trkpt lat="45.07010945527199" lon="10.09108026855286"><ele>32.0</ele><time>2026-04-08T17:04:29Z</time></trkpt><trkpt lat="45.070136546163255" lon="10.090959967029734"><ele>32.333333333333336</ele><time>2026-04-08T17:04:30Z</time></trkpt><trkpt lat="45.07016579354718" lon="10.090837664532673"><ele>32.666666666666664</ele><time>2026-04-08T17:04:31Z</time></trkpt><trkpt lat="45.07019321775714" lon="10.090718129663173"><ele>33.0</ele><time>2026-04-08T17:04:32Z</time></trkpt><trkpt lat="45.07022279301678" lon="10.090596814740497"><ele>33.0</ele><time>2026-04-08T17:04:33Z</time></trkpt><trkpt lat="45.07025505976416" lon="10.090476604831833"><ele>33.0</ele><time>2026-04-08T17:04:34Z</time></trkpt><trkpt lat="45.070284154826986" lon="10.09035412945479"><ele>33.0</ele><time>2026-04-08T17:04:35Z</time></trkpt><trkpt lat="45.07031409658406" lon="10.090235261320398"><ele>33.0</ele><time>2026-04-08T17:04:36Z</time></trkpt><trkpt lat="45.07034196243096" lon="10.090113633344854"><ele>33.0</ele><time>2026-04-08T17:04:37Z</time></trkpt><trkpt lat="45.07036915240743" lon="10.089997828217893"><ele>33.0</ele><time>2026-04-08T17:04:38Z</time></trkpt><trkpt lat="45.07039764434988" lon="10.089883175960013"><ele>32.833333333333336</ele><time>2026-04-08T17:04:39Z</time></trkpt><trkpt lat="45.07042572829248" lon="10.089765907809605"><ele>32.666666666666664</ele><time>2026-04-08T17:04:40Z</time></trkpt><trkpt lat="45.070456188530365" lon="10.08964883253316"><ele>32.5</ele><time>2026-04-08T17:04:41Z</time></trkpt><trkpt lat="45.07048523448522" lon="10.089533687684833"><ele>32.33333333333333</ele><time>2026-04-08T17:04:42Z</time></trkpt><trkpt lat="45.070513687047416" lon="10.089419395286916"><ele>32.166666666666664</ele><time>2026-04-08T17:04:43Z</time></trkpt><trkpt lat="45.07053858441588" lon="10.089304802135604"><ele>32.0</ele><time>2026-04-08T17:04:44Z</time></trkpt><trkpt lat="45.07056787084602" lon="10.089195569555477"><ele>32.33333333333333</ele><time>2026-04-08T17:04:44.999Z</time></trkpt><trkpt lat="45.07059384459823" lon="10.089089477251983"><ele>32.666666666666664</ele><time>2026-04-08T17:04:45.999Z</time></trkpt><trkpt lat="45.07061767420004" lon="10.088984574193185"><ele>33.0</ele><time>2026-04-08T17:04:46.999Z</time></trkpt><trkpt lat="45.07064161911434" lon="10.088878763769147"><ele>33.333333333333336</ele><time>2026-04-08T17:04:47.999Z</time></trkpt><trkpt lat="45.070665635613466" lon="10.088774593225287"><ele>33.66666666666667</ele><time>2026-04-08T17:04:48.999Z</time></trkpt><trkpt lat="45.070684533576355" lon="10.088664394953243"><ele>34.0</ele><time>2026-04-08T17:04:49.999Z</time></trkpt><trkpt lat="45.07070164959024" lon="10.088552366538881"><ele>34.0</ele><time>2026-04-08T17:04:50.999Z</time></trkpt><trkpt lat="45.07072068080676" lon="10.088444103904655"><ele>34.0</ele><time>2026-04-08T17:04:51.999Z</time></trkpt><trkpt lat="45.07073452789701" lon="10.08833475753217"><ele>34.0</ele><time>2026-04-08T17:04:52.999Z</time></trkpt><trkpt lat="45.070749046131155" lon="10.088227872028787"><ele>34.0</ele><time>2026-04-08T17:04:53.999Z</time></trkpt><trkpt lat="45.07076570285497" lon="10.08812443760364"><ele>34.0</ele><time>2026-04-08T17:04:54.999Z</time></trkpt><trkpt lat="45.07077958264842" lon="10.088017308100435"><ele>34.0</ele><time>2026-04-08T17:04:55.999Z</time></trkpt><trkpt lat="45.070795379319485" lon="10.087913181234024"><ele>33.857142857142854</ele><time>2026-04-08T17:04:56.999Z</time></trkpt><trkpt lat="45.070809228259144" lon="10.087811590877935"><ele>33.714285714285715</ele><time>2026-04-08T17:04:57.999Z</time></trkpt><trkpt lat="45.07082025666151" lon="10.087710443853082"><ele>33.57142857142857</ele><time>2026-04-08T17:04:58.999Z</time></trkpt><trkpt lat="45.07083216066072" lon="10.08761247780928"><ele>33.42857142857143</ele><time>2026-04-08T17:04:59.999Z</time></trkpt><trkpt lat="45.070844493439424" lon="10.087517021481743"><ele>33.285714285714285</ele><time>2026-04-08T17:05:00.999Z</time></trkpt><trkpt lat="45.070851893809625" lon="10.087422735959304"><ele>33.14285714285714</ele><time>2026-04-08T17:05:01.999Z</time></trkpt><trkpt lat="45.07085872254342" lon="10.08732453403104"><ele>33.0</ele><time>2026-04-08T17:05:02.999Z</time></trkpt><trkpt lat="45.07088400651103" lon="10.087215407724694"><ele>33.0</ele><time>2026-04-08T17:05:03.999Z</time></trkpt><trkpt lat="45.07089243798972" lon="10.087111021227786"><ele>33.0</ele><time>2026-04-08T17:05:04.999Z</time></trkpt><trkpt lat="45.07090109606019" lon="10.08700382942474"><ele>33.0</ele><time>2026-04-08T17:05:05.999Z</time></trkpt><trkpt lat="45.0709095375225" lon="10.086894677456836"><ele>33.0</ele><time>2026-04-08T17:05:06.999Z</time></trkpt><trkpt lat="45.070916701021766" lon="10.086789644661982"><ele>33.0</ele><time>2026-04-08T17:05:07.999Z</time></trkpt><trkpt lat="45.07092282733338" lon="10.086684613736145"><ele>33.0</ele><time>2026-04-08T17:05:08.999Z</time></trkpt><trkpt lat="45.07091253805473" lon="10.086572050347888"><ele>33.166666666666664</ele><time>2026-04-08T17:05:09.999Z</time></trkpt><trkpt lat="45.07091800893294" lon="10.086458067714606"><ele>33.333333333333336</ele><time>2026-04-08T17:05:10.999Z</time></trkpt><trkpt lat="45.07092461666539" lon="10.086347160753219"><ele>33.5</ele><time>2026-04-08T17:05:11.999Z</time></trkpt><trkpt lat="45.07093030960498" lon="10.08623248511032"><ele>33.66666666666667</ele><time>2026-04-08T17:05:12.999Z</time></trkpt><trkpt lat="45.07093352575346" lon="10.086118312106706"><ele>33.833333333333336</ele><time>2026-04-08T17:05:13.999Z</time></trkpt><trkpt lat="45.07095125334717" lon="10.085999981353861"><ele>34.0</ele><time>2026-04-08T17:05:14.999Z</time></trkpt><trkpt lat="45.07093862975205" lon="10.0858810572669"><ele>34.0</ele><time>2026-04-08T17:05:15.999Z</time></trkpt><trkpt lat="45.07094286080698" lon="10.085763477074423"><ele>34.0</ele><time>2026-04-08T17:05:16.999Z</time></trkpt><trkpt lat="45.07095060428627" lon="10.085647582346114"><ele>34.0</ele><time>2026-04-08T17:05:17.999Z</time></trkpt><trkpt lat="45.070958721478235" lon="10.08553051674952"><ele>34.0</ele><time>2026-04-08T17:05:18.999Z</time></trkpt><trkpt lat="45.07096239345753" lon="10.085409781766558"><ele>34.0</ele><time>2026-04-08T17:05:19.999Z</time></trkpt><trkpt lat="45.07096688243175" lon="10.08529057963565"><ele>34.0</ele><time>2026-04-08T17:05:20.999Z</time></trkpt><trkpt lat="45.07097280632469" lon="10.08517009794323"><ele>33.833333333333336</ele><time>2026-04-08T17:05:21.999Z</time></trkpt><trkpt lat="45.070975760202344" lon="10.085051933280647"><ele>33.66666666666667</ele><time>2026-04-08T17:05:22.999Z</time></trkpt><trkpt lat="45.07098387961004" lon="10.084930340707354"><ele>33.5</ele><time>2026-04-08T17:05:23.999Z</time></trkpt><trkpt lat="45.07098810940216" lon="10.0848094086863"><ele>33.333333333333336</ele><time>2026-04-08T17:05:24.999Z</time></trkpt><trkpt lat="45.07099739221709" lon="10.084686169767817"><ele>33.166666666666664</ele><time>2026-04-08T17:05:25.999Z</time></trkpt><trkpt lat="45.07101069403881" lon="10.084565528653686"><ele>33.0</ele><time>2026-04-08T17:05:26.999Z</time></trkpt><trkpt lat="45.07102622029917" lon="10.084443203544247"><ele>32.833333333333336</ele><time>2026-04-08T17:05:27.999Z</time></trkpt><trkpt lat="45.071040757905436" lon="10.084319557267541"><ele>32.666666666666664</ele><time>2026-04-08T17:05:28.999Z</time></trkpt><trkpt lat="45.07105611661971" lon="10.08419650223219"><ele>32.5</ele><time>2026-04-08T17:05:29.999Z</time></trkpt><trkpt lat="45.0710728939436" lon="10.08407379172438"><ele>32.33333333333333</ele><time>2026-04-08T17:05:30.999Z</time></trkpt><trkpt lat="45.07110773069063" lon="10.083959920809402"><ele>32.166666666666664</ele><time>2026-04-08T17:05:31.999Z</time></trkpt><trkpt lat="45.07111429076215" lon="10.083832481032738"><ele>32.0</ele><time>2026-04-08T17:05:32.999Z</time></trkpt><trkpt lat="45.071138282920515" lon="10.0837147470955"><ele>31.999999999999996</ele><time>2026-04-08T17:05:33.999Z</time></trkpt><trkpt lat="45.07116322914032" lon="10.083594078913356"><ele>32.0</ele><time>2026-04-08T17:05:34.999Z</time></trkpt><trkpt lat="45.07118607978517" lon="10.08347400828505"><ele>32.0</ele><time>2026-04-08T17:05:35.999Z</time></trkpt><trkpt lat="45.07121076284565" lon="10.083354582017995"><ele>32.0</ele><time>2026-04-08T17:05:36.999Z</time></trkpt><trkpt lat="45.07123616453591" lon="10.083233675937588"><ele>31.999999999999996</ele><time>2026-04-08T17:05:37.999Z</time></trkpt><trkpt lat="45.07126137919475" lon="10.083116497920281"><ele>32.0</ele><time>2026-04-08T17:05:38.998Z</time></trkpt><trkpt lat="45.07128863931513" lon="10.082999041987097"><ele>32.2</ele><time>2026-04-08T17:05:39.998Z</time></trkpt><trkpt lat="45.071304889990714" lon="10.082880722065797"><ele>32.400000000000006</ele><time>2026-04-08T17:05:40.998Z</time></trkpt><trkpt lat="45.07129897231298" lon="10.082751868316496"><ele>32.599999999999994</ele><time>2026-04-08T17:05:41.998Z</time></trkpt><trkpt lat="45.0712637455035" lon="10.082628501520528"><ele>32.8</ele><time>2026-04-08T17:05:42.998Z</time></trkpt><trkpt lat="45.071136929166464" lon="10.082580379742856"><ele>33.0</ele><time>2026-04-08T17:05:43.998Z</time></trkpt><trkpt lat="45.07104998011522" lon="10.082532612431983"><ele>33.0</ele><time>2026-04-08T17:05:44.998Z</time></trkpt><trkpt lat="45.070968580261756" lon="10.08248766430599"><ele>33.0</ele><time>2026-04-08T17:05:45.998Z</time></trkpt><trkpt lat="45.07089143863786" lon="10.082427667374793"><ele>33.0</ele><time>2026-04-08T17:05:46.998Z</time></trkpt><trkpt lat="45.07081791052509" lon="10.082362123044904"><ele>33.0</ele><time>2026-04-08T17:05:47.998Z</time></trkpt><trkpt lat="45.07074091788476" lon="10.082296466222028"><ele>33.0</ele><time>2026-04-08T17:05:48.998Z</time></trkpt><trkpt lat="45.070667194210365" lon="10.082234737022414"><ele>33.0</ele><time>2026-04-08T17:05:49.998Z</time></trkpt><trkpt lat="45.070591908367525" lon="10.082171290494488"><ele>33.0</ele><time>2026-04-08T17:05:50.998Z</time></trkpt><trkpt lat="45.07051599482593" lon="10.08210747660297"><ele>33.0</ele><time>2026-04-08T17:05:51.998Z</time></trkpt><trkpt lat="45.07044220324929" lon="10.0820469000584"><ele>33.0</ele><time>2026-04-08T17:05:52.998Z</time></trkpt><trkpt lat="45.07036647274773" lon="10.081987484797654"><ele>33.0</ele><time>2026-04-08T17:05:53.998Z</time></trkpt><trkpt lat="45.07029128791529" lon="10.081926094579858"><ele>33.0</ele><time>2026-04-08T17:05:54.998Z</time></trkpt><trkpt lat="45.07021408143911" lon="10.08186360371073"><ele>33.0</ele><time>2026-04-08T17:05:55.998Z</time></trkpt><trkpt lat="45.07013917483758" lon="10.081803613812204"><ele>33.0</ele><time>2026-04-08T17:05:56.998Z</time></trkpt><trkpt lat="45.07006618637595" lon="10.081736143879747"><ele>33.0</ele><time>2026-04-08T17:05:57.998Z</time></trkpt><trkpt lat="45.06999794879107" lon="10.081657166187872"><ele>33.0</ele><time>2026-04-08T17:05:58.998Z</time></trkpt><trkpt lat="45.069936675622266" lon="10.081567776598714"><ele>33.0</ele><time>2026-04-08T17:05:59.998Z</time></trkpt><trkpt lat="45.06987676649378" lon="10.081472770599287"><ele>33.0</ele><time>2026-04-08T17:06:00.998Z</time></trkpt><trkpt lat="45.06982033666022" lon="10.081373963945902"><ele>33.0</ele><time>2026-04-08T17:06:01.998Z</time></trkpt><trkpt lat="45.069770423767075" lon="10.081270637065574"><ele>33.0</ele><time>2026-04-08T17:06:02.998Z</time></trkpt><trkpt lat="45.06972422391916" lon="10.081165053980799"><ele>33.0</ele><time>2026-04-08T17:06:03.998Z</time></trkpt><trkpt lat="45.06968168693022" lon="10.081059335379484"><ele>33.0</ele><time>2026-04-08T17:06:04.998Z</time></trkpt><trkpt lat="45.06964050818745" lon="10.080947791740282"><ele>33.0</ele><time>2026-04-08T17:06:05.998Z</time></trkpt><trkpt lat="45.06960233063956" lon="10.080836261400393"><ele>33.0</ele><time>2026-04-08T17:06:06.998Z</time></trkpt><trkpt lat="45.06956431532195" lon="10.080721841296809"><ele>33.0</ele><time>2026-04-08T17:06:07.998Z</time></trkpt><trkpt lat="45.0695259587388" lon="10.080609784600806"><ele>33.0</ele><time>2026-04-08T17:06:08.998Z</time></trkpt><trkpt lat="45.06948635196807" lon="10.08049513460217"><ele>33.0</ele><time>2026-04-08T17:06:09.998Z</time></trkpt><trkpt lat="45.06944563014695" lon="10.080384620181505"><ele>33.0</ele><time>2026-04-08T17:06:10.998Z</time></trkpt><trkpt lat="45.069406401211246" lon="10.080271210497429"><ele>33.0</ele><time>2026-04-08T17:06:11.998Z</time></trkpt><trkpt lat="45.069368448189024" lon="10.080157786563026"><ele>33.0</ele><time>2026-04-08T17:06:12.998Z</time></trkpt><trkpt lat="45.06933152964368" lon="10.080045492651221"><ele>33.0</ele><time>2026-04-08T17:06:13.998Z</time></trkpt><trkpt lat="45.06929078874215" lon="10.079932403485927"><ele>33.6</ele><time>2026-04-08T17:06:14.998Z</time></trkpt><trkpt lat="45.06924874038996" lon="10.079821518951354"><ele>34.199999999999996</ele><time>2026-04-08T17:06:15.998Z</time></trkpt><trkpt lat="45.06919764730654" lon="10.079718215829415"><ele>34.8</ele><time>2026-04-08T17:06:16.998Z</time></trkpt><trkpt lat="45.06912781992559" lon="10.079637261879473"><ele>35.4</ele><time>2026-04-08T17:06:17.998Z</time></trkpt><trkpt lat="45.069041262105145" lon="10.079582642662992"><ele>36.0</ele><time>2026-04-08T17:06:18.998Z</time></trkpt><trkpt lat="45.06894799065505" lon="10.079559240381474"><ele>36.333333333333336</ele><time>2026-04-08T17:06:19.998Z</time></trkpt><trkpt lat="45.068856159401186" lon="10.079565419901352"><ele>36.666666666666664</ele><time>2026-04-08T17:06:20.998Z</time></trkpt><trkpt lat="45.068767883525894" lon="10.079575231696266"><ele>37.0</ele><time>2026-04-08T17:06:21.998Z</time></trkpt><trkpt lat="45.06868117593161" lon="10.079590149301136"><ele>37.33333333333333</ele><time>2026-04-08T17:06:22.998Z</time></trkpt><trkpt lat="45.068593956496514" lon="10.079597187547959"><ele>37.666666666666664</ele><time>2026-04-08T17:06:23.998Z</time></trkpt><trkpt lat="45.06850630754873" lon="10.079597056688703"><ele>38.0</ele><time>2026-04-08T17:06:24.998Z</time></trkpt><trkpt lat="45.06842026559889" lon="10.079600129721612"><ele>38.0</ele><time>2026-04-08T17:06:25.998Z</time></trkpt><trkpt lat="45.06833144036213" lon="10.079604260896597"><ele>38.0</ele><time>2026-04-08T17:06:26.998Z</time></trkpt><trkpt lat="45.06824496400366" lon="10.07960873561664"><ele>38.0</ele><time>2026-04-08T17:06:28Z</time></trkpt><trkpt lat="45.06815953864942" lon="10.079624570328866"><ele>38.0</ele><time>2026-04-08T17:06:29Z</time></trkpt><trkpt lat="45.068071451654454" lon="10.079649425133095"><ele>38.0</ele><time>2026-04-08T17:06:30Z</time></trkpt><trkpt lat="45.06798940954191" lon="10.079677943871845"><ele>38.0</ele><time>2026-04-08T17:06:31Z</time></trkpt><trkpt lat="45.06790213453809" lon="10.079708461975542"><ele>38.0</ele><time>2026-04-08T17:06:32Z</time></trkpt><trkpt lat="45.06782063906531" lon="10.079736672501138"><ele>38.0</ele><time>2026-04-08T17:06:33Z</time></trkpt><trkpt lat="45.06773747299127" lon="10.079763166160719"><ele>38.0</ele><time>2026-04-08T17:06:34Z</time></trkpt><trkpt lat="45.067653804819514" lon="10.079789635968245"><ele>38.0</ele><time>2026-04-08T17:06:35Z</time></trkpt><trkpt lat="45.067565665832326" lon="10.079812244336171"><ele>38.0</ele><time>2026-04-08T17:06:36Z</time></trkpt><trkpt lat="45.06747936799911" lon="10.079830159726727"><ele>38.0</ele><time>2026-04-08T17:06:37Z</time></trkpt><trkpt lat="45.06739090289576" lon="10.079836650334071"><ele>38.0</ele><time>2026-04-08T17:06:38Z</time></trkpt><trkpt lat="45.06730411916355" lon="10.079836857197893"><ele>38.0</ele><time>2026-04-08T17:06:39Z</time></trkpt><trkpt lat="45.06721600716084" lon="10.079830158939995"><ele>38.0</ele><time>2026-04-08T17:06:40Z</time></trkpt><trkpt lat="45.067130429131396" lon="10.079823418162944"><ele>38.0</ele><time>2026-04-08T17:06:41Z</time></trkpt><trkpt lat="45.06704488433705" lon="10.079815253671716"><ele>38.0</ele><time>2026-04-08T17:06:42Z</time></trkpt><trkpt lat="45.06695861750916" lon="10.079808359681417"><ele>38.0</ele><time>2026-04-08T17:06:43Z</time></trkpt><trkpt lat="45.066871848507226" lon="10.079801478540334"><ele>38.0</ele><time>2026-04-08T17:06:44Z</time></trkpt><trkpt lat="45.06678537315462" lon="10.079797181017804"><ele>38.0</ele><time>2026-04-08T17:06:45Z</time></trkpt><trkpt lat="45.06669994133838" lon="10.079793124292644"><ele>38.0</ele><time>2026-04-08T17:06:46Z</time></trkpt><trkpt lat="45.06661272053139" lon="10.079788992894663"><ele>38.0</ele><time>2026-04-08T17:06:47Z</time></trkpt><trkpt lat="45.06652735438401" lon="10.079783818551808"><ele>38.0</ele><time>2026-04-08T17:06:48Z</time></trkpt><trkpt lat="45.066443742311726" lon="10.079779344994943"><ele>38.0</ele><time>2026-04-08T17:06:49Z</time></trkpt><trkpt lat="45.0663644674365" lon="10.079778639175093"><ele>37.857142857142854</ele><time>2026-04-08T17:06:49.999Z</time></trkpt><trkpt lat="45.06628564944982" lon="10.079777206942039"><ele>37.714285714285715</ele><time>2026-04-08T17:06:50.999Z</time></trkpt><trkpt lat="45.066208943807716" lon="10.0797703738557"><ele>37.57142857142857</ele><time>2026-04-08T17:06:51.999Z</time></trkpt><trkpt lat="45.066133094063474" lon="10.079764280038061"><ele>37.42857142857143</ele><time>2026-04-08T17:06:52.999Z</time></trkpt><trkpt lat="45.06605932623869" lon="10.079763479661795"><ele>37.285714285714285</ele><time>2026-04-08T17:06:53.999Z</time></trkpt><trkpt lat="45.06599199152299" lon="10.07974965121739"><ele>37.142857142857146</ele><time>2026-04-08T17:06:54.999Z</time></trkpt><trkpt lat="45.06593485815963" lon="10.079709282552013"><ele>37.0</ele><time>2026-04-08T17:06:55.999Z</time></trkpt><trkpt lat="45.065968340861076" lon="10.079460606558197"><ele>37.0</ele><time>2026-04-08T17:06:57.999Z</time></trkpt><trkpt lat="45.06596754515063" lon="10.07934885177087"><ele>37.0</ele><time>2026-04-08T17:06:58.999Z</time></trkpt><trkpt lat="45.06598766588127" lon="10.079239485407316"><ele>37.0</ele><time>2026-04-08T17:06:59.999Z</time></trkpt><trkpt lat="45.06599793058519" lon="10.079120858718484"><ele>37.0</ele><time>2026-04-08T17:07:00.999Z</time></trkpt><trkpt lat="45.066004742449294" lon="10.079001118859011"><ele>37.0</ele><time>2026-04-08T17:07:01.999Z</time></trkpt><trkpt lat="45.066016060861706" lon="10.078878367573655"><ele>37.0</ele><time>2026-04-08T17:07:02.999Z</time></trkpt><trkpt lat="45.066031945476134" lon="10.078759337326098"><ele>36.5</ele><time>2026-04-08T17:07:03.999Z</time></trkpt><trkpt lat="45.06604835755533" lon="10.078641889424079"><ele>36.0</ele><time>2026-04-08T17:07:04.999Z</time></trkpt><trkpt lat="45.06606049705232" lon="10.078526043656403"><ele>35.5</ele><time>2026-04-08T17:07:05.999Z</time></trkpt><trkpt lat="45.06607143673084" lon="10.078409759212047"><ele>35.0</ele><time>2026-04-08T17:07:06.999Z</time></trkpt><trkpt lat="45.06608393020743" lon="10.078289440284365"><ele>34.5</ele><time>2026-04-08T17:07:07.999Z</time></trkpt><trkpt lat="45.06609636483208" lon="10.078164456233566"><ele>34.0</ele><time>2026-04-08T17:07:08.999Z</time></trkpt><trkpt lat="45.06610908963628" lon="10.078037729787145"><ele>33.4</ele><time>2026-04-08T17:07:09.999Z</time></trkpt><trkpt lat="45.066123371394546" lon="10.077911690127367"><ele>32.8</ele><time>2026-04-08T17:07:10.999Z</time></trkpt><trkpt lat="45.06613526301915" lon="10.077783202151661"><ele>32.2</ele><time>2026-04-08T17:07:11.999Z</time></trkpt><trkpt lat="45.066149045863014" lon="10.077656780693188"><ele>31.6</ele><time>2026-04-08T17:07:12.999Z</time></trkpt><trkpt lat="45.06616102228232" lon="10.077526955771816"><ele>31.0</ele><time>2026-04-08T17:07:13.999Z</time></trkpt><trkpt lat="45.06617188404795" lon="10.077396820254057"><ele>31.0</ele><time>2026-04-08T17:07:14.999Z</time></trkpt><trkpt lat="45.06618666242338" lon="10.077265997974473"><ele>31.0</ele><time>2026-04-08T17:07:15.999Z</time></trkpt><trkpt lat="45.06620689752952" lon="10.077137794452845"><ele>31.0</ele><time>2026-04-08T17:07:16.999Z</time></trkpt><trkpt lat="45.06622732544894" lon="10.077004202471008"><ele>31.0</ele><time>2026-04-08T17:07:17.999Z</time></trkpt><trkpt lat="45.06623665784992" lon="10.076873069313844"><ele>31.0</ele><time>2026-04-08T17:07:18.999Z</time></trkpt><trkpt lat="45.06624994736078" lon="10.07674393569988"><ele>31.0</ele><time>2026-04-08T17:07:19.999Z</time></trkpt><trkpt lat="45.06626118580519" lon="10.076611824840967"><ele>31.0</ele><time>2026-04-08T17:07:20.999Z</time></trkpt><trkpt lat="45.06627348144131" lon="10.07648421602324"><ele>31.0</ele><time>2026-04-08T17:07:21.999Z</time></trkpt><trkpt lat="45.06628607797954" lon="10.076356187997204"><ele>31.0</ele><time>2026-04-08T17:07:22.999Z</time></trkpt><trkpt lat="45.06629963916227" lon="10.076230203015932"><ele>31.0</ele><time>2026-04-08T17:07:23.999Z</time></trkpt><trkpt lat="45.06631309642044" lon="10.076107709197977"><ele>31.000000000000004</ele><time>2026-04-08T17:07:24.999Z</time></trkpt><trkpt lat="45.066325019067826" lon="10.075980850670554"><ele>31.0</ele><time>2026-04-08T17:07:25.999Z</time></trkpt><trkpt lat="45.06633838192118" lon="10.075856459412405"><ele>31.0</ele><time>2026-04-08T17:07:26.999Z</time></trkpt><trkpt lat="45.06635146271013" lon="10.075732637465824"><ele>31.0</ele><time>2026-04-08T17:07:27.999Z</time></trkpt><trkpt lat="45.0663606935909" lon="10.075610813833856"><ele>31.000000000000004</ele><time>2026-04-08T17:07:28.999Z</time></trkpt><trkpt lat="45.06637277342513" lon="10.075485708719922"><ele>31.0</ele><time>2026-04-08T17:07:29.999Z</time></trkpt><trkpt lat="45.066385208035506" lon="10.07536304275251"><ele>31.166666666666668</ele><time>2026-04-08T17:07:30.999Z</time></trkpt><trkpt lat="45.066399175841866" lon="10.07524124587382"><ele>31.333333333333336</ele><time>2026-04-08T17:07:31.999Z</time></trkpt><trkpt lat="45.0664142925783" lon="10.075119509911545"><ele>31.5</ele><time>2026-04-08T17:07:32.999Z</time></trkpt><trkpt lat="45.06642451044164" lon="10.074998341672577"><ele>31.666666666666664</ele><time>2026-04-08T17:07:33.999Z</time></trkpt><trkpt lat="45.066437908945176" lon="10.074869968291495"><ele>31.833333333333332</ele><time>2026-04-08T17:07:34.999Z</time></trkpt><trkpt lat="45.06645059429466" lon="10.074752863049676"><ele>32.0</ele><time>2026-04-08T17:07:35.999Z</time></trkpt><trkpt lat="45.06646280554461" lon="10.074630553901821"><ele>31.999999999999996</ele><time>2026-04-08T17:07:36.999Z</time></trkpt><trkpt lat="45.066474031247004" lon="10.074509441979286"><ele>32.0</ele><time>2026-04-08T17:07:37.999Z</time></trkpt><trkpt lat="45.066487013079374" lon="10.074387898787933"><ele>32.0</ele><time>2026-04-08T17:07:38.999Z</time></trkpt><trkpt lat="45.06649997084814" lon="10.074270328491904"><ele>32.0</ele><time>2026-04-08T17:07:39.999Z</time></trkpt><trkpt lat="45.06651428572805" lon="10.074149903485155"><ele>31.999999999999996</ele><time>2026-04-08T17:07:40.999Z</time></trkpt><trkpt lat="45.066526517475985" lon="10.074026912745511"><ele>32.0</ele><time>2026-04-08T17:07:41.999Z</time></trkpt><trkpt lat="45.066537513345054" lon="10.073907241652682"><ele>31.999999999999996</ele><time>2026-04-08T17:07:42.999Z</time></trkpt><trkpt lat="45.066549569912816" lon="10.073787853383099"><ele>32.0</ele><time>2026-04-08T17:07:43.998Z</time></trkpt><trkpt lat="45.06656091790241" lon="10.073667574809582"><ele>32.0</ele><time>2026-04-08T17:07:44.998Z</time></trkpt><trkpt lat="45.06657482481826" lon="10.073545747079685"><ele>32.0</ele><time>2026-04-08T17:07:45.998Z</time></trkpt><trkpt lat="45.066587857153564" lon="10.073425877054659"><ele>31.999999999999996</ele><time>2026-04-08T17:07:46.998Z</time></trkpt><trkpt lat="45.06659869897948" lon="10.073304788491626"><ele>32.0</ele><time>2026-04-08T17:07:47.998Z</time></trkpt><trkpt lat="45.06661072804965" lon="10.07318786330584"><ele>32.166666666666664</ele><time>2026-04-08T17:07:48.998Z</time></trkpt><trkpt lat="45.06662452940072" lon="10.073066972256946"><ele>32.33333333333333</ele><time>2026-04-08T17:07:49.998Z</time></trkpt><trkpt lat="45.066637680822254" lon="10.07294627532951"><ele>32.5</ele><time>2026-04-08T17:07:50.998Z</time></trkpt><trkpt lat="45.06665108449433" lon="10.072825196270447"><ele>32.666666666666664</ele><time>2026-04-08T17:07:51.998Z</time></trkpt><trkpt lat="45.06666312337309" lon="10.072704238294236"><ele>32.833333333333336</ele><time>2026-04-08T17:07:52.998Z</time></trkpt><trkpt lat="45.0666765929805" lon="10.07258477584607"><ele>33.0</ele><time>2026-04-08T17:07:53.998Z</time></trkpt><trkpt lat="45.06668934348439" lon="10.072463876133893"><ele>33.0</ele><time>2026-04-08T17:07:54.998Z</time></trkpt><trkpt lat="45.066702926220486" lon="10.072346593929264"><ele>33.0</ele><time>2026-04-08T17:07:55.998Z</time></trkpt><trkpt lat="45.06671393687025" lon="10.072224516072541"><ele>33.0</ele><time>2026-04-08T17:07:56.998Z</time></trkpt><trkpt lat="45.06672524860864" lon="10.072105615299849"><ele>33.0</ele><time>2026-04-08T17:07:57.998Z</time></trkpt><trkpt lat="45.06673924091365" lon="10.071983640431192"><ele>33.0</ele><time>2026-04-08T17:07:58.998Z</time></trkpt><trkpt lat="45.06675122383756" lon="10.071862584377294"><ele>33.0</ele><time>2026-04-08T17:07:59.998Z</time></trkpt><trkpt lat="45.06676527944957" lon="10.071742132932362"><ele>33.0</ele><time>2026-04-08T17:08:00.998Z</time></trkpt><trkpt lat="45.06677580701863" lon="10.071620775434711"><ele>33.0</ele><time>2026-04-08T17:08:01.998Z</time></trkpt><trkpt lat="45.06678824156363" lon="10.071499160777742"><ele>33.0</ele><time>2026-04-08T17:08:02.998Z</time></trkpt><trkpt lat="45.06680094487763" lon="10.071376242316461"><ele>33.0</ele><time>2026-04-08T17:08:03.998Z</time></trkpt><trkpt lat="45.06681440327868" lon="10.071257205856936"><ele>33.0</ele><time>2026-04-08T17:08:04.998Z</time></trkpt><trkpt lat="45.066826118995" lon="10.071137179905177"><ele>33.0</ele><time>2026-04-08T17:08:05.998Z</time></trkpt><trkpt lat="45.06683617819925" lon="10.07101551818499"><ele>33.166666666666664</ele><time>2026-04-08T17:08:06.998Z</time></trkpt><trkpt lat="45.06684734631675" lon="10.070894099895659"><ele>33.333333333333336</ele><time>2026-04-08T17:08:07.998Z</time></trkpt><trkpt lat="45.0668575704939" lon="10.070771174994702"><ele>33.5</ele><time>2026-04-08T17:08:08.998Z</time></trkpt><trkpt lat="45.06686949667043" lon="10.070651308475862"><ele>33.66666666666667</ele><time>2026-04-08T17:08:09.998Z</time></trkpt><trkpt lat="45.06687572236716" lon="10.070528538393999"><ele>33.833333333333336</ele><time>2026-04-08T17:08:10.998Z</time></trkpt><trkpt lat="45.06689770006694" lon="10.07040891139856"><ele>34.0</ele><time>2026-04-08T17:08:11.998Z</time></trkpt><trkpt lat="45.06691065425" lon="10.070286819866825"><ele>34.16666666666667</ele><time>2026-04-08T17:08:12.998Z</time></trkpt><trkpt lat="45.06692327109075" lon="10.070167108236136"><ele>34.333333333333336</ele><time>2026-04-08T17:08:13.998Z</time></trkpt><trkpt lat="45.06692491707157" lon="10.070039499013681"><ele>34.5</ele><time>2026-04-08T17:08:14.998Z</time></trkpt><trkpt lat="45.06693657973207" lon="10.069916443061096"><ele>34.666666666666664</ele><time>2026-04-08T17:08:15.998Z</time></trkpt><trkpt lat="45.066948931024314" lon="10.069795405735857"><ele>34.83333333333333</ele><time>2026-04-08T17:08:16.998Z</time></trkpt><trkpt lat="45.066963913779894" lon="10.069672819146973"><ele>35.0</ele><time>2026-04-08T17:08:17.998Z</time></trkpt><trkpt lat="45.066979575882634" lon="10.06955114299399"><ele>35.33333333333333</ele><time>2026-04-08T17:08:18.998Z</time></trkpt><trkpt lat="45.066993322467546" lon="10.06943081753788"><ele>35.666666666666664</ele><time>2026-04-08T17:08:19.998Z</time></trkpt><trkpt lat="45.067009894162986" lon="10.06930685199312"><ele>36.0</ele><time>2026-04-08T17:08:20.998Z</time></trkpt><trkpt lat="45.067025558088815" lon="10.069188767336428"><ele>36.333333333333336</ele><time>2026-04-08T17:08:21.998Z</time></trkpt><trkpt lat="45.06703940789311" lon="10.069066416970394"><ele>36.66666666666667</ele><time>2026-04-08T17:08:22.998Z</time></trkpt><trkpt lat="45.0670507163324" lon="10.06894489900248"><ele>37.0</ele><time>2026-04-08T17:08:23.998Z</time></trkpt><trkpt lat="45.067066358781894" lon="10.068822811698178"><ele>37.16666666666667</ele><time>2026-04-08T17:08:24.998Z</time></trkpt><trkpt lat="45.06707955594418" lon="10.068703522493584"><ele>37.333333333333336</ele><time>2026-04-08T17:08:25.998Z</time></trkpt><trkpt lat="45.067092784945864" lon="10.068581933043433"><ele>37.5</ele><time>2026-04-08T17:08:26.998Z</time></trkpt><trkpt lat="45.06710615246422" lon="10.068461522755179"><ele>37.666666666666664</ele><time>2026-04-08T17:08:27.998Z</time></trkpt><trkpt lat="45.06711920871554" lon="10.068339874165298"><ele>37.83333333333333</ele><time>2026-04-08T17:08:28.998Z</time></trkpt><trkpt lat="45.067133306658114" lon="10.068217205408695"><ele>38.0</ele><time>2026-04-08T17:08:29.998Z</time></trkpt><trkpt lat="45.06714366224053" lon="10.068098287730447"><ele>37.666666666666664</ele><time>2026-04-08T17:08:30.998Z</time></trkpt><trkpt lat="45.06715858190975" lon="10.067979658491188"><ele>37.33333333333333</ele><time>2026-04-08T17:08:31.998Z</time></trkpt><trkpt lat="45.067169692322516" lon="10.067855392920514"><ele>37.0</ele><time>2026-04-08T17:08:33Z</time></trkpt><trkpt lat="45.067183989472525" lon="10.067734388105098"><ele>36.666666666666664</ele><time>2026-04-08T17:08:34Z</time></trkpt><trkpt lat="45.06720053649792" lon="10.067614217519145"><ele>36.333333333333336</ele><time>2026-04-08T17:08:35Z</time></trkpt><trkpt lat="45.06720982887897" lon="10.067494288252933"><ele>36.0</ele><time>2026-04-08T17:08:36Z</time></trkpt><trkpt lat="45.06722571215499" lon="10.067372029343543"><ele>35.666666666666664</ele><time>2026-04-08T17:08:37Z</time></trkpt><trkpt lat="45.06723820520752" lon="10.067252625414778"><ele>35.333333333333336</ele><time>2026-04-08T17:08:38Z</time></trkpt><trkpt lat="45.06725342057315" lon="10.0671268508236"><ele>35.0</ele><time>2026-04-08T17:08:39Z</time></trkpt><trkpt lat="45.06726317995681" lon="10.067007591905329"><ele>34.66666666666667</ele><time>2026-04-08T17:08:40Z</time></trkpt><trkpt lat="45.06727543515834" lon="10.066884066119433"><ele>34.333333333333336</ele><time>2026-04-08T17:08:41Z</time></trkpt><trkpt lat="45.06728691565311" lon="10.066761481776492"><ele>34.0</ele><time>2026-04-08T17:08:42Z</time></trkpt><trkpt lat="45.06729858958986" lon="10.066638190734217"><ele>34.0</ele><time>2026-04-08T17:08:43Z</time></trkpt><trkpt lat="45.067313738137344" lon="10.066512576806513"><ele>34.0</ele><time>2026-04-08T17:08:44Z</time></trkpt><trkpt lat="45.067326494736015" lon="10.066391256078601"><ele>34.0</ele><time>2026-04-08T17:08:45Z</time></trkpt><trkpt lat="45.067340940106384" lon="10.066264722441371"><ele>34.0</ele><time>2026-04-08T17:08:46Z</time></trkpt><trkpt lat="45.06734980046557" lon="10.06614340999288"><ele>34.0</ele><time>2026-04-08T17:08:47Z</time></trkpt><trkpt lat="45.067361223555004" lon="10.066019853652978"><ele>34.0</ele><time>2026-04-08T17:08:48Z</time></trkpt><trkpt lat="45.06737337887769" lon="10.065897718783015"><ele>33.66666666666667</ele><time>2026-04-08T17:08:49Z</time></trkpt><trkpt lat="45.0673861998199" lon="10.065773486441472"><ele>33.333333333333336</ele><time>2026-04-08T17:08:50Z</time></trkpt><trkpt lat="45.06739727175002" lon="10.065649954905645"><ele>33.0</ele><time>2026-04-08T17:08:51Z</time></trkpt><trkpt lat="45.067411633390506" lon="10.065524336705572"><ele>32.666666666666664</ele><time>2026-04-08T17:08:52Z</time></trkpt><trkpt lat="45.06742142708927" lon="10.065400183865165"><ele>32.33333333333333</ele><time>2026-04-08T17:08:52.999Z</time></trkpt><trkpt lat="45.06743184853198" lon="10.06527629613521"><ele>32.0</ele><time>2026-04-08T17:08:53.999Z</time></trkpt><trkpt lat="45.067441505087345" lon="10.065150617994181"><ele>32.33333333333333</ele><time>2026-04-08T17:08:54.999Z</time></trkpt><trkpt lat="45.067452333200755" lon="10.065025872661046"><ele>32.666666666666664</ele><time>2026-04-08T17:08:55.999Z</time></trkpt><trkpt lat="45.06746342846968" lon="10.06490319019529"><ele>33.0</ele><time>2026-04-08T17:08:56.999Z</time></trkpt><trkpt lat="45.06747734266308" lon="10.064777698657586"><ele>33.333333333333336</ele><time>2026-04-08T17:08:57.999Z</time></trkpt><trkpt lat="45.06749062855826" lon="10.064654645686756"><ele>33.66666666666667</ele><time>2026-04-08T17:08:58.999Z</time></trkpt><trkpt lat="45.067500092233615" lon="10.064532633226113"><ele>34.0</ele><time>2026-04-08T17:08:59.999Z</time></trkpt><trkpt lat="45.06751226210579" lon="10.06441216375447"><ele>34.0</ele><time>2026-04-08T17:09:00.999Z</time></trkpt><trkpt lat="45.06752187848937" lon="10.064290972746619"><ele>34.0</ele><time>2026-04-08T17:09:01.999Z</time></trkpt><trkpt lat="45.067533012171666" lon="10.064176169510269"><ele>34.0</ele><time>2026-04-08T17:09:02.999Z</time></trkpt><trkpt lat="45.06754260174843" lon="10.06406243069624"><ele>34.0</ele><time>2026-04-08T17:09:03.999Z</time></trkpt><trkpt lat="45.067552177336566" lon="10.063955302402963"><ele>34.0</ele><time>2026-04-08T17:09:04.999Z</time></trkpt><trkpt lat="45.067565320152156" lon="10.063855742523039"><ele>34.0</ele><time>2026-04-08T17:09:05.999Z</time></trkpt><trkpt lat="45.06757642499682" lon="10.063761407880722"><ele>34.0</ele><time>2026-04-08T17:09:06.999Z</time></trkpt><trkpt lat="45.06758279367775" lon="10.063670620713943"><ele>34.0</ele><time>2026-04-08T17:09:07.999Z</time></trkpt><trkpt lat="45.06758747914752" lon="10.063580626795396"><ele>34.0</ele><time>2026-04-08T17:09:08.999Z</time></trkpt><trkpt lat="45.067607215042344" lon="10.063412949156318"><ele>34.0</ele><time>2026-04-08T17:09:10.999Z</time></trkpt><trkpt lat="45.06761545637056" lon="10.0632430751893"><ele>34.0</ele><time>2026-04-08T17:09:12.999Z</time></trkpt><trkpt lat="45.067623366877505" lon="10.063136260187772"><ele>34.0</ele><time>2026-04-08T17:09:13.999Z</time></trkpt><trkpt lat="45.06763671300051" lon="10.063025116584194"><ele>34.0</ele><time>2026-04-08T17:09:14.999Z</time></trkpt><trkpt lat="45.06765484049004" lon="10.0629098079836"><ele>34.0</ele><time>2026-04-08T17:09:15.999Z</time></trkpt><trkpt lat="45.06766419641461" lon="10.062795100690535"><ele>34.0</ele><time>2026-04-08T17:09:16.999Z</time></trkpt><trkpt lat="45.06767306380378" lon="10.062676656040914"><ele>34.0</ele><time>2026-04-08T17:09:17.999Z</time></trkpt><trkpt lat="45.06768246365395" lon="10.062559741817186"><ele>34.0</ele><time>2026-04-08T17:09:18.999Z</time></trkpt><trkpt lat="45.06769421574772" lon="10.062441212223966"><ele>34.0</ele><time>2026-04-08T17:09:19.999Z</time></trkpt><trkpt lat="45.067706488648376" lon="10.062320683402968"><ele>34.0</ele><time>2026-04-08T17:09:20.999Z</time></trkpt><trkpt lat="45.06772049206539" lon="10.06220240147418"><ele>34.0</ele><time>2026-04-08T17:09:21.999Z</time></trkpt><trkpt lat="45.06773457221059" lon="10.062083198352678"><ele>34.0</ele><time>2026-04-08T17:09:22.999Z</time></trkpt><trkpt lat="45.06774505725019" lon="10.061962625757964"><ele>34.0</ele><time>2026-04-08T17:09:23.999Z</time></trkpt><trkpt lat="45.067757459871615" lon="10.061843220466283"><ele>34.0</ele><time>2026-04-08T17:09:24.999Z</time></trkpt><trkpt lat="45.06776883674543" lon="10.061722759963823"><ele>34.0</ele><time>2026-04-08T17:09:25.999Z</time></trkpt><trkpt lat="45.067777484910714" lon="10.061597188143548"><ele>33.833333333333336</ele><time>2026-04-08T17:09:26.999Z</time></trkpt><trkpt lat="45.06778420697956" lon="10.061470678714917"><ele>33.66666666666667</ele><time>2026-04-08T17:09:27.999Z</time></trkpt><trkpt lat="45.06779277555562" lon="10.061344398205618"><ele>33.5</ele><time>2026-04-08T17:09:28.999Z</time></trkpt><trkpt lat="45.067801643950624" lon="10.061223389832248"><ele>33.333333333333336</ele><time>2026-04-08T17:09:29.999Z</time></trkpt><trkpt lat="45.06781061933074" lon="10.061100255704726"><ele>33.166666666666664</ele><time>2026-04-08T17:09:30.999Z</time></trkpt><trkpt lat="45.06781928374078" lon="10.060979842379615"><ele>33.0</ele><time>2026-04-08T17:09:31.999Z</time></trkpt><trkpt lat="45.06782873484297" lon="10.060861301094612"><ele>33.0</ele><time>2026-04-08T17:09:32.999Z</time></trkpt><trkpt lat="45.067838180946545" lon="10.060741356021468"><ele>33.0</ele><time>2026-04-08T17:09:33.999Z</time></trkpt><trkpt lat="45.0678470110444" lon="10.06062253202672"><ele>33.0</ele><time>2026-04-08T17:09:34.999Z</time></trkpt><trkpt lat="45.0678568074963" lon="10.060505187153483"><ele>33.0</ele><time>2026-04-08T17:09:35.999Z</time></trkpt><trkpt lat="45.067864983478835" lon="10.060386159758814"><ele>33.0</ele><time>2026-04-08T17:09:36.999Z</time></trkpt><trkpt lat="45.06787316562872" lon="10.06026671672605"><ele>33.0</ele><time>2026-04-08T17:09:37.999Z</time></trkpt><trkpt lat="45.0678812954958" lon="10.060148728032116"><ele>33.0</ele><time>2026-04-08T17:09:38.999Z</time></trkpt><trkpt lat="45.067889796420076" lon="10.060032172121556"><ele>33.0</ele><time>2026-04-08T17:09:39.999Z</time></trkpt><trkpt lat="45.06791433759988" lon="10.059919355567288"><ele>33.0</ele><time>2026-04-08T17:09:40.999Z</time></trkpt><trkpt lat="45.0679225493643" lon="10.059806374224607"><ele>33.0</ele><time>2026-04-08T17:09:41.999Z</time></trkpt><trkpt lat="45.06793097562747" lon="10.059695219861572"><ele>33.0</ele><time>2026-04-08T17:09:42.999Z</time></trkpt><trkpt lat="45.067939514730284" lon="10.059582577315052"><ele>33.0</ele><time>2026-04-08T17:09:43.999Z</time></trkpt><trkpt lat="45.06794813885074" lon="10.059469055408854"><ele>33.0</ele><time>2026-04-08T17:09:44.999Z</time></trkpt><trkpt lat="45.06795597735212" lon="10.059357031384694"><ele>33.0</ele><time>2026-04-08T17:09:45.999Z</time></trkpt><trkpt lat="45.06796328471492" lon="10.059252598585099"><ele>33.0</ele><time>2026-04-08T17:09:46.998Z</time></trkpt><trkpt lat="45.06797067321087" lon="10.059152747032204"><ele>33.0</ele><time>2026-04-08T17:09:47.998Z</time></trkpt><trkpt lat="45.06797862458611" lon="10.059057948546736"><ele>33.0</ele><time>2026-04-08T17:09:48.998Z</time></trkpt><trkpt lat="45.06798626623468" lon="10.058966843147827"><ele>33.0</ele><time>2026-04-08T17:09:49.998Z</time></trkpt><trkpt lat="45.06800194592775" lon="10.058803191399626"><ele>33.199999999999996</ele><time>2026-04-08T17:09:51.998Z</time></trkpt><trkpt lat="45.068119578025154" lon="10.058758562024256"><ele>33.4</ele><time>2026-04-08T17:09:53.998Z</time></trkpt><trkpt lat="45.068187626717496" lon="10.058785602042924"><ele>33.599999999999994</ele><time>2026-04-08T17:09:54.998Z</time></trkpt><trkpt lat="45.068314759176864" lon="10.058814215587406"><ele>33.8</ele><time>2026-04-08T17:09:56.998Z</time></trkpt><trkpt lat="45.068381263327844" lon="10.05880148661521"><ele>34.0</ele><time>2026-04-08T17:09:57.998Z</time></trkpt><trkpt lat="45.06845010653855" lon="10.058805912677906"><ele>34.5</ele><time>2026-04-08T17:09:58.998Z</time></trkpt><trkpt lat="45.06852294146425" lon="10.058835426403967"><ele>35.0</ele><time>2026-04-08T17:09:59.998Z</time></trkpt><trkpt lat="45.068594938741356" lon="10.058837866362733"><ele>35.5</ele><time>2026-04-08T17:10:00.998Z</time></trkpt><trkpt lat="45.06866921228592" lon="10.058838568395021"><ele>36.0</ele><time>2026-04-08T17:10:01.998Z</time></trkpt><trkpt lat="45.06874558311236" lon="10.058835509372372"><ele>36.5</ele><time>2026-04-08T17:10:02.998Z</time></trkpt><trkpt lat="45.068824536094255" lon="10.058828683018845"><ele>37.0</ele><time>2026-04-08T17:10:03.998Z</time></trkpt><trkpt lat="45.06890152360614" lon="10.058812017268657"><ele>37.0</ele><time>2026-04-08T17:10:04.998Z</time></trkpt><trkpt lat="45.068975272505575" lon="10.058784158770457"><ele>37.0</ele><time>2026-04-08T17:10:05.998Z</time></trkpt><trkpt lat="45.069026674780325" lon="10.058689462557796"><ele>37.0</ele><time>2026-04-08T17:10:06.998Z</time></trkpt><trkpt lat="45.06909623280309" lon="10.058645502912174"><ele>37.0</ele><time>2026-04-08T17:10:07.998Z</time></trkpt><trkpt lat="45.06916423354709" lon="10.058599041325264"><ele>37.0</ele><time>2026-04-08T17:10:08.998Z</time></trkpt><trkpt lat="45.06923086318711" lon="10.058549086847938"><ele>37.0</ele><time>2026-04-08T17:10:09.998Z</time></trkpt><trkpt lat="45.06929860834115" lon="10.058492735137207"><ele>36.5</ele><time>2026-04-08T17:10:10.998Z</time></trkpt><trkpt lat="45.069348866255936" lon="10.058428884559955"><ele>36.0</ele><time>2026-04-08T17:10:11.998Z</time></trkpt><trkpt lat="45.0694212179191" lon="10.058288185209781"><ele>35.5</ele><time>2026-04-08T17:10:13.998Z</time></trkpt><trkpt lat="45.06964423108578" lon="10.058423993598128"><ele>35.0</ele><time>2026-04-08T17:10:14.998Z</time></trkpt><trkpt lat="45.06972492691206" lon="10.058384012849393"><ele>35.0</ele><time>2026-04-08T17:10:15.998Z</time></trkpt><trkpt lat="45.06980256461908" lon="10.058344733320805"><ele>35.0</ele><time>2026-04-08T17:10:16.998Z</time></trkpt><trkpt lat="45.06988130493582" lon="10.058297728961355"><ele>35.0</ele><time>2026-04-08T17:10:17.998Z</time></trkpt><trkpt lat="45.069957896995646" lon="10.05824926846387"><ele>35.0</ele><time>2026-04-08T17:10:18.998Z</time></trkpt><trkpt lat="45.070034828001965" lon="10.058193191616608"><ele>35.0</ele><time>2026-04-08T17:10:19.998Z</time></trkpt><trkpt lat="45.0701110785912" lon="10.058135177088534"><ele>35.0</ele><time>2026-04-08T17:10:20.998Z</time></trkpt><trkpt lat="45.070185264232755" lon="10.058078260247534"><ele>34.83333333333333</ele><time>2026-04-08T17:10:21.998Z</time></trkpt><trkpt lat="45.07025886045701" lon="10.058020144745798"><ele>34.666666666666664</ele><time>2026-04-08T17:10:22.998Z</time></trkpt><trkpt lat="45.07033180302586" lon="10.057962629732026"><ele>34.5</ele><time>2026-04-08T17:10:23.998Z</time></trkpt><trkpt lat="45.07040604547617" lon="10.057903437862066"><ele>34.333333333333336</ele><time>2026-04-08T17:10:24.998Z</time></trkpt><trkpt lat="45.07047882737341" lon="10.057845403943185"><ele>34.16666666666667</ele><time>2026-04-08T17:10:25.998Z</time></trkpt><trkpt lat="45.07055273622019" lon="10.057785084100402"><ele>34.0</ele><time>2026-04-08T17:10:26.998Z</time></trkpt><trkpt lat="45.07062576334314" lon="10.057726377849335"><ele>34.0</ele><time>2026-04-08T17:10:27.998Z</time></trkpt><trkpt lat="45.070698012622536" lon="10.05766729260681"><ele>34.0</ele><time>2026-04-08T17:10:28.998Z</time></trkpt><trkpt lat="45.070768013919256" lon="10.057601599948551"><ele>34.0</ele><time>2026-04-08T17:10:29.998Z</time></trkpt><trkpt lat="45.070838084223446" lon="10.057532617881677"><ele>34.0</ele><time>2026-04-08T17:10:30.998Z</time></trkpt><trkpt lat="45.0709031114791" lon="10.057456806951242"><ele>34.0</ele><time>2026-04-08T17:10:31.998Z</time></trkpt><trkpt lat="45.070965058008376" lon="10.057375501000875"><ele>34.0</ele><time>2026-04-08T17:10:32.998Z</time></trkpt><trkpt lat="45.07102678623354" lon="10.05729784241795"><ele>34.0</ele><time>2026-04-08T17:10:33.998Z</time></trkpt><trkpt lat="45.07108793436897" lon="10.05722084814823"><ele>34.0</ele><time>2026-04-08T17:10:34.998Z</time></trkpt><trkpt lat="45.07114548800279" lon="10.057145864620251"><ele>34.0</ele><time>2026-04-08T17:10:35.998Z</time></trkpt><trkpt lat="45.07120244603084" lon="10.057072660998582"><ele>34.0</ele><time>2026-04-08T17:10:36.998Z</time></trkpt><trkpt lat="45.07125620594429" lon="10.05699989511131"><ele>34.0</ele><time>2026-04-08T17:10:37.998Z</time></trkpt><trkpt lat="45.071319692128135" lon="10.056950261922594"><ele>34.0</ele><time>2026-04-08T17:10:39Z</time></trkpt><trkpt lat="45.0713961715367" lon="10.056947479483465"><ele>34.0</ele><time>2026-04-08T17:10:40Z</time></trkpt><trkpt lat="45.071457964508475" lon="10.057033183169837"><ele>34.0</ele><time>2026-04-08T17:10:41Z</time></trkpt><trkpt lat="45.071494501394646" lon="10.057137570814431"><ele>34.0</ele><time>2026-04-08T17:10:42Z</time></trkpt><trkpt lat="45.07152717772364" lon="10.057237985421434"><ele>34.0</ele><time>2026-04-08T17:10:43Z</time></trkpt><trkpt lat="45.07156638516961" lon="10.057329377706264"><ele>34.0</ele><time>2026-04-08T17:10:44Z</time></trkpt><trkpt lat="45.07163827367224" lon="10.057375705233659"><ele>34.0</ele><time>2026-04-08T17:10:45Z</time></trkpt><trkpt lat="45.07169059031725" lon="10.057476872259496"><ele>34.0</ele><time>2026-04-08T17:10:46Z</time></trkpt><trkpt lat="45.07173391044496" lon="10.057580234507377"><ele>34.0</ele><time>2026-04-08T17:10:47Z</time></trkpt><trkpt lat="45.07177407341708" lon="10.057685973396186"><ele>34.0</ele><time>2026-04-08T17:10:48Z</time></trkpt><trkpt lat="45.0718111541349" lon="10.057777789649917"><ele>34.0</ele><time>2026-04-08T17:10:49Z</time></trkpt><trkpt lat="45.071852176706756" lon="10.057876275226882"><ele>34.0</ele><time>2026-04-08T17:10:50Z</time></trkpt><trkpt lat="45.07190626515031" lon="10.057967006731555"><ele>34.0</ele><time>2026-04-08T17:10:51Z</time></trkpt><trkpt lat="45.07197472628199" lon="10.058004005350691"><ele>34.0</ele><time>2026-04-08T17:10:52Z</time></trkpt><trkpt lat="45.072048538947634" lon="10.057991218787091"><ele>34.0</ele><time>2026-04-08T17:10:53Z</time></trkpt><trkpt lat="45.07211341467639" lon="10.057932734712331"><ele>34.0</ele><time>2026-04-08T17:10:54Z</time></trkpt><trkpt lat="45.07216938714549" lon="10.057837773229995"><ele>34.0</ele><time>2026-04-08T17:10:55Z</time></trkpt><trkpt lat="45.07222599629026" lon="10.057742981880878"><ele>34.0</ele><time>2026-04-08T17:10:56Z</time></trkpt><trkpt lat="45.07228956165339" lon="10.057653651318049"><ele>34.0</ele><time>2026-04-08T17:10:56.999Z</time></trkpt><trkpt lat="45.07235816015105" lon="10.057581104658613"><ele>34.0</ele><time>2026-04-08T17:10:57.999Z</time></trkpt><trkpt lat="45.07241747274569" lon="10.057507167255007"><ele>34.0</ele><time>2026-04-08T17:10:58.999Z</time></trkpt><trkpt lat="45.072482234947294" lon="10.05743617981387"><ele>34.0</ele><time>2026-04-08T17:10:59.999Z</time></trkpt><trkpt lat="45.072546831467015" lon="10.057368041279345"><ele>34.0</ele><time>2026-04-08T17:11:00.999Z</time></trkpt><trkpt lat="45.072610677065555" lon="10.057288622426219"><ele>34.0</ele><time>2026-04-08T17:11:01.999Z</time></trkpt><trkpt lat="45.07267264230092" lon="10.057213106434025"><ele>34.0</ele><time>2026-04-08T17:11:02.999Z</time></trkpt><trkpt lat="45.072741099995184" lon="10.057142650759065"><ele>34.0</ele><time>2026-04-08T17:11:03.999Z</time></trkpt><trkpt lat="45.072808803517496" lon="10.057076972220148"><ele>34.0</ele><time>2026-04-08T17:11:04.999Z</time></trkpt><trkpt lat="45.072880175027" lon="10.057013562206382"><ele>34.0</ele><time>2026-04-08T17:11:05.999Z</time></trkpt><trkpt lat="45.07295854328109" lon="10.056965155958062"><ele>34.0</ele><time>2026-04-08T17:11:06.999Z</time></trkpt><trkpt lat="45.073025524416785" lon="10.056890729048174"><ele>34.0</ele><time>2026-04-08T17:11:07.999Z</time></trkpt><trkpt lat="45.073090261637546" lon="10.05681866284496"><ele>34.0</ele><time>2026-04-08T17:11:08.999Z</time></trkpt><trkpt lat="45.073156285141145" lon="10.056748659145748"><ele>34.0</ele><time>2026-04-08T17:11:09.999Z</time></trkpt><trkpt lat="45.0732233367624" lon="10.056681405598464"><ele>34.0</ele><time>2026-04-08T17:11:10.999Z</time></trkpt><trkpt lat="45.07328851940608" lon="10.056609179338503"><ele>34.0</ele><time>2026-04-08T17:11:11.999Z</time></trkpt><trkpt lat="45.07335359340955" lon="10.056537126304512"><ele>34.0</ele><time>2026-04-08T17:11:12.999Z</time></trkpt><trkpt lat="45.07341831964206" lon="10.056464947496286"><ele>34.0</ele><time>2026-04-08T17:11:13.999Z</time></trkpt><trkpt lat="45.07348013716152" lon="10.05638961447528"><ele>34.0</ele><time>2026-04-08T17:11:14.999Z</time></trkpt><trkpt lat="45.073543888078305" lon="10.056312189453495"><ele>33.66666666666667</ele><time>2026-04-08T17:11:15.999Z</time></trkpt><trkpt lat="45.07360552546389" lon="10.056236975754052"><ele>33.333333333333336</ele><time>2026-04-08T17:11:16.999Z</time></trkpt><trkpt lat="45.073669680395085" lon="10.056162832343368"><ele>33.0</ele><time>2026-04-08T17:11:17.999Z</time></trkpt><trkpt lat="45.07373186350862" lon="10.05609017689908"><ele>32.666666666666664</ele><time>2026-04-08T17:11:18.999Z</time></trkpt><trkpt lat="45.07379511335354" lon="10.056016904235173"><ele>32.33333333333333</ele><time>2026-04-08T17:11:19.999Z</time></trkpt><trkpt lat="45.07385867416097" lon="10.055942268358013"><ele>32.0</ele><time>2026-04-08T17:11:20.999Z</time></trkpt><trkpt lat="45.073921898202165" lon="10.055867845067556"><ele>31.999999999999996</ele><time>2026-04-08T17:11:21.999Z</time></trkpt><trkpt lat="45.07398403680616" lon="10.055793151189583"><ele>32.0</ele><time>2026-04-08T17:11:22.999Z</time></trkpt><trkpt lat="45.074044329889425" lon="10.05571626366931"><ele>32.0</ele><time>2026-04-08T17:11:23.999Z</time></trkpt><trkpt lat="45.07410468420669" lon="10.055636986537497"><ele>32.0</ele><time>2026-04-08T17:11:24.999Z</time></trkpt><trkpt lat="45.07416538237759" lon="10.055558532423042"><ele>31.999999999999996</ele><time>2026-04-08T17:11:25.999Z</time></trkpt><trkpt lat="45.07422336490492" lon="10.055475725658452"><ele>32.0</ele><time>2026-04-08T17:11:26.999Z</time></trkpt><trkpt lat="45.07428244129527" lon="10.055390527049253"><ele>32.33333333333333</ele><time>2026-04-08T17:11:27.999Z</time></trkpt><trkpt lat="45.07433823454436" lon="10.05530723769787"><ele>32.666666666666664</ele><time>2026-04-08T17:11:28.999Z</time></trkpt><trkpt lat="45.074397483293694" lon="10.055223302091411"><ele>33.0</ele><time>2026-04-08T17:11:29.999Z</time></trkpt><trkpt lat="45.07445263025339" lon="10.055137602651543"><ele>33.333333333333336</ele><time>2026-04-08T17:11:30.999Z</time></trkpt><trkpt lat="45.07451112014279" lon="10.05505170521614"><ele>33.66666666666667</ele><time>2026-04-08T17:11:31.999Z</time></trkpt><trkpt lat="45.074568059668664" lon="10.054968718683437"><ele>34.0</ele><time>2026-04-08T17:11:32.999Z</time></trkpt><trkpt lat="45.07462776713246" lon="10.054885969234693"><ele>34.0</ele><time>2026-04-08T17:11:33.999Z</time></trkpt><trkpt lat="45.07468632962109" lon="10.054803129888173"><ele>34.0</ele><time>2026-04-08T17:11:34.999Z</time></trkpt><trkpt lat="45.07474208809927" lon="10.05471677328826"><ele>34.0</ele><time>2026-04-08T17:11:35.999Z</time></trkpt><trkpt lat="45.07479841942482" lon="10.05463355519238"><ele>34.0</ele><time>2026-04-08T17:11:36.999Z</time></trkpt><trkpt lat="45.074855892312165" lon="10.054550220264764"><ele>34.0</ele><time>2026-04-08T17:11:37.999Z</time></trkpt><trkpt lat="45.07491525135693" lon="10.054469682358244"><ele>34.0</ele><time>2026-04-08T17:11:38.999Z</time></trkpt><trkpt lat="45.07497310831806" lon="10.054385025368749"><ele>34.333333333333336</ele><time>2026-04-08T17:11:39.999Z</time></trkpt><trkpt lat="45.075030500789715" lon="10.054301635260886"><ele>34.66666666666667</ele><time>2026-04-08T17:11:40.999Z</time></trkpt><trkpt lat="45.07508637741163" lon="10.054217161596272"><ele>35.0</ele><time>2026-04-08T17:11:41.999Z</time></trkpt><trkpt lat="45.07514316271699" lon="10.054134199166901"><ele>35.333333333333336</ele><time>2026-04-08T17:11:42.999Z</time></trkpt><trkpt lat="45.075198773681635" lon="10.054046612834407"><ele>35.666666666666664</ele><time>2026-04-08T17:11:43.999Z</time></trkpt><trkpt lat="45.075248369698855" lon="10.05395393175705"><ele>36.0</ele><time>2026-04-08T17:11:44.999Z</time></trkpt><trkpt lat="45.075292154104076" lon="10.053854810163905"><ele>36.0</ele><time>2026-04-08T17:11:45.999Z</time></trkpt><trkpt lat="45.07533346344227" lon="10.053748887743367"><ele>36.0</ele><time>2026-04-08T17:11:46.999Z</time></trkpt><trkpt lat="45.07537306530165" lon="10.053649919758142"><ele>36.0</ele><time>2026-04-08T17:11:47.999Z</time></trkpt><trkpt lat="45.07541399602092" lon="10.053547704842353"><ele>36.0</ele><time>2026-04-08T17:11:48.999Z</time></trkpt><trkpt lat="45.075453163911924" lon="10.05344814282537"><ele>36.0</ele><time>2026-04-08T17:11:49.999Z</time></trkpt><trkpt lat="45.07549305915495" lon="10.05334698633877"><ele>36.0</ele><time>2026-04-08T17:11:50.999Z</time></trkpt><trkpt lat="45.075531639493086" lon="10.053244799115674"><ele>35.5</ele><time>2026-04-08T17:11:51.998Z</time></trkpt><trkpt lat="45.07556650614544" lon="10.053137586553566"><ele>35.0</ele><time>2026-04-08T17:11:52.998Z</time></trkpt><trkpt lat="45.07560109189137" lon="10.053032835384988"><ele>34.5</ele><time>2026-04-08T17:11:53.998Z</time></trkpt><trkpt lat="45.07563756265047" lon="10.052925143947398"><ele>34.0</ele><time>2026-04-08T17:11:54.998Z</time></trkpt><trkpt lat="45.07567501031985" lon="10.05281894413529"><ele>33.5</ele><time>2026-04-08T17:11:55.998Z</time></trkpt><trkpt lat="45.075712233800104" lon="10.05271129207735"><ele>33.0</ele><time>2026-04-08T17:11:56.998Z</time></trkpt><trkpt lat="45.07574790411616" lon="10.052603111308377"><ele>33.0</ele><time>2026-04-08T17:11:57.998Z</time></trkpt><trkpt lat="45.07578277362645" lon="10.052492888039463"><ele>33.0</ele><time>2026-04-08T17:11:58.998Z</time></trkpt><trkpt lat="45.075815176782136" lon="10.052384376524783"><ele>33.0</ele><time>2026-04-08T17:11:59.998Z</time></trkpt><trkpt lat="45.07585048215441" lon="10.052275023420043"><ele>33.0</ele><time>2026-04-08T17:12:00.998Z</time></trkpt><trkpt lat="45.075886578082894" lon="10.052166205205053"><ele>33.0</ele><time>2026-04-08T17:12:01.998Z</time></trkpt><trkpt lat="45.075920601448615" lon="10.052052967697822"><ele>33.0</ele><time>2026-04-08T17:12:02.998Z</time></trkpt><trkpt lat="45.07595463171671" lon="10.051941885934376"><ele>33.166666666666664</ele><time>2026-04-08T17:12:03.998Z</time></trkpt><trkpt lat="45.07598978800217" lon="10.051830924510263"><ele>33.333333333333336</ele><time>2026-04-08T17:12:04.998Z</time></trkpt><trkpt lat="45.07602489020669" lon="10.051721358489683"><ele>33.5</ele><time>2026-04-08T17:12:05.998Z</time></trkpt><trkpt lat="45.07606090496891" lon="10.051609410808284"><ele>33.66666666666667</ele><time>2026-04-08T17:12:06.998Z</time></trkpt><trkpt lat="45.07609441613823" lon="10.051497334764015"><ele>33.833333333333336</ele><time>2026-04-08T17:12:07.998Z</time></trkpt><trkpt lat="45.07612801099834" lon="10.051382555493657"><ele>34.0</ele><time>2026-04-08T17:12:08.998Z</time></trkpt><trkpt lat="45.076159646476206" lon="10.051269888726425"><ele>34.0</ele><time>2026-04-08T17:12:09.998Z</time></trkpt><trkpt lat="45.07619162210451" lon="10.05115946598898"><ele>34.0</ele><time>2026-04-08T17:12:10.998Z</time></trkpt><trkpt lat="45.0762267246577" lon="10.051049052784242"><ele>34.0</ele><time>2026-04-08T17:12:11.998Z</time></trkpt><trkpt lat="45.07626191944656" lon="10.050936817594637"><ele>34.0</ele><time>2026-04-08T17:12:12.998Z</time></trkpt><trkpt lat="45.076295776600105" lon="10.05082607790997"><ele>34.0</ele><time>2026-04-08T17:12:13.998Z</time></trkpt><trkpt lat="45.076330994655905" lon="10.05071470627176"><ele>34.0</ele><time>2026-04-08T17:12:14.998Z</time></trkpt><trkpt lat="45.07636800985318" lon="10.05060577844332"><ele>34.0</ele><time>2026-04-08T17:12:15.998Z</time></trkpt><trkpt lat="45.07640426511739" lon="10.05049699461025"><ele>34.0</ele><time>2026-04-08T17:12:16.998Z</time></trkpt><trkpt lat="45.076439670598816" lon="10.050384767633286"><ele>34.0</ele><time>2026-04-08T17:12:17.998Z</time></trkpt><trkpt lat="45.07647263561208" lon="10.050272508990213"><ele>34.0</ele><time>2026-04-08T17:12:18.998Z</time></trkpt><trkpt lat="45.07650455318819" lon="10.050160772759122"><ele>34.0</ele><time>2026-04-08T17:12:19.998Z</time></trkpt><trkpt lat="45.07653570260536" lon="10.050049324029708"><ele>34.0</ele><time>2026-04-08T17:12:20.998Z</time></trkpt><trkpt lat="45.07656607226835" lon="10.0499344497321"><ele>33.66666666666667</ele><time>2026-04-08T17:12:21.998Z</time></trkpt><trkpt lat="45.076588661584665" lon="10.04981661214704"><ele>33.333333333333336</ele><time>2026-04-08T17:12:22.998Z</time></trkpt><trkpt lat="45.07660619018161" lon="10.049695666829226"><ele>33.0</ele><time>2026-04-08T17:12:23.998Z</time></trkpt><trkpt lat="45.07662021453273" lon="10.049578031086027"><ele>32.666666666666664</ele><time>2026-04-08T17:12:24.998Z</time></trkpt><trkpt lat="45.0766392740093" lon="10.049460550792915"><ele>32.33333333333333</ele><time>2026-04-08T17:12:25.998Z</time></trkpt><trkpt lat="45.07665917591245" lon="10.049342149606398"><ele>32.0</ele><time>2026-04-08T17:12:26.998Z</time></trkpt><trkpt lat="45.07667784784477" lon="10.049223355508548"><ele>32.5</ele><time>2026-04-08T17:12:27.998Z</time></trkpt><trkpt lat="45.076692940949954" lon="10.049105432009206"><ele>33.0</ele><time>2026-04-08T17:12:28.998Z</time></trkpt><trkpt lat="45.07670834922163" lon="10.04898618216644"><ele>33.5</ele><time>2026-04-08T17:12:29.998Z</time></trkpt><trkpt lat="45.07672883821582" lon="10.04886996697235"><ele>34.0</ele><time>2026-04-08T17:12:30.998Z</time></trkpt><trkpt lat="45.076750878409214" lon="10.048753210400873"><ele>34.5</ele><time>2026-04-08T17:12:31.998Z</time></trkpt><trkpt lat="45.076766807480155" lon="10.048635591104068"><ele>35.0</ele><time>2026-04-08T17:12:32.998Z</time></trkpt><trkpt lat="45.07677903702444" lon="10.048517417138175"><ele>35.0</ele><time>2026-04-08T17:12:33.998Z</time></trkpt><trkpt lat="45.0767863912954" lon="10.04839739429083"><ele>35.0</ele><time>2026-04-08T17:12:34.998Z</time></trkpt><trkpt lat="45.07679383391911" lon="10.048280572696509"><ele>35.0</ele><time>2026-04-08T17:12:35.998Z</time></trkpt><trkpt lat="45.07680317240177" lon="10.048163913245755"><ele>35.0</ele><time>2026-04-08T17:12:36.998Z</time></trkpt><trkpt lat="45.076816086538166" lon="10.048045891219484"><ele>35.0</ele><time>2026-04-08T17:12:37.998Z</time></trkpt><trkpt lat="45.076830274773286" lon="10.047929772237866"><ele>35.0</ele><time>2026-04-08T17:12:38.998Z</time></trkpt><trkpt lat="45.076843574407704" lon="10.047811505088143"><ele>35.0</ele><time>2026-04-08T17:12:39.998Z</time></trkpt><trkpt lat="45.07685733164337" lon="10.047693813259324"><ele>35.0</ele><time>2026-04-08T17:12:40.998Z</time></trkpt><trkpt lat="45.07686915025692" lon="10.047576286411557"><ele>35.0</ele><time>2026-04-08T17:12:41.998Z</time></trkpt><trkpt lat="45.07688056729258" lon="10.047457555263941"><ele>35.0</ele><time>2026-04-08T17:12:42.998Z</time></trkpt><trkpt lat="45.07688245221937" lon="10.047337556136087"><ele>35.0</ele><time>2026-04-08T17:12:43.998Z</time></trkpt><trkpt lat="45.076875738394364" lon="10.047216989410952"><ele>35.0</ele><time>2026-04-08T17:12:45Z</time></trkpt><trkpt lat="45.07686482290975" lon="10.047100324978784"><ele>35.33333333333333</ele><time>2026-04-08T17:12:46Z</time></trkpt><trkpt lat="45.07685941644447" lon="10.046981878292398"><ele>35.666666666666664</ele><time>2026-04-08T17:12:47Z</time></trkpt><trkpt lat="45.07686081203816" lon="10.046865322788113"><ele>36.0</ele><time>2026-04-08T17:12:48Z</time></trkpt><trkpt lat="45.07686608744709" lon="10.04674702503817"><ele>36.333333333333336</ele><time>2026-04-08T17:12:49Z</time></trkpt><trkpt lat="45.076872222245036" lon="10.046630531681124"><ele>36.66666666666667</ele><time>2026-04-08T17:12:50Z</time></trkpt><trkpt lat="45.07687563430285" lon="10.046513699898671"><ele>37.0</ele><time>2026-04-08T17:12:51Z</time></trkpt><trkpt lat="45.07688013972756" lon="10.046398070916004"><ele>37.142857142857146</ele><time>2026-04-08T17:12:52Z</time></trkpt><trkpt lat="45.07688810392778" lon="10.046286453688314"><ele>37.285714285714285</ele><time>2026-04-08T17:12:53Z</time></trkpt><trkpt lat="45.0768959773224" lon="10.046178156862823"><ele>37.42857142857143</ele><time>2026-04-08T17:12:54Z</time></trkpt><trkpt lat="45.07690366675612" lon="10.046072590279254"><ele>37.57142857142857</ele><time>2026-04-08T17:12:55Z</time></trkpt><trkpt lat="45.07691050014557" lon="10.045968419658852"><ele>37.714285714285715</ele><time>2026-04-08T17:12:56Z</time></trkpt><trkpt lat="45.07691664329517" lon="10.04586797942215"><ele>37.857142857142854</ele><time>2026-04-08T17:12:57Z</time></trkpt><trkpt lat="45.07692477831928" lon="10.045768394892846"><ele>38.0</ele><time>2026-04-08T17:12:58Z</time></trkpt><trkpt lat="45.07694456623091" lon="10.045680304951059"><ele>38.0</ele><time>2026-04-08T17:12:59Z</time></trkpt><trkpt lat="45.07705692093138" lon="10.045613516819394"><ele>38.0</ele><time>2026-04-08T17:13:01Z</time></trkpt><trkpt lat="45.07712618939573" lon="10.04564428599816"><ele>38.0</ele><time>2026-04-08T17:13:01.999Z</time></trkpt><trkpt lat="45.077195720722216" lon="10.045690968202083"><ele>38.0</ele><time>2026-04-08T17:13:02.999Z</time></trkpt><trkpt lat="45.07726065264045" lon="10.045738088099156"><ele>38.0</ele><time>2026-04-08T17:13:03.999Z</time></trkpt><trkpt lat="45.077328322286824" lon="10.045780609376152"><ele>38.0</ele><time>2026-04-08T17:13:04.999Z</time></trkpt><trkpt lat="45.077395817670705" lon="10.045824866365011"><ele>37.5</ele><time>2026-04-08T17:13:05.999Z</time></trkpt><trkpt lat="45.077462619351685" lon="10.045864972555405"><ele>37.0</ele><time>2026-04-08T17:13:06.999Z</time></trkpt><trkpt lat="45.07753201047164" lon="10.045911603879743"><ele>36.5</ele><time>2026-04-08T17:13:07.999Z</time></trkpt><trkpt lat="45.07760461564021" lon="10.045954664614927"><ele>36.0</ele><time>2026-04-08T17:13:08.999Z</time></trkpt><trkpt lat="45.07767190237252" lon="10.046003601226646"><ele>35.5</ele><time>2026-04-08T17:13:09.999Z</time></trkpt><trkpt lat="45.07774286891016" lon="10.046050572439778"><ele>35.0</ele><time>2026-04-08T17:13:10.999Z</time></trkpt><trkpt lat="45.07781421066768" lon="10.046104581143144"><ele>35.0</ele><time>2026-04-08T17:13:11.999Z</time></trkpt><trkpt lat="45.07788459788778" lon="10.046154266198188"><ele>35.0</ele><time>2026-04-08T17:13:12.999Z</time></trkpt><trkpt lat="45.077955448468735" lon="10.046205296872024"><ele>35.0</ele><time>2026-04-08T17:13:13.999Z</time></trkpt><trkpt lat="45.07802434578754" lon="10.046251642433457"><ele>35.0</ele><time>2026-04-08T17:13:14.999Z</time></trkpt><trkpt lat="45.07809705561045" lon="10.04629700906771"><ele>35.0</ele><time>2026-04-08T17:13:15.999Z</time></trkpt><trkpt lat="45.07817371738698" lon="10.04633609246213"><ele>35.0</ele><time>2026-04-08T17:13:16.999Z</time></trkpt><trkpt lat="45.07825086200186" lon="10.046374506728363"><ele>35.0</ele><time>2026-04-08T17:13:17.999Z</time></trkpt><trkpt lat="45.0783281518877" lon="10.04641219765398"><ele>35.0</ele><time>2026-04-08T17:13:18.999Z</time></trkpt><trkpt lat="45.07840790800054" lon="10.046446229842278"><ele>35.0</ele><time>2026-04-08T17:13:19.999Z</time></trkpt><trkpt lat="45.07848923978137" lon="10.046484390984277"><ele>35.0</ele><time>2026-04-08T17:13:20.999Z</time></trkpt><trkpt lat="45.07856747410625" lon="10.046521167858607"><ele>35.0</ele><time>2026-04-08T17:13:21.999Z</time></trkpt><trkpt lat="45.07864859498512" lon="10.046558894678716"><ele>35.0</ele><time>2026-04-08T17:13:22.999Z</time></trkpt><trkpt lat="45.07872781503622" lon="10.04659399900756"><ele>35.0</ele><time>2026-04-08T17:13:23.999Z</time></trkpt><trkpt lat="45.07880781527334" lon="10.046625687560072"><ele>35.0</ele><time>2026-04-08T17:13:24.999Z</time></trkpt><trkpt lat="45.078886684997116" lon="10.046656416585682"><ele>35.0</ele><time>2026-04-08T17:13:25.999Z</time></trkpt><trkpt lat="45.078966706940854" lon="10.046694478476342"><ele>35.0</ele><time>2026-04-08T17:13:26.999Z</time></trkpt><trkpt lat="45.07904403547737" lon="10.046733884130882"><ele>35.0</ele><time>2026-04-08T17:13:27.999Z</time></trkpt><trkpt lat="45.079124600446" lon="10.046770185428"><ele>35.0</ele><time>2026-04-08T17:13:28.999Z</time></trkpt><trkpt lat="45.079204834548804" lon="10.046803664462566"><ele>35.0</ele><time>2026-04-08T17:13:29.999Z</time></trkpt><trkpt lat="45.079284318463785" lon="10.046835821468798"><ele>35.0</ele><time>2026-04-08T17:13:30.999Z</time></trkpt><trkpt lat="45.079362240422576" lon="10.04686806605299"><ele>35.0</ele><time>2026-04-08T17:13:31.999Z</time></trkpt><trkpt lat="45.079444195109794" lon="10.046897721483573"><ele>35.0</ele><time>2026-04-08T17:13:32.999Z</time></trkpt><trkpt lat="45.07952536130466" lon="10.046910581859875"><ele>35.0</ele><time>2026-04-08T17:13:33.999Z</time></trkpt><trkpt lat="45.07961058773376" lon="10.046898996948041"><ele>35.0</ele><time>2026-04-08T17:13:34.999Z</time></trkpt><trkpt lat="45.07969209383269" lon="10.046861117160278"><ele>35.0</ele><time>2026-04-08T17:13:35.999Z</time></trkpt><trkpt lat="45.079772621422066" lon="10.046817326183676"><ele>35.0</ele><time>2026-04-08T17:13:36.999Z</time></trkpt><trkpt lat="45.07984968665099" lon="10.046770861796654"><ele>35.0</ele><time>2026-04-08T17:13:37.999Z</time></trkpt><trkpt lat="45.07992813375124" lon="10.046730760891897"><ele>35.0</ele><time>2026-04-08T17:13:38.999Z</time></trkpt><trkpt lat="45.0800066406912" lon="10.046688394858219"><ele>35.0</ele><time>2026-04-08T17:13:39.999Z</time></trkpt><trkpt lat="45.08008720243821" lon="10.04664808148479"><ele>35.0</ele><time>2026-04-08T17:13:40.999Z</time></trkpt><trkpt lat="45.08016591351697" lon="10.046609228652384"><ele>34.83333333333333</ele><time>2026-04-08T17:13:41.999Z</time></trkpt><trkpt lat="45.0802459110033" lon="10.046568821133706"><ele>34.666666666666664</ele><time>2026-04-08T17:13:42.999Z</time></trkpt><trkpt lat="45.08032413746651" lon="10.046525100007967"><ele>34.5</ele><time>2026-04-08T17:13:43.999Z</time></trkpt><trkpt lat="45.08040535867888" lon="10.046484806519056"><ele>34.333333333333336</ele><time>2026-04-08T17:13:44.999Z</time></trkpt><trkpt lat="45.08048477284672" lon="10.04644669214989"><ele>34.16666666666667</ele><time>2026-04-08T17:13:45.999Z</time></trkpt><trkpt lat="45.080564519991896" lon="10.046403695535767"><ele>34.0</ele><time>2026-04-08T17:13:46.999Z</time></trkpt><trkpt lat="45.08064381244515" lon="10.046360804749812"><ele>34.0</ele><time>2026-04-08T17:13:47.999Z</time></trkpt><trkpt lat="45.0807245788338" lon="10.046323448970503"><ele>34.0</ele><time>2026-04-08T17:13:48.999Z</time></trkpt><trkpt lat="45.08080460384813" lon="10.04628847677543"><ele>34.0</ele><time>2026-04-08T17:13:49.999Z</time></trkpt><trkpt lat="45.080885672346106" lon="10.046250772241606"><ele>34.0</ele><time>2026-04-08T17:13:50.999Z</time></trkpt><trkpt lat="45.080965226099416" lon="10.046209258014299"><ele>34.0</ele><time>2026-04-08T17:13:51.999Z</time></trkpt><trkpt lat="45.081045679441765" lon="10.046170049353176"><ele>34.0</ele><time>2026-04-08T17:13:52.999Z</time></trkpt><trkpt lat="45.081124152938585" lon="10.046131541234463"><ele>34.16666666666667</ele><time>2026-04-08T17:13:53.999Z</time></trkpt><trkpt lat="45.081204329232" lon="10.046092644709914"><ele>34.333333333333336</ele><time>2026-04-08T17:13:54.999Z</time></trkpt><trkpt lat="45.081280216059504" lon="10.046052831501958"><ele>34.5</ele><time>2026-04-08T17:13:55.998Z</time></trkpt><trkpt lat="45.08135792475135" lon="10.046000247027814"><ele>34.666666666666664</ele><time>2026-04-08T17:13:56.998Z</time></trkpt><trkpt lat="45.08142990007611" lon="10.045941520098724"><ele>34.83333333333333</ele><time>2026-04-08T17:13:57.998Z</time></trkpt><trkpt lat="45.08149788743519" lon="10.045871322433975"><ele>35.0</ele><time>2026-04-08T17:13:58.998Z</time></trkpt><trkpt lat="45.08156385495723" lon="10.045801197558376"><ele>34.83333333333333</ele><time>2026-04-08T17:13:59.998Z</time></trkpt><trkpt lat="45.08163060555559" lon="10.045726773287102"><ele>34.666666666666664</ele><time>2026-04-08T17:14:00.998Z</time></trkpt><trkpt lat="45.081697570977546" lon="10.04565342050794"><ele>34.5</ele><time>2026-04-08T17:14:01.998Z</time></trkpt><trkpt lat="45.08176337084279" lon="10.04558084207955"><ele>34.333333333333336</ele><time>2026-04-08T17:14:02.998Z</time></trkpt><trkpt lat="45.08182952896637" lon="10.045509347110249"><ele>34.16666666666667</ele><time>2026-04-08T17:14:03.998Z</time></trkpt><trkpt lat="45.081896928004696" lon="10.045439236768148"><ele>34.0</ele><time>2026-04-08T17:14:04.998Z</time></trkpt><trkpt lat="45.08196367511853" lon="10.04536939218744"><ele>34.0</ele><time>2026-04-08T17:14:05.998Z</time></trkpt><trkpt lat="45.08202948836656" lon="10.045298510974467"><ele>34.0</ele><time>2026-04-08T17:14:06.998Z</time></trkpt><trkpt lat="45.08209860934164" lon="10.045228728516584"><ele>34.0</ele><time>2026-04-08T17:14:07.998Z</time></trkpt><trkpt lat="45.082167163689064" lon="10.045158025036763"><ele>34.0</ele><time>2026-04-08T17:14:08.998Z</time></trkpt><trkpt lat="45.08223489618831" lon="10.045086296855812"><ele>34.0</ele><time>2026-04-08T17:14:09.998Z</time></trkpt><trkpt lat="45.082303112510715" lon="10.045016124841231"><ele>34.0</ele><time>2026-04-08T17:14:10.998Z</time></trkpt><trkpt lat="45.08237132620471" lon="10.04494608898359"><ele>33.833333333333336</ele><time>2026-04-08T17:14:11.998Z</time></trkpt><trkpt lat="45.08243904819735" lon="10.04487504462936"><ele>33.66666666666667</ele><time>2026-04-08T17:14:12.998Z</time></trkpt><trkpt lat="45.08250404163483" lon="10.044798500389112"><ele>33.5</ele><time>2026-04-08T17:14:13.998Z</time></trkpt><trkpt lat="45.082561531009766" lon="10.044709518448842"><ele>33.333333333333336</ele><time>2026-04-08T17:14:14.998Z</time></trkpt><trkpt lat="45.08260163689528" lon="10.04459988828742"><ele>33.166666666666664</ele><time>2026-04-08T17:14:15.998Z</time></trkpt><trkpt lat="45.08262286150776" lon="10.044475801940829"><ele>33.0</ele><time>2026-04-08T17:14:16.998Z</time></trkpt><trkpt lat="45.082633671281826" lon="10.04435264625545"><ele>33.0</ele><time>2026-04-08T17:14:17.998Z</time></trkpt><trkpt lat="45.08264706102391" lon="10.044229286284613"><ele>33.0</ele><time>2026-04-08T17:14:18.998Z</time></trkpt><trkpt lat="45.082670507029434" lon="10.04411397541895"><ele>33.0</ele><time>2026-04-08T17:14:19.998Z</time></trkpt><trkpt lat="45.08270676194399" lon="10.044002422156108"><ele>33.0</ele><time>2026-04-08T17:14:20.998Z</time></trkpt><trkpt lat="45.08275797671763" lon="10.043906337706405"><ele>33.0</ele><time>2026-04-08T17:14:21.998Z</time></trkpt><trkpt lat="45.082821125833924" lon="10.043817876900421"><ele>33.0</ele><time>2026-04-08T17:14:22.998Z</time></trkpt><trkpt lat="45.08288916807359" lon="10.043741877073938"><ele>33.0</ele><time>2026-04-08T17:14:23.998Z</time></trkpt><trkpt lat="45.08296013732098" lon="10.04366624468258"><ele>33.0</ele><time>2026-04-08T17:14:24.998Z</time></trkpt><trkpt lat="45.083027850561784" lon="10.043591785460205"><ele>33.0</ele><time>2026-04-08T17:14:25.998Z</time></trkpt><trkpt lat="45.083093646989305" lon="10.043513005783261"><ele>33.0</ele><time>2026-04-08T17:14:26.998Z</time></trkpt><trkpt lat="45.08315789691699" lon="10.043434750198827"><ele>33.0</ele><time>2026-04-08T17:14:27.998Z</time></trkpt><trkpt lat="45.08322397951832" lon="10.043357015348548"><ele>33.0</ele><time>2026-04-08T17:14:28.998Z</time></trkpt><trkpt lat="45.08329048922808" lon="10.043277111036298"><ele>32.833333333333336</ele><time>2026-04-08T17:14:29.998Z</time></trkpt><trkpt lat="45.08335409426267" lon="10.043196957063492"><ele>32.666666666666664</ele><time>2026-04-08T17:14:30.998Z</time></trkpt><trkpt lat="45.08341889412315" lon="10.04312080027812"><ele>32.5</ele><time>2026-04-08T17:14:31.998Z</time></trkpt><trkpt lat="45.08348348910271" lon="10.043044078946744"><ele>32.33333333333333</ele><time>2026-04-08T17:14:32.998Z</time></trkpt><trkpt lat="45.08355148742177" lon="10.042963222786337"><ele>32.166666666666664</ele><time>2026-04-08T17:14:33.998Z</time></trkpt><trkpt lat="45.08362043437387" lon="10.04288148422636"><ele>32.0</ele><time>2026-04-08T17:14:34.998Z</time></trkpt><trkpt lat="45.08368665762386" lon="10.042800594643722"><ele>31.999999999999996</ele><time>2026-04-08T17:14:35.998Z</time></trkpt><trkpt lat="45.08375332075301" lon="10.042719019902384"><ele>32.0</ele><time>2026-04-08T17:14:36.998Z</time></trkpt><trkpt lat="45.08381942027428" lon="10.042635272548926"><ele>32.0</ele><time>2026-04-08T17:14:37.998Z</time></trkpt><trkpt lat="45.08388667381643" lon="10.04255284259849"><ele>32.0</ele><time>2026-04-08T17:14:38.998Z</time></trkpt><trkpt lat="45.083954447547384" lon="10.042473632658908"><ele>31.999999999999996</ele><time>2026-04-08T17:14:39.998Z</time></trkpt><trkpt lat="45.08402338149408" lon="10.042394808856338"><ele>32.0</ele><time>2026-04-08T17:14:40.998Z</time></trkpt><trkpt lat="45.08409073354652" lon="10.042316147687504"><ele>32.33333333333333</ele><time>2026-04-08T17:14:41.998Z</time></trkpt><trkpt lat="45.08415936809824" lon="10.04223560275298"><ele>32.666666666666664</ele><time>2026-04-08T17:14:42.998Z</time></trkpt><trkpt lat="45.08422597126449" lon="10.042154173105628"><ele>33.0</ele><time>2026-04-08T17:14:43.998Z</time></trkpt><trkpt lat="45.08429143182006" lon="10.04207655758485"><ele>33.333333333333336</ele><time>2026-04-08T17:14:44.998Z</time></trkpt><trkpt lat="45.08435873579182" lon="10.041995754433978"><ele>33.66666666666667</ele><time>2026-04-08T17:14:45.998Z</time></trkpt><trkpt lat="45.084425172028666" lon="10.041915409351608"><ele>34.0</ele><time>2026-04-08T17:14:46.998Z</time></trkpt><trkpt lat="45.084492166051064" lon="10.041838223052716"><ele>34.0</ele><time>2026-04-08T17:14:47.998Z</time></trkpt><trkpt lat="45.08455983746483" lon="10.041758328907788"><ele>34.0</ele><time>2026-04-08T17:14:48.998Z</time></trkpt><trkpt lat="45.08462514150233" lon="10.041679189029365"><ele>34.0</ele><time>2026-04-08T17:14:49.997Z</time></trkpt><trkpt lat="45.08469135725081" lon="10.041597337740402"><ele>34.0</ele><time>2026-04-08T17:14:51Z</time></trkpt><trkpt lat="45.084756583408534" lon="10.041518328037135"><ele>34.0</ele><time>2026-04-08T17:14:52Z</time></trkpt><trkpt lat="45.08482003739162" lon="10.04143803917776"><ele>34.0</ele><time>2026-04-08T17:14:53Z</time></trkpt><trkpt lat="45.08488509035564" lon="10.041357621589372"><ele>34.0</ele><time>2026-04-08T17:14:54Z</time></trkpt><trkpt lat="45.08495145749951" lon="10.041277461541938"><ele>34.0</ele><time>2026-04-08T17:14:55Z</time></trkpt><trkpt lat="45.08501873696616" lon="10.04119925384637"><ele>34.0</ele><time>2026-04-08T17:14:56Z</time></trkpt><trkpt lat="45.08508564311457" lon="10.041122394082251"><ele>34.0</ele><time>2026-04-08T17:14:57Z</time></trkpt><trkpt lat="45.085152384529245" lon="10.041044500452696"><ele>34.0</ele><time>2026-04-08T17:14:58Z</time></trkpt><trkpt lat="45.085217117536075" lon="10.040967439202362"><ele>34.0</ele><time>2026-04-08T17:14:59Z</time></trkpt><trkpt lat="45.085276523118054" lon="10.040885999347484"><ele>34.0</ele><time>2026-04-08T17:15:00Z</time></trkpt><trkpt lat="45.085338955012695" lon="10.040812329098577"><ele>34.0</ele><time>2026-04-08T17:15:01Z</time></trkpt><trkpt lat="45.08541509944786" lon="10.040779640732644"><ele>34.0</ele><time>2026-04-08T17:15:02Z</time></trkpt><trkpt lat="45.08549775548467" lon="10.040797594990824"><ele>34.0</ele><time>2026-04-08T17:15:03Z</time></trkpt><trkpt lat="45.08556697287683" lon="10.040863936464554"><ele>34.0</ele><time>2026-04-08T17:15:04Z</time></trkpt><trkpt lat="45.08562569242234" lon="10.040945150030428"><ele>34.0</ele><time>2026-04-08T17:15:05Z</time></trkpt><trkpt lat="45.085682092927875" lon="10.041027950670186"><ele>34.0</ele><time>2026-04-08T17:15:05.999Z</time></trkpt><trkpt lat="45.08574217553642" lon="10.041104981041613"><ele>34.0</ele><time>2026-04-08T17:15:06.999Z</time></trkpt><trkpt lat="45.08580126368213" lon="10.041178317372793"><ele>34.0</ele><time>2026-04-08T17:15:07.999Z</time></trkpt><trkpt lat="45.0858683691033" lon="10.04125108156574"><ele>34.0</ele><time>2026-04-08T17:15:08.999Z</time></trkpt><trkpt lat="45.08592893747405" lon="10.041324637352048"><ele>34.0</ele><time>2026-04-08T17:15:09.999Z</time></trkpt><trkpt lat="45.08599159523941" lon="10.041393086208446"><ele>34.0</ele><time>2026-04-08T17:15:10.999Z</time></trkpt><trkpt lat="45.08605118998654" lon="10.041461243276483"><ele>33.99999999999999</ele><time>2026-04-08T17:15:11.999Z</time></trkpt><trkpt lat="45.08610898282296" lon="10.041530683856555"><ele>34.0</ele><time>2026-04-08T17:15:12.999Z</time></trkpt><trkpt lat="45.08616518796495" lon="10.041599517567176"><ele>34.0</ele><time>2026-04-08T17:15:13.999Z</time></trkpt><trkpt lat="45.08622332115691" lon="10.041664562877306"><ele>34.0</ele><time>2026-04-08T17:15:14.999Z</time></trkpt><trkpt lat="45.08628081803578" lon="10.041730104405787"><ele>34.0</ele><time>2026-04-08T17:15:15.999Z</time></trkpt><trkpt lat="45.08633787351385" lon="10.041797562466273"><ele>33.99999999999999</ele><time>2026-04-08T17:15:16.999Z</time></trkpt><trkpt lat="45.08639133079675" lon="10.041863052397046"><ele>34.0</ele><time>2026-04-08T17:15:17.999Z</time></trkpt><trkpt lat="45.08645443878226" lon="10.041900629948405"><ele>34.0</ele><time>2026-04-08T17:15:18.999Z</time></trkpt><trkpt lat="45.08652650676373" lon="10.041871742368638"><ele>34.0</ele><time>2026-04-08T17:15:19.999Z</time></trkpt><trkpt lat="45.08657860028901" lon="10.041789458954613"><ele>34.0</ele><time>2026-04-08T17:15:20.999Z</time></trkpt><trkpt lat="45.08661406994842" lon="10.041688917285459"><ele>34.0</ele><time>2026-04-08T17:15:21.999Z</time></trkpt><trkpt lat="45.086648994681575" lon="10.041597681635425"><ele>34.0</ele><time>2026-04-08T17:15:22.999Z</time></trkpt><trkpt lat="45.08669613586472" lon="10.041514844758094"><ele>34.0</ele><time>2026-04-08T17:15:23.999Z</time></trkpt><trkpt lat="45.086745444143496" lon="10.041430908211325"><ele>34.16666666666667</ele><time>2026-04-08T17:15:24.999Z</time></trkpt><trkpt lat="45.086795385189795" lon="10.04134277579916"><ele>34.333333333333336</ele><time>2026-04-08T17:15:25.999Z</time></trkpt><trkpt lat="45.08684696730411" lon="10.041256689873412"><ele>34.5</ele><time>2026-04-08T17:15:26.999Z</time></trkpt><trkpt lat="45.086896717277085" lon="10.041167233575234"><ele>34.666666666666664</ele><time>2026-04-08T17:15:27.999Z</time></trkpt><trkpt lat="45.08694429492278" lon="10.041080211611062"><ele>34.83333333333333</ele><time>2026-04-08T17:15:28.999Z</time></trkpt><trkpt lat="45.08699401794136" lon="10.040998216751984"><ele>35.0</ele><time>2026-04-08T17:15:29.999Z</time></trkpt><trkpt lat="45.08704905916941" lon="10.040922042535911"><ele>35.0</ele><time>2026-04-08T17:15:30.999Z</time></trkpt><trkpt lat="45.08711711793617" lon="10.040872637914243"><ele>35.0</ele><time>2026-04-08T17:15:31.999Z</time></trkpt><trkpt lat="45.087200531657885" lon="10.040860339331376"><ele>35.0</ele><time>2026-04-08T17:15:32.999Z</time></trkpt><trkpt lat="45.08728196798439" lon="10.040889936142468"><ele>35.0</ele><time>2026-04-08T17:15:33.999Z</time></trkpt><trkpt lat="45.08735628479639" lon="10.040953438558605"><ele>35.0</ele><time>2026-04-08T17:15:34.999Z</time></trkpt><trkpt lat="45.087422255970004" lon="10.041026281613808"><ele>35.0</ele><time>2026-04-08T17:15:35.999Z</time></trkpt><trkpt lat="45.0874897032218" lon="10.041096895001424"><ele>35.166666666666664</ele><time>2026-04-08T17:15:36.999Z</time></trkpt><trkpt lat="45.087558901808194" lon="10.041163121564248"><ele>35.33333333333333</ele><time>2026-04-08T17:15:37.999Z</time></trkpt><trkpt lat="45.087628021525624" lon="10.041224159941583"><ele>35.5</ele><time>2026-04-08T17:15:38.999Z</time></trkpt><trkpt lat="45.08769943215211" lon="10.041283233419277"><ele>35.666666666666664</ele><time>2026-04-08T17:15:39.999Z</time></trkpt><trkpt lat="45.08776797982374" lon="10.041346503971646"><ele>35.833333333333336</ele><time>2026-04-08T17:15:40.999Z</time></trkpt><trkpt lat="45.08783590398555" lon="10.041413777836631"><ele>36.0</ele><time>2026-04-08T17:15:41.999Z</time></trkpt><trkpt lat="45.08790392879001" lon="10.041481407294182"><ele>36.0</ele><time>2026-04-08T17:15:42.999Z</time></trkpt><trkpt lat="45.08797258321893" lon="10.041545601750306"><ele>36.0</ele><time>2026-04-08T17:15:43.999Z</time></trkpt><trkpt lat="45.088043460964855" lon="10.041606981611112"><ele>36.0</ele><time>2026-04-08T17:15:44.999Z</time></trkpt><trkpt lat="45.08811715753739" lon="10.041668627599833"><ele>36.0</ele><time>2026-04-08T17:15:45.999Z</time></trkpt><trkpt lat="45.088188465971896" lon="10.04173478895153"><ele>36.0</ele><time>2026-04-08T17:15:46.999Z</time></trkpt><trkpt lat="45.088259587127695" lon="10.041795344187111"><ele>36.0</ele><time>2026-04-08T17:15:47.999Z</time></trkpt><trkpt lat="45.088329533122646" lon="10.041854973083174"><ele>36.166666666666664</ele><time>2026-04-08T17:15:48.999Z</time></trkpt><trkpt lat="45.088400549900705" lon="10.041919447814092"><ele>36.333333333333336</ele><time>2026-04-08T17:15:49.999Z</time></trkpt><trkpt lat="45.08846838473682" lon="10.041980227157154"><ele>36.5</ele><time>2026-04-08T17:15:50.999Z</time></trkpt><trkpt lat="45.088538765156784" lon="10.04204204188133"><ele>36.66666666666667</ele><time>2026-04-08T17:15:51.999Z</time></trkpt><trkpt lat="45.08860994643066" lon="10.042108176103214"><ele>36.833333333333336</ele><time>2026-04-08T17:15:52.999Z</time></trkpt><trkpt lat="45.08868251909855" lon="10.0421693335482"><ele>37.0</ele><time>2026-04-08T17:15:53.999Z</time></trkpt><trkpt lat="45.088752270614066" lon="10.042231753942918"><ele>37.0</ele><time>2026-04-08T17:15:54.998Z</time></trkpt><trkpt lat="45.08881821877151" lon="10.04229011422247"><ele>37.0</ele><time>2026-04-08T17:15:55.998Z</time></trkpt><trkpt lat="45.088881758038106" lon="10.04235181074792"><ele>37.0</ele><time>2026-04-08T17:15:56.998Z</time></trkpt><trkpt lat="45.088945162473486" lon="10.042409093254482"><ele>37.0</ele><time>2026-04-08T17:15:57.998Z</time></trkpt><trkpt lat="45.08900634744106" lon="10.042465522222182"><ele>37.0</ele><time>2026-04-08T17:15:58.998Z</time></trkpt><trkpt lat="45.089064478620756" lon="10.04252372054768"><ele>37.0</ele><time>2026-04-08T17:15:59.998Z</time></trkpt><trkpt lat="45.08912229584064" lon="10.04257546882191"><ele>37.0</ele><time>2026-04-08T17:16:00.998Z</time></trkpt><trkpt lat="45.08918727067248" lon="10.04260144503933"><ele>36.85714285714286</ele><time>2026-04-08T17:16:01.998Z</time></trkpt><trkpt lat="45.08924871718194" lon="10.042569705657973"><ele>36.714285714285715</ele><time>2026-04-08T17:16:02.998Z</time></trkpt><trkpt lat="45.08929048039277" lon="10.042482053312623"><ele>36.57142857142857</ele><time>2026-04-08T17:16:03.998Z</time></trkpt><trkpt lat="45.089322223224904" lon="10.042385456569368"><ele>36.42857142857143</ele><time>2026-04-08T17:16:04.998Z</time></trkpt><trkpt lat="45.08934511311523" lon="10.042289551736449"><ele>36.285714285714285</ele><time>2026-04-08T17:16:05.998Z</time></trkpt><trkpt lat="45.08937606674417" lon="10.042194723234141"><ele>36.142857142857146</ele><time>2026-04-08T17:16:06.998Z</time></trkpt><trkpt lat="45.089412002078646" lon="10.042103276350518"><ele>36.0</ele><time>2026-04-08T17:16:07.998Z</time></trkpt><trkpt lat="45.08944596370568" lon="10.042002007120434"><ele>36.0</ele><time>2026-04-08T17:16:08.998Z</time></trkpt><trkpt lat="45.0894812750749" lon="10.041901982682276"><ele>36.0</ele><time>2026-04-08T17:16:09.998Z</time></trkpt><trkpt lat="45.08951463572606" lon="10.04179765822509"><ele>36.0</ele><time>2026-04-08T17:16:10.998Z</time></trkpt><trkpt lat="45.08954976966306" lon="10.041693720370166"><ele>36.0</ele><time>2026-04-08T17:16:11.998Z</time></trkpt><trkpt lat="45.089587583920775" lon="10.04159820366844"><ele>36.0</ele><time>2026-04-08T17:16:12.998Z</time></trkpt><trkpt lat="45.089623290821734" lon="10.041499387170195"><ele>36.0</ele><time>2026-04-08T17:16:13.998Z</time></trkpt><trkpt lat="45.089658812500325" lon="10.041399031973159"><ele>35.666666666666664</ele><time>2026-04-08T17:16:14.998Z</time></trkpt><trkpt lat="45.089693681072255" lon="10.041296018735412"><ele>35.333333333333336</ele><time>2026-04-08T17:16:15.998Z</time></trkpt><trkpt lat="45.089730755818906" lon="10.041194200848098"><ele>35.0</ele><time>2026-04-08T17:16:16.998Z</time></trkpt><trkpt lat="45.089766585574104" lon="10.04108903902176"><ele>34.66666666666667</ele><time>2026-04-08T17:16:17.998Z</time></trkpt><trkpt lat="45.089800636629796" lon="10.040983867231136"><ele>34.333333333333336</ele><time>2026-04-08T17:16:18.998Z</time></trkpt><trkpt lat="45.08982937242984" lon="10.040874656116477"><ele>34.0</ele><time>2026-04-08T17:16:19.998Z</time></trkpt><trkpt lat="45.08985242612204" lon="10.040760864170037"><ele>33.833333333333336</ele><time>2026-04-08T17:16:20.998Z</time></trkpt><trkpt lat="45.089867727085455" lon="10.040642845277686"><ele>33.66666666666667</ele><time>2026-04-08T17:16:21.998Z</time></trkpt><trkpt lat="45.08988533388999" lon="10.040527640411488"><ele>33.5</ele><time>2026-04-08T17:16:22.998Z</time></trkpt><trkpt lat="45.089907558070465" lon="10.040413363260226"><ele>33.333333333333336</ele><time>2026-04-08T17:16:23.998Z</time></trkpt><trkpt lat="45.08993803073204" lon="10.040304344578622"><ele>33.166666666666664</ele><time>2026-04-08T17:16:24.998Z</time></trkpt><trkpt lat="45.08997683064151" lon="10.040200962525029"><ele>33.0</ele><time>2026-04-08T17:16:25.998Z</time></trkpt><trkpt lat="45.0900248256779" lon="10.040102652733447"><ele>33.333333333333336</ele><time>2026-04-08T17:16:26.998Z</time></trkpt><trkpt lat="45.090075075767594" lon="10.040008259513682"><ele>33.666666666666664</ele><time>2026-04-08T17:16:27.998Z</time></trkpt><trkpt lat="45.09012364830794" lon="10.039909920912649"><ele>34.0</ele><time>2026-04-08T17:16:28.998Z</time></trkpt><trkpt lat="45.0901699929425" lon="10.03981041141551"><ele>34.33333333333333</ele><time>2026-04-08T17:16:29.998Z</time></trkpt><trkpt lat="45.090218109456224" lon="10.039714261322633"><ele>34.666666666666664</ele><time>2026-04-08T17:16:30.998Z</time></trkpt><trkpt lat="45.09026848489277" lon="10.0396198101689"><ele>35.0</ele><time>2026-04-08T17:16:31.998Z</time></trkpt><trkpt lat="45.090321182972" lon="10.039526431661555"><ele>35.0</ele><time>2026-04-08T17:16:32.998Z</time></trkpt><trkpt lat="45.090371925243794" lon="10.039430220892656"><ele>35.0</ele><time>2026-04-08T17:16:33.998Z</time></trkpt><trkpt lat="45.09042150829228" lon="10.03933235255303"><ele>35.0</ele><time>2026-04-08T17:16:34.998Z</time></trkpt><trkpt lat="45.09047160756252" lon="10.039237559348999"><ele>35.0</ele><time>2026-04-08T17:16:35.998Z</time></trkpt><trkpt lat="45.09052092549153" lon="10.039142412217304"><ele>35.0</ele><time>2026-04-08T17:16:36.998Z</time></trkpt><trkpt lat="45.09057013127114" lon="10.039048993909548"><ele>35.0</ele><time>2026-04-08T17:16:37.998Z</time></trkpt><trkpt lat="45.090619334400735" lon="10.038954183657184"><ele>35.0</ele><time>2026-04-08T17:16:38.998Z</time></trkpt><trkpt lat="45.09066697822368" lon="10.038860139644257"><ele>35.0</ele><time>2026-04-08T17:16:39.998Z</time></trkpt><trkpt lat="45.090713560574045" lon="10.038764637743823"><ele>35.0</ele><time>2026-04-08T17:16:40.998Z</time></trkpt><trkpt lat="45.090763665838836" lon="10.038669933589231"><ele>35.0</ele><time>2026-04-08T17:16:41.998Z</time></trkpt><trkpt lat="45.09081243310834" lon="10.038575478986255"><ele>35.0</ele><time>2026-04-08T17:16:42.998Z</time></trkpt><trkpt lat="45.090856034193436" lon="10.03847580491095"><ele>35.0</ele><time>2026-04-08T17:16:43.998Z</time></trkpt><trkpt lat="45.090896044346096" lon="10.038371935912544"><ele>35.5</ele><time>2026-04-08T17:16:44.998Z</time></trkpt><trkpt lat="45.09093349232951" lon="10.038266201029774"><ele>36.0</ele><time>2026-04-08T17:16:45.998Z</time></trkpt><trkpt lat="45.090965718295564" lon="10.038155541005196"><ele>36.5</ele><time>2026-04-08T17:16:46.998Z</time></trkpt><trkpt lat="45.090994542807984" lon="10.038045311275068"><ele>37.0</ele><time>2026-04-08T17:16:47.998Z</time></trkpt><trkpt lat="45.09102057922581" lon="10.03792624937978"><ele>37.5</ele><time>2026-04-08T17:16:48.997Z</time></trkpt><trkpt lat="45.09104810492249" lon="10.03782014464917"><ele>38.0</ele><time>2026-04-08T17:16:49.997Z</time></trkpt><trkpt lat="45.091075165692104" lon="10.037706419131412"><ele>38.0</ele><time>2026-04-08T17:16:50.997Z</time></trkpt><trkpt lat="45.09110224404952" lon="10.037593258404446"><ele>38.0</ele><time>2026-04-08T17:16:51.998Z</time></trkpt><trkpt lat="45.09112847551039" lon="10.037482371901872"><ele>38.0</ele><time>2026-04-08T17:16:52.998Z</time></trkpt><trkpt lat="45.09115521415565" lon="10.037369286629085"><ele>38.0</ele><time>2026-04-08T17:16:53.998Z</time></trkpt><trkpt lat="45.091182899535305" lon="10.037257440131633"><ele>38.0</ele><time>2026-04-08T17:16:54.998Z</time></trkpt><trkpt lat="45.09121268567802" lon="10.037143812725237"><ele>38.0</ele><time>2026-04-08T17:16:55.998Z</time></trkpt><trkpt lat="45.091236138906375" lon="10.037029148488418"><ele>37.83333333333333</ele><time>2026-04-08T17:16:57Z</time></trkpt><trkpt lat="45.0912615203828" lon="10.036914204153865"><ele>37.666666666666664</ele><time>2026-04-08T17:16:58Z</time></trkpt><trkpt lat="45.09128966622449" lon="10.036804217431271"><ele>37.5</ele><time>2026-04-08T17:16:59Z</time></trkpt><trkpt lat="45.0913157167562" lon="10.036693938140102"><ele>37.333333333333336</ele><time>2026-04-08T17:17:00Z</time></trkpt><trkpt lat="45.09134080889067" lon="10.036583054101804"><ele>37.16666666666667</ele><time>2026-04-08T17:17:01Z</time></trkpt><trkpt lat="45.09136495274252" lon="10.036470802091484"><ele>37.0</ele><time>2026-04-08T17:17:02Z</time></trkpt><trkpt lat="45.091388115706145" lon="10.036358536833752"><ele>36.833333333333336</ele><time>2026-04-08T17:17:03Z</time></trkpt><trkpt lat="45.09141391956401" lon="10.036247121652286"><ele>36.66666666666667</ele><time>2026-04-08T17:17:04Z</time></trkpt><trkpt lat="45.09144142605223" lon="10.036134573728118"><ele>36.5</ele><time>2026-04-08T17:17:05Z</time></trkpt><trkpt lat="45.09146945265778" lon="10.036022394268505"><ele>36.333333333333336</ele><time>2026-04-08T17:17:06Z</time></trkpt><trkpt lat="45.09149389575408" lon="10.035909577625056"><ele>36.166666666666664</ele><time>2026-04-08T17:17:07Z</time></trkpt><trkpt lat="45.09151964980726" lon="10.035795504772922"><ele>36.0</ele><time>2026-04-08T17:17:08Z</time></trkpt><trkpt lat="45.09154672965012" lon="10.035683733085131"><ele>36.0</ele><time>2026-04-08T17:17:09Z</time></trkpt><trkpt lat="45.091577732219996" lon="10.035572502214938"><ele>36.0</ele><time>2026-04-08T17:17:10Z</time></trkpt><trkpt lat="45.09161638368117" lon="10.035467229145114"><ele>36.0</ele><time>2026-04-08T17:17:11Z</time></trkpt><trkpt lat="45.09166487038986" lon="10.035368168730761"><ele>36.0</ele><time>2026-04-08T17:17:12Z</time></trkpt><trkpt lat="45.09172517379718" lon="10.035285123963686"><ele>36.0</ele><time>2026-04-08T17:17:13Z</time></trkpt><trkpt lat="45.09179511664386" lon="10.035213686696984"><ele>36.0</ele><time>2026-04-08T17:17:14Z</time></trkpt><trkpt lat="45.09187013833504" lon="10.035159680074866"><ele>36.0</ele><time>2026-04-08T17:17:15Z</time></trkpt><trkpt lat="45.09194691701848" lon="10.03512686012317"><ele>36.0</ele><time>2026-04-08T17:17:16Z</time></trkpt><trkpt lat="45.09203313521821" lon="10.035098934943642"><ele>36.0</ele><time>2026-04-08T17:17:17Z</time></trkpt><trkpt lat="45.092117286948714" lon="10.035080064793386"><ele>36.0</ele><time>2026-04-08T17:17:18Z</time></trkpt><trkpt lat="45.092200634075674" lon="10.035067156093271"><ele>36.0</ele><time>2026-04-08T17:17:19Z</time></trkpt><trkpt lat="45.09228659808999" lon="10.035056155132516"><ele>36.0</ele><time>2026-04-08T17:17:20Z</time></trkpt><trkpt lat="45.09236780678794" lon="10.035044592537966"><ele>36.0</ele><time>2026-04-08T17:17:21Z</time></trkpt><trkpt lat="45.09245460487059" lon="10.035024094252664"><ele>36.0</ele><time>2026-04-08T17:17:22Z</time></trkpt><trkpt lat="45.092536040677324" lon="10.03500268563853"><ele>36.0</ele><time>2026-04-08T17:17:23Z</time></trkpt><trkpt lat="45.09261860251413" lon="10.034981919263432"><ele>36.0</ele><time>2026-04-08T17:17:24Z</time></trkpt><trkpt lat="45.09270376238128" lon="10.0349663689912"><ele>36.0</ele><time>2026-04-08T17:17:25Z</time></trkpt><trkpt lat="45.09278938360781" lon="10.034956026012907"><ele>36.0</ele><time>2026-04-08T17:17:26Z</time></trkpt><trkpt lat="45.09287532980116" lon="10.034941139559539"><ele>36.166666666666664</ele><time>2026-04-08T17:17:27Z</time></trkpt><trkpt lat="45.09295923099248" lon="10.034941411283894"><ele>36.333333333333336</ele><time>2026-04-08T17:17:28Z</time></trkpt><trkpt lat="45.09304473755116" lon="10.034935611654422"><ele>36.5</ele><time>2026-04-08T17:17:29Z</time></trkpt><trkpt lat="45.093128255064165" lon="10.034932836788307"><ele>36.66666666666667</ele><time>2026-04-08T17:17:30Z</time></trkpt><trkpt lat="45.09321167362252" lon="10.034934823150465"><ele>36.833333333333336</ele><time>2026-04-08T17:17:31Z</time></trkpt><trkpt lat="45.09329748995543" lon="10.034936830721064"><ele>37.0</ele><time>2026-04-08T17:17:32Z</time></trkpt><trkpt lat="45.09338293693178" lon="10.034934965243801"><ele>36.5</ele><time>2026-04-08T17:17:33Z</time></trkpt><trkpt lat="45.093468473969736" lon="10.034934186967424"><ele>36.0</ele><time>2026-04-08T17:17:34Z</time></trkpt><trkpt lat="45.093555450320125" lon="10.034935011743238"><ele>35.5</ele><time>2026-04-08T17:17:35Z</time></trkpt><trkpt lat="45.09363901512108" lon="10.034944468488636"><ele>35.0</ele><time>2026-04-08T17:17:36Z</time></trkpt><trkpt lat="45.09372516082664" lon="10.034964075662046"><ele>34.5</ele><time>2026-04-08T17:17:37Z</time></trkpt><trkpt lat="45.09380980173235" lon="10.034988620149766"><ele>34.0</ele><time>2026-04-08T17:17:38Z</time></trkpt><trkpt lat="45.09389449288203" lon="10.035011522416141"><ele>33.833333333333336</ele><time>2026-04-08T17:17:39Z</time></trkpt><trkpt lat="45.093980113740606" lon="10.035031764978221"><ele>33.66666666666667</ele><time>2026-04-08T17:17:40Z</time></trkpt><trkpt lat="45.09406636667598" lon="10.035053110062734"><ele>33.5</ele><time>2026-04-08T17:17:41Z</time></trkpt><trkpt lat="45.09415117124371" lon="10.035071386106145"><ele>33.333333333333336</ele><time>2026-04-08T17:17:42Z</time></trkpt><trkpt lat="45.09423753007867" lon="10.035091222712028"><ele>33.166666666666664</ele><time>2026-04-08T17:17:43Z</time></trkpt><trkpt lat="45.09432545459341" lon="10.03511157734181"><ele>33.0</ele><time>2026-04-08T17:17:44Z</time></trkpt><trkpt lat="45.09440849371627" lon="10.035128958812649"><ele>33.0</ele><time>2026-04-08T17:17:45Z</time></trkpt><trkpt lat="45.09449400981146" lon="10.035143135263016"><ele>33.0</ele><time>2026-04-08T17:17:46Z</time></trkpt><trkpt lat="45.094579597032535" lon="10.035154339368097"><ele>33.0</ele><time>2026-04-08T17:17:47Z</time></trkpt><trkpt lat="45.094665439489994" lon="10.035167220850958"><ele>33.0</ele><time>2026-04-08T17:17:48Z</time></trkpt><trkpt lat="45.09475144610519" lon="10.035171601852571"><ele>33.0</ele><time>2026-04-08T17:17:49Z</time></trkpt><trkpt lat="45.09483750970925" lon="10.035169511370084"><ele>33.0</ele><time>2026-04-08T17:17:50Z</time></trkpt><trkpt lat="45.09491998946667" lon="10.035165544626743"><ele>33.166666666666664</ele><time>2026-04-08T17:17:51Z</time></trkpt><trkpt lat="45.09500491889689" lon="10.035162034582324"><ele>33.333333333333336</ele><time>2026-04-08T17:17:52Z</time></trkpt><trkpt lat="45.095089849005205" lon="10.03515637918822"><ele>33.5</ele><time>2026-04-08T17:17:53Z</time></trkpt><trkpt lat="45.09517468231688" lon="10.035149439798362"><ele>33.66666666666667</ele><time>2026-04-08T17:17:54Z</time></trkpt><trkpt lat="45.09525774713832" lon="10.035144306704504"><ele>33.833333333333336</ele><time>2026-04-08T17:17:55Z</time></trkpt><trkpt lat="45.095341126915855" lon="10.035140371451066"><ele>34.0</ele><time>2026-04-08T17:17:56Z</time></trkpt><trkpt lat="45.09542443176073" lon="10.035137341137576"><ele>34.0</ele><time>2026-04-08T17:17:57Z</time></trkpt><trkpt lat="45.09550729809321" lon="10.035135116482977"><ele>34.0</ele><time>2026-04-08T17:17:58Z</time></trkpt><trkpt lat="45.09558746460545" lon="10.035124129404963"><ele>34.0</ele><time>2026-04-08T17:17:59Z</time></trkpt><trkpt lat="45.09566631461469" lon="10.035113771578688"><ele>34.0</ele><time>2026-04-08T17:18:00Z</time></trkpt><trkpt lat="45.09574637034132" lon="10.035106446058782"><ele>34.0</ele><time>2026-04-08T17:18:01Z</time></trkpt><trkpt lat="45.0958258476786" lon="10.03510407923154"><ele>34.0</ele><time>2026-04-08T17:18:02Z</time></trkpt><trkpt lat="45.09590557447386" lon="10.035099936832188"><ele>34.0</ele><time>2026-04-08T17:18:03Z</time></trkpt><trkpt lat="45.095985873555726" lon="10.035093441192753"><ele>34.0</ele><time>2026-04-08T17:18:03.999Z</time></trkpt><trkpt lat="45.096063770845724" lon="10.035085429458615"><ele>34.0</ele><time>2026-04-08T17:18:04.999Z</time></trkpt><trkpt lat="45.096140537773096" lon="10.035078050719612"><ele>34.0</ele><time>2026-04-08T17:18:05.999Z</time></trkpt><trkpt lat="45.09621686079105" lon="10.035072915387795"><ele>34.0</ele><time>2026-04-08T17:18:06.999Z</time></trkpt><trkpt lat="45.09629457923054" lon="10.035069136678503"><ele>34.0</ele><time>2026-04-08T17:18:07.999Z</time></trkpt><trkpt lat="45.09636783688674" lon="10.035065726722042"><ele>34.0</ele><time>2026-04-08T17:18:08.999Z</time></trkpt><trkpt lat="45.096440063248366" lon="10.035065292213913"><ele>34.0</ele><time>2026-04-08T17:18:09.999Z</time></trkpt><trkpt lat="45.096508657040275" lon="10.035061179726938"><ele>34.0</ele><time>2026-04-08T17:18:10.999Z</time></trkpt><trkpt lat="45.096575743751266" lon="10.035054706280624"><ele>34.0</ele><time>2026-04-08T17:18:11.999Z</time></trkpt><trkpt lat="45.096639949472156" lon="10.035050926877554"><ele>34.0</ele><time>2026-04-08T17:18:12.999Z</time></trkpt><trkpt lat="45.09670297955298" lon="10.035048961582106"><ele>34.0</ele><time>2026-04-08T17:18:13.999Z</time></trkpt><trkpt lat="45.09682191129363" lon="10.035048232753695"><ele>34.2</ele><time>2026-04-08T17:18:15.999Z</time></trkpt><trkpt lat="45.09694344146931" lon="10.035036220863573"><ele>34.4</ele><time>2026-04-08T17:18:17.999Z</time></trkpt><trkpt lat="45.09700568840995" lon="10.035020736722085"><ele>34.6</ele><time>2026-04-08T17:18:18.999Z</time></trkpt><trkpt lat="45.09713518986427" lon="10.035002509943643"><ele>34.8</ele><time>2026-04-08T17:18:20.999Z</time></trkpt><trkpt lat="45.097200786768994" lon="10.034960340209178"><ele>35.0</ele><time>2026-04-08T17:18:21.999Z</time></trkpt><trkpt lat="45.09726594424232" lon="10.034957846438221"><ele>35.142857142857146</ele><time>2026-04-08T17:18:22.999Z</time></trkpt><trkpt lat="45.09733662104552" lon="10.034962383228883"><ele>35.285714285714285</ele><time>2026-04-08T17:18:23.999Z</time></trkpt><trkpt lat="45.09740374012988" lon="10.03495517540182"><ele>35.42857142857143</ele><time>2026-04-08T17:18:24.999Z</time></trkpt><trkpt lat="45.09747575382304" lon="10.034947067877544"><ele>35.57142857142857</ele><time>2026-04-08T17:18:25.999Z</time></trkpt><trkpt lat="45.09754659332385" lon="10.034937972432873"><ele>35.714285714285715</ele><time>2026-04-08T17:18:26.999Z</time></trkpt><trkpt lat="45.097615487298214" lon="10.034931316972132"><ele>35.85714285714286</ele><time>2026-04-08T17:18:27.999Z</time></trkpt><trkpt lat="45.09768608964595" lon="10.03491877538059"><ele>36.0</ele><time>2026-04-08T17:18:28.999Z</time></trkpt><trkpt lat="45.09776151541093" lon="10.034904317970025"><ele>36.00000000000001</ele><time>2026-04-08T17:18:29.999Z</time></trkpt><trkpt lat="45.09783227245813" lon="10.034893549940147"><ele>36.0</ele><time>2026-04-08T17:18:30.999Z</time></trkpt><trkpt lat="45.09790383143513" lon="10.034882681927167"><ele>36.0</ele><time>2026-04-08T17:18:31.999Z</time></trkpt><trkpt lat="45.09797662125615" lon="10.03487683703163"><ele>36.0</ele><time>2026-04-08T17:18:32.999Z</time></trkpt><trkpt lat="45.098051841785534" lon="10.034866590668765"><ele>36.0</ele><time>2026-04-08T17:18:33.999Z</time></trkpt><trkpt lat="45.09812932829777" lon="10.034860422756397"><ele>36.00000000000001</ele><time>2026-04-08T17:18:34.999Z</time></trkpt><trkpt lat="45.09820246246967" lon="10.034848091193462"><ele>36.0</ele><time>2026-04-08T17:18:35.999Z</time></trkpt><trkpt lat="45.09827813534533" lon="10.034846849097356"><ele>35.5</ele><time>2026-04-08T17:18:36.999Z</time></trkpt><trkpt lat="45.09835807610686" lon="10.034834629074158"><ele>35.0</ele><time>2026-04-08T17:18:37.999Z</time></trkpt><trkpt lat="45.09843510496887" lon="10.034821354241622"><ele>34.5</ele><time>2026-04-08T17:18:38.999Z</time></trkpt><trkpt lat="45.09851380359133" lon="10.034807223080568"><ele>34.0</ele><time>2026-04-08T17:18:39.999Z</time></trkpt><trkpt lat="45.09859463588843" lon="10.034797120775158"><ele>33.5</ele><time>2026-04-08T17:18:40.999Z</time></trkpt><trkpt lat="45.098671760399185" lon="10.034781612572294"><ele>33.0</ele><time>2026-04-08T17:18:41.999Z</time></trkpt><trkpt lat="45.09875471525101" lon="10.034765941503595"><ele>33.0</ele><time>2026-04-08T17:18:42.999Z</time></trkpt><trkpt lat="45.09883133307603" lon="10.034749521890104"><ele>33.0</ele><time>2026-04-08T17:18:43.999Z</time></trkpt><trkpt lat="45.09891053457079" lon="10.034736205280195"><ele>33.0</ele><time>2026-04-08T17:18:44.999Z</time></trkpt><trkpt lat="45.098988446450605" lon="10.034721884719072"><ele>33.0</ele><time>2026-04-08T17:18:45.999Z</time></trkpt><trkpt lat="45.099065148711496" lon="10.03470850910793"><ele>33.0</ele><time>2026-04-08T17:18:46.999Z</time></trkpt><trkpt lat="45.099144805959696" lon="10.03469984452207"><ele>33.0</ele><time>2026-04-08T17:18:47.999Z</time></trkpt><trkpt lat="45.09922353532132" lon="10.034689861320034"><ele>32.666666666666664</ele><time>2026-04-08T17:18:48.999Z</time></trkpt><trkpt lat="45.09929888215301" lon="10.03468221802552"><ele>32.333333333333336</ele><time>2026-04-08T17:18:49.999Z</time></trkpt><trkpt lat="45.09937634447221" lon="10.034670284401699"><ele>32.0</ele><time>2026-04-08T17:18:50.999Z</time></trkpt><trkpt lat="45.0994563459734" lon="10.034661093060622"><ele>31.666666666666668</ele><time>2026-04-08T17:18:51.999Z</time></trkpt><trkpt lat="45.09953226642855" lon="10.034649592013233"><ele>31.333333333333336</ele><time>2026-04-08T17:18:52.999Z</time></trkpt><trkpt lat="45.099609748848124" lon="10.034636997821014"><ele>31.0</ele><time>2026-04-08T17:18:53.999Z</time></trkpt><trkpt lat="45.09968536996377" lon="10.034620658359733"><ele>31.000000000000004</ele><time>2026-04-08T17:18:54.999Z</time></trkpt><trkpt lat="45.09976272458441" lon="10.034595566898714"><ele>31.0</ele><time>2026-04-08T17:18:55.999Z</time></trkpt><trkpt lat="45.099833745001725" lon="10.034564542571198"><ele>31.0</ele><time>2026-04-08T17:18:56.999Z</time></trkpt><trkpt lat="45.099907778642766" lon="10.034522296698727"><ele>31.0</ele><time>2026-04-08T17:18:57.998Z</time></trkpt><trkpt lat="45.09998122180891" lon="10.034469318598406"><ele>31.000000000000004</ele><time>2026-04-08T17:18:58.998Z</time></trkpt><trkpt lat="45.10005108169506" lon="10.03441578849273"><ele>31.0</ele><time>2026-04-08T17:18:59.998Z</time></trkpt><trkpt lat="45.100121946576216" lon="10.034364995365769"><ele>31.333333333333336</ele><time>2026-04-08T17:19:00.998Z</time></trkpt><trkpt lat="45.100194058537035" lon="10.034316410184452"><ele>31.666666666666668</ele><time>2026-04-08T17:19:02Z</time></trkpt><trkpt lat="45.100267242100294" lon="10.03427183178718"><ele>32.0</ele><time>2026-04-08T17:19:03Z</time></trkpt><trkpt lat="45.10034235567793" lon="10.034223330286324"><ele>32.333333333333336</ele><time>2026-04-08T17:19:04Z</time></trkpt><trkpt lat="45.100419976791464" lon="10.03419858624524"><ele>32.666666666666664</ele><time>2026-04-08T17:19:05Z</time></trkpt><trkpt lat="45.10049399528243" lon="10.034152216268463"><ele>33.0</ele><time>2026-04-08T17:19:06Z</time></trkpt><trkpt lat="45.10055921260786" lon="10.034087096734119"><ele>33.0</ele><time>2026-04-08T17:19:07Z</time></trkpt><trkpt lat="45.10063464373789" lon="10.034042273083513"><ele>33.0</ele><time>2026-04-08T17:19:08Z</time></trkpt><trkpt lat="45.10070760067543" lon="10.033999224645854"><ele>33.0</ele><time>2026-04-08T17:19:09Z</time></trkpt><trkpt lat="45.100781935482324" lon="10.033958484456042"><ele>33.0</ele><time>2026-04-08T17:19:10Z</time></trkpt><trkpt lat="45.10085568387684" lon="10.033917513443777"><ele>33.0</ele><time>2026-04-08T17:19:11Z</time></trkpt><trkpt lat="45.10093078394229" lon="10.033875394637848"><ele>33.0</ele><time>2026-04-08T17:19:12Z</time></trkpt><trkpt lat="45.101003364128296" lon="10.033828974169504"><ele>33.0</ele><time>2026-04-08T17:19:13Z</time></trkpt><trkpt lat="45.10107631496812" lon="10.03377889575416"><ele>33.0</ele><time>2026-04-08T17:19:14Z</time></trkpt><trkpt lat="45.10115025307505" lon="10.033731038336107"><ele>33.0</ele><time>2026-04-08T17:19:15Z</time></trkpt><trkpt lat="45.10122481331691" lon="10.033684785737744"><ele>33.0</ele><time>2026-04-08T17:19:16Z</time></trkpt><trkpt lat="45.101298610877336" lon="10.033638941106162"><ele>33.0</ele><time>2026-04-08T17:19:17Z</time></trkpt><trkpt lat="45.1013729306113" lon="10.033592779314533"><ele>33.0</ele><time>2026-04-08T17:19:18Z</time></trkpt><trkpt lat="45.101446093069114" lon="10.033548756364752"><ele>33.0</ele><time>2026-04-08T17:19:19Z</time></trkpt><trkpt lat="45.10151974314676" lon="10.033505326892149"><ele>33.0</ele><time>2026-04-08T17:19:20Z</time></trkpt><trkpt lat="45.101594527901845" lon="10.033455248214928"><ele>33.0</ele><time>2026-04-08T17:19:21Z</time></trkpt><trkpt lat="45.10166710427712" lon="10.033411461019126"><ele>33.0</ele><time>2026-04-08T17:19:22Z</time></trkpt><trkpt lat="45.101742004655705" lon="10.033367857534659"><ele>33.0</ele><time>2026-04-08T17:19:23Z</time></trkpt><trkpt lat="45.10181371634288" lon="10.033324898054655"><ele>33.0</ele><time>2026-04-08T17:19:24Z</time></trkpt><trkpt lat="45.10188853845441" lon="10.033280975099688"><ele>33.0</ele><time>2026-04-08T17:19:25Z</time></trkpt><trkpt lat="45.101961514834414" lon="10.03323491823122"><ele>33.0</ele><time>2026-04-08T17:19:26Z</time></trkpt><trkpt lat="45.10203193727663" lon="10.033188524130464"><ele>33.0</ele><time>2026-04-08T17:19:27Z</time></trkpt><trkpt lat="45.10210202438183" lon="10.033139529754777"><ele>33.0</ele><time>2026-04-08T17:19:28Z</time></trkpt><trkpt lat="45.102171500367184" lon="10.033084444565887"><ele>33.0</ele><time>2026-04-08T17:19:29Z</time></trkpt><trkpt lat="45.10223716425239" lon="10.033023184422495"><ele>33.0</ele><time>2026-04-08T17:19:30Z</time></trkpt><trkpt lat="45.10229988125236" lon="10.032950465771473"><ele>33.0</ele><time>2026-04-08T17:19:31Z</time></trkpt><trkpt lat="45.102357483442226" lon="10.03287356517502"><ele>33.0</ele><time>2026-04-08T17:19:32Z</time></trkpt><trkpt lat="45.10241018160197" lon="10.032791457355478"><ele>33.0</ele><time>2026-04-08T17:19:33Z</time></trkpt><trkpt lat="45.102462553327506" lon="10.032708141309183"><ele>33.0</ele><time>2026-04-08T17:19:34Z</time></trkpt><trkpt lat="45.102528963517315" lon="10.032639736461933"><ele>33.0</ele><time>2026-04-08T17:19:35Z</time></trkpt><trkpt lat="45.10258252535121" lon="10.03255667782411"><ele>33.0</ele><time>2026-04-08T17:19:36Z</time></trkpt><trkpt lat="45.10263637960243" lon="10.032472948287642"><ele>33.166666666666664</ele><time>2026-04-08T17:19:37Z</time></trkpt><trkpt lat="45.10267657861869" lon="10.032376430952278"><ele>33.333333333333336</ele><time>2026-04-08T17:19:38Z</time></trkpt><trkpt lat="45.10273055481791" lon="10.032292454482297"><ele>33.5</ele><time>2026-04-08T17:19:39Z</time></trkpt><trkpt lat="45.10278354734536" lon="10.032209360986835"><ele>33.66666666666667</ele><time>2026-04-08T17:19:40Z</time></trkpt><trkpt lat="45.10283509142509" lon="10.032125410179596"><ele>33.833333333333336</ele><time>2026-04-08T17:19:41Z</time></trkpt><trkpt lat="45.102898590164166" lon="10.032057274922611"><ele>34.0</ele><time>2026-04-08T17:19:42Z</time></trkpt><trkpt lat="45.102948039147144" lon="10.031968963098349"><ele>34.0</ele><time>2026-04-08T17:19:43Z</time></trkpt><trkpt lat="45.102982336759595" lon="10.031863934006866"><ele>34.0</ele><time>2026-04-08T17:19:44Z</time></trkpt><trkpt lat="45.10302897028051" lon="10.031778311329047"><ele>34.0</ele><time>2026-04-08T17:19:45Z</time></trkpt><trkpt lat="45.103077901508286" lon="10.031690825348877"><ele>34.0</ele><time>2026-04-08T17:19:46Z</time></trkpt><trkpt lat="45.10312656817429" lon="10.031606479916265"><ele>34.0</ele><time>2026-04-08T17:19:47Z</time></trkpt><trkpt lat="45.103177602669774" lon="10.031524179630761"><ele>34.0</ele><time>2026-04-08T17:19:48Z</time></trkpt><trkpt lat="45.10323106724458" lon="10.031434519355974"><ele>34.333333333333336</ele><time>2026-04-08T17:19:49Z</time></trkpt><trkpt lat="45.10329310297431" lon="10.031359380095244"><ele>34.66666666666667</ele><time>2026-04-08T17:19:50Z</time></trkpt><trkpt lat="45.10334676540828" lon="10.03126488175062"><ele>35.0</ele><time>2026-04-08T17:19:51Z</time></trkpt><trkpt lat="45.10340162551524" lon="10.031167736250083"><ele>35.333333333333336</ele><time>2026-04-08T17:19:52Z</time></trkpt><trkpt lat="45.10345628757891" lon="10.031070941435221"><ele>35.666666666666664</ele><time>2026-04-08T17:19:53Z</time></trkpt><trkpt lat="45.10351446608867" lon="10.030971989178225"><ele>36.0</ele><time>2026-04-08T17:19:54Z</time></trkpt><trkpt lat="45.10357528541385" lon="10.030877679633855"><ele>36.8</ele><time>2026-04-08T17:19:55Z</time></trkpt><trkpt lat="45.103644186905285" lon="10.030799034096022"><ele>37.6</ele><time>2026-04-08T17:19:56Z</time></trkpt><trkpt lat="45.103723246236086" lon="10.030734336554938"><ele>38.4</ele><time>2026-04-08T17:19:57Z</time></trkpt><trkpt lat="45.103808416360415" lon="10.030667455866894"><ele>39.2</ele><time>2026-04-08T17:19:58Z</time></trkpt><trkpt lat="45.103889151682374" lon="10.03060184460096"><ele>40.0</ele><time>2026-04-08T17:19:59Z</time></trkpt><trkpt lat="45.10396969475974" lon="10.030535483840596"><ele>40.0</ele><time>2026-04-08T17:20:00Z</time></trkpt><trkpt lat="45.10404639697361" lon="10.030452342559292"><ele>40.0</ele><time>2026-04-08T17:20:01Z</time></trkpt><trkpt lat="45.10412118912877" lon="10.030398251865432"><ele>40.0</ele><time>2026-04-08T17:20:02Z</time></trkpt><trkpt lat="45.104170783527884" lon="10.030306125098447"><ele>40.0</ele><time>2026-04-08T17:20:03Z</time></trkpt><trkpt lat="45.104218851822274" lon="10.030223053939263"><ele>40.0</ele><time>2026-04-08T17:20:04Z</time></trkpt><trkpt lat="45.10425310331024" lon="10.030126409652592"><ele>40.0</ele><time>2026-04-08T17:20:05Z</time></trkpt><trkpt lat="45.10427453856073" lon="10.030021202332023"><ele>39.66666666666667</ele><time>2026-04-08T17:20:06Z</time></trkpt><trkpt lat="45.10427204146086" lon="10.029902648637531"><ele>39.333333333333336</ele><time>2026-04-08T17:20:07Z</time></trkpt><trkpt lat="45.10427583380224" lon="10.02978556960866"><ele>39.0</ele><time>2026-04-08T17:20:08Z</time></trkpt><trkpt lat="45.10426413028549" lon="10.029673946863415"><ele>38.666666666666664</ele><time>2026-04-08T17:20:08.999Z</time></trkpt><trkpt lat="45.10426783920646" lon="10.02956387188206"><ele>38.33333333333333</ele><time>2026-04-08T17:20:09.999Z</time></trkpt><trkpt lat="45.10428968891169" lon="10.02946035955285"><ele>38.0</ele><time>2026-04-08T17:20:10.999Z</time></trkpt><trkpt lat="45.10430365894066" lon="10.029357789990229"><ele>38.0</ele><time>2026-04-08T17:20:11.999Z</time></trkpt><trkpt lat="45.104320530130195" lon="10.029261558260226"><ele>38.0</ele><time>2026-04-08T17:20:12.999Z</time></trkpt><trkpt lat="45.1043391627672" lon="10.029168483469089"><ele>38.0</ele><time>2026-04-08T17:20:13.999Z</time></trkpt><trkpt lat="45.10436168043179" lon="10.02907547554787"><ele>38.0</ele><time>2026-04-08T17:20:14.999Z</time></trkpt><trkpt lat="45.10438660762139" lon="10.028989375811834"><ele>38.0</ele><time>2026-04-08T17:20:15.999Z</time></trkpt><trkpt lat="45.10443001846686" lon="10.028913200289086"><ele>38.0</ele><time>2026-04-08T17:20:16.999Z</time></trkpt><trkpt lat="45.104477018501775" lon="10.02884223122263"><ele>38.0</ele><time>2026-04-08T17:20:17.999Z</time></trkpt><trkpt lat="45.10456264421121" lon="10.028842722124422"><ele>37.857142857142854</ele><time>2026-04-08T17:20:18.999Z</time></trkpt><trkpt lat="45.10462909980008" lon="10.028789307484194"><ele>37.714285714285715</ele><time>2026-04-08T17:20:19.999Z</time></trkpt><trkpt lat="45.10469440223971" lon="10.028732828331027"><ele>37.57142857142857</ele><time>2026-04-08T17:20:20.999Z</time></trkpt><trkpt lat="45.10475736036739" lon="10.028681365281807"><ele>37.42857142857143</ele><time>2026-04-08T17:20:21.999Z</time></trkpt><trkpt lat="45.1048206378366" lon="10.028631800181977"><ele>37.285714285714285</ele><time>2026-04-08T17:20:22.999Z</time></trkpt><trkpt lat="45.10488562207291" lon="10.028581890345123"><ele>37.142857142857146</ele><time>2026-04-08T17:20:23.999Z</time></trkpt><trkpt lat="45.10494941645734" lon="10.028534699836728"><ele>37.0</ele><time>2026-04-08T17:20:24.999Z</time></trkpt><trkpt lat="45.10501721037165" lon="10.028488323773113"><ele>36.66666666666667</ele><time>2026-04-08T17:20:25.999Z</time></trkpt><trkpt lat="45.10508547875542" lon="10.028445131891587"><ele>36.333333333333336</ele><time>2026-04-08T17:20:26.999Z</time></trkpt><trkpt lat="45.10515370686237" lon="10.028406395056543"><ele>36.0</ele><time>2026-04-08T17:20:27.999Z</time></trkpt><trkpt lat="45.10522475011944" lon="10.028366921697666"><ele>35.666666666666664</ele><time>2026-04-08T17:20:28.999Z</time></trkpt><trkpt lat="45.10529543799617" lon="10.028328395280568"><ele>35.33333333333333</ele><time>2026-04-08T17:20:29.999Z</time></trkpt><trkpt lat="45.1053674571343" lon="10.028289769635537"><ele>35.0</ele><time>2026-04-08T17:20:30.999Z</time></trkpt><trkpt lat="45.10542457937075" lon="10.028206292184136"><ele>34.666666666666664</ele><time>2026-04-08T17:20:31.999Z</time></trkpt><trkpt lat="45.10549667280764" lon="10.028165383678058"><ele>34.33333333333333</ele><time>2026-04-08T17:20:32.999Z</time></trkpt><trkpt lat="45.10557152134915" lon="10.028120250734155"><ele>34.0</ele><time>2026-04-08T17:20:33.999Z</time></trkpt><trkpt lat="45.10564415555084" lon="10.028079842186171"><ele>33.666666666666664</ele><time>2026-04-08T17:20:34.999Z</time></trkpt><trkpt lat="45.105716019196336" lon="10.02803867980593"><ele>33.333333333333336</ele><time>2026-04-08T17:20:35.999Z</time></trkpt><trkpt lat="45.105787701481866" lon="10.02800248778988"><ele>33.0</ele><time>2026-04-08T17:20:36.999Z</time></trkpt><trkpt lat="45.10586067279949" lon="10.02796904501445"><ele>33.0</ele><time>2026-04-08T17:20:37.999Z</time></trkpt><trkpt lat="45.10593142022903" lon="10.02794788663696"><ele>33.0</ele><time>2026-04-08T17:20:38.999Z</time></trkpt><trkpt lat="45.10600138351228" lon="10.027935655738505"><ele>33.0</ele><time>2026-04-08T17:20:39.999Z</time></trkpt><trkpt lat="45.106071640457806" lon="10.02793290799317"><ele>33.0</ele><time>2026-04-08T17:20:40.999Z</time></trkpt><trkpt lat="45.106141303153244" lon="10.027932873091105"><ele>33.0</ele><time>2026-04-08T17:20:41.999Z</time></trkpt><trkpt lat="45.10621335459154" lon="10.027920816443743"><ele>33.0</ele><time>2026-04-08T17:20:42.999Z</time></trkpt><trkpt lat="45.106288526351754" lon="10.027982846086452"><ele>33.0</ele><time>2026-04-08T17:20:43.999Z</time></trkpt><trkpt lat="45.10636521961282" lon="10.027985463998357"><ele>33.0</ele><time>2026-04-08T17:20:44.999Z</time></trkpt><trkpt lat="45.10644204070656" lon="10.027989007020022"><ele>33.0</ele><time>2026-04-08T17:20:45.999Z</time></trkpt><trkpt lat="45.10651921405021" lon="10.02799256628237"><ele>33.0</ele><time>2026-04-08T17:20:46.999Z</time></trkpt><trkpt lat="45.1065983823758" lon="10.027996217533317"><ele>33.0</ele><time>2026-04-08T17:20:47.999Z</time></trkpt><trkpt lat="45.10667772635062" lon="10.027999803660931"><ele>33.0</ele><time>2026-04-08T17:20:48.999Z</time></trkpt><trkpt lat="45.10675631086019" lon="10.028002876051767"><ele>33.0</ele><time>2026-04-08T17:20:49.999Z</time></trkpt><trkpt lat="45.10683555879391" lon="10.028005974380426"><ele>33.333333333333336</ele><time>2026-04-08T17:20:50.999Z</time></trkpt><trkpt lat="45.10691539912245" lon="10.028009095871179"><ele>33.666666666666664</ele><time>2026-04-08T17:20:51.999Z</time></trkpt><trkpt lat="45.10699327771028" lon="10.028012140662707"><ele>34.0</ele><time>2026-04-08T17:20:52.999Z</time></trkpt><trkpt lat="45.10707359395257" lon="10.028015280758583"><ele>34.33333333333333</ele><time>2026-04-08T17:20:53.999Z</time></trkpt><trkpt lat="45.107151597067244" lon="10.028017857931356"><ele>34.666666666666664</ele><time>2026-04-08T17:20:54.999Z</time></trkpt><trkpt lat="45.10723246841831" lon="10.028020492092582"><ele>35.0</ele><time>2026-04-08T17:20:55.999Z</time></trkpt><trkpt lat="45.10731018454521" lon="10.0280230234904"><ele>35.0</ele><time>2026-04-08T17:20:56.999Z</time></trkpt><trkpt lat="45.10739084573022" lon="10.028025650811113"><ele>35.0</ele><time>2026-04-08T17:20:57.999Z</time></trkpt><trkpt lat="45.10746867190117" lon="10.028027823249978"><ele>35.0</ele><time>2026-04-08T17:20:58.999Z</time></trkpt><trkpt lat="45.107549739200614" lon="10.028029981371525"><ele>35.0</ele><time>2026-04-08T17:20:59.999Z</time></trkpt><trkpt lat="45.10762640912463" lon="10.028032022432033"><ele>35.0</ele><time>2026-04-08T17:21:00.999Z</time></trkpt><trkpt lat="45.10770656035453" lon="10.028034156162631"><ele>35.0</ele><time>2026-04-08T17:21:01.999Z</time></trkpt><trkpt lat="45.107784917017995" lon="10.028036242124978"><ele>34.666666666666664</ele><time>2026-04-08T17:21:02.998Z</time></trkpt><trkpt lat="45.10786565215778" lon="10.028038391401672"><ele>34.33333333333333</ele><time>2026-04-08T17:21:03.998Z</time></trkpt><trkpt lat="45.10794284056534" lon="10.028040446261375"><ele>34.0</ele><time>2026-04-08T17:21:04.998Z</time></trkpt><trkpt lat="45.108023348516944" lon="10.028042589490942"><ele>33.666666666666664</ele><time>2026-04-08T17:21:05.998Z</time></trkpt><trkpt lat="45.10810096100739" lon="10.028044655643315"><ele>33.333333333333336</ele><time>2026-04-08T17:21:07Z</time></trkpt><trkpt lat="45.10818128826134" lon="10.02804583685075"><ele>33.0</ele><time>2026-04-08T17:21:08Z</time></trkpt><trkpt lat="45.10826057832971" lon="10.028045047052071"><ele>33.0</ele><time>2026-04-08T17:21:09Z</time></trkpt><trkpt lat="45.108340410802796" lon="10.028042301548867"><ele>33.0</ele><time>2026-04-08T17:21:10Z</time></trkpt><trkpt lat="45.10842083163021" lon="10.0280345737972"><ele>33.0</ele><time>2026-04-08T17:21:11Z</time></trkpt><trkpt lat="45.10850232194703" lon="10.028018207341633"><ele>33.0</ele><time>2026-04-08T17:21:12Z</time></trkpt><trkpt lat="45.10858127613946" lon="10.027999894272513"><ele>33.0</ele><time>2026-04-08T17:21:13Z</time></trkpt><trkpt lat="45.10866119206909" lon="10.027978328068496"><ele>33.0</ele><time>2026-04-08T17:21:14Z</time></trkpt><trkpt lat="45.108739300790155" lon="10.027954686807934"><ele>33.0</ele><time>2026-04-08T17:21:15Z</time></trkpt><trkpt lat="45.108817717483646" lon="10.027930952393568"><ele>33.0</ele><time>2026-04-08T17:21:16Z</time></trkpt><trkpt lat="45.108897175225636" lon="10.027905984643441"><ele>33.0</ele><time>2026-04-08T17:21:17Z</time></trkpt><trkpt lat="45.108975398992214" lon="10.027881327582477"><ele>33.0</ele><time>2026-04-08T17:21:18Z</time></trkpt><trkpt lat="45.10905574027702" lon="10.027855246580062"><ele>33.0</ele><time>2026-04-08T17:21:19Z</time></trkpt><trkpt lat="45.10913476184255" lon="10.027828855090466"><ele>33.0</ele><time>2026-04-08T17:21:20Z</time></trkpt><trkpt lat="45.10921297411939" lon="10.027802733864892"><ele>32.833333333333336</ele><time>2026-04-08T17:21:21Z</time></trkpt><trkpt lat="45.10929050433493" lon="10.027776840466418"><ele>32.666666666666664</ele><time>2026-04-08T17:21:22Z</time></trkpt><trkpt lat="45.109369467614314" lon="10.027750468468687"><ele>32.5</ele><time>2026-04-08T17:21:23Z</time></trkpt><trkpt lat="45.10945023741943" lon="10.027723493069647"><ele>32.33333333333333</ele><time>2026-04-08T17:21:24Z</time></trkpt><trkpt lat="45.109527601343906" lon="10.027697655206909"><ele>32.166666666666664</ele><time>2026-04-08T17:21:25Z</time></trkpt><trkpt lat="45.10960764806382" lon="10.027670921333126"><ele>32.0</ele><time>2026-04-08T17:21:26Z</time></trkpt><trkpt lat="45.10968555356093" lon="10.027644902589573"><ele>31.999999999999996</ele><time>2026-04-08T17:21:27Z</time></trkpt><trkpt lat="45.109764353746804" lon="10.027618585036208"><ele>32.0</ele><time>2026-04-08T17:21:28Z</time></trkpt><trkpt lat="45.10984239580297" lon="10.027592242026865"><ele>32.0</ele><time>2026-04-08T17:21:29Z</time></trkpt><trkpt lat="45.10992089891291" lon="10.02756560006603"><ele>32.0</ele><time>2026-04-08T17:21:30Z</time></trkpt><trkpt lat="45.10999890890743" lon="10.027539125385832"><ele>31.999999999999996</ele><time>2026-04-08T17:21:31Z</time></trkpt><trkpt lat="45.11007674071286" lon="10.027512711220954"><ele>32.0</ele><time>2026-04-08T17:21:32Z</time></trkpt><trkpt lat="45.11015594411676" lon="10.027484473747032"><ele>32.166666666666664</ele><time>2026-04-08T17:21:33Z</time></trkpt><trkpt lat="45.11023502004852" lon="10.027455250895006"><ele>32.33333333333333</ele><time>2026-04-08T17:21:34Z</time></trkpt><trkpt lat="45.11031269903959" lon="10.027426509614743"><ele>32.5</ele><time>2026-04-08T17:21:35Z</time></trkpt><trkpt lat="45.11038996238401" lon="10.027396452336363"><ele>32.666666666666664</ele><time>2026-04-08T17:21:36Z</time></trkpt><trkpt lat="45.11046416832114" lon="10.0273455150805"><ele>32.833333333333336</ele><time>2026-04-08T17:21:37Z</time></trkpt><trkpt lat="45.11054178675985" lon="10.027318148564238"><ele>33.0</ele><time>2026-04-08T17:21:38Z</time></trkpt><trkpt lat="45.11061790922464" lon="10.027286659665375"><ele>33.0</ele><time>2026-04-08T17:21:39Z</time></trkpt><trkpt lat="45.11069736965716" lon="10.027249827700238"><ele>33.0</ele><time>2026-04-08T17:21:40Z</time></trkpt><trkpt lat="45.11077404040345" lon="10.027218573724236"><ele>33.0</ele><time>2026-04-08T17:21:41Z</time></trkpt><trkpt lat="45.11084938808752" lon="10.027180751118761"><ele>33.0</ele><time>2026-04-08T17:21:42Z</time></trkpt><trkpt lat="45.11093057830381" lon="10.02716048205238"><ele>33.0</ele><time>2026-04-08T17:21:43Z</time></trkpt><trkpt lat="45.111006864980716" lon="10.027121138707987"><ele>33.0</ele><time>2026-04-08T17:21:44Z</time></trkpt><trkpt lat="45.11108275091717" lon="10.027081206601585"><ele>33.333333333333336</ele><time>2026-04-08T17:21:45Z</time></trkpt><trkpt lat="45.111157638241686" lon="10.027041800045758"><ele>33.666666666666664</ele><time>2026-04-08T17:21:46Z</time></trkpt><trkpt lat="45.11123412732301" lon="10.027001550795337"><ele>34.0</ele><time>2026-04-08T17:21:47Z</time></trkpt><trkpt lat="45.11130905115439" lon="10.026961458784653"><ele>34.33333333333333</ele><time>2026-04-08T17:21:48Z</time></trkpt><trkpt lat="45.11138589981" lon="10.02692011536223"><ele>34.666666666666664</ele><time>2026-04-08T17:21:49Z</time></trkpt><trkpt lat="45.11146027922131" lon="10.026880100410741"><ele>35.0</ele><time>2026-04-08T17:21:50Z</time></trkpt><trkpt lat="45.1115349299128" lon="10.026839939322677"><ele>34.5</ele><time>2026-04-08T17:21:51Z</time></trkpt><trkpt lat="45.111610693589206" lon="10.02679868175728"><ele>34.0</ele><time>2026-04-08T17:21:52Z</time></trkpt><trkpt lat="45.111686679839316" lon="10.026757066520831"><ele>33.5</ele><time>2026-04-08T17:21:53Z</time></trkpt><trkpt lat="45.11176409222308" lon="10.02671467021103"><ele>33.0</ele><time>2026-04-08T17:21:54Z</time></trkpt><trkpt lat="45.11183917705864" lon="10.02667305057406"><ele>32.5</ele><time>2026-04-08T17:21:55Z</time></trkpt><trkpt lat="45.11191371645633" lon="10.026631237597616"><ele>32.0</ele><time>2026-04-08T17:21:56Z</time></trkpt><trkpt lat="45.11198989123455" lon="10.026588507216122"><ele>31.999999999999996</ele><time>2026-04-08T17:21:57Z</time></trkpt><trkpt lat="45.112064612921344" lon="10.026546592056915"><ele>32.0</ele><time>2026-04-08T17:21:58Z</time></trkpt><trkpt lat="45.1121406551086" lon="10.026503936041262"><ele>32.0</ele><time>2026-04-08T17:21:59Z</time></trkpt><trkpt lat="45.112214336579456" lon="10.026462604296244"><ele>32.0</ele><time>2026-04-08T17:22:00Z</time></trkpt><trkpt lat="45.11228915118247" lon="10.026420637020625"><ele>31.999999999999996</ele><time>2026-04-08T17:22:01Z</time></trkpt><trkpt lat="45.11236211823122" lon="10.026380850482417"><ele>32.0</ele><time>2026-04-08T17:22:02Z</time></trkpt><trkpt lat="45.11243802120033" lon="10.026339824795976"><ele>31.999999999999996</ele><time>2026-04-08T17:22:03Z</time></trkpt><trkpt lat="45.112514587058165" lon="10.026298440814314"><ele>32.0</ele><time>2026-04-08T17:22:04Z</time></trkpt><trkpt lat="45.11258959670522" lon="10.026260660428607"><ele>32.0</ele><time>2026-04-08T17:22:05Z</time></trkpt><trkpt lat="45.11266582102163" lon="10.02622517538253"><ele>32.0</ele><time>2026-04-08T17:22:06Z</time></trkpt><trkpt lat="45.112741979674595" lon="10.026194445479462"><ele>31.999999999999996</ele><time>2026-04-08T17:22:07Z</time></trkpt><trkpt lat="45.112818046004755" lon="10.026165443384187"><ele>32.0</ele><time>2026-04-08T17:22:08Z</time></trkpt><trkpt lat="45.11289950561099" lon="10.026136904219488"><ele>31.999999999999996</ele><time>2026-04-08T17:22:09Z</time></trkpt><trkpt lat="45.112978391283185" lon="10.026109525508845"><ele>32.0</ele><time>2026-04-08T17:22:09.999Z</time></trkpt><trkpt lat="45.11305751175381" lon="10.026082886043659"><ele>32.0</ele><time>2026-04-08T17:22:10.999Z</time></trkpt><trkpt lat="45.11313586428903" lon="10.026057200402544"><ele>32.0</ele><time>2026-04-08T17:22:11.999Z</time></trkpt><trkpt lat="45.1132147462423" lon="10.026032458349981"><ele>31.999999999999996</ele><time>2026-04-08T17:22:12.999Z</time></trkpt><trkpt lat="45.113294751857104" lon="10.026007696455107"><ele>32.0</ele><time>2026-04-08T17:22:13.999Z</time></trkpt><trkpt lat="45.11337382866973" lon="10.025983281145846"><ele>32.166666666666664</ele><time>2026-04-08T17:22:14.999Z</time></trkpt><trkpt lat="45.11345170998036" lon="10.025960507316858"><ele>32.33333333333333</ele><time>2026-04-08T17:22:15.999Z</time></trkpt><trkpt lat="45.113530553783825" lon="10.025937452061608"><ele>32.5</ele><time>2026-04-08T17:22:16.999Z</time></trkpt><trkpt lat="45.113606937672586" lon="10.025913812240791"><ele>32.666666666666664</ele><time>2026-04-08T17:22:17.999Z</time></trkpt><trkpt lat="45.11368072461946" lon="10.025888445013841"><ele>32.833333333333336</ele><time>2026-04-08T17:22:18.999Z</time></trkpt><trkpt lat="45.11376016070976" lon="10.025861788427333"><ele>33.0</ele><time>2026-04-08T17:22:19.999Z</time></trkpt><trkpt lat="45.113839060817426" lon="10.025836974612337"><ele>33.0</ele><time>2026-04-08T17:22:20.999Z</time></trkpt><trkpt lat="45.113921860423304" lon="10.025810934418166"><ele>33.0</ele><time>2026-04-08T17:22:21.999Z</time></trkpt><trkpt lat="45.114002004810224" lon="10.025785729322232"><ele>33.0</ele><time>2026-04-08T17:22:22.999Z</time></trkpt><trkpt lat="45.11408475707205" lon="10.025759704070277"><ele>33.0</ele><time>2026-04-08T17:22:23.999Z</time></trkpt><trkpt lat="45.114166970141085" lon="10.025733848306313"><ele>33.0</ele><time>2026-04-08T17:22:24.999Z</time></trkpt><trkpt lat="45.114249272138814" lon="10.02570796468298"><ele>33.0</ele><time>2026-04-08T17:22:25.999Z</time></trkpt><trkpt lat="45.11433146030752" lon="10.025682116785388"><ele>32.666666666666664</ele><time>2026-04-08T17:22:26.999Z</time></trkpt><trkpt lat="45.11441247616672" lon="10.025656637591103"><ele>32.333333333333336</ele><time>2026-04-08T17:22:27.999Z</time></trkpt><trkpt lat="45.11449311397486" lon="10.025631277314028"><ele>32.0</ele><time>2026-04-08T17:22:28.999Z</time></trkpt><trkpt lat="45.114572880016325" lon="10.025606191229848"><ele>31.666666666666668</ele><time>2026-04-08T17:22:29.999Z</time></trkpt><trkpt lat="45.11465428272987" lon="10.02557976350964"><ele>31.333333333333336</ele><time>2026-04-08T17:22:30.999Z</time></trkpt><trkpt lat="45.11473389922119" lon="10.025551582519327"><ele>31.0</ele><time>2026-04-08T17:22:31.999Z</time></trkpt><trkpt lat="45.114814696772406" lon="10.025521869927758"><ele>31.000000000000004</ele><time>2026-04-08T17:22:32.999Z</time></trkpt><trkpt lat="45.114894035341635" lon="10.025492237374642"><ele>31.0</ele><time>2026-04-08T17:22:33.999Z</time></trkpt><trkpt lat="45.1149736382746" lon="10.025461533420003"><ele>31.0</ele><time>2026-04-08T17:22:34.999Z</time></trkpt><trkpt lat="45.115053534303435" lon="10.025430716378159"><ele>31.0</ele><time>2026-04-08T17:22:35.999Z</time></trkpt><trkpt lat="45.11513162015461" lon="10.025400597479614"><ele>31.000000000000004</ele><time>2026-04-08T17:22:36.999Z</time></trkpt><trkpt lat="45.11520881823654" lon="10.02537082115723"><ele>31.0</ele><time>2026-04-08T17:22:37.999Z</time></trkpt><trkpt lat="45.11528685783342" lon="10.02534072016213"><ele>31.000000000000004</ele><time>2026-04-08T17:22:38.999Z</time></trkpt><trkpt lat="45.115366555587215" lon="10.025309979594395"><ele>31.0</ele><time>2026-04-08T17:22:39.999Z</time></trkpt><trkpt lat="45.11544467761612" lon="10.025279271404113"><ele>31.0</ele><time>2026-04-08T17:22:40.999Z</time></trkpt><trkpt lat="45.115522297080254" lon="10.025247056077596"><ele>31.0</ele><time>2026-04-08T17:22:41.999Z</time></trkpt><trkpt lat="45.115601667467956" lon="10.025211749255373"><ele>31.000000000000004</ele><time>2026-04-08T17:22:42.999Z</time></trkpt><trkpt lat="45.11567999429383" lon="10.02516390816795"><ele>31.0</ele><time>2026-04-08T17:22:43.999Z</time></trkpt><trkpt lat="45.11575572266924" lon="10.025101118396925"><ele>31.166666666666668</ele><time>2026-04-08T17:22:44.999Z</time></trkpt><trkpt lat="45.11582283113841" lon="10.025016641383925"><ele>31.333333333333336</ele><time>2026-04-08T17:22:45.999Z</time></trkpt><trkpt lat="45.11588204154969" lon="10.024924407865274"><ele>31.5</ele><time>2026-04-08T17:22:46.999Z</time></trkpt><trkpt lat="45.11592884555105" lon="10.024818229762817"><ele>31.666666666666664</ele><time>2026-04-08T17:22:47.999Z</time></trkpt><trkpt lat="45.11597163353586" lon="10.024712633412143"><ele>31.833333333333332</ele><time>2026-04-08T17:22:48.999Z</time></trkpt><trkpt lat="45.116012346467414" lon="10.024606764076339"><ele>32.0</ele><time>2026-04-08T17:22:49.999Z</time></trkpt><trkpt lat="45.116051317211415" lon="10.024501855754695"><ele>31.999999999999996</ele><time>2026-04-08T17:22:50.999Z</time></trkpt><trkpt lat="45.11609054754206" lon="10.024396249429298"><ele>32.0</ele><time>2026-04-08T17:22:51.999Z</time></trkpt><trkpt lat="45.11613004101257" lon="10.024289934331705"><ele>32.0</ele><time>2026-04-08T17:22:52.999Z</time></trkpt><trkpt lat="45.11616935985573" lon="10.024184089282798"><ele>32.0</ele><time>2026-04-08T17:22:53.999Z</time></trkpt><trkpt lat="45.116208890741106" lon="10.024077673441065"><ele>31.999999999999996</ele><time>2026-04-08T17:22:54.999Z</time></trkpt><trkpt lat="45.116247608514094" lon="10.023973446676225"><ele>32.0</ele><time>2026-04-08T17:22:55.999Z</time></trkpt><trkpt lat="45.11628661946012" lon="10.023868430535272"><ele>31.999999999999996</ele><time>2026-04-08T17:22:56.999Z</time></trkpt><trkpt lat="45.1163267424196" lon="10.023764556846077"><ele>32.0</ele><time>2026-04-08T17:22:57.999Z</time></trkpt><trkpt lat="45.11636778572597" lon="10.023659925196675"><ele>32.0</ele><time>2026-04-08T17:22:58.999Z</time></trkpt><trkpt lat="45.116410287297676" lon="10.02356063392362"><ele>32.0</ele><time>2026-04-08T17:22:59.999Z</time></trkpt><trkpt lat="45.11645676472731" lon="10.023462872357427"><ele>31.999999999999996</ele><time>2026-04-08T17:23:00.999Z</time></trkpt><trkpt lat="45.11650376087921" lon="10.023367277754826"><ele>32.0</ele><time>2026-04-08T17:23:01.999Z</time></trkpt><trkpt lat="45.11655325775313" lon="10.023273769385305"><ele>32.166666666666664</ele><time>2026-04-08T17:23:02.999Z</time></trkpt><trkpt lat="45.11660362709274" lon="10.023183205987253"><ele>32.33333333333333</ele><time>2026-04-08T17:23:03.998Z</time></trkpt><trkpt lat="45.11665424888391" lon="10.02309223720125"><ele>32.5</ele><time>2026-04-08T17:23:04.998Z</time></trkpt><trkpt lat="45.11670655506098" lon="10.022998241602195"><ele>32.666666666666664</ele><time>2026-04-08T17:23:05.998Z</time></trkpt><trkpt lat="45.11675759009657" lon="10.022906529654483"><ele>32.833333333333336</ele><time>2026-04-08T17:23:06.998Z</time></trkpt><trkpt lat="45.11680875402348" lon="10.022816022148637"><ele>33.0</ele><time>2026-04-08T17:23:07.998Z</time></trkpt><trkpt lat="45.116862134073486" lon="10.022725976361796"><ele>33.0</ele><time>2026-04-08T17:23:08.998Z</time></trkpt><trkpt lat="45.116916992082466" lon="10.022639545240862"><ele>33.0</ele><time>2026-04-08T17:23:09.998Z</time></trkpt><trkpt lat="45.11697503163386" lon="10.022556737405473"><ele>33.0</ele><time>2026-04-08T17:23:10.998Z</time></trkpt><trkpt lat="45.11701775028717" lon="10.02245152735522"><ele>33.0</ele><time>2026-04-08T17:23:11.998Z</time></trkpt><trkpt lat="45.11708164430723" lon="10.022377854431534"><ele>33.0</ele><time>2026-04-08T17:23:13Z</time></trkpt><trkpt lat="45.11714436733559" lon="10.0222985248917"><ele>33.0</ele><time>2026-04-08T17:23:14Z</time></trkpt><trkpt lat="45.117224573988764" lon="10.022257896601975"><ele>33.0</ele><time>2026-04-08T17:23:15Z</time></trkpt><trkpt lat="45.11728872979529" lon="10.022182820869528"><ele>33.0</ele><time>2026-04-08T17:23:16Z</time></trkpt><trkpt lat="45.117351596754006" lon="10.022108510889796"><ele>33.0</ele><time>2026-04-08T17:23:17Z</time></trkpt><trkpt lat="45.117414433745" lon="10.02203423618324"><ele>33.0</ele><time>2026-04-08T17:23:18Z</time></trkpt><trkpt lat="45.11747847024756" lon="10.021958543753428"><ele>33.0</ele><time>2026-04-08T17:23:19Z</time></trkpt><trkpt lat="45.117541395971706" lon="10.021884164329485"><ele>33.0</ele><time>2026-04-08T17:23:20Z</time></trkpt><trkpt lat="45.117604495921405" lon="10.021809578910771"><ele>33.0</ele><time>2026-04-08T17:23:21Z</time></trkpt><trkpt lat="45.117667160988205" lon="10.021735507694249"><ele>33.0</ele><time>2026-04-08T17:23:22Z</time></trkpt><trkpt lat="45.11773062123825" lon="10.021661261143871"><ele>33.0</ele><time>2026-04-08T17:23:23Z</time></trkpt><trkpt lat="45.1177947206304" lon="10.021586887093756"><ele>33.0</ele><time>2026-04-08T17:23:24Z</time></trkpt><trkpt lat="45.11785816582547" lon="10.021513938419467"><ele>33.0</ele><time>2026-04-08T17:23:25Z</time></trkpt><trkpt lat="45.117922382072805" lon="10.0214402358401"><ele>33.0</ele><time>2026-04-08T17:23:26Z</time></trkpt><trkpt lat="45.11798554734731" lon="10.021366693681358"><ele>33.0</ele><time>2026-04-08T17:23:27Z</time></trkpt><trkpt lat="45.11805032069511" lon="10.021289951947498"><ele>33.0</ele><time>2026-04-08T17:23:28Z</time></trkpt><trkpt lat="45.118111753307545" lon="10.021214667451927"><ele>33.0</ele><time>2026-04-08T17:23:29Z</time></trkpt><trkpt lat="45.11817597166762" lon="10.021135492476597"><ele>33.0</ele><time>2026-04-08T17:23:30Z</time></trkpt><trkpt lat="45.11823795374595" lon="10.021056761635165"><ele>33.0</ele><time>2026-04-08T17:23:31Z</time></trkpt><trkpt lat="45.11830004412306" lon="10.020975514731964"><ele>33.0</ele><time>2026-04-08T17:23:32Z</time></trkpt><trkpt lat="45.118360908186276" lon="10.020891666784268"><ele>33.0</ele><time>2026-04-08T17:23:33Z</time></trkpt><trkpt lat="45.11841931766888" lon="10.020807858325925"><ele>33.0</ele><time>2026-04-08T17:23:34Z</time></trkpt><trkpt lat="45.11847753405508" lon="10.020722704836803"><ele>33.0</ele><time>2026-04-08T17:23:35Z</time></trkpt><trkpt lat="45.118536382707475" lon="10.020636551966307"><ele>33.0</ele><time>2026-04-08T17:23:36Z</time></trkpt><trkpt lat="45.1185944349761" lon="10.020551344995855"><ele>33.0</ele><time>2026-04-08T17:23:37Z</time></trkpt><trkpt lat="45.118652947587" lon="10.020465462063372"><ele>33.0</ele><time>2026-04-08T17:23:38Z</time></trkpt><trkpt lat="45.118711148986186" lon="10.020379919796968"><ele>33.0</ele><time>2026-04-08T17:23:39Z</time></trkpt><trkpt lat="45.11875127072759" lon="10.020269619321075"><ele>33.0</ele><time>2026-04-08T17:23:40Z</time></trkpt><trkpt lat="45.11880964155364" lon="10.020187235934708"><ele>33.0</ele><time>2026-04-08T17:23:41Z</time></trkpt><trkpt lat="45.118868716192615" lon="10.020103781908471"><ele>33.0</ele><time>2026-04-08T17:23:42Z</time></trkpt><trkpt lat="45.118942441669034" lon="10.020039801523627"><ele>33.0</ele><time>2026-04-08T17:23:43Z</time></trkpt><trkpt lat="45.118999377118" lon="10.019954830008095"><ele>33.0</ele><time>2026-04-08T17:23:44Z</time></trkpt><trkpt lat="45.119055515346794" lon="10.019869139569966"><ele>33.0</ele><time>2026-04-08T17:23:45Z</time></trkpt><trkpt lat="45.11911259611753" lon="10.019781279265716"><ele>33.0</ele><time>2026-04-08T17:23:46Z</time></trkpt><trkpt lat="45.11915019384638" lon="10.0196697105758"><ele>33.0</ele><time>2026-04-08T17:23:47Z</time></trkpt><trkpt lat="45.11920459134731" lon="10.019580653891417"><ele>33.0</ele><time>2026-04-08T17:23:48Z</time></trkpt><trkpt lat="45.119253317391724" lon="10.019481570327263"><ele>33.0</ele><time>2026-04-08T17:23:49Z</time></trkpt><trkpt lat="45.11932448851429" lon="10.019407270840034"><ele>33.0</ele><time>2026-04-08T17:23:50Z</time></trkpt><trkpt lat="45.11937217648765" lon="10.019304511986276"><ele>33.0</ele><time>2026-04-08T17:23:51Z</time></trkpt><trkpt lat="45.11941657592471" lon="10.019201689592531"><ele>33.0</ele><time>2026-04-08T17:23:52Z</time></trkpt><trkpt lat="45.11945883146349" lon="10.019099197352748"><ele>33.0</ele><time>2026-04-08T17:23:53Z</time></trkpt><trkpt lat="45.11950101482239" lon="10.018996880526522"><ele>33.0</ele><time>2026-04-08T17:23:54Z</time></trkpt><trkpt lat="45.11954307695214" lon="10.018895282007936"><ele>33.0</ele><time>2026-04-08T17:23:55Z</time></trkpt><trkpt lat="45.11958563089966" lon="10.018794702950267"><ele>33.0</ele><time>2026-04-08T17:23:56Z</time></trkpt><trkpt lat="45.11962907273587" lon="10.018691974918685"><ele>32.833333333333336</ele><time>2026-04-08T17:23:57Z</time></trkpt><trkpt lat="45.11967182907389" lon="10.018590867201052"><ele>32.666666666666664</ele><time>2026-04-08T17:23:58Z</time></trkpt><trkpt lat="45.119714958072485" lon="10.018488878506286"><ele>32.5</ele><time>2026-04-08T17:23:59Z</time></trkpt><trkpt lat="45.11975737632704" lon="10.018388313853446"><ele>32.33333333333333</ele><time>2026-04-08T17:24:00Z</time></trkpt><trkpt lat="45.11979982559981" lon="10.018287917717943"><ele>32.166666666666664</ele><time>2026-04-08T17:24:01Z</time></trkpt><trkpt lat="45.11984221387816" lon="10.01818929895222"><ele>32.0</ele><time>2026-04-08T17:24:02Z</time></trkpt><trkpt lat="45.119885346598124" lon="10.018088419898467"><ele>32.5</ele><time>2026-04-08T17:24:03Z</time></trkpt><trkpt lat="45.11992764809937" lon="10.017989018276626"><ele>33.0</ele><time>2026-04-08T17:24:04Z</time></trkpt><trkpt lat="45.11997025888019" lon="10.017888890159057"><ele>33.5</ele><time>2026-04-08T17:24:05Z</time></trkpt><trkpt lat="45.12000100676331" lon="10.01777951120101"><ele>34.0</ele><time>2026-04-08T17:24:06Z</time></trkpt><trkpt lat="45.12004311972501" lon="10.017678197638581"><ele>34.5</ele><time>2026-04-08T17:24:07Z</time></trkpt><trkpt lat="45.12009799571832" lon="10.017588865236513"><ele>35.0</ele><time>2026-04-08T17:24:08Z</time></trkpt><trkpt lat="45.120140070249725" lon="10.01748990118756"><ele>34.83333333333333</ele><time>2026-04-08T17:24:09Z</time></trkpt><trkpt lat="45.120183318934295" lon="10.017388175468827"><ele>34.666666666666664</ele><time>2026-04-08T17:24:10Z</time></trkpt><trkpt lat="45.1202259992433" lon="10.017287804773671"><ele>34.5</ele><time>2026-04-08T17:24:11Z</time></trkpt><trkpt lat="45.12026849751161" lon="10.017187890093913"><ele>34.333333333333336</ele><time>2026-04-08T17:24:12Z</time></trkpt><trkpt lat="45.12031081683499" lon="10.017088396064393"><ele>34.16666666666667</ele><time>2026-04-08T17:24:13Z</time></trkpt><trkpt lat="45.12035285834853" lon="10.016989554957256"><ele>34.0</ele><time>2026-04-08T17:24:14Z</time></trkpt><trkpt lat="45.12039544928066" lon="10.016889422334717"><ele>34.0</ele><time>2026-04-08T17:24:15Z</time></trkpt><trkpt lat="45.12043931975162" lon="10.016789089587443"><ele>34.0</ele><time>2026-04-08T17:24:15.999Z</time></trkpt><trkpt lat="45.120482784430955" lon="10.0166902636715"><ele>34.0</ele><time>2026-04-08T17:24:16.999Z</time></trkpt><trkpt lat="45.12052635754309" lon="10.016591190899371"><ele>34.0</ele><time>2026-04-08T17:24:17.999Z</time></trkpt><trkpt lat="45.120569223073616" lon="10.01649372700901"><ele>34.0</ele><time>2026-04-08T17:24:18.999Z</time></trkpt><trkpt lat="45.1206136869022" lon="10.016393587166426"><ele>34.0</ele><time>2026-04-08T17:24:19.999Z</time></trkpt><trkpt lat="45.12065887874057" lon="10.01629943433993"><ele>33.833333333333336</ele><time>2026-04-08T17:24:20.999Z</time></trkpt><trkpt lat="45.12070743015781" lon="10.016205688371421"><ele>33.66666666666667</ele><time>2026-04-08T17:24:21.999Z</time></trkpt><trkpt lat="45.12075768101889" lon="10.016112765196667"><ele>33.5</ele><time>2026-04-08T17:24:22.999Z</time></trkpt><trkpt lat="45.120806877517964" lon="10.0160217916354"><ele>33.333333333333336</ele><time>2026-04-08T17:24:23.999Z</time></trkpt><trkpt lat="45.1208576497112" lon="10.015927904473847"><ele>33.166666666666664</ele><time>2026-04-08T17:24:24.999Z</time></trkpt><trkpt lat="45.12090774702406" lon="10.015835265051003"><ele>33.0</ele><time>2026-04-08T17:24:25.999Z</time></trkpt><trkpt lat="45.12095789224341" lon="10.01574253722052"><ele>33.5</ele><time>2026-04-08T17:24:26.999Z</time></trkpt><trkpt lat="45.12100887151509" lon="10.015648266882865"><ele>34.0</ele><time>2026-04-08T17:24:27.999Z</time></trkpt><trkpt lat="45.1210590014406" lon="10.015556621317959"><ele>34.5</ele><time>2026-04-08T17:24:28.999Z</time></trkpt><trkpt lat="45.12110892866175" lon="10.015466300643158"><ele>35.0</ele><time>2026-04-08T17:24:29.999Z</time></trkpt><trkpt lat="45.12116040716776" lon="10.015374355790053"><ele>35.5</ele><time>2026-04-08T17:24:30.999Z</time></trkpt><trkpt lat="45.121210910776924" lon="10.015284152264709"><ele>36.0</ele><time>2026-04-08T17:24:31.999Z</time></trkpt><trkpt lat="45.12126092203521" lon="10.015194828071564"><ele>36.0</ele><time>2026-04-08T17:24:32.999Z</time></trkpt><trkpt lat="45.121311063819135" lon="10.015105270481907"><ele>36.0</ele><time>2026-04-08T17:24:33.999Z</time></trkpt><trkpt lat="45.121361888377855" lon="10.015016310298607"><ele>36.0</ele><time>2026-04-08T17:24:34.999Z</time></trkpt><trkpt lat="45.121413220436125" lon="10.014927188812758"><ele>36.0</ele><time>2026-04-08T17:24:35.999Z</time></trkpt><trkpt lat="45.1214641659419" lon="10.014838738271221"><ele>36.0</ele><time>2026-04-08T17:24:36.999Z</time></trkpt><trkpt lat="45.12151583757678" lon="10.014751006181063"><ele>36.0</ele><time>2026-04-08T17:24:37.999Z</time></trkpt><trkpt lat="45.12156844640524" lon="10.014663522748187"><ele>36.166666666666664</ele><time>2026-04-08T17:24:38.999Z</time></trkpt><trkpt lat="45.121621127969114" lon="10.01457810490849"><ele>36.333333333333336</ele><time>2026-04-08T17:24:39.999Z</time></trkpt><trkpt lat="45.12167317016144" lon="10.014493723547016"><ele>36.5</ele><time>2026-04-08T17:24:40.999Z</time></trkpt><trkpt lat="45.12172619208415" lon="10.01440775385547"><ele>36.66666666666667</ele><time>2026-04-08T17:24:41.999Z</time></trkpt><trkpt lat="45.12178021501431" lon="10.014320160782937"><ele>36.833333333333336</ele><time>2026-04-08T17:24:42.999Z</time></trkpt><trkpt lat="45.12183438835505" lon="10.01423232404102"><ele>37.0</ele><time>2026-04-08T17:24:43.999Z</time></trkpt><trkpt lat="45.12188736112689" lon="10.01414892759285"><ele>36.16666666666667</ele><time>2026-04-08T17:24:44.999Z</time></trkpt><trkpt lat="45.1219418753275" lon="10.014063455778091"><ele>35.333333333333336</ele><time>2026-04-08T17:24:45.999Z</time></trkpt><trkpt lat="45.121996912673474" lon="10.013977163369951"><ele>34.5</ele><time>2026-04-08T17:24:46.999Z</time></trkpt><trkpt lat="45.12204971118613" lon="10.013891652707127"><ele>33.666666666666664</ele><time>2026-04-08T17:24:47.999Z</time></trkpt><trkpt lat="45.12210328556308" lon="10.013803955302588"><ele>32.83333333333333</ele><time>2026-04-08T17:24:48.999Z</time></trkpt><trkpt lat="45.12215610792452" lon="10.013717489258187"><ele>32.0</ele><time>2026-04-08T17:24:49.999Z</time></trkpt><trkpt lat="45.12221025913368" lon="10.013629051277446"><ele>31.999999999999996</ele><time>2026-04-08T17:24:50.999Z</time></trkpt><trkpt lat="45.122265394896765" lon="10.013541030588943"><ele>32.0</ele><time>2026-04-08T17:24:51.999Z</time></trkpt><trkpt lat="45.122320883765056" lon="10.013452446260164"><ele>32.0</ele><time>2026-04-08T17:24:52.999Z</time></trkpt><trkpt lat="45.12237538391643" lon="10.013364285966823"><ele>32.0</ele><time>2026-04-08T17:24:53.999Z</time></trkpt><trkpt lat="45.12242866617036" lon="10.013274481863531"><ele>31.999999999999996</ele><time>2026-04-08T17:24:54.999Z</time></trkpt><trkpt lat="45.12248223830655" lon="10.013184188763237"><ele>32.0</ele><time>2026-04-08T17:24:55.999Z</time></trkpt><trkpt lat="45.12253375024379" lon="10.013089448804076"><ele>31.833333333333332</ele><time>2026-04-08T17:24:56.999Z</time></trkpt><trkpt lat="45.12258156171325" lon="10.012990401403275"><ele>31.666666666666664</ele><time>2026-04-08T17:24:57.999Z</time></trkpt><trkpt lat="45.122625110519174" lon="10.01288725234956"><ele>31.5</ele><time>2026-04-08T17:24:58.999Z</time></trkpt><trkpt lat="45.1226671268455" lon="10.012786909264333"><ele>31.333333333333336</ele><time>2026-04-08T17:24:59.999Z</time></trkpt><trkpt lat="45.12271036558289" lon="10.012681546680529"><ele>31.166666666666668</ele><time>2026-04-08T17:25:00.999Z</time></trkpt><trkpt lat="45.12275043564689" lon="10.012580930242462"><ele>31.0</ele><time>2026-04-08T17:25:01.999Z</time></trkpt><trkpt lat="45.122790227658406" lon="10.012478401339607"><ele>31.500000000000004</ele><time>2026-04-08T17:25:02.999Z</time></trkpt><trkpt lat="45.12282831099933" lon="10.012369256599074"><ele>32.0</ele><time>2026-04-08T17:25:03.999Z</time></trkpt><trkpt lat="45.12286448856459" lon="10.01226193085266"><ele>32.5</ele><time>2026-04-08T17:25:04.999Z</time></trkpt><trkpt lat="45.12289953556037" lon="10.012155496614257"><ele>33.0</ele><time>2026-04-08T17:25:05.999Z</time></trkpt><trkpt lat="45.12291729991003" lon="10.012032291610923"><ele>33.5</ele><time>2026-04-08T17:25:06.999Z</time></trkpt><trkpt lat="45.122952322844775" lon="10.011926595204658"><ele>34.0</ele><time>2026-04-08T17:25:07.999Z</time></trkpt><trkpt lat="45.122990628436874" lon="10.011821943752167"><ele>34.0</ele><time>2026-04-08T17:25:08.998Z</time></trkpt><trkpt lat="45.12302634477389" lon="10.01171350615282"><ele>34.0</ele><time>2026-04-08T17:25:09.998Z</time></trkpt><trkpt lat="45.123061338269146" lon="10.011607431325578"><ele>34.0</ele><time>2026-04-08T17:25:10.998Z</time></trkpt><trkpt lat="45.123095600727765" lon="10.011502713624743"><ele>34.0</ele><time>2026-04-08T17:25:11.998Z</time></trkpt><trkpt lat="45.123134122150006" lon="10.011394263807027"><ele>34.0</ele><time>2026-04-08T17:25:12.998Z</time></trkpt><trkpt lat="45.12316805995434" lon="10.011288721032242"><ele>34.0</ele><time>2026-04-08T17:25:13.998Z</time></trkpt><trkpt lat="45.123204390137566" lon="10.011181602067618"><ele>34.0</ele><time>2026-04-08T17:25:14.998Z</time></trkpt><trkpt lat="45.12325779529011" lon="10.011084243131156"><ele>34.0</ele><time>2026-04-08T17:25:15.998Z</time></trkpt><trkpt lat="45.12329360189343" lon="10.01097738891539"><ele>34.0</ele><time>2026-04-08T17:25:16.998Z</time></trkpt><trkpt lat="45.1233100752339" lon="10.010858338022679"><ele>34.0</ele><time>2026-04-08T17:25:17.998Z</time></trkpt><trkpt lat="45.12336565045366" lon="10.010762381178877"><ele>34.0</ele><time>2026-04-08T17:25:19Z</time></trkpt><trkpt lat="45.12340126847791" lon="10.010656089777216"><ele>34.0</ele><time>2026-04-08T17:25:20Z</time></trkpt><trkpt lat="45.123436804409394" lon="10.010550043290623"><ele>34.0</ele><time>2026-04-08T17:25:21Z</time></trkpt><trkpt lat="45.12347351172784" lon="10.010440501121883"><ele>34.0</ele><time>2026-04-08T17:25:22Z</time></trkpt><trkpt lat="45.12350963379685" lon="10.010332327978288"><ele>34.0</ele><time>2026-04-08T17:25:23Z</time></trkpt><trkpt lat="45.12354530016836" lon="10.010225203999653"><ele>34.0</ele><time>2026-04-08T17:25:24Z</time></trkpt><trkpt lat="45.12358180230008" lon="10.010115569841707"><ele>34.0</ele><time>2026-04-08T17:25:25Z</time></trkpt><trkpt lat="45.12361712482115" lon="10.010009478556745"><ele>34.0</ele><time>2026-04-08T17:25:26Z</time></trkpt><trkpt lat="45.123652200186484" lon="10.009904591357778"><ele>34.16666666666667</ele><time>2026-04-08T17:25:27Z</time></trkpt><trkpt lat="45.12368730109606" lon="10.009800007752183"><ele>34.333333333333336</ele><time>2026-04-08T17:25:28Z</time></trkpt><trkpt lat="45.12372277978447" lon="10.009694298007721"><ele>34.5</ele><time>2026-04-08T17:25:29Z</time></trkpt><trkpt lat="45.12375728446359" lon="10.009591491302821"><ele>34.666666666666664</ele><time>2026-04-08T17:25:30Z</time></trkpt><trkpt lat="45.123792515197344" lon="10.009486531079627"><ele>34.83333333333333</ele><time>2026-04-08T17:25:31Z</time></trkpt><trkpt lat="45.12382817627116" lon="10.009380385787733"><ele>35.0</ele><time>2026-04-08T17:25:32Z</time></trkpt><trkpt lat="45.123862659027836" lon="10.009277747826648"><ele>35.0</ele><time>2026-04-08T17:25:33Z</time></trkpt><trkpt lat="45.12389745278148" lon="10.00917251018555"><ele>35.0</ele><time>2026-04-08T17:25:34Z</time></trkpt><trkpt lat="45.12393124032341" lon="10.009069652539473"><ele>35.0</ele><time>2026-04-08T17:25:35Z</time></trkpt><trkpt lat="45.12396575940305" lon="10.00896452798129"><ele>35.0</ele><time>2026-04-08T17:25:36Z</time></trkpt><trkpt lat="45.123999309695336" lon="10.008862353575005"><ele>35.0</ele><time>2026-04-08T17:25:37Z</time></trkpt><trkpt lat="45.12403402434778" lon="10.008760161631386"><ele>35.0</ele><time>2026-04-08T17:25:38Z</time></trkpt><trkpt lat="45.12406934108676" lon="10.008656622450237"><ele>35.0</ele><time>2026-04-08T17:25:39Z</time></trkpt><trkpt lat="45.12410548270697" lon="10.008554300647452"><ele>35.0</ele><time>2026-04-08T17:25:40Z</time></trkpt><trkpt lat="45.12414113364314" lon="10.008449727380206"><ele>35.0</ele><time>2026-04-08T17:25:41Z</time></trkpt><trkpt lat="45.12417540822597" lon="10.008349274565363"><ele>35.0</ele><time>2026-04-08T17:25:42Z</time></trkpt><trkpt lat="45.124207624783416" lon="10.008252550262242"><ele>35.0</ele><time>2026-04-08T17:25:43Z</time></trkpt><trkpt lat="45.124240507229985" lon="10.00815382663614"><ele>35.0</ele><time>2026-04-08T17:25:44Z</time></trkpt><trkpt lat="45.12427197085505" lon="10.008059164739565"><ele>35.33333333333333</ele><time>2026-04-08T17:25:45Z</time></trkpt><trkpt lat="45.124289713615674" lon="10.007950242444062"><ele>35.666666666666664</ele><time>2026-04-08T17:25:46Z</time></trkpt><trkpt lat="45.124323966105116" lon="10.00784840534271"><ele>36.0</ele><time>2026-04-08T17:25:47Z</time></trkpt><trkpt lat="45.124371620775094" lon="10.007756622444226"><ele>36.333333333333336</ele><time>2026-04-08T17:25:48Z</time></trkpt><trkpt lat="45.124402251871665" lon="10.007659514491966"><ele>36.66666666666667</ele><time>2026-04-08T17:25:49Z</time></trkpt><trkpt lat="45.12443231269054" lon="10.007563893445283"><ele>37.0</ele><time>2026-04-08T17:25:50Z</time></trkpt><trkpt lat="45.124446664975665" lon="10.007460428970193"><ele>37.57142857142857</ele><time>2026-04-08T17:25:51Z</time></trkpt><trkpt lat="45.12447659934144" lon="10.007370469747814"><ele>38.14285714285714</ele><time>2026-04-08T17:25:52Z</time></trkpt><trkpt lat="45.12450490030515" lon="10.007284702326567"><ele>38.71428571428571</ele><time>2026-04-08T17:25:53Z</time></trkpt><trkpt lat="45.12453428117991" lon="10.007200913362828"><ele>39.285714285714285</ele><time>2026-04-08T17:25:54Z</time></trkpt><trkpt lat="45.12456231663711" lon="10.007120716059996"><ele>39.857142857142854</ele><time>2026-04-08T17:25:55Z</time></trkpt><trkpt lat="45.124604721022116" lon="10.007004416359115"><ele>40.42857142857142</ele><time>2026-04-08T17:25:57Z</time></trkpt><trkpt lat="45.12464490867335" lon="10.00691622933104"><ele>41.0</ele><time>2026-04-08T17:25:59Z</time></trkpt><trkpt lat="45.124655486060256" lon="10.007077727949502"><ele>41.0</ele><time>2026-04-08T17:26:01Z</time></trkpt><trkpt lat="45.12475382799202" lon="10.00718153510935"><ele>41.0</ele><time>2026-04-08T17:26:03Z</time></trkpt><trkpt lat="45.12480594729263" lon="10.007236550853278"><ele>41.0</ele><time>2026-04-08T17:26:04Z</time></trkpt><trkpt lat="45.124944916278416" lon="10.007140069247786"><ele>41.0</ele><time>2026-04-08T17:26:05Z</time></trkpt><trkpt lat="45.125001409830915" lon="10.007197029347187"><ele>41.0</ele><time>2026-04-08T17:26:06Z</time></trkpt><trkpt lat="45.125057301916854" lon="10.007258836438373"><ele>40.14285714285714</ele><time>2026-04-08T17:26:07Z</time></trkpt><trkpt lat="45.12511433939821" lon="10.007316636444362"><ele>39.285714285714285</ele><time>2026-04-08T17:26:08Z</time></trkpt><trkpt lat="45.125170657190374" lon="10.007375468927416"><ele>38.42857142857143</ele><time>2026-04-08T17:26:09Z</time></trkpt><trkpt lat="45.12522621139917" lon="10.00743811726573"><ele>37.57142857142857</ele><time>2026-04-08T17:26:10Z</time></trkpt><trkpt lat="45.12528499810982" lon="10.007496809439807"><ele>36.714285714285715</ele><time>2026-04-08T17:26:11Z</time></trkpt><trkpt lat="45.12534065408052" lon="10.007560927862885"><ele>35.857142857142854</ele><time>2026-04-08T17:26:12Z</time></trkpt><trkpt lat="45.12540192315013" lon="10.007614243858388"><ele>35.0</ele><time>2026-04-08T17:26:13Z</time></trkpt><trkpt lat="45.12546019028628" lon="10.00767883205916"><ele>35.0</ele><time>2026-04-08T17:26:14Z</time></trkpt><trkpt lat="45.12552067262501" lon="10.007739869597922"><ele>35.0</ele><time>2026-04-08T17:26:15Z</time></trkpt><trkpt lat="45.12557790201192" lon="10.007799071617205"><ele>35.0</ele><time>2026-04-08T17:26:16Z</time></trkpt><trkpt lat="45.125639519544904" lon="10.007863599391193"><ele>35.0</ele><time>2026-04-08T17:26:17Z</time></trkpt><trkpt lat="45.125702804807446" lon="10.007925815277328"><ele>35.0</ele><time>2026-04-08T17:26:18Z</time></trkpt><trkpt lat="45.125756622482854" lon="10.007990707749958"><ele>35.0</ele><time>2026-04-08T17:26:19Z</time></trkpt><trkpt lat="45.12581377372222" lon="10.008051205379548"><ele>35.0</ele><time>2026-04-08T17:26:19.999Z</time></trkpt><trkpt lat="45.125870224484935" lon="10.008108621294605"><ele>35.33333333333333</ele><time>2026-04-08T17:26:20.999Z</time></trkpt><trkpt lat="45.12592660214035" lon="10.008157995739401"><ele>35.666666666666664</ele><time>2026-04-08T17:26:21.999Z</time></trkpt><trkpt lat="45.12597976685454" lon="10.008209361270854"><ele>36.0</ele><time>2026-04-08T17:26:22.999Z</time></trkpt><trkpt lat="45.12603022392565" lon="10.008264203828706"><ele>36.333333333333336</ele><time>2026-04-08T17:26:23.999Z</time></trkpt><trkpt lat="45.126127211083016" lon="10.0083734271288"><ele>36.66666666666667</ele><time>2026-04-08T17:26:25.999Z</time></trkpt><trkpt lat="45.126216752703456" lon="10.008482983900285"><ele>37.0</ele><time>2026-04-08T17:26:27.999Z</time></trkpt><trkpt lat="45.12631124422991" lon="10.008590211733617"><ele>36.833333333333336</ele><time>2026-04-08T17:26:29.999Z</time></trkpt><trkpt lat="45.12636234305895" lon="10.0086440315791"><ele>36.66666666666667</ele><time>2026-04-08T17:26:30.999Z</time></trkpt><trkpt lat="45.126420042168064" lon="10.008699223582155"><ele>36.5</ele><time>2026-04-08T17:26:31.999Z</time></trkpt><trkpt lat="45.12648345904021" lon="10.008754243544246"><ele>36.333333333333336</ele><time>2026-04-08T17:26:32.999Z</time></trkpt><trkpt lat="45.1265326080303" lon="10.008816486912044"><ele>36.166666666666664</ele><time>2026-04-08T17:26:33.999Z</time></trkpt><trkpt lat="45.12658001380492" lon="10.008881329958664"><ele>36.0</ele><time>2026-04-08T17:26:34.999Z</time></trkpt><trkpt lat="45.12659472817534" lon="10.009123978479073"><ele>36.0</ele><time>2026-04-08T17:26:36.999Z</time></trkpt><trkpt lat="45.12675047582652" lon="10.009108005238307"><ele>36.0</ele><time>2026-04-08T17:26:38.999Z</time></trkpt><trkpt lat="45.126772275359706" lon="10.009315611651154"><ele>36.0</ele><time>2026-04-08T17:26:40.999Z</time></trkpt><trkpt lat="45.12687060596791" lon="10.009421989074923"><ele>36.0</ele><time>2026-04-08T17:26:42.999Z</time></trkpt><trkpt lat="45.12695492628059" lon="10.009514664553508"><ele>36.25</ele><time>2026-04-08T17:26:44.999Z</time></trkpt><trkpt lat="45.12704084922418" lon="10.009602517923703"><ele>36.5</ele><time>2026-04-08T17:26:46.999Z</time></trkpt><trkpt lat="45.1271056792174" lon="10.00962997064141"><ele>36.75</ele><time>2026-04-08T17:26:47.999Z</time></trkpt><trkpt lat="45.12731385900456" lon="10.009503647761543"><ele>37.0</ele><time>2026-04-08T17:26:49.999Z</time></trkpt><trkpt lat="45.127265525073" lon="10.009394513549344"><ele>37.0</ele><time>2026-04-08T17:26:50.999Z</time></trkpt><trkpt lat="45.12721382899791" lon="10.009337206299161"><ele>37.0</ele><time>2026-04-08T17:26:53.999Z</time></trkpt><trkpt lat="45.127288551011226" lon="10.009337105921675"><ele>37.0</ele><time>2026-04-08T17:26:55.999Z</time></trkpt><trkpt lat="45.12733157708694" lon="10.009220209464416"><ele>37.0</ele><time>2026-04-08T17:26:57.999Z</time></trkpt><trkpt lat="45.12736281903476" lon="10.00907055870888"><ele>37.0</ele><time>2026-04-08T17:26:59.999Z</time></trkpt><trkpt lat="45.12741436307036" lon="10.008915832244469"><ele>37.0</ele><time>2026-04-08T17:27:01.999Z</time></trkpt><trkpt lat="45.12743669807703" lon="10.008826528615327"><ele>37.0</ele><time>2026-04-08T17:27:02.999Z</time></trkpt><trkpt lat="45.12745915137041" lon="10.00874135465519"><ele>37.0</ele><time>2026-04-08T17:27:03.999Z</time></trkpt><trkpt lat="45.12748115978785" lon="10.008652114039444"><ele>37.0</ele><time>2026-04-08T17:27:04.999Z</time></trkpt><trkpt lat="45.12750828680022" lon="10.00856337607884"><ele>37.0</ele><time>2026-04-08T17:27:05.999Z</time></trkpt><trkpt lat="45.127531752486384" lon="10.00846589328769"><ele>37.0</ele><time>2026-04-08T17:27:06.999Z</time></trkpt><trkpt lat="45.12756788689769" lon="10.00837237169455"><ele>37.0</ele><time>2026-04-08T17:27:07.999Z</time></trkpt><trkpt lat="45.12759686365013" lon="10.008282077927717"><ele>36.85714285714286</ele><time>2026-04-08T17:27:08.999Z</time></trkpt><trkpt lat="45.127626514764586" lon="10.008193032621703"><ele>36.714285714285715</ele><time>2026-04-08T17:27:09.999Z</time></trkpt><trkpt lat="45.12765731730629" lon="10.008104885190047"><ele>36.57142857142857</ele><time>2026-04-08T17:27:10.999Z</time></trkpt><trkpt lat="45.12768720093527" lon="10.008015998258422"><ele>36.42857142857143</ele><time>2026-04-08T17:27:11.999Z</time></trkpt><trkpt lat="45.12772113451913" lon="10.007921682004945"><ele>36.285714285714285</ele><time>2026-04-08T17:27:12.998Z</time></trkpt><trkpt lat="45.12775224861016" lon="10.007830139254"><ele>36.142857142857146</ele><time>2026-04-08T17:27:13.998Z</time></trkpt><trkpt lat="45.127784350134775" lon="10.00773425437833"><ele>36.0</ele><time>2026-04-08T17:27:14.998Z</time></trkpt><trkpt lat="45.12781428106719" lon="10.007638379055468"><ele>36.00000000000001</ele><time>2026-04-08T17:27:15.998Z</time></trkpt><trkpt lat="45.127845596664315" lon="10.00754445287585"><ele>36.0</ele><time>2026-04-08T17:27:16.998Z</time></trkpt><trkpt lat="45.127877975228415" lon="10.007452412329783"><ele>36.0</ele><time>2026-04-08T17:27:17.998Z</time></trkpt><trkpt lat="45.127908513469045" lon="10.00735660584009"><ele>36.0</ele><time>2026-04-08T17:27:18.998Z</time></trkpt><trkpt lat="45.127939090236055" lon="10.007262152414189"><ele>36.0</ele><time>2026-04-08T17:27:19.998Z</time></trkpt><trkpt lat="45.12796951688137" lon="10.007167413956655"><ele>36.00000000000001</ele><time>2026-04-08T17:27:20.998Z</time></trkpt><trkpt lat="45.12800111602803" lon="10.007076401658287"><ele>36.0</ele><time>2026-04-08T17:27:21.998Z</time></trkpt><trkpt lat="45.12803175590087" lon="10.006985656519893"><ele>36.0</ele><time>2026-04-08T17:27:22.998Z</time></trkpt><trkpt lat="45.12806201787028" lon="10.006893885897139"><ele>36.0</ele><time>2026-04-08T17:27:23.998Z</time></trkpt><trkpt lat="45.1280969660944" lon="10.006807160011222"><ele>36.0</ele><time>2026-04-08T17:27:25Z</time></trkpt><trkpt lat="45.12814394397142" lon="10.006736607064978"><ele>36.0</ele><time>2026-04-08T17:27:26Z</time></trkpt><trkpt lat="45.12828697578893" lon="10.00672534861292"><ele>36.0</ele><time>2026-04-08T17:27:28Z</time></trkpt><trkpt lat="45.12836282509056" lon="10.006702926844458"><ele>36.0</ele><time>2026-04-08T17:27:29Z</time></trkpt><trkpt lat="45.12843686663508" lon="10.006695576652104"><ele>36.5</ele><time>2026-04-08T17:27:30Z</time></trkpt><trkpt lat="45.12851197875321" lon="10.006681963154822"><ele>37.0</ele><time>2026-04-08T17:27:31Z</time></trkpt><trkpt lat="45.12858622534248" lon="10.006664566717488"><ele>37.5</ele><time>2026-04-08T17:27:32Z</time></trkpt><trkpt lat="45.12866283142611" lon="10.006643560392504"><ele>38.0</ele><time>2026-04-08T17:27:33Z</time></trkpt><trkpt lat="45.12873728156811" lon="10.006627907819828"><ele>38.5</ele><time>2026-04-08T17:27:34Z</time></trkpt><trkpt lat="45.128815707737495" lon="10.006617905421376"><ele>39.0</ele><time>2026-04-08T17:27:35Z</time></trkpt><trkpt lat="45.12889185269827" lon="10.006599681187597"><ele>39.0</ele><time>2026-04-08T17:27:36Z</time></trkpt><trkpt lat="45.128966650361114" lon="10.00658154717634"><ele>39.0</ele><time>2026-04-08T17:27:37Z</time></trkpt><trkpt lat="45.12904412551874" lon="10.006566263859433"><ele>39.0</ele><time>2026-04-08T17:27:38Z</time></trkpt><trkpt lat="45.12912055136142" lon="10.006550329092109"><ele>39.0</ele><time>2026-04-08T17:27:39Z</time></trkpt><trkpt lat="45.12918781668584" lon="10.00652917182981"><ele>39.0</ele><time>2026-04-08T17:27:40Z</time></trkpt><trkpt lat="45.12926911964024" lon="10.00651352699726"><ele>39.0</ele><time>2026-04-08T17:27:41Z</time></trkpt><trkpt lat="45.129343883881994" lon="10.00649862297303"><ele>39.333333333333336</ele><time>2026-04-08T17:27:42Z</time></trkpt><trkpt lat="45.129416590987866" lon="10.006484918362577"><ele>39.666666666666664</ele><time>2026-04-08T17:27:43Z</time></trkpt><trkpt lat="45.129490894227665" lon="10.006466981385957"><ele>40.0</ele><time>2026-04-08T17:27:44Z</time></trkpt><trkpt lat="45.12956789448377" lon="10.006443101857036"><ele>40.33333333333333</ele><time>2026-04-08T17:27:45Z</time></trkpt><trkpt lat="45.129641617170236" lon="10.006418134797409"><ele>40.666666666666664</ele><time>2026-04-08T17:27:46Z</time></trkpt><trkpt lat="45.129719171391855" lon="10.006397164106493"><ele>41.0</ele><time>2026-04-08T17:27:47Z</time></trkpt><trkpt lat="45.129792335157966" lon="10.006374505309239"><ele>40.99999999999999</ele><time>2026-04-08T17:27:48Z</time></trkpt><trkpt lat="45.12986457568585" lon="10.006353196669188"><ele>41.0</ele><time>2026-04-08T17:27:49Z</time></trkpt><trkpt lat="45.12994001250272" lon="10.00633727849009"><ele>41.0</ele><time>2026-04-08T17:27:50Z</time></trkpt><trkpt lat="45.130014398030674" lon="10.006325713527612"><ele>41.0</ele><time>2026-04-08T17:27:51Z</time></trkpt><trkpt lat="45.13008658857391" lon="10.006313075777"><ele>41.0</ele><time>2026-04-08T17:27:52Z</time></trkpt><trkpt lat="45.13015723699963" lon="10.006304607794824"><ele>40.99999999999999</ele><time>2026-04-08T17:27:53Z</time></trkpt><trkpt lat="45.13022486281562" lon="10.00629751102681"><ele>41.0</ele><time>2026-04-08T17:27:54Z</time></trkpt><trkpt lat="45.13029123347319" lon="10.006284308794935"><ele>41.14285714285714</ele><time>2026-04-08T17:27:55Z</time></trkpt><trkpt lat="45.13035651255733" lon="10.006273688503782"><ele>41.285714285714285</ele><time>2026-04-08T17:27:56Z</time></trkpt><trkpt lat="45.13042428847427" lon="10.006255650712477"><ele>41.42857142857143</ele><time>2026-04-08T17:27:57Z</time></trkpt><trkpt lat="45.13049699929368" lon="10.00623472102626"><ele>41.57142857142857</ele><time>2026-04-08T17:27:58Z</time></trkpt><trkpt lat="45.13056692750956" lon="10.006218882583946"><ele>41.714285714285715</ele><time>2026-04-08T17:27:59Z</time></trkpt><trkpt lat="45.130635587378386" lon="10.00620307496087"><ele>41.857142857142854</ele><time>2026-04-08T17:28:00Z</time></trkpt><trkpt lat="45.13071323140748" lon="10.006190440608085"><ele>42.0</ele><time>2026-04-08T17:28:01Z</time></trkpt><trkpt lat="45.13079053424205" lon="10.006172220649134"><ele>41.666666666666664</ele><time>2026-04-08T17:28:02Z</time></trkpt><trkpt lat="45.13086302625218" lon="10.00615503367543"><ele>41.333333333333336</ele><time>2026-04-08T17:28:03Z</time></trkpt><trkpt lat="45.13093591232368" lon="10.006133846356807"><ele>41.0</ele><time>2026-04-08T17:28:04Z</time></trkpt><trkpt lat="45.13101047192921" lon="10.006124755984738"><ele>40.66666666666667</ele><time>2026-04-08T17:28:05Z</time></trkpt><trkpt lat="45.13108697496606" lon="10.00610812886487"><ele>40.333333333333336</ele><time>2026-04-08T17:28:06Z</time></trkpt><trkpt lat="45.131160035224774" lon="10.006088287166305"><ele>40.0</ele><time>2026-04-08T17:28:07Z</time></trkpt><trkpt lat="45.13123417030901" lon="10.00606997170033"><ele>40.0</ele><time>2026-04-08T17:28:08Z</time></trkpt><trkpt lat="45.13131444030562" lon="10.006050720814608"><ele>40.0</ele><time>2026-04-08T17:28:09Z</time></trkpt><trkpt lat="45.1313898094067" lon="10.006036796123668"><ele>40.0</ele><time>2026-04-08T17:28:10Z</time></trkpt><trkpt lat="45.13146883919234" lon="10.00601844069601"><ele>40.0</ele><time>2026-04-08T17:28:11Z</time></trkpt><trkpt lat="45.131545763871614" lon="10.006003386401071"><ele>40.0</ele><time>2026-04-08T17:28:12Z</time></trkpt><trkpt lat="45.13162205125866" lon="10.00598808881354"><ele>40.0</ele><time>2026-04-08T17:28:13Z</time></trkpt><trkpt lat="45.13170263595947" lon="10.005973018660631"><ele>40.16666666666667</ele><time>2026-04-08T17:28:14Z</time></trkpt><trkpt lat="45.131777807250934" lon="10.005953454643922"><ele>40.333333333333336</ele><time>2026-04-08T17:28:15Z</time></trkpt><trkpt lat="45.13185686169564" lon="10.005924975309682"><ele>40.5</ele><time>2026-04-08T17:28:16Z</time></trkpt><trkpt lat="45.131934936334055" lon="10.005916975194573"><ele>40.666666666666664</ele><time>2026-04-08T17:28:17Z</time></trkpt><trkpt lat="45.132014022335845" lon="10.005904885162028"><ele>40.83333333333333</ele><time>2026-04-08T17:28:18Z</time></trkpt><trkpt lat="45.132092197711685" lon="10.00588517216962"><ele>41.0</ele><time>2026-04-08T17:28:19Z</time></trkpt><trkpt lat="45.13217181782457" lon="10.005866758014243"><ele>41.0</ele><time>2026-04-08T17:28:20Z</time></trkpt><trkpt lat="45.13225182162192" lon="10.0058474234625"><ele>41.0</ele><time>2026-04-08T17:28:21Z</time></trkpt><trkpt lat="45.13232809134629" lon="10.00582894815076"><ele>41.0</ele><time>2026-04-08T17:28:21.999Z</time></trkpt><trkpt lat="45.13240941567791" lon="10.005812247680424"><ele>41.0</ele><time>2026-04-08T17:28:22.999Z</time></trkpt><trkpt lat="45.132483316284635" lon="10.005796627125386"><ele>41.0</ele><time>2026-04-08T17:28:23.999Z</time></trkpt><trkpt lat="45.132562165661824" lon="10.005788769943784"><ele>41.0</ele><time>2026-04-08T17:28:24.999Z</time></trkpt><trkpt lat="45.13264043818963" lon="10.00576590117006"><ele>40.666666666666664</ele><time>2026-04-08T17:28:25.999Z</time></trkpt><trkpt lat="45.132718571343254" lon="10.005742470735829"><ele>40.33333333333333</ele><time>2026-04-08T17:28:26.999Z</time></trkpt><trkpt lat="45.13279770729033" lon="10.005722262139619"><ele>40.0</ele><time>2026-04-08T17:28:27.999Z</time></trkpt><trkpt lat="45.132873089428706" lon="10.005699722046346"><ele>39.666666666666664</ele><time>2026-04-08T17:28:28.999Z</time></trkpt><trkpt lat="45.13295042335716" lon="10.005680173025718"><ele>39.333333333333336</ele><time>2026-04-08T17:28:29.999Z</time></trkpt><trkpt lat="45.13303021511" lon="10.005660827449026"><ele>39.0</ele><time>2026-04-08T17:28:30.999Z</time></trkpt><trkpt lat="45.13310863960488" lon="10.005645863803652"><ele>39.0</ele><time>2026-04-08T17:28:31.999Z</time></trkpt><trkpt lat="45.13318846839915" lon="10.00563793028153"><ele>39.0</ele><time>2026-04-08T17:28:32.999Z</time></trkpt><trkpt lat="45.133267235033095" lon="10.005627669897498"><ele>39.0</ele><time>2026-04-08T17:28:33.999Z</time></trkpt><trkpt lat="45.133342690523136" lon="10.005610793995562"><ele>39.0</ele><time>2026-04-08T17:28:34.999Z</time></trkpt><trkpt lat="45.133423111322514" lon="10.005587761271686"><ele>39.0</ele><time>2026-04-08T17:28:35.999Z</time></trkpt><trkpt lat="45.13350115054214" lon="10.00556319948112"><ele>39.0</ele><time>2026-04-08T17:28:36.999Z</time></trkpt><trkpt lat="45.13357926840283" lon="10.005543589011051"><ele>38.833333333333336</ele><time>2026-04-08T17:28:37.999Z</time></trkpt><trkpt lat="45.13365600676914" lon="10.005523800710861"><ele>38.666666666666664</ele><time>2026-04-08T17:28:38.999Z</time></trkpt><trkpt lat="45.13373279587532" lon="10.005506716850778"><ele>38.5</ele><time>2026-04-08T17:28:39.999Z</time></trkpt><trkpt lat="45.13380901312857" lon="10.005490560268392"><ele>38.33333333333333</ele><time>2026-04-08T17:28:40.999Z</time></trkpt><trkpt lat="45.13388498799284" lon="10.005472882773711"><ele>38.166666666666664</ele><time>2026-04-08T17:28:41.999Z</time></trkpt><trkpt lat="45.13395994517727" lon="10.005456351752239"><ele>38.0</ele><time>2026-04-08T17:28:42.999Z</time></trkpt><trkpt lat="45.13403887119237" lon="10.005458618916757"><ele>38.14285714285714</ele><time>2026-04-08T17:28:43.999Z</time></trkpt><trkpt lat="45.13410830792335" lon="10.00544326834917"><ele>38.28571428571429</ele><time>2026-04-08T17:28:44.999Z</time></trkpt><trkpt lat="45.13417576398481" lon="10.00540776328776"><ele>38.42857142857143</ele><time>2026-04-08T17:28:45.999Z</time></trkpt><trkpt lat="45.134244747310724" lon="10.005390309406764"><ele>38.57142857142857</ele><time>2026-04-08T17:28:46.999Z</time></trkpt><trkpt lat="45.134310719192726" lon="10.005377637651819"><ele>38.71428571428571</ele><time>2026-04-08T17:28:47.999Z</time></trkpt><trkpt lat="45.13437467425503" lon="10.005366325029192"><ele>38.85714285714286</ele><time>2026-04-08T17:28:48.999Z</time></trkpt><trkpt lat="45.13447549533555" lon="10.005372330293055"><ele>39.0</ele><time>2026-04-08T17:28:50.999Z</time></trkpt><trkpt lat="45.13455044357347" lon="10.005478073824314"><ele>39.0</ele><time>2026-04-08T17:28:52.999Z</time></trkpt><trkpt lat="45.134554845100965" lon="10.005648976884729"><ele>39.0</ele><time>2026-04-08T17:28:54.999Z</time></trkpt><trkpt lat="45.13457936904675" lon="10.005830384493615"><ele>39.0</ele><time>2026-04-08T17:28:56.999Z</time></trkpt><trkpt lat="45.134586723255296" lon="10.005932438636746"><ele>39.0</ele><time>2026-04-08T17:28:57.999Z</time></trkpt><trkpt lat="45.13459676004796" lon="10.006024618659671"><ele>39.0</ele><time>2026-04-08T17:28:58.999Z</time></trkpt><trkpt lat="45.13460670587395" lon="10.006125500604622"><ele>39.0</ele><time>2026-04-08T17:28:59.999Z</time></trkpt><trkpt lat="45.134616458070234" lon="10.006226757119835"><ele>39.0</ele><time>2026-04-08T17:29:00.999Z</time></trkpt><trkpt lat="45.13462929459823" lon="10.006327610989935"><ele>39.0</ele><time>2026-04-08T17:29:01.999Z</time></trkpt><trkpt lat="45.134643906521234" lon="10.006434539319368"><ele>39.0</ele><time>2026-04-08T17:29:02.999Z</time></trkpt><trkpt lat="45.13465095368576" lon="10.006531622081871"><ele>39.0</ele><time>2026-04-08T17:29:03.999Z</time></trkpt><trkpt lat="45.13465622308566" lon="10.006628094793898"><ele>39.0</ele><time>2026-04-08T17:29:04.999Z</time></trkpt><trkpt lat="45.134667847548876" lon="10.00672823957971"><ele>39.0</ele><time>2026-04-08T17:29:05.999Z</time></trkpt><trkpt lat="45.13467490555271" lon="10.006834506730241"><ele>39.166666666666664</ele><time>2026-04-08T17:29:06.999Z</time></trkpt><trkpt lat="45.13468843024541" lon="10.006936454083792"><ele>39.333333333333336</ele><time>2026-04-08T17:29:07.999Z</time></trkpt><trkpt lat="45.134697909659266" lon="10.007043353485459"><ele>39.5</ele><time>2026-04-08T17:29:08.999Z</time></trkpt><trkpt lat="45.13470259613989" lon="10.00714991708551"><ele>39.66666666666667</ele><time>2026-04-08T17:29:09.999Z</time></trkpt><trkpt lat="45.134715713252646" lon="10.007258862121844"><ele>39.833333333333336</ele><time>2026-04-08T17:29:10.999Z</time></trkpt><trkpt lat="45.13472559405648" lon="10.00737161939408"><ele>40.0</ele><time>2026-04-08T17:29:11.999Z</time></trkpt><trkpt lat="45.134737687084765" lon="10.007481630279809"><ele>40.16666666666667</ele><time>2026-04-08T17:29:12.999Z</time></trkpt><trkpt lat="45.1347528736209" lon="10.007590715285092"><ele>40.333333333333336</ele><time>2026-04-08T17:29:13.999Z</time></trkpt><trkpt lat="45.13476287845029" lon="10.007696431440115"><ele>40.5</ele><time>2026-04-08T17:29:14.999Z</time></trkpt><trkpt lat="45.134780041293276" lon="10.007810188268476"><ele>40.666666666666664</ele><time>2026-04-08T17:29:15.998Z</time></trkpt><trkpt lat="45.13478993548914" lon="10.00791784900963"><ele>40.83333333333333</ele><time>2026-04-08T17:29:16.998Z</time></trkpt><trkpt lat="45.13480224053154" lon="10.008023827985914"><ele>41.0</ele><time>2026-04-08T17:29:17.998Z</time></trkpt><trkpt lat="45.134802615025436" lon="10.008136586480203"><ele>41.0</ele><time>2026-04-08T17:29:18.998Z</time></trkpt><trkpt lat="45.13480900331519" lon="10.00824776587699"><ele>41.0</ele><time>2026-04-08T17:29:19.998Z</time></trkpt><trkpt lat="45.13481952073307" lon="10.00835682514928"><ele>41.0</ele><time>2026-04-08T17:29:20.998Z</time></trkpt><trkpt lat="45.13486443189091" lon="10.0084630865154"><ele>41.0</ele><time>2026-04-08T17:29:21.998Z</time></trkpt><trkpt lat="45.134877153337555" lon="10.008578646000872"><ele>41.0</ele><time>2026-04-08T17:29:22.998Z</time></trkpt><trkpt lat="45.13488973867276" lon="10.008688014495004"><ele>41.0</ele><time>2026-04-08T17:29:23.998Z</time></trkpt><trkpt lat="45.13490268968395" lon="10.00880053346295"><ele>41.0</ele><time>2026-04-08T17:29:24.998Z</time></trkpt><trkpt lat="45.13491519191248" lon="10.008906802460377"><ele>41.0</ele><time>2026-04-08T17:29:25.998Z</time></trkpt><trkpt lat="45.13492826858394" lon="10.009018588482187"><ele>41.0</ele><time>2026-04-08T17:29:26.998Z</time></trkpt><trkpt lat="45.134941242257035" lon="10.009130104755522"><ele>41.0</ele><time>2026-04-08T17:29:27.998Z</time></trkpt><trkpt lat="45.13495387287458" lon="10.0092406225296"><ele>41.0</ele><time>2026-04-08T17:29:28.998Z</time></trkpt><trkpt lat="45.134967611547445" lon="10.009350511954858"><ele>41.0</ele><time>2026-04-08T17:29:29.998Z</time></trkpt><trkpt lat="45.13497004136791" lon="10.009461664635184"><ele>41.166666666666664</ele><time>2026-04-08T17:29:31Z</time></trkpt><trkpt lat="45.13501083150719" lon="10.009558093138232"><ele>41.33333333333333</ele><time>2026-04-08T17:29:32Z</time></trkpt><trkpt lat="45.135044830324944" lon="10.00965606032132"><ele>41.5</ele><time>2026-04-08T17:29:33Z</time></trkpt><trkpt lat="45.135081549278496" lon="10.009752178092516"><ele>41.666666666666664</ele><time>2026-04-08T17:29:34Z</time></trkpt><trkpt lat="45.13512394266471" lon="10.009844381304463"><ele>41.833333333333336</ele><time>2026-04-08T17:29:35Z</time></trkpt><trkpt lat="45.13516586266878" lon="10.00993258583241"><ele>42.0</ele><time>2026-04-08T17:29:36Z</time></trkpt><trkpt lat="45.13521206951613" lon="10.010028212273168"><ele>41.666666666666664</ele><time>2026-04-08T17:29:37Z</time></trkpt><trkpt lat="45.13525575388409" lon="10.010118729646608"><ele>41.333333333333336</ele><time>2026-04-08T17:29:38Z</time></trkpt><trkpt lat="45.13529879732524" lon="10.010208286344978"><ele>41.0</ele><time>2026-04-08T17:29:39Z</time></trkpt><trkpt lat="45.13534260660662" lon="10.010299436219986"><ele>40.66666666666667</ele><time>2026-04-08T17:29:40Z</time></trkpt><trkpt lat="45.13538455184986" lon="10.010386706946282"><ele>40.333333333333336</ele><time>2026-04-08T17:29:41Z</time></trkpt><trkpt lat="45.13542530246005" lon="10.010475109036442"><ele>40.0</ele><time>2026-04-08T17:29:42Z</time></trkpt><trkpt lat="45.13546713338234" lon="10.010565273834263"><ele>40.0</ele><time>2026-04-08T17:29:43Z</time></trkpt><trkpt lat="45.135507748049676" lon="10.010652274405121"><ele>40.0</ele><time>2026-04-08T17:29:44Z</time></trkpt><trkpt lat="45.13554495210093" lon="10.010731182210359"><ele>40.0</ele><time>2026-04-08T17:29:45Z</time></trkpt><trkpt lat="45.13558375444604" lon="10.010813424105672"><ele>40.0</ele><time>2026-04-08T17:29:46Z</time></trkpt><trkpt lat="45.13561975469275" lon="10.010889035521533"><ele>40.0</ele><time>2026-04-08T17:29:47Z</time></trkpt><trkpt lat="45.13569146253467" lon="10.011038983644992"><ele>40.0</ele><time>2026-04-08T17:29:49Z</time></trkpt><trkpt lat="45.13575811053145" lon="10.011182922927023"><ele>40.25</ele><time>2026-04-08T17:29:51Z</time></trkpt><trkpt lat="45.13581156141075" lon="10.011296375961502"><ele>40.5</ele><time>2026-04-08T17:29:53Z</time></trkpt><trkpt lat="45.13585453798758" lon="10.011385761905787"><ele>40.75</ele><time>2026-04-08T17:29:56Z</time></trkpt><trkpt lat="45.13605104784552" lon="10.011469871432736"><ele>41.0</ele><time>2026-04-08T17:30:13Z</time></trkpt><trkpt lat="45.13613669932616" lon="10.011365626018312"><ele>41.0</ele><time>2026-04-08T17:30:15Z</time></trkpt><trkpt lat="45.13623316890123" lon="10.011269881682821"><ele>41.0</ele><time>2026-04-08T17:30:17Z</time></trkpt><trkpt lat="45.13633313266572" lon="10.011164960577121"><ele>41.0</ele><time>2026-04-08T17:30:19Z</time></trkpt><trkpt lat="45.136392922060566" lon="10.011115329743966"><ele>41.0</ele><time>2026-04-08T17:30:20Z</time></trkpt><trkpt lat="45.13643615757343" lon="10.011043692210547"><ele>41.0</ele><time>2026-04-08T17:30:21Z</time></trkpt><trkpt lat="45.13649474134521" lon="10.010989961475127"><ele>41.0</ele><time>2026-04-08T17:30:22Z</time></trkpt><trkpt lat="45.13655300525916" lon="10.010942878803162"><ele>40.857142857142854</ele><time>2026-04-08T17:30:23Z</time></trkpt><trkpt lat="45.13661031358117" lon="10.01088982462674"><ele>40.714285714285715</ele><time>2026-04-08T17:30:24Z</time></trkpt><trkpt lat="45.13667381187221" lon="10.010837333358188"><ele>40.57142857142857</ele><time>2026-04-08T17:30:25Z</time></trkpt><trkpt lat="45.13672922565776" lon="10.010775351070029"><ele>40.42857142857143</ele><time>2026-04-08T17:30:26Z</time></trkpt><trkpt lat="45.13678783661923" lon="10.010725900540425"><ele>40.285714285714285</ele><time>2026-04-08T17:30:26.999Z</time></trkpt><trkpt lat="45.13684649504496" lon="10.01067778639956"><ele>40.14285714285714</ele><time>2026-04-08T17:30:27.999Z</time></trkpt><trkpt lat="45.136902890818696" lon="10.010622779190706"><ele>40.0</ele><time>2026-04-08T17:30:28.999Z</time></trkpt><trkpt lat="45.136958682269494" lon="10.010569353629506"><ele>40.0</ele><time>2026-04-08T17:30:29.999Z</time></trkpt><trkpt lat="45.13701612281285" lon="10.010520267204498"><ele>40.0</ele><time>2026-04-08T17:30:30.999Z</time></trkpt><trkpt lat="45.13707030534324" lon="10.010461375613676"><ele>40.0</ele><time>2026-04-08T17:30:31.999Z</time></trkpt><trkpt lat="45.13712279072902" lon="10.010399253900216"><ele>40.0</ele><time>2026-04-08T17:30:32.999Z</time></trkpt><trkpt lat="45.13717458143367" lon="10.01034109870032"><ele>40.0</ele><time>2026-04-08T17:30:33.999Z</time></trkpt><trkpt lat="45.13722899758844" lon="10.010286823987403"><ele>40.0</ele><time>2026-04-08T17:30:34.999Z</time></trkpt><trkpt lat="45.13728285391224" lon="10.010238398262295"><ele>40.0</ele><time>2026-04-08T17:30:35.999Z</time></trkpt><trkpt lat="45.1373385295283" lon="10.010188038374729"><ele>40.0</ele><time>2026-04-08T17:30:36.999Z</time></trkpt><trkpt lat="45.13744750368535" lon="10.01009169005751"><ele>40.0</ele><time>2026-04-08T17:30:38.999Z</time></trkpt><trkpt lat="45.13753599109808" lon="10.010019699452803"><ele>40.0</ele><time>2026-04-08T17:30:40.999Z</time></trkpt><trkpt lat="45.13759573514409" lon="10.009974674262624"><ele>40.0</ele><time>2026-04-08T17:30:42.999Z</time></trkpt><trkpt lat="45.137654882028194" lon="10.00992725321819"><ele>40.0</ele><time>2026-04-08T17:30:44.999Z</time></trkpt><trkpt lat="45.13773663716847" lon="10.009867368629186"><ele>40.0</ele><time>2026-04-08T17:30:46.999Z</time></trkpt><trkpt lat="45.13783963432528" lon="10.009801935038377"><ele>40.0</ele><time>2026-04-08T17:30:48.999Z</time></trkpt><trkpt lat="45.13793499391802" lon="10.00970419242029"><ele>40.0</ele><time>2026-04-08T17:30:50.999Z</time></trkpt><trkpt lat="45.13799128417106" lon="10.009654438850024"><ele>40.0</ele><time>2026-04-08T17:30:51.999Z</time></trkpt><trkpt lat="45.138050413467205" lon="10.009601599984371"><ele>40.0</ele><time>2026-04-08T17:30:52.999Z</time></trkpt><trkpt lat="45.138112440243404" lon="10.009568431413335"><ele>40.0</ele><time>2026-04-08T17:30:53.999Z</time></trkpt><trkpt lat="45.138165926292395" lon="10.00951066213726"><ele>39.857142857142854</ele><time>2026-04-08T17:30:54.999Z</time></trkpt><trkpt lat="45.13822044854944" lon="10.009450203810074"><ele>39.714285714285715</ele><time>2026-04-08T17:30:55.999Z</time></trkpt><trkpt lat="45.138279335350646" lon="10.009396567484025"><ele>39.57142857142857</ele><time>2026-04-08T17:30:56.999Z</time></trkpt><trkpt lat="45.138335715607376" lon="10.009343352896034"><ele>39.42857142857143</ele><time>2026-04-08T17:30:57.999Z</time></trkpt><trkpt lat="45.13839280219479" lon="10.009287144118767"><ele>39.285714285714285</ele><time>2026-04-08T17:30:58.999Z</time></trkpt><trkpt lat="45.138449149355864" lon="10.009228445613603"><ele>39.142857142857146</ele><time>2026-04-08T17:30:59.999Z</time></trkpt><trkpt lat="45.13851355993249" lon="10.009177761949397"><ele>39.0</ele><time>2026-04-08T17:31:00.999Z</time></trkpt><trkpt lat="45.13857124451939" lon="10.009131160283747"><ele>39.0</ele><time>2026-04-08T17:31:01.999Z</time></trkpt><trkpt lat="45.13863056532982" lon="10.00907151502969"><ele>39.0</ele><time>2026-04-08T17:31:02.999Z</time></trkpt><trkpt lat="45.138692565572995" lon="10.009018119979633"><ele>39.0</ele><time>2026-04-08T17:31:03.999Z</time></trkpt><trkpt lat="45.138755919499665" lon="10.008964147356139"><ele>39.0</ele><time>2026-04-08T17:31:04.999Z</time></trkpt><trkpt lat="45.13881548719514" lon="10.008914279088918"><ele>39.0</ele><time>2026-04-08T17:31:05.999Z</time></trkpt><trkpt lat="45.13888310157982" lon="10.008869679067734"><ele>39.0</ele><time>2026-04-08T17:31:06.999Z</time></trkpt><trkpt lat="45.13894676797593" lon="10.008819551362482"><ele>39.0</ele><time>2026-04-08T17:31:07.999Z</time></trkpt><trkpt lat="45.13901185786499" lon="10.00876272102677"><ele>39.285714285714285</ele><time>2026-04-08T17:31:08.999Z</time></trkpt><trkpt lat="45.13907219994979" lon="10.00870984593003"><ele>39.57142857142857</ele><time>2026-04-08T17:31:09.999Z</time></trkpt><trkpt lat="45.13913098449208" lon="10.00864800190568"><ele>39.857142857142854</ele><time>2026-04-08T17:31:10.999Z</time></trkpt><trkpt lat="45.139189684665965" lon="10.008589102397195"><ele>40.14285714285714</ele><time>2026-04-08T17:31:11.999Z</time></trkpt><trkpt lat="45.139245678860576" lon="10.008533298894324"><ele>40.42857142857143</ele><time>2026-04-08T17:31:12.999Z</time></trkpt><trkpt lat="45.13930529630155" lon="10.008480250733166"><ele>40.71428571428571</ele><time>2026-04-08T17:31:13.999Z</time></trkpt><trkpt lat="45.13936265442305" lon="10.00843248892964"><ele>41.0</ele><time>2026-04-08T17:31:14.999Z</time></trkpt><trkpt lat="45.13942080806297" lon="10.00838008707336"><ele>41.14285714285714</ele><time>2026-04-08T17:31:15.999Z</time></trkpt><trkpt lat="45.13947839841549" lon="10.008323601748472"><ele>41.285714285714285</ele><time>2026-04-08T17:31:16.999Z</time></trkpt><trkpt lat="45.1395342370741" lon="10.008272414183416"><ele>41.42857142857143</ele><time>2026-04-08T17:31:17.999Z</time></trkpt><trkpt lat="45.13959013493133" lon="10.008217098642591"><ele>41.57142857142857</ele><time>2026-04-08T17:31:18.999Z</time></trkpt><trkpt lat="45.139646660366" lon="10.008161181260048"><ele>41.714285714285715</ele><time>2026-04-08T17:31:19.998Z</time></trkpt><trkpt lat="45.13970435318832" lon="10.00811010939326"><ele>41.857142857142854</ele><time>2026-04-08T17:31:20.998Z</time></trkpt><trkpt lat="45.13975861771947" lon="10.008056424600854"><ele>42.0</ele><time>2026-04-08T17:31:21.998Z</time></trkpt><trkpt lat="45.13981476812374" lon="10.008005619210358"><ele>42.0</ele><time>2026-04-08T17:31:22.998Z</time></trkpt><trkpt lat="45.13987202244034" lon="10.007955411291368"><ele>42.0</ele><time>2026-04-08T17:31:23.998Z</time></trkpt><trkpt lat="45.139927059011384" lon="10.007904551493521"><ele>42.0</ele><time>2026-04-08T17:31:24.998Z</time></trkpt><trkpt lat="45.13998302014569" lon="10.007847272164014"><ele>42.0</ele><time>2026-04-08T17:31:25.998Z</time></trkpt><trkpt lat="45.14004102267912" lon="10.007795623381002"><ele>42.0</ele><time>2026-04-08T17:31:26.998Z</time></trkpt><trkpt lat="45.14009797621188" lon="10.007742407676055"><ele>42.0</ele><time>2026-04-08T17:31:27.998Z</time></trkpt><trkpt lat="45.14015693266939" lon="10.007695444530434"><ele>42.0</ele><time>2026-04-08T17:31:28.998Z</time></trkpt><trkpt lat="45.14021547802885" lon="10.007648891760883"><ele>41.857142857142854</ele><time>2026-04-08T17:31:29.998Z</time></trkpt><trkpt lat="45.14027233031417" lon="10.00760064034157"><ele>41.714285714285715</ele><time>2026-04-08T17:31:30.998Z</time></trkpt><trkpt lat="45.14033040327266" lon="10.007555427792413"><ele>41.57142857142857</ele><time>2026-04-08T17:31:31.998Z</time></trkpt><trkpt lat="45.140392789813326" lon="10.007521595707738"><ele>41.42857142857143</ele><time>2026-04-08T17:31:32.998Z</time></trkpt><trkpt lat="45.1404538729587" lon="10.0074951453107"><ele>41.285714285714285</ele><time>2026-04-08T17:31:33.998Z</time></trkpt><trkpt lat="45.14051712427018" lon="10.00748789915347"><ele>41.14285714285714</ele><time>2026-04-08T17:31:34.998Z</time></trkpt><trkpt lat="45.140581006220266" lon="10.007485115681277"><ele>41.0</ele><time>2026-04-08T17:31:35.998Z</time></trkpt><trkpt lat="45.14064400913576" lon="10.007483769542453"><ele>41.0</ele><time>2026-04-08T17:31:37Z</time></trkpt><trkpt lat="45.1407620454452" lon="10.007471682308218"><ele>41.0</ele><time>2026-04-08T17:31:39Z</time></trkpt><trkpt lat="45.14087086763382" lon="10.007457082961455"><ele>41.0</ele><time>2026-04-08T17:31:41Z</time></trkpt><trkpt lat="45.140972875974896" lon="10.007441219666463"><ele>41.0</ele><time>2026-04-08T17:31:43Z</time></trkpt><trkpt lat="45.14104341666529" lon="10.007461433203048"><ele>41.0</ele><time>2026-04-08T17:31:46Z</time></trkpt><trkpt lat="45.1410413982498" lon="10.007629350676229"><ele>44.0</ele><time>2026-04-08T17:31:47Z</time></trkpt><trkpt lat="45.14102587795426" lon="10.00772707477636"><ele>44.0</ele><time>2026-04-08T17:31:49Z</time></trkpt><trkpt lat="45.14105048595324" lon="10.007820935816794"><ele>44.0</ele><time>2026-04-08T17:32:27Z</time></trkpt><trkpt lat="45.1411854830993" lon="10.007826738850282"><ele>44.0</ele><time>2026-04-08T17:32:42.999Z</time></trkpt></trkseg></trk></gpx>